<?xml version="1.0" encoding="UTF-8" standalone="no" ?>
<gpx xmlns="http://www.topografix.com/GPX/1/1" xmlns:xsi="http://www.w3.org/2001/XMLSchema-instance" xsi:schemaLocation="http://www.topografix.com/GPX/1/1 http://www.topografix.com/GPX/1/1/gpx.xsd" version="1.1" creator="VisuGPX - https://www.visugpx.com">
  <metadata>
    <name>Tracé 20190529-171517</name>
    <desc><![CDATA[Une belle ballade un peu plus rapide que la précédente]]></desc>
  </metadata>
  <wpt lat="49.25298" lon="3.97192">
    <ele>125</ele>
    <name><![CDATA[4 courreurs]]></name>
  </wpt>
  <trk>
    <name><![CDATA[Tracé 20190529-171517]]></name>
    <trkseg>
      <trkpt lat="49.25298" lon="3.97192">
        <ele>125</ele>
        <time>2019-05-29T15:15:17Z</time>
      </trkpt>
      <trkpt lat="49.25299" lon="3.97189">
        <ele>123</ele>
        <time>2019-05-29T15:15:18Z</time>
      </trkpt>
      <trkpt lat="49.25299" lon="3.97188">
        <ele>122</ele>
        <time>2019-05-29T15:15:19Z</time>
      </trkpt>
      <trkpt lat="49.25298" lon="3.97187">
        <ele>122</ele>
        <time>2019-05-29T15:15:20Z</time>
      </trkpt>
      <trkpt lat="49.25297" lon="3.97187">
        <ele>121</ele>
        <time>2019-05-29T15:15:21Z</time>
      </trkpt>
      <trkpt lat="49.25297" lon="3.9719">
        <ele>123</ele>
        <time>2019-05-29T15:15:22Z</time>
      </trkpt>
      <trkpt lat="49.25297" lon="3.97192">
        <ele>125</ele>
        <time>2019-05-29T15:15:23Z</time>
      </trkpt>
      <trkpt lat="49.25297" lon="3.97192">
        <ele>125</ele>
        <time>2019-05-29T15:15:24Z</time>
      </trkpt>
      <trkpt lat="49.25297" lon="3.97192">
        <ele>128</ele>
        <time>2019-05-29T15:15:25Z</time>
      </trkpt>
      <trkpt lat="49.25297" lon="3.97192">
        <ele>128</ele>
        <time>2019-05-29T15:15:26Z</time>
      </trkpt>
      <trkpt lat="49.25297" lon="3.97192">
        <ele>128</ele>
        <time>2019-05-29T15:15:27Z</time>
      </trkpt>
      <trkpt lat="49.25297" lon="3.97192">
        <ele>128</ele>
        <time>2019-05-29T15:15:28Z</time>
      </trkpt>
      <trkpt lat="49.25297" lon="3.97192">
        <ele>128</ele>
        <time>2019-05-29T15:15:29Z</time>
      </trkpt>
      <trkpt lat="49.25297" lon="3.97192">
        <ele>128</ele>
        <time>2019-05-29T15:15:30Z</time>
      </trkpt>
      <trkpt lat="49.25297" lon="3.97192">
        <ele>128</ele>
        <time>2019-05-29T15:15:31Z</time>
      </trkpt>
      <trkpt lat="49.25297" lon="3.97192">
        <ele>128</ele>
        <time>2019-05-29T15:15:32Z</time>
      </trkpt>
      <trkpt lat="49.25297" lon="3.97192">
        <ele>128</ele>
        <time>2019-05-29T15:15:33Z</time>
      </trkpt>
      <trkpt lat="49.25297" lon="3.97192">
        <ele>128</ele>
        <time>2019-05-29T15:15:34Z</time>
      </trkpt>
      <trkpt lat="49.253" lon="3.972">
        <ele>131</ele>
        <time>2019-05-29T15:15:45Z</time>
      </trkpt>
      <trkpt lat="49.25299" lon="3.97201">
        <ele>132</ele>
        <time>2019-05-29T15:15:48Z</time>
      </trkpt>
      <trkpt lat="49.25299" lon="3.97201">
        <ele>132</ele>
        <time>2019-05-29T15:15:49Z</time>
      </trkpt>
      <trkpt lat="49.25298" lon="3.972">
        <ele>133</ele>
        <time>2019-05-29T15:15:50Z</time>
      </trkpt>
      <trkpt lat="49.25298" lon="3.97199">
        <ele>133</ele>
        <time>2019-05-29T15:15:51Z</time>
      </trkpt>
      <trkpt lat="49.25297" lon="3.97199">
        <ele>133</ele>
        <time>2019-05-29T15:15:52Z</time>
      </trkpt>
      <trkpt lat="49.34508" lon="4.07146">
        <ele>135</ele>
        <time>2019-05-29T16:04:16Z</time>
      </trkpt>
      <trkpt lat="49.34508" lon="4.07146">
        <ele>135</ele>
        <time>2019-05-29T16:04:17Z</time>
      </trkpt>
      <trkpt lat="49.34508" lon="4.07146">
        <ele>135</ele>
        <time>2019-05-29T16:04:18Z</time>
      </trkpt>
      <trkpt lat="49.34508" lon="4.07146">
        <ele>135</ele>
        <time>2019-05-29T16:04:19Z</time>
      </trkpt>
      <trkpt lat="49.34508" lon="4.07146">
        <ele>135</ele>
        <time>2019-05-29T16:04:20Z</time>
      </trkpt>
      <trkpt lat="49.34508" lon="4.07146">
        <ele>135</ele>
        <time>2019-05-29T16:04:21Z</time>
      </trkpt>
      <trkpt lat="49.34508" lon="4.07146">
        <ele>135</ele>
        <time>2019-05-29T16:04:22Z</time>
      </trkpt>
      <trkpt lat="49.34508" lon="4.07146">
        <ele>135</ele>
        <time>2019-05-29T16:04:23Z</time>
      </trkpt>
      <trkpt lat="49.34508" lon="4.07146">
        <ele>135</ele>
        <time>2019-05-29T16:04:24Z</time>
      </trkpt>
      <trkpt lat="49.34508" lon="4.07146">
        <ele>135</ele>
        <time>2019-05-29T16:04:25Z</time>
      </trkpt>
      <trkpt lat="49.34508" lon="4.07146">
        <ele>135</ele>
        <time>2019-05-29T16:04:26Z</time>
      </trkpt>
      <trkpt lat="49.34508" lon="4.07146">
        <ele>135</ele>
        <time>2019-05-29T16:04:27Z</time>
      </trkpt>
      <trkpt lat="49.34508" lon="4.07146">
        <ele>135</ele>
        <time>2019-05-29T16:04:28Z</time>
      </trkpt>
      <trkpt lat="49.34508" lon="4.07146">
        <ele>135</ele>
        <time>2019-05-29T16:04:29Z</time>
      </trkpt>
      <trkpt lat="49.34508" lon="4.07146">
        <ele>135</ele>
        <time>2019-05-29T16:04:30Z</time>
      </trkpt>
      <trkpt lat="49.34508" lon="4.07146">
        <ele>135</ele>
        <time>2019-05-29T16:04:31Z</time>
      </trkpt>
      <trkpt lat="49.34508" lon="4.07146">
        <ele>135</ele>
        <time>2019-05-29T16:04:32Z</time>
      </trkpt>
      <trkpt lat="49.34508" lon="4.07146">
        <ele>135</ele>
        <time>2019-05-29T16:04:33Z</time>
      </trkpt>
      <trkpt lat="49.34508" lon="4.07146">
        <ele>135</ele>
        <time>2019-05-29T16:04:34Z</time>
      </trkpt>
      <trkpt lat="49.34508" lon="4.07146">
        <ele>135</ele>
        <time>2019-05-29T16:04:35Z</time>
      </trkpt>
      <trkpt lat="49.34508" lon="4.07146">
        <ele>135</ele>
        <time>2019-05-29T16:04:36Z</time>
      </trkpt>
      <trkpt lat="49.34508" lon="4.07146">
        <ele>135</ele>
        <time>2019-05-29T16:04:37Z</time>
      </trkpt>
      <trkpt lat="49.34508" lon="4.07146">
        <ele>135</ele>
        <time>2019-05-29T16:04:38Z</time>
      </trkpt>
      <trkpt lat="49.34508" lon="4.07146">
        <ele>135</ele>
        <time>2019-05-29T16:04:39Z</time>
      </trkpt>
      <trkpt lat="49.34508" lon="4.07146">
        <ele>135</ele>
        <time>2019-05-29T16:04:40Z</time>
      </trkpt>
      <trkpt lat="49.34508" lon="4.07146">
        <ele>135</ele>
        <time>2019-05-29T16:04:41Z</time>
      </trkpt>
      <trkpt lat="49.34508" lon="4.07146">
        <ele>135</ele>
        <time>2019-05-29T16:04:42Z</time>
      </trkpt>
      <trkpt lat="49.34508" lon="4.07146">
        <ele>135</ele>
        <time>2019-05-29T16:04:43Z</time>
      </trkpt>
      <trkpt lat="49.34508" lon="4.07146">
        <ele>135</ele>
        <time>2019-05-29T16:04:44Z</time>
      </trkpt>
      <trkpt lat="49.34508" lon="4.07146">
        <ele>135</ele>
        <time>2019-05-29T16:04:45Z</time>
      </trkpt>
      <trkpt lat="49.34508" lon="4.07146">
        <ele>135</ele>
        <time>2019-05-29T16:04:46Z</time>
      </trkpt>
      <trkpt lat="49.34508" lon="4.07146">
        <ele>135</ele>
        <time>2019-05-29T16:04:47Z</time>
      </trkpt>
      <trkpt lat="49.34508" lon="4.07146">
        <ele>135</ele>
        <time>2019-05-29T16:04:48Z</time>
      </trkpt>
      <trkpt lat="49.34508" lon="4.07146">
        <ele>135</ele>
        <time>2019-05-29T16:04:49Z</time>
      </trkpt>
      <trkpt lat="49.34508" lon="4.07146">
        <ele>135</ele>
        <time>2019-05-29T16:04:50Z</time>
      </trkpt>
      <trkpt lat="49.34508" lon="4.07146">
        <ele>135</ele>
        <time>2019-05-29T16:04:51Z</time>
      </trkpt>
      <trkpt lat="49.34508" lon="4.07146">
        <ele>135</ele>
        <time>2019-05-29T16:04:52Z</time>
      </trkpt>
      <trkpt lat="49.34508" lon="4.07146">
        <ele>135</ele>
        <time>2019-05-29T16:04:53Z</time>
      </trkpt>
      <trkpt lat="49.34508" lon="4.07146">
        <ele>135</ele>
        <time>2019-05-29T16:04:54Z</time>
      </trkpt>
      <trkpt lat="49.34508" lon="4.07146">
        <ele>135</ele>
        <time>2019-05-29T16:04:55Z</time>
      </trkpt>
      <trkpt lat="49.34508" lon="4.07146">
        <ele>135</ele>
        <time>2019-05-29T16:04:56Z</time>
      </trkpt>
      <trkpt lat="49.34508" lon="4.07146">
        <ele>135</ele>
        <time>2019-05-29T16:04:57Z</time>
      </trkpt>
      <trkpt lat="49.34508" lon="4.07146">
        <ele>135</ele>
        <time>2019-05-29T16:04:58Z</time>
      </trkpt>
      <trkpt lat="49.34508" lon="4.07146">
        <ele>135</ele>
        <time>2019-05-29T16:04:59Z</time>
      </trkpt>
      <trkpt lat="49.34508" lon="4.07146">
        <ele>135</ele>
        <time>2019-05-29T16:05:00Z</time>
      </trkpt>
      <trkpt lat="49.34508" lon="4.07146">
        <ele>135</ele>
        <time>2019-05-29T16:05:01Z</time>
      </trkpt>
      <trkpt lat="49.34508" lon="4.07146">
        <ele>135</ele>
        <time>2019-05-29T16:05:02Z</time>
      </trkpt>
      <trkpt lat="49.34508" lon="4.07146">
        <ele>135</ele>
        <time>2019-05-29T16:05:03Z</time>
      </trkpt>
      <trkpt lat="49.34508" lon="4.07146">
        <ele>135</ele>
        <time>2019-05-29T16:05:04Z</time>
      </trkpt>
      <trkpt lat="49.34508" lon="4.07146">
        <ele>135</ele>
        <time>2019-05-29T16:05:05Z</time>
      </trkpt>
      <trkpt lat="49.34508" lon="4.07146">
        <ele>135</ele>
        <time>2019-05-29T16:05:06Z</time>
      </trkpt>
      <trkpt lat="49.34508" lon="4.07146">
        <ele>135</ele>
        <time>2019-05-29T16:05:07Z</time>
      </trkpt>
      <trkpt lat="49.34508" lon="4.07146">
        <ele>135</ele>
        <time>2019-05-29T16:05:08Z</time>
      </trkpt>
      <trkpt lat="49.34508" lon="4.07146">
        <ele>135</ele>
        <time>2019-05-29T16:05:09Z</time>
      </trkpt>
      <trkpt lat="49.34508" lon="4.07146">
        <ele>135</ele>
        <time>2019-05-29T16:05:10Z</time>
      </trkpt>
      <trkpt lat="49.34508" lon="4.07146">
        <ele>135</ele>
        <time>2019-05-29T16:05:11Z</time>
      </trkpt>
      <trkpt lat="49.34508" lon="4.07146">
        <ele>135</ele>
        <time>2019-05-29T16:05:12Z</time>
      </trkpt>
      <trkpt lat="49.34508" lon="4.07146">
        <ele>135</ele>
        <time>2019-05-29T16:05:13Z</time>
      </trkpt>
      <trkpt lat="49.34508" lon="4.07146">
        <ele>135</ele>
        <time>2019-05-29T16:05:14Z</time>
      </trkpt>
      <trkpt lat="49.34508" lon="4.07146">
        <ele>135</ele>
        <time>2019-05-29T16:05:15Z</time>
      </trkpt>
      <trkpt lat="49.34508" lon="4.07146">
        <ele>135</ele>
        <time>2019-05-29T16:05:16Z</time>
      </trkpt>
      <trkpt lat="49.34508" lon="4.07146">
        <ele>135</ele>
        <time>2019-05-29T16:05:17Z</time>
      </trkpt>
      <trkpt lat="49.34508" lon="4.07146">
        <ele>135</ele>
        <time>2019-05-29T16:05:18Z</time>
      </trkpt>
      <trkpt lat="49.34508" lon="4.07146">
        <ele>135</ele>
        <time>2019-05-29T16:05:19Z</time>
      </trkpt>
      <trkpt lat="49.34508" lon="4.07146">
        <ele>135</ele>
        <time>2019-05-29T16:05:20Z</time>
      </trkpt>
      <trkpt lat="49.34508" lon="4.07146">
        <ele>135</ele>
        <time>2019-05-29T16:05:21Z</time>
      </trkpt>
      <trkpt lat="49.34508" lon="4.07146">
        <ele>135</ele>
        <time>2019-05-29T16:05:22Z</time>
      </trkpt>
      <trkpt lat="49.34508" lon="4.07146">
        <ele>135</ele>
        <time>2019-05-29T16:05:23Z</time>
      </trkpt>
      <trkpt lat="49.34508" lon="4.07146">
        <ele>135</ele>
        <time>2019-05-29T16:05:24Z</time>
      </trkpt>
      <trkpt lat="49.34508" lon="4.07146">
        <ele>135</ele>
        <time>2019-05-29T16:05:25Z</time>
      </trkpt>
      <trkpt lat="49.34508" lon="4.07146">
        <ele>135</ele>
        <time>2019-05-29T16:05:26Z</time>
      </trkpt>
      <trkpt lat="49.34508" lon="4.07147">
        <ele>134</ele>
        <time>2019-05-29T16:05:27Z</time>
      </trkpt>
      <trkpt lat="49.34508" lon="4.07149">
        <ele>134</ele>
        <time>2019-05-29T16:05:28Z</time>
      </trkpt>
      <trkpt lat="49.34506" lon="4.07151">
        <ele>134</ele>
        <time>2019-05-29T16:05:29Z</time>
      </trkpt>
      <trkpt lat="49.34505" lon="4.07152">
        <ele>134</ele>
        <time>2019-05-29T16:05:30Z</time>
      </trkpt>
      <trkpt lat="49.34504" lon="4.07153">
        <ele>134</ele>
        <time>2019-05-29T16:05:31Z</time>
      </trkpt>
      <trkpt lat="49.34503" lon="4.07153">
        <ele>134</ele>
        <time>2019-05-29T16:05:32Z</time>
      </trkpt>
      <trkpt lat="49.34501" lon="4.07153">
        <ele>135</ele>
        <time>2019-05-29T16:05:33Z</time>
      </trkpt>
      <trkpt lat="49.345" lon="4.07154">
        <ele>136</ele>
        <time>2019-05-29T16:05:34Z</time>
      </trkpt>
      <trkpt lat="49.34499" lon="4.07155">
        <ele>136</ele>
        <time>2019-05-29T16:05:35Z</time>
      </trkpt>
      <trkpt lat="49.34497" lon="4.07155">
        <ele>136</ele>
        <time>2019-05-29T16:05:36Z</time>
      </trkpt>
      <trkpt lat="49.34497" lon="4.07155">
        <ele>136</ele>
        <time>2019-05-29T16:05:37Z</time>
      </trkpt>
      <trkpt lat="49.34496" lon="4.07155">
        <ele>136</ele>
        <time>2019-05-29T16:05:38Z</time>
      </trkpt>
      <trkpt lat="49.34496" lon="4.07155">
        <ele>135</ele>
        <time>2019-05-29T16:05:39Z</time>
      </trkpt>
      <trkpt lat="49.34496" lon="4.07155">
        <ele>135</ele>
        <time>2019-05-29T16:05:40Z</time>
      </trkpt>
      <trkpt lat="49.34496" lon="4.07155">
        <ele>135</ele>
        <time>2019-05-29T16:05:41Z</time>
      </trkpt>
      <trkpt lat="49.34496" lon="4.07155">
        <ele>135</ele>
        <time>2019-05-29T16:05:42Z</time>
      </trkpt>
      <trkpt lat="49.34496" lon="4.07155">
        <ele>135</ele>
        <time>2019-05-29T16:05:43Z</time>
      </trkpt>
      <trkpt lat="49.34496" lon="4.07155">
        <ele>135</ele>
        <time>2019-05-29T16:05:44Z</time>
      </trkpt>
      <trkpt lat="49.34496" lon="4.07155">
        <ele>135</ele>
        <time>2019-05-29T16:05:45Z</time>
      </trkpt>
      <trkpt lat="49.34496" lon="4.07155">
        <ele>135</ele>
        <time>2019-05-29T16:05:46Z</time>
      </trkpt>
      <trkpt lat="49.34495" lon="4.07155">
        <ele>135</ele>
        <time>2019-05-29T16:05:47Z</time>
      </trkpt>
      <trkpt lat="49.34495" lon="4.07155">
        <ele>135</ele>
        <time>2019-05-29T16:05:48Z</time>
      </trkpt>
      <trkpt lat="49.34494" lon="4.07154">
        <ele>134</ele>
        <time>2019-05-29T16:05:49Z</time>
      </trkpt>
      <trkpt lat="49.34494" lon="4.07155">
        <ele>134</ele>
        <time>2019-05-29T16:05:50Z</time>
      </trkpt>
      <trkpt lat="49.34494" lon="4.07155">
        <ele>134</ele>
        <time>2019-05-29T16:05:51Z</time>
      </trkpt>
      <trkpt lat="49.34494" lon="4.07155">
        <ele>134</ele>
        <time>2019-05-29T16:05:52Z</time>
      </trkpt>
      <trkpt lat="49.34494" lon="4.07155">
        <ele>134</ele>
        <time>2019-05-29T16:05:53Z</time>
      </trkpt>
      <trkpt lat="49.34494" lon="4.07155">
        <ele>134</ele>
        <time>2019-05-29T16:05:54Z</time>
      </trkpt>
      <trkpt lat="49.34494" lon="4.07155">
        <ele>134</ele>
        <time>2019-05-29T16:05:55Z</time>
      </trkpt>
      <trkpt lat="49.34494" lon="4.07155">
        <ele>134</ele>
        <time>2019-05-29T16:05:56Z</time>
      </trkpt>
      <trkpt lat="49.34494" lon="4.07155">
        <ele>134</ele>
        <time>2019-05-29T16:05:57Z</time>
      </trkpt>
      <trkpt lat="49.34494" lon="4.07155">
        <ele>134</ele>
        <time>2019-05-29T16:05:58Z</time>
      </trkpt>
      <trkpt lat="49.34494" lon="4.07155">
        <ele>134</ele>
        <time>2019-05-29T16:05:59Z</time>
      </trkpt>
      <trkpt lat="49.34493" lon="4.07156">
        <ele>135</ele>
        <time>2019-05-29T16:06:00Z</time>
      </trkpt>
      <trkpt lat="49.34492" lon="4.07156">
        <ele>134</ele>
        <time>2019-05-29T16:06:01Z</time>
      </trkpt>
      <trkpt lat="49.34491" lon="4.07156">
        <ele>134</ele>
        <time>2019-05-29T16:06:02Z</time>
      </trkpt>
      <trkpt lat="49.34489" lon="4.07157">
        <ele>134</ele>
        <time>2019-05-29T16:06:03Z</time>
      </trkpt>
      <trkpt lat="49.34488" lon="4.07157">
        <ele>134</ele>
        <time>2019-05-29T16:06:04Z</time>
      </trkpt>
      <trkpt lat="49.34487" lon="4.07157">
        <ele>134</ele>
        <time>2019-05-29T16:06:05Z</time>
      </trkpt>
      <trkpt lat="49.34486" lon="4.07158">
        <ele>134</ele>
        <time>2019-05-29T16:06:06Z</time>
      </trkpt>
      <trkpt lat="49.34485" lon="4.07158">
        <ele>134</ele>
        <time>2019-05-29T16:06:07Z</time>
      </trkpt>
      <trkpt lat="49.34484" lon="4.07158">
        <ele>135</ele>
        <time>2019-05-29T16:06:08Z</time>
      </trkpt>
      <trkpt lat="49.34483" lon="4.07159">
        <ele>135</ele>
        <time>2019-05-29T16:06:09Z</time>
      </trkpt>
      <trkpt lat="49.34482" lon="4.07159">
        <ele>135</ele>
        <time>2019-05-29T16:06:10Z</time>
      </trkpt>
      <trkpt lat="49.34481" lon="4.0716">
        <ele>135</ele>
        <time>2019-05-29T16:06:11Z</time>
      </trkpt>
      <trkpt lat="49.3448" lon="4.0716">
        <ele>135</ele>
        <time>2019-05-29T16:06:12Z</time>
      </trkpt>
      <trkpt lat="49.34478" lon="4.07161">
        <ele>135</ele>
        <time>2019-05-29T16:06:13Z</time>
      </trkpt>
      <trkpt lat="49.34477" lon="4.07162">
        <ele>135</ele>
        <time>2019-05-29T16:06:14Z</time>
      </trkpt>
      <trkpt lat="49.34476" lon="4.07163">
        <ele>135</ele>
        <time>2019-05-29T16:06:15Z</time>
      </trkpt>
      <trkpt lat="49.34475" lon="4.07163">
        <ele>135</ele>
        <time>2019-05-29T16:06:16Z</time>
      </trkpt>
      <trkpt lat="49.34473" lon="4.07163">
        <ele>135</ele>
        <time>2019-05-29T16:06:17Z</time>
      </trkpt>
      <trkpt lat="49.34472" lon="4.07163">
        <ele>134</ele>
        <time>2019-05-29T16:06:18Z</time>
      </trkpt>
      <trkpt lat="49.34472" lon="4.07164">
        <ele>134</ele>
        <time>2019-05-29T16:06:19Z</time>
      </trkpt>
      <trkpt lat="49.34471" lon="4.07164">
        <ele>134</ele>
        <time>2019-05-29T16:06:20Z</time>
      </trkpt>
      <trkpt lat="49.34471" lon="4.07164">
        <ele>134</ele>
        <time>2019-05-29T16:06:21Z</time>
      </trkpt>
      <trkpt lat="49.3447" lon="4.07164">
        <ele>134</ele>
        <time>2019-05-29T16:06:22Z</time>
      </trkpt>
      <trkpt lat="49.34468" lon="4.07165">
        <ele>134</ele>
        <time>2019-05-29T16:06:23Z</time>
      </trkpt>
      <trkpt lat="49.34466" lon="4.07166">
        <ele>134</ele>
        <time>2019-05-29T16:06:24Z</time>
      </trkpt>
      <trkpt lat="49.34464" lon="4.07167">
        <ele>134</ele>
        <time>2019-05-29T16:06:25Z</time>
      </trkpt>
      <trkpt lat="49.34463" lon="4.07168">
        <ele>133</ele>
        <time>2019-05-29T16:06:26Z</time>
      </trkpt>
      <trkpt lat="49.3446" lon="4.07169">
        <ele>133</ele>
        <time>2019-05-29T16:06:27Z</time>
      </trkpt>
      <trkpt lat="49.34458" lon="4.0717">
        <ele>133</ele>
        <time>2019-05-29T16:06:28Z</time>
      </trkpt>
      <trkpt lat="49.34457" lon="4.07171">
        <ele>133</ele>
        <time>2019-05-29T16:06:29Z</time>
      </trkpt>
      <trkpt lat="49.34455" lon="4.07171">
        <ele>133</ele>
        <time>2019-05-29T16:06:30Z</time>
      </trkpt>
      <trkpt lat="49.34453" lon="4.07172">
        <ele>133</ele>
        <time>2019-05-29T16:06:31Z</time>
      </trkpt>
      <trkpt lat="49.3445" lon="4.07173">
        <ele>133</ele>
        <time>2019-05-29T16:06:32Z</time>
      </trkpt>
      <trkpt lat="49.34448" lon="4.07174">
        <ele>134</ele>
        <time>2019-05-29T16:06:33Z</time>
      </trkpt>
      <trkpt lat="49.34447" lon="4.07177">
        <ele>134</ele>
        <time>2019-05-29T16:06:34Z</time>
      </trkpt>
      <trkpt lat="49.34446" lon="4.0718">
        <ele>134</ele>
        <time>2019-05-29T16:06:35Z</time>
      </trkpt>
      <trkpt lat="49.34446" lon="4.07183">
        <ele>133</ele>
        <time>2019-05-29T16:06:36Z</time>
      </trkpt>
      <trkpt lat="49.34445" lon="4.07186">
        <ele>132</ele>
        <time>2019-05-29T16:06:37Z</time>
      </trkpt>
      <trkpt lat="49.34445" lon="4.07188">
        <ele>132</ele>
        <time>2019-05-29T16:06:38Z</time>
      </trkpt>
      <trkpt lat="49.34445" lon="4.07191">
        <ele>133</ele>
        <time>2019-05-29T16:06:39Z</time>
      </trkpt>
      <trkpt lat="49.34446" lon="4.07193">
        <ele>132</ele>
        <time>2019-05-29T16:06:40Z</time>
      </trkpt>
      <trkpt lat="49.34447" lon="4.07196">
        <ele>131</ele>
        <time>2019-05-29T16:06:41Z</time>
      </trkpt>
      <trkpt lat="49.34448" lon="4.07198">
        <ele>131</ele>
        <time>2019-05-29T16:06:42Z</time>
      </trkpt>
      <trkpt lat="49.34449" lon="4.072">
        <ele>132</ele>
        <time>2019-05-29T16:06:43Z</time>
      </trkpt>
      <trkpt lat="49.34449" lon="4.07202">
        <ele>132</ele>
        <time>2019-05-29T16:06:44Z</time>
      </trkpt>
      <trkpt lat="49.3445" lon="4.07205">
        <ele>131</ele>
        <time>2019-05-29T16:06:45Z</time>
      </trkpt>
      <trkpt lat="49.34451" lon="4.07208">
        <ele>131</ele>
        <time>2019-05-29T16:06:46Z</time>
      </trkpt>
      <trkpt lat="49.34451" lon="4.07211">
        <ele>131</ele>
        <time>2019-05-29T16:06:47Z</time>
      </trkpt>
      <trkpt lat="49.34452" lon="4.07214">
        <ele>132</ele>
        <time>2019-05-29T16:06:48Z</time>
      </trkpt>
      <trkpt lat="49.34453" lon="4.07216">
        <ele>132</ele>
        <time>2019-05-29T16:06:49Z</time>
      </trkpt>
      <trkpt lat="49.34454" lon="4.07219">
        <ele>132</ele>
        <time>2019-05-29T16:06:50Z</time>
      </trkpt>
      <trkpt lat="49.34454" lon="4.07221">
        <ele>131</ele>
        <time>2019-05-29T16:06:51Z</time>
      </trkpt>
      <trkpt lat="49.34455" lon="4.07223">
        <ele>131</ele>
        <time>2019-05-29T16:06:52Z</time>
      </trkpt>
      <trkpt lat="49.34455" lon="4.07225">
        <ele>131</ele>
        <time>2019-05-29T16:06:53Z</time>
      </trkpt>
      <trkpt lat="49.34455" lon="4.07227">
        <ele>130</ele>
        <time>2019-05-29T16:06:54Z</time>
      </trkpt>
      <trkpt lat="49.34455" lon="4.07227">
        <ele>130</ele>
        <time>2019-05-29T16:06:55Z</time>
      </trkpt>
      <trkpt lat="49.34455" lon="4.07226">
        <ele>130</ele>
        <time>2019-05-29T16:06:56Z</time>
      </trkpt>
      <trkpt lat="49.34455" lon="4.07226">
        <ele>131</ele>
        <time>2019-05-29T16:06:57Z</time>
      </trkpt>
      <trkpt lat="49.34455" lon="4.07226">
        <ele>130</ele>
        <time>2019-05-29T16:06:58Z</time>
      </trkpt>
      <trkpt lat="49.34455" lon="4.07226">
        <ele>129</ele>
        <time>2019-05-29T16:06:59Z</time>
      </trkpt>
      <trkpt lat="49.34455" lon="4.07226">
        <ele>129</ele>
        <time>2019-05-29T16:07:00Z</time>
      </trkpt>
      <trkpt lat="49.34455" lon="4.07226">
        <ele>129</ele>
        <time>2019-05-29T16:07:01Z</time>
      </trkpt>
      <trkpt lat="49.34455" lon="4.07226">
        <ele>129</ele>
        <time>2019-05-29T16:07:02Z</time>
      </trkpt>
      <trkpt lat="49.34455" lon="4.07227">
        <ele>130</ele>
        <time>2019-05-29T16:07:03Z</time>
      </trkpt>
      <trkpt lat="49.34456" lon="4.07228">
        <ele>130</ele>
        <time>2019-05-29T16:07:04Z</time>
      </trkpt>
      <trkpt lat="49.34457" lon="4.07228">
        <ele>130</ele>
        <time>2019-05-29T16:07:05Z</time>
      </trkpt>
      <trkpt lat="49.34459" lon="4.07228">
        <ele>130</ele>
        <time>2019-05-29T16:07:06Z</time>
      </trkpt>
      <trkpt lat="49.3446" lon="4.07228">
        <ele>130</ele>
        <time>2019-05-29T16:07:07Z</time>
      </trkpt>
      <trkpt lat="49.34462" lon="4.07228">
        <ele>130</ele>
        <time>2019-05-29T16:07:08Z</time>
      </trkpt>
      <trkpt lat="49.34463" lon="4.07228">
        <ele>130</ele>
        <time>2019-05-29T16:07:09Z</time>
      </trkpt>
      <trkpt lat="49.34464" lon="4.07228">
        <ele>130</ele>
        <time>2019-05-29T16:07:10Z</time>
      </trkpt>
      <trkpt lat="49.34466" lon="4.07226">
        <ele>130</ele>
        <time>2019-05-29T16:07:11Z</time>
      </trkpt>
      <trkpt lat="49.34469" lon="4.07225">
        <ele>131</ele>
        <time>2019-05-29T16:07:12Z</time>
      </trkpt>
      <trkpt lat="49.34472" lon="4.07224">
        <ele>131</ele>
        <time>2019-05-29T16:07:13Z</time>
      </trkpt>
      <trkpt lat="49.34475" lon="4.07223">
        <ele>131</ele>
        <time>2019-05-29T16:07:14Z</time>
      </trkpt>
      <trkpt lat="49.34479" lon="4.07222">
        <ele>131</ele>
        <time>2019-05-29T16:07:15Z</time>
      </trkpt>
      <trkpt lat="49.34483" lon="4.0722">
        <ele>131</ele>
        <time>2019-05-29T16:07:16Z</time>
      </trkpt>
      <trkpt lat="49.34488" lon="4.07217">
        <ele>131</ele>
        <time>2019-05-29T16:07:17Z</time>
      </trkpt>
      <trkpt lat="49.34493" lon="4.07214">
        <ele>131</ele>
        <time>2019-05-29T16:07:18Z</time>
      </trkpt>
      <trkpt lat="49.34504" lon="4.07209">
        <ele>130</ele>
        <time>2019-05-29T16:07:20Z</time>
      </trkpt>
      <trkpt lat="49.3451" lon="4.07206">
        <ele>130</ele>
        <time>2019-05-29T16:07:21Z</time>
      </trkpt>
      <trkpt lat="49.34515" lon="4.07203">
        <ele>130</ele>
        <time>2019-05-29T16:07:22Z</time>
      </trkpt>
      <trkpt lat="49.34521" lon="4.072">
        <ele>130</ele>
        <time>2019-05-29T16:07:23Z</time>
      </trkpt>
      <trkpt lat="49.34528" lon="4.07196">
        <ele>130</ele>
        <time>2019-05-29T16:07:24Z</time>
      </trkpt>
      <trkpt lat="49.34535" lon="4.07193">
        <ele>130</ele>
        <time>2019-05-29T16:07:25Z</time>
      </trkpt>
      <trkpt lat="49.34541" lon="4.07189">
        <ele>130</ele>
        <time>2019-05-29T16:07:26Z</time>
      </trkpt>
      <trkpt lat="49.34547" lon="4.07185">
        <ele>130</ele>
        <time>2019-05-29T16:07:27Z</time>
      </trkpt>
      <trkpt lat="49.34554" lon="4.07181">
        <ele>130</ele>
        <time>2019-05-29T16:07:28Z</time>
      </trkpt>
      <trkpt lat="49.3456" lon="4.07178">
        <ele>130</ele>
        <time>2019-05-29T16:07:29Z</time>
      </trkpt>
      <trkpt lat="49.34567" lon="4.07174">
        <ele>130</ele>
        <time>2019-05-29T16:07:30Z</time>
      </trkpt>
      <trkpt lat="49.34573" lon="4.07172">
        <ele>130</ele>
        <time>2019-05-29T16:07:31Z</time>
      </trkpt>
      <trkpt lat="49.34578" lon="4.07169">
        <ele>130</ele>
        <time>2019-05-29T16:07:32Z</time>
      </trkpt>
      <trkpt lat="49.34584" lon="4.07165">
        <ele>130</ele>
        <time>2019-05-29T16:07:33Z</time>
      </trkpt>
      <trkpt lat="49.3459" lon="4.07161">
        <ele>130</ele>
        <time>2019-05-29T16:07:34Z</time>
      </trkpt>
      <trkpt lat="49.34596" lon="4.07157">
        <ele>130</ele>
        <time>2019-05-29T16:07:35Z</time>
      </trkpt>
      <trkpt lat="49.34603" lon="4.07153">
        <ele>130</ele>
        <time>2019-05-29T16:07:36Z</time>
      </trkpt>
      <trkpt lat="49.3461" lon="4.0715">
        <ele>130</ele>
        <time>2019-05-29T16:07:37Z</time>
      </trkpt>
      <trkpt lat="49.34616" lon="4.07146">
        <ele>130</ele>
        <time>2019-05-29T16:07:38Z</time>
      </trkpt>
      <trkpt lat="49.34623" lon="4.07142">
        <ele>130</ele>
        <time>2019-05-29T16:07:39Z</time>
      </trkpt>
      <trkpt lat="49.3463" lon="4.07138">
        <ele>130</ele>
        <time>2019-05-29T16:07:40Z</time>
      </trkpt>
      <trkpt lat="49.34638" lon="4.07135">
        <ele>130</ele>
        <time>2019-05-29T16:07:41Z</time>
      </trkpt>
      <trkpt lat="49.34644" lon="4.07132">
        <ele>131</ele>
        <time>2019-05-29T16:07:42Z</time>
      </trkpt>
      <trkpt lat="49.34651" lon="4.0713">
        <ele>131</ele>
        <time>2019-05-29T16:07:43Z</time>
      </trkpt>
      <trkpt lat="49.34657" lon="4.07128">
        <ele>131</ele>
        <time>2019-05-29T16:07:44Z</time>
      </trkpt>
      <trkpt lat="49.34664" lon="4.07124">
        <ele>132</ele>
        <time>2019-05-29T16:07:45Z</time>
      </trkpt>
      <trkpt lat="49.3467" lon="4.07121">
        <ele>131</ele>
        <time>2019-05-29T16:07:46Z</time>
      </trkpt>
      <trkpt lat="49.34675" lon="4.07118">
        <ele>131</ele>
        <time>2019-05-29T16:07:47Z</time>
      </trkpt>
      <trkpt lat="49.34681" lon="4.07115">
        <ele>131</ele>
        <time>2019-05-29T16:07:48Z</time>
      </trkpt>
      <trkpt lat="49.34687" lon="4.07112">
        <ele>131</ele>
        <time>2019-05-29T16:07:49Z</time>
      </trkpt>
      <trkpt lat="49.34692" lon="4.0711">
        <ele>131</ele>
        <time>2019-05-29T16:07:50Z</time>
      </trkpt>
      <trkpt lat="49.34697" lon="4.07109">
        <ele>131</ele>
        <time>2019-05-29T16:07:51Z</time>
      </trkpt>
      <trkpt lat="49.34701" lon="4.07106">
        <ele>131</ele>
        <time>2019-05-29T16:07:52Z</time>
      </trkpt>
      <trkpt lat="49.34706" lon="4.07104">
        <ele>131</ele>
        <time>2019-05-29T16:07:53Z</time>
      </trkpt>
      <trkpt lat="49.34709" lon="4.07102">
        <ele>131</ele>
        <time>2019-05-29T16:07:54Z</time>
      </trkpt>
      <trkpt lat="49.34712" lon="4.071">
        <ele>132</ele>
        <time>2019-05-29T16:07:55Z</time>
      </trkpt>
      <trkpt lat="49.34715" lon="4.07098">
        <ele>132</ele>
        <time>2019-05-29T16:07:56Z</time>
      </trkpt>
      <trkpt lat="49.34719" lon="4.07097">
        <ele>132</ele>
        <time>2019-05-29T16:07:57Z</time>
      </trkpt>
      <trkpt lat="49.34722" lon="4.07096">
        <ele>132</ele>
        <time>2019-05-29T16:07:58Z</time>
      </trkpt>
      <trkpt lat="49.34725" lon="4.07094">
        <ele>132</ele>
        <time>2019-05-29T16:07:59Z</time>
      </trkpt>
      <trkpt lat="49.34728" lon="4.07092">
        <ele>132</ele>
        <time>2019-05-29T16:08:00Z</time>
      </trkpt>
      <trkpt lat="49.34731" lon="4.07087">
        <ele>133</ele>
        <time>2019-05-29T16:08:01Z</time>
      </trkpt>
      <trkpt lat="49.34734" lon="4.07085">
        <ele>133</ele>
        <time>2019-05-29T16:08:02Z</time>
      </trkpt>
      <trkpt lat="49.34737" lon="4.0708">
        <ele>133</ele>
        <time>2019-05-29T16:08:03Z</time>
      </trkpt>
      <trkpt lat="49.3474" lon="4.07076">
        <ele>133</ele>
        <time>2019-05-29T16:08:04Z</time>
      </trkpt>
      <trkpt lat="49.34742" lon="4.0707">
        <ele>133</ele>
        <time>2019-05-29T16:08:05Z</time>
      </trkpt>
      <trkpt lat="49.34744" lon="4.07063">
        <ele>133</ele>
        <time>2019-05-29T16:08:06Z</time>
      </trkpt>
      <trkpt lat="49.34747" lon="4.07056">
        <ele>133</ele>
        <time>2019-05-29T16:08:07Z</time>
      </trkpt>
      <trkpt lat="49.34749" lon="4.07049">
        <ele>133</ele>
        <time>2019-05-29T16:08:08Z</time>
      </trkpt>
      <trkpt lat="49.34751" lon="4.07042">
        <ele>133</ele>
        <time>2019-05-29T16:08:09Z</time>
      </trkpt>
      <trkpt lat="49.34754" lon="4.07036">
        <ele>133</ele>
        <time>2019-05-29T16:08:10Z</time>
      </trkpt>
      <trkpt lat="49.34755" lon="4.07029">
        <ele>132</ele>
        <time>2019-05-29T16:08:11Z</time>
      </trkpt>
      <trkpt lat="49.34757" lon="4.07023">
        <ele>132</ele>
        <time>2019-05-29T16:08:12Z</time>
      </trkpt>
      <trkpt lat="49.34759" lon="4.07016">
        <ele>132</ele>
        <time>2019-05-29T16:08:13Z</time>
      </trkpt>
      <trkpt lat="49.3476" lon="4.07009">
        <ele>133</ele>
        <time>2019-05-29T16:08:14Z</time>
      </trkpt>
      <trkpt lat="49.34762" lon="4.07004">
        <ele>133</ele>
        <time>2019-05-29T16:08:15Z</time>
      </trkpt>
      <trkpt lat="49.34763" lon="4.06997">
        <ele>133</ele>
        <time>2019-05-29T16:08:16Z</time>
      </trkpt>
      <trkpt lat="49.34766" lon="4.06991">
        <ele>134</ele>
        <time>2019-05-29T16:08:17Z</time>
      </trkpt>
      <trkpt lat="49.34769" lon="4.06986">
        <ele>136</ele>
        <time>2019-05-29T16:08:18Z</time>
      </trkpt>
      <trkpt lat="49.34771" lon="4.06982">
        <ele>137</ele>
        <time>2019-05-29T16:08:19Z</time>
      </trkpt>
      <trkpt lat="49.34772" lon="4.06975">
        <ele>138</ele>
        <time>2019-05-29T16:08:20Z</time>
      </trkpt>
      <trkpt lat="49.34773" lon="4.06968">
        <ele>137</ele>
        <time>2019-05-29T16:08:21Z</time>
      </trkpt>
      <trkpt lat="49.34773" lon="4.06962">
        <ele>137</ele>
        <time>2019-05-29T16:08:22Z</time>
      </trkpt>
      <trkpt lat="49.34774" lon="4.06956">
        <ele>137</ele>
        <time>2019-05-29T16:08:23Z</time>
      </trkpt>
      <trkpt lat="49.34775" lon="4.06949">
        <ele>137</ele>
        <time>2019-05-29T16:08:24Z</time>
      </trkpt>
      <trkpt lat="49.34776" lon="4.06944">
        <ele>137</ele>
        <time>2019-05-29T16:08:25Z</time>
      </trkpt>
      <trkpt lat="49.34778" lon="4.06939">
        <ele>137</ele>
        <time>2019-05-29T16:08:26Z</time>
      </trkpt>
      <trkpt lat="49.34779" lon="4.06934">
        <ele>137</ele>
        <time>2019-05-29T16:08:27Z</time>
      </trkpt>
      <trkpt lat="49.3478" lon="4.06927">
        <ele>137</ele>
        <time>2019-05-29T16:08:28Z</time>
      </trkpt>
      <trkpt lat="49.3478" lon="4.06921">
        <ele>137</ele>
        <time>2019-05-29T16:08:29Z</time>
      </trkpt>
      <trkpt lat="49.3478" lon="4.06914">
        <ele>137</ele>
        <time>2019-05-29T16:08:30Z</time>
      </trkpt>
      <trkpt lat="49.34781" lon="4.06909">
        <ele>137</ele>
        <time>2019-05-29T16:08:31Z</time>
      </trkpt>
      <trkpt lat="49.34782" lon="4.06903">
        <ele>137</ele>
        <time>2019-05-29T16:08:32Z</time>
      </trkpt>
      <trkpt lat="49.34783" lon="4.06898">
        <ele>137</ele>
        <time>2019-05-29T16:08:33Z</time>
      </trkpt>
      <trkpt lat="49.34785" lon="4.06892">
        <ele>137</ele>
        <time>2019-05-29T16:08:34Z</time>
      </trkpt>
      <trkpt lat="49.34786" lon="4.06886">
        <ele>137</ele>
        <time>2019-05-29T16:08:35Z</time>
      </trkpt>
      <trkpt lat="49.34787" lon="4.0688">
        <ele>137</ele>
        <time>2019-05-29T16:08:36Z</time>
      </trkpt>
      <trkpt lat="49.34789" lon="4.06874">
        <ele>136</ele>
        <time>2019-05-29T16:08:37Z</time>
      </trkpt>
      <trkpt lat="49.3479" lon="4.06868">
        <ele>136</ele>
        <time>2019-05-29T16:08:38Z</time>
      </trkpt>
      <trkpt lat="49.34791" lon="4.06861">
        <ele>137</ele>
        <time>2019-05-29T16:08:39Z</time>
      </trkpt>
      <trkpt lat="49.34792" lon="4.06855">
        <ele>137</ele>
        <time>2019-05-29T16:08:40Z</time>
      </trkpt>
      <trkpt lat="49.34793" lon="4.06849">
        <ele>137</ele>
        <time>2019-05-29T16:08:41Z</time>
      </trkpt>
      <trkpt lat="49.34794" lon="4.06843">
        <ele>137</ele>
        <time>2019-05-29T16:08:42Z</time>
      </trkpt>
      <trkpt lat="49.34796" lon="4.06836">
        <ele>137</ele>
        <time>2019-05-29T16:08:43Z</time>
      </trkpt>
      <trkpt lat="49.34797" lon="4.0683">
        <ele>137</ele>
        <time>2019-05-29T16:08:44Z</time>
      </trkpt>
      <trkpt lat="49.34798" lon="4.06824">
        <ele>137</ele>
        <time>2019-05-29T16:08:45Z</time>
      </trkpt>
      <trkpt lat="49.348" lon="4.06817">
        <ele>137</ele>
        <time>2019-05-29T16:08:46Z</time>
      </trkpt>
      <trkpt lat="49.34801" lon="4.06812">
        <ele>137</ele>
        <time>2019-05-29T16:08:47Z</time>
      </trkpt>
      <trkpt lat="49.34802" lon="4.06806">
        <ele>137</ele>
        <time>2019-05-29T16:08:48Z</time>
      </trkpt>
      <trkpt lat="49.34803" lon="4.068">
        <ele>137</ele>
        <time>2019-05-29T16:08:49Z</time>
      </trkpt>
      <trkpt lat="49.34805" lon="4.06794">
        <ele>136</ele>
        <time>2019-05-29T16:08:50Z</time>
      </trkpt>
      <trkpt lat="49.34806" lon="4.06788">
        <ele>137</ele>
        <time>2019-05-29T16:08:51Z</time>
      </trkpt>
      <trkpt lat="49.34807" lon="4.06781">
        <ele>137</ele>
        <time>2019-05-29T16:08:52Z</time>
      </trkpt>
      <trkpt lat="49.34809" lon="4.06775">
        <ele>137</ele>
        <time>2019-05-29T16:08:53Z</time>
      </trkpt>
      <trkpt lat="49.3481" lon="4.0677">
        <ele>137</ele>
        <time>2019-05-29T16:08:54Z</time>
      </trkpt>
      <trkpt lat="49.34811" lon="4.06763">
        <ele>137</ele>
        <time>2019-05-29T16:08:55Z</time>
      </trkpt>
      <trkpt lat="49.34813" lon="4.06756">
        <ele>137</ele>
        <time>2019-05-29T16:08:56Z</time>
      </trkpt>
      <trkpt lat="49.34814" lon="4.0675">
        <ele>137</ele>
        <time>2019-05-29T16:08:57Z</time>
      </trkpt>
      <trkpt lat="49.34815" lon="4.06744">
        <ele>137</ele>
        <time>2019-05-29T16:08:58Z</time>
      </trkpt>
      <trkpt lat="49.34816" lon="4.06739">
        <ele>138</ele>
        <time>2019-05-29T16:08:59Z</time>
      </trkpt>
      <trkpt lat="49.34818" lon="4.06733">
        <ele>138</ele>
        <time>2019-05-29T16:09:00Z</time>
      </trkpt>
      <trkpt lat="49.3482" lon="4.06727">
        <ele>138</ele>
        <time>2019-05-29T16:09:01Z</time>
      </trkpt>
      <trkpt lat="49.34821" lon="4.06722">
        <ele>139</ele>
        <time>2019-05-29T16:09:02Z</time>
      </trkpt>
      <trkpt lat="49.34821" lon="4.06716">
        <ele>139</ele>
        <time>2019-05-29T16:09:03Z</time>
      </trkpt>
      <trkpt lat="49.34822" lon="4.0671">
        <ele>139</ele>
        <time>2019-05-29T16:09:04Z</time>
      </trkpt>
      <trkpt lat="49.34824" lon="4.06705">
        <ele>139</ele>
        <time>2019-05-29T16:09:05Z</time>
      </trkpt>
      <trkpt lat="49.34825" lon="4.06698">
        <ele>139</ele>
        <time>2019-05-29T16:09:06Z</time>
      </trkpt>
      <trkpt lat="49.34826" lon="4.06692">
        <ele>139</ele>
        <time>2019-05-29T16:09:07Z</time>
      </trkpt>
      <trkpt lat="49.34828" lon="4.06687">
        <ele>140</ele>
        <time>2019-05-29T16:09:08Z</time>
      </trkpt>
      <trkpt lat="49.34829" lon="4.06682">
        <ele>140</ele>
        <time>2019-05-29T16:09:09Z</time>
      </trkpt>
      <trkpt lat="49.3483" lon="4.06676">
        <ele>140</ele>
        <time>2019-05-29T16:09:10Z</time>
      </trkpt>
      <trkpt lat="49.34831" lon="4.06671">
        <ele>140</ele>
        <time>2019-05-29T16:09:11Z</time>
      </trkpt>
      <trkpt lat="49.34833" lon="4.06665">
        <ele>140</ele>
        <time>2019-05-29T16:09:12Z</time>
      </trkpt>
      <trkpt lat="49.34834" lon="4.0666">
        <ele>140</ele>
        <time>2019-05-29T16:09:13Z</time>
      </trkpt>
      <trkpt lat="49.34835" lon="4.06654">
        <ele>140</ele>
        <time>2019-05-29T16:09:14Z</time>
      </trkpt>
      <trkpt lat="49.34837" lon="4.06649">
        <ele>140</ele>
        <time>2019-05-29T16:09:15Z</time>
      </trkpt>
      <trkpt lat="49.34839" lon="4.06644">
        <ele>140</ele>
        <time>2019-05-29T16:09:16Z</time>
      </trkpt>
      <trkpt lat="49.34842" lon="4.06639">
        <ele>140</ele>
        <time>2019-05-29T16:09:17Z</time>
      </trkpt>
      <trkpt lat="49.34843" lon="4.06635">
        <ele>140</ele>
        <time>2019-05-29T16:09:18Z</time>
      </trkpt>
      <trkpt lat="49.34845" lon="4.06631">
        <ele>140</ele>
        <time>2019-05-29T16:09:19Z</time>
      </trkpt>
      <trkpt lat="49.34847" lon="4.06628">
        <ele>141</ele>
        <time>2019-05-29T16:09:20Z</time>
      </trkpt>
      <trkpt lat="49.34848" lon="4.06625">
        <ele>141</ele>
        <time>2019-05-29T16:09:21Z</time>
      </trkpt>
      <trkpt lat="49.3485" lon="4.06622">
        <ele>141</ele>
        <time>2019-05-29T16:09:22Z</time>
      </trkpt>
      <trkpt lat="49.34852" lon="4.06619">
        <ele>141</ele>
        <time>2019-05-29T16:09:23Z</time>
      </trkpt>
      <trkpt lat="49.34853" lon="4.06617">
        <ele>141</ele>
        <time>2019-05-29T16:09:24Z</time>
      </trkpt>
      <trkpt lat="49.34854" lon="4.06614">
        <ele>141</ele>
        <time>2019-05-29T16:09:25Z</time>
      </trkpt>
      <trkpt lat="49.34856" lon="4.06611">
        <ele>141</ele>
        <time>2019-05-29T16:09:26Z</time>
      </trkpt>
      <trkpt lat="49.34857" lon="4.06608">
        <ele>141</ele>
        <time>2019-05-29T16:09:27Z</time>
      </trkpt>
      <trkpt lat="49.34858" lon="4.06606">
        <ele>141</ele>
        <time>2019-05-29T16:09:28Z</time>
      </trkpt>
      <trkpt lat="49.34859" lon="4.06603">
        <ele>141</ele>
        <time>2019-05-29T16:09:29Z</time>
      </trkpt>
      <trkpt lat="49.3486" lon="4.06601">
        <ele>141</ele>
        <time>2019-05-29T16:09:30Z</time>
      </trkpt>
      <trkpt lat="49.34862" lon="4.066">
        <ele>141</ele>
        <time>2019-05-29T16:09:31Z</time>
      </trkpt>
      <trkpt lat="49.34862" lon="4.06599">
        <ele>141</ele>
        <time>2019-05-29T16:09:32Z</time>
      </trkpt>
      <trkpt lat="49.34862" lon="4.06599">
        <ele>141</ele>
        <time>2019-05-29T16:09:33Z</time>
      </trkpt>
      <trkpt lat="49.34862" lon="4.06599">
        <ele>141</ele>
        <time>2019-05-29T16:09:34Z</time>
      </trkpt>
      <trkpt lat="49.34862" lon="4.06599">
        <ele>141</ele>
        <time>2019-05-29T16:09:35Z</time>
      </trkpt>
      <trkpt lat="49.34862" lon="4.06599">
        <ele>141</ele>
        <time>2019-05-29T16:09:36Z</time>
      </trkpt>
      <trkpt lat="49.34862" lon="4.06599">
        <ele>141</ele>
        <time>2019-05-29T16:09:37Z</time>
      </trkpt>
      <trkpt lat="49.34862" lon="4.06599">
        <ele>141</ele>
        <time>2019-05-29T16:09:38Z</time>
      </trkpt>
      <trkpt lat="49.34862" lon="4.06599">
        <ele>141</ele>
        <time>2019-05-29T16:09:39Z</time>
      </trkpt>
      <trkpt lat="49.34862" lon="4.06599">
        <ele>141</ele>
        <time>2019-05-29T16:09:40Z</time>
      </trkpt>
      <trkpt lat="49.34862" lon="4.06599">
        <ele>141</ele>
        <time>2019-05-29T16:09:41Z</time>
      </trkpt>
      <trkpt lat="49.34862" lon="4.06599">
        <ele>141</ele>
        <time>2019-05-29T16:09:42Z</time>
      </trkpt>
      <trkpt lat="49.34862" lon="4.06599">
        <ele>141</ele>
        <time>2019-05-29T16:09:43Z</time>
      </trkpt>
      <trkpt lat="49.34862" lon="4.06599">
        <ele>141</ele>
        <time>2019-05-29T16:09:44Z</time>
      </trkpt>
      <trkpt lat="49.34862" lon="4.06599">
        <ele>141</ele>
        <time>2019-05-29T16:09:45Z</time>
      </trkpt>
      <trkpt lat="49.34862" lon="4.06599">
        <ele>141</ele>
        <time>2019-05-29T16:09:46Z</time>
      </trkpt>
      <trkpt lat="49.34862" lon="4.06599">
        <ele>141</ele>
        <time>2019-05-29T16:09:47Z</time>
      </trkpt>
      <trkpt lat="49.34862" lon="4.06599">
        <ele>141</ele>
        <time>2019-05-29T16:09:48Z</time>
      </trkpt>
      <trkpt lat="49.34862" lon="4.06599">
        <ele>141</ele>
        <time>2019-05-29T16:09:49Z</time>
      </trkpt>
      <trkpt lat="49.34862" lon="4.06599">
        <ele>141</ele>
        <time>2019-05-29T16:09:50Z</time>
      </trkpt>
      <trkpt lat="49.34862" lon="4.06599">
        <ele>141</ele>
        <time>2019-05-29T16:09:51Z</time>
      </trkpt>
      <trkpt lat="49.34862" lon="4.06599">
        <ele>141</ele>
        <time>2019-05-29T16:09:52Z</time>
      </trkpt>
      <trkpt lat="49.34862" lon="4.06599">
        <ele>141</ele>
        <time>2019-05-29T16:09:53Z</time>
      </trkpt>
      <trkpt lat="49.34862" lon="4.06599">
        <ele>141</ele>
        <time>2019-05-29T16:09:54Z</time>
      </trkpt>
      <trkpt lat="49.34862" lon="4.06599">
        <ele>141</ele>
        <time>2019-05-29T16:09:55Z</time>
      </trkpt>
      <trkpt lat="49.34862" lon="4.06599">
        <ele>141</ele>
        <time>2019-05-29T16:09:56Z</time>
      </trkpt>
      <trkpt lat="49.34862" lon="4.06599">
        <ele>141</ele>
        <time>2019-05-29T16:09:57Z</time>
      </trkpt>
      <trkpt lat="49.34862" lon="4.06599">
        <ele>141</ele>
        <time>2019-05-29T16:09:58Z</time>
      </trkpt>
      <trkpt lat="49.34862" lon="4.06599">
        <ele>141</ele>
        <time>2019-05-29T16:09:59Z</time>
      </trkpt>
      <trkpt lat="49.34862" lon="4.06599">
        <ele>141</ele>
        <time>2019-05-29T16:10:00Z</time>
      </trkpt>
      <trkpt lat="49.34862" lon="4.06599">
        <ele>141</ele>
        <time>2019-05-29T16:10:01Z</time>
      </trkpt>
      <trkpt lat="49.34862" lon="4.06599">
        <ele>141</ele>
        <time>2019-05-29T16:10:02Z</time>
      </trkpt>
      <trkpt lat="49.34862" lon="4.06599">
        <ele>141</ele>
        <time>2019-05-29T16:10:03Z</time>
      </trkpt>
      <trkpt lat="49.34862" lon="4.06599">
        <ele>141</ele>
        <time>2019-05-29T16:10:04Z</time>
      </trkpt>
      <trkpt lat="49.34862" lon="4.06599">
        <ele>141</ele>
        <time>2019-05-29T16:10:05Z</time>
      </trkpt>
      <trkpt lat="49.34862" lon="4.06599">
        <ele>141</ele>
        <time>2019-05-29T16:10:06Z</time>
      </trkpt>
      <trkpt lat="49.34862" lon="4.06599">
        <ele>141</ele>
        <time>2019-05-29T16:10:07Z</time>
      </trkpt>
      <trkpt lat="49.34862" lon="4.06599">
        <ele>141</ele>
        <time>2019-05-29T16:10:08Z</time>
      </trkpt>
      <trkpt lat="49.34862" lon="4.06599">
        <ele>141</ele>
        <time>2019-05-29T16:10:09Z</time>
      </trkpt>
      <trkpt lat="49.34862" lon="4.06599">
        <ele>141</ele>
        <time>2019-05-29T16:10:10Z</time>
      </trkpt>
      <trkpt lat="49.34862" lon="4.06599">
        <ele>141</ele>
        <time>2019-05-29T16:10:11Z</time>
      </trkpt>
      <trkpt lat="49.34862" lon="4.06599">
        <ele>141</ele>
        <time>2019-05-29T16:10:12Z</time>
      </trkpt>
      <trkpt lat="49.34862" lon="4.06599">
        <ele>141</ele>
        <time>2019-05-29T16:10:13Z</time>
      </trkpt>
      <trkpt lat="49.34862" lon="4.06599">
        <ele>141</ele>
        <time>2019-05-29T16:10:14Z</time>
      </trkpt>
      <trkpt lat="49.34862" lon="4.06599">
        <ele>141</ele>
        <time>2019-05-29T16:10:15Z</time>
      </trkpt>
      <trkpt lat="49.34862" lon="4.06599">
        <ele>141</ele>
        <time>2019-05-29T16:10:16Z</time>
      </trkpt>
      <trkpt lat="49.34862" lon="4.06599">
        <ele>141</ele>
        <time>2019-05-29T16:10:17Z</time>
      </trkpt>
      <trkpt lat="49.34862" lon="4.06599">
        <ele>141</ele>
        <time>2019-05-29T16:10:18Z</time>
      </trkpt>
      <trkpt lat="49.34862" lon="4.06599">
        <ele>141</ele>
        <time>2019-05-29T16:10:19Z</time>
      </trkpt>
      <trkpt lat="49.34862" lon="4.06599">
        <ele>141</ele>
        <time>2019-05-29T16:10:20Z</time>
      </trkpt>
      <trkpt lat="49.34862" lon="4.06599">
        <ele>141</ele>
        <time>2019-05-29T16:10:21Z</time>
      </trkpt>
      <trkpt lat="49.34862" lon="4.06597">
        <ele>141</ele>
        <time>2019-05-29T16:10:22Z</time>
      </trkpt>
      <trkpt lat="49.34862" lon="4.06595">
        <ele>142</ele>
        <time>2019-05-29T16:10:23Z</time>
      </trkpt>
      <trkpt lat="49.34862" lon="4.06594">
        <ele>142</ele>
        <time>2019-05-29T16:10:24Z</time>
      </trkpt>
      <trkpt lat="49.34863" lon="4.06591">
        <ele>142</ele>
        <time>2019-05-29T16:10:25Z</time>
      </trkpt>
      <trkpt lat="49.34864" lon="4.06588">
        <ele>142</ele>
        <time>2019-05-29T16:10:26Z</time>
      </trkpt>
      <trkpt lat="49.34865" lon="4.06586">
        <ele>142</ele>
        <time>2019-05-29T16:10:27Z</time>
      </trkpt>
      <trkpt lat="49.34867" lon="4.06584">
        <ele>142</ele>
        <time>2019-05-29T16:10:28Z</time>
      </trkpt>
      <trkpt lat="49.34868" lon="4.06581">
        <ele>142</ele>
        <time>2019-05-29T16:10:29Z</time>
      </trkpt>
      <trkpt lat="49.3487" lon="4.06576">
        <ele>143</ele>
        <time>2019-05-29T16:10:30Z</time>
      </trkpt>
      <trkpt lat="49.34872" lon="4.06571">
        <ele>142</ele>
        <time>2019-05-29T16:10:31Z</time>
      </trkpt>
      <trkpt lat="49.34874" lon="4.06566">
        <ele>141</ele>
        <time>2019-05-29T16:10:32Z</time>
      </trkpt>
      <trkpt lat="49.34876" lon="4.06562">
        <ele>141</ele>
        <time>2019-05-29T16:10:33Z</time>
      </trkpt>
      <trkpt lat="49.34879" lon="4.06559">
        <ele>141</ele>
        <time>2019-05-29T16:10:34Z</time>
      </trkpt>
      <trkpt lat="49.34881" lon="4.06556">
        <ele>141</ele>
        <time>2019-05-29T16:10:35Z</time>
      </trkpt>
      <trkpt lat="49.34884" lon="4.06551">
        <ele>141</ele>
        <time>2019-05-29T16:10:36Z</time>
      </trkpt>
      <trkpt lat="49.34886" lon="4.06547">
        <ele>141</ele>
        <time>2019-05-29T16:10:37Z</time>
      </trkpt>
      <trkpt lat="49.34888" lon="4.06543">
        <ele>141</ele>
        <time>2019-05-29T16:10:38Z</time>
      </trkpt>
      <trkpt lat="49.3489" lon="4.06539">
        <ele>141</ele>
        <time>2019-05-29T16:10:39Z</time>
      </trkpt>
      <trkpt lat="49.34893" lon="4.06536">
        <ele>141</ele>
        <time>2019-05-29T16:10:40Z</time>
      </trkpt>
      <trkpt lat="49.34895" lon="4.06534">
        <ele>141</ele>
        <time>2019-05-29T16:10:41Z</time>
      </trkpt>
      <trkpt lat="49.34898" lon="4.06532">
        <ele>142</ele>
        <time>2019-05-29T16:10:42Z</time>
      </trkpt>
      <trkpt lat="49.34902" lon="4.0653">
        <ele>142</ele>
        <time>2019-05-29T16:10:43Z</time>
      </trkpt>
      <trkpt lat="49.34906" lon="4.06529">
        <ele>141</ele>
        <time>2019-05-29T16:10:44Z</time>
      </trkpt>
      <trkpt lat="49.3491" lon="4.06529">
        <ele>141</ele>
        <time>2019-05-29T16:10:45Z</time>
      </trkpt>
      <trkpt lat="49.34915" lon="4.0653">
        <ele>141</ele>
        <time>2019-05-29T16:10:46Z</time>
      </trkpt>
      <trkpt lat="49.3492" lon="4.06532">
        <ele>141</ele>
        <time>2019-05-29T16:10:47Z</time>
      </trkpt>
      <trkpt lat="49.34925" lon="4.06533">
        <ele>141</ele>
        <time>2019-05-29T16:10:48Z</time>
      </trkpt>
      <trkpt lat="49.34929" lon="4.06534">
        <ele>141</ele>
        <time>2019-05-29T16:10:49Z</time>
      </trkpt>
      <trkpt lat="49.34934" lon="4.06534">
        <ele>141</ele>
        <time>2019-05-29T16:10:50Z</time>
      </trkpt>
      <trkpt lat="49.34938" lon="4.06536">
        <ele>141</ele>
        <time>2019-05-29T16:10:51Z</time>
      </trkpt>
      <trkpt lat="49.34943" lon="4.06538">
        <ele>140</ele>
        <time>2019-05-29T16:10:52Z</time>
      </trkpt>
      <trkpt lat="49.34948" lon="4.0654">
        <ele>141</ele>
        <time>2019-05-29T16:10:53Z</time>
      </trkpt>
      <trkpt lat="49.34951" lon="4.06545">
        <ele>141</ele>
        <time>2019-05-29T16:10:54Z</time>
      </trkpt>
      <trkpt lat="49.34954" lon="4.0655">
        <ele>141</ele>
        <time>2019-05-29T16:10:55Z</time>
      </trkpt>
      <trkpt lat="49.34957" lon="4.06556">
        <ele>141</ele>
        <time>2019-05-29T16:10:56Z</time>
      </trkpt>
      <trkpt lat="49.34958" lon="4.06562">
        <ele>141</ele>
        <time>2019-05-29T16:10:57Z</time>
      </trkpt>
      <trkpt lat="49.3496" lon="4.06568">
        <ele>141</ele>
        <time>2019-05-29T16:10:58Z</time>
      </trkpt>
      <trkpt lat="49.34962" lon="4.06574">
        <ele>142</ele>
        <time>2019-05-29T16:10:59Z</time>
      </trkpt>
      <trkpt lat="49.34965" lon="4.0658">
        <ele>142</ele>
        <time>2019-05-29T16:11:00Z</time>
      </trkpt>
      <trkpt lat="49.34967" lon="4.06586">
        <ele>142</ele>
        <time>2019-05-29T16:11:01Z</time>
      </trkpt>
      <trkpt lat="49.3497" lon="4.06593">
        <ele>142</ele>
        <time>2019-05-29T16:11:02Z</time>
      </trkpt>
      <trkpt lat="49.34972" lon="4.06601">
        <ele>142</ele>
        <time>2019-05-29T16:11:03Z</time>
      </trkpt>
      <trkpt lat="49.34973" lon="4.06607">
        <ele>141</ele>
        <time>2019-05-29T16:11:04Z</time>
      </trkpt>
      <trkpt lat="49.34975" lon="4.06615">
        <ele>141</ele>
        <time>2019-05-29T16:11:05Z</time>
      </trkpt>
      <trkpt lat="49.34976" lon="4.06623">
        <ele>141</ele>
        <time>2019-05-29T16:11:06Z</time>
      </trkpt>
      <trkpt lat="49.34978" lon="4.0663">
        <ele>141</ele>
        <time>2019-05-29T16:11:07Z</time>
      </trkpt>
      <trkpt lat="49.34981" lon="4.06638">
        <ele>141</ele>
        <time>2019-05-29T16:11:08Z</time>
      </trkpt>
      <trkpt lat="49.34983" lon="4.06646">
        <ele>141</ele>
        <time>2019-05-29T16:11:09Z</time>
      </trkpt>
      <trkpt lat="49.34984" lon="4.06654">
        <ele>141</ele>
        <time>2019-05-29T16:11:10Z</time>
      </trkpt>
      <trkpt lat="49.34986" lon="4.06662">
        <ele>141</ele>
        <time>2019-05-29T16:11:11Z</time>
      </trkpt>
      <trkpt lat="49.34988" lon="4.0667">
        <ele>140</ele>
        <time>2019-05-29T16:11:12Z</time>
      </trkpt>
      <trkpt lat="49.34991" lon="4.06678">
        <ele>141</ele>
        <time>2019-05-29T16:11:13Z</time>
      </trkpt>
      <trkpt lat="49.34993" lon="4.06686">
        <ele>141</ele>
        <time>2019-05-29T16:11:14Z</time>
      </trkpt>
      <trkpt lat="49.34995" lon="4.06695">
        <ele>141</ele>
        <time>2019-05-29T16:11:15Z</time>
      </trkpt>
      <trkpt lat="49.34997" lon="4.06703">
        <ele>141</ele>
        <time>2019-05-29T16:11:16Z</time>
      </trkpt>
      <trkpt lat="49.34999" lon="4.0671">
        <ele>141</ele>
        <time>2019-05-29T16:11:17Z</time>
      </trkpt>
      <trkpt lat="49.35" lon="4.06719">
        <ele>141</ele>
        <time>2019-05-29T16:11:18Z</time>
      </trkpt>
      <trkpt lat="49.35003" lon="4.06727">
        <ele>141</ele>
        <time>2019-05-29T16:11:19Z</time>
      </trkpt>
      <trkpt lat="49.35005" lon="4.06735">
        <ele>141</ele>
        <time>2019-05-29T16:11:20Z</time>
      </trkpt>
      <trkpt lat="49.35007" lon="4.06743">
        <ele>141</ele>
        <time>2019-05-29T16:11:21Z</time>
      </trkpt>
      <trkpt lat="49.35009" lon="4.06751">
        <ele>141</ele>
        <time>2019-05-29T16:11:22Z</time>
      </trkpt>
      <trkpt lat="49.3501" lon="4.0676">
        <ele>141</ele>
        <time>2019-05-29T16:11:23Z</time>
      </trkpt>
      <trkpt lat="49.35012" lon="4.06768">
        <ele>141</ele>
        <time>2019-05-29T16:11:24Z</time>
      </trkpt>
      <trkpt lat="49.35014" lon="4.06776">
        <ele>141</ele>
        <time>2019-05-29T16:11:25Z</time>
      </trkpt>
      <trkpt lat="49.35015" lon="4.06784">
        <ele>141</ele>
        <time>2019-05-29T16:11:26Z</time>
      </trkpt>
      <trkpt lat="49.35016" lon="4.06791">
        <ele>140</ele>
        <time>2019-05-29T16:11:27Z</time>
      </trkpt>
      <trkpt lat="49.35017" lon="4.06797">
        <ele>140</ele>
        <time>2019-05-29T16:11:28Z</time>
      </trkpt>
      <trkpt lat="49.35018" lon="4.06804">
        <ele>140</ele>
        <time>2019-05-29T16:11:29Z</time>
      </trkpt>
      <trkpt lat="49.35019" lon="4.06811">
        <ele>140</ele>
        <time>2019-05-29T16:11:30Z</time>
      </trkpt>
      <trkpt lat="49.35021" lon="4.06818">
        <ele>140</ele>
        <time>2019-05-29T16:11:31Z</time>
      </trkpt>
      <trkpt lat="49.35022" lon="4.06825">
        <ele>140</ele>
        <time>2019-05-29T16:11:32Z</time>
      </trkpt>
      <trkpt lat="49.35024" lon="4.06833">
        <ele>140</ele>
        <time>2019-05-29T16:11:33Z</time>
      </trkpt>
      <trkpt lat="49.35026" lon="4.06841">
        <ele>140</ele>
        <time>2019-05-29T16:11:34Z</time>
      </trkpt>
      <trkpt lat="49.35027" lon="4.06849">
        <ele>140</ele>
        <time>2019-05-29T16:11:35Z</time>
      </trkpt>
      <trkpt lat="49.35029" lon="4.06857">
        <ele>140</ele>
        <time>2019-05-29T16:11:36Z</time>
      </trkpt>
      <trkpt lat="49.3503" lon="4.06864">
        <ele>140</ele>
        <time>2019-05-29T16:11:37Z</time>
      </trkpt>
      <trkpt lat="49.35032" lon="4.06873">
        <ele>140</ele>
        <time>2019-05-29T16:11:38Z</time>
      </trkpt>
      <trkpt lat="49.35033" lon="4.06881">
        <ele>140</ele>
        <time>2019-05-29T16:11:39Z</time>
      </trkpt>
      <trkpt lat="49.35035" lon="4.06888">
        <ele>140</ele>
        <time>2019-05-29T16:11:40Z</time>
      </trkpt>
      <trkpt lat="49.35037" lon="4.06896">
        <ele>140</ele>
        <time>2019-05-29T16:11:41Z</time>
      </trkpt>
      <trkpt lat="49.35038" lon="4.06903">
        <ele>140</ele>
        <time>2019-05-29T16:11:42Z</time>
      </trkpt>
      <trkpt lat="49.3504" lon="4.0691">
        <ele>140</ele>
        <time>2019-05-29T16:11:43Z</time>
      </trkpt>
      <trkpt lat="49.35042" lon="4.06917">
        <ele>140</ele>
        <time>2019-05-29T16:11:44Z</time>
      </trkpt>
      <trkpt lat="49.35043" lon="4.06923">
        <ele>140</ele>
        <time>2019-05-29T16:11:45Z</time>
      </trkpt>
      <trkpt lat="49.35044" lon="4.06929">
        <ele>140</ele>
        <time>2019-05-29T16:11:46Z</time>
      </trkpt>
      <trkpt lat="49.35045" lon="4.06935">
        <ele>140</ele>
        <time>2019-05-29T16:11:47Z</time>
      </trkpt>
      <trkpt lat="49.35046" lon="4.06941">
        <ele>140</ele>
        <time>2019-05-29T16:11:48Z</time>
      </trkpt>
      <trkpt lat="49.35046" lon="4.06948">
        <ele>140</ele>
        <time>2019-05-29T16:11:49Z</time>
      </trkpt>
      <trkpt lat="49.35047" lon="4.06956">
        <ele>140</ele>
        <time>2019-05-29T16:11:50Z</time>
      </trkpt>
      <trkpt lat="49.35049" lon="4.06964">
        <ele>140</ele>
        <time>2019-05-29T16:11:51Z</time>
      </trkpt>
      <trkpt lat="49.35051" lon="4.06972">
        <ele>140</ele>
        <time>2019-05-29T16:11:52Z</time>
      </trkpt>
      <trkpt lat="49.35054" lon="4.0698">
        <ele>140</ele>
        <time>2019-05-29T16:11:53Z</time>
      </trkpt>
      <trkpt lat="49.35055" lon="4.06989">
        <ele>139</ele>
        <time>2019-05-29T16:11:54Z</time>
      </trkpt>
      <trkpt lat="49.35057" lon="4.06998">
        <ele>139</ele>
        <time>2019-05-29T16:11:55Z</time>
      </trkpt>
      <trkpt lat="49.3506" lon="4.07006">
        <ele>139</ele>
        <time>2019-05-29T16:11:56Z</time>
      </trkpt>
      <trkpt lat="49.35062" lon="4.07015">
        <ele>139</ele>
        <time>2019-05-29T16:11:57Z</time>
      </trkpt>
      <trkpt lat="49.35063" lon="4.07024">
        <ele>139</ele>
        <time>2019-05-29T16:11:58Z</time>
      </trkpt>
      <trkpt lat="49.35064" lon="4.07032">
        <ele>139</ele>
        <time>2019-05-29T16:11:59Z</time>
      </trkpt>
      <trkpt lat="49.35065" lon="4.0704">
        <ele>139</ele>
        <time>2019-05-29T16:12:00Z</time>
      </trkpt>
      <trkpt lat="49.35067" lon="4.0705">
        <ele>139</ele>
        <time>2019-05-29T16:12:01Z</time>
      </trkpt>
      <trkpt lat="49.3507" lon="4.0706">
        <ele>139</ele>
        <time>2019-05-29T16:12:02Z</time>
      </trkpt>
      <trkpt lat="49.35071" lon="4.07069">
        <ele>139</ele>
        <time>2019-05-29T16:12:03Z</time>
      </trkpt>
      <trkpt lat="49.35073" lon="4.07078">
        <ele>139</ele>
        <time>2019-05-29T16:12:04Z</time>
      </trkpt>
      <trkpt lat="49.35074" lon="4.07086">
        <ele>139</ele>
        <time>2019-05-29T16:12:05Z</time>
      </trkpt>
      <trkpt lat="49.35076" lon="4.07096">
        <ele>139</ele>
        <time>2019-05-29T16:12:06Z</time>
      </trkpt>
      <trkpt lat="49.35078" lon="4.07105">
        <ele>139</ele>
        <time>2019-05-29T16:12:07Z</time>
      </trkpt>
      <trkpt lat="49.3508" lon="4.07114">
        <ele>139</ele>
        <time>2019-05-29T16:12:08Z</time>
      </trkpt>
      <trkpt lat="49.35082" lon="4.07123">
        <ele>139</ele>
        <time>2019-05-29T16:12:09Z</time>
      </trkpt>
      <trkpt lat="49.35083" lon="4.07132">
        <ele>139</ele>
        <time>2019-05-29T16:12:10Z</time>
      </trkpt>
      <trkpt lat="49.35085" lon="4.07141">
        <ele>139</ele>
        <time>2019-05-29T16:12:11Z</time>
      </trkpt>
      <trkpt lat="49.35086" lon="4.0715">
        <ele>139</ele>
        <time>2019-05-29T16:12:12Z</time>
      </trkpt>
      <trkpt lat="49.35088" lon="4.07159">
        <ele>139</ele>
        <time>2019-05-29T16:12:13Z</time>
      </trkpt>
      <trkpt lat="49.3509" lon="4.07167">
        <ele>138</ele>
        <time>2019-05-29T16:12:14Z</time>
      </trkpt>
      <trkpt lat="49.35092" lon="4.07175">
        <ele>139</ele>
        <time>2019-05-29T16:12:15Z</time>
      </trkpt>
      <trkpt lat="49.35094" lon="4.07183">
        <ele>139</ele>
        <time>2019-05-29T16:12:16Z</time>
      </trkpt>
      <trkpt lat="49.35095" lon="4.07189">
        <ele>138</ele>
        <time>2019-05-29T16:12:17Z</time>
      </trkpt>
      <trkpt lat="49.35096" lon="4.07196">
        <ele>138</ele>
        <time>2019-05-29T16:12:18Z</time>
      </trkpt>
      <trkpt lat="49.35098" lon="4.07201">
        <ele>138</ele>
        <time>2019-05-29T16:12:19Z</time>
      </trkpt>
      <trkpt lat="49.351" lon="4.07206">
        <ele>138</ele>
        <time>2019-05-29T16:12:20Z</time>
      </trkpt>
      <trkpt lat="49.35102" lon="4.07211">
        <ele>137</ele>
        <time>2019-05-29T16:12:21Z</time>
      </trkpt>
      <trkpt lat="49.35104" lon="4.07215">
        <ele>137</ele>
        <time>2019-05-29T16:12:22Z</time>
      </trkpt>
      <trkpt lat="49.35108" lon="4.07217">
        <ele>137</ele>
        <time>2019-05-29T16:12:23Z</time>
      </trkpt>
      <trkpt lat="49.3511" lon="4.07218">
        <ele>137</ele>
        <time>2019-05-29T16:12:24Z</time>
      </trkpt>
      <trkpt lat="49.35113" lon="4.07219">
        <ele>137</ele>
        <time>2019-05-29T16:12:25Z</time>
      </trkpt>
      <trkpt lat="49.35115" lon="4.07221">
        <ele>137</ele>
        <time>2019-05-29T16:12:26Z</time>
      </trkpt>
      <trkpt lat="49.35118" lon="4.07223">
        <ele>137</ele>
        <time>2019-05-29T16:12:27Z</time>
      </trkpt>
      <trkpt lat="49.35122" lon="4.07224">
        <ele>137</ele>
        <time>2019-05-29T16:12:28Z</time>
      </trkpt>
      <trkpt lat="49.35126" lon="4.07225">
        <ele>138</ele>
        <time>2019-05-29T16:12:29Z</time>
      </trkpt>
      <trkpt lat="49.35131" lon="4.07224">
        <ele>137</ele>
        <time>2019-05-29T16:12:30Z</time>
      </trkpt>
      <trkpt lat="49.35135" lon="4.07221">
        <ele>137</ele>
        <time>2019-05-29T16:12:31Z</time>
      </trkpt>
      <trkpt lat="49.35138" lon="4.07218">
        <ele>138</ele>
        <time>2019-05-29T16:12:32Z</time>
      </trkpt>
      <trkpt lat="49.35142" lon="4.07215">
        <ele>138</ele>
        <time>2019-05-29T16:12:33Z</time>
      </trkpt>
      <trkpt lat="49.35147" lon="4.07213">
        <ele>138</ele>
        <time>2019-05-29T16:12:34Z</time>
      </trkpt>
      <trkpt lat="49.35152" lon="4.0721">
        <ele>139</ele>
        <time>2019-05-29T16:12:35Z</time>
      </trkpt>
      <trkpt lat="49.35157" lon="4.07207">
        <ele>139</ele>
        <time>2019-05-29T16:12:36Z</time>
      </trkpt>
      <trkpt lat="49.35162" lon="4.07205">
        <ele>139</ele>
        <time>2019-05-29T16:12:37Z</time>
      </trkpt>
      <trkpt lat="49.35167" lon="4.07201">
        <ele>139</ele>
        <time>2019-05-29T16:12:38Z</time>
      </trkpt>
      <trkpt lat="49.35172" lon="4.07197">
        <ele>139</ele>
        <time>2019-05-29T16:12:39Z</time>
      </trkpt>
      <trkpt lat="49.35176" lon="4.07194">
        <ele>140</ele>
        <time>2019-05-29T16:12:40Z</time>
      </trkpt>
      <trkpt lat="49.35183" lon="4.0719">
        <ele>140</ele>
        <time>2019-05-29T16:12:41Z</time>
      </trkpt>
      <trkpt lat="49.3519" lon="4.07187">
        <ele>140</ele>
        <time>2019-05-29T16:12:42Z</time>
      </trkpt>
      <trkpt lat="49.35197" lon="4.07184">
        <ele>140</ele>
        <time>2019-05-29T16:12:43Z</time>
      </trkpt>
      <trkpt lat="49.35203" lon="4.07179">
        <ele>140</ele>
        <time>2019-05-29T16:12:44Z</time>
      </trkpt>
      <trkpt lat="49.3521" lon="4.07175">
        <ele>140</ele>
        <time>2019-05-29T16:12:45Z</time>
      </trkpt>
      <trkpt lat="49.35216" lon="4.07172">
        <ele>139</ele>
        <time>2019-05-29T16:12:46Z</time>
      </trkpt>
      <trkpt lat="49.35222" lon="4.07169">
        <ele>139</ele>
        <time>2019-05-29T16:12:47Z</time>
      </trkpt>
      <trkpt lat="49.35229" lon="4.07165">
        <ele>138</ele>
        <time>2019-05-29T16:12:48Z</time>
      </trkpt>
      <trkpt lat="49.35235" lon="4.07161">
        <ele>138</ele>
        <time>2019-05-29T16:12:49Z</time>
      </trkpt>
      <trkpt lat="49.35241" lon="4.07157">
        <ele>137</ele>
        <time>2019-05-29T16:12:50Z</time>
      </trkpt>
      <trkpt lat="49.35247" lon="4.07152">
        <ele>137</ele>
        <time>2019-05-29T16:12:51Z</time>
      </trkpt>
      <trkpt lat="49.35254" lon="4.07147">
        <ele>137</ele>
        <time>2019-05-29T16:12:52Z</time>
      </trkpt>
      <trkpt lat="49.35261" lon="4.07142">
        <ele>136</ele>
        <time>2019-05-29T16:12:53Z</time>
      </trkpt>
      <trkpt lat="49.35268" lon="4.07137">
        <ele>136</ele>
        <time>2019-05-29T16:12:54Z</time>
      </trkpt>
      <trkpt lat="49.35274" lon="4.07131">
        <ele>136</ele>
        <time>2019-05-29T16:12:55Z</time>
      </trkpt>
      <trkpt lat="49.35282" lon="4.07126">
        <ele>136</ele>
        <time>2019-05-29T16:12:56Z</time>
      </trkpt>
      <trkpt lat="49.35289" lon="4.0712">
        <ele>136</ele>
        <time>2019-05-29T16:12:57Z</time>
      </trkpt>
      <trkpt lat="49.35297" lon="4.07116">
        <ele>135</ele>
        <time>2019-05-29T16:12:58Z</time>
      </trkpt>
      <trkpt lat="49.35304" lon="4.0711">
        <ele>135</ele>
        <time>2019-05-29T16:12:59Z</time>
      </trkpt>
      <trkpt lat="49.35312" lon="4.07106">
        <ele>134</ele>
        <time>2019-05-29T16:13:00Z</time>
      </trkpt>
      <trkpt lat="49.35319" lon="4.071">
        <ele>134</ele>
        <time>2019-05-29T16:13:01Z</time>
      </trkpt>
      <trkpt lat="49.35327" lon="4.07094">
        <ele>134</ele>
        <time>2019-05-29T16:13:02Z</time>
      </trkpt>
      <trkpt lat="49.35335" lon="4.07088">
        <ele>134</ele>
        <time>2019-05-29T16:13:03Z</time>
      </trkpt>
      <trkpt lat="49.35344" lon="4.07082">
        <ele>134</ele>
        <time>2019-05-29T16:13:04Z</time>
      </trkpt>
      <trkpt lat="49.35352" lon="4.07076">
        <ele>134</ele>
        <time>2019-05-29T16:13:05Z</time>
      </trkpt>
      <trkpt lat="49.3536" lon="4.0707">
        <ele>134</ele>
        <time>2019-05-29T16:13:06Z</time>
      </trkpt>
      <trkpt lat="49.35369" lon="4.07064">
        <ele>133</ele>
        <time>2019-05-29T16:13:07Z</time>
      </trkpt>
      <trkpt lat="49.35377" lon="4.07058">
        <ele>133</ele>
        <time>2019-05-29T16:13:08Z</time>
      </trkpt>
      <trkpt lat="49.35386" lon="4.07051">
        <ele>133</ele>
        <time>2019-05-29T16:13:09Z</time>
      </trkpt>
      <trkpt lat="49.35395" lon="4.07045">
        <ele>133</ele>
        <time>2019-05-29T16:13:10Z</time>
      </trkpt>
      <trkpt lat="49.35403" lon="4.07038">
        <ele>133</ele>
        <time>2019-05-29T16:13:11Z</time>
      </trkpt>
      <trkpt lat="49.35412" lon="4.07032">
        <ele>132</ele>
        <time>2019-05-29T16:13:12Z</time>
      </trkpt>
      <trkpt lat="49.3542" lon="4.07026">
        <ele>132</ele>
        <time>2019-05-29T16:13:13Z</time>
      </trkpt>
      <trkpt lat="49.35428" lon="4.0702">
        <ele>132</ele>
        <time>2019-05-29T16:13:14Z</time>
      </trkpt>
      <trkpt lat="49.35437" lon="4.07013">
        <ele>131</ele>
        <time>2019-05-29T16:13:15Z</time>
      </trkpt>
      <trkpt lat="49.35445" lon="4.07006">
        <ele>131</ele>
        <time>2019-05-29T16:13:16Z</time>
      </trkpt>
      <trkpt lat="49.35454" lon="4.07">
        <ele>131</ele>
        <time>2019-05-29T16:13:17Z</time>
      </trkpt>
      <trkpt lat="49.35462" lon="4.06994">
        <ele>131</ele>
        <time>2019-05-29T16:13:18Z</time>
      </trkpt>
      <trkpt lat="49.3547" lon="4.06988">
        <ele>131</ele>
        <time>2019-05-29T16:13:19Z</time>
      </trkpt>
      <trkpt lat="49.35478" lon="4.06983">
        <ele>131</ele>
        <time>2019-05-29T16:13:20Z</time>
      </trkpt>
      <trkpt lat="49.35485" lon="4.06977">
        <ele>131</ele>
        <time>2019-05-29T16:13:21Z</time>
      </trkpt>
      <trkpt lat="49.35493" lon="4.06972">
        <ele>131</ele>
        <time>2019-05-29T16:13:22Z</time>
      </trkpt>
      <trkpt lat="49.355" lon="4.06967">
        <ele>131</ele>
        <time>2019-05-29T16:13:23Z</time>
      </trkpt>
      <trkpt lat="49.35508" lon="4.06963">
        <ele>131</ele>
        <time>2019-05-29T16:13:24Z</time>
      </trkpt>
      <trkpt lat="49.35516" lon="4.06959">
        <ele>131</ele>
        <time>2019-05-29T16:13:25Z</time>
      </trkpt>
      <trkpt lat="49.35524" lon="4.06956">
        <ele>131</ele>
        <time>2019-05-29T16:13:26Z</time>
      </trkpt>
      <trkpt lat="49.35532" lon="4.06954">
        <ele>131</ele>
        <time>2019-05-29T16:13:27Z</time>
      </trkpt>
      <trkpt lat="49.35541" lon="4.06951">
        <ele>131</ele>
        <time>2019-05-29T16:13:28Z</time>
      </trkpt>
      <trkpt lat="49.3555" lon="4.06951">
        <ele>131</ele>
        <time>2019-05-29T16:13:29Z</time>
      </trkpt>
      <trkpt lat="49.35558" lon="4.06948">
        <ele>130</ele>
        <time>2019-05-29T16:13:30Z</time>
      </trkpt>
      <trkpt lat="49.35566" lon="4.06945">
        <ele>130</ele>
        <time>2019-05-29T16:13:31Z</time>
      </trkpt>
      <trkpt lat="49.35574" lon="4.06942">
        <ele>130</ele>
        <time>2019-05-29T16:13:32Z</time>
      </trkpt>
      <trkpt lat="49.35582" lon="4.0694">
        <ele>130</ele>
        <time>2019-05-29T16:13:33Z</time>
      </trkpt>
      <trkpt lat="49.3559" lon="4.06938">
        <ele>129</ele>
        <time>2019-05-29T16:13:34Z</time>
      </trkpt>
      <trkpt lat="49.35598" lon="4.06935">
        <ele>129</ele>
        <time>2019-05-29T16:13:35Z</time>
      </trkpt>
      <trkpt lat="49.35606" lon="4.06932">
        <ele>129</ele>
        <time>2019-05-29T16:13:36Z</time>
      </trkpt>
      <trkpt lat="49.35614" lon="4.0693">
        <ele>129</ele>
        <time>2019-05-29T16:13:37Z</time>
      </trkpt>
      <trkpt lat="49.35621" lon="4.06927">
        <ele>128</ele>
        <time>2019-05-29T16:13:38Z</time>
      </trkpt>
      <trkpt lat="49.35629" lon="4.06923">
        <ele>128</ele>
        <time>2019-05-29T16:13:39Z</time>
      </trkpt>
      <trkpt lat="49.35637" lon="4.0692">
        <ele>128</ele>
        <time>2019-05-29T16:13:40Z</time>
      </trkpt>
      <trkpt lat="49.35645" lon="4.06916">
        <ele>128</ele>
        <time>2019-05-29T16:13:41Z</time>
      </trkpt>
      <trkpt lat="49.35653" lon="4.06912">
        <ele>128</ele>
        <time>2019-05-29T16:13:42Z</time>
      </trkpt>
      <trkpt lat="49.3566" lon="4.06908">
        <ele>128</ele>
        <time>2019-05-29T16:13:43Z</time>
      </trkpt>
      <trkpt lat="49.35668" lon="4.06903">
        <ele>128</ele>
        <time>2019-05-29T16:13:44Z</time>
      </trkpt>
      <trkpt lat="49.35676" lon="4.06898">
        <ele>128</ele>
        <time>2019-05-29T16:13:45Z</time>
      </trkpt>
      <trkpt lat="49.35683" lon="4.06893">
        <ele>127</ele>
        <time>2019-05-29T16:13:46Z</time>
      </trkpt>
      <trkpt lat="49.35691" lon="4.06889">
        <ele>127</ele>
        <time>2019-05-29T16:13:47Z</time>
      </trkpt>
      <trkpt lat="49.35699" lon="4.06884">
        <ele>127</ele>
        <time>2019-05-29T16:13:48Z</time>
      </trkpt>
      <trkpt lat="49.35707" lon="4.06879">
        <ele>127</ele>
        <time>2019-05-29T16:13:49Z</time>
      </trkpt>
      <trkpt lat="49.35715" lon="4.06875">
        <ele>127</ele>
        <time>2019-05-29T16:13:50Z</time>
      </trkpt>
      <trkpt lat="49.35724" lon="4.0687">
        <ele>126</ele>
        <time>2019-05-29T16:13:51Z</time>
      </trkpt>
      <trkpt lat="49.35732" lon="4.06865">
        <ele>126</ele>
        <time>2019-05-29T16:13:52Z</time>
      </trkpt>
      <trkpt lat="49.3574" lon="4.0686">
        <ele>126</ele>
        <time>2019-05-29T16:13:53Z</time>
      </trkpt>
      <trkpt lat="49.35749" lon="4.06856">
        <ele>126</ele>
        <time>2019-05-29T16:13:54Z</time>
      </trkpt>
      <trkpt lat="49.35757" lon="4.06851">
        <ele>125</ele>
        <time>2019-05-29T16:13:55Z</time>
      </trkpt>
      <trkpt lat="49.35766" lon="4.06845">
        <ele>125</ele>
        <time>2019-05-29T16:13:56Z</time>
      </trkpt>
      <trkpt lat="49.35775" lon="4.0684">
        <ele>125</ele>
        <time>2019-05-29T16:13:57Z</time>
      </trkpt>
      <trkpt lat="49.35783" lon="4.06835">
        <ele>125</ele>
        <time>2019-05-29T16:13:58Z</time>
      </trkpt>
      <trkpt lat="49.35792" lon="4.06829">
        <ele>125</ele>
        <time>2019-05-29T16:13:59Z</time>
      </trkpt>
      <trkpt lat="49.358" lon="4.06824">
        <ele>125</ele>
        <time>2019-05-29T16:14:00Z</time>
      </trkpt>
      <trkpt lat="49.35809" lon="4.06819">
        <ele>124</ele>
        <time>2019-05-29T16:14:01Z</time>
      </trkpt>
      <trkpt lat="49.35817" lon="4.06815">
        <ele>124</ele>
        <time>2019-05-29T16:14:02Z</time>
      </trkpt>
      <trkpt lat="49.35825" lon="4.0681">
        <ele>124</ele>
        <time>2019-05-29T16:14:03Z</time>
      </trkpt>
      <trkpt lat="49.35833" lon="4.06805">
        <ele>124</ele>
        <time>2019-05-29T16:14:04Z</time>
      </trkpt>
      <trkpt lat="49.35842" lon="4.068">
        <ele>124</ele>
        <time>2019-05-29T16:14:05Z</time>
      </trkpt>
      <trkpt lat="49.3585" lon="4.06796">
        <ele>124</ele>
        <time>2019-05-29T16:14:06Z</time>
      </trkpt>
      <trkpt lat="49.35858" lon="4.06791">
        <ele>124</ele>
        <time>2019-05-29T16:14:07Z</time>
      </trkpt>
      <trkpt lat="49.35866" lon="4.06786">
        <ele>123</ele>
        <time>2019-05-29T16:14:08Z</time>
      </trkpt>
      <trkpt lat="49.35874" lon="4.06782">
        <ele>123</ele>
        <time>2019-05-29T16:14:09Z</time>
      </trkpt>
      <trkpt lat="49.35882" lon="4.06778">
        <ele>123</ele>
        <time>2019-05-29T16:14:10Z</time>
      </trkpt>
      <trkpt lat="49.35891" lon="4.06775">
        <ele>123</ele>
        <time>2019-05-29T16:14:11Z</time>
      </trkpt>
      <trkpt lat="49.35899" lon="4.06772">
        <ele>123</ele>
        <time>2019-05-29T16:14:12Z</time>
      </trkpt>
      <trkpt lat="49.35908" lon="4.0677">
        <ele>123</ele>
        <time>2019-05-29T16:14:13Z</time>
      </trkpt>
      <trkpt lat="49.35917" lon="4.06769">
        <ele>123</ele>
        <time>2019-05-29T16:14:14Z</time>
      </trkpt>
      <trkpt lat="49.35926" lon="4.06768">
        <ele>123</ele>
        <time>2019-05-29T16:14:15Z</time>
      </trkpt>
      <trkpt lat="49.35935" lon="4.06767">
        <ele>124</ele>
        <time>2019-05-29T16:14:16Z</time>
      </trkpt>
      <trkpt lat="49.35944" lon="4.06766">
        <ele>124</ele>
        <time>2019-05-29T16:14:17Z</time>
      </trkpt>
      <trkpt lat="49.35954" lon="4.06767">
        <ele>124</ele>
        <time>2019-05-29T16:14:18Z</time>
      </trkpt>
      <trkpt lat="49.35963" lon="4.06768">
        <ele>124</ele>
        <time>2019-05-29T16:14:19Z</time>
      </trkpt>
      <trkpt lat="49.35972" lon="4.06769">
        <ele>124</ele>
        <time>2019-05-29T16:14:20Z</time>
      </trkpt>
      <trkpt lat="49.35981" lon="4.06772">
        <ele>124</ele>
        <time>2019-05-29T16:14:21Z</time>
      </trkpt>
      <trkpt lat="49.3599" lon="4.06774">
        <ele>123</ele>
        <time>2019-05-29T16:14:22Z</time>
      </trkpt>
      <trkpt lat="49.35998" lon="4.06776">
        <ele>124</ele>
        <time>2019-05-29T16:14:23Z</time>
      </trkpt>
      <trkpt lat="49.36007" lon="4.06778">
        <ele>123</ele>
        <time>2019-05-29T16:14:24Z</time>
      </trkpt>
      <trkpt lat="49.36015" lon="4.06781">
        <ele>123</ele>
        <time>2019-05-29T16:14:25Z</time>
      </trkpt>
      <trkpt lat="49.36024" lon="4.06783">
        <ele>123</ele>
        <time>2019-05-29T16:14:26Z</time>
      </trkpt>
      <trkpt lat="49.36032" lon="4.06785">
        <ele>123</ele>
        <time>2019-05-29T16:14:27Z</time>
      </trkpt>
      <trkpt lat="49.36039" lon="4.06787">
        <ele>123</ele>
        <time>2019-05-29T16:14:28Z</time>
      </trkpt>
      <trkpt lat="49.36047" lon="4.06789">
        <ele>123</ele>
        <time>2019-05-29T16:14:29Z</time>
      </trkpt>
      <trkpt lat="49.36055" lon="4.06791">
        <ele>122</ele>
        <time>2019-05-29T16:14:30Z</time>
      </trkpt>
      <trkpt lat="49.36063" lon="4.06793">
        <ele>122</ele>
        <time>2019-05-29T16:14:31Z</time>
      </trkpt>
      <trkpt lat="49.36071" lon="4.06795">
        <ele>122</ele>
        <time>2019-05-29T16:14:32Z</time>
      </trkpt>
      <trkpt lat="49.36078" lon="4.06796">
        <ele>122</ele>
        <time>2019-05-29T16:14:33Z</time>
      </trkpt>
      <trkpt lat="49.36086" lon="4.06798">
        <ele>123</ele>
        <time>2019-05-29T16:14:34Z</time>
      </trkpt>
      <trkpt lat="49.36093" lon="4.06799">
        <ele>123</ele>
        <time>2019-05-29T16:14:35Z</time>
      </trkpt>
      <trkpt lat="49.36101" lon="4.068">
        <ele>123</ele>
        <time>2019-05-29T16:14:36Z</time>
      </trkpt>
      <trkpt lat="49.36109" lon="4.06801">
        <ele>123</ele>
        <time>2019-05-29T16:14:37Z</time>
      </trkpt>
      <trkpt lat="49.36116" lon="4.06801">
        <ele>123</ele>
        <time>2019-05-29T16:14:38Z</time>
      </trkpt>
      <trkpt lat="49.36123" lon="4.06802">
        <ele>123</ele>
        <time>2019-05-29T16:14:39Z</time>
      </trkpt>
      <trkpt lat="49.3613" lon="4.06803">
        <ele>123</ele>
        <time>2019-05-29T16:14:40Z</time>
      </trkpt>
      <trkpt lat="49.36137" lon="4.06803">
        <ele>123</ele>
        <time>2019-05-29T16:14:41Z</time>
      </trkpt>
      <trkpt lat="49.36145" lon="4.06803">
        <ele>123</ele>
        <time>2019-05-29T16:14:42Z</time>
      </trkpt>
      <trkpt lat="49.36152" lon="4.06803">
        <ele>123</ele>
        <time>2019-05-29T16:14:43Z</time>
      </trkpt>
      <trkpt lat="49.36159" lon="4.06804">
        <ele>123</ele>
        <time>2019-05-29T16:14:44Z</time>
      </trkpt>
      <trkpt lat="49.36166" lon="4.06805">
        <ele>123</ele>
        <time>2019-05-29T16:14:45Z</time>
      </trkpt>
      <trkpt lat="49.36172" lon="4.06805">
        <ele>123</ele>
        <time>2019-05-29T16:14:46Z</time>
      </trkpt>
      <trkpt lat="49.36179" lon="4.06805">
        <ele>123</ele>
        <time>2019-05-29T16:14:47Z</time>
      </trkpt>
      <trkpt lat="49.36186" lon="4.06806">
        <ele>124</ele>
        <time>2019-05-29T16:14:48Z</time>
      </trkpt>
      <trkpt lat="49.36192" lon="4.06806">
        <ele>124</ele>
        <time>2019-05-29T16:14:49Z</time>
      </trkpt>
      <trkpt lat="49.36199" lon="4.06807">
        <ele>124</ele>
        <time>2019-05-29T16:14:50Z</time>
      </trkpt>
      <trkpt lat="49.36205" lon="4.06808">
        <ele>123</ele>
        <time>2019-05-29T16:14:51Z</time>
      </trkpt>
      <trkpt lat="49.36212" lon="4.06808">
        <ele>124</ele>
        <time>2019-05-29T16:14:52Z</time>
      </trkpt>
      <trkpt lat="49.36219" lon="4.06808">
        <ele>124</ele>
        <time>2019-05-29T16:14:53Z</time>
      </trkpt>
      <trkpt lat="49.36225" lon="4.06808">
        <ele>124</ele>
        <time>2019-05-29T16:14:54Z</time>
      </trkpt>
      <trkpt lat="49.36232" lon="4.06809">
        <ele>124</ele>
        <time>2019-05-29T16:14:55Z</time>
      </trkpt>
      <trkpt lat="49.36238" lon="4.06809">
        <ele>124</ele>
        <time>2019-05-29T16:14:56Z</time>
      </trkpt>
      <trkpt lat="49.36245" lon="4.06809">
        <ele>124</ele>
        <time>2019-05-29T16:14:57Z</time>
      </trkpt>
      <trkpt lat="49.36251" lon="4.06809">
        <ele>124</ele>
        <time>2019-05-29T16:14:58Z</time>
      </trkpt>
      <trkpt lat="49.36257" lon="4.06809">
        <ele>124</ele>
        <time>2019-05-29T16:14:59Z</time>
      </trkpt>
      <trkpt lat="49.36263" lon="4.0681">
        <ele>124</ele>
        <time>2019-05-29T16:15:00Z</time>
      </trkpt>
      <trkpt lat="49.36269" lon="4.06809">
        <ele>124</ele>
        <time>2019-05-29T16:15:01Z</time>
      </trkpt>
      <trkpt lat="49.36276" lon="4.0681">
        <ele>124</ele>
        <time>2019-05-29T16:15:02Z</time>
      </trkpt>
      <trkpt lat="49.36282" lon="4.0681">
        <ele>125</ele>
        <time>2019-05-29T16:15:03Z</time>
      </trkpt>
      <trkpt lat="49.36288" lon="4.0681">
        <ele>125</ele>
        <time>2019-05-29T16:15:04Z</time>
      </trkpt>
      <trkpt lat="49.36294" lon="4.0681">
        <ele>125</ele>
        <time>2019-05-29T16:15:05Z</time>
      </trkpt>
      <trkpt lat="49.36301" lon="4.0681">
        <ele>125</ele>
        <time>2019-05-29T16:15:06Z</time>
      </trkpt>
      <trkpt lat="49.36307" lon="4.06811">
        <ele>125</ele>
        <time>2019-05-29T16:15:07Z</time>
      </trkpt>
      <trkpt lat="49.36313" lon="4.0681">
        <ele>125</ele>
        <time>2019-05-29T16:15:08Z</time>
      </trkpt>
      <trkpt lat="49.36319" lon="4.06811">
        <ele>126</ele>
        <time>2019-05-29T16:15:09Z</time>
      </trkpt>
      <trkpt lat="49.36326" lon="4.0681">
        <ele>126</ele>
        <time>2019-05-29T16:15:10Z</time>
      </trkpt>
      <trkpt lat="49.36332" lon="4.0681">
        <ele>126</ele>
        <time>2019-05-29T16:15:11Z</time>
      </trkpt>
      <trkpt lat="49.36339" lon="4.0681">
        <ele>126</ele>
        <time>2019-05-29T16:15:12Z</time>
      </trkpt>
      <trkpt lat="49.36346" lon="4.06811">
        <ele>126</ele>
        <time>2019-05-29T16:15:13Z</time>
      </trkpt>
      <trkpt lat="49.36353" lon="4.06811">
        <ele>126</ele>
        <time>2019-05-29T16:15:14Z</time>
      </trkpt>
      <trkpt lat="49.36359" lon="4.06812">
        <ele>126</ele>
        <time>2019-05-29T16:15:15Z</time>
      </trkpt>
      <trkpt lat="49.36366" lon="4.06812">
        <ele>126</ele>
        <time>2019-05-29T16:15:16Z</time>
      </trkpt>
      <trkpt lat="49.36372" lon="4.06812">
        <ele>126</ele>
        <time>2019-05-29T16:15:17Z</time>
      </trkpt>
      <trkpt lat="49.36379" lon="4.06812">
        <ele>126</ele>
        <time>2019-05-29T16:15:18Z</time>
      </trkpt>
      <trkpt lat="49.36385" lon="4.06812">
        <ele>126</ele>
        <time>2019-05-29T16:15:19Z</time>
      </trkpt>
      <trkpt lat="49.36392" lon="4.06812">
        <ele>126</ele>
        <time>2019-05-29T16:15:20Z</time>
      </trkpt>
      <trkpt lat="49.36399" lon="4.06812">
        <ele>126</ele>
        <time>2019-05-29T16:15:21Z</time>
      </trkpt>
      <trkpt lat="49.36406" lon="4.06812">
        <ele>127</ele>
        <time>2019-05-29T16:15:22Z</time>
      </trkpt>
      <trkpt lat="49.36413" lon="4.06812">
        <ele>127</ele>
        <time>2019-05-29T16:15:23Z</time>
      </trkpt>
      <trkpt lat="49.36419" lon="4.06813">
        <ele>127</ele>
        <time>2019-05-29T16:15:24Z</time>
      </trkpt>
      <trkpt lat="49.36426" lon="4.06813">
        <ele>127</ele>
        <time>2019-05-29T16:15:25Z</time>
      </trkpt>
      <trkpt lat="49.36432" lon="4.06813">
        <ele>127</ele>
        <time>2019-05-29T16:15:26Z</time>
      </trkpt>
      <trkpt lat="49.36439" lon="4.06813">
        <ele>127</ele>
        <time>2019-05-29T16:15:27Z</time>
      </trkpt>
      <trkpt lat="49.36446" lon="4.06813">
        <ele>127</ele>
        <time>2019-05-29T16:15:28Z</time>
      </trkpt>
      <trkpt lat="49.36452" lon="4.06813">
        <ele>127</ele>
        <time>2019-05-29T16:15:29Z</time>
      </trkpt>
      <trkpt lat="49.36459" lon="4.06814">
        <ele>127</ele>
        <time>2019-05-29T16:15:30Z</time>
      </trkpt>
      <trkpt lat="49.36466" lon="4.06814">
        <ele>126</ele>
        <time>2019-05-29T16:15:31Z</time>
      </trkpt>
      <trkpt lat="49.36473" lon="4.06814">
        <ele>126</ele>
        <time>2019-05-29T16:15:32Z</time>
      </trkpt>
      <trkpt lat="49.36479" lon="4.06814">
        <ele>126</ele>
        <time>2019-05-29T16:15:33Z</time>
      </trkpt>
      <trkpt lat="49.36486" lon="4.06814">
        <ele>126</ele>
        <time>2019-05-29T16:15:34Z</time>
      </trkpt>
      <trkpt lat="49.36493" lon="4.06815">
        <ele>126</ele>
        <time>2019-05-29T16:15:35Z</time>
      </trkpt>
      <trkpt lat="49.36501" lon="4.06815">
        <ele>126</ele>
        <time>2019-05-29T16:15:36Z</time>
      </trkpt>
      <trkpt lat="49.36508" lon="4.06815">
        <ele>127</ele>
        <time>2019-05-29T16:15:37Z</time>
      </trkpt>
      <trkpt lat="49.36515" lon="4.06815">
        <ele>127</ele>
        <time>2019-05-29T16:15:38Z</time>
      </trkpt>
      <trkpt lat="49.36522" lon="4.06815">
        <ele>127</ele>
        <time>2019-05-29T16:15:39Z</time>
      </trkpt>
      <trkpt lat="49.36529" lon="4.06815">
        <ele>126</ele>
        <time>2019-05-29T16:15:40Z</time>
      </trkpt>
      <trkpt lat="49.36536" lon="4.06816">
        <ele>126</ele>
        <time>2019-05-29T16:15:41Z</time>
      </trkpt>
      <trkpt lat="49.36543" lon="4.06816">
        <ele>126</ele>
        <time>2019-05-29T16:15:42Z</time>
      </trkpt>
      <trkpt lat="49.3655" lon="4.06816">
        <ele>126</ele>
        <time>2019-05-29T16:15:43Z</time>
      </trkpt>
      <trkpt lat="49.36557" lon="4.06816">
        <ele>126</ele>
        <time>2019-05-29T16:15:44Z</time>
      </trkpt>
      <trkpt lat="49.36564" lon="4.06816">
        <ele>126</ele>
        <time>2019-05-29T16:15:45Z</time>
      </trkpt>
      <trkpt lat="49.36571" lon="4.06816">
        <ele>126</ele>
        <time>2019-05-29T16:15:46Z</time>
      </trkpt>
      <trkpt lat="49.36579" lon="4.06816">
        <ele>126</ele>
        <time>2019-05-29T16:15:47Z</time>
      </trkpt>
      <trkpt lat="49.36586" lon="4.06816">
        <ele>126</ele>
        <time>2019-05-29T16:15:48Z</time>
      </trkpt>
      <trkpt lat="49.36593" lon="4.06815">
        <ele>126</ele>
        <time>2019-05-29T16:15:49Z</time>
      </trkpt>
      <trkpt lat="49.36601" lon="4.06815">
        <ele>126</ele>
        <time>2019-05-29T16:15:50Z</time>
      </trkpt>
      <trkpt lat="49.36608" lon="4.06815">
        <ele>126</ele>
        <time>2019-05-29T16:15:51Z</time>
      </trkpt>
      <trkpt lat="49.36615" lon="4.06815">
        <ele>126</ele>
        <time>2019-05-29T16:15:52Z</time>
      </trkpt>
      <trkpt lat="49.36623" lon="4.06815">
        <ele>126</ele>
        <time>2019-05-29T16:15:53Z</time>
      </trkpt>
      <trkpt lat="49.3663" lon="4.06814">
        <ele>126</ele>
        <time>2019-05-29T16:15:54Z</time>
      </trkpt>
      <trkpt lat="49.36637" lon="4.06813">
        <ele>126</ele>
        <time>2019-05-29T16:15:55Z</time>
      </trkpt>
      <trkpt lat="49.36645" lon="4.06812">
        <ele>126</ele>
        <time>2019-05-29T16:15:56Z</time>
      </trkpt>
      <trkpt lat="49.36652" lon="4.0681">
        <ele>126</ele>
        <time>2019-05-29T16:15:57Z</time>
      </trkpt>
      <trkpt lat="49.3666" lon="4.06809">
        <ele>126</ele>
        <time>2019-05-29T16:15:58Z</time>
      </trkpt>
      <trkpt lat="49.36667" lon="4.06807">
        <ele>126</ele>
        <time>2019-05-29T16:15:59Z</time>
      </trkpt>
      <trkpt lat="49.36674" lon="4.06805">
        <ele>126</ele>
        <time>2019-05-29T16:16:00Z</time>
      </trkpt>
      <trkpt lat="49.36681" lon="4.06803">
        <ele>125</ele>
        <time>2019-05-29T16:16:01Z</time>
      </trkpt>
      <trkpt lat="49.36688" lon="4.06801">
        <ele>126</ele>
        <time>2019-05-29T16:16:02Z</time>
      </trkpt>
      <trkpt lat="49.36695" lon="4.06799">
        <ele>125</ele>
        <time>2019-05-29T16:16:03Z</time>
      </trkpt>
      <trkpt lat="49.36702" lon="4.06797">
        <ele>126</ele>
        <time>2019-05-29T16:16:04Z</time>
      </trkpt>
      <trkpt lat="49.36709" lon="4.06795">
        <ele>126</ele>
        <time>2019-05-29T16:16:05Z</time>
      </trkpt>
      <trkpt lat="49.36716" lon="4.06793">
        <ele>126</ele>
        <time>2019-05-29T16:16:06Z</time>
      </trkpt>
      <trkpt lat="49.36723" lon="4.06791">
        <ele>126</ele>
        <time>2019-05-29T16:16:07Z</time>
      </trkpt>
      <trkpt lat="49.36731" lon="4.06789">
        <ele>126</ele>
        <time>2019-05-29T16:16:08Z</time>
      </trkpt>
      <trkpt lat="49.36738" lon="4.06787">
        <ele>126</ele>
        <time>2019-05-29T16:16:09Z</time>
      </trkpt>
      <trkpt lat="49.36745" lon="4.06785">
        <ele>126</ele>
        <time>2019-05-29T16:16:10Z</time>
      </trkpt>
      <trkpt lat="49.36752" lon="4.06783">
        <ele>126</ele>
        <time>2019-05-29T16:16:11Z</time>
      </trkpt>
      <trkpt lat="49.36759" lon="4.06781">
        <ele>125</ele>
        <time>2019-05-29T16:16:12Z</time>
      </trkpt>
      <trkpt lat="49.36766" lon="4.06779">
        <ele>125</ele>
        <time>2019-05-29T16:16:13Z</time>
      </trkpt>
      <trkpt lat="49.36773" lon="4.06777">
        <ele>125</ele>
        <time>2019-05-29T16:16:14Z</time>
      </trkpt>
      <trkpt lat="49.3678" lon="4.06775">
        <ele>125</ele>
        <time>2019-05-29T16:16:15Z</time>
      </trkpt>
      <trkpt lat="49.36787" lon="4.06773">
        <ele>125</ele>
        <time>2019-05-29T16:16:16Z</time>
      </trkpt>
      <trkpt lat="49.36795" lon="4.0677">
        <ele>125</ele>
        <time>2019-05-29T16:16:17Z</time>
      </trkpt>
      <trkpt lat="49.36802" lon="4.06768">
        <ele>125</ele>
        <time>2019-05-29T16:16:18Z</time>
      </trkpt>
      <trkpt lat="49.3681" lon="4.06766">
        <ele>125</ele>
        <time>2019-05-29T16:16:19Z</time>
      </trkpt>
      <trkpt lat="49.36817" lon="4.06764">
        <ele>125</ele>
        <time>2019-05-29T16:16:20Z</time>
      </trkpt>
      <trkpt lat="49.36825" lon="4.06762">
        <ele>124</ele>
        <time>2019-05-29T16:16:21Z</time>
      </trkpt>
      <trkpt lat="49.36833" lon="4.06759">
        <ele>124</ele>
        <time>2019-05-29T16:16:22Z</time>
      </trkpt>
      <trkpt lat="49.36841" lon="4.06758">
        <ele>124</ele>
        <time>2019-05-29T16:16:23Z</time>
      </trkpt>
      <trkpt lat="49.36848" lon="4.06756">
        <ele>124</ele>
        <time>2019-05-29T16:16:24Z</time>
      </trkpt>
      <trkpt lat="49.36855" lon="4.06754">
        <ele>124</ele>
        <time>2019-05-29T16:16:25Z</time>
      </trkpt>
      <trkpt lat="49.36863" lon="4.06751">
        <ele>124</ele>
        <time>2019-05-29T16:16:26Z</time>
      </trkpt>
      <trkpt lat="49.36871" lon="4.06749">
        <ele>124</ele>
        <time>2019-05-29T16:16:27Z</time>
      </trkpt>
      <trkpt lat="49.36879" lon="4.06747">
        <ele>124</ele>
        <time>2019-05-29T16:16:28Z</time>
      </trkpt>
      <trkpt lat="49.36886" lon="4.06745">
        <ele>124</ele>
        <time>2019-05-29T16:16:29Z</time>
      </trkpt>
      <trkpt lat="49.36894" lon="4.06743">
        <ele>124</ele>
        <time>2019-05-29T16:16:30Z</time>
      </trkpt>
      <trkpt lat="49.36901" lon="4.06741">
        <ele>124</ele>
        <time>2019-05-29T16:16:31Z</time>
      </trkpt>
      <trkpt lat="49.36909" lon="4.06739">
        <ele>124</ele>
        <time>2019-05-29T16:16:32Z</time>
      </trkpt>
      <trkpt lat="49.36917" lon="4.06737">
        <ele>124</ele>
        <time>2019-05-29T16:16:33Z</time>
      </trkpt>
      <trkpt lat="49.36924" lon="4.06735">
        <ele>124</ele>
        <time>2019-05-29T16:16:34Z</time>
      </trkpt>
      <trkpt lat="49.36932" lon="4.06733">
        <ele>124</ele>
        <time>2019-05-29T16:16:35Z</time>
      </trkpt>
      <trkpt lat="49.36939" lon="4.06731">
        <ele>124</ele>
        <time>2019-05-29T16:16:36Z</time>
      </trkpt>
      <trkpt lat="49.36947" lon="4.06729">
        <ele>124</ele>
        <time>2019-05-29T16:16:37Z</time>
      </trkpt>
      <trkpt lat="49.36955" lon="4.06726">
        <ele>124</ele>
        <time>2019-05-29T16:16:38Z</time>
      </trkpt>
      <trkpt lat="49.36962" lon="4.06724">
        <ele>124</ele>
        <time>2019-05-29T16:16:39Z</time>
      </trkpt>
      <trkpt lat="49.3697" lon="4.06722">
        <ele>124</ele>
        <time>2019-05-29T16:16:40Z</time>
      </trkpt>
      <trkpt lat="49.36978" lon="4.0672">
        <ele>124</ele>
        <time>2019-05-29T16:16:41Z</time>
      </trkpt>
      <trkpt lat="49.36985" lon="4.06717">
        <ele>124</ele>
        <time>2019-05-29T16:16:42Z</time>
      </trkpt>
      <trkpt lat="49.36994" lon="4.06715">
        <ele>124</ele>
        <time>2019-05-29T16:16:43Z</time>
      </trkpt>
      <trkpt lat="49.37002" lon="4.06713">
        <ele>124</ele>
        <time>2019-05-29T16:16:44Z</time>
      </trkpt>
      <trkpt lat="49.3701" lon="4.0671">
        <ele>123</ele>
        <time>2019-05-29T16:16:45Z</time>
      </trkpt>
      <trkpt lat="49.37019" lon="4.06708">
        <ele>123</ele>
        <time>2019-05-29T16:16:46Z</time>
      </trkpt>
      <trkpt lat="49.37027" lon="4.06706">
        <ele>123</ele>
        <time>2019-05-29T16:16:47Z</time>
      </trkpt>
      <trkpt lat="49.37036" lon="4.06704">
        <ele>122</ele>
        <time>2019-05-29T16:16:48Z</time>
      </trkpt>
      <trkpt lat="49.37045" lon="4.06701">
        <ele>122</ele>
        <time>2019-05-29T16:16:49Z</time>
      </trkpt>
      <trkpt lat="49.37054" lon="4.06698">
        <ele>122</ele>
        <time>2019-05-29T16:16:50Z</time>
      </trkpt>
      <trkpt lat="49.37063" lon="4.06695">
        <ele>122</ele>
        <time>2019-05-29T16:16:51Z</time>
      </trkpt>
      <trkpt lat="49.37072" lon="4.06692">
        <ele>121</ele>
        <time>2019-05-29T16:16:52Z</time>
      </trkpt>
      <trkpt lat="49.37081" lon="4.06688">
        <ele>121</ele>
        <time>2019-05-29T16:16:53Z</time>
      </trkpt>
      <trkpt lat="49.3709" lon="4.06683">
        <ele>121</ele>
        <time>2019-05-29T16:16:54Z</time>
      </trkpt>
      <trkpt lat="49.37099" lon="4.06679">
        <ele>121</ele>
        <time>2019-05-29T16:16:55Z</time>
      </trkpt>
      <trkpt lat="49.37107" lon="4.06674">
        <ele>121</ele>
        <time>2019-05-29T16:16:56Z</time>
      </trkpt>
      <trkpt lat="49.37116" lon="4.06669">
        <ele>121</ele>
        <time>2019-05-29T16:16:57Z</time>
      </trkpt>
      <trkpt lat="49.37124" lon="4.06665">
        <ele>121</ele>
        <time>2019-05-29T16:16:58Z</time>
      </trkpt>
      <trkpt lat="49.37132" lon="4.0666">
        <ele>121</ele>
        <time>2019-05-29T16:16:59Z</time>
      </trkpt>
      <trkpt lat="49.3714" lon="4.06655">
        <ele>121</ele>
        <time>2019-05-29T16:17:00Z</time>
      </trkpt>
      <trkpt lat="49.37148" lon="4.0665">
        <ele>121</ele>
        <time>2019-05-29T16:17:01Z</time>
      </trkpt>
      <trkpt lat="49.37156" lon="4.06645">
        <ele>120</ele>
        <time>2019-05-29T16:17:02Z</time>
      </trkpt>
      <trkpt lat="49.37165" lon="4.0664">
        <ele>121</ele>
        <time>2019-05-29T16:17:03Z</time>
      </trkpt>
      <trkpt lat="49.37173" lon="4.06634">
        <ele>121</ele>
        <time>2019-05-29T16:17:04Z</time>
      </trkpt>
      <trkpt lat="49.37181" lon="4.06629">
        <ele>121</ele>
        <time>2019-05-29T16:17:05Z</time>
      </trkpt>
      <trkpt lat="49.37188" lon="4.06624">
        <ele>121</ele>
        <time>2019-05-29T16:17:06Z</time>
      </trkpt>
      <trkpt lat="49.37196" lon="4.06618">
        <ele>121</ele>
        <time>2019-05-29T16:17:07Z</time>
      </trkpt>
      <trkpt lat="49.37203" lon="4.06612">
        <ele>121</ele>
        <time>2019-05-29T16:17:08Z</time>
      </trkpt>
      <trkpt lat="49.3721" lon="4.06607">
        <ele>122</ele>
        <time>2019-05-29T16:17:09Z</time>
      </trkpt>
      <trkpt lat="49.37217" lon="4.06601">
        <ele>122</ele>
        <time>2019-05-29T16:17:10Z</time>
      </trkpt>
      <trkpt lat="49.37223" lon="4.06595">
        <ele>122</ele>
        <time>2019-05-29T16:17:11Z</time>
      </trkpt>
      <trkpt lat="49.3723" lon="4.06589">
        <ele>122</ele>
        <time>2019-05-29T16:17:12Z</time>
      </trkpt>
      <trkpt lat="49.37237" lon="4.06584">
        <ele>122</ele>
        <time>2019-05-29T16:17:13Z</time>
      </trkpt>
      <trkpt lat="49.37244" lon="4.06578">
        <ele>122</ele>
        <time>2019-05-29T16:17:14Z</time>
      </trkpt>
      <trkpt lat="49.37251" lon="4.06572">
        <ele>122</ele>
        <time>2019-05-29T16:17:15Z</time>
      </trkpt>
      <trkpt lat="49.37258" lon="4.06565">
        <ele>122</ele>
        <time>2019-05-29T16:17:16Z</time>
      </trkpt>
      <trkpt lat="49.37264" lon="4.0656">
        <ele>122</ele>
        <time>2019-05-29T16:17:17Z</time>
      </trkpt>
      <trkpt lat="49.37271" lon="4.06554">
        <ele>122</ele>
        <time>2019-05-29T16:17:18Z</time>
      </trkpt>
      <trkpt lat="49.37278" lon="4.06548">
        <ele>122</ele>
        <time>2019-05-29T16:17:19Z</time>
      </trkpt>
      <trkpt lat="49.37284" lon="4.06541">
        <ele>122</ele>
        <time>2019-05-29T16:17:20Z</time>
      </trkpt>
      <trkpt lat="49.37291" lon="4.06535">
        <ele>122</ele>
        <time>2019-05-29T16:17:21Z</time>
      </trkpt>
      <trkpt lat="49.37298" lon="4.06529">
        <ele>122</ele>
        <time>2019-05-29T16:17:22Z</time>
      </trkpt>
      <trkpt lat="49.37305" lon="4.06524">
        <ele>122</ele>
        <time>2019-05-29T16:17:23Z</time>
      </trkpt>
      <trkpt lat="49.37312" lon="4.06517">
        <ele>122</ele>
        <time>2019-05-29T16:17:24Z</time>
      </trkpt>
      <trkpt lat="49.37319" lon="4.06511">
        <ele>121</ele>
        <time>2019-05-29T16:17:25Z</time>
      </trkpt>
      <trkpt lat="49.37326" lon="4.06504">
        <ele>121</ele>
        <time>2019-05-29T16:17:26Z</time>
      </trkpt>
      <trkpt lat="49.37333" lon="4.06498">
        <ele>121</ele>
        <time>2019-05-29T16:17:27Z</time>
      </trkpt>
      <trkpt lat="49.37341" lon="4.06491">
        <ele>120</ele>
        <time>2019-05-29T16:17:28Z</time>
      </trkpt>
      <trkpt lat="49.37349" lon="4.06484">
        <ele>120</ele>
        <time>2019-05-29T16:17:29Z</time>
      </trkpt>
      <trkpt lat="49.37356" lon="4.06478">
        <ele>120</ele>
        <time>2019-05-29T16:17:30Z</time>
      </trkpt>
      <trkpt lat="49.37364" lon="4.06471">
        <ele>120</ele>
        <time>2019-05-29T16:17:31Z</time>
      </trkpt>
      <trkpt lat="49.37372" lon="4.06464">
        <ele>119</ele>
        <time>2019-05-29T16:17:32Z</time>
      </trkpt>
      <trkpt lat="49.3738" lon="4.06456">
        <ele>119</ele>
        <time>2019-05-29T16:17:33Z</time>
      </trkpt>
      <trkpt lat="49.37389" lon="4.06449">
        <ele>119</ele>
        <time>2019-05-29T16:17:34Z</time>
      </trkpt>
      <trkpt lat="49.37397" lon="4.06442">
        <ele>119</ele>
        <time>2019-05-29T16:17:35Z</time>
      </trkpt>
      <trkpt lat="49.37405" lon="4.06435">
        <ele>118</ele>
        <time>2019-05-29T16:17:36Z</time>
      </trkpt>
      <trkpt lat="49.37413" lon="4.06427">
        <ele>118</ele>
        <time>2019-05-29T16:17:37Z</time>
      </trkpt>
      <trkpt lat="49.37422" lon="4.06419">
        <ele>118</ele>
        <time>2019-05-29T16:17:38Z</time>
      </trkpt>
      <trkpt lat="49.3743" lon="4.06412">
        <ele>118</ele>
        <time>2019-05-29T16:17:39Z</time>
      </trkpt>
      <trkpt lat="49.37439" lon="4.06404">
        <ele>117</ele>
        <time>2019-05-29T16:17:40Z</time>
      </trkpt>
      <trkpt lat="49.37448" lon="4.06396">
        <ele>117</ele>
        <time>2019-05-29T16:17:41Z</time>
      </trkpt>
      <trkpt lat="49.37456" lon="4.06388">
        <ele>117</ele>
        <time>2019-05-29T16:17:42Z</time>
      </trkpt>
      <trkpt lat="49.37464" lon="4.06381">
        <ele>116</ele>
        <time>2019-05-29T16:17:43Z</time>
      </trkpt>
      <trkpt lat="49.37472" lon="4.06374">
        <ele>116</ele>
        <time>2019-05-29T16:17:44Z</time>
      </trkpt>
      <trkpt lat="49.3748" lon="4.06367">
        <ele>115</ele>
        <time>2019-05-29T16:17:45Z</time>
      </trkpt>
      <trkpt lat="49.37489" lon="4.0636">
        <ele>115</ele>
        <time>2019-05-29T16:17:46Z</time>
      </trkpt>
      <trkpt lat="49.37497" lon="4.06353">
        <ele>115</ele>
        <time>2019-05-29T16:17:47Z</time>
      </trkpt>
      <trkpt lat="49.37505" lon="4.06345">
        <ele>115</ele>
        <time>2019-05-29T16:17:48Z</time>
      </trkpt>
      <trkpt lat="49.37513" lon="4.06338">
        <ele>115</ele>
        <time>2019-05-29T16:17:49Z</time>
      </trkpt>
      <trkpt lat="49.37521" lon="4.0633">
        <ele>115</ele>
        <time>2019-05-29T16:17:50Z</time>
      </trkpt>
      <trkpt lat="49.37529" lon="4.06323">
        <ele>115</ele>
        <time>2019-05-29T16:17:51Z</time>
      </trkpt>
      <trkpt lat="49.37537" lon="4.06317">
        <ele>114</ele>
        <time>2019-05-29T16:17:52Z</time>
      </trkpt>
      <trkpt lat="49.37545" lon="4.0631">
        <ele>114</ele>
        <time>2019-05-29T16:17:53Z</time>
      </trkpt>
      <trkpt lat="49.37553" lon="4.06303">
        <ele>114</ele>
        <time>2019-05-29T16:17:54Z</time>
      </trkpt>
      <trkpt lat="49.37561" lon="4.06296">
        <ele>113</ele>
        <time>2019-05-29T16:17:55Z</time>
      </trkpt>
      <trkpt lat="49.37569" lon="4.06289">
        <ele>113</ele>
        <time>2019-05-29T16:17:56Z</time>
      </trkpt>
      <trkpt lat="49.37577" lon="4.06282">
        <ele>113</ele>
        <time>2019-05-29T16:17:57Z</time>
      </trkpt>
      <trkpt lat="49.37585" lon="4.06276">
        <ele>113</ele>
        <time>2019-05-29T16:17:58Z</time>
      </trkpt>
      <trkpt lat="49.37593" lon="4.0627">
        <ele>112</ele>
        <time>2019-05-29T16:17:59Z</time>
      </trkpt>
      <trkpt lat="49.376" lon="4.06262">
        <ele>112</ele>
        <time>2019-05-29T16:18:00Z</time>
      </trkpt>
      <trkpt lat="49.37608" lon="4.06255">
        <ele>111</ele>
        <time>2019-05-29T16:18:01Z</time>
      </trkpt>
      <trkpt lat="49.37615" lon="4.06248">
        <ele>111</ele>
        <time>2019-05-29T16:18:02Z</time>
      </trkpt>
      <trkpt lat="49.37623" lon="4.06241">
        <ele>111</ele>
        <time>2019-05-29T16:18:03Z</time>
      </trkpt>
      <trkpt lat="49.3763" lon="4.06235">
        <ele>111</ele>
        <time>2019-05-29T16:18:04Z</time>
      </trkpt>
      <trkpt lat="49.37638" lon="4.06228">
        <ele>111</ele>
        <time>2019-05-29T16:18:05Z</time>
      </trkpt>
      <trkpt lat="49.37645" lon="4.06221">
        <ele>111</ele>
        <time>2019-05-29T16:18:06Z</time>
      </trkpt>
      <trkpt lat="49.37652" lon="4.06212">
        <ele>111</ele>
        <time>2019-05-29T16:18:07Z</time>
      </trkpt>
      <trkpt lat="49.37657" lon="4.06202">
        <ele>110</ele>
        <time>2019-05-29T16:18:08Z</time>
      </trkpt>
      <trkpt lat="49.37661" lon="4.06192">
        <ele>110</ele>
        <time>2019-05-29T16:18:09Z</time>
      </trkpt>
      <trkpt lat="49.37665" lon="4.06181">
        <ele>110</ele>
        <time>2019-05-29T16:18:10Z</time>
      </trkpt>
      <trkpt lat="49.37668" lon="4.0617">
        <ele>110</ele>
        <time>2019-05-29T16:18:11Z</time>
      </trkpt>
      <trkpt lat="49.37671" lon="4.06159">
        <ele>110</ele>
        <time>2019-05-29T16:18:12Z</time>
      </trkpt>
      <trkpt lat="49.37674" lon="4.06148">
        <ele>110</ele>
        <time>2019-05-29T16:18:13Z</time>
      </trkpt>
      <trkpt lat="49.37677" lon="4.06137">
        <ele>110</ele>
        <time>2019-05-29T16:18:14Z</time>
      </trkpt>
      <trkpt lat="49.3768" lon="4.06127">
        <ele>110</ele>
        <time>2019-05-29T16:18:15Z</time>
      </trkpt>
      <trkpt lat="49.37684" lon="4.06116">
        <ele>110</ele>
        <time>2019-05-29T16:18:16Z</time>
      </trkpt>
      <trkpt lat="49.37688" lon="4.06106">
        <ele>110</ele>
        <time>2019-05-29T16:18:17Z</time>
      </trkpt>
      <trkpt lat="49.37692" lon="4.06096">
        <ele>109</ele>
        <time>2019-05-29T16:18:18Z</time>
      </trkpt>
      <trkpt lat="49.37697" lon="4.06087">
        <ele>110</ele>
        <time>2019-05-29T16:18:19Z</time>
      </trkpt>
      <trkpt lat="49.37701" lon="4.06078">
        <ele>109</ele>
        <time>2019-05-29T16:18:20Z</time>
      </trkpt>
      <trkpt lat="49.37704" lon="4.0607">
        <ele>110</ele>
        <time>2019-05-29T16:18:21Z</time>
      </trkpt>
      <trkpt lat="49.37707" lon="4.06063">
        <ele>110</ele>
        <time>2019-05-29T16:18:22Z</time>
      </trkpt>
      <trkpt lat="49.37711" lon="4.06056">
        <ele>110</ele>
        <time>2019-05-29T16:18:23Z</time>
      </trkpt>
      <trkpt lat="49.37715" lon="4.06048">
        <ele>109</ele>
        <time>2019-05-29T16:18:24Z</time>
      </trkpt>
      <trkpt lat="49.37718" lon="4.06039">
        <ele>110</ele>
        <time>2019-05-29T16:18:25Z</time>
      </trkpt>
      <trkpt lat="49.37723" lon="4.06029">
        <ele>110</ele>
        <time>2019-05-29T16:18:26Z</time>
      </trkpt>
      <trkpt lat="49.37727" lon="4.0602">
        <ele>110</ele>
        <time>2019-05-29T16:18:27Z</time>
      </trkpt>
      <trkpt lat="49.37732" lon="4.0601">
        <ele>110</ele>
        <time>2019-05-29T16:18:28Z</time>
      </trkpt>
      <trkpt lat="49.37736" lon="4.06">
        <ele>110</ele>
        <time>2019-05-29T16:18:29Z</time>
      </trkpt>
      <trkpt lat="49.3774" lon="4.0599">
        <ele>110</ele>
        <time>2019-05-29T16:18:30Z</time>
      </trkpt>
      <trkpt lat="49.37745" lon="4.05981">
        <ele>110</ele>
        <time>2019-05-29T16:18:31Z</time>
      </trkpt>
      <trkpt lat="49.37749" lon="4.05972">
        <ele>110</ele>
        <time>2019-05-29T16:18:32Z</time>
      </trkpt>
      <trkpt lat="49.37753" lon="4.05964">
        <ele>110</ele>
        <time>2019-05-29T16:18:33Z</time>
      </trkpt>
      <trkpt lat="49.37757" lon="4.05957">
        <ele>110</ele>
        <time>2019-05-29T16:18:34Z</time>
      </trkpt>
      <trkpt lat="49.37761" lon="4.05951">
        <ele>110</ele>
        <time>2019-05-29T16:18:35Z</time>
      </trkpt>
      <trkpt lat="49.37765" lon="4.05945">
        <ele>110</ele>
        <time>2019-05-29T16:18:36Z</time>
      </trkpt>
      <trkpt lat="49.37768" lon="4.05938">
        <ele>110</ele>
        <time>2019-05-29T16:18:37Z</time>
      </trkpt>
      <trkpt lat="49.37771" lon="4.05932">
        <ele>110</ele>
        <time>2019-05-29T16:18:38Z</time>
      </trkpt>
      <trkpt lat="49.37774" lon="4.05925">
        <ele>110</ele>
        <time>2019-05-29T16:18:39Z</time>
      </trkpt>
      <trkpt lat="49.37777" lon="4.05919">
        <ele>110</ele>
        <time>2019-05-29T16:18:40Z</time>
      </trkpt>
      <trkpt lat="49.3778" lon="4.05911">
        <ele>110</ele>
        <time>2019-05-29T16:18:41Z</time>
      </trkpt>
      <trkpt lat="49.37782" lon="4.05904">
        <ele>110</ele>
        <time>2019-05-29T16:18:42Z</time>
      </trkpt>
      <trkpt lat="49.37784" lon="4.05896">
        <ele>110</ele>
        <time>2019-05-29T16:18:43Z</time>
      </trkpt>
      <trkpt lat="49.37785" lon="4.05889">
        <ele>110</ele>
        <time>2019-05-29T16:18:44Z</time>
      </trkpt>
      <trkpt lat="49.37786" lon="4.05881">
        <ele>110</ele>
        <time>2019-05-29T16:18:45Z</time>
      </trkpt>
      <trkpt lat="49.37788" lon="4.05872">
        <ele>110</ele>
        <time>2019-05-29T16:18:46Z</time>
      </trkpt>
      <trkpt lat="49.37789" lon="4.05864">
        <ele>110</ele>
        <time>2019-05-29T16:18:47Z</time>
      </trkpt>
      <trkpt lat="49.37791" lon="4.05855">
        <ele>110</ele>
        <time>2019-05-29T16:18:48Z</time>
      </trkpt>
      <trkpt lat="49.37792" lon="4.05846">
        <ele>109</ele>
        <time>2019-05-29T16:18:49Z</time>
      </trkpt>
      <trkpt lat="49.37793" lon="4.05837">
        <ele>110</ele>
        <time>2019-05-29T16:18:50Z</time>
      </trkpt>
      <trkpt lat="49.37794" lon="4.05828">
        <ele>110</ele>
        <time>2019-05-29T16:18:51Z</time>
      </trkpt>
      <trkpt lat="49.37796" lon="4.05809">
        <ele>110</ele>
        <time>2019-05-29T16:18:53Z</time>
      </trkpt>
      <trkpt lat="49.37796" lon="4.058">
        <ele>111</ele>
        <time>2019-05-29T16:18:54Z</time>
      </trkpt>
      <trkpt lat="49.37797" lon="4.05791">
        <ele>110</ele>
        <time>2019-05-29T16:18:55Z</time>
      </trkpt>
      <trkpt lat="49.37799" lon="4.05782">
        <ele>110</ele>
        <time>2019-05-29T16:18:56Z</time>
      </trkpt>
      <trkpt lat="49.378" lon="4.05773">
        <ele>110</ele>
        <time>2019-05-29T16:18:57Z</time>
      </trkpt>
      <trkpt lat="49.37801" lon="4.05764">
        <ele>110</ele>
        <time>2019-05-29T16:18:58Z</time>
      </trkpt>
      <trkpt lat="49.37802" lon="4.05756">
        <ele>110</ele>
        <time>2019-05-29T16:18:59Z</time>
      </trkpt>
      <trkpt lat="49.37804" lon="4.05748">
        <ele>110</ele>
        <time>2019-05-29T16:19:00Z</time>
      </trkpt>
      <trkpt lat="49.37805" lon="4.0574">
        <ele>110</ele>
        <time>2019-05-29T16:19:01Z</time>
      </trkpt>
      <trkpt lat="49.37807" lon="4.05733">
        <ele>110</ele>
        <time>2019-05-29T16:19:02Z</time>
      </trkpt>
      <trkpt lat="49.37808" lon="4.05725">
        <ele>110</ele>
        <time>2019-05-29T16:19:03Z</time>
      </trkpt>
      <trkpt lat="49.3781" lon="4.05717">
        <ele>110</ele>
        <time>2019-05-29T16:19:04Z</time>
      </trkpt>
      <trkpt lat="49.37811" lon="4.05707">
        <ele>110</ele>
        <time>2019-05-29T16:19:05Z</time>
      </trkpt>
      <trkpt lat="49.37815" lon="4.05687">
        <ele>110</ele>
        <time>2019-05-29T16:19:07Z</time>
      </trkpt>
      <trkpt lat="49.37817" lon="4.05677">
        <ele>110</ele>
        <time>2019-05-29T16:19:08Z</time>
      </trkpt>
      <trkpt lat="49.37819" lon="4.05667">
        <ele>110</ele>
        <time>2019-05-29T16:19:09Z</time>
      </trkpt>
      <trkpt lat="49.37821" lon="4.05656">
        <ele>110</ele>
        <time>2019-05-29T16:19:10Z</time>
      </trkpt>
      <trkpt lat="49.37823" lon="4.05646">
        <ele>110</ele>
        <time>2019-05-29T16:19:11Z</time>
      </trkpt>
      <trkpt lat="49.37824" lon="4.05635">
        <ele>110</ele>
        <time>2019-05-29T16:19:12Z</time>
      </trkpt>
      <trkpt lat="49.37823" lon="4.05625">
        <ele>109</ele>
        <time>2019-05-29T16:19:13Z</time>
      </trkpt>
      <trkpt lat="49.37822" lon="4.05614">
        <ele>110</ele>
        <time>2019-05-29T16:19:14Z</time>
      </trkpt>
      <trkpt lat="49.3782" lon="4.05603">
        <ele>110</ele>
        <time>2019-05-29T16:19:15Z</time>
      </trkpt>
      <trkpt lat="49.37818" lon="4.05592">
        <ele>110</ele>
        <time>2019-05-29T16:19:16Z</time>
      </trkpt>
      <trkpt lat="49.37816" lon="4.05582">
        <ele>110</ele>
        <time>2019-05-29T16:19:17Z</time>
      </trkpt>
      <trkpt lat="49.37813" lon="4.05572">
        <ele>110</ele>
        <time>2019-05-29T16:19:18Z</time>
      </trkpt>
      <trkpt lat="49.37811" lon="4.05562">
        <ele>111</ele>
        <time>2019-05-29T16:19:19Z</time>
      </trkpt>
      <trkpt lat="49.37808" lon="4.05552">
        <ele>111</ele>
        <time>2019-05-29T16:19:20Z</time>
      </trkpt>
      <trkpt lat="49.37806" lon="4.05542">
        <ele>111</ele>
        <time>2019-05-29T16:19:21Z</time>
      </trkpt>
      <trkpt lat="49.37804" lon="4.05533">
        <ele>111</ele>
        <time>2019-05-29T16:19:22Z</time>
      </trkpt>
      <trkpt lat="49.37802" lon="4.05523">
        <ele>111</ele>
        <time>2019-05-29T16:19:23Z</time>
      </trkpt>
      <trkpt lat="49.37801" lon="4.05513">
        <ele>111</ele>
        <time>2019-05-29T16:19:24Z</time>
      </trkpt>
      <trkpt lat="49.37799" lon="4.05502">
        <ele>111</ele>
        <time>2019-05-29T16:19:25Z</time>
      </trkpt>
      <trkpt lat="49.37798" lon="4.05492">
        <ele>112</ele>
        <time>2019-05-29T16:19:26Z</time>
      </trkpt>
      <trkpt lat="49.37797" lon="4.05482">
        <ele>112</ele>
        <time>2019-05-29T16:19:27Z</time>
      </trkpt>
      <trkpt lat="49.37797" lon="4.05472">
        <ele>112</ele>
        <time>2019-05-29T16:19:28Z</time>
      </trkpt>
      <trkpt lat="49.37798" lon="4.05462">
        <ele>112</ele>
        <time>2019-05-29T16:19:29Z</time>
      </trkpt>
      <trkpt lat="49.37799" lon="4.05452">
        <ele>112</ele>
        <time>2019-05-29T16:19:30Z</time>
      </trkpt>
      <trkpt lat="49.37801" lon="4.05441">
        <ele>111</ele>
        <time>2019-05-29T16:19:31Z</time>
      </trkpt>
      <trkpt lat="49.37802" lon="4.05431">
        <ele>111</ele>
        <time>2019-05-29T16:19:32Z</time>
      </trkpt>
      <trkpt lat="49.37804" lon="4.05421">
        <ele>111</ele>
        <time>2019-05-29T16:19:33Z</time>
      </trkpt>
      <trkpt lat="49.37806" lon="4.05411">
        <ele>111</ele>
        <time>2019-05-29T16:19:34Z</time>
      </trkpt>
      <trkpt lat="49.37807" lon="4.054">
        <ele>112</ele>
        <time>2019-05-29T16:19:35Z</time>
      </trkpt>
      <trkpt lat="49.37809" lon="4.0539">
        <ele>112</ele>
        <time>2019-05-29T16:19:36Z</time>
      </trkpt>
      <trkpt lat="49.37811" lon="4.0538">
        <ele>112</ele>
        <time>2019-05-29T16:19:37Z</time>
      </trkpt>
      <trkpt lat="49.37813" lon="4.05369">
        <ele>112</ele>
        <time>2019-05-29T16:19:38Z</time>
      </trkpt>
      <trkpt lat="49.37815" lon="4.05359">
        <ele>112</ele>
        <time>2019-05-29T16:19:39Z</time>
      </trkpt>
      <trkpt lat="49.37816" lon="4.05348">
        <ele>112</ele>
        <time>2019-05-29T16:19:40Z</time>
      </trkpt>
      <trkpt lat="49.37818" lon="4.05337">
        <ele>112</ele>
        <time>2019-05-29T16:19:41Z</time>
      </trkpt>
      <trkpt lat="49.3782" lon="4.05327">
        <ele>112</ele>
        <time>2019-05-29T16:19:42Z</time>
      </trkpt>
      <trkpt lat="49.37821" lon="4.05317">
        <ele>113</ele>
        <time>2019-05-29T16:19:43Z</time>
      </trkpt>
      <trkpt lat="49.37823" lon="4.05308">
        <ele>113</ele>
        <time>2019-05-29T16:19:44Z</time>
      </trkpt>
      <trkpt lat="49.37825" lon="4.05298">
        <ele>113</ele>
        <time>2019-05-29T16:19:45Z</time>
      </trkpt>
      <trkpt lat="49.37826" lon="4.05288">
        <ele>113</ele>
        <time>2019-05-29T16:19:46Z</time>
      </trkpt>
      <trkpt lat="49.37828" lon="4.05279">
        <ele>113</ele>
        <time>2019-05-29T16:19:47Z</time>
      </trkpt>
      <trkpt lat="49.37831" lon="4.05269">
        <ele>113</ele>
        <time>2019-05-29T16:19:48Z</time>
      </trkpt>
      <trkpt lat="49.37834" lon="4.0526">
        <ele>113</ele>
        <time>2019-05-29T16:19:49Z</time>
      </trkpt>
      <trkpt lat="49.37837" lon="4.05251">
        <ele>113</ele>
        <time>2019-05-29T16:19:50Z</time>
      </trkpt>
      <trkpt lat="49.3784" lon="4.05242">
        <ele>113</ele>
        <time>2019-05-29T16:19:51Z</time>
      </trkpt>
      <trkpt lat="49.37844" lon="4.05233">
        <ele>113</ele>
        <time>2019-05-29T16:19:52Z</time>
      </trkpt>
      <trkpt lat="49.37848" lon="4.05225">
        <ele>113</ele>
        <time>2019-05-29T16:19:53Z</time>
      </trkpt>
      <trkpt lat="49.37852" lon="4.05216">
        <ele>113</ele>
        <time>2019-05-29T16:19:54Z</time>
      </trkpt>
      <trkpt lat="49.37857" lon="4.05207">
        <ele>113</ele>
        <time>2019-05-29T16:19:55Z</time>
      </trkpt>
      <trkpt lat="49.37861" lon="4.05199">
        <ele>113</ele>
        <time>2019-05-29T16:19:56Z</time>
      </trkpt>
      <trkpt lat="49.37865" lon="4.05191">
        <ele>113</ele>
        <time>2019-05-29T16:19:57Z</time>
      </trkpt>
      <trkpt lat="49.37869" lon="4.05182">
        <ele>113</ele>
        <time>2019-05-29T16:19:58Z</time>
      </trkpt>
      <trkpt lat="49.37874" lon="4.05174">
        <ele>112</ele>
        <time>2019-05-29T16:19:59Z</time>
      </trkpt>
      <trkpt lat="49.37879" lon="4.05165">
        <ele>112</ele>
        <time>2019-05-29T16:20:00Z</time>
      </trkpt>
      <trkpt lat="49.37884" lon="4.05156">
        <ele>112</ele>
        <time>2019-05-29T16:20:01Z</time>
      </trkpt>
      <trkpt lat="49.37888" lon="4.05146">
        <ele>112</ele>
        <time>2019-05-29T16:20:02Z</time>
      </trkpt>
      <trkpt lat="49.37893" lon="4.05137">
        <ele>111</ele>
        <time>2019-05-29T16:20:03Z</time>
      </trkpt>
      <trkpt lat="49.37897" lon="4.05127">
        <ele>111</ele>
        <time>2019-05-29T16:20:04Z</time>
      </trkpt>
      <trkpt lat="49.37902" lon="4.05117">
        <ele>111</ele>
        <time>2019-05-29T16:20:05Z</time>
      </trkpt>
      <trkpt lat="49.37906" lon="4.05107">
        <ele>111</ele>
        <time>2019-05-29T16:20:06Z</time>
      </trkpt>
      <trkpt lat="49.3791" lon="4.05097">
        <ele>111</ele>
        <time>2019-05-29T16:20:07Z</time>
      </trkpt>
      <trkpt lat="49.37915" lon="4.05087">
        <ele>110</ele>
        <time>2019-05-29T16:20:08Z</time>
      </trkpt>
      <trkpt lat="49.37919" lon="4.05077">
        <ele>110</ele>
        <time>2019-05-29T16:20:09Z</time>
      </trkpt>
      <trkpt lat="49.37923" lon="4.05067">
        <ele>110</ele>
        <time>2019-05-29T16:20:10Z</time>
      </trkpt>
      <trkpt lat="49.37927" lon="4.05056">
        <ele>110</ele>
        <time>2019-05-29T16:20:11Z</time>
      </trkpt>
      <trkpt lat="49.37931" lon="4.05046">
        <ele>110</ele>
        <time>2019-05-29T16:20:12Z</time>
      </trkpt>
      <trkpt lat="49.37935" lon="4.05035">
        <ele>110</ele>
        <time>2019-05-29T16:20:13Z</time>
      </trkpt>
      <trkpt lat="49.37938" lon="4.05025">
        <ele>110</ele>
        <time>2019-05-29T16:20:14Z</time>
      </trkpt>
      <trkpt lat="49.37942" lon="4.05013">
        <ele>109</ele>
        <time>2019-05-29T16:20:15Z</time>
      </trkpt>
      <trkpt lat="49.37945" lon="4.05003">
        <ele>109</ele>
        <time>2019-05-29T16:20:16Z</time>
      </trkpt>
      <trkpt lat="49.37949" lon="4.04992">
        <ele>109</ele>
        <time>2019-05-29T16:20:17Z</time>
      </trkpt>
      <trkpt lat="49.37952" lon="4.0498">
        <ele>109</ele>
        <time>2019-05-29T16:20:18Z</time>
      </trkpt>
      <trkpt lat="49.37955" lon="4.04969">
        <ele>109</ele>
        <time>2019-05-29T16:20:19Z</time>
      </trkpt>
      <trkpt lat="49.37958" lon="4.04958">
        <ele>109</ele>
        <time>2019-05-29T16:20:20Z</time>
      </trkpt>
      <trkpt lat="49.3796" lon="4.04947">
        <ele>109</ele>
        <time>2019-05-29T16:20:21Z</time>
      </trkpt>
      <trkpt lat="49.37963" lon="4.04935">
        <ele>109</ele>
        <time>2019-05-29T16:20:22Z</time>
      </trkpt>
      <trkpt lat="49.37966" lon="4.04924">
        <ele>108</ele>
        <time>2019-05-29T16:20:23Z</time>
      </trkpt>
      <trkpt lat="49.37968" lon="4.04912">
        <ele>108</ele>
        <time>2019-05-29T16:20:24Z</time>
      </trkpt>
      <trkpt lat="49.37971" lon="4.04901">
        <ele>109</ele>
        <time>2019-05-29T16:20:25Z</time>
      </trkpt>
      <trkpt lat="49.37973" lon="4.04889">
        <ele>109</ele>
        <time>2019-05-29T16:20:26Z</time>
      </trkpt>
      <trkpt lat="49.37976" lon="4.04878">
        <ele>109</ele>
        <time>2019-05-29T16:20:27Z</time>
      </trkpt>
      <trkpt lat="49.37978" lon="4.04867">
        <ele>108</ele>
        <time>2019-05-29T16:20:28Z</time>
      </trkpt>
      <trkpt lat="49.37981" lon="4.04855">
        <ele>108</ele>
        <time>2019-05-29T16:20:29Z</time>
      </trkpt>
      <trkpt lat="49.37983" lon="4.04844">
        <ele>108</ele>
        <time>2019-05-29T16:20:30Z</time>
      </trkpt>
      <trkpt lat="49.37986" lon="4.04832">
        <ele>108</ele>
        <time>2019-05-29T16:20:31Z</time>
      </trkpt>
      <trkpt lat="49.37988" lon="4.0482">
        <ele>108</ele>
        <time>2019-05-29T16:20:32Z</time>
      </trkpt>
      <trkpt lat="49.3799" lon="4.04809">
        <ele>109</ele>
        <time>2019-05-29T16:20:33Z</time>
      </trkpt>
      <trkpt lat="49.37992" lon="4.04797">
        <ele>108</ele>
        <time>2019-05-29T16:20:34Z</time>
      </trkpt>
      <trkpt lat="49.37994" lon="4.04785">
        <ele>108</ele>
        <time>2019-05-29T16:20:35Z</time>
      </trkpt>
      <trkpt lat="49.37996" lon="4.04774">
        <ele>108</ele>
        <time>2019-05-29T16:20:36Z</time>
      </trkpt>
      <trkpt lat="49.37998" lon="4.04762">
        <ele>108</ele>
        <time>2019-05-29T16:20:37Z</time>
      </trkpt>
      <trkpt lat="49.38001" lon="4.0475">
        <ele>108</ele>
        <time>2019-05-29T16:20:38Z</time>
      </trkpt>
      <trkpt lat="49.38003" lon="4.04738">
        <ele>108</ele>
        <time>2019-05-29T16:20:39Z</time>
      </trkpt>
      <trkpt lat="49.38005" lon="4.04726">
        <ele>108</ele>
        <time>2019-05-29T16:20:40Z</time>
      </trkpt>
      <trkpt lat="49.38006" lon="4.04714">
        <ele>108</ele>
        <time>2019-05-29T16:20:41Z</time>
      </trkpt>
      <trkpt lat="49.38009" lon="4.04702">
        <ele>108</ele>
        <time>2019-05-29T16:20:42Z</time>
      </trkpt>
      <trkpt lat="49.38011" lon="4.04691">
        <ele>108</ele>
        <time>2019-05-29T16:20:43Z</time>
      </trkpt>
      <trkpt lat="49.38013" lon="4.04679">
        <ele>108</ele>
        <time>2019-05-29T16:20:44Z</time>
      </trkpt>
      <trkpt lat="49.38015" lon="4.04668">
        <ele>108</ele>
        <time>2019-05-29T16:20:45Z</time>
      </trkpt>
      <trkpt lat="49.38017" lon="4.04657">
        <ele>108</ele>
        <time>2019-05-29T16:20:46Z</time>
      </trkpt>
      <trkpt lat="49.3802" lon="4.04646">
        <ele>107</ele>
        <time>2019-05-29T16:20:47Z</time>
      </trkpt>
      <trkpt lat="49.38022" lon="4.04634">
        <ele>108</ele>
        <time>2019-05-29T16:20:48Z</time>
      </trkpt>
      <trkpt lat="49.38024" lon="4.04622">
        <ele>107</ele>
        <time>2019-05-29T16:20:49Z</time>
      </trkpt>
      <trkpt lat="49.38027" lon="4.0461">
        <ele>107</ele>
        <time>2019-05-29T16:20:50Z</time>
      </trkpt>
      <trkpt lat="49.38028" lon="4.04598">
        <ele>107</ele>
        <time>2019-05-29T16:20:51Z</time>
      </trkpt>
      <trkpt lat="49.3803" lon="4.04586">
        <ele>107</ele>
        <time>2019-05-29T16:20:52Z</time>
      </trkpt>
      <trkpt lat="49.38032" lon="4.04574">
        <ele>107</ele>
        <time>2019-05-29T16:20:53Z</time>
      </trkpt>
      <trkpt lat="49.38033" lon="4.04561">
        <ele>107</ele>
        <time>2019-05-29T16:20:54Z</time>
      </trkpt>
      <trkpt lat="49.38035" lon="4.04549">
        <ele>107</ele>
        <time>2019-05-29T16:20:55Z</time>
      </trkpt>
      <trkpt lat="49.38035" lon="4.04537">
        <ele>107</ele>
        <time>2019-05-29T16:20:56Z</time>
      </trkpt>
      <trkpt lat="49.38036" lon="4.04525">
        <ele>107</ele>
        <time>2019-05-29T16:20:57Z</time>
      </trkpt>
      <trkpt lat="49.38036" lon="4.04512">
        <ele>107</ele>
        <time>2019-05-29T16:20:58Z</time>
      </trkpt>
      <trkpt lat="49.38036" lon="4.045">
        <ele>107</ele>
        <time>2019-05-29T16:20:59Z</time>
      </trkpt>
      <trkpt lat="49.38035" lon="4.04488">
        <ele>107</ele>
        <time>2019-05-29T16:21:00Z</time>
      </trkpt>
      <trkpt lat="49.38035" lon="4.04476">
        <ele>107</ele>
        <time>2019-05-29T16:21:01Z</time>
      </trkpt>
      <trkpt lat="49.38034" lon="4.04465">
        <ele>107</ele>
        <time>2019-05-29T16:21:02Z</time>
      </trkpt>
      <trkpt lat="49.38033" lon="4.04453">
        <ele>107</ele>
        <time>2019-05-29T16:21:03Z</time>
      </trkpt>
      <trkpt lat="49.38032" lon="4.04441">
        <ele>107</ele>
        <time>2019-05-29T16:21:04Z</time>
      </trkpt>
      <trkpt lat="49.38031" lon="4.04429">
        <ele>107</ele>
        <time>2019-05-29T16:21:05Z</time>
      </trkpt>
      <trkpt lat="49.38029" lon="4.04418">
        <ele>107</ele>
        <time>2019-05-29T16:21:06Z</time>
      </trkpt>
      <trkpt lat="49.38028" lon="4.04407">
        <ele>107</ele>
        <time>2019-05-29T16:21:07Z</time>
      </trkpt>
      <trkpt lat="49.38026" lon="4.04397">
        <ele>107</ele>
        <time>2019-05-29T16:21:08Z</time>
      </trkpt>
      <trkpt lat="49.38025" lon="4.04386">
        <ele>107</ele>
        <time>2019-05-29T16:21:09Z</time>
      </trkpt>
      <trkpt lat="49.38023" lon="4.04374">
        <ele>107</ele>
        <time>2019-05-29T16:21:10Z</time>
      </trkpt>
      <trkpt lat="49.3802" lon="4.04362">
        <ele>107</ele>
        <time>2019-05-29T16:21:11Z</time>
      </trkpt>
      <trkpt lat="49.38018" lon="4.04351">
        <ele>107</ele>
        <time>2019-05-29T16:21:12Z</time>
      </trkpt>
      <trkpt lat="49.38015" lon="4.04339">
        <ele>107</ele>
        <time>2019-05-29T16:21:13Z</time>
      </trkpt>
      <trkpt lat="49.38013" lon="4.04328">
        <ele>107</ele>
        <time>2019-05-29T16:21:14Z</time>
      </trkpt>
      <trkpt lat="49.38011" lon="4.04316">
        <ele>107</ele>
        <time>2019-05-29T16:21:15Z</time>
      </trkpt>
      <trkpt lat="49.3801" lon="4.04303">
        <ele>107</ele>
        <time>2019-05-29T16:21:16Z</time>
      </trkpt>
      <trkpt lat="49.38008" lon="4.04292">
        <ele>107</ele>
        <time>2019-05-29T16:21:17Z</time>
      </trkpt>
      <trkpt lat="49.38007" lon="4.0428">
        <ele>107</ele>
        <time>2019-05-29T16:21:18Z</time>
      </trkpt>
      <trkpt lat="49.38006" lon="4.04269">
        <ele>107</ele>
        <time>2019-05-29T16:21:19Z</time>
      </trkpt>
      <trkpt lat="49.38005" lon="4.04257">
        <ele>107</ele>
        <time>2019-05-29T16:21:20Z</time>
      </trkpt>
      <trkpt lat="49.38004" lon="4.04245">
        <ele>107</ele>
        <time>2019-05-29T16:21:21Z</time>
      </trkpt>
      <trkpt lat="49.38003" lon="4.04233">
        <ele>107</ele>
        <time>2019-05-29T16:21:22Z</time>
      </trkpt>
      <trkpt lat="49.38003" lon="4.04221">
        <ele>107</ele>
        <time>2019-05-29T16:21:23Z</time>
      </trkpt>
      <trkpt lat="49.38003" lon="4.0421">
        <ele>107</ele>
        <time>2019-05-29T16:21:24Z</time>
      </trkpt>
      <trkpt lat="49.38003" lon="4.04198">
        <ele>107</ele>
        <time>2019-05-29T16:21:25Z</time>
      </trkpt>
      <trkpt lat="49.38003" lon="4.04187">
        <ele>107</ele>
        <time>2019-05-29T16:21:26Z</time>
      </trkpt>
      <trkpt lat="49.38003" lon="4.04175">
        <ele>107</ele>
        <time>2019-05-29T16:21:27Z</time>
      </trkpt>
      <trkpt lat="49.38002" lon="4.04164">
        <ele>107</ele>
        <time>2019-05-29T16:21:28Z</time>
      </trkpt>
      <trkpt lat="49.38002" lon="4.04152">
        <ele>107</ele>
        <time>2019-05-29T16:21:29Z</time>
      </trkpt>
      <trkpt lat="49.38001" lon="4.0414">
        <ele>107</ele>
        <time>2019-05-29T16:21:30Z</time>
      </trkpt>
      <trkpt lat="49.38" lon="4.04129">
        <ele>107</ele>
        <time>2019-05-29T16:21:31Z</time>
      </trkpt>
      <trkpt lat="49.37999" lon="4.04117">
        <ele>107</ele>
        <time>2019-05-29T16:21:32Z</time>
      </trkpt>
      <trkpt lat="49.37997" lon="4.04105">
        <ele>107</ele>
        <time>2019-05-29T16:21:33Z</time>
      </trkpt>
      <trkpt lat="49.37995" lon="4.04093">
        <ele>107</ele>
        <time>2019-05-29T16:21:34Z</time>
      </trkpt>
      <trkpt lat="49.37993" lon="4.04082">
        <ele>107</ele>
        <time>2019-05-29T16:21:35Z</time>
      </trkpt>
      <trkpt lat="49.37991" lon="4.0407">
        <ele>107</ele>
        <time>2019-05-29T16:21:36Z</time>
      </trkpt>
      <trkpt lat="49.3799" lon="4.04058">
        <ele>106</ele>
        <time>2019-05-29T16:21:37Z</time>
      </trkpt>
      <trkpt lat="49.37989" lon="4.04046">
        <ele>106</ele>
        <time>2019-05-29T16:21:38Z</time>
      </trkpt>
      <trkpt lat="49.37989" lon="4.04034">
        <ele>106</ele>
        <time>2019-05-29T16:21:39Z</time>
      </trkpt>
      <trkpt lat="49.37989" lon="4.04023">
        <ele>106</ele>
        <time>2019-05-29T16:21:40Z</time>
      </trkpt>
      <trkpt lat="49.37991" lon="4.04011">
        <ele>107</ele>
        <time>2019-05-29T16:21:41Z</time>
      </trkpt>
      <trkpt lat="49.37994" lon="4.03999">
        <ele>107</ele>
        <time>2019-05-29T16:21:42Z</time>
      </trkpt>
      <trkpt lat="49.37997" lon="4.03987">
        <ele>107</ele>
        <time>2019-05-29T16:21:43Z</time>
      </trkpt>
      <trkpt lat="49.38" lon="4.03976">
        <ele>107</ele>
        <time>2019-05-29T16:21:44Z</time>
      </trkpt>
      <trkpt lat="49.38002" lon="4.03965">
        <ele>107</ele>
        <time>2019-05-29T16:21:45Z</time>
      </trkpt>
      <trkpt lat="49.38004" lon="4.03953">
        <ele>107</ele>
        <time>2019-05-29T16:21:46Z</time>
      </trkpt>
      <trkpt lat="49.38006" lon="4.03941">
        <ele>107</ele>
        <time>2019-05-29T16:21:47Z</time>
      </trkpt>
      <trkpt lat="49.38007" lon="4.0393">
        <ele>107</ele>
        <time>2019-05-29T16:21:48Z</time>
      </trkpt>
      <trkpt lat="49.38008" lon="4.03918">
        <ele>107</ele>
        <time>2019-05-29T16:21:49Z</time>
      </trkpt>
      <trkpt lat="49.38008" lon="4.03907">
        <ele>108</ele>
        <time>2019-05-29T16:21:50Z</time>
      </trkpt>
      <trkpt lat="49.38008" lon="4.03895">
        <ele>108</ele>
        <time>2019-05-29T16:21:51Z</time>
      </trkpt>
      <trkpt lat="49.38009" lon="4.03884">
        <ele>108</ele>
        <time>2019-05-29T16:21:52Z</time>
      </trkpt>
      <trkpt lat="49.3801" lon="4.03873">
        <ele>108</ele>
        <time>2019-05-29T16:21:53Z</time>
      </trkpt>
      <trkpt lat="49.38011" lon="4.03862">
        <ele>108</ele>
        <time>2019-05-29T16:21:54Z</time>
      </trkpt>
      <trkpt lat="49.38012" lon="4.03851">
        <ele>108</ele>
        <time>2019-05-29T16:21:55Z</time>
      </trkpt>
      <trkpt lat="49.38012" lon="4.03841">
        <ele>109</ele>
        <time>2019-05-29T16:21:56Z</time>
      </trkpt>
      <trkpt lat="49.38012" lon="4.03832">
        <ele>108</ele>
        <time>2019-05-29T16:21:57Z</time>
      </trkpt>
      <trkpt lat="49.38013" lon="4.03824">
        <ele>109</ele>
        <time>2019-05-29T16:21:58Z</time>
      </trkpt>
      <trkpt lat="49.38013" lon="4.03819">
        <ele>109</ele>
        <time>2019-05-29T16:21:59Z</time>
      </trkpt>
      <trkpt lat="49.38013" lon="4.03815">
        <ele>109</ele>
        <time>2019-05-29T16:22:00Z</time>
      </trkpt>
      <trkpt lat="49.38013" lon="4.03811">
        <ele>109</ele>
        <time>2019-05-29T16:22:01Z</time>
      </trkpt>
      <trkpt lat="49.38013" lon="4.03807">
        <ele>109</ele>
        <time>2019-05-29T16:22:02Z</time>
      </trkpt>
      <trkpt lat="49.38011" lon="4.03801">
        <ele>109</ele>
        <time>2019-05-29T16:22:03Z</time>
      </trkpt>
      <trkpt lat="49.3801" lon="4.03796">
        <ele>109</ele>
        <time>2019-05-29T16:22:04Z</time>
      </trkpt>
      <trkpt lat="49.38011" lon="4.03789">
        <ele>108</ele>
        <time>2019-05-29T16:22:05Z</time>
      </trkpt>
      <trkpt lat="49.38011" lon="4.03782">
        <ele>108</ele>
        <time>2019-05-29T16:22:06Z</time>
      </trkpt>
      <trkpt lat="49.38012" lon="4.03775">
        <ele>108</ele>
        <time>2019-05-29T16:22:07Z</time>
      </trkpt>
      <trkpt lat="49.38012" lon="4.03768">
        <ele>108</ele>
        <time>2019-05-29T16:22:08Z</time>
      </trkpt>
      <trkpt lat="49.38012" lon="4.03762">
        <ele>109</ele>
        <time>2019-05-29T16:22:09Z</time>
      </trkpt>
      <trkpt lat="49.38012" lon="4.03755">
        <ele>109</ele>
        <time>2019-05-29T16:22:10Z</time>
      </trkpt>
      <trkpt lat="49.38012" lon="4.03748">
        <ele>109</ele>
        <time>2019-05-29T16:22:11Z</time>
      </trkpt>
      <trkpt lat="49.38013" lon="4.0374">
        <ele>108</ele>
        <time>2019-05-29T16:22:12Z</time>
      </trkpt>
      <trkpt lat="49.38013" lon="4.03732">
        <ele>108</ele>
        <time>2019-05-29T16:22:13Z</time>
      </trkpt>
      <trkpt lat="49.38014" lon="4.03725">
        <ele>108</ele>
        <time>2019-05-29T16:22:14Z</time>
      </trkpt>
      <trkpt lat="49.38014" lon="4.03717">
        <ele>107</ele>
        <time>2019-05-29T16:22:15Z</time>
      </trkpt>
      <trkpt lat="49.38015" lon="4.0371">
        <ele>107</ele>
        <time>2019-05-29T16:22:16Z</time>
      </trkpt>
      <trkpt lat="49.38015" lon="4.03702">
        <ele>107</ele>
        <time>2019-05-29T16:22:17Z</time>
      </trkpt>
      <trkpt lat="49.38015" lon="4.03694">
        <ele>107</ele>
        <time>2019-05-29T16:22:18Z</time>
      </trkpt>
      <trkpt lat="49.38016" lon="4.03686">
        <ele>107</ele>
        <time>2019-05-29T16:22:19Z</time>
      </trkpt>
      <trkpt lat="49.38016" lon="4.03678">
        <ele>107</ele>
        <time>2019-05-29T16:22:20Z</time>
      </trkpt>
      <trkpt lat="49.38016" lon="4.0367">
        <ele>107</ele>
        <time>2019-05-29T16:22:21Z</time>
      </trkpt>
      <trkpt lat="49.38017" lon="4.03662">
        <ele>107</ele>
        <time>2019-05-29T16:22:22Z</time>
      </trkpt>
      <trkpt lat="49.38017" lon="4.03653">
        <ele>107</ele>
        <time>2019-05-29T16:22:23Z</time>
      </trkpt>
      <trkpt lat="49.38017" lon="4.03644">
        <ele>107</ele>
        <time>2019-05-29T16:22:24Z</time>
      </trkpt>
      <trkpt lat="49.38017" lon="4.03635">
        <ele>107</ele>
        <time>2019-05-29T16:22:25Z</time>
      </trkpt>
      <trkpt lat="49.38018" lon="4.03627">
        <ele>107</ele>
        <time>2019-05-29T16:22:26Z</time>
      </trkpt>
      <trkpt lat="49.38018" lon="4.03618">
        <ele>107</ele>
        <time>2019-05-29T16:22:27Z</time>
      </trkpt>
      <trkpt lat="49.38018" lon="4.0361">
        <ele>107</ele>
        <time>2019-05-29T16:22:28Z</time>
      </trkpt>
      <trkpt lat="49.38018" lon="4.03601">
        <ele>107</ele>
        <time>2019-05-29T16:22:29Z</time>
      </trkpt>
      <trkpt lat="49.38017" lon="4.03591">
        <ele>107</ele>
        <time>2019-05-29T16:22:30Z</time>
      </trkpt>
      <trkpt lat="49.38018" lon="4.0358">
        <ele>107</ele>
        <time>2019-05-29T16:22:31Z</time>
      </trkpt>
      <trkpt lat="49.38017" lon="4.03569">
        <ele>107</ele>
        <time>2019-05-29T16:22:32Z</time>
      </trkpt>
      <trkpt lat="49.38017" lon="4.0356">
        <ele>107</ele>
        <time>2019-05-29T16:22:33Z</time>
      </trkpt>
      <trkpt lat="49.38017" lon="4.03549">
        <ele>107</ele>
        <time>2019-05-29T16:22:34Z</time>
      </trkpt>
      <trkpt lat="49.38017" lon="4.03539">
        <ele>107</ele>
        <time>2019-05-29T16:22:35Z</time>
      </trkpt>
      <trkpt lat="49.38017" lon="4.03528">
        <ele>107</ele>
        <time>2019-05-29T16:22:36Z</time>
      </trkpt>
      <trkpt lat="49.38017" lon="4.03518">
        <ele>107</ele>
        <time>2019-05-29T16:22:37Z</time>
      </trkpt>
      <trkpt lat="49.38017" lon="4.03508">
        <ele>107</ele>
        <time>2019-05-29T16:22:38Z</time>
      </trkpt>
      <trkpt lat="49.38017" lon="4.03498">
        <ele>106</ele>
        <time>2019-05-29T16:22:39Z</time>
      </trkpt>
      <trkpt lat="49.38017" lon="4.03487">
        <ele>106</ele>
        <time>2019-05-29T16:22:40Z</time>
      </trkpt>
      <trkpt lat="49.38017" lon="4.03477">
        <ele>106</ele>
        <time>2019-05-29T16:22:41Z</time>
      </trkpt>
      <trkpt lat="49.38016" lon="4.03466">
        <ele>106</ele>
        <time>2019-05-29T16:22:42Z</time>
      </trkpt>
      <trkpt lat="49.38016" lon="4.03456">
        <ele>106</ele>
        <time>2019-05-29T16:22:43Z</time>
      </trkpt>
      <trkpt lat="49.38016" lon="4.03445">
        <ele>106</ele>
        <time>2019-05-29T16:22:44Z</time>
      </trkpt>
      <trkpt lat="49.38016" lon="4.03435">
        <ele>106</ele>
        <time>2019-05-29T16:22:45Z</time>
      </trkpt>
      <trkpt lat="49.38016" lon="4.03425">
        <ele>106</ele>
        <time>2019-05-29T16:22:46Z</time>
      </trkpt>
      <trkpt lat="49.38015" lon="4.03414">
        <ele>106</ele>
        <time>2019-05-29T16:22:47Z</time>
      </trkpt>
      <trkpt lat="49.38015" lon="4.03404">
        <ele>107</ele>
        <time>2019-05-29T16:22:48Z</time>
      </trkpt>
      <trkpt lat="49.38015" lon="4.03394">
        <ele>107</ele>
        <time>2019-05-29T16:22:49Z</time>
      </trkpt>
      <trkpt lat="49.38015" lon="4.03383">
        <ele>107</ele>
        <time>2019-05-29T16:22:50Z</time>
      </trkpt>
      <trkpt lat="49.38015" lon="4.03373">
        <ele>107</ele>
        <time>2019-05-29T16:22:51Z</time>
      </trkpt>
      <trkpt lat="49.38014" lon="4.03362">
        <ele>106</ele>
        <time>2019-05-29T16:22:52Z</time>
      </trkpt>
      <trkpt lat="49.38014" lon="4.03352">
        <ele>107</ele>
        <time>2019-05-29T16:22:53Z</time>
      </trkpt>
      <trkpt lat="49.38014" lon="4.03341">
        <ele>107</ele>
        <time>2019-05-29T16:22:54Z</time>
      </trkpt>
      <trkpt lat="49.38014" lon="4.0333">
        <ele>107</ele>
        <time>2019-05-29T16:22:55Z</time>
      </trkpt>
      <trkpt lat="49.38014" lon="4.03319">
        <ele>107</ele>
        <time>2019-05-29T16:22:56Z</time>
      </trkpt>
      <trkpt lat="49.38014" lon="4.03309">
        <ele>107</ele>
        <time>2019-05-29T16:22:57Z</time>
      </trkpt>
      <trkpt lat="49.38014" lon="4.03298">
        <ele>107</ele>
        <time>2019-05-29T16:22:58Z</time>
      </trkpt>
      <trkpt lat="49.38013" lon="4.03287">
        <ele>107</ele>
        <time>2019-05-29T16:22:59Z</time>
      </trkpt>
      <trkpt lat="49.38013" lon="4.03277">
        <ele>107</ele>
        <time>2019-05-29T16:23:00Z</time>
      </trkpt>
      <trkpt lat="49.38013" lon="4.03266">
        <ele>108</ele>
        <time>2019-05-29T16:23:01Z</time>
      </trkpt>
      <trkpt lat="49.38013" lon="4.03255">
        <ele>108</ele>
        <time>2019-05-29T16:23:02Z</time>
      </trkpt>
      <trkpt lat="49.38013" lon="4.03245">
        <ele>107</ele>
        <time>2019-05-29T16:23:03Z</time>
      </trkpt>
      <trkpt lat="49.38013" lon="4.03234">
        <ele>107</ele>
        <time>2019-05-29T16:23:04Z</time>
      </trkpt>
      <trkpt lat="49.38013" lon="4.03223">
        <ele>107</ele>
        <time>2019-05-29T16:23:05Z</time>
      </trkpt>
      <trkpt lat="49.38013" lon="4.03212">
        <ele>107</ele>
        <time>2019-05-29T16:23:06Z</time>
      </trkpt>
      <trkpt lat="49.38013" lon="4.03202">
        <ele>107</ele>
        <time>2019-05-29T16:23:07Z</time>
      </trkpt>
      <trkpt lat="49.38013" lon="4.03191">
        <ele>107</ele>
        <time>2019-05-29T16:23:08Z</time>
      </trkpt>
      <trkpt lat="49.38012" lon="4.0318">
        <ele>107</ele>
        <time>2019-05-29T16:23:09Z</time>
      </trkpt>
      <trkpt lat="49.38012" lon="4.0317">
        <ele>107</ele>
        <time>2019-05-29T16:23:10Z</time>
      </trkpt>
      <trkpt lat="49.38012" lon="4.03159">
        <ele>107</ele>
        <time>2019-05-29T16:23:11Z</time>
      </trkpt>
      <trkpt lat="49.38013" lon="4.03149">
        <ele>107</ele>
        <time>2019-05-29T16:23:12Z</time>
      </trkpt>
      <trkpt lat="49.38013" lon="4.03138">
        <ele>107</ele>
        <time>2019-05-29T16:23:13Z</time>
      </trkpt>
      <trkpt lat="49.38013" lon="4.03128">
        <ele>108</ele>
        <time>2019-05-29T16:23:14Z</time>
      </trkpt>
      <trkpt lat="49.38014" lon="4.03117">
        <ele>108</ele>
        <time>2019-05-29T16:23:15Z</time>
      </trkpt>
      <trkpt lat="49.38015" lon="4.03107">
        <ele>107</ele>
        <time>2019-05-29T16:23:16Z</time>
      </trkpt>
      <trkpt lat="49.38016" lon="4.03096">
        <ele>108</ele>
        <time>2019-05-29T16:23:17Z</time>
      </trkpt>
      <trkpt lat="49.38016" lon="4.03085">
        <ele>108</ele>
        <time>2019-05-29T16:23:18Z</time>
      </trkpt>
      <trkpt lat="49.38017" lon="4.03075">
        <ele>108</ele>
        <time>2019-05-29T16:23:19Z</time>
      </trkpt>
      <trkpt lat="49.38018" lon="4.03064">
        <ele>108</ele>
        <time>2019-05-29T16:23:20Z</time>
      </trkpt>
      <trkpt lat="49.38018" lon="4.03053">
        <ele>108</ele>
        <time>2019-05-29T16:23:21Z</time>
      </trkpt>
      <trkpt lat="49.38019" lon="4.03042">
        <ele>108</ele>
        <time>2019-05-29T16:23:22Z</time>
      </trkpt>
      <trkpt lat="49.3802" lon="4.03031">
        <ele>108</ele>
        <time>2019-05-29T16:23:23Z</time>
      </trkpt>
      <trkpt lat="49.38021" lon="4.0302">
        <ele>108</ele>
        <time>2019-05-29T16:23:24Z</time>
      </trkpt>
      <trkpt lat="49.38022" lon="4.03008">
        <ele>108</ele>
        <time>2019-05-29T16:23:25Z</time>
      </trkpt>
      <trkpt lat="49.38022" lon="4.02997">
        <ele>109</ele>
        <time>2019-05-29T16:23:26Z</time>
      </trkpt>
      <trkpt lat="49.38023" lon="4.02986">
        <ele>109</ele>
        <time>2019-05-29T16:23:27Z</time>
      </trkpt>
      <trkpt lat="49.38023" lon="4.02975">
        <ele>109</ele>
        <time>2019-05-29T16:23:28Z</time>
      </trkpt>
      <trkpt lat="49.38023" lon="4.02964">
        <ele>109</ele>
        <time>2019-05-29T16:23:29Z</time>
      </trkpt>
      <trkpt lat="49.38024" lon="4.02954">
        <ele>109</ele>
        <time>2019-05-29T16:23:30Z</time>
      </trkpt>
      <trkpt lat="49.38024" lon="4.02943">
        <ele>109</ele>
        <time>2019-05-29T16:23:31Z</time>
      </trkpt>
      <trkpt lat="49.38023" lon="4.02933">
        <ele>109</ele>
        <time>2019-05-29T16:23:32Z</time>
      </trkpt>
      <trkpt lat="49.38023" lon="4.02922">
        <ele>109</ele>
        <time>2019-05-29T16:23:33Z</time>
      </trkpt>
      <trkpt lat="49.38023" lon="4.02912">
        <ele>109</ele>
        <time>2019-05-29T16:23:34Z</time>
      </trkpt>
      <trkpt lat="49.38022" lon="4.02901">
        <ele>109</ele>
        <time>2019-05-29T16:23:35Z</time>
      </trkpt>
      <trkpt lat="49.38022" lon="4.0289">
        <ele>109</ele>
        <time>2019-05-29T16:23:36Z</time>
      </trkpt>
      <trkpt lat="49.38021" lon="4.02879">
        <ele>109</ele>
        <time>2019-05-29T16:23:37Z</time>
      </trkpt>
      <trkpt lat="49.38021" lon="4.02868">
        <ele>109</ele>
        <time>2019-05-29T16:23:38Z</time>
      </trkpt>
      <trkpt lat="49.3802" lon="4.02857">
        <ele>109</ele>
        <time>2019-05-29T16:23:39Z</time>
      </trkpt>
      <trkpt lat="49.3802" lon="4.02846">
        <ele>109</ele>
        <time>2019-05-29T16:23:40Z</time>
      </trkpt>
      <trkpt lat="49.3802" lon="4.02834">
        <ele>109</ele>
        <time>2019-05-29T16:23:41Z</time>
      </trkpt>
      <trkpt lat="49.3802" lon="4.02823">
        <ele>109</ele>
        <time>2019-05-29T16:23:42Z</time>
      </trkpt>
      <trkpt lat="49.3802" lon="4.02812">
        <ele>109</ele>
        <time>2019-05-29T16:23:43Z</time>
      </trkpt>
      <trkpt lat="49.3802" lon="4.028">
        <ele>109</ele>
        <time>2019-05-29T16:23:44Z</time>
      </trkpt>
      <trkpt lat="49.3802" lon="4.02789">
        <ele>109</ele>
        <time>2019-05-29T16:23:45Z</time>
      </trkpt>
      <trkpt lat="49.3802" lon="4.02777">
        <ele>108</ele>
        <time>2019-05-29T16:23:46Z</time>
      </trkpt>
      <trkpt lat="49.3802" lon="4.02765">
        <ele>109</ele>
        <time>2019-05-29T16:23:47Z</time>
      </trkpt>
      <trkpt lat="49.38021" lon="4.02754">
        <ele>109</ele>
        <time>2019-05-29T16:23:48Z</time>
      </trkpt>
      <trkpt lat="49.38021" lon="4.02743">
        <ele>109</ele>
        <time>2019-05-29T16:23:49Z</time>
      </trkpt>
      <trkpt lat="49.38021" lon="4.02731">
        <ele>109</ele>
        <time>2019-05-29T16:23:50Z</time>
      </trkpt>
      <trkpt lat="49.38022" lon="4.0272">
        <ele>109</ele>
        <time>2019-05-29T16:23:51Z</time>
      </trkpt>
      <trkpt lat="49.38022" lon="4.02708">
        <ele>110</ele>
        <time>2019-05-29T16:23:52Z</time>
      </trkpt>
      <trkpt lat="49.38022" lon="4.02697">
        <ele>110</ele>
        <time>2019-05-29T16:23:53Z</time>
      </trkpt>
      <trkpt lat="49.38023" lon="4.02686">
        <ele>110</ele>
        <time>2019-05-29T16:23:54Z</time>
      </trkpt>
      <trkpt lat="49.38023" lon="4.02675">
        <ele>110</ele>
        <time>2019-05-29T16:23:55Z</time>
      </trkpt>
      <trkpt lat="49.38023" lon="4.02665">
        <ele>110</ele>
        <time>2019-05-29T16:23:56Z</time>
      </trkpt>
      <trkpt lat="49.38024" lon="4.02654">
        <ele>110</ele>
        <time>2019-05-29T16:23:57Z</time>
      </trkpt>
      <trkpt lat="49.38024" lon="4.02643">
        <ele>110</ele>
        <time>2019-05-29T16:23:58Z</time>
      </trkpt>
      <trkpt lat="49.38024" lon="4.02632">
        <ele>110</ele>
        <time>2019-05-29T16:23:59Z</time>
      </trkpt>
      <trkpt lat="49.38025" lon="4.02621">
        <ele>110</ele>
        <time>2019-05-29T16:24:00Z</time>
      </trkpt>
      <trkpt lat="49.38025" lon="4.02611">
        <ele>110</ele>
        <time>2019-05-29T16:24:01Z</time>
      </trkpt>
      <trkpt lat="49.38025" lon="4.026">
        <ele>111</ele>
        <time>2019-05-29T16:24:02Z</time>
      </trkpt>
      <trkpt lat="49.38026" lon="4.02589">
        <ele>110</ele>
        <time>2019-05-29T16:24:03Z</time>
      </trkpt>
      <trkpt lat="49.38026" lon="4.02578">
        <ele>110</ele>
        <time>2019-05-29T16:24:04Z</time>
      </trkpt>
      <trkpt lat="49.38027" lon="4.02567">
        <ele>110</ele>
        <time>2019-05-29T16:24:05Z</time>
      </trkpt>
      <trkpt lat="49.38028" lon="4.02556">
        <ele>110</ele>
        <time>2019-05-29T16:24:06Z</time>
      </trkpt>
      <trkpt lat="49.3803" lon="4.02545">
        <ele>110</ele>
        <time>2019-05-29T16:24:07Z</time>
      </trkpt>
      <trkpt lat="49.38031" lon="4.02534">
        <ele>110</ele>
        <time>2019-05-29T16:24:08Z</time>
      </trkpt>
      <trkpt lat="49.38032" lon="4.02523">
        <ele>110</ele>
        <time>2019-05-29T16:24:09Z</time>
      </trkpt>
      <trkpt lat="49.38033" lon="4.02513">
        <ele>109</ele>
        <time>2019-05-29T16:24:10Z</time>
      </trkpt>
      <trkpt lat="49.38035" lon="4.02501">
        <ele>109</ele>
        <time>2019-05-29T16:24:11Z</time>
      </trkpt>
      <trkpt lat="49.38036" lon="4.0249">
        <ele>109</ele>
        <time>2019-05-29T16:24:12Z</time>
      </trkpt>
      <trkpt lat="49.38037" lon="4.02479">
        <ele>109</ele>
        <time>2019-05-29T16:24:13Z</time>
      </trkpt>
      <trkpt lat="49.38038" lon="4.02467">
        <ele>109</ele>
        <time>2019-05-29T16:24:14Z</time>
      </trkpt>
      <trkpt lat="49.38039" lon="4.02456">
        <ele>109</ele>
        <time>2019-05-29T16:24:15Z</time>
      </trkpt>
      <trkpt lat="49.38041" lon="4.02445">
        <ele>109</ele>
        <time>2019-05-29T16:24:16Z</time>
      </trkpt>
      <trkpt lat="49.38041" lon="4.02433">
        <ele>109</ele>
        <time>2019-05-29T16:24:17Z</time>
      </trkpt>
      <trkpt lat="49.38042" lon="4.02422">
        <ele>110</ele>
        <time>2019-05-29T16:24:18Z</time>
      </trkpt>
      <trkpt lat="49.38044" lon="4.02412">
        <ele>109</ele>
        <time>2019-05-29T16:24:19Z</time>
      </trkpt>
      <trkpt lat="49.38045" lon="4.02401">
        <ele>109</ele>
        <time>2019-05-29T16:24:20Z</time>
      </trkpt>
      <trkpt lat="49.38047" lon="4.02389">
        <ele>109</ele>
        <time>2019-05-29T16:24:21Z</time>
      </trkpt>
      <trkpt lat="49.38049" lon="4.02378">
        <ele>109</ele>
        <time>2019-05-29T16:24:22Z</time>
      </trkpt>
      <trkpt lat="49.3805" lon="4.02367">
        <ele>110</ele>
        <time>2019-05-29T16:24:23Z</time>
      </trkpt>
      <trkpt lat="49.38052" lon="4.02356">
        <ele>110</ele>
        <time>2019-05-29T16:24:24Z</time>
      </trkpt>
      <trkpt lat="49.38053" lon="4.02345">
        <ele>110</ele>
        <time>2019-05-29T16:24:25Z</time>
      </trkpt>
      <trkpt lat="49.38054" lon="4.02334">
        <ele>110</ele>
        <time>2019-05-29T16:24:26Z</time>
      </trkpt>
      <trkpt lat="49.38055" lon="4.02323">
        <ele>110</ele>
        <time>2019-05-29T16:24:27Z</time>
      </trkpt>
      <trkpt lat="49.38055" lon="4.02313">
        <ele>110</ele>
        <time>2019-05-29T16:24:28Z</time>
      </trkpt>
      <trkpt lat="49.38056" lon="4.02303">
        <ele>110</ele>
        <time>2019-05-29T16:24:29Z</time>
      </trkpt>
      <trkpt lat="49.38058" lon="4.02293">
        <ele>110</ele>
        <time>2019-05-29T16:24:30Z</time>
      </trkpt>
      <trkpt lat="49.38059" lon="4.02283">
        <ele>110</ele>
        <time>2019-05-29T16:24:31Z</time>
      </trkpt>
      <trkpt lat="49.38062" lon="4.02274">
        <ele>110</ele>
        <time>2019-05-29T16:24:32Z</time>
      </trkpt>
      <trkpt lat="49.38064" lon="4.02264">
        <ele>110</ele>
        <time>2019-05-29T16:24:33Z</time>
      </trkpt>
      <trkpt lat="49.38067" lon="4.02256">
        <ele>110</ele>
        <time>2019-05-29T16:24:34Z</time>
      </trkpt>
      <trkpt lat="49.3807" lon="4.02247">
        <ele>110</ele>
        <time>2019-05-29T16:24:35Z</time>
      </trkpt>
      <trkpt lat="49.38072" lon="4.02239">
        <ele>110</ele>
        <time>2019-05-29T16:24:36Z</time>
      </trkpt>
      <trkpt lat="49.38074" lon="4.0223">
        <ele>110</ele>
        <time>2019-05-29T16:24:37Z</time>
      </trkpt>
      <trkpt lat="49.38076" lon="4.02222">
        <ele>110</ele>
        <time>2019-05-29T16:24:38Z</time>
      </trkpt>
      <trkpt lat="49.38079" lon="4.02215">
        <ele>110</ele>
        <time>2019-05-29T16:24:39Z</time>
      </trkpt>
      <trkpt lat="49.38083" lon="4.02207">
        <ele>110</ele>
        <time>2019-05-29T16:24:40Z</time>
      </trkpt>
      <trkpt lat="49.38087" lon="4.02199">
        <ele>111</ele>
        <time>2019-05-29T16:24:41Z</time>
      </trkpt>
      <trkpt lat="49.38091" lon="4.0219">
        <ele>110</ele>
        <time>2019-05-29T16:24:42Z</time>
      </trkpt>
      <trkpt lat="49.38095" lon="4.02181">
        <ele>110</ele>
        <time>2019-05-29T16:24:43Z</time>
      </trkpt>
      <trkpt lat="49.38099" lon="4.02173">
        <ele>110</ele>
        <time>2019-05-29T16:24:44Z</time>
      </trkpt>
      <trkpt lat="49.38103" lon="4.02163">
        <ele>110</ele>
        <time>2019-05-29T16:24:45Z</time>
      </trkpt>
      <trkpt lat="49.38107" lon="4.02155">
        <ele>110</ele>
        <time>2019-05-29T16:24:46Z</time>
      </trkpt>
      <trkpt lat="49.38111" lon="4.02145">
        <ele>110</ele>
        <time>2019-05-29T16:24:47Z</time>
      </trkpt>
      <trkpt lat="49.38116" lon="4.02136">
        <ele>110</ele>
        <time>2019-05-29T16:24:48Z</time>
      </trkpt>
      <trkpt lat="49.3812" lon="4.02126">
        <ele>110</ele>
        <time>2019-05-29T16:24:49Z</time>
      </trkpt>
      <trkpt lat="49.38125" lon="4.02116">
        <ele>110</ele>
        <time>2019-05-29T16:24:50Z</time>
      </trkpt>
      <trkpt lat="49.3813" lon="4.02106">
        <ele>110</ele>
        <time>2019-05-29T16:24:51Z</time>
      </trkpt>
      <trkpt lat="49.38135" lon="4.02096">
        <ele>110</ele>
        <time>2019-05-29T16:24:52Z</time>
      </trkpt>
      <trkpt lat="49.38139" lon="4.02086">
        <ele>110</ele>
        <time>2019-05-29T16:24:53Z</time>
      </trkpt>
      <trkpt lat="49.38144" lon="4.02076">
        <ele>110</ele>
        <time>2019-05-29T16:24:54Z</time>
      </trkpt>
      <trkpt lat="49.38149" lon="4.02065">
        <ele>109</ele>
        <time>2019-05-29T16:24:55Z</time>
      </trkpt>
      <trkpt lat="49.38154" lon="4.02055">
        <ele>109</ele>
        <time>2019-05-29T16:24:56Z</time>
      </trkpt>
      <trkpt lat="49.38159" lon="4.02045">
        <ele>108</ele>
        <time>2019-05-29T16:24:57Z</time>
      </trkpt>
      <trkpt lat="49.38163" lon="4.02034">
        <ele>108</ele>
        <time>2019-05-29T16:24:58Z</time>
      </trkpt>
      <trkpt lat="49.38168" lon="4.02023">
        <ele>107</ele>
        <time>2019-05-29T16:24:59Z</time>
      </trkpt>
      <trkpt lat="49.38173" lon="4.02013">
        <ele>107</ele>
        <time>2019-05-29T16:25:00Z</time>
      </trkpt>
      <trkpt lat="49.38178" lon="4.02002">
        <ele>107</ele>
        <time>2019-05-29T16:25:01Z</time>
      </trkpt>
      <trkpt lat="49.38183" lon="4.01991">
        <ele>107</ele>
        <time>2019-05-29T16:25:02Z</time>
      </trkpt>
      <trkpt lat="49.38188" lon="4.0198">
        <ele>107</ele>
        <time>2019-05-29T16:25:03Z</time>
      </trkpt>
      <trkpt lat="49.38193" lon="4.01969">
        <ele>107</ele>
        <time>2019-05-29T16:25:04Z</time>
      </trkpt>
      <trkpt lat="49.38198" lon="4.01958">
        <ele>107</ele>
        <time>2019-05-29T16:25:05Z</time>
      </trkpt>
      <trkpt lat="49.38203" lon="4.01947">
        <ele>108</ele>
        <time>2019-05-29T16:25:06Z</time>
      </trkpt>
      <trkpt lat="49.38208" lon="4.01936">
        <ele>108</ele>
        <time>2019-05-29T16:25:07Z</time>
      </trkpt>
      <trkpt lat="49.38213" lon="4.01925">
        <ele>108</ele>
        <time>2019-05-29T16:25:08Z</time>
      </trkpt>
      <trkpt lat="49.38217" lon="4.01914">
        <ele>107</ele>
        <time>2019-05-29T16:25:09Z</time>
      </trkpt>
      <trkpt lat="49.38222" lon="4.01904">
        <ele>107</ele>
        <time>2019-05-29T16:25:10Z</time>
      </trkpt>
      <trkpt lat="49.38227" lon="4.01893">
        <ele>107</ele>
        <time>2019-05-29T16:25:11Z</time>
      </trkpt>
      <trkpt lat="49.38231" lon="4.01883">
        <ele>107</ele>
        <time>2019-05-29T16:25:12Z</time>
      </trkpt>
      <trkpt lat="49.38236" lon="4.01873">
        <ele>107</ele>
        <time>2019-05-29T16:25:13Z</time>
      </trkpt>
      <trkpt lat="49.38241" lon="4.01863">
        <ele>107</ele>
        <time>2019-05-29T16:25:14Z</time>
      </trkpt>
      <trkpt lat="49.38246" lon="4.01852">
        <ele>108</ele>
        <time>2019-05-29T16:25:15Z</time>
      </trkpt>
      <trkpt lat="49.38251" lon="4.01842">
        <ele>108</ele>
        <time>2019-05-29T16:25:16Z</time>
      </trkpt>
      <trkpt lat="49.38255" lon="4.01832">
        <ele>108</ele>
        <time>2019-05-29T16:25:17Z</time>
      </trkpt>
      <trkpt lat="49.38259" lon="4.01822">
        <ele>108</ele>
        <time>2019-05-29T16:25:18Z</time>
      </trkpt>
      <trkpt lat="49.38263" lon="4.01811">
        <ele>108</ele>
        <time>2019-05-29T16:25:19Z</time>
      </trkpt>
      <trkpt lat="49.38268" lon="4.01801">
        <ele>108</ele>
        <time>2019-05-29T16:25:20Z</time>
      </trkpt>
      <trkpt lat="49.38272" lon="4.01791">
        <ele>108</ele>
        <time>2019-05-29T16:25:21Z</time>
      </trkpt>
      <trkpt lat="49.38276" lon="4.01781">
        <ele>108</ele>
        <time>2019-05-29T16:25:22Z</time>
      </trkpt>
      <trkpt lat="49.3828" lon="4.0177">
        <ele>108</ele>
        <time>2019-05-29T16:25:23Z</time>
      </trkpt>
      <trkpt lat="49.38284" lon="4.01761">
        <ele>108</ele>
        <time>2019-05-29T16:25:24Z</time>
      </trkpt>
      <trkpt lat="49.38287" lon="4.0175">
        <ele>108</ele>
        <time>2019-05-29T16:25:25Z</time>
      </trkpt>
      <trkpt lat="49.3829" lon="4.0174">
        <ele>108</ele>
        <time>2019-05-29T16:25:26Z</time>
      </trkpt>
      <trkpt lat="49.38293" lon="4.0173">
        <ele>108</ele>
        <time>2019-05-29T16:25:27Z</time>
      </trkpt>
      <trkpt lat="49.38296" lon="4.01719">
        <ele>108</ele>
        <time>2019-05-29T16:25:28Z</time>
      </trkpt>
      <trkpt lat="49.38298" lon="4.0171">
        <ele>108</ele>
        <time>2019-05-29T16:25:29Z</time>
      </trkpt>
      <trkpt lat="49.383" lon="4.017">
        <ele>109</ele>
        <time>2019-05-29T16:25:30Z</time>
      </trkpt>
      <trkpt lat="49.38303" lon="4.01689">
        <ele>108</ele>
        <time>2019-05-29T16:25:31Z</time>
      </trkpt>
      <trkpt lat="49.38305" lon="4.0168">
        <ele>109</ele>
        <time>2019-05-29T16:25:32Z</time>
      </trkpt>
      <trkpt lat="49.38307" lon="4.01669">
        <ele>109</ele>
        <time>2019-05-29T16:25:33Z</time>
      </trkpt>
      <trkpt lat="49.38309" lon="4.01659">
        <ele>109</ele>
        <time>2019-05-29T16:25:34Z</time>
      </trkpt>
      <trkpt lat="49.38311" lon="4.01648">
        <ele>109</ele>
        <time>2019-05-29T16:25:35Z</time>
      </trkpt>
      <trkpt lat="49.38313" lon="4.01638">
        <ele>109</ele>
        <time>2019-05-29T16:25:36Z</time>
      </trkpt>
      <trkpt lat="49.38315" lon="4.01627">
        <ele>109</ele>
        <time>2019-05-29T16:25:37Z</time>
      </trkpt>
      <trkpt lat="49.38318" lon="4.01616">
        <ele>109</ele>
        <time>2019-05-29T16:25:38Z</time>
      </trkpt>
      <trkpt lat="49.38321" lon="4.01606">
        <ele>109</ele>
        <time>2019-05-29T16:25:39Z</time>
      </trkpt>
      <trkpt lat="49.38323" lon="4.01596">
        <ele>110</ele>
        <time>2019-05-29T16:25:40Z</time>
      </trkpt>
      <trkpt lat="49.38325" lon="4.01586">
        <ele>109</ele>
        <time>2019-05-29T16:25:41Z</time>
      </trkpt>
      <trkpt lat="49.38328" lon="4.01576">
        <ele>109</ele>
        <time>2019-05-29T16:25:42Z</time>
      </trkpt>
      <trkpt lat="49.3833" lon="4.01565">
        <ele>109</ele>
        <time>2019-05-29T16:25:43Z</time>
      </trkpt>
      <trkpt lat="49.38333" lon="4.01555">
        <ele>109</ele>
        <time>2019-05-29T16:25:44Z</time>
      </trkpt>
      <trkpt lat="49.38335" lon="4.01544">
        <ele>109</ele>
        <time>2019-05-29T16:25:45Z</time>
      </trkpt>
      <trkpt lat="49.38338" lon="4.01534">
        <ele>109</ele>
        <time>2019-05-29T16:25:46Z</time>
      </trkpt>
      <trkpt lat="49.3834" lon="4.01523">
        <ele>109</ele>
        <time>2019-05-29T16:25:47Z</time>
      </trkpt>
      <trkpt lat="49.38343" lon="4.01513">
        <ele>109</ele>
        <time>2019-05-29T16:25:48Z</time>
      </trkpt>
      <trkpt lat="49.38346" lon="4.01503">
        <ele>109</ele>
        <time>2019-05-29T16:25:49Z</time>
      </trkpt>
      <trkpt lat="49.38349" lon="4.01493">
        <ele>109</ele>
        <time>2019-05-29T16:25:50Z</time>
      </trkpt>
      <trkpt lat="49.38352" lon="4.01484">
        <ele>109</ele>
        <time>2019-05-29T16:25:51Z</time>
      </trkpt>
      <trkpt lat="49.38355" lon="4.01474">
        <ele>109</ele>
        <time>2019-05-29T16:25:52Z</time>
      </trkpt>
      <trkpt lat="49.38357" lon="4.01464">
        <ele>109</ele>
        <time>2019-05-29T16:25:53Z</time>
      </trkpt>
      <trkpt lat="49.3836" lon="4.01455">
        <ele>110</ele>
        <time>2019-05-29T16:25:54Z</time>
      </trkpt>
      <trkpt lat="49.38362" lon="4.01446">
        <ele>110</ele>
        <time>2019-05-29T16:25:55Z</time>
      </trkpt>
      <trkpt lat="49.38365" lon="4.01437">
        <ele>110</ele>
        <time>2019-05-29T16:25:56Z</time>
      </trkpt>
      <trkpt lat="49.38366" lon="4.01428">
        <ele>110</ele>
        <time>2019-05-29T16:25:57Z</time>
      </trkpt>
      <trkpt lat="49.38368" lon="4.01419">
        <ele>110</ele>
        <time>2019-05-29T16:25:58Z</time>
      </trkpt>
      <trkpt lat="49.3837" lon="4.0141">
        <ele>110</ele>
        <time>2019-05-29T16:25:59Z</time>
      </trkpt>
      <trkpt lat="49.38371" lon="4.014">
        <ele>111</ele>
        <time>2019-05-29T16:26:00Z</time>
      </trkpt>
      <trkpt lat="49.38372" lon="4.01391">
        <ele>110</ele>
        <time>2019-05-29T16:26:01Z</time>
      </trkpt>
      <trkpt lat="49.38373" lon="4.01382">
        <ele>111</ele>
        <time>2019-05-29T16:26:02Z</time>
      </trkpt>
      <trkpt lat="49.38375" lon="4.01373">
        <ele>111</ele>
        <time>2019-05-29T16:26:03Z</time>
      </trkpt>
      <trkpt lat="49.38376" lon="4.01363">
        <ele>110</ele>
        <time>2019-05-29T16:26:04Z</time>
      </trkpt>
      <trkpt lat="49.38377" lon="4.01353">
        <ele>111</ele>
        <time>2019-05-29T16:26:05Z</time>
      </trkpt>
      <trkpt lat="49.38378" lon="4.01343">
        <ele>111</ele>
        <time>2019-05-29T16:26:06Z</time>
      </trkpt>
      <trkpt lat="49.38379" lon="4.01334">
        <ele>111</ele>
        <time>2019-05-29T16:26:07Z</time>
      </trkpt>
      <trkpt lat="49.3838" lon="4.01325">
        <ele>111</ele>
        <time>2019-05-29T16:26:08Z</time>
      </trkpt>
      <trkpt lat="49.38381" lon="4.01316">
        <ele>111</ele>
        <time>2019-05-29T16:26:09Z</time>
      </trkpt>
      <trkpt lat="49.38381" lon="4.01307">
        <ele>111</ele>
        <time>2019-05-29T16:26:10Z</time>
      </trkpt>
      <trkpt lat="49.38382" lon="4.01298">
        <ele>111</ele>
        <time>2019-05-29T16:26:11Z</time>
      </trkpt>
      <trkpt lat="49.38384" lon="4.01289">
        <ele>111</ele>
        <time>2019-05-29T16:26:12Z</time>
      </trkpt>
      <trkpt lat="49.38385" lon="4.01281">
        <ele>111</ele>
        <time>2019-05-29T16:26:13Z</time>
      </trkpt>
      <trkpt lat="49.38386" lon="4.01272">
        <ele>111</ele>
        <time>2019-05-29T16:26:14Z</time>
      </trkpt>
      <trkpt lat="49.38387" lon="4.01263">
        <ele>112</ele>
        <time>2019-05-29T16:26:15Z</time>
      </trkpt>
      <trkpt lat="49.38389" lon="4.01255">
        <ele>112</ele>
        <time>2019-05-29T16:26:16Z</time>
      </trkpt>
      <trkpt lat="49.38391" lon="4.01248">
        <ele>112</ele>
        <time>2019-05-29T16:26:17Z</time>
      </trkpt>
      <trkpt lat="49.38393" lon="4.0124">
        <ele>113</ele>
        <time>2019-05-29T16:26:18Z</time>
      </trkpt>
      <trkpt lat="49.38394" lon="4.01232">
        <ele>113</ele>
        <time>2019-05-29T16:26:19Z</time>
      </trkpt>
      <trkpt lat="49.38397" lon="4.01224">
        <ele>113</ele>
        <time>2019-05-29T16:26:20Z</time>
      </trkpt>
      <trkpt lat="49.38399" lon="4.01216">
        <ele>113</ele>
        <time>2019-05-29T16:26:21Z</time>
      </trkpt>
      <trkpt lat="49.38402" lon="4.01209">
        <ele>113</ele>
        <time>2019-05-29T16:26:22Z</time>
      </trkpt>
      <trkpt lat="49.38404" lon="4.01201">
        <ele>114</ele>
        <time>2019-05-29T16:26:23Z</time>
      </trkpt>
      <trkpt lat="49.38407" lon="4.01194">
        <ele>114</ele>
        <time>2019-05-29T16:26:24Z</time>
      </trkpt>
      <trkpt lat="49.3841" lon="4.01188">
        <ele>114</ele>
        <time>2019-05-29T16:26:25Z</time>
      </trkpt>
      <trkpt lat="49.38412" lon="4.01181">
        <ele>115</ele>
        <time>2019-05-29T16:26:26Z</time>
      </trkpt>
      <trkpt lat="49.38415" lon="4.01174">
        <ele>115</ele>
        <time>2019-05-29T16:26:27Z</time>
      </trkpt>
      <trkpt lat="49.38418" lon="4.01167">
        <ele>115</ele>
        <time>2019-05-29T16:26:28Z</time>
      </trkpt>
      <trkpt lat="49.38421" lon="4.0116">
        <ele>115</ele>
        <time>2019-05-29T16:26:29Z</time>
      </trkpt>
      <trkpt lat="49.38424" lon="4.01152">
        <ele>115</ele>
        <time>2019-05-29T16:26:30Z</time>
      </trkpt>
      <trkpt lat="49.38426" lon="4.01143">
        <ele>115</ele>
        <time>2019-05-29T16:26:31Z</time>
      </trkpt>
      <trkpt lat="49.38429" lon="4.01134">
        <ele>115</ele>
        <time>2019-05-29T16:26:32Z</time>
      </trkpt>
      <trkpt lat="49.38432" lon="4.01126">
        <ele>115</ele>
        <time>2019-05-29T16:26:33Z</time>
      </trkpt>
      <trkpt lat="49.38436" lon="4.01117">
        <ele>115</ele>
        <time>2019-05-29T16:26:34Z</time>
      </trkpt>
      <trkpt lat="49.38439" lon="4.01109">
        <ele>115</ele>
        <time>2019-05-29T16:26:35Z</time>
      </trkpt>
      <trkpt lat="49.38442" lon="4.01101">
        <ele>114</ele>
        <time>2019-05-29T16:26:36Z</time>
      </trkpt>
      <trkpt lat="49.38445" lon="4.01092">
        <ele>114</ele>
        <time>2019-05-29T16:26:37Z</time>
      </trkpt>
      <trkpt lat="49.38449" lon="4.01083">
        <ele>114</ele>
        <time>2019-05-29T16:26:38Z</time>
      </trkpt>
      <trkpt lat="49.38453" lon="4.01074">
        <ele>114</ele>
        <time>2019-05-29T16:26:39Z</time>
      </trkpt>
      <trkpt lat="49.38456" lon="4.01064">
        <ele>114</ele>
        <time>2019-05-29T16:26:40Z</time>
      </trkpt>
      <trkpt lat="49.38459" lon="4.01054">
        <ele>114</ele>
        <time>2019-05-29T16:26:41Z</time>
      </trkpt>
      <trkpt lat="49.38463" lon="4.01045">
        <ele>114</ele>
        <time>2019-05-29T16:26:42Z</time>
      </trkpt>
      <trkpt lat="49.38467" lon="4.01035">
        <ele>114</ele>
        <time>2019-05-29T16:26:43Z</time>
      </trkpt>
      <trkpt lat="49.38471" lon="4.01025">
        <ele>114</ele>
        <time>2019-05-29T16:26:44Z</time>
      </trkpt>
      <trkpt lat="49.38474" lon="4.01016">
        <ele>114</ele>
        <time>2019-05-29T16:26:45Z</time>
      </trkpt>
      <trkpt lat="49.38477" lon="4.01006">
        <ele>114</ele>
        <time>2019-05-29T16:26:46Z</time>
      </trkpt>
      <trkpt lat="49.38481" lon="4.00996">
        <ele>113</ele>
        <time>2019-05-29T16:26:47Z</time>
      </trkpt>
      <trkpt lat="49.38485" lon="4.00987">
        <ele>114</ele>
        <time>2019-05-29T16:26:48Z</time>
      </trkpt>
      <trkpt lat="49.38488" lon="4.00978">
        <ele>113</ele>
        <time>2019-05-29T16:26:49Z</time>
      </trkpt>
      <trkpt lat="49.38491" lon="4.00968">
        <ele>113</ele>
        <time>2019-05-29T16:26:50Z</time>
      </trkpt>
      <trkpt lat="49.38495" lon="4.00959">
        <ele>113</ele>
        <time>2019-05-29T16:26:51Z</time>
      </trkpt>
      <trkpt lat="49.38498" lon="4.0095">
        <ele>113</ele>
        <time>2019-05-29T16:26:52Z</time>
      </trkpt>
      <trkpt lat="49.38501" lon="4.00941">
        <ele>113</ele>
        <time>2019-05-29T16:26:53Z</time>
      </trkpt>
      <trkpt lat="49.38505" lon="4.00933">
        <ele>113</ele>
        <time>2019-05-29T16:26:54Z</time>
      </trkpt>
      <trkpt lat="49.38509" lon="4.00924">
        <ele>113</ele>
        <time>2019-05-29T16:26:55Z</time>
      </trkpt>
      <trkpt lat="49.38512" lon="4.00914">
        <ele>112</ele>
        <time>2019-05-29T16:26:56Z</time>
      </trkpt>
      <trkpt lat="49.38516" lon="4.00904">
        <ele>112</ele>
        <time>2019-05-29T16:26:57Z</time>
      </trkpt>
      <trkpt lat="49.3852" lon="4.00895">
        <ele>112</ele>
        <time>2019-05-29T16:26:58Z</time>
      </trkpt>
      <trkpt lat="49.38524" lon="4.00885">
        <ele>112</ele>
        <time>2019-05-29T16:26:59Z</time>
      </trkpt>
      <trkpt lat="49.38527" lon="4.00875">
        <ele>112</ele>
        <time>2019-05-29T16:27:00Z</time>
      </trkpt>
      <trkpt lat="49.38531" lon="4.00866">
        <ele>112</ele>
        <time>2019-05-29T16:27:01Z</time>
      </trkpt>
      <trkpt lat="49.38535" lon="4.00857">
        <ele>112</ele>
        <time>2019-05-29T16:27:02Z</time>
      </trkpt>
      <trkpt lat="49.38539" lon="4.00848">
        <ele>112</ele>
        <time>2019-05-29T16:27:03Z</time>
      </trkpt>
      <trkpt lat="49.38542" lon="4.00839">
        <ele>112</ele>
        <time>2019-05-29T16:27:04Z</time>
      </trkpt>
      <trkpt lat="49.38546" lon="4.0083">
        <ele>112</ele>
        <time>2019-05-29T16:27:05Z</time>
      </trkpt>
      <trkpt lat="49.3855" lon="4.00821">
        <ele>112</ele>
        <time>2019-05-29T16:27:06Z</time>
      </trkpt>
      <trkpt lat="49.38553" lon="4.00812">
        <ele>112</ele>
        <time>2019-05-29T16:27:07Z</time>
      </trkpt>
      <trkpt lat="49.38557" lon="4.00804">
        <ele>112</ele>
        <time>2019-05-29T16:27:08Z</time>
      </trkpt>
      <trkpt lat="49.3856" lon="4.00795">
        <ele>112</ele>
        <time>2019-05-29T16:27:09Z</time>
      </trkpt>
      <trkpt lat="49.38564" lon="4.00787">
        <ele>112</ele>
        <time>2019-05-29T16:27:10Z</time>
      </trkpt>
      <trkpt lat="49.38567" lon="4.00779">
        <ele>112</ele>
        <time>2019-05-29T16:27:11Z</time>
      </trkpt>
      <trkpt lat="49.3857" lon="4.0077">
        <ele>112</ele>
        <time>2019-05-29T16:27:12Z</time>
      </trkpt>
      <trkpt lat="49.38573" lon="4.00762">
        <ele>112</ele>
        <time>2019-05-29T16:27:13Z</time>
      </trkpt>
      <trkpt lat="49.38576" lon="4.00753">
        <ele>112</ele>
        <time>2019-05-29T16:27:14Z</time>
      </trkpt>
      <trkpt lat="49.38579" lon="4.00745">
        <ele>112</ele>
        <time>2019-05-29T16:27:15Z</time>
      </trkpt>
      <trkpt lat="49.38583" lon="4.00737">
        <ele>112</ele>
        <time>2019-05-29T16:27:16Z</time>
      </trkpt>
      <trkpt lat="49.38586" lon="4.00728">
        <ele>112</ele>
        <time>2019-05-29T16:27:17Z</time>
      </trkpt>
      <trkpt lat="49.38589" lon="4.00719">
        <ele>112</ele>
        <time>2019-05-29T16:27:18Z</time>
      </trkpt>
      <trkpt lat="49.38592" lon="4.0071">
        <ele>112</ele>
        <time>2019-05-29T16:27:19Z</time>
      </trkpt>
      <trkpt lat="49.38596" lon="4.00701">
        <ele>112</ele>
        <time>2019-05-29T16:27:20Z</time>
      </trkpt>
      <trkpt lat="49.38599" lon="4.00692">
        <ele>112</ele>
        <time>2019-05-29T16:27:21Z</time>
      </trkpt>
      <trkpt lat="49.38602" lon="4.00683">
        <ele>112</ele>
        <time>2019-05-29T16:27:22Z</time>
      </trkpt>
      <trkpt lat="49.38605" lon="4.00674">
        <ele>112</ele>
        <time>2019-05-29T16:27:23Z</time>
      </trkpt>
      <trkpt lat="49.38607" lon="4.00666">
        <ele>112</ele>
        <time>2019-05-29T16:27:24Z</time>
      </trkpt>
      <trkpt lat="49.38611" lon="4.00656">
        <ele>112</ele>
        <time>2019-05-29T16:27:25Z</time>
      </trkpt>
      <trkpt lat="49.38614" lon="4.00647">
        <ele>112</ele>
        <time>2019-05-29T16:27:26Z</time>
      </trkpt>
      <trkpt lat="49.38617" lon="4.00638">
        <ele>112</ele>
        <time>2019-05-29T16:27:27Z</time>
      </trkpt>
      <trkpt lat="49.3862" lon="4.00629">
        <ele>113</ele>
        <time>2019-05-29T16:27:28Z</time>
      </trkpt>
      <trkpt lat="49.38622" lon="4.0062">
        <ele>113</ele>
        <time>2019-05-29T16:27:29Z</time>
      </trkpt>
      <trkpt lat="49.38626" lon="4.00611">
        <ele>113</ele>
        <time>2019-05-29T16:27:30Z</time>
      </trkpt>
      <trkpt lat="49.38629" lon="4.00602">
        <ele>113</ele>
        <time>2019-05-29T16:27:31Z</time>
      </trkpt>
      <trkpt lat="49.38631" lon="4.00592">
        <ele>113</ele>
        <time>2019-05-29T16:27:32Z</time>
      </trkpt>
      <trkpt lat="49.38634" lon="4.00584">
        <ele>113</ele>
        <time>2019-05-29T16:27:33Z</time>
      </trkpt>
      <trkpt lat="49.38636" lon="4.00575">
        <ele>113</ele>
        <time>2019-05-29T16:27:34Z</time>
      </trkpt>
      <trkpt lat="49.38639" lon="4.00566">
        <ele>114</ele>
        <time>2019-05-29T16:27:35Z</time>
      </trkpt>
      <trkpt lat="49.38642" lon="4.00558">
        <ele>114</ele>
        <time>2019-05-29T16:27:36Z</time>
      </trkpt>
      <trkpt lat="49.38645" lon="4.00549">
        <ele>114</ele>
        <time>2019-05-29T16:27:37Z</time>
      </trkpt>
      <trkpt lat="49.38648" lon="4.0054">
        <ele>114</ele>
        <time>2019-05-29T16:27:38Z</time>
      </trkpt>
      <trkpt lat="49.3865" lon="4.00531">
        <ele>114</ele>
        <time>2019-05-29T16:27:39Z</time>
      </trkpt>
      <trkpt lat="49.38653" lon="4.00522">
        <ele>114</ele>
        <time>2019-05-29T16:27:40Z</time>
      </trkpt>
      <trkpt lat="49.38657" lon="4.00514">
        <ele>114</ele>
        <time>2019-05-29T16:27:41Z</time>
      </trkpt>
      <trkpt lat="49.3866" lon="4.00505">
        <ele>115</ele>
        <time>2019-05-29T16:27:42Z</time>
      </trkpt>
      <trkpt lat="49.38663" lon="4.00496">
        <ele>115</ele>
        <time>2019-05-29T16:27:43Z</time>
      </trkpt>
      <trkpt lat="49.38666" lon="4.00487">
        <ele>115</ele>
        <time>2019-05-29T16:27:44Z</time>
      </trkpt>
      <trkpt lat="49.3867" lon="4.00478">
        <ele>115</ele>
        <time>2019-05-29T16:27:45Z</time>
      </trkpt>
      <trkpt lat="49.38674" lon="4.00468">
        <ele>115</ele>
        <time>2019-05-29T16:27:46Z</time>
      </trkpt>
      <trkpt lat="49.38678" lon="4.00459">
        <ele>115</ele>
        <time>2019-05-29T16:27:47Z</time>
      </trkpt>
      <trkpt lat="49.38683" lon="4.0045">
        <ele>115</ele>
        <time>2019-05-29T16:27:48Z</time>
      </trkpt>
      <trkpt lat="49.38687" lon="4.0044">
        <ele>115</ele>
        <time>2019-05-29T16:27:49Z</time>
      </trkpt>
      <trkpt lat="49.38691" lon="4.00431">
        <ele>115</ele>
        <time>2019-05-29T16:27:50Z</time>
      </trkpt>
      <trkpt lat="49.38695" lon="4.00421">
        <ele>115</ele>
        <time>2019-05-29T16:27:51Z</time>
      </trkpt>
      <trkpt lat="49.387" lon="4.00411">
        <ele>115</ele>
        <time>2019-05-29T16:27:52Z</time>
      </trkpt>
      <trkpt lat="49.38704" lon="4.00402">
        <ele>114</ele>
        <time>2019-05-29T16:27:53Z</time>
      </trkpt>
      <trkpt lat="49.38709" lon="4.00392">
        <ele>114</ele>
        <time>2019-05-29T16:27:54Z</time>
      </trkpt>
      <trkpt lat="49.38713" lon="4.00381">
        <ele>113</ele>
        <time>2019-05-29T16:27:55Z</time>
      </trkpt>
      <trkpt lat="49.38718" lon="4.00371">
        <ele>113</ele>
        <time>2019-05-29T16:27:56Z</time>
      </trkpt>
      <trkpt lat="49.38722" lon="4.00361">
        <ele>113</ele>
        <time>2019-05-29T16:27:57Z</time>
      </trkpt>
      <trkpt lat="49.38727" lon="4.0035">
        <ele>112</ele>
        <time>2019-05-29T16:27:58Z</time>
      </trkpt>
      <trkpt lat="49.38732" lon="4.00339">
        <ele>112</ele>
        <time>2019-05-29T16:27:59Z</time>
      </trkpt>
      <trkpt lat="49.38737" lon="4.00328">
        <ele>112</ele>
        <time>2019-05-29T16:28:00Z</time>
      </trkpt>
      <trkpt lat="49.38742" lon="4.00317">
        <ele>111</ele>
        <time>2019-05-29T16:28:01Z</time>
      </trkpt>
      <trkpt lat="49.38747" lon="4.00306">
        <ele>111</ele>
        <time>2019-05-29T16:28:02Z</time>
      </trkpt>
      <trkpt lat="49.38752" lon="4.00295">
        <ele>110</ele>
        <time>2019-05-29T16:28:03Z</time>
      </trkpt>
      <trkpt lat="49.38757" lon="4.00284">
        <ele>110</ele>
        <time>2019-05-29T16:28:04Z</time>
      </trkpt>
      <trkpt lat="49.38762" lon="4.00272">
        <ele>110</ele>
        <time>2019-05-29T16:28:05Z</time>
      </trkpt>
      <trkpt lat="49.38768" lon="4.0026">
        <ele>109</ele>
        <time>2019-05-29T16:28:06Z</time>
      </trkpt>
      <trkpt lat="49.38774" lon="4.00248">
        <ele>109</ele>
        <time>2019-05-29T16:28:07Z</time>
      </trkpt>
      <trkpt lat="49.38779" lon="4.00235">
        <ele>109</ele>
        <time>2019-05-29T16:28:08Z</time>
      </trkpt>
      <trkpt lat="49.38784" lon="4.00223">
        <ele>108</ele>
        <time>2019-05-29T16:28:09Z</time>
      </trkpt>
      <trkpt lat="49.3879" lon="4.0021">
        <ele>108</ele>
        <time>2019-05-29T16:28:10Z</time>
      </trkpt>
      <trkpt lat="49.38795" lon="4.00198">
        <ele>108</ele>
        <time>2019-05-29T16:28:11Z</time>
      </trkpt>
      <trkpt lat="49.388" lon="4.00186">
        <ele>108</ele>
        <time>2019-05-29T16:28:12Z</time>
      </trkpt>
      <trkpt lat="49.38805" lon="4.00175">
        <ele>108</ele>
        <time>2019-05-29T16:28:13Z</time>
      </trkpt>
      <trkpt lat="49.38811" lon="4.00164">
        <ele>108</ele>
        <time>2019-05-29T16:28:14Z</time>
      </trkpt>
      <trkpt lat="49.38816" lon="4.00153">
        <ele>108</ele>
        <time>2019-05-29T16:28:15Z</time>
      </trkpt>
      <trkpt lat="49.38821" lon="4.00143">
        <ele>108</ele>
        <time>2019-05-29T16:28:16Z</time>
      </trkpt>
      <trkpt lat="49.38826" lon="4.00133">
        <ele>108</ele>
        <time>2019-05-29T16:28:17Z</time>
      </trkpt>
      <trkpt lat="49.38831" lon="4.00123">
        <ele>108</ele>
        <time>2019-05-29T16:28:18Z</time>
      </trkpt>
      <trkpt lat="49.38835" lon="4.00113">
        <ele>108</ele>
        <time>2019-05-29T16:28:19Z</time>
      </trkpt>
      <trkpt lat="49.3884" lon="4.00103">
        <ele>108</ele>
        <time>2019-05-29T16:28:20Z</time>
      </trkpt>
      <trkpt lat="49.38845" lon="4.00093">
        <ele>108</ele>
        <time>2019-05-29T16:28:21Z</time>
      </trkpt>
      <trkpt lat="49.3885" lon="4.00084">
        <ele>108</ele>
        <time>2019-05-29T16:28:22Z</time>
      </trkpt>
      <trkpt lat="49.38855" lon="4.00075">
        <ele>108</ele>
        <time>2019-05-29T16:28:23Z</time>
      </trkpt>
      <trkpt lat="49.38859" lon="4.00066">
        <ele>108</ele>
        <time>2019-05-29T16:28:24Z</time>
      </trkpt>
      <trkpt lat="49.38864" lon="4.00057">
        <ele>108</ele>
        <time>2019-05-29T16:28:25Z</time>
      </trkpt>
      <trkpt lat="49.38869" lon="4.00048">
        <ele>108</ele>
        <time>2019-05-29T16:28:26Z</time>
      </trkpt>
      <trkpt lat="49.38874" lon="4.00038">
        <ele>108</ele>
        <time>2019-05-29T16:28:27Z</time>
      </trkpt>
      <trkpt lat="49.38879" lon="4.00029">
        <ele>108</ele>
        <time>2019-05-29T16:28:28Z</time>
      </trkpt>
      <trkpt lat="49.38883" lon="4.00019">
        <ele>108</ele>
        <time>2019-05-29T16:28:29Z</time>
      </trkpt>
      <trkpt lat="49.38888" lon="4.0001">
        <ele>108</ele>
        <time>2019-05-29T16:28:30Z</time>
      </trkpt>
      <trkpt lat="49.38893" lon="4.00001">
        <ele>108</ele>
        <time>2019-05-29T16:28:31Z</time>
      </trkpt>
      <trkpt lat="49.38898" lon="3.99991">
        <ele>108</ele>
        <time>2019-05-29T16:28:32Z</time>
      </trkpt>
      <trkpt lat="49.38903" lon="3.99982">
        <ele>108</ele>
        <time>2019-05-29T16:28:33Z</time>
      </trkpt>
      <trkpt lat="49.38908" lon="3.99972">
        <ele>108</ele>
        <time>2019-05-29T16:28:34Z</time>
      </trkpt>
      <trkpt lat="49.38912" lon="3.99963">
        <ele>108</ele>
        <time>2019-05-29T16:28:35Z</time>
      </trkpt>
      <trkpt lat="49.38917" lon="3.99954">
        <ele>108</ele>
        <time>2019-05-29T16:28:36Z</time>
      </trkpt>
      <trkpt lat="49.38922" lon="3.99945">
        <ele>108</ele>
        <time>2019-05-29T16:28:37Z</time>
      </trkpt>
      <trkpt lat="49.38926" lon="3.99936">
        <ele>108</ele>
        <time>2019-05-29T16:28:38Z</time>
      </trkpt>
      <trkpt lat="49.38931" lon="3.99927">
        <ele>108</ele>
        <time>2019-05-29T16:28:39Z</time>
      </trkpt>
      <trkpt lat="49.38936" lon="3.99918">
        <ele>108</ele>
        <time>2019-05-29T16:28:40Z</time>
      </trkpt>
      <trkpt lat="49.3894" lon="3.9991">
        <ele>108</ele>
        <time>2019-05-29T16:28:41Z</time>
      </trkpt>
      <trkpt lat="49.38945" lon="3.99901">
        <ele>108</ele>
        <time>2019-05-29T16:28:42Z</time>
      </trkpt>
      <trkpt lat="49.38949" lon="3.99892">
        <ele>108</ele>
        <time>2019-05-29T16:28:43Z</time>
      </trkpt>
      <trkpt lat="49.38954" lon="3.99883">
        <ele>108</ele>
        <time>2019-05-29T16:28:44Z</time>
      </trkpt>
      <trkpt lat="49.38959" lon="3.99874">
        <ele>108</ele>
        <time>2019-05-29T16:28:45Z</time>
      </trkpt>
      <trkpt lat="49.38968" lon="3.99856">
        <ele>108</ele>
        <time>2019-05-29T16:28:47Z</time>
      </trkpt>
      <trkpt lat="49.38973" lon="3.99847">
        <ele>108</ele>
        <time>2019-05-29T16:28:48Z</time>
      </trkpt>
      <trkpt lat="49.38978" lon="3.99838">
        <ele>108</ele>
        <time>2019-05-29T16:28:49Z</time>
      </trkpt>
      <trkpt lat="49.38982" lon="3.9983">
        <ele>108</ele>
        <time>2019-05-29T16:28:50Z</time>
      </trkpt>
      <trkpt lat="49.38987" lon="3.99821">
        <ele>108</ele>
        <time>2019-05-29T16:28:51Z</time>
      </trkpt>
      <trkpt lat="49.38992" lon="3.99812">
        <ele>108</ele>
        <time>2019-05-29T16:28:52Z</time>
      </trkpt>
      <trkpt lat="49.38997" lon="3.99803">
        <ele>108</ele>
        <time>2019-05-29T16:28:53Z</time>
      </trkpt>
      <trkpt lat="49.39002" lon="3.99795">
        <ele>108</ele>
        <time>2019-05-29T16:28:54Z</time>
      </trkpt>
      <trkpt lat="49.39007" lon="3.99787">
        <ele>108</ele>
        <time>2019-05-29T16:28:55Z</time>
      </trkpt>
      <trkpt lat="49.39012" lon="3.9978">
        <ele>108</ele>
        <time>2019-05-29T16:28:56Z</time>
      </trkpt>
      <trkpt lat="49.39017" lon="3.99772">
        <ele>108</ele>
        <time>2019-05-29T16:28:57Z</time>
      </trkpt>
      <trkpt lat="49.39023" lon="3.99764">
        <ele>108</ele>
        <time>2019-05-29T16:28:58Z</time>
      </trkpt>
      <trkpt lat="49.39029" lon="3.99756">
        <ele>108</ele>
        <time>2019-05-29T16:28:59Z</time>
      </trkpt>
      <trkpt lat="49.39034" lon="3.99749">
        <ele>108</ele>
        <time>2019-05-29T16:29:00Z</time>
      </trkpt>
      <trkpt lat="49.3904" lon="3.99741">
        <ele>108</ele>
        <time>2019-05-29T16:29:01Z</time>
      </trkpt>
      <trkpt lat="49.39046" lon="3.99734">
        <ele>108</ele>
        <time>2019-05-29T16:29:02Z</time>
      </trkpt>
      <trkpt lat="49.39051" lon="3.99726">
        <ele>109</ele>
        <time>2019-05-29T16:29:03Z</time>
      </trkpt>
      <trkpt lat="49.39056" lon="3.99718">
        <ele>108</ele>
        <time>2019-05-29T16:29:04Z</time>
      </trkpt>
      <trkpt lat="49.39061" lon="3.99711">
        <ele>108</ele>
        <time>2019-05-29T16:29:05Z</time>
      </trkpt>
      <trkpt lat="49.39067" lon="3.99704">
        <ele>109</ele>
        <time>2019-05-29T16:29:06Z</time>
      </trkpt>
      <trkpt lat="49.39072" lon="3.99696">
        <ele>109</ele>
        <time>2019-05-29T16:29:07Z</time>
      </trkpt>
      <trkpt lat="49.39077" lon="3.99689">
        <ele>109</ele>
        <time>2019-05-29T16:29:08Z</time>
      </trkpt>
      <trkpt lat="49.39082" lon="3.99681">
        <ele>109</ele>
        <time>2019-05-29T16:29:09Z</time>
      </trkpt>
      <trkpt lat="49.39087" lon="3.99673">
        <ele>109</ele>
        <time>2019-05-29T16:29:10Z</time>
      </trkpt>
      <trkpt lat="49.39092" lon="3.99665">
        <ele>109</ele>
        <time>2019-05-29T16:29:11Z</time>
      </trkpt>
      <trkpt lat="49.39097" lon="3.99657">
        <ele>109</ele>
        <time>2019-05-29T16:29:12Z</time>
      </trkpt>
      <trkpt lat="49.39101" lon="3.99648">
        <ele>109</ele>
        <time>2019-05-29T16:29:13Z</time>
      </trkpt>
      <trkpt lat="49.39105" lon="3.99638">
        <ele>109</ele>
        <time>2019-05-29T16:29:14Z</time>
      </trkpt>
      <trkpt lat="49.39109" lon="3.99628">
        <ele>109</ele>
        <time>2019-05-29T16:29:15Z</time>
      </trkpt>
      <trkpt lat="49.39113" lon="3.99619">
        <ele>109</ele>
        <time>2019-05-29T16:29:16Z</time>
      </trkpt>
      <trkpt lat="49.39117" lon="3.99609">
        <ele>109</ele>
        <time>2019-05-29T16:29:17Z</time>
      </trkpt>
      <trkpt lat="49.39121" lon="3.996">
        <ele>109</ele>
        <time>2019-05-29T16:29:18Z</time>
      </trkpt>
      <trkpt lat="49.39125" lon="3.9959">
        <ele>109</ele>
        <time>2019-05-29T16:29:19Z</time>
      </trkpt>
      <trkpt lat="49.39128" lon="3.9958">
        <ele>109</ele>
        <time>2019-05-29T16:29:20Z</time>
      </trkpt>
      <trkpt lat="49.39132" lon="3.9957">
        <ele>109</ele>
        <time>2019-05-29T16:29:21Z</time>
      </trkpt>
      <trkpt lat="49.39136" lon="3.9956">
        <ele>110</ele>
        <time>2019-05-29T16:29:22Z</time>
      </trkpt>
      <trkpt lat="49.3914" lon="3.99551">
        <ele>109</ele>
        <time>2019-05-29T16:29:23Z</time>
      </trkpt>
      <trkpt lat="49.39144" lon="3.99541">
        <ele>109</ele>
        <time>2019-05-29T16:29:24Z</time>
      </trkpt>
      <trkpt lat="49.39147" lon="3.99532">
        <ele>110</ele>
        <time>2019-05-29T16:29:25Z</time>
      </trkpt>
      <trkpt lat="49.39151" lon="3.99523">
        <ele>109</ele>
        <time>2019-05-29T16:29:26Z</time>
      </trkpt>
      <trkpt lat="49.39155" lon="3.99513">
        <ele>109</ele>
        <time>2019-05-29T16:29:27Z</time>
      </trkpt>
      <trkpt lat="49.39158" lon="3.99504">
        <ele>109</ele>
        <time>2019-05-29T16:29:28Z</time>
      </trkpt>
      <trkpt lat="49.39162" lon="3.99494">
        <ele>109</ele>
        <time>2019-05-29T16:29:29Z</time>
      </trkpt>
      <trkpt lat="49.39166" lon="3.99484">
        <ele>110</ele>
        <time>2019-05-29T16:29:30Z</time>
      </trkpt>
      <trkpt lat="49.3917" lon="3.99475">
        <ele>110</ele>
        <time>2019-05-29T16:29:31Z</time>
      </trkpt>
      <trkpt lat="49.39173" lon="3.99465">
        <ele>110</ele>
        <time>2019-05-29T16:29:32Z</time>
      </trkpt>
      <trkpt lat="49.39177" lon="3.99457">
        <ele>110</ele>
        <time>2019-05-29T16:29:33Z</time>
      </trkpt>
      <trkpt lat="49.3918" lon="3.99448">
        <ele>110</ele>
        <time>2019-05-29T16:29:34Z</time>
      </trkpt>
      <trkpt lat="49.39184" lon="3.99439">
        <ele>109</ele>
        <time>2019-05-29T16:29:35Z</time>
      </trkpt>
      <trkpt lat="49.39187" lon="3.9943">
        <ele>109</ele>
        <time>2019-05-29T16:29:36Z</time>
      </trkpt>
      <trkpt lat="49.39191" lon="3.99421">
        <ele>109</ele>
        <time>2019-05-29T16:29:37Z</time>
      </trkpt>
      <trkpt lat="49.39195" lon="3.99412">
        <ele>109</ele>
        <time>2019-05-29T16:29:38Z</time>
      </trkpt>
      <trkpt lat="49.39199" lon="3.99402">
        <ele>109</ele>
        <time>2019-05-29T16:29:39Z</time>
      </trkpt>
      <trkpt lat="49.39202" lon="3.99393">
        <ele>109</ele>
        <time>2019-05-29T16:29:40Z</time>
      </trkpt>
      <trkpt lat="49.39206" lon="3.99384">
        <ele>109</ele>
        <time>2019-05-29T16:29:41Z</time>
      </trkpt>
      <trkpt lat="49.3921" lon="3.99375">
        <ele>109</ele>
        <time>2019-05-29T16:29:42Z</time>
      </trkpt>
      <trkpt lat="49.39214" lon="3.99366">
        <ele>109</ele>
        <time>2019-05-29T16:29:43Z</time>
      </trkpt>
      <trkpt lat="49.39218" lon="3.99358">
        <ele>109</ele>
        <time>2019-05-29T16:29:44Z</time>
      </trkpt>
      <trkpt lat="49.39222" lon="3.9935">
        <ele>109</ele>
        <time>2019-05-29T16:29:45Z</time>
      </trkpt>
      <trkpt lat="49.39226" lon="3.99341">
        <ele>109</ele>
        <time>2019-05-29T16:29:46Z</time>
      </trkpt>
      <trkpt lat="49.39229" lon="3.99333">
        <ele>109</ele>
        <time>2019-05-29T16:29:47Z</time>
      </trkpt>
      <trkpt lat="49.39233" lon="3.99325">
        <ele>109</ele>
        <time>2019-05-29T16:29:48Z</time>
      </trkpt>
      <trkpt lat="49.39237" lon="3.99317">
        <ele>109</ele>
        <time>2019-05-29T16:29:49Z</time>
      </trkpt>
      <trkpt lat="49.39241" lon="3.99309">
        <ele>109</ele>
        <time>2019-05-29T16:29:50Z</time>
      </trkpt>
      <trkpt lat="49.39244" lon="3.99301">
        <ele>109</ele>
        <time>2019-05-29T16:29:51Z</time>
      </trkpt>
      <trkpt lat="49.39248" lon="3.99293">
        <ele>109</ele>
        <time>2019-05-29T16:29:52Z</time>
      </trkpt>
      <trkpt lat="49.39252" lon="3.99285">
        <ele>109</ele>
        <time>2019-05-29T16:29:53Z</time>
      </trkpt>
      <trkpt lat="49.39256" lon="3.99277">
        <ele>109</ele>
        <time>2019-05-29T16:29:54Z</time>
      </trkpt>
      <trkpt lat="49.3926" lon="3.99269">
        <ele>109</ele>
        <time>2019-05-29T16:29:55Z</time>
      </trkpt>
      <trkpt lat="49.39264" lon="3.9926">
        <ele>109</ele>
        <time>2019-05-29T16:29:56Z</time>
      </trkpt>
      <trkpt lat="49.39268" lon="3.99252">
        <ele>109</ele>
        <time>2019-05-29T16:29:57Z</time>
      </trkpt>
      <trkpt lat="49.39272" lon="3.99244">
        <ele>109</ele>
        <time>2019-05-29T16:29:58Z</time>
      </trkpt>
      <trkpt lat="49.39276" lon="3.99236">
        <ele>109</ele>
        <time>2019-05-29T16:29:59Z</time>
      </trkpt>
      <trkpt lat="49.3928" lon="3.99228">
        <ele>109</ele>
        <time>2019-05-29T16:30:00Z</time>
      </trkpt>
      <trkpt lat="49.39284" lon="3.99219">
        <ele>109</ele>
        <time>2019-05-29T16:30:01Z</time>
      </trkpt>
      <trkpt lat="49.39288" lon="3.99211">
        <ele>108</ele>
        <time>2019-05-29T16:30:02Z</time>
      </trkpt>
      <trkpt lat="49.39293" lon="3.99202">
        <ele>108</ele>
        <time>2019-05-29T16:30:03Z</time>
      </trkpt>
      <trkpt lat="49.39297" lon="3.99192">
        <ele>108</ele>
        <time>2019-05-29T16:30:04Z</time>
      </trkpt>
      <trkpt lat="49.39302" lon="3.99183">
        <ele>108</ele>
        <time>2019-05-29T16:30:05Z</time>
      </trkpt>
      <trkpt lat="49.39306" lon="3.99174">
        <ele>108</ele>
        <time>2019-05-29T16:30:06Z</time>
      </trkpt>
      <trkpt lat="49.39311" lon="3.99166">
        <ele>108</ele>
        <time>2019-05-29T16:30:07Z</time>
      </trkpt>
      <trkpt lat="49.39316" lon="3.99158">
        <ele>108</ele>
        <time>2019-05-29T16:30:08Z</time>
      </trkpt>
      <trkpt lat="49.39322" lon="3.9915">
        <ele>108</ele>
        <time>2019-05-29T16:30:09Z</time>
      </trkpt>
      <trkpt lat="49.39328" lon="3.99143">
        <ele>107</ele>
        <time>2019-05-29T16:30:10Z</time>
      </trkpt>
      <trkpt lat="49.39335" lon="3.99137">
        <ele>107</ele>
        <time>2019-05-29T16:30:11Z</time>
      </trkpt>
      <trkpt lat="49.39342" lon="3.99131">
        <ele>107</ele>
        <time>2019-05-29T16:30:12Z</time>
      </trkpt>
      <trkpt lat="49.3935" lon="3.99127">
        <ele>107</ele>
        <time>2019-05-29T16:30:13Z</time>
      </trkpt>
      <trkpt lat="49.39359" lon="3.99125">
        <ele>107</ele>
        <time>2019-05-29T16:30:14Z</time>
      </trkpt>
      <trkpt lat="49.39368" lon="3.99124">
        <ele>107</ele>
        <time>2019-05-29T16:30:15Z</time>
      </trkpt>
      <trkpt lat="49.39376" lon="3.99123">
        <ele>107</ele>
        <time>2019-05-29T16:30:16Z</time>
      </trkpt>
      <trkpt lat="49.39385" lon="3.99123">
        <ele>106</ele>
        <time>2019-05-29T16:30:17Z</time>
      </trkpt>
      <trkpt lat="49.39394" lon="3.99124">
        <ele>107</ele>
        <time>2019-05-29T16:30:18Z</time>
      </trkpt>
      <trkpt lat="49.39402" lon="3.99125">
        <ele>106</ele>
        <time>2019-05-29T16:30:19Z</time>
      </trkpt>
      <trkpt lat="49.3941" lon="3.99126">
        <ele>106</ele>
        <time>2019-05-29T16:30:20Z</time>
      </trkpt>
      <trkpt lat="49.39419" lon="3.99126">
        <ele>106</ele>
        <time>2019-05-29T16:30:21Z</time>
      </trkpt>
      <trkpt lat="49.39427" lon="3.99127">
        <ele>106</ele>
        <time>2019-05-29T16:30:22Z</time>
      </trkpt>
      <trkpt lat="49.39435" lon="3.99128">
        <ele>106</ele>
        <time>2019-05-29T16:30:23Z</time>
      </trkpt>
      <trkpt lat="49.39443" lon="3.99128">
        <ele>106</ele>
        <time>2019-05-29T16:30:24Z</time>
      </trkpt>
      <trkpt lat="49.39451" lon="3.99129">
        <ele>105</ele>
        <time>2019-05-29T16:30:25Z</time>
      </trkpt>
      <trkpt lat="49.39459" lon="3.9913">
        <ele>105</ele>
        <time>2019-05-29T16:30:26Z</time>
      </trkpt>
      <trkpt lat="49.39466" lon="3.99131">
        <ele>105</ele>
        <time>2019-05-29T16:30:27Z</time>
      </trkpt>
      <trkpt lat="49.39474" lon="3.99132">
        <ele>105</ele>
        <time>2019-05-29T16:30:28Z</time>
      </trkpt>
      <trkpt lat="49.39481" lon="3.99132">
        <ele>105</ele>
        <time>2019-05-29T16:30:29Z</time>
      </trkpt>
      <trkpt lat="49.39488" lon="3.99133">
        <ele>105</ele>
        <time>2019-05-29T16:30:30Z</time>
      </trkpt>
      <trkpt lat="49.39495" lon="3.99133">
        <ele>105</ele>
        <time>2019-05-29T16:30:31Z</time>
      </trkpt>
      <trkpt lat="49.39502" lon="3.99134">
        <ele>105</ele>
        <time>2019-05-29T16:30:32Z</time>
      </trkpt>
      <trkpt lat="49.3951" lon="3.99135">
        <ele>105</ele>
        <time>2019-05-29T16:30:33Z</time>
      </trkpt>
      <trkpt lat="49.39517" lon="3.99136">
        <ele>106</ele>
        <time>2019-05-29T16:30:34Z</time>
      </trkpt>
      <trkpt lat="49.39523" lon="3.99137">
        <ele>106</ele>
        <time>2019-05-29T16:30:35Z</time>
      </trkpt>
      <trkpt lat="49.3953" lon="3.99138">
        <ele>106</ele>
        <time>2019-05-29T16:30:36Z</time>
      </trkpt>
      <trkpt lat="49.39537" lon="3.99138">
        <ele>106</ele>
        <time>2019-05-29T16:30:37Z</time>
      </trkpt>
      <trkpt lat="49.39544" lon="3.9914">
        <ele>106</ele>
        <time>2019-05-29T16:30:38Z</time>
      </trkpt>
      <trkpt lat="49.39551" lon="3.9914">
        <ele>106</ele>
        <time>2019-05-29T16:30:39Z</time>
      </trkpt>
      <trkpt lat="49.39558" lon="3.99141">
        <ele>106</ele>
        <time>2019-05-29T16:30:40Z</time>
      </trkpt>
      <trkpt lat="49.39564" lon="3.9914">
        <ele>106</ele>
        <time>2019-05-29T16:30:41Z</time>
      </trkpt>
      <trkpt lat="49.3957" lon="3.99137">
        <ele>106</ele>
        <time>2019-05-29T16:30:42Z</time>
      </trkpt>
      <trkpt lat="49.39576" lon="3.99131">
        <ele>106</ele>
        <time>2019-05-29T16:30:43Z</time>
      </trkpt>
      <trkpt lat="49.39581" lon="3.99123">
        <ele>107</ele>
        <time>2019-05-29T16:30:44Z</time>
      </trkpt>
      <trkpt lat="49.39585" lon="3.99113">
        <ele>106</ele>
        <time>2019-05-29T16:30:45Z</time>
      </trkpt>
      <trkpt lat="49.39587" lon="3.99103">
        <ele>105</ele>
        <time>2019-05-29T16:30:46Z</time>
      </trkpt>
      <trkpt lat="49.39589" lon="3.99092">
        <ele>105</ele>
        <time>2019-05-29T16:30:47Z</time>
      </trkpt>
      <trkpt lat="49.39591" lon="3.9908">
        <ele>105</ele>
        <time>2019-05-29T16:30:48Z</time>
      </trkpt>
      <trkpt lat="49.39594" lon="3.99069">
        <ele>104</ele>
        <time>2019-05-29T16:30:49Z</time>
      </trkpt>
      <trkpt lat="49.39597" lon="3.99059">
        <ele>104</ele>
        <time>2019-05-29T16:30:50Z</time>
      </trkpt>
      <trkpt lat="49.39599" lon="3.99049">
        <ele>104</ele>
        <time>2019-05-29T16:30:51Z</time>
      </trkpt>
      <trkpt lat="49.39602" lon="3.99039">
        <ele>104</ele>
        <time>2019-05-29T16:30:52Z</time>
      </trkpt>
      <trkpt lat="49.39605" lon="3.99029">
        <ele>104</ele>
        <time>2019-05-29T16:30:53Z</time>
      </trkpt>
      <trkpt lat="49.39609" lon="3.99021">
        <ele>104</ele>
        <time>2019-05-29T16:30:54Z</time>
      </trkpt>
      <trkpt lat="49.39613" lon="3.99012">
        <ele>105</ele>
        <time>2019-05-29T16:30:55Z</time>
      </trkpt>
      <trkpt lat="49.39618" lon="3.99003">
        <ele>105</ele>
        <time>2019-05-29T16:30:56Z</time>
      </trkpt>
      <trkpt lat="49.39622" lon="3.98993">
        <ele>105</ele>
        <time>2019-05-29T16:30:57Z</time>
      </trkpt>
      <trkpt lat="49.39626" lon="3.98984">
        <ele>104</ele>
        <time>2019-05-29T16:30:58Z</time>
      </trkpt>
      <trkpt lat="49.3963" lon="3.98975">
        <ele>104</ele>
        <time>2019-05-29T16:30:59Z</time>
      </trkpt>
      <trkpt lat="49.39634" lon="3.98966">
        <ele>104</ele>
        <time>2019-05-29T16:31:00Z</time>
      </trkpt>
      <trkpt lat="49.39638" lon="3.98957">
        <ele>104</ele>
        <time>2019-05-29T16:31:01Z</time>
      </trkpt>
      <trkpt lat="49.39642" lon="3.98948">
        <ele>105</ele>
        <time>2019-05-29T16:31:02Z</time>
      </trkpt>
      <trkpt lat="49.39646" lon="3.98939">
        <ele>104</ele>
        <time>2019-05-29T16:31:03Z</time>
      </trkpt>
      <trkpt lat="49.39649" lon="3.9893">
        <ele>104</ele>
        <time>2019-05-29T16:31:04Z</time>
      </trkpt>
      <trkpt lat="49.39653" lon="3.98921">
        <ele>104</ele>
        <time>2019-05-29T16:31:05Z</time>
      </trkpt>
      <trkpt lat="49.39656" lon="3.98911">
        <ele>105</ele>
        <time>2019-05-29T16:31:06Z</time>
      </trkpt>
      <trkpt lat="49.39659" lon="3.98901">
        <ele>105</ele>
        <time>2019-05-29T16:31:07Z</time>
      </trkpt>
      <trkpt lat="49.39662" lon="3.98891">
        <ele>105</ele>
        <time>2019-05-29T16:31:08Z</time>
      </trkpt>
      <trkpt lat="49.39666" lon="3.98881">
        <ele>105</ele>
        <time>2019-05-29T16:31:09Z</time>
      </trkpt>
      <trkpt lat="49.39669" lon="3.98871">
        <ele>105</ele>
        <time>2019-05-29T16:31:10Z</time>
      </trkpt>
      <trkpt lat="49.39672" lon="3.9886">
        <ele>105</ele>
        <time>2019-05-29T16:31:11Z</time>
      </trkpt>
      <trkpt lat="49.39675" lon="3.9885">
        <ele>105</ele>
        <time>2019-05-29T16:31:12Z</time>
      </trkpt>
      <trkpt lat="49.39678" lon="3.9884">
        <ele>105</ele>
        <time>2019-05-29T16:31:13Z</time>
      </trkpt>
      <trkpt lat="49.39682" lon="3.9883">
        <ele>104</ele>
        <time>2019-05-29T16:31:14Z</time>
      </trkpt>
      <trkpt lat="49.39686" lon="3.98819">
        <ele>104</ele>
        <time>2019-05-29T16:31:15Z</time>
      </trkpt>
      <trkpt lat="49.3969" lon="3.98809">
        <ele>105</ele>
        <time>2019-05-29T16:31:16Z</time>
      </trkpt>
      <trkpt lat="49.39694" lon="3.98799">
        <ele>105</ele>
        <time>2019-05-29T16:31:17Z</time>
      </trkpt>
      <trkpt lat="49.39698" lon="3.98788">
        <ele>105</ele>
        <time>2019-05-29T16:31:18Z</time>
      </trkpt>
      <trkpt lat="49.39702" lon="3.98778">
        <ele>104</ele>
        <time>2019-05-29T16:31:19Z</time>
      </trkpt>
      <trkpt lat="49.39706" lon="3.98768">
        <ele>105</ele>
        <time>2019-05-29T16:31:20Z</time>
      </trkpt>
      <trkpt lat="49.3971" lon="3.98758">
        <ele>104</ele>
        <time>2019-05-29T16:31:21Z</time>
      </trkpt>
      <trkpt lat="49.39714" lon="3.98748">
        <ele>104</ele>
        <time>2019-05-29T16:31:22Z</time>
      </trkpt>
      <trkpt lat="49.39718" lon="3.98738">
        <ele>104</ele>
        <time>2019-05-29T16:31:23Z</time>
      </trkpt>
      <trkpt lat="49.39722" lon="3.98727">
        <ele>104</ele>
        <time>2019-05-29T16:31:24Z</time>
      </trkpt>
      <trkpt lat="49.39726" lon="3.98717">
        <ele>104</ele>
        <time>2019-05-29T16:31:25Z</time>
      </trkpt>
      <trkpt lat="49.39731" lon="3.98707">
        <ele>104</ele>
        <time>2019-05-29T16:31:26Z</time>
      </trkpt>
      <trkpt lat="49.39735" lon="3.98697">
        <ele>104</ele>
        <time>2019-05-29T16:31:27Z</time>
      </trkpt>
      <trkpt lat="49.39739" lon="3.98688">
        <ele>104</ele>
        <time>2019-05-29T16:31:28Z</time>
      </trkpt>
      <trkpt lat="49.39743" lon="3.98678">
        <ele>104</ele>
        <time>2019-05-29T16:31:29Z</time>
      </trkpt>
      <trkpt lat="49.39748" lon="3.98669">
        <ele>104</ele>
        <time>2019-05-29T16:31:30Z</time>
      </trkpt>
      <trkpt lat="49.39752" lon="3.9866">
        <ele>104</ele>
        <time>2019-05-29T16:31:31Z</time>
      </trkpt>
      <trkpt lat="49.39756" lon="3.98649">
        <ele>104</ele>
        <time>2019-05-29T16:31:32Z</time>
      </trkpt>
      <trkpt lat="49.3976" lon="3.98639">
        <ele>104</ele>
        <time>2019-05-29T16:31:33Z</time>
      </trkpt>
      <trkpt lat="49.39765" lon="3.98629">
        <ele>104</ele>
        <time>2019-05-29T16:31:34Z</time>
      </trkpt>
      <trkpt lat="49.39769" lon="3.98619">
        <ele>104</ele>
        <time>2019-05-29T16:31:35Z</time>
      </trkpt>
      <trkpt lat="49.39773" lon="3.98609">
        <ele>104</ele>
        <time>2019-05-29T16:31:36Z</time>
      </trkpt>
      <trkpt lat="49.39777" lon="3.98599">
        <ele>104</ele>
        <time>2019-05-29T16:31:37Z</time>
      </trkpt>
      <trkpt lat="49.39781" lon="3.98589">
        <ele>104</ele>
        <time>2019-05-29T16:31:38Z</time>
      </trkpt>
      <trkpt lat="49.39785" lon="3.9858">
        <ele>105</ele>
        <time>2019-05-29T16:31:39Z</time>
      </trkpt>
      <trkpt lat="49.39789" lon="3.9857">
        <ele>105</ele>
        <time>2019-05-29T16:31:40Z</time>
      </trkpt>
      <trkpt lat="49.39794" lon="3.98561">
        <ele>105</ele>
        <time>2019-05-29T16:31:41Z</time>
      </trkpt>
      <trkpt lat="49.39797" lon="3.98552">
        <ele>105</ele>
        <time>2019-05-29T16:31:42Z</time>
      </trkpt>
      <trkpt lat="49.39801" lon="3.98544">
        <ele>105</ele>
        <time>2019-05-29T16:31:43Z</time>
      </trkpt>
      <trkpt lat="49.39805" lon="3.98535">
        <ele>105</ele>
        <time>2019-05-29T16:31:44Z</time>
      </trkpt>
      <trkpt lat="49.39809" lon="3.98526">
        <ele>104</ele>
        <time>2019-05-29T16:31:45Z</time>
      </trkpt>
      <trkpt lat="49.39813" lon="3.98517">
        <ele>104</ele>
        <time>2019-05-29T16:31:46Z</time>
      </trkpt>
      <trkpt lat="49.39816" lon="3.98509">
        <ele>104</ele>
        <time>2019-05-29T16:31:47Z</time>
      </trkpt>
      <trkpt lat="49.3982" lon="3.98499">
        <ele>104</ele>
        <time>2019-05-29T16:31:48Z</time>
      </trkpt>
      <trkpt lat="49.39824" lon="3.9849">
        <ele>104</ele>
        <time>2019-05-29T16:31:49Z</time>
      </trkpt>
      <trkpt lat="49.39828" lon="3.98482">
        <ele>104</ele>
        <time>2019-05-29T16:31:50Z</time>
      </trkpt>
      <trkpt lat="49.39832" lon="3.98473">
        <ele>104</ele>
        <time>2019-05-29T16:31:51Z</time>
      </trkpt>
      <trkpt lat="49.39837" lon="3.98463">
        <ele>104</ele>
        <time>2019-05-29T16:31:52Z</time>
      </trkpt>
      <trkpt lat="49.3984" lon="3.98454">
        <ele>104</ele>
        <time>2019-05-29T16:31:53Z</time>
      </trkpt>
      <trkpt lat="49.39844" lon="3.98445">
        <ele>104</ele>
        <time>2019-05-29T16:31:54Z</time>
      </trkpt>
      <trkpt lat="49.39848" lon="3.98436">
        <ele>104</ele>
        <time>2019-05-29T16:31:55Z</time>
      </trkpt>
      <trkpt lat="49.39852" lon="3.98427">
        <ele>105</ele>
        <time>2019-05-29T16:31:56Z</time>
      </trkpt>
      <trkpt lat="49.39856" lon="3.98419">
        <ele>104</ele>
        <time>2019-05-29T16:31:57Z</time>
      </trkpt>
      <trkpt lat="49.39859" lon="3.9841">
        <ele>104</ele>
        <time>2019-05-29T16:31:58Z</time>
      </trkpt>
      <trkpt lat="49.39863" lon="3.98401">
        <ele>104</ele>
        <time>2019-05-29T16:31:59Z</time>
      </trkpt>
      <trkpt lat="49.39867" lon="3.98392">
        <ele>104</ele>
        <time>2019-05-29T16:32:00Z</time>
      </trkpt>
      <trkpt lat="49.39871" lon="3.98383">
        <ele>104</ele>
        <time>2019-05-29T16:32:01Z</time>
      </trkpt>
      <trkpt lat="49.39875" lon="3.98373">
        <ele>104</ele>
        <time>2019-05-29T16:32:02Z</time>
      </trkpt>
      <trkpt lat="49.39879" lon="3.98363">
        <ele>104</ele>
        <time>2019-05-29T16:32:03Z</time>
      </trkpt>
      <trkpt lat="49.39882" lon="3.98353">
        <ele>104</ele>
        <time>2019-05-29T16:32:04Z</time>
      </trkpt>
      <trkpt lat="49.39886" lon="3.98343">
        <ele>104</ele>
        <time>2019-05-29T16:32:05Z</time>
      </trkpt>
      <trkpt lat="49.3989" lon="3.98332">
        <ele>103</ele>
        <time>2019-05-29T16:32:06Z</time>
      </trkpt>
      <trkpt lat="49.39894" lon="3.98322">
        <ele>103</ele>
        <time>2019-05-29T16:32:07Z</time>
      </trkpt>
      <trkpt lat="49.39898" lon="3.98312">
        <ele>103</ele>
        <time>2019-05-29T16:32:08Z</time>
      </trkpt>
      <trkpt lat="49.39902" lon="3.98301">
        <ele>103</ele>
        <time>2019-05-29T16:32:09Z</time>
      </trkpt>
      <trkpt lat="49.39906" lon="3.98291">
        <ele>103</ele>
        <time>2019-05-29T16:32:10Z</time>
      </trkpt>
      <trkpt lat="49.3991" lon="3.98281">
        <ele>103</ele>
        <time>2019-05-29T16:32:11Z</time>
      </trkpt>
      <trkpt lat="49.39913" lon="3.9827">
        <ele>103</ele>
        <time>2019-05-29T16:32:12Z</time>
      </trkpt>
      <trkpt lat="49.39917" lon="3.9826">
        <ele>103</ele>
        <time>2019-05-29T16:32:13Z</time>
      </trkpt>
      <trkpt lat="49.3992" lon="3.9825">
        <ele>103</ele>
        <time>2019-05-29T16:32:14Z</time>
      </trkpt>
      <trkpt lat="49.39924" lon="3.9824">
        <ele>103</ele>
        <time>2019-05-29T16:32:15Z</time>
      </trkpt>
      <trkpt lat="49.39927" lon="3.98231">
        <ele>103</ele>
        <time>2019-05-29T16:32:16Z</time>
      </trkpt>
      <trkpt lat="49.3993" lon="3.98222">
        <ele>103</ele>
        <time>2019-05-29T16:32:17Z</time>
      </trkpt>
      <trkpt lat="49.39934" lon="3.98213">
        <ele>103</ele>
        <time>2019-05-29T16:32:18Z</time>
      </trkpt>
      <trkpt lat="49.39937" lon="3.98204">
        <ele>103</ele>
        <time>2019-05-29T16:32:19Z</time>
      </trkpt>
      <trkpt lat="49.39941" lon="3.98195">
        <ele>103</ele>
        <time>2019-05-29T16:32:20Z</time>
      </trkpt>
      <trkpt lat="49.39945" lon="3.98184">
        <ele>103</ele>
        <time>2019-05-29T16:32:21Z</time>
      </trkpt>
      <trkpt lat="49.39948" lon="3.98175">
        <ele>103</ele>
        <time>2019-05-29T16:32:22Z</time>
      </trkpt>
      <trkpt lat="49.39952" lon="3.98165">
        <ele>103</ele>
        <time>2019-05-29T16:32:23Z</time>
      </trkpt>
      <trkpt lat="49.39955" lon="3.98155">
        <ele>103</ele>
        <time>2019-05-29T16:32:24Z</time>
      </trkpt>
      <trkpt lat="49.39959" lon="3.98146">
        <ele>103</ele>
        <time>2019-05-29T16:32:25Z</time>
      </trkpt>
      <trkpt lat="49.39962" lon="3.98137">
        <ele>103</ele>
        <time>2019-05-29T16:32:26Z</time>
      </trkpt>
      <trkpt lat="49.39965" lon="3.98128">
        <ele>103</ele>
        <time>2019-05-29T16:32:27Z</time>
      </trkpt>
      <trkpt lat="49.39969" lon="3.98119">
        <ele>104</ele>
        <time>2019-05-29T16:32:28Z</time>
      </trkpt>
      <trkpt lat="49.39972" lon="3.9811">
        <ele>104</ele>
        <time>2019-05-29T16:32:29Z</time>
      </trkpt>
      <trkpt lat="49.39976" lon="3.98102">
        <ele>104</ele>
        <time>2019-05-29T16:32:30Z</time>
      </trkpt>
      <trkpt lat="49.39979" lon="3.98093">
        <ele>104</ele>
        <time>2019-05-29T16:32:31Z</time>
      </trkpt>
      <trkpt lat="49.39982" lon="3.98084">
        <ele>104</ele>
        <time>2019-05-29T16:32:32Z</time>
      </trkpt>
      <trkpt lat="49.39986" lon="3.98075">
        <ele>104</ele>
        <time>2019-05-29T16:32:33Z</time>
      </trkpt>
      <trkpt lat="49.39989" lon="3.98066">
        <ele>104</ele>
        <time>2019-05-29T16:32:34Z</time>
      </trkpt>
      <trkpt lat="49.39992" lon="3.98056">
        <ele>104</ele>
        <time>2019-05-29T16:32:35Z</time>
      </trkpt>
      <trkpt lat="49.39996" lon="3.98048">
        <ele>104</ele>
        <time>2019-05-29T16:32:36Z</time>
      </trkpt>
      <trkpt lat="49.39999" lon="3.98039">
        <ele>104</ele>
        <time>2019-05-29T16:32:37Z</time>
      </trkpt>
      <trkpt lat="49.40003" lon="3.98029">
        <ele>104</ele>
        <time>2019-05-29T16:32:38Z</time>
      </trkpt>
      <trkpt lat="49.40006" lon="3.98019">
        <ele>104</ele>
        <time>2019-05-29T16:32:39Z</time>
      </trkpt>
      <trkpt lat="49.4001" lon="3.9801">
        <ele>104</ele>
        <time>2019-05-29T16:32:40Z</time>
      </trkpt>
      <trkpt lat="49.40014" lon="3.98">
        <ele>104</ele>
        <time>2019-05-29T16:32:41Z</time>
      </trkpt>
      <trkpt lat="49.40018" lon="3.9799">
        <ele>104</ele>
        <time>2019-05-29T16:32:42Z</time>
      </trkpt>
      <trkpt lat="49.40021" lon="3.97981">
        <ele>104</ele>
        <time>2019-05-29T16:32:43Z</time>
      </trkpt>
      <trkpt lat="49.40025" lon="3.97972">
        <ele>104</ele>
        <time>2019-05-29T16:32:44Z</time>
      </trkpt>
      <trkpt lat="49.40028" lon="3.97962">
        <ele>104</ele>
        <time>2019-05-29T16:32:45Z</time>
      </trkpt>
      <trkpt lat="49.40032" lon="3.97953">
        <ele>104</ele>
        <time>2019-05-29T16:32:46Z</time>
      </trkpt>
      <trkpt lat="49.40035" lon="3.97943">
        <ele>104</ele>
        <time>2019-05-29T16:32:47Z</time>
      </trkpt>
      <trkpt lat="49.40038" lon="3.97933">
        <ele>104</ele>
        <time>2019-05-29T16:32:48Z</time>
      </trkpt>
      <trkpt lat="49.40042" lon="3.97925">
        <ele>104</ele>
        <time>2019-05-29T16:32:49Z</time>
      </trkpt>
      <trkpt lat="49.40045" lon="3.97916">
        <ele>104</ele>
        <time>2019-05-29T16:32:50Z</time>
      </trkpt>
      <trkpt lat="49.40048" lon="3.97908">
        <ele>104</ele>
        <time>2019-05-29T16:32:51Z</time>
      </trkpt>
      <trkpt lat="49.40051" lon="3.97899">
        <ele>104</ele>
        <time>2019-05-29T16:32:52Z</time>
      </trkpt>
      <trkpt lat="49.40054" lon="3.9789">
        <ele>104</ele>
        <time>2019-05-29T16:32:53Z</time>
      </trkpt>
      <trkpt lat="49.40058" lon="3.9788">
        <ele>104</ele>
        <time>2019-05-29T16:32:54Z</time>
      </trkpt>
      <trkpt lat="49.40061" lon="3.97871">
        <ele>104</ele>
        <time>2019-05-29T16:32:55Z</time>
      </trkpt>
      <trkpt lat="49.40064" lon="3.97863">
        <ele>104</ele>
        <time>2019-05-29T16:32:56Z</time>
      </trkpt>
      <trkpt lat="49.40068" lon="3.97853">
        <ele>105</ele>
        <time>2019-05-29T16:32:57Z</time>
      </trkpt>
      <trkpt lat="49.40072" lon="3.97844">
        <ele>104</ele>
        <time>2019-05-29T16:32:58Z</time>
      </trkpt>
      <trkpt lat="49.40075" lon="3.97834">
        <ele>104</ele>
        <time>2019-05-29T16:32:59Z</time>
      </trkpt>
      <trkpt lat="49.40079" lon="3.97825">
        <ele>104</ele>
        <time>2019-05-29T16:33:00Z</time>
      </trkpt>
      <trkpt lat="49.40082" lon="3.97816">
        <ele>104</ele>
        <time>2019-05-29T16:33:01Z</time>
      </trkpt>
      <trkpt lat="49.40086" lon="3.97807">
        <ele>104</ele>
        <time>2019-05-29T16:33:02Z</time>
      </trkpt>
      <trkpt lat="49.4009" lon="3.97798">
        <ele>104</ele>
        <time>2019-05-29T16:33:03Z</time>
      </trkpt>
      <trkpt lat="49.40093" lon="3.97788">
        <ele>104</ele>
        <time>2019-05-29T16:33:04Z</time>
      </trkpt>
      <trkpt lat="49.40097" lon="3.97779">
        <ele>103</ele>
        <time>2019-05-29T16:33:05Z</time>
      </trkpt>
      <trkpt lat="49.401" lon="3.9777">
        <ele>103</ele>
        <time>2019-05-29T16:33:06Z</time>
      </trkpt>
      <trkpt lat="49.40103" lon="3.9776">
        <ele>104</ele>
        <time>2019-05-29T16:33:07Z</time>
      </trkpt>
      <trkpt lat="49.40107" lon="3.97751">
        <ele>104</ele>
        <time>2019-05-29T16:33:08Z</time>
      </trkpt>
      <trkpt lat="49.40111" lon="3.97742">
        <ele>103</ele>
        <time>2019-05-29T16:33:09Z</time>
      </trkpt>
      <trkpt lat="49.40115" lon="3.97733">
        <ele>103</ele>
        <time>2019-05-29T16:33:10Z</time>
      </trkpt>
      <trkpt lat="49.40118" lon="3.97724">
        <ele>103</ele>
        <time>2019-05-29T16:33:11Z</time>
      </trkpt>
      <trkpt lat="49.40122" lon="3.97715">
        <ele>102</ele>
        <time>2019-05-29T16:33:12Z</time>
      </trkpt>
      <trkpt lat="49.40125" lon="3.97705">
        <ele>102</ele>
        <time>2019-05-29T16:33:13Z</time>
      </trkpt>
      <trkpt lat="49.40129" lon="3.97696">
        <ele>103</ele>
        <time>2019-05-29T16:33:14Z</time>
      </trkpt>
      <trkpt lat="49.40132" lon="3.97687">
        <ele>103</ele>
        <time>2019-05-29T16:33:15Z</time>
      </trkpt>
      <trkpt lat="49.40136" lon="3.97677">
        <ele>102</ele>
        <time>2019-05-29T16:33:16Z</time>
      </trkpt>
      <trkpt lat="49.40139" lon="3.97668">
        <ele>102</ele>
        <time>2019-05-29T16:33:17Z</time>
      </trkpt>
      <trkpt lat="49.40143" lon="3.97658">
        <ele>103</ele>
        <time>2019-05-29T16:33:18Z</time>
      </trkpt>
      <trkpt lat="49.40146" lon="3.97649">
        <ele>102</ele>
        <time>2019-05-29T16:33:19Z</time>
      </trkpt>
      <trkpt lat="49.40149" lon="3.97639">
        <ele>102</ele>
        <time>2019-05-29T16:33:20Z</time>
      </trkpt>
      <trkpt lat="49.4015" lon="3.97629">
        <ele>102</ele>
        <time>2019-05-29T16:33:21Z</time>
      </trkpt>
      <trkpt lat="49.40149" lon="3.97618">
        <ele>102</ele>
        <time>2019-05-29T16:33:22Z</time>
      </trkpt>
      <trkpt lat="49.40148" lon="3.97608">
        <ele>102</ele>
        <time>2019-05-29T16:33:23Z</time>
      </trkpt>
      <trkpt lat="49.40146" lon="3.97598">
        <ele>102</ele>
        <time>2019-05-29T16:33:24Z</time>
      </trkpt>
      <trkpt lat="49.40144" lon="3.97589">
        <ele>101</ele>
        <time>2019-05-29T16:33:25Z</time>
      </trkpt>
      <trkpt lat="49.40144" lon="3.97579">
        <ele>102</ele>
        <time>2019-05-29T16:33:26Z</time>
      </trkpt>
      <trkpt lat="49.40146" lon="3.97568">
        <ele>102</ele>
        <time>2019-05-29T16:33:27Z</time>
      </trkpt>
      <trkpt lat="49.40149" lon="3.97559">
        <ele>103</ele>
        <time>2019-05-29T16:33:28Z</time>
      </trkpt>
      <trkpt lat="49.40153" lon="3.97551">
        <ele>103</ele>
        <time>2019-05-29T16:33:29Z</time>
      </trkpt>
      <trkpt lat="49.40158" lon="3.97543">
        <ele>104</ele>
        <time>2019-05-29T16:33:30Z</time>
      </trkpt>
      <trkpt lat="49.40163" lon="3.97536">
        <ele>103</ele>
        <time>2019-05-29T16:33:31Z</time>
      </trkpt>
      <trkpt lat="49.40168" lon="3.97529">
        <ele>103</ele>
        <time>2019-05-29T16:33:32Z</time>
      </trkpt>
      <trkpt lat="49.40172" lon="3.97521">
        <ele>104</ele>
        <time>2019-05-29T16:33:33Z</time>
      </trkpt>
      <trkpt lat="49.40177" lon="3.97514">
        <ele>104</ele>
        <time>2019-05-29T16:33:34Z</time>
      </trkpt>
      <trkpt lat="49.40181" lon="3.97507">
        <ele>104</ele>
        <time>2019-05-29T16:33:35Z</time>
      </trkpt>
      <trkpt lat="49.40185" lon="3.97501">
        <ele>104</ele>
        <time>2019-05-29T16:33:36Z</time>
      </trkpt>
      <trkpt lat="49.4019" lon="3.97495">
        <ele>104</ele>
        <time>2019-05-29T16:33:37Z</time>
      </trkpt>
      <trkpt lat="49.40194" lon="3.97488">
        <ele>105</ele>
        <time>2019-05-29T16:33:38Z</time>
      </trkpt>
      <trkpt lat="49.40198" lon="3.97481">
        <ele>105</ele>
        <time>2019-05-29T16:33:39Z</time>
      </trkpt>
      <trkpt lat="49.40202" lon="3.97473">
        <ele>105</ele>
        <time>2019-05-29T16:33:40Z</time>
      </trkpt>
      <trkpt lat="49.40206" lon="3.97466">
        <ele>105</ele>
        <time>2019-05-29T16:33:41Z</time>
      </trkpt>
      <trkpt lat="49.40211" lon="3.97459">
        <ele>105</ele>
        <time>2019-05-29T16:33:42Z</time>
      </trkpt>
      <trkpt lat="49.40215" lon="3.97452">
        <ele>105</ele>
        <time>2019-05-29T16:33:43Z</time>
      </trkpt>
      <trkpt lat="49.40219" lon="3.97445">
        <ele>104</ele>
        <time>2019-05-29T16:33:44Z</time>
      </trkpt>
      <trkpt lat="49.40224" lon="3.97438">
        <ele>104</ele>
        <time>2019-05-29T16:33:45Z</time>
      </trkpt>
      <trkpt lat="49.40228" lon="3.97431">
        <ele>104</ele>
        <time>2019-05-29T16:33:46Z</time>
      </trkpt>
      <trkpt lat="49.40232" lon="3.97423">
        <ele>104</ele>
        <time>2019-05-29T16:33:47Z</time>
      </trkpt>
      <trkpt lat="49.40236" lon="3.97416">
        <ele>104</ele>
        <time>2019-05-29T16:33:48Z</time>
      </trkpt>
      <trkpt lat="49.4024" lon="3.97409">
        <ele>104</ele>
        <time>2019-05-29T16:33:49Z</time>
      </trkpt>
      <trkpt lat="49.40245" lon="3.97401">
        <ele>104</ele>
        <time>2019-05-29T16:33:50Z</time>
      </trkpt>
      <trkpt lat="49.4025" lon="3.97394">
        <ele>104</ele>
        <time>2019-05-29T16:33:51Z</time>
      </trkpt>
      <trkpt lat="49.40255" lon="3.97386">
        <ele>104</ele>
        <time>2019-05-29T16:33:52Z</time>
      </trkpt>
      <trkpt lat="49.40259" lon="3.97378">
        <ele>104</ele>
        <time>2019-05-29T16:33:53Z</time>
      </trkpt>
      <trkpt lat="49.40263" lon="3.97371">
        <ele>104</ele>
        <time>2019-05-29T16:33:54Z</time>
      </trkpt>
      <trkpt lat="49.40267" lon="3.97363">
        <ele>104</ele>
        <time>2019-05-29T16:33:55Z</time>
      </trkpt>
      <trkpt lat="49.40271" lon="3.97356">
        <ele>104</ele>
        <time>2019-05-29T16:33:56Z</time>
      </trkpt>
      <trkpt lat="49.40276" lon="3.97348">
        <ele>104</ele>
        <time>2019-05-29T16:33:57Z</time>
      </trkpt>
      <trkpt lat="49.40279" lon="3.97341">
        <ele>104</ele>
        <time>2019-05-29T16:33:58Z</time>
      </trkpt>
      <trkpt lat="49.40284" lon="3.97336">
        <ele>103</ele>
        <time>2019-05-29T16:33:59Z</time>
      </trkpt>
      <trkpt lat="49.40288" lon="3.97329">
        <ele>103</ele>
        <time>2019-05-29T16:34:00Z</time>
      </trkpt>
      <trkpt lat="49.40293" lon="3.97323">
        <ele>103</ele>
        <time>2019-05-29T16:34:01Z</time>
      </trkpt>
      <trkpt lat="49.40297" lon="3.97317">
        <ele>104</ele>
        <time>2019-05-29T16:34:02Z</time>
      </trkpt>
      <trkpt lat="49.40301" lon="3.9731">
        <ele>103</ele>
        <time>2019-05-29T16:34:03Z</time>
      </trkpt>
      <trkpt lat="49.40306" lon="3.97304">
        <ele>103</ele>
        <time>2019-05-29T16:34:04Z</time>
      </trkpt>
      <trkpt lat="49.4031" lon="3.97297">
        <ele>103</ele>
        <time>2019-05-29T16:34:05Z</time>
      </trkpt>
      <trkpt lat="49.40314" lon="3.9729">
        <ele>103</ele>
        <time>2019-05-29T16:34:06Z</time>
      </trkpt>
      <trkpt lat="49.40318" lon="3.97283">
        <ele>103</ele>
        <time>2019-05-29T16:34:07Z</time>
      </trkpt>
      <trkpt lat="49.40322" lon="3.97276">
        <ele>103</ele>
        <time>2019-05-29T16:34:08Z</time>
      </trkpt>
      <trkpt lat="49.40326" lon="3.97269">
        <ele>103</ele>
        <time>2019-05-29T16:34:09Z</time>
      </trkpt>
      <trkpt lat="49.40331" lon="3.97261">
        <ele>103</ele>
        <time>2019-05-29T16:34:10Z</time>
      </trkpt>
      <trkpt lat="49.40335" lon="3.97254">
        <ele>103</ele>
        <time>2019-05-29T16:34:11Z</time>
      </trkpt>
      <trkpt lat="49.40339" lon="3.97247">
        <ele>103</ele>
        <time>2019-05-29T16:34:12Z</time>
      </trkpt>
      <trkpt lat="49.40343" lon="3.97239">
        <ele>102</ele>
        <time>2019-05-29T16:34:13Z</time>
      </trkpt>
      <trkpt lat="49.40347" lon="3.97232">
        <ele>102</ele>
        <time>2019-05-29T16:34:14Z</time>
      </trkpt>
      <trkpt lat="49.40351" lon="3.97225">
        <ele>102</ele>
        <time>2019-05-29T16:34:15Z</time>
      </trkpt>
      <trkpt lat="49.40355" lon="3.97217">
        <ele>102</ele>
        <time>2019-05-29T16:34:16Z</time>
      </trkpt>
      <trkpt lat="49.4036" lon="3.9721">
        <ele>102</ele>
        <time>2019-05-29T16:34:17Z</time>
      </trkpt>
      <trkpt lat="49.40364" lon="3.97203">
        <ele>102</ele>
        <time>2019-05-29T16:34:18Z</time>
      </trkpt>
      <trkpt lat="49.40367" lon="3.97196">
        <ele>102</ele>
        <time>2019-05-29T16:34:19Z</time>
      </trkpt>
      <trkpt lat="49.40371" lon="3.97188">
        <ele>102</ele>
        <time>2019-05-29T16:34:20Z</time>
      </trkpt>
      <trkpt lat="49.40375" lon="3.9718">
        <ele>102</ele>
        <time>2019-05-29T16:34:21Z</time>
      </trkpt>
      <trkpt lat="49.40379" lon="3.97173">
        <ele>102</ele>
        <time>2019-05-29T16:34:22Z</time>
      </trkpt>
      <trkpt lat="49.40383" lon="3.97166">
        <ele>102</ele>
        <time>2019-05-29T16:34:23Z</time>
      </trkpt>
      <trkpt lat="49.40387" lon="3.97159">
        <ele>103</ele>
        <time>2019-05-29T16:34:24Z</time>
      </trkpt>
      <trkpt lat="49.40391" lon="3.97152">
        <ele>103</ele>
        <time>2019-05-29T16:34:25Z</time>
      </trkpt>
      <trkpt lat="49.40396" lon="3.97145">
        <ele>103</ele>
        <time>2019-05-29T16:34:26Z</time>
      </trkpt>
      <trkpt lat="49.40399" lon="3.97137">
        <ele>103</ele>
        <time>2019-05-29T16:34:27Z</time>
      </trkpt>
      <trkpt lat="49.40403" lon="3.97129">
        <ele>103</ele>
        <time>2019-05-29T16:34:28Z</time>
      </trkpt>
      <trkpt lat="49.40406" lon="3.97122">
        <ele>103</ele>
        <time>2019-05-29T16:34:29Z</time>
      </trkpt>
      <trkpt lat="49.4041" lon="3.97113">
        <ele>103</ele>
        <time>2019-05-29T16:34:30Z</time>
      </trkpt>
      <trkpt lat="49.40414" lon="3.97106">
        <ele>103</ele>
        <time>2019-05-29T16:34:31Z</time>
      </trkpt>
      <trkpt lat="49.40418" lon="3.97097">
        <ele>103</ele>
        <time>2019-05-29T16:34:32Z</time>
      </trkpt>
      <trkpt lat="49.40422" lon="3.9709">
        <ele>103</ele>
        <time>2019-05-29T16:34:33Z</time>
      </trkpt>
      <trkpt lat="49.40426" lon="3.97082">
        <ele>104</ele>
        <time>2019-05-29T16:34:34Z</time>
      </trkpt>
      <trkpt lat="49.40429" lon="3.97074">
        <ele>104</ele>
        <time>2019-05-29T16:34:35Z</time>
      </trkpt>
      <trkpt lat="49.40433" lon="3.97067">
        <ele>104</ele>
        <time>2019-05-29T16:34:36Z</time>
      </trkpt>
      <trkpt lat="49.40437" lon="3.9706">
        <ele>104</ele>
        <time>2019-05-29T16:34:37Z</time>
      </trkpt>
      <trkpt lat="49.40441" lon="3.97053">
        <ele>104</ele>
        <time>2019-05-29T16:34:38Z</time>
      </trkpt>
      <trkpt lat="49.40445" lon="3.97046">
        <ele>104</ele>
        <time>2019-05-29T16:34:39Z</time>
      </trkpt>
      <trkpt lat="49.40449" lon="3.97038">
        <ele>105</ele>
        <time>2019-05-29T16:34:40Z</time>
      </trkpt>
      <trkpt lat="49.40452" lon="3.97031">
        <ele>105</ele>
        <time>2019-05-29T16:34:41Z</time>
      </trkpt>
      <trkpt lat="49.40456" lon="3.97024">
        <ele>104</ele>
        <time>2019-05-29T16:34:42Z</time>
      </trkpt>
      <trkpt lat="49.40461" lon="3.97017">
        <ele>104</ele>
        <time>2019-05-29T16:34:43Z</time>
      </trkpt>
      <trkpt lat="49.40466" lon="3.9701">
        <ele>104</ele>
        <time>2019-05-29T16:34:44Z</time>
      </trkpt>
      <trkpt lat="49.40471" lon="3.97003">
        <ele>104</ele>
        <time>2019-05-29T16:34:45Z</time>
      </trkpt>
      <trkpt lat="49.40476" lon="3.96995">
        <ele>105</ele>
        <time>2019-05-29T16:34:46Z</time>
      </trkpt>
      <trkpt lat="49.40481" lon="3.96989">
        <ele>105</ele>
        <time>2019-05-29T16:34:47Z</time>
      </trkpt>
      <trkpt lat="49.40486" lon="3.96982">
        <ele>105</ele>
        <time>2019-05-29T16:34:48Z</time>
      </trkpt>
      <trkpt lat="49.40492" lon="3.96975">
        <ele>105</ele>
        <time>2019-05-29T16:34:49Z</time>
      </trkpt>
      <trkpt lat="49.40496" lon="3.96968">
        <ele>105</ele>
        <time>2019-05-29T16:34:50Z</time>
      </trkpt>
      <trkpt lat="49.40501" lon="3.96959">
        <ele>105</ele>
        <time>2019-05-29T16:34:51Z</time>
      </trkpt>
      <trkpt lat="49.40505" lon="3.96952">
        <ele>105</ele>
        <time>2019-05-29T16:34:52Z</time>
      </trkpt>
      <trkpt lat="49.4051" lon="3.96944">
        <ele>105</ele>
        <time>2019-05-29T16:34:53Z</time>
      </trkpt>
      <trkpt lat="49.40515" lon="3.96936">
        <ele>105</ele>
        <time>2019-05-29T16:34:54Z</time>
      </trkpt>
      <trkpt lat="49.4052" lon="3.96929">
        <ele>105</ele>
        <time>2019-05-29T16:34:55Z</time>
      </trkpt>
      <trkpt lat="49.40525" lon="3.96923">
        <ele>105</ele>
        <time>2019-05-29T16:34:56Z</time>
      </trkpt>
      <trkpt lat="49.4053" lon="3.96915">
        <ele>106</ele>
        <time>2019-05-29T16:34:57Z</time>
      </trkpt>
      <trkpt lat="49.40534" lon="3.96909">
        <ele>106</ele>
        <time>2019-05-29T16:34:58Z</time>
      </trkpt>
      <trkpt lat="49.40539" lon="3.96901">
        <ele>106</ele>
        <time>2019-05-29T16:34:59Z</time>
      </trkpt>
      <trkpt lat="49.40544" lon="3.96894">
        <ele>106</ele>
        <time>2019-05-29T16:35:00Z</time>
      </trkpt>
      <trkpt lat="49.40548" lon="3.96887">
        <ele>106</ele>
        <time>2019-05-29T16:35:01Z</time>
      </trkpt>
      <trkpt lat="49.40553" lon="3.9688">
        <ele>106</ele>
        <time>2019-05-29T16:35:02Z</time>
      </trkpt>
      <trkpt lat="49.40557" lon="3.96872">
        <ele>106</ele>
        <time>2019-05-29T16:35:03Z</time>
      </trkpt>
      <trkpt lat="49.40561" lon="3.96865">
        <ele>106</ele>
        <time>2019-05-29T16:35:04Z</time>
      </trkpt>
      <trkpt lat="49.40566" lon="3.96857">
        <ele>106</ele>
        <time>2019-05-29T16:35:05Z</time>
      </trkpt>
      <trkpt lat="49.4057" lon="3.96849">
        <ele>106</ele>
        <time>2019-05-29T16:35:06Z</time>
      </trkpt>
      <trkpt lat="49.40574" lon="3.96842">
        <ele>106</ele>
        <time>2019-05-29T16:35:07Z</time>
      </trkpt>
      <trkpt lat="49.40578" lon="3.96835">
        <ele>106</ele>
        <time>2019-05-29T16:35:08Z</time>
      </trkpt>
      <trkpt lat="49.40582" lon="3.96828">
        <ele>106</ele>
        <time>2019-05-29T16:35:09Z</time>
      </trkpt>
      <trkpt lat="49.40586" lon="3.96821">
        <ele>106</ele>
        <time>2019-05-29T16:35:10Z</time>
      </trkpt>
      <trkpt lat="49.4059" lon="3.96813">
        <ele>106</ele>
        <time>2019-05-29T16:35:11Z</time>
      </trkpt>
      <trkpt lat="49.40593" lon="3.96805">
        <ele>106</ele>
        <time>2019-05-29T16:35:12Z</time>
      </trkpt>
      <trkpt lat="49.40596" lon="3.96798">
        <ele>105</ele>
        <time>2019-05-29T16:35:13Z</time>
      </trkpt>
      <trkpt lat="49.40599" lon="3.96791">
        <ele>105</ele>
        <time>2019-05-29T16:35:14Z</time>
      </trkpt>
      <trkpt lat="49.40602" lon="3.96784">
        <ele>105</ele>
        <time>2019-05-29T16:35:15Z</time>
      </trkpt>
      <trkpt lat="49.40606" lon="3.96776">
        <ele>105</ele>
        <time>2019-05-29T16:35:16Z</time>
      </trkpt>
      <trkpt lat="49.4061" lon="3.96769">
        <ele>105</ele>
        <time>2019-05-29T16:35:17Z</time>
      </trkpt>
      <trkpt lat="49.40613" lon="3.96761">
        <ele>105</ele>
        <time>2019-05-29T16:35:18Z</time>
      </trkpt>
      <trkpt lat="49.40617" lon="3.96753">
        <ele>105</ele>
        <time>2019-05-29T16:35:19Z</time>
      </trkpt>
      <trkpt lat="49.40621" lon="3.96745">
        <ele>105</ele>
        <time>2019-05-29T16:35:20Z</time>
      </trkpt>
      <trkpt lat="49.40624" lon="3.96738">
        <ele>104</ele>
        <time>2019-05-29T16:35:21Z</time>
      </trkpt>
      <trkpt lat="49.40627" lon="3.96729">
        <ele>104</ele>
        <time>2019-05-29T16:35:22Z</time>
      </trkpt>
      <trkpt lat="49.4063" lon="3.96721">
        <ele>104</ele>
        <time>2019-05-29T16:35:23Z</time>
      </trkpt>
      <trkpt lat="49.40634" lon="3.96713">
        <ele>104</ele>
        <time>2019-05-29T16:35:24Z</time>
      </trkpt>
      <trkpt lat="49.40637" lon="3.96705">
        <ele>104</ele>
        <time>2019-05-29T16:35:25Z</time>
      </trkpt>
      <trkpt lat="49.40639" lon="3.96697">
        <ele>104</ele>
        <time>2019-05-29T16:35:26Z</time>
      </trkpt>
      <trkpt lat="49.40642" lon="3.96689">
        <ele>104</ele>
        <time>2019-05-29T16:35:27Z</time>
      </trkpt>
      <trkpt lat="49.40645" lon="3.96681">
        <ele>105</ele>
        <time>2019-05-29T16:35:28Z</time>
      </trkpt>
      <trkpt lat="49.40647" lon="3.96672">
        <ele>105</ele>
        <time>2019-05-29T16:35:29Z</time>
      </trkpt>
      <trkpt lat="49.40648" lon="3.96663">
        <ele>104</ele>
        <time>2019-05-29T16:35:30Z</time>
      </trkpt>
      <trkpt lat="49.40649" lon="3.96654">
        <ele>104</ele>
        <time>2019-05-29T16:35:31Z</time>
      </trkpt>
      <trkpt lat="49.40648" lon="3.96644">
        <ele>104</ele>
        <time>2019-05-29T16:35:32Z</time>
      </trkpt>
      <trkpt lat="49.40647" lon="3.96636">
        <ele>104</ele>
        <time>2019-05-29T16:35:33Z</time>
      </trkpt>
      <trkpt lat="49.40647" lon="3.96627">
        <ele>104</ele>
        <time>2019-05-29T16:35:34Z</time>
      </trkpt>
      <trkpt lat="49.40647" lon="3.96618">
        <ele>104</ele>
        <time>2019-05-29T16:35:35Z</time>
      </trkpt>
      <trkpt lat="49.40647" lon="3.9661">
        <ele>104</ele>
        <time>2019-05-29T16:35:36Z</time>
      </trkpt>
      <trkpt lat="49.40647" lon="3.96601">
        <ele>104</ele>
        <time>2019-05-29T16:35:37Z</time>
      </trkpt>
      <trkpt lat="49.40646" lon="3.96591">
        <ele>104</ele>
        <time>2019-05-29T16:35:38Z</time>
      </trkpt>
      <trkpt lat="49.40646" lon="3.96583">
        <ele>104</ele>
        <time>2019-05-29T16:35:39Z</time>
      </trkpt>
      <trkpt lat="49.40646" lon="3.96574">
        <ele>104</ele>
        <time>2019-05-29T16:35:40Z</time>
      </trkpt>
      <trkpt lat="49.40647" lon="3.96566">
        <ele>105</ele>
        <time>2019-05-29T16:35:41Z</time>
      </trkpt>
      <trkpt lat="49.40649" lon="3.96559">
        <ele>105</ele>
        <time>2019-05-29T16:35:42Z</time>
      </trkpt>
      <trkpt lat="49.40651" lon="3.96552">
        <ele>104</ele>
        <time>2019-05-29T16:35:43Z</time>
      </trkpt>
      <trkpt lat="49.40654" lon="3.96545">
        <ele>104</ele>
        <time>2019-05-29T16:35:44Z</time>
      </trkpt>
      <trkpt lat="49.40656" lon="3.96538">
        <ele>105</ele>
        <time>2019-05-29T16:35:45Z</time>
      </trkpt>
      <trkpt lat="49.4066" lon="3.96531">
        <ele>105</ele>
        <time>2019-05-29T16:35:46Z</time>
      </trkpt>
      <trkpt lat="49.40663" lon="3.96524">
        <ele>105</ele>
        <time>2019-05-29T16:35:47Z</time>
      </trkpt>
      <trkpt lat="49.40666" lon="3.96517">
        <ele>105</ele>
        <time>2019-05-29T16:35:48Z</time>
      </trkpt>
      <trkpt lat="49.40669" lon="3.96511">
        <ele>105</ele>
        <time>2019-05-29T16:35:49Z</time>
      </trkpt>
      <trkpt lat="49.40673" lon="3.96505">
        <ele>106</ele>
        <time>2019-05-29T16:35:50Z</time>
      </trkpt>
      <trkpt lat="49.40677" lon="3.96499">
        <ele>106</ele>
        <time>2019-05-29T16:35:51Z</time>
      </trkpt>
      <trkpt lat="49.40681" lon="3.96493">
        <ele>107</ele>
        <time>2019-05-29T16:35:52Z</time>
      </trkpt>
      <trkpt lat="49.40685" lon="3.96487">
        <ele>107</ele>
        <time>2019-05-29T16:35:53Z</time>
      </trkpt>
      <trkpt lat="49.40689" lon="3.96481">
        <ele>107</ele>
        <time>2019-05-29T16:35:54Z</time>
      </trkpt>
      <trkpt lat="49.40694" lon="3.96475">
        <ele>107</ele>
        <time>2019-05-29T16:35:55Z</time>
      </trkpt>
      <trkpt lat="49.40699" lon="3.96469">
        <ele>107</ele>
        <time>2019-05-29T16:35:56Z</time>
      </trkpt>
      <trkpt lat="49.40703" lon="3.96463">
        <ele>107</ele>
        <time>2019-05-29T16:35:57Z</time>
      </trkpt>
      <trkpt lat="49.40708" lon="3.96457">
        <ele>107</ele>
        <time>2019-05-29T16:35:58Z</time>
      </trkpt>
      <trkpt lat="49.40713" lon="3.96451">
        <ele>107</ele>
        <time>2019-05-29T16:35:59Z</time>
      </trkpt>
      <trkpt lat="49.40718" lon="3.96445">
        <ele>107</ele>
        <time>2019-05-29T16:36:00Z</time>
      </trkpt>
      <trkpt lat="49.40722" lon="3.96439">
        <ele>107</ele>
        <time>2019-05-29T16:36:01Z</time>
      </trkpt>
      <trkpt lat="49.40728" lon="3.96432">
        <ele>107</ele>
        <time>2019-05-29T16:36:02Z</time>
      </trkpt>
      <trkpt lat="49.40733" lon="3.96426">
        <ele>107</ele>
        <time>2019-05-29T16:36:03Z</time>
      </trkpt>
      <trkpt lat="49.40738" lon="3.9642">
        <ele>107</ele>
        <time>2019-05-29T16:36:04Z</time>
      </trkpt>
      <trkpt lat="49.40743" lon="3.96413">
        <ele>107</ele>
        <time>2019-05-29T16:36:05Z</time>
      </trkpt>
      <trkpt lat="49.40749" lon="3.96406">
        <ele>106</ele>
        <time>2019-05-29T16:36:06Z</time>
      </trkpt>
      <trkpt lat="49.40754" lon="3.96399">
        <ele>107</ele>
        <time>2019-05-29T16:36:07Z</time>
      </trkpt>
      <trkpt lat="49.40759" lon="3.96392">
        <ele>107</ele>
        <time>2019-05-29T16:36:08Z</time>
      </trkpt>
      <trkpt lat="49.40764" lon="3.96386">
        <ele>107</ele>
        <time>2019-05-29T16:36:09Z</time>
      </trkpt>
      <trkpt lat="49.40769" lon="3.9638">
        <ele>107</ele>
        <time>2019-05-29T16:36:10Z</time>
      </trkpt>
      <trkpt lat="49.40774" lon="3.96374">
        <ele>107</ele>
        <time>2019-05-29T16:36:11Z</time>
      </trkpt>
      <trkpt lat="49.4078" lon="3.96368">
        <ele>107</ele>
        <time>2019-05-29T16:36:12Z</time>
      </trkpt>
      <trkpt lat="49.40785" lon="3.96362">
        <ele>107</ele>
        <time>2019-05-29T16:36:13Z</time>
      </trkpt>
      <trkpt lat="49.4079" lon="3.96356">
        <ele>107</ele>
        <time>2019-05-29T16:36:14Z</time>
      </trkpt>
      <trkpt lat="49.40795" lon="3.96349">
        <ele>107</ele>
        <time>2019-05-29T16:36:15Z</time>
      </trkpt>
      <trkpt lat="49.408" lon="3.96342">
        <ele>106</ele>
        <time>2019-05-29T16:36:16Z</time>
      </trkpt>
      <trkpt lat="49.40806" lon="3.96335">
        <ele>106</ele>
        <time>2019-05-29T16:36:17Z</time>
      </trkpt>
      <trkpt lat="49.4081" lon="3.96328">
        <ele>106</ele>
        <time>2019-05-29T16:36:18Z</time>
      </trkpt>
      <trkpt lat="49.40815" lon="3.96321">
        <ele>106</ele>
        <time>2019-05-29T16:36:19Z</time>
      </trkpt>
      <trkpt lat="49.4082" lon="3.96314">
        <ele>106</ele>
        <time>2019-05-29T16:36:20Z</time>
      </trkpt>
      <trkpt lat="49.40825" lon="3.96308">
        <ele>106</ele>
        <time>2019-05-29T16:36:21Z</time>
      </trkpt>
      <trkpt lat="49.40831" lon="3.963">
        <ele>106</ele>
        <time>2019-05-29T16:36:22Z</time>
      </trkpt>
      <trkpt lat="49.40836" lon="3.96294">
        <ele>105</ele>
        <time>2019-05-29T16:36:23Z</time>
      </trkpt>
      <trkpt lat="49.40841" lon="3.96286">
        <ele>105</ele>
        <time>2019-05-29T16:36:24Z</time>
      </trkpt>
      <trkpt lat="49.40847" lon="3.9628">
        <ele>105</ele>
        <time>2019-05-29T16:36:25Z</time>
      </trkpt>
      <trkpt lat="49.40852" lon="3.96273">
        <ele>105</ele>
        <time>2019-05-29T16:36:26Z</time>
      </trkpt>
      <trkpt lat="49.40857" lon="3.96266">
        <ele>105</ele>
        <time>2019-05-29T16:36:27Z</time>
      </trkpt>
      <trkpt lat="49.40863" lon="3.9626">
        <ele>105</ele>
        <time>2019-05-29T16:36:28Z</time>
      </trkpt>
      <trkpt lat="49.40868" lon="3.96253">
        <ele>105</ele>
        <time>2019-05-29T16:36:29Z</time>
      </trkpt>
      <trkpt lat="49.40873" lon="3.96246">
        <ele>105</ele>
        <time>2019-05-29T16:36:30Z</time>
      </trkpt>
      <trkpt lat="49.40879" lon="3.96239">
        <ele>106</ele>
        <time>2019-05-29T16:36:31Z</time>
      </trkpt>
      <trkpt lat="49.40884" lon="3.96233">
        <ele>106</ele>
        <time>2019-05-29T16:36:32Z</time>
      </trkpt>
      <trkpt lat="49.40889" lon="3.96226">
        <ele>106</ele>
        <time>2019-05-29T16:36:33Z</time>
      </trkpt>
      <trkpt lat="49.40894" lon="3.96219">
        <ele>106</ele>
        <time>2019-05-29T16:36:34Z</time>
      </trkpt>
      <trkpt lat="49.40899" lon="3.96213">
        <ele>106</ele>
        <time>2019-05-29T16:36:35Z</time>
      </trkpt>
      <trkpt lat="49.40904" lon="3.96206">
        <ele>106</ele>
        <time>2019-05-29T16:36:36Z</time>
      </trkpt>
      <trkpt lat="49.4091" lon="3.96199">
        <ele>106</ele>
        <time>2019-05-29T16:36:37Z</time>
      </trkpt>
      <trkpt lat="49.40915" lon="3.96192">
        <ele>107</ele>
        <time>2019-05-29T16:36:38Z</time>
      </trkpt>
      <trkpt lat="49.4092" lon="3.96185">
        <ele>107</ele>
        <time>2019-05-29T16:36:39Z</time>
      </trkpt>
      <trkpt lat="49.40926" lon="3.96179">
        <ele>107</ele>
        <time>2019-05-29T16:36:40Z</time>
      </trkpt>
      <trkpt lat="49.40931" lon="3.96172">
        <ele>107</ele>
        <time>2019-05-29T16:36:41Z</time>
      </trkpt>
      <trkpt lat="49.40937" lon="3.96165">
        <ele>107</ele>
        <time>2019-05-29T16:36:42Z</time>
      </trkpt>
      <trkpt lat="49.40942" lon="3.96157">
        <ele>107</ele>
        <time>2019-05-29T16:36:43Z</time>
      </trkpt>
      <trkpt lat="49.40948" lon="3.9615">
        <ele>106</ele>
        <time>2019-05-29T16:36:44Z</time>
      </trkpt>
      <trkpt lat="49.40953" lon="3.96144">
        <ele>106</ele>
        <time>2019-05-29T16:36:45Z</time>
      </trkpt>
      <trkpt lat="49.40959" lon="3.96137">
        <ele>106</ele>
        <time>2019-05-29T16:36:46Z</time>
      </trkpt>
      <trkpt lat="49.40965" lon="3.9613">
        <ele>106</ele>
        <time>2019-05-29T16:36:47Z</time>
      </trkpt>
      <trkpt lat="49.4097" lon="3.96123">
        <ele>105</ele>
        <time>2019-05-29T16:36:48Z</time>
      </trkpt>
      <trkpt lat="49.40976" lon="3.96116">
        <ele>105</ele>
        <time>2019-05-29T16:36:49Z</time>
      </trkpt>
      <trkpt lat="49.40982" lon="3.96109">
        <ele>105</ele>
        <time>2019-05-29T16:36:50Z</time>
      </trkpt>
      <trkpt lat="49.40987" lon="3.96102">
        <ele>105</ele>
        <time>2019-05-29T16:36:51Z</time>
      </trkpt>
      <trkpt lat="49.40993" lon="3.96094">
        <ele>105</ele>
        <time>2019-05-29T16:36:52Z</time>
      </trkpt>
      <trkpt lat="49.40999" lon="3.96087">
        <ele>105</ele>
        <time>2019-05-29T16:36:53Z</time>
      </trkpt>
      <trkpt lat="49.41004" lon="3.9608">
        <ele>105</ele>
        <time>2019-05-29T16:36:54Z</time>
      </trkpt>
      <trkpt lat="49.4101" lon="3.96072">
        <ele>105</ele>
        <time>2019-05-29T16:36:55Z</time>
      </trkpt>
      <trkpt lat="49.41016" lon="3.96065">
        <ele>105</ele>
        <time>2019-05-29T16:36:56Z</time>
      </trkpt>
      <trkpt lat="49.41021" lon="3.96058">
        <ele>105</ele>
        <time>2019-05-29T16:36:57Z</time>
      </trkpt>
      <trkpt lat="49.41026" lon="3.9605">
        <ele>104</ele>
        <time>2019-05-29T16:36:58Z</time>
      </trkpt>
      <trkpt lat="49.41032" lon="3.96044">
        <ele>104</ele>
        <time>2019-05-29T16:36:59Z</time>
      </trkpt>
      <trkpt lat="49.41038" lon="3.96037">
        <ele>104</ele>
        <time>2019-05-29T16:37:00Z</time>
      </trkpt>
      <trkpt lat="49.41043" lon="3.9603">
        <ele>104</ele>
        <time>2019-05-29T16:37:01Z</time>
      </trkpt>
      <trkpt lat="49.41048" lon="3.96022">
        <ele>104</ele>
        <time>2019-05-29T16:37:02Z</time>
      </trkpt>
      <trkpt lat="49.41054" lon="3.96015">
        <ele>104</ele>
        <time>2019-05-29T16:37:03Z</time>
      </trkpt>
      <trkpt lat="49.41059" lon="3.96008">
        <ele>104</ele>
        <time>2019-05-29T16:37:04Z</time>
      </trkpt>
      <trkpt lat="49.41064" lon="3.96001">
        <ele>104</ele>
        <time>2019-05-29T16:37:05Z</time>
      </trkpt>
      <trkpt lat="49.41069" lon="3.95995">
        <ele>104</ele>
        <time>2019-05-29T16:37:06Z</time>
      </trkpt>
      <trkpt lat="49.41075" lon="3.95988">
        <ele>104</ele>
        <time>2019-05-29T16:37:07Z</time>
      </trkpt>
      <trkpt lat="49.4108" lon="3.95981">
        <ele>104</ele>
        <time>2019-05-29T16:37:08Z</time>
      </trkpt>
      <trkpt lat="49.41086" lon="3.95974">
        <ele>104</ele>
        <time>2019-05-29T16:37:09Z</time>
      </trkpt>
      <trkpt lat="49.41091" lon="3.95968">
        <ele>104</ele>
        <time>2019-05-29T16:37:10Z</time>
      </trkpt>
      <trkpt lat="49.41097" lon="3.95961">
        <ele>103</ele>
        <time>2019-05-29T16:37:11Z</time>
      </trkpt>
      <trkpt lat="49.41102" lon="3.95954">
        <ele>103</ele>
        <time>2019-05-29T16:37:12Z</time>
      </trkpt>
      <trkpt lat="49.41107" lon="3.95948">
        <ele>103</ele>
        <time>2019-05-29T16:37:13Z</time>
      </trkpt>
      <trkpt lat="49.41113" lon="3.9594">
        <ele>103</ele>
        <time>2019-05-29T16:37:14Z</time>
      </trkpt>
      <trkpt lat="49.41118" lon="3.95934">
        <ele>103</ele>
        <time>2019-05-29T16:37:15Z</time>
      </trkpt>
      <trkpt lat="49.41123" lon="3.95927">
        <ele>103</ele>
        <time>2019-05-29T16:37:16Z</time>
      </trkpt>
      <trkpt lat="49.41128" lon="3.9592">
        <ele>104</ele>
        <time>2019-05-29T16:37:17Z</time>
      </trkpt>
      <trkpt lat="49.41134" lon="3.95913">
        <ele>104</ele>
        <time>2019-05-29T16:37:18Z</time>
      </trkpt>
      <trkpt lat="49.41139" lon="3.95906">
        <ele>103</ele>
        <time>2019-05-29T16:37:19Z</time>
      </trkpt>
      <trkpt lat="49.41144" lon="3.95899">
        <ele>103</ele>
        <time>2019-05-29T16:37:20Z</time>
      </trkpt>
      <trkpt lat="49.41149" lon="3.95893">
        <ele>103</ele>
        <time>2019-05-29T16:37:21Z</time>
      </trkpt>
      <trkpt lat="49.41154" lon="3.95886">
        <ele>103</ele>
        <time>2019-05-29T16:37:22Z</time>
      </trkpt>
      <trkpt lat="49.41159" lon="3.9588">
        <ele>103</ele>
        <time>2019-05-29T16:37:23Z</time>
      </trkpt>
      <trkpt lat="49.41164" lon="3.95873">
        <ele>103</ele>
        <time>2019-05-29T16:37:24Z</time>
      </trkpt>
      <trkpt lat="49.4117" lon="3.95866">
        <ele>103</ele>
        <time>2019-05-29T16:37:25Z</time>
      </trkpt>
      <trkpt lat="49.41176" lon="3.95859">
        <ele>103</ele>
        <time>2019-05-29T16:37:26Z</time>
      </trkpt>
      <trkpt lat="49.41181" lon="3.95852">
        <ele>103</ele>
        <time>2019-05-29T16:37:27Z</time>
      </trkpt>
      <trkpt lat="49.41186" lon="3.95845">
        <ele>103</ele>
        <time>2019-05-29T16:37:28Z</time>
      </trkpt>
      <trkpt lat="49.41191" lon="3.95838">
        <ele>103</ele>
        <time>2019-05-29T16:37:29Z</time>
      </trkpt>
      <trkpt lat="49.41196" lon="3.95831">
        <ele>103</ele>
        <time>2019-05-29T16:37:30Z</time>
      </trkpt>
      <trkpt lat="49.41201" lon="3.95824">
        <ele>103</ele>
        <time>2019-05-29T16:37:31Z</time>
      </trkpt>
      <trkpt lat="49.41211" lon="3.95809">
        <ele>103</ele>
        <time>2019-05-29T16:37:33Z</time>
      </trkpt>
      <trkpt lat="49.41216" lon="3.95801">
        <ele>103</ele>
        <time>2019-05-29T16:37:34Z</time>
      </trkpt>
      <trkpt lat="49.41221" lon="3.95793">
        <ele>103</ele>
        <time>2019-05-29T16:37:35Z</time>
      </trkpt>
      <trkpt lat="49.41226" lon="3.95785">
        <ele>103</ele>
        <time>2019-05-29T16:37:36Z</time>
      </trkpt>
      <trkpt lat="49.4123" lon="3.95778">
        <ele>103</ele>
        <time>2019-05-29T16:37:37Z</time>
      </trkpt>
      <trkpt lat="49.41236" lon="3.9577">
        <ele>103</ele>
        <time>2019-05-29T16:37:38Z</time>
      </trkpt>
      <trkpt lat="49.4124" lon="3.95763">
        <ele>103</ele>
        <time>2019-05-29T16:37:39Z</time>
      </trkpt>
      <trkpt lat="49.41245" lon="3.95755">
        <ele>102</ele>
        <time>2019-05-29T16:37:40Z</time>
      </trkpt>
      <trkpt lat="49.4125" lon="3.95747">
        <ele>102</ele>
        <time>2019-05-29T16:37:41Z</time>
      </trkpt>
      <trkpt lat="49.41255" lon="3.95739">
        <ele>102</ele>
        <time>2019-05-29T16:37:42Z</time>
      </trkpt>
      <trkpt lat="49.4126" lon="3.95731">
        <ele>102</ele>
        <time>2019-05-29T16:37:43Z</time>
      </trkpt>
      <trkpt lat="49.41265" lon="3.95723">
        <ele>102</ele>
        <time>2019-05-29T16:37:44Z</time>
      </trkpt>
      <trkpt lat="49.41269" lon="3.95716">
        <ele>102</ele>
        <time>2019-05-29T16:37:45Z</time>
      </trkpt>
      <trkpt lat="49.41274" lon="3.95708">
        <ele>102</ele>
        <time>2019-05-29T16:37:46Z</time>
      </trkpt>
      <trkpt lat="49.41279" lon="3.957">
        <ele>102</ele>
        <time>2019-05-29T16:37:47Z</time>
      </trkpt>
      <trkpt lat="49.41284" lon="3.95693">
        <ele>102</ele>
        <time>2019-05-29T16:37:48Z</time>
      </trkpt>
      <trkpt lat="49.41288" lon="3.95685">
        <ele>102</ele>
        <time>2019-05-29T16:37:49Z</time>
      </trkpt>
      <trkpt lat="49.41293" lon="3.95677">
        <ele>102</ele>
        <time>2019-05-29T16:37:50Z</time>
      </trkpt>
      <trkpt lat="49.41298" lon="3.95669">
        <ele>102</ele>
        <time>2019-05-29T16:37:51Z</time>
      </trkpt>
      <trkpt lat="49.41302" lon="3.95661">
        <ele>102</ele>
        <time>2019-05-29T16:37:52Z</time>
      </trkpt>
      <trkpt lat="49.41307" lon="3.95654">
        <ele>102</ele>
        <time>2019-05-29T16:37:53Z</time>
      </trkpt>
      <trkpt lat="49.41311" lon="3.95646">
        <ele>102</ele>
        <time>2019-05-29T16:37:54Z</time>
      </trkpt>
      <trkpt lat="49.41316" lon="3.95638">
        <ele>102</ele>
        <time>2019-05-29T16:37:55Z</time>
      </trkpt>
      <trkpt lat="49.41321" lon="3.95631">
        <ele>102</ele>
        <time>2019-05-29T16:37:56Z</time>
      </trkpt>
      <trkpt lat="49.41325" lon="3.95623">
        <ele>102</ele>
        <time>2019-05-29T16:37:57Z</time>
      </trkpt>
      <trkpt lat="49.4133" lon="3.95616">
        <ele>102</ele>
        <time>2019-05-29T16:37:58Z</time>
      </trkpt>
      <trkpt lat="49.41335" lon="3.95609">
        <ele>102</ele>
        <time>2019-05-29T16:37:59Z</time>
      </trkpt>
      <trkpt lat="49.41339" lon="3.95601">
        <ele>102</ele>
        <time>2019-05-29T16:38:00Z</time>
      </trkpt>
      <trkpt lat="49.41344" lon="3.95594">
        <ele>103</ele>
        <time>2019-05-29T16:38:01Z</time>
      </trkpt>
      <trkpt lat="49.41349" lon="3.95586">
        <ele>102</ele>
        <time>2019-05-29T16:38:02Z</time>
      </trkpt>
      <trkpt lat="49.41354" lon="3.95578">
        <ele>102</ele>
        <time>2019-05-29T16:38:03Z</time>
      </trkpt>
      <trkpt lat="49.41359" lon="3.95569">
        <ele>102</ele>
        <time>2019-05-29T16:38:04Z</time>
      </trkpt>
      <trkpt lat="49.41364" lon="3.95562">
        <ele>102</ele>
        <time>2019-05-29T16:38:05Z</time>
      </trkpt>
      <trkpt lat="49.41369" lon="3.95554">
        <ele>102</ele>
        <time>2019-05-29T16:38:06Z</time>
      </trkpt>
      <trkpt lat="49.41374" lon="3.95546">
        <ele>102</ele>
        <time>2019-05-29T16:38:07Z</time>
      </trkpt>
      <trkpt lat="49.41379" lon="3.95539">
        <ele>102</ele>
        <time>2019-05-29T16:38:08Z</time>
      </trkpt>
      <trkpt lat="49.41385" lon="3.95531">
        <ele>102</ele>
        <time>2019-05-29T16:38:09Z</time>
      </trkpt>
      <trkpt lat="49.4139" lon="3.95524">
        <ele>102</ele>
        <time>2019-05-29T16:38:10Z</time>
      </trkpt>
      <trkpt lat="49.41395" lon="3.95518">
        <ele>102</ele>
        <time>2019-05-29T16:38:11Z</time>
      </trkpt>
      <trkpt lat="49.414" lon="3.95512">
        <ele>102</ele>
        <time>2019-05-29T16:38:12Z</time>
      </trkpt>
      <trkpt lat="49.41406" lon="3.95507">
        <ele>103</ele>
        <time>2019-05-29T16:38:13Z</time>
      </trkpt>
      <trkpt lat="49.41412" lon="3.95501">
        <ele>102</ele>
        <time>2019-05-29T16:38:14Z</time>
      </trkpt>
      <trkpt lat="49.41417" lon="3.95496">
        <ele>102</ele>
        <time>2019-05-29T16:38:15Z</time>
      </trkpt>
      <trkpt lat="49.41423" lon="3.95491">
        <ele>102</ele>
        <time>2019-05-29T16:38:16Z</time>
      </trkpt>
      <trkpt lat="49.41429" lon="3.95486">
        <ele>102</ele>
        <time>2019-05-29T16:38:17Z</time>
      </trkpt>
      <trkpt lat="49.41435" lon="3.95481">
        <ele>102</ele>
        <time>2019-05-29T16:38:18Z</time>
      </trkpt>
      <trkpt lat="49.41441" lon="3.95476">
        <ele>102</ele>
        <time>2019-05-29T16:38:19Z</time>
      </trkpt>
      <trkpt lat="49.41447" lon="3.95471">
        <ele>102</ele>
        <time>2019-05-29T16:38:20Z</time>
      </trkpt>
      <trkpt lat="49.41453" lon="3.95465">
        <ele>102</ele>
        <time>2019-05-29T16:38:21Z</time>
      </trkpt>
      <trkpt lat="49.41459" lon="3.95461">
        <ele>102</ele>
        <time>2019-05-29T16:38:22Z</time>
      </trkpt>
      <trkpt lat="49.41465" lon="3.95456">
        <ele>102</ele>
        <time>2019-05-29T16:38:23Z</time>
      </trkpt>
      <trkpt lat="49.4147" lon="3.95451">
        <ele>102</ele>
        <time>2019-05-29T16:38:24Z</time>
      </trkpt>
      <trkpt lat="49.41476" lon="3.95446">
        <ele>102</ele>
        <time>2019-05-29T16:38:25Z</time>
      </trkpt>
      <trkpt lat="49.41482" lon="3.95441">
        <ele>102</ele>
        <time>2019-05-29T16:38:26Z</time>
      </trkpt>
      <trkpt lat="49.41488" lon="3.95436">
        <ele>102</ele>
        <time>2019-05-29T16:38:27Z</time>
      </trkpt>
      <trkpt lat="49.41494" lon="3.95431">
        <ele>102</ele>
        <time>2019-05-29T16:38:28Z</time>
      </trkpt>
      <trkpt lat="49.415" lon="3.95426">
        <ele>102</ele>
        <time>2019-05-29T16:38:29Z</time>
      </trkpt>
      <trkpt lat="49.41506" lon="3.95422">
        <ele>102</ele>
        <time>2019-05-29T16:38:30Z</time>
      </trkpt>
      <trkpt lat="49.41512" lon="3.95417">
        <ele>102</ele>
        <time>2019-05-29T16:38:31Z</time>
      </trkpt>
      <trkpt lat="49.41519" lon="3.95412">
        <ele>102</ele>
        <time>2019-05-29T16:38:32Z</time>
      </trkpt>
      <trkpt lat="49.41525" lon="3.95407">
        <ele>102</ele>
        <time>2019-05-29T16:38:33Z</time>
      </trkpt>
      <trkpt lat="49.41531" lon="3.95401">
        <ele>102</ele>
        <time>2019-05-29T16:38:34Z</time>
      </trkpt>
      <trkpt lat="49.41538" lon="3.95396">
        <ele>102</ele>
        <time>2019-05-29T16:38:35Z</time>
      </trkpt>
      <trkpt lat="49.41544" lon="3.95391">
        <ele>102</ele>
        <time>2019-05-29T16:38:36Z</time>
      </trkpt>
      <trkpt lat="49.4155" lon="3.95385">
        <ele>102</ele>
        <time>2019-05-29T16:38:37Z</time>
      </trkpt>
      <trkpt lat="49.41556" lon="3.9538">
        <ele>102</ele>
        <time>2019-05-29T16:38:38Z</time>
      </trkpt>
      <trkpt lat="49.41562" lon="3.95375">
        <ele>102</ele>
        <time>2019-05-29T16:38:39Z</time>
      </trkpt>
      <trkpt lat="49.41568" lon="3.9537">
        <ele>101</ele>
        <time>2019-05-29T16:38:40Z</time>
      </trkpt>
      <trkpt lat="49.41574" lon="3.95365">
        <ele>101</ele>
        <time>2019-05-29T16:38:41Z</time>
      </trkpt>
      <trkpt lat="49.41581" lon="3.9536">
        <ele>101</ele>
        <time>2019-05-29T16:38:42Z</time>
      </trkpt>
      <trkpt lat="49.41587" lon="3.95355">
        <ele>100</ele>
        <time>2019-05-29T16:38:43Z</time>
      </trkpt>
      <trkpt lat="49.41593" lon="3.9535">
        <ele>100</ele>
        <time>2019-05-29T16:38:44Z</time>
      </trkpt>
      <trkpt lat="49.41599" lon="3.95345">
        <ele>101</ele>
        <time>2019-05-29T16:38:45Z</time>
      </trkpt>
      <trkpt lat="49.41605" lon="3.9534">
        <ele>101</ele>
        <time>2019-05-29T16:38:46Z</time>
      </trkpt>
      <trkpt lat="49.41612" lon="3.95335">
        <ele>101</ele>
        <time>2019-05-29T16:38:47Z</time>
      </trkpt>
      <trkpt lat="49.41618" lon="3.95331">
        <ele>101</ele>
        <time>2019-05-29T16:38:48Z</time>
      </trkpt>
      <trkpt lat="49.41624" lon="3.95326">
        <ele>101</ele>
        <time>2019-05-29T16:38:49Z</time>
      </trkpt>
      <trkpt lat="49.41631" lon="3.95321">
        <ele>101</ele>
        <time>2019-05-29T16:38:50Z</time>
      </trkpt>
      <trkpt lat="49.41638" lon="3.95316">
        <ele>101</ele>
        <time>2019-05-29T16:38:51Z</time>
      </trkpt>
      <trkpt lat="49.41644" lon="3.95313">
        <ele>102</ele>
        <time>2019-05-29T16:38:52Z</time>
      </trkpt>
      <trkpt lat="49.41651" lon="3.95309">
        <ele>102</ele>
        <time>2019-05-29T16:38:53Z</time>
      </trkpt>
      <trkpt lat="49.41658" lon="3.95306">
        <ele>102</ele>
        <time>2019-05-29T16:38:54Z</time>
      </trkpt>
      <trkpt lat="49.41665" lon="3.95304">
        <ele>102</ele>
        <time>2019-05-29T16:38:55Z</time>
      </trkpt>
      <trkpt lat="49.41672" lon="3.95302">
        <ele>102</ele>
        <time>2019-05-29T16:38:56Z</time>
      </trkpt>
      <trkpt lat="49.41679" lon="3.95299">
        <ele>102</ele>
        <time>2019-05-29T16:38:57Z</time>
      </trkpt>
      <trkpt lat="49.41686" lon="3.95296">
        <ele>102</ele>
        <time>2019-05-29T16:38:58Z</time>
      </trkpt>
      <trkpt lat="49.41693" lon="3.95293">
        <ele>102</ele>
        <time>2019-05-29T16:38:59Z</time>
      </trkpt>
      <trkpt lat="49.417" lon="3.95289">
        <ele>102</ele>
        <time>2019-05-29T16:39:00Z</time>
      </trkpt>
      <trkpt lat="49.41707" lon="3.95286">
        <ele>102</ele>
        <time>2019-05-29T16:39:01Z</time>
      </trkpt>
      <trkpt lat="49.41713" lon="3.95282">
        <ele>102</ele>
        <time>2019-05-29T16:39:02Z</time>
      </trkpt>
      <trkpt lat="49.4172" lon="3.95278">
        <ele>102</ele>
        <time>2019-05-29T16:39:03Z</time>
      </trkpt>
      <trkpt lat="49.41727" lon="3.95276">
        <ele>102</ele>
        <time>2019-05-29T16:39:04Z</time>
      </trkpt>
      <trkpt lat="49.41733" lon="3.95272">
        <ele>102</ele>
        <time>2019-05-29T16:39:05Z</time>
      </trkpt>
      <trkpt lat="49.41739" lon="3.95268">
        <ele>102</ele>
        <time>2019-05-29T16:39:06Z</time>
      </trkpt>
      <trkpt lat="49.41745" lon="3.95265">
        <ele>102</ele>
        <time>2019-05-29T16:39:07Z</time>
      </trkpt>
      <trkpt lat="49.4175" lon="3.95261">
        <ele>103</ele>
        <time>2019-05-29T16:39:08Z</time>
      </trkpt>
      <trkpt lat="49.41756" lon="3.95258">
        <ele>103</ele>
        <time>2019-05-29T16:39:09Z</time>
      </trkpt>
      <trkpt lat="49.41761" lon="3.95255">
        <ele>103</ele>
        <time>2019-05-29T16:39:10Z</time>
      </trkpt>
      <trkpt lat="49.41767" lon="3.95253">
        <ele>103</ele>
        <time>2019-05-29T16:39:11Z</time>
      </trkpt>
      <trkpt lat="49.41775" lon="3.9525">
        <ele>103</ele>
        <time>2019-05-29T16:39:12Z</time>
      </trkpt>
      <trkpt lat="49.41781" lon="3.95247">
        <ele>103</ele>
        <time>2019-05-29T16:39:13Z</time>
      </trkpt>
      <trkpt lat="49.41788" lon="3.95245">
        <ele>104</ele>
        <time>2019-05-29T16:39:14Z</time>
      </trkpt>
      <trkpt lat="49.41795" lon="3.95242">
        <ele>103</ele>
        <time>2019-05-29T16:39:15Z</time>
      </trkpt>
      <trkpt lat="49.41802" lon="3.95239">
        <ele>103</ele>
        <time>2019-05-29T16:39:16Z</time>
      </trkpt>
      <trkpt lat="49.41808" lon="3.95235">
        <ele>103</ele>
        <time>2019-05-29T16:39:17Z</time>
      </trkpt>
      <trkpt lat="49.41814" lon="3.95232">
        <ele>103</ele>
        <time>2019-05-29T16:39:18Z</time>
      </trkpt>
      <trkpt lat="49.4182" lon="3.9523">
        <ele>103</ele>
        <time>2019-05-29T16:39:19Z</time>
      </trkpt>
      <trkpt lat="49.41826" lon="3.95227">
        <ele>103</ele>
        <time>2019-05-29T16:39:20Z</time>
      </trkpt>
      <trkpt lat="49.41832" lon="3.95224">
        <ele>103</ele>
        <time>2019-05-29T16:39:21Z</time>
      </trkpt>
      <trkpt lat="49.41838" lon="3.95221">
        <ele>104</ele>
        <time>2019-05-29T16:39:22Z</time>
      </trkpt>
      <trkpt lat="49.41844" lon="3.9522">
        <ele>103</ele>
        <time>2019-05-29T16:39:23Z</time>
      </trkpt>
      <trkpt lat="49.41851" lon="3.95217">
        <ele>104</ele>
        <time>2019-05-29T16:39:24Z</time>
      </trkpt>
      <trkpt lat="49.41857" lon="3.95213">
        <ele>103</ele>
        <time>2019-05-29T16:39:25Z</time>
      </trkpt>
      <trkpt lat="49.41863" lon="3.95208">
        <ele>104</ele>
        <time>2019-05-29T16:39:26Z</time>
      </trkpt>
      <trkpt lat="49.41868" lon="3.95204">
        <ele>104</ele>
        <time>2019-05-29T16:39:27Z</time>
      </trkpt>
      <trkpt lat="49.41874" lon="3.95199">
        <ele>104</ele>
        <time>2019-05-29T16:39:28Z</time>
      </trkpt>
      <trkpt lat="49.4188" lon="3.95194">
        <ele>105</ele>
        <time>2019-05-29T16:39:29Z</time>
      </trkpt>
      <trkpt lat="49.41885" lon="3.95188">
        <ele>105</ele>
        <time>2019-05-29T16:39:30Z</time>
      </trkpt>
      <trkpt lat="49.41891" lon="3.95183">
        <ele>105</ele>
        <time>2019-05-29T16:39:31Z</time>
      </trkpt>
      <trkpt lat="49.41897" lon="3.95178">
        <ele>105</ele>
        <time>2019-05-29T16:39:32Z</time>
      </trkpt>
      <trkpt lat="49.41902" lon="3.95173">
        <ele>106</ele>
        <time>2019-05-29T16:39:33Z</time>
      </trkpt>
      <trkpt lat="49.41908" lon="3.95169">
        <ele>106</ele>
        <time>2019-05-29T16:39:34Z</time>
      </trkpt>
      <trkpt lat="49.41914" lon="3.95165">
        <ele>106</ele>
        <time>2019-05-29T16:39:35Z</time>
      </trkpt>
      <trkpt lat="49.41921" lon="3.95161">
        <ele>106</ele>
        <time>2019-05-29T16:39:36Z</time>
      </trkpt>
      <trkpt lat="49.41927" lon="3.95157">
        <ele>106</ele>
        <time>2019-05-29T16:39:37Z</time>
      </trkpt>
      <trkpt lat="49.41933" lon="3.95152">
        <ele>106</ele>
        <time>2019-05-29T16:39:38Z</time>
      </trkpt>
      <trkpt lat="49.41939" lon="3.95147">
        <ele>106</ele>
        <time>2019-05-29T16:39:39Z</time>
      </trkpt>
      <trkpt lat="49.41945" lon="3.95143">
        <ele>105</ele>
        <time>2019-05-29T16:39:40Z</time>
      </trkpt>
      <trkpt lat="49.41951" lon="3.9514">
        <ele>105</ele>
        <time>2019-05-29T16:39:41Z</time>
      </trkpt>
      <trkpt lat="49.41956" lon="3.95136">
        <ele>105</ele>
        <time>2019-05-29T16:39:42Z</time>
      </trkpt>
      <trkpt lat="49.41961" lon="3.95132">
        <ele>105</ele>
        <time>2019-05-29T16:39:43Z</time>
      </trkpt>
      <trkpt lat="49.41966" lon="3.95131">
        <ele>105</ele>
        <time>2019-05-29T16:39:44Z</time>
      </trkpt>
      <trkpt lat="49.41972" lon="3.95135">
        <ele>105</ele>
        <time>2019-05-29T16:39:45Z</time>
      </trkpt>
      <trkpt lat="49.41978" lon="3.95142">
        <ele>105</ele>
        <time>2019-05-29T16:39:46Z</time>
      </trkpt>
      <trkpt lat="49.4198" lon="3.9515">
        <ele>105</ele>
        <time>2019-05-29T16:39:47Z</time>
      </trkpt>
      <trkpt lat="49.41983" lon="3.95159">
        <ele>105</ele>
        <time>2019-05-29T16:39:48Z</time>
      </trkpt>
      <trkpt lat="49.41985" lon="3.95169">
        <ele>105</ele>
        <time>2019-05-29T16:39:49Z</time>
      </trkpt>
      <trkpt lat="49.41988" lon="3.95179">
        <ele>105</ele>
        <time>2019-05-29T16:39:50Z</time>
      </trkpt>
      <trkpt lat="49.4199" lon="3.95188">
        <ele>105</ele>
        <time>2019-05-29T16:39:51Z</time>
      </trkpt>
      <trkpt lat="49.41993" lon="3.95198">
        <ele>105</ele>
        <time>2019-05-29T16:39:52Z</time>
      </trkpt>
      <trkpt lat="49.41995" lon="3.95208">
        <ele>105</ele>
        <time>2019-05-29T16:39:53Z</time>
      </trkpt>
      <trkpt lat="49.41999" lon="3.95217">
        <ele>105</ele>
        <time>2019-05-29T16:39:54Z</time>
      </trkpt>
      <trkpt lat="49.42002" lon="3.95227">
        <ele>105</ele>
        <time>2019-05-29T16:39:55Z</time>
      </trkpt>
      <trkpt lat="49.42005" lon="3.95235">
        <ele>105</ele>
        <time>2019-05-29T16:39:56Z</time>
      </trkpt>
      <trkpt lat="49.42008" lon="3.95245">
        <ele>105</ele>
        <time>2019-05-29T16:39:57Z</time>
      </trkpt>
      <trkpt lat="49.42011" lon="3.95254">
        <ele>105</ele>
        <time>2019-05-29T16:39:58Z</time>
      </trkpt>
      <trkpt lat="49.42013" lon="3.95265">
        <ele>104</ele>
        <time>2019-05-29T16:39:59Z</time>
      </trkpt>
      <trkpt lat="49.42015" lon="3.95275">
        <ele>104</ele>
        <time>2019-05-29T16:40:00Z</time>
      </trkpt>
      <trkpt lat="49.42018" lon="3.95284">
        <ele>104</ele>
        <time>2019-05-29T16:40:01Z</time>
      </trkpt>
      <trkpt lat="49.42021" lon="3.95294">
        <ele>104</ele>
        <time>2019-05-29T16:40:02Z</time>
      </trkpt>
      <trkpt lat="49.42024" lon="3.95303">
        <ele>104</ele>
        <time>2019-05-29T16:40:03Z</time>
      </trkpt>
      <trkpt lat="49.42027" lon="3.95312">
        <ele>104</ele>
        <time>2019-05-29T16:40:04Z</time>
      </trkpt>
      <trkpt lat="49.42029" lon="3.95322">
        <ele>104</ele>
        <time>2019-05-29T16:40:05Z</time>
      </trkpt>
      <trkpt lat="49.42032" lon="3.95331">
        <ele>104</ele>
        <time>2019-05-29T16:40:06Z</time>
      </trkpt>
      <trkpt lat="49.42034" lon="3.9534">
        <ele>104</ele>
        <time>2019-05-29T16:40:07Z</time>
      </trkpt>
      <trkpt lat="49.42037" lon="3.95349">
        <ele>104</ele>
        <time>2019-05-29T16:40:08Z</time>
      </trkpt>
      <trkpt lat="49.42039" lon="3.95359">
        <ele>104</ele>
        <time>2019-05-29T16:40:09Z</time>
      </trkpt>
      <trkpt lat="49.42042" lon="3.95368">
        <ele>104</ele>
        <time>2019-05-29T16:40:10Z</time>
      </trkpt>
      <trkpt lat="49.42045" lon="3.95377">
        <ele>104</ele>
        <time>2019-05-29T16:40:11Z</time>
      </trkpt>
      <trkpt lat="49.42048" lon="3.95387">
        <ele>104</ele>
        <time>2019-05-29T16:40:12Z</time>
      </trkpt>
      <trkpt lat="49.4205" lon="3.95397">
        <ele>104</ele>
        <time>2019-05-29T16:40:13Z</time>
      </trkpt>
      <trkpt lat="49.42053" lon="3.95406">
        <ele>104</ele>
        <time>2019-05-29T16:40:14Z</time>
      </trkpt>
      <trkpt lat="49.42057" lon="3.95415">
        <ele>104</ele>
        <time>2019-05-29T16:40:15Z</time>
      </trkpt>
      <trkpt lat="49.4206" lon="3.95423">
        <ele>104</ele>
        <time>2019-05-29T16:40:16Z</time>
      </trkpt>
      <trkpt lat="49.42064" lon="3.95431">
        <ele>103</ele>
        <time>2019-05-29T16:40:17Z</time>
      </trkpt>
      <trkpt lat="49.42069" lon="3.95439">
        <ele>103</ele>
        <time>2019-05-29T16:40:18Z</time>
      </trkpt>
      <trkpt lat="49.42073" lon="3.95446">
        <ele>103</ele>
        <time>2019-05-29T16:40:19Z</time>
      </trkpt>
      <trkpt lat="49.42078" lon="3.95453">
        <ele>103</ele>
        <time>2019-05-29T16:40:20Z</time>
      </trkpt>
      <trkpt lat="49.42083" lon="3.95459">
        <ele>103</ele>
        <time>2019-05-29T16:40:21Z</time>
      </trkpt>
      <trkpt lat="49.42088" lon="3.95464">
        <ele>103</ele>
        <time>2019-05-29T16:40:22Z</time>
      </trkpt>
      <trkpt lat="49.42094" lon="3.95468">
        <ele>103</ele>
        <time>2019-05-29T16:40:23Z</time>
      </trkpt>
      <trkpt lat="49.421" lon="3.95472">
        <ele>103</ele>
        <time>2019-05-29T16:40:24Z</time>
      </trkpt>
      <trkpt lat="49.42106" lon="3.95475">
        <ele>103</ele>
        <time>2019-05-29T16:40:25Z</time>
      </trkpt>
      <trkpt lat="49.42112" lon="3.95477">
        <ele>103</ele>
        <time>2019-05-29T16:40:26Z</time>
      </trkpt>
      <trkpt lat="49.42118" lon="3.9548">
        <ele>102</ele>
        <time>2019-05-29T16:40:27Z</time>
      </trkpt>
      <trkpt lat="49.42124" lon="3.95483">
        <ele>102</ele>
        <time>2019-05-29T16:40:28Z</time>
      </trkpt>
      <trkpt lat="49.42131" lon="3.95487">
        <ele>102</ele>
        <time>2019-05-29T16:40:29Z</time>
      </trkpt>
      <trkpt lat="49.42138" lon="3.95489">
        <ele>102</ele>
        <time>2019-05-29T16:40:30Z</time>
      </trkpt>
      <trkpt lat="49.42144" lon="3.95493">
        <ele>102</ele>
        <time>2019-05-29T16:40:31Z</time>
      </trkpt>
      <trkpt lat="49.42151" lon="3.95496">
        <ele>102</ele>
        <time>2019-05-29T16:40:32Z</time>
      </trkpt>
      <trkpt lat="49.42157" lon="3.95501">
        <ele>102</ele>
        <time>2019-05-29T16:40:33Z</time>
      </trkpt>
      <trkpt lat="49.42163" lon="3.95506">
        <ele>102</ele>
        <time>2019-05-29T16:40:34Z</time>
      </trkpt>
      <trkpt lat="49.42169" lon="3.95511">
        <ele>102</ele>
        <time>2019-05-29T16:40:35Z</time>
      </trkpt>
      <trkpt lat="49.42175" lon="3.95516">
        <ele>102</ele>
        <time>2019-05-29T16:40:36Z</time>
      </trkpt>
      <trkpt lat="49.42181" lon="3.95522">
        <ele>102</ele>
        <time>2019-05-29T16:40:37Z</time>
      </trkpt>
      <trkpt lat="49.42187" lon="3.95528">
        <ele>102</ele>
        <time>2019-05-29T16:40:38Z</time>
      </trkpt>
      <trkpt lat="49.42193" lon="3.95533">
        <ele>102</ele>
        <time>2019-05-29T16:40:39Z</time>
      </trkpt>
      <trkpt lat="49.42199" lon="3.95539">
        <ele>101</ele>
        <time>2019-05-29T16:40:40Z</time>
      </trkpt>
      <trkpt lat="49.42205" lon="3.95545">
        <ele>101</ele>
        <time>2019-05-29T16:40:41Z</time>
      </trkpt>
      <trkpt lat="49.42211" lon="3.95551">
        <ele>101</ele>
        <time>2019-05-29T16:40:42Z</time>
      </trkpt>
      <trkpt lat="49.42217" lon="3.95557">
        <ele>101</ele>
        <time>2019-05-29T16:40:43Z</time>
      </trkpt>
      <trkpt lat="49.42222" lon="3.95563">
        <ele>101</ele>
        <time>2019-05-29T16:40:44Z</time>
      </trkpt>
      <trkpt lat="49.42227" lon="3.95569">
        <ele>101</ele>
        <time>2019-05-29T16:40:45Z</time>
      </trkpt>
      <trkpt lat="49.42232" lon="3.95575">
        <ele>101</ele>
        <time>2019-05-29T16:40:46Z</time>
      </trkpt>
      <trkpt lat="49.42238" lon="3.9558">
        <ele>101</ele>
        <time>2019-05-29T16:40:47Z</time>
      </trkpt>
      <trkpt lat="49.42243" lon="3.95585">
        <ele>101</ele>
        <time>2019-05-29T16:40:48Z</time>
      </trkpt>
      <trkpt lat="49.42248" lon="3.95591">
        <ele>101</ele>
        <time>2019-05-29T16:40:49Z</time>
      </trkpt>
      <trkpt lat="49.42254" lon="3.95596">
        <ele>101</ele>
        <time>2019-05-29T16:40:50Z</time>
      </trkpt>
      <trkpt lat="49.42259" lon="3.95601">
        <ele>101</ele>
        <time>2019-05-29T16:40:51Z</time>
      </trkpt>
      <trkpt lat="49.42265" lon="3.95607">
        <ele>100</ele>
        <time>2019-05-29T16:40:52Z</time>
      </trkpt>
      <trkpt lat="49.4227" lon="3.95612">
        <ele>100</ele>
        <time>2019-05-29T16:40:53Z</time>
      </trkpt>
      <trkpt lat="49.42275" lon="3.95617">
        <ele>100</ele>
        <time>2019-05-29T16:40:54Z</time>
      </trkpt>
      <trkpt lat="49.4228" lon="3.95622">
        <ele>100</ele>
        <time>2019-05-29T16:40:55Z</time>
      </trkpt>
      <trkpt lat="49.42285" lon="3.95627">
        <ele>100</ele>
        <time>2019-05-29T16:40:56Z</time>
      </trkpt>
      <trkpt lat="49.42291" lon="3.95632">
        <ele>100</ele>
        <time>2019-05-29T16:40:57Z</time>
      </trkpt>
      <trkpt lat="49.42297" lon="3.95638">
        <ele>100</ele>
        <time>2019-05-29T16:40:58Z</time>
      </trkpt>
      <trkpt lat="49.42303" lon="3.95644">
        <ele>100</ele>
        <time>2019-05-29T16:40:59Z</time>
      </trkpt>
      <trkpt lat="49.42309" lon="3.9565">
        <ele>100</ele>
        <time>2019-05-29T16:41:00Z</time>
      </trkpt>
      <trkpt lat="49.42315" lon="3.95656">
        <ele>100</ele>
        <time>2019-05-29T16:41:01Z</time>
      </trkpt>
      <trkpt lat="49.42321" lon="3.95662">
        <ele>100</ele>
        <time>2019-05-29T16:41:02Z</time>
      </trkpt>
      <trkpt lat="49.42328" lon="3.95667">
        <ele>100</ele>
        <time>2019-05-29T16:41:03Z</time>
      </trkpt>
      <trkpt lat="49.42333" lon="3.95673">
        <ele>100</ele>
        <time>2019-05-29T16:41:04Z</time>
      </trkpt>
      <trkpt lat="49.42339" lon="3.95679">
        <ele>99</ele>
        <time>2019-05-29T16:41:05Z</time>
      </trkpt>
      <trkpt lat="49.42345" lon="3.95685">
        <ele>99</ele>
        <time>2019-05-29T16:41:06Z</time>
      </trkpt>
      <trkpt lat="49.4235" lon="3.95691">
        <ele>100</ele>
        <time>2019-05-29T16:41:07Z</time>
      </trkpt>
      <trkpt lat="49.42356" lon="3.95698">
        <ele>100</ele>
        <time>2019-05-29T16:41:08Z</time>
      </trkpt>
      <trkpt lat="49.42362" lon="3.95704">
        <ele>100</ele>
        <time>2019-05-29T16:41:09Z</time>
      </trkpt>
      <trkpt lat="49.42367" lon="3.9571">
        <ele>100</ele>
        <time>2019-05-29T16:41:10Z</time>
      </trkpt>
      <trkpt lat="49.42373" lon="3.95716">
        <ele>100</ele>
        <time>2019-05-29T16:41:11Z</time>
      </trkpt>
      <trkpt lat="49.42379" lon="3.95722">
        <ele>100</ele>
        <time>2019-05-29T16:41:12Z</time>
      </trkpt>
      <trkpt lat="49.42385" lon="3.95728">
        <ele>100</ele>
        <time>2019-05-29T16:41:13Z</time>
      </trkpt>
      <trkpt lat="49.4239" lon="3.95734">
        <ele>100</ele>
        <time>2019-05-29T16:41:14Z</time>
      </trkpt>
      <trkpt lat="49.42396" lon="3.95741">
        <ele>100</ele>
        <time>2019-05-29T16:41:15Z</time>
      </trkpt>
      <trkpt lat="49.42402" lon="3.95747">
        <ele>100</ele>
        <time>2019-05-29T16:41:16Z</time>
      </trkpt>
      <trkpt lat="49.42408" lon="3.95753">
        <ele>100</ele>
        <time>2019-05-29T16:41:17Z</time>
      </trkpt>
      <trkpt lat="49.42413" lon="3.95759">
        <ele>100</ele>
        <time>2019-05-29T16:41:18Z</time>
      </trkpt>
      <trkpt lat="49.42419" lon="3.95765">
        <ele>100</ele>
        <time>2019-05-29T16:41:19Z</time>
      </trkpt>
      <trkpt lat="49.42425" lon="3.9577">
        <ele>100</ele>
        <time>2019-05-29T16:41:20Z</time>
      </trkpt>
      <trkpt lat="49.4243" lon="3.95777">
        <ele>100</ele>
        <time>2019-05-29T16:41:21Z</time>
      </trkpt>
      <trkpt lat="49.42436" lon="3.95783">
        <ele>100</ele>
        <time>2019-05-29T16:41:22Z</time>
      </trkpt>
      <trkpt lat="49.42441" lon="3.95788">
        <ele>100</ele>
        <time>2019-05-29T16:41:23Z</time>
      </trkpt>
      <trkpt lat="49.42447" lon="3.95793">
        <ele>100</ele>
        <time>2019-05-29T16:41:24Z</time>
      </trkpt>
      <trkpt lat="49.42453" lon="3.95799">
        <ele>100</ele>
        <time>2019-05-29T16:41:25Z</time>
      </trkpt>
      <trkpt lat="49.4246" lon="3.95805">
        <ele>100</ele>
        <time>2019-05-29T16:41:26Z</time>
      </trkpt>
      <trkpt lat="49.42466" lon="3.9581">
        <ele>101</ele>
        <time>2019-05-29T16:41:27Z</time>
      </trkpt>
      <trkpt lat="49.42473" lon="3.95816">
        <ele>101</ele>
        <time>2019-05-29T16:41:28Z</time>
      </trkpt>
      <trkpt lat="49.42479" lon="3.95821">
        <ele>101</ele>
        <time>2019-05-29T16:41:29Z</time>
      </trkpt>
      <trkpt lat="49.42486" lon="3.95827">
        <ele>101</ele>
        <time>2019-05-29T16:41:30Z</time>
      </trkpt>
      <trkpt lat="49.42492" lon="3.95832">
        <ele>101</ele>
        <time>2019-05-29T16:41:31Z</time>
      </trkpt>
      <trkpt lat="49.42497" lon="3.95838">
        <ele>102</ele>
        <time>2019-05-29T16:41:32Z</time>
      </trkpt>
      <trkpt lat="49.42504" lon="3.95844">
        <ele>102</ele>
        <time>2019-05-29T16:41:33Z</time>
      </trkpt>
      <trkpt lat="49.4251" lon="3.9585">
        <ele>102</ele>
        <time>2019-05-29T16:41:34Z</time>
      </trkpt>
      <trkpt lat="49.42516" lon="3.95855">
        <ele>102</ele>
        <time>2019-05-29T16:41:35Z</time>
      </trkpt>
      <trkpt lat="49.42523" lon="3.9586">
        <ele>102</ele>
        <time>2019-05-29T16:41:36Z</time>
      </trkpt>
      <trkpt lat="49.42529" lon="3.95865">
        <ele>102</ele>
        <time>2019-05-29T16:41:37Z</time>
      </trkpt>
      <trkpt lat="49.42535" lon="3.95869">
        <ele>102</ele>
        <time>2019-05-29T16:41:38Z</time>
      </trkpt>
      <trkpt lat="49.4254" lon="3.95875">
        <ele>102</ele>
        <time>2019-05-29T16:41:39Z</time>
      </trkpt>
      <trkpt lat="49.42546" lon="3.95879">
        <ele>102</ele>
        <time>2019-05-29T16:41:40Z</time>
      </trkpt>
      <trkpt lat="49.42552" lon="3.95883">
        <ele>102</ele>
        <time>2019-05-29T16:41:41Z</time>
      </trkpt>
      <trkpt lat="49.42558" lon="3.95888">
        <ele>103</ele>
        <time>2019-05-29T16:41:42Z</time>
      </trkpt>
      <trkpt lat="49.42563" lon="3.95893">
        <ele>103</ele>
        <time>2019-05-29T16:41:43Z</time>
      </trkpt>
      <trkpt lat="49.42568" lon="3.95899">
        <ele>103</ele>
        <time>2019-05-29T16:41:44Z</time>
      </trkpt>
      <trkpt lat="49.42574" lon="3.95906">
        <ele>103</ele>
        <time>2019-05-29T16:41:45Z</time>
      </trkpt>
      <trkpt lat="49.42579" lon="3.95912">
        <ele>103</ele>
        <time>2019-05-29T16:41:46Z</time>
      </trkpt>
      <trkpt lat="49.42585" lon="3.95918">
        <ele>104</ele>
        <time>2019-05-29T16:41:47Z</time>
      </trkpt>
      <trkpt lat="49.42591" lon="3.95924">
        <ele>104</ele>
        <time>2019-05-29T16:41:48Z</time>
      </trkpt>
      <trkpt lat="49.42597" lon="3.9593">
        <ele>104</ele>
        <time>2019-05-29T16:41:49Z</time>
      </trkpt>
      <trkpt lat="49.42602" lon="3.95936">
        <ele>105</ele>
        <time>2019-05-29T16:41:50Z</time>
      </trkpt>
      <trkpt lat="49.42608" lon="3.95942">
        <ele>106</ele>
        <time>2019-05-29T16:41:51Z</time>
      </trkpt>
      <trkpt lat="49.42614" lon="3.95947">
        <ele>106</ele>
        <time>2019-05-29T16:41:52Z</time>
      </trkpt>
      <trkpt lat="49.42619" lon="3.95954">
        <ele>106</ele>
        <time>2019-05-29T16:41:53Z</time>
      </trkpt>
      <trkpt lat="49.42625" lon="3.95959">
        <ele>106</ele>
        <time>2019-05-29T16:41:54Z</time>
      </trkpt>
      <trkpt lat="49.4263" lon="3.95964">
        <ele>105</ele>
        <time>2019-05-29T16:41:55Z</time>
      </trkpt>
      <trkpt lat="49.42635" lon="3.95969">
        <ele>105</ele>
        <time>2019-05-29T16:41:56Z</time>
      </trkpt>
      <trkpt lat="49.42641" lon="3.95974">
        <ele>104</ele>
        <time>2019-05-29T16:41:57Z</time>
      </trkpt>
      <trkpt lat="49.42646" lon="3.95979">
        <ele>104</ele>
        <time>2019-05-29T16:41:58Z</time>
      </trkpt>
      <trkpt lat="49.42652" lon="3.95985">
        <ele>104</ele>
        <time>2019-05-29T16:41:59Z</time>
      </trkpt>
      <trkpt lat="49.42657" lon="3.95991">
        <ele>104</ele>
        <time>2019-05-29T16:42:00Z</time>
      </trkpt>
      <trkpt lat="49.42663" lon="3.95996">
        <ele>104</ele>
        <time>2019-05-29T16:42:01Z</time>
      </trkpt>
      <trkpt lat="49.42669" lon="3.96001">
        <ele>104</ele>
        <time>2019-05-29T16:42:02Z</time>
      </trkpt>
      <trkpt lat="49.42675" lon="3.96006">
        <ele>104</ele>
        <time>2019-05-29T16:42:03Z</time>
      </trkpt>
      <trkpt lat="49.42681" lon="3.96012">
        <ele>104</ele>
        <time>2019-05-29T16:42:04Z</time>
      </trkpt>
      <trkpt lat="49.42687" lon="3.96017">
        <ele>103</ele>
        <time>2019-05-29T16:42:05Z</time>
      </trkpt>
      <trkpt lat="49.42693" lon="3.96023">
        <ele>103</ele>
        <time>2019-05-29T16:42:06Z</time>
      </trkpt>
      <trkpt lat="49.42699" lon="3.96028">
        <ele>104</ele>
        <time>2019-05-29T16:42:07Z</time>
      </trkpt>
      <trkpt lat="49.42705" lon="3.96033">
        <ele>104</ele>
        <time>2019-05-29T16:42:08Z</time>
      </trkpt>
      <trkpt lat="49.42711" lon="3.96039">
        <ele>104</ele>
        <time>2019-05-29T16:42:09Z</time>
      </trkpt>
      <trkpt lat="49.42717" lon="3.96045">
        <ele>104</ele>
        <time>2019-05-29T16:42:10Z</time>
      </trkpt>
      <trkpt lat="49.42723" lon="3.96052">
        <ele>104</ele>
        <time>2019-05-29T16:42:11Z</time>
      </trkpt>
      <trkpt lat="49.42729" lon="3.96058">
        <ele>104</ele>
        <time>2019-05-29T16:42:12Z</time>
      </trkpt>
      <trkpt lat="49.42735" lon="3.96063">
        <ele>105</ele>
        <time>2019-05-29T16:42:13Z</time>
      </trkpt>
      <trkpt lat="49.4274" lon="3.96068">
        <ele>105</ele>
        <time>2019-05-29T16:42:14Z</time>
      </trkpt>
      <trkpt lat="49.42746" lon="3.9607">
        <ele>105</ele>
        <time>2019-05-29T16:42:15Z</time>
      </trkpt>
      <trkpt lat="49.42753" lon="3.96072">
        <ele>105</ele>
        <time>2019-05-29T16:42:16Z</time>
      </trkpt>
      <trkpt lat="49.42759" lon="3.96073">
        <ele>104</ele>
        <time>2019-05-29T16:42:17Z</time>
      </trkpt>
      <trkpt lat="49.42765" lon="3.96071">
        <ele>104</ele>
        <time>2019-05-29T16:42:18Z</time>
      </trkpt>
      <trkpt lat="49.42771" lon="3.96069">
        <ele>104</ele>
        <time>2019-05-29T16:42:19Z</time>
      </trkpt>
      <trkpt lat="49.42777" lon="3.96066">
        <ele>105</ele>
        <time>2019-05-29T16:42:20Z</time>
      </trkpt>
      <trkpt lat="49.42783" lon="3.96062">
        <ele>105</ele>
        <time>2019-05-29T16:42:21Z</time>
      </trkpt>
      <trkpt lat="49.42789" lon="3.96058">
        <ele>106</ele>
        <time>2019-05-29T16:42:22Z</time>
      </trkpt>
      <trkpt lat="49.42795" lon="3.96054">
        <ele>106</ele>
        <time>2019-05-29T16:42:23Z</time>
      </trkpt>
      <trkpt lat="49.42801" lon="3.9605">
        <ele>106</ele>
        <time>2019-05-29T16:42:24Z</time>
      </trkpt>
      <trkpt lat="49.42807" lon="3.96047">
        <ele>106</ele>
        <time>2019-05-29T16:42:25Z</time>
      </trkpt>
      <trkpt lat="49.42814" lon="3.96046">
        <ele>106</ele>
        <time>2019-05-29T16:42:26Z</time>
      </trkpt>
      <trkpt lat="49.42821" lon="3.96045">
        <ele>106</ele>
        <time>2019-05-29T16:42:27Z</time>
      </trkpt>
      <trkpt lat="49.42829" lon="3.96047">
        <ele>105</ele>
        <time>2019-05-29T16:42:28Z</time>
      </trkpt>
      <trkpt lat="49.42838" lon="3.96051">
        <ele>104</ele>
        <time>2019-05-29T16:42:29Z</time>
      </trkpt>
      <trkpt lat="49.42845" lon="3.96054">
        <ele>104</ele>
        <time>2019-05-29T16:42:30Z</time>
      </trkpt>
      <trkpt lat="49.42853" lon="3.96058">
        <ele>104</ele>
        <time>2019-05-29T16:42:31Z</time>
      </trkpt>
      <trkpt lat="49.42862" lon="3.96062">
        <ele>103</ele>
        <time>2019-05-29T16:42:32Z</time>
      </trkpt>
      <trkpt lat="49.4287" lon="3.96067">
        <ele>102</ele>
        <time>2019-05-29T16:42:33Z</time>
      </trkpt>
      <trkpt lat="49.42878" lon="3.96073">
        <ele>102</ele>
        <time>2019-05-29T16:42:34Z</time>
      </trkpt>
      <trkpt lat="49.42885" lon="3.96079">
        <ele>102</ele>
        <time>2019-05-29T16:42:35Z</time>
      </trkpt>
      <trkpt lat="49.42893" lon="3.96086">
        <ele>102</ele>
        <time>2019-05-29T16:42:36Z</time>
      </trkpt>
      <trkpt lat="49.42901" lon="3.96092">
        <ele>102</ele>
        <time>2019-05-29T16:42:37Z</time>
      </trkpt>
      <trkpt lat="49.42909" lon="3.96098">
        <ele>102</ele>
        <time>2019-05-29T16:42:38Z</time>
      </trkpt>
      <trkpt lat="49.42916" lon="3.96105">
        <ele>102</ele>
        <time>2019-05-29T16:42:39Z</time>
      </trkpt>
      <trkpt lat="49.42924" lon="3.96111">
        <ele>102</ele>
        <time>2019-05-29T16:42:40Z</time>
      </trkpt>
      <trkpt lat="49.42931" lon="3.96116">
        <ele>102</ele>
        <time>2019-05-29T16:42:41Z</time>
      </trkpt>
      <trkpt lat="49.42939" lon="3.96122">
        <ele>102</ele>
        <time>2019-05-29T16:42:42Z</time>
      </trkpt>
      <trkpt lat="49.42946" lon="3.96128">
        <ele>102</ele>
        <time>2019-05-29T16:42:43Z</time>
      </trkpt>
      <trkpt lat="49.42953" lon="3.96134">
        <ele>102</ele>
        <time>2019-05-29T16:42:44Z</time>
      </trkpt>
      <trkpt lat="49.42961" lon="3.96141">
        <ele>102</ele>
        <time>2019-05-29T16:42:45Z</time>
      </trkpt>
      <trkpt lat="49.42968" lon="3.96147">
        <ele>102</ele>
        <time>2019-05-29T16:42:46Z</time>
      </trkpt>
      <trkpt lat="49.42983" lon="3.96159">
        <ele>103</ele>
        <time>2019-05-29T16:42:48Z</time>
      </trkpt>
      <trkpt lat="49.4299" lon="3.96166">
        <ele>103</ele>
        <time>2019-05-29T16:42:49Z</time>
      </trkpt>
      <trkpt lat="49.42998" lon="3.96172">
        <ele>103</ele>
        <time>2019-05-29T16:42:50Z</time>
      </trkpt>
      <trkpt lat="49.43005" lon="3.96178">
        <ele>103</ele>
        <time>2019-05-29T16:42:51Z</time>
      </trkpt>
      <trkpt lat="49.43012" lon="3.96185">
        <ele>103</ele>
        <time>2019-05-29T16:42:52Z</time>
      </trkpt>
      <trkpt lat="49.4302" lon="3.96191">
        <ele>103</ele>
        <time>2019-05-29T16:42:53Z</time>
      </trkpt>
      <trkpt lat="49.43027" lon="3.96197">
        <ele>103</ele>
        <time>2019-05-29T16:42:54Z</time>
      </trkpt>
      <trkpt lat="49.43034" lon="3.96203">
        <ele>103</ele>
        <time>2019-05-29T16:42:55Z</time>
      </trkpt>
      <trkpt lat="49.43041" lon="3.96209">
        <ele>103</ele>
        <time>2019-05-29T16:42:56Z</time>
      </trkpt>
      <trkpt lat="49.43048" lon="3.96214">
        <ele>103</ele>
        <time>2019-05-29T16:42:57Z</time>
      </trkpt>
      <trkpt lat="49.43054" lon="3.9622">
        <ele>103</ele>
        <time>2019-05-29T16:42:58Z</time>
      </trkpt>
      <trkpt lat="49.43062" lon="3.96226">
        <ele>104</ele>
        <time>2019-05-29T16:42:59Z</time>
      </trkpt>
      <trkpt lat="49.43069" lon="3.96232">
        <ele>104</ele>
        <time>2019-05-29T16:43:00Z</time>
      </trkpt>
      <trkpt lat="49.43075" lon="3.96238">
        <ele>103</ele>
        <time>2019-05-29T16:43:01Z</time>
      </trkpt>
      <trkpt lat="49.43082" lon="3.96243">
        <ele>103</ele>
        <time>2019-05-29T16:43:02Z</time>
      </trkpt>
      <trkpt lat="49.43089" lon="3.96246">
        <ele>103</ele>
        <time>2019-05-29T16:43:03Z</time>
      </trkpt>
      <trkpt lat="49.43097" lon="3.96248">
        <ele>103</ele>
        <time>2019-05-29T16:43:04Z</time>
      </trkpt>
      <trkpt lat="49.43106" lon="3.96249">
        <ele>103</ele>
        <time>2019-05-29T16:43:05Z</time>
      </trkpt>
      <trkpt lat="49.43114" lon="3.96248">
        <ele>103</ele>
        <time>2019-05-29T16:43:06Z</time>
      </trkpt>
      <trkpt lat="49.43121" lon="3.96245">
        <ele>104</ele>
        <time>2019-05-29T16:43:07Z</time>
      </trkpt>
      <trkpt lat="49.43129" lon="3.96242">
        <ele>104</ele>
        <time>2019-05-29T16:43:08Z</time>
      </trkpt>
      <trkpt lat="49.43136" lon="3.96239">
        <ele>105</ele>
        <time>2019-05-29T16:43:09Z</time>
      </trkpt>
      <trkpt lat="49.43144" lon="3.96235">
        <ele>105</ele>
        <time>2019-05-29T16:43:10Z</time>
      </trkpt>
      <trkpt lat="49.43151" lon="3.96232">
        <ele>105</ele>
        <time>2019-05-29T16:43:11Z</time>
      </trkpt>
      <trkpt lat="49.43159" lon="3.96229">
        <ele>105</ele>
        <time>2019-05-29T16:43:12Z</time>
      </trkpt>
      <trkpt lat="49.43166" lon="3.96225">
        <ele>105</ele>
        <time>2019-05-29T16:43:13Z</time>
      </trkpt>
      <trkpt lat="49.43174" lon="3.96222">
        <ele>105</ele>
        <time>2019-05-29T16:43:14Z</time>
      </trkpt>
      <trkpt lat="49.43182" lon="3.96218">
        <ele>105</ele>
        <time>2019-05-29T16:43:15Z</time>
      </trkpt>
      <trkpt lat="49.43189" lon="3.96215">
        <ele>105</ele>
        <time>2019-05-29T16:43:16Z</time>
      </trkpt>
      <trkpt lat="49.43197" lon="3.96211">
        <ele>106</ele>
        <time>2019-05-29T16:43:17Z</time>
      </trkpt>
      <trkpt lat="49.43205" lon="3.96208">
        <ele>106</ele>
        <time>2019-05-29T16:43:18Z</time>
      </trkpt>
      <trkpt lat="49.43212" lon="3.96205">
        <ele>106</ele>
        <time>2019-05-29T16:43:19Z</time>
      </trkpt>
      <trkpt lat="49.43219" lon="3.96202">
        <ele>106</ele>
        <time>2019-05-29T16:43:20Z</time>
      </trkpt>
      <trkpt lat="49.43226" lon="3.96199">
        <ele>106</ele>
        <time>2019-05-29T16:43:21Z</time>
      </trkpt>
      <trkpt lat="49.43234" lon="3.96195">
        <ele>106</ele>
        <time>2019-05-29T16:43:22Z</time>
      </trkpt>
      <trkpt lat="49.4324" lon="3.96192">
        <ele>106</ele>
        <time>2019-05-29T16:43:23Z</time>
      </trkpt>
      <trkpt lat="49.43247" lon="3.96189">
        <ele>106</ele>
        <time>2019-05-29T16:43:24Z</time>
      </trkpt>
      <trkpt lat="49.43254" lon="3.96186">
        <ele>106</ele>
        <time>2019-05-29T16:43:25Z</time>
      </trkpt>
      <trkpt lat="49.43261" lon="3.96182">
        <ele>106</ele>
        <time>2019-05-29T16:43:26Z</time>
      </trkpt>
      <trkpt lat="49.43268" lon="3.96179">
        <ele>107</ele>
        <time>2019-05-29T16:43:27Z</time>
      </trkpt>
      <trkpt lat="49.43275" lon="3.96176">
        <ele>107</ele>
        <time>2019-05-29T16:43:28Z</time>
      </trkpt>
      <trkpt lat="49.43282" lon="3.96173">
        <ele>107</ele>
        <time>2019-05-29T16:43:29Z</time>
      </trkpt>
      <trkpt lat="49.43289" lon="3.9617">
        <ele>107</ele>
        <time>2019-05-29T16:43:30Z</time>
      </trkpt>
      <trkpt lat="49.43296" lon="3.96168">
        <ele>107</ele>
        <time>2019-05-29T16:43:31Z</time>
      </trkpt>
      <trkpt lat="49.43303" lon="3.96165">
        <ele>107</ele>
        <time>2019-05-29T16:43:32Z</time>
      </trkpt>
      <trkpt lat="49.4331" lon="3.96162">
        <ele>107</ele>
        <time>2019-05-29T16:43:33Z</time>
      </trkpt>
      <trkpt lat="49.43317" lon="3.96159">
        <ele>107</ele>
        <time>2019-05-29T16:43:34Z</time>
      </trkpt>
      <trkpt lat="49.43323" lon="3.96156">
        <ele>108</ele>
        <time>2019-05-29T16:43:35Z</time>
      </trkpt>
      <trkpt lat="49.4333" lon="3.96153">
        <ele>108</ele>
        <time>2019-05-29T16:43:36Z</time>
      </trkpt>
      <trkpt lat="49.43336" lon="3.9615">
        <ele>108</ele>
        <time>2019-05-29T16:43:37Z</time>
      </trkpt>
      <trkpt lat="49.43342" lon="3.96147">
        <ele>108</ele>
        <time>2019-05-29T16:43:38Z</time>
      </trkpt>
      <trkpt lat="49.43349" lon="3.96144">
        <ele>108</ele>
        <time>2019-05-29T16:43:39Z</time>
      </trkpt>
      <trkpt lat="49.43355" lon="3.96141">
        <ele>108</ele>
        <time>2019-05-29T16:43:40Z</time>
      </trkpt>
      <trkpt lat="49.4336" lon="3.96138">
        <ele>108</ele>
        <time>2019-05-29T16:43:41Z</time>
      </trkpt>
      <trkpt lat="49.43365" lon="3.96136">
        <ele>108</ele>
        <time>2019-05-29T16:43:42Z</time>
      </trkpt>
      <trkpt lat="49.43369" lon="3.96134">
        <ele>108</ele>
        <time>2019-05-29T16:43:43Z</time>
      </trkpt>
      <trkpt lat="49.43374" lon="3.96133">
        <ele>108</ele>
        <time>2019-05-29T16:43:44Z</time>
      </trkpt>
      <trkpt lat="49.43378" lon="3.96133">
        <ele>108</ele>
        <time>2019-05-29T16:43:45Z</time>
      </trkpt>
      <trkpt lat="49.43381" lon="3.96133">
        <ele>108</ele>
        <time>2019-05-29T16:43:46Z</time>
      </trkpt>
      <trkpt lat="49.43385" lon="3.96135">
        <ele>109</ele>
        <time>2019-05-29T16:43:47Z</time>
      </trkpt>
      <trkpt lat="49.43388" lon="3.96138">
        <ele>109</ele>
        <time>2019-05-29T16:43:48Z</time>
      </trkpt>
      <trkpt lat="49.4339" lon="3.96143">
        <ele>109</ele>
        <time>2019-05-29T16:43:49Z</time>
      </trkpt>
      <trkpt lat="49.43392" lon="3.9615">
        <ele>108</ele>
        <time>2019-05-29T16:43:50Z</time>
      </trkpt>
      <trkpt lat="49.43392" lon="3.96156">
        <ele>108</ele>
        <time>2019-05-29T16:43:51Z</time>
      </trkpt>
      <trkpt lat="49.43393" lon="3.96164">
        <ele>108</ele>
        <time>2019-05-29T16:43:52Z</time>
      </trkpt>
      <trkpt lat="49.43391" lon="3.96174">
        <ele>108</ele>
        <time>2019-05-29T16:43:53Z</time>
      </trkpt>
      <trkpt lat="49.4339" lon="3.96184">
        <ele>108</ele>
        <time>2019-05-29T16:43:54Z</time>
      </trkpt>
      <trkpt lat="49.43389" lon="3.96195">
        <ele>108</ele>
        <time>2019-05-29T16:43:55Z</time>
      </trkpt>
      <trkpt lat="49.43388" lon="3.96205">
        <ele>107</ele>
        <time>2019-05-29T16:43:56Z</time>
      </trkpt>
      <trkpt lat="49.43388" lon="3.96215">
        <ele>107</ele>
        <time>2019-05-29T16:43:57Z</time>
      </trkpt>
      <trkpt lat="49.43389" lon="3.96225">
        <ele>107</ele>
        <time>2019-05-29T16:43:58Z</time>
      </trkpt>
      <trkpt lat="49.43389" lon="3.96234">
        <ele>107</ele>
        <time>2019-05-29T16:43:59Z</time>
      </trkpt>
      <trkpt lat="49.4339" lon="3.96244">
        <ele>107</ele>
        <time>2019-05-29T16:44:00Z</time>
      </trkpt>
      <trkpt lat="49.4339" lon="3.96253">
        <ele>107</ele>
        <time>2019-05-29T16:44:01Z</time>
      </trkpt>
      <trkpt lat="49.43391" lon="3.96263">
        <ele>107</ele>
        <time>2019-05-29T16:44:02Z</time>
      </trkpt>
      <trkpt lat="49.43392" lon="3.96273">
        <ele>107</ele>
        <time>2019-05-29T16:44:03Z</time>
      </trkpt>
      <trkpt lat="49.43392" lon="3.96282">
        <ele>107</ele>
        <time>2019-05-29T16:44:04Z</time>
      </trkpt>
      <trkpt lat="49.43392" lon="3.96292">
        <ele>106</ele>
        <time>2019-05-29T16:44:05Z</time>
      </trkpt>
      <trkpt lat="49.43393" lon="3.96303">
        <ele>106</ele>
        <time>2019-05-29T16:44:06Z</time>
      </trkpt>
      <trkpt lat="49.43393" lon="3.96313">
        <ele>106</ele>
        <time>2019-05-29T16:44:07Z</time>
      </trkpt>
      <trkpt lat="49.43394" lon="3.96323">
        <ele>106</ele>
        <time>2019-05-29T16:44:08Z</time>
      </trkpt>
      <trkpt lat="49.43394" lon="3.96333">
        <ele>106</ele>
        <time>2019-05-29T16:44:09Z</time>
      </trkpt>
      <trkpt lat="49.43396" lon="3.96343">
        <ele>106</ele>
        <time>2019-05-29T16:44:10Z</time>
      </trkpt>
      <trkpt lat="49.43397" lon="3.96353">
        <ele>106</ele>
        <time>2019-05-29T16:44:11Z</time>
      </trkpt>
      <trkpt lat="49.43398" lon="3.96363">
        <ele>105</ele>
        <time>2019-05-29T16:44:12Z</time>
      </trkpt>
      <trkpt lat="49.43399" lon="3.96374">
        <ele>105</ele>
        <time>2019-05-29T16:44:13Z</time>
      </trkpt>
      <trkpt lat="49.43401" lon="3.96385">
        <ele>105</ele>
        <time>2019-05-29T16:44:14Z</time>
      </trkpt>
      <trkpt lat="49.43402" lon="3.96395">
        <ele>106</ele>
        <time>2019-05-29T16:44:15Z</time>
      </trkpt>
      <trkpt lat="49.43403" lon="3.96406">
        <ele>105</ele>
        <time>2019-05-29T16:44:16Z</time>
      </trkpt>
      <trkpt lat="49.43403" lon="3.96417">
        <ele>105</ele>
        <time>2019-05-29T16:44:17Z</time>
      </trkpt>
      <trkpt lat="49.43403" lon="3.96429">
        <ele>105</ele>
        <time>2019-05-29T16:44:18Z</time>
      </trkpt>
      <trkpt lat="49.43404" lon="3.9644">
        <ele>104</ele>
        <time>2019-05-29T16:44:19Z</time>
      </trkpt>
      <trkpt lat="49.43404" lon="3.96452">
        <ele>105</ele>
        <time>2019-05-29T16:44:20Z</time>
      </trkpt>
      <trkpt lat="49.43406" lon="3.96464">
        <ele>104</ele>
        <time>2019-05-29T16:44:21Z</time>
      </trkpt>
      <trkpt lat="49.43408" lon="3.96476">
        <ele>104</ele>
        <time>2019-05-29T16:44:22Z</time>
      </trkpt>
      <trkpt lat="49.43409" lon="3.96488">
        <ele>104</ele>
        <time>2019-05-29T16:44:23Z</time>
      </trkpt>
      <trkpt lat="49.43411" lon="3.965">
        <ele>104</ele>
        <time>2019-05-29T16:44:24Z</time>
      </trkpt>
      <trkpt lat="49.43412" lon="3.96511">
        <ele>104</ele>
        <time>2019-05-29T16:44:25Z</time>
      </trkpt>
      <trkpt lat="49.43414" lon="3.96522">
        <ele>104</ele>
        <time>2019-05-29T16:44:26Z</time>
      </trkpt>
      <trkpt lat="49.43416" lon="3.96533">
        <ele>104</ele>
        <time>2019-05-29T16:44:27Z</time>
      </trkpt>
      <trkpt lat="49.43418" lon="3.96544">
        <ele>104</ele>
        <time>2019-05-29T16:44:28Z</time>
      </trkpt>
      <trkpt lat="49.4342" lon="3.96556">
        <ele>104</ele>
        <time>2019-05-29T16:44:29Z</time>
      </trkpt>
      <trkpt lat="49.43421" lon="3.96568">
        <ele>105</ele>
        <time>2019-05-29T16:44:30Z</time>
      </trkpt>
      <trkpt lat="49.43422" lon="3.96581">
        <ele>105</ele>
        <time>2019-05-29T16:44:31Z</time>
      </trkpt>
      <trkpt lat="49.43423" lon="3.96592">
        <ele>105</ele>
        <time>2019-05-29T16:44:32Z</time>
      </trkpt>
      <trkpt lat="49.43425" lon="3.96604">
        <ele>105</ele>
        <time>2019-05-29T16:44:33Z</time>
      </trkpt>
      <trkpt lat="49.43426" lon="3.96615">
        <ele>105</ele>
        <time>2019-05-29T16:44:34Z</time>
      </trkpt>
      <trkpt lat="49.43428" lon="3.96626">
        <ele>105</ele>
        <time>2019-05-29T16:44:35Z</time>
      </trkpt>
      <trkpt lat="49.43429" lon="3.96637">
        <ele>104</ele>
        <time>2019-05-29T16:44:36Z</time>
      </trkpt>
      <trkpt lat="49.43431" lon="3.96648">
        <ele>105</ele>
        <time>2019-05-29T16:44:37Z</time>
      </trkpt>
      <trkpt lat="49.43432" lon="3.9666">
        <ele>104</ele>
        <time>2019-05-29T16:44:38Z</time>
      </trkpt>
      <trkpt lat="49.43434" lon="3.96671">
        <ele>104</ele>
        <time>2019-05-29T16:44:39Z</time>
      </trkpt>
      <trkpt lat="49.43435" lon="3.96683">
        <ele>104</ele>
        <time>2019-05-29T16:44:40Z</time>
      </trkpt>
      <trkpt lat="49.43435" lon="3.96696">
        <ele>104</ele>
        <time>2019-05-29T16:44:41Z</time>
      </trkpt>
      <trkpt lat="49.43436" lon="3.96709">
        <ele>105</ele>
        <time>2019-05-29T16:44:42Z</time>
      </trkpt>
      <trkpt lat="49.43436" lon="3.96721">
        <ele>105</ele>
        <time>2019-05-29T16:44:43Z</time>
      </trkpt>
      <trkpt lat="49.43434" lon="3.96734">
        <ele>105</ele>
        <time>2019-05-29T16:44:44Z</time>
      </trkpt>
      <trkpt lat="49.43432" lon="3.96747">
        <ele>106</ele>
        <time>2019-05-29T16:44:45Z</time>
      </trkpt>
      <trkpt lat="49.43431" lon="3.96759">
        <ele>106</ele>
        <time>2019-05-29T16:44:46Z</time>
      </trkpt>
      <trkpt lat="49.43429" lon="3.96772">
        <ele>106</ele>
        <time>2019-05-29T16:44:47Z</time>
      </trkpt>
      <trkpt lat="49.43426" lon="3.96784">
        <ele>106</ele>
        <time>2019-05-29T16:44:48Z</time>
      </trkpt>
      <trkpt lat="49.43423" lon="3.96796">
        <ele>106</ele>
        <time>2019-05-29T16:44:49Z</time>
      </trkpt>
      <trkpt lat="49.43421" lon="3.96808">
        <ele>107</ele>
        <time>2019-05-29T16:44:50Z</time>
      </trkpt>
      <trkpt lat="49.43418" lon="3.96817">
        <ele>107</ele>
        <time>2019-05-29T16:44:51Z</time>
      </trkpt>
      <trkpt lat="49.43416" lon="3.96821">
        <ele>108</ele>
        <time>2019-05-29T16:44:52Z</time>
      </trkpt>
      <trkpt lat="49.43415" lon="3.96824">
        <ele>108</ele>
        <time>2019-05-29T16:44:53Z</time>
      </trkpt>
      <trkpt lat="49.43414" lon="3.96827">
        <ele>109</ele>
        <time>2019-05-29T16:44:54Z</time>
      </trkpt>
      <trkpt lat="49.43413" lon="3.96831">
        <ele>109</ele>
        <time>2019-05-29T16:44:55Z</time>
      </trkpt>
      <trkpt lat="49.43412" lon="3.96835">
        <ele>109</ele>
        <time>2019-05-29T16:44:56Z</time>
      </trkpt>
      <trkpt lat="49.43411" lon="3.96841">
        <ele>109</ele>
        <time>2019-05-29T16:44:57Z</time>
      </trkpt>
      <trkpt lat="49.43409" lon="3.96846">
        <ele>110</ele>
        <time>2019-05-29T16:44:58Z</time>
      </trkpt>
      <trkpt lat="49.43408" lon="3.9685">
        <ele>110</ele>
        <time>2019-05-29T16:44:59Z</time>
      </trkpt>
      <trkpt lat="49.43406" lon="3.96853">
        <ele>110</ele>
        <time>2019-05-29T16:45:00Z</time>
      </trkpt>
      <trkpt lat="49.43404" lon="3.96857">
        <ele>110</ele>
        <time>2019-05-29T16:45:01Z</time>
      </trkpt>
      <trkpt lat="49.43402" lon="3.96862">
        <ele>110</ele>
        <time>2019-05-29T16:45:02Z</time>
      </trkpt>
      <trkpt lat="49.43401" lon="3.96868">
        <ele>110</ele>
        <time>2019-05-29T16:45:03Z</time>
      </trkpt>
      <trkpt lat="49.43399" lon="3.96874">
        <ele>110</ele>
        <time>2019-05-29T16:45:04Z</time>
      </trkpt>
      <trkpt lat="49.43398" lon="3.9688">
        <ele>111</ele>
        <time>2019-05-29T16:45:05Z</time>
      </trkpt>
      <trkpt lat="49.43396" lon="3.96886">
        <ele>111</ele>
        <time>2019-05-29T16:45:06Z</time>
      </trkpt>
      <trkpt lat="49.43394" lon="3.96893">
        <ele>112</ele>
        <time>2019-05-29T16:45:07Z</time>
      </trkpt>
      <trkpt lat="49.43391" lon="3.96899">
        <ele>112</ele>
        <time>2019-05-29T16:45:08Z</time>
      </trkpt>
      <trkpt lat="49.43389" lon="3.96905">
        <ele>112</ele>
        <time>2019-05-29T16:45:09Z</time>
      </trkpt>
      <trkpt lat="49.43387" lon="3.96912">
        <ele>112</ele>
        <time>2019-05-29T16:45:10Z</time>
      </trkpt>
      <trkpt lat="49.43385" lon="3.96918">
        <ele>112</ele>
        <time>2019-05-29T16:45:11Z</time>
      </trkpt>
      <trkpt lat="49.43382" lon="3.96925">
        <ele>113</ele>
        <time>2019-05-29T16:45:12Z</time>
      </trkpt>
      <trkpt lat="49.4338" lon="3.96932">
        <ele>113</ele>
        <time>2019-05-29T16:45:13Z</time>
      </trkpt>
      <trkpt lat="49.43376" lon="3.96938">
        <ele>113</ele>
        <time>2019-05-29T16:45:14Z</time>
      </trkpt>
      <trkpt lat="49.43373" lon="3.96944">
        <ele>113</ele>
        <time>2019-05-29T16:45:15Z</time>
      </trkpt>
      <trkpt lat="49.43371" lon="3.9695">
        <ele>113</ele>
        <time>2019-05-29T16:45:16Z</time>
      </trkpt>
      <trkpt lat="49.43367" lon="3.96958">
        <ele>113</ele>
        <time>2019-05-29T16:45:17Z</time>
      </trkpt>
      <trkpt lat="49.43364" lon="3.96965">
        <ele>113</ele>
        <time>2019-05-29T16:45:18Z</time>
      </trkpt>
      <trkpt lat="49.43361" lon="3.96972">
        <ele>113</ele>
        <time>2019-05-29T16:45:19Z</time>
      </trkpt>
      <trkpt lat="49.4336" lon="3.96978">
        <ele>113</ele>
        <time>2019-05-29T16:45:20Z</time>
      </trkpt>
      <trkpt lat="49.43357" lon="3.96985">
        <ele>113</ele>
        <time>2019-05-29T16:45:21Z</time>
      </trkpt>
      <trkpt lat="49.43354" lon="3.96992">
        <ele>113</ele>
        <time>2019-05-29T16:45:22Z</time>
      </trkpt>
      <trkpt lat="49.43351" lon="3.96999">
        <ele>113</ele>
        <time>2019-05-29T16:45:23Z</time>
      </trkpt>
      <trkpt lat="49.43348" lon="3.97005">
        <ele>113</ele>
        <time>2019-05-29T16:45:24Z</time>
      </trkpt>
      <trkpt lat="49.43345" lon="3.97011">
        <ele>112</ele>
        <time>2019-05-29T16:45:25Z</time>
      </trkpt>
      <trkpt lat="49.43342" lon="3.97017">
        <ele>112</ele>
        <time>2019-05-29T16:45:26Z</time>
      </trkpt>
      <trkpt lat="49.43339" lon="3.97023">
        <ele>112</ele>
        <time>2019-05-29T16:45:27Z</time>
      </trkpt>
      <trkpt lat="49.43336" lon="3.97029">
        <ele>112</ele>
        <time>2019-05-29T16:45:28Z</time>
      </trkpt>
      <trkpt lat="49.43333" lon="3.97035">
        <ele>112</ele>
        <time>2019-05-29T16:45:29Z</time>
      </trkpt>
      <trkpt lat="49.43331" lon="3.97042">
        <ele>112</ele>
        <time>2019-05-29T16:45:30Z</time>
      </trkpt>
      <trkpt lat="49.43329" lon="3.97048">
        <ele>113</ele>
        <time>2019-05-29T16:45:31Z</time>
      </trkpt>
      <trkpt lat="49.43326" lon="3.97055">
        <ele>113</ele>
        <time>2019-05-29T16:45:32Z</time>
      </trkpt>
      <trkpt lat="49.43323" lon="3.97062">
        <ele>113</ele>
        <time>2019-05-29T16:45:33Z</time>
      </trkpt>
      <trkpt lat="49.4332" lon="3.97069">
        <ele>113</ele>
        <time>2019-05-29T16:45:34Z</time>
      </trkpt>
      <trkpt lat="49.43315" lon="3.97083">
        <ele>113</ele>
        <time>2019-05-29T16:45:36Z</time>
      </trkpt>
      <trkpt lat="49.43312" lon="3.97089">
        <ele>113</ele>
        <time>2019-05-29T16:45:37Z</time>
      </trkpt>
      <trkpt lat="49.4331" lon="3.97096">
        <ele>113</ele>
        <time>2019-05-29T16:45:38Z</time>
      </trkpt>
      <trkpt lat="49.43307" lon="3.97102">
        <ele>113</ele>
        <time>2019-05-29T16:45:39Z</time>
      </trkpt>
      <trkpt lat="49.43304" lon="3.97109">
        <ele>112</ele>
        <time>2019-05-29T16:45:40Z</time>
      </trkpt>
      <trkpt lat="49.43302" lon="3.97115">
        <ele>112</ele>
        <time>2019-05-29T16:45:41Z</time>
      </trkpt>
      <trkpt lat="49.43299" lon="3.97122">
        <ele>112</ele>
        <time>2019-05-29T16:45:42Z</time>
      </trkpt>
      <trkpt lat="49.43296" lon="3.97128">
        <ele>112</ele>
        <time>2019-05-29T16:45:43Z</time>
      </trkpt>
      <trkpt lat="49.43293" lon="3.97135">
        <ele>112</ele>
        <time>2019-05-29T16:45:44Z</time>
      </trkpt>
      <trkpt lat="49.4329" lon="3.97141">
        <ele>112</ele>
        <time>2019-05-29T16:45:45Z</time>
      </trkpt>
      <trkpt lat="49.43287" lon="3.97148">
        <ele>112</ele>
        <time>2019-05-29T16:45:46Z</time>
      </trkpt>
      <trkpt lat="49.43284" lon="3.97155">
        <ele>112</ele>
        <time>2019-05-29T16:45:47Z</time>
      </trkpt>
      <trkpt lat="49.43281" lon="3.97163">
        <ele>112</ele>
        <time>2019-05-29T16:45:48Z</time>
      </trkpt>
      <trkpt lat="49.43278" lon="3.9717">
        <ele>111</ele>
        <time>2019-05-29T16:45:49Z</time>
      </trkpt>
      <trkpt lat="49.43275" lon="3.97178">
        <ele>111</ele>
        <time>2019-05-29T16:45:50Z</time>
      </trkpt>
      <trkpt lat="49.43272" lon="3.97186">
        <ele>111</ele>
        <time>2019-05-29T16:45:51Z</time>
      </trkpt>
      <trkpt lat="49.43269" lon="3.97193">
        <ele>112</ele>
        <time>2019-05-29T16:45:52Z</time>
      </trkpt>
      <trkpt lat="49.43265" lon="3.97201">
        <ele>111</ele>
        <time>2019-05-29T16:45:53Z</time>
      </trkpt>
      <trkpt lat="49.43262" lon="3.97209">
        <ele>111</ele>
        <time>2019-05-29T16:45:54Z</time>
      </trkpt>
      <trkpt lat="49.43258" lon="3.97217">
        <ele>112</ele>
        <time>2019-05-29T16:45:55Z</time>
      </trkpt>
      <trkpt lat="49.43255" lon="3.97225">
        <ele>112</ele>
        <time>2019-05-29T16:45:56Z</time>
      </trkpt>
      <trkpt lat="49.43252" lon="3.97234">
        <ele>113</ele>
        <time>2019-05-29T16:45:57Z</time>
      </trkpt>
      <trkpt lat="49.43248" lon="3.97243">
        <ele>113</ele>
        <time>2019-05-29T16:45:58Z</time>
      </trkpt>
      <trkpt lat="49.43245" lon="3.97251">
        <ele>113</ele>
        <time>2019-05-29T16:45:59Z</time>
      </trkpt>
      <trkpt lat="49.43241" lon="3.97259">
        <ele>113</ele>
        <time>2019-05-29T16:46:00Z</time>
      </trkpt>
      <trkpt lat="49.43238" lon="3.97267">
        <ele>113</ele>
        <time>2019-05-29T16:46:01Z</time>
      </trkpt>
      <trkpt lat="49.43235" lon="3.97277">
        <ele>112</ele>
        <time>2019-05-29T16:46:02Z</time>
      </trkpt>
      <trkpt lat="49.43231" lon="3.97286">
        <ele>112</ele>
        <time>2019-05-29T16:46:03Z</time>
      </trkpt>
      <trkpt lat="49.43227" lon="3.97295">
        <ele>112</ele>
        <time>2019-05-29T16:46:04Z</time>
      </trkpt>
      <trkpt lat="49.43223" lon="3.97305">
        <ele>112</ele>
        <time>2019-05-29T16:46:05Z</time>
      </trkpt>
      <trkpt lat="49.4322" lon="3.97315">
        <ele>112</ele>
        <time>2019-05-29T16:46:06Z</time>
      </trkpt>
      <trkpt lat="49.43216" lon="3.97324">
        <ele>112</ele>
        <time>2019-05-29T16:46:07Z</time>
      </trkpt>
      <trkpt lat="49.43212" lon="3.97334">
        <ele>111</ele>
        <time>2019-05-29T16:46:08Z</time>
      </trkpt>
      <trkpt lat="49.43208" lon="3.97343">
        <ele>111</ele>
        <time>2019-05-29T16:46:09Z</time>
      </trkpt>
      <trkpt lat="49.43204" lon="3.97352">
        <ele>111</ele>
        <time>2019-05-29T16:46:10Z</time>
      </trkpt>
      <trkpt lat="49.432" lon="3.97361">
        <ele>111</ele>
        <time>2019-05-29T16:46:11Z</time>
      </trkpt>
      <trkpt lat="49.43196" lon="3.9737">
        <ele>111</ele>
        <time>2019-05-29T16:46:12Z</time>
      </trkpt>
      <trkpt lat="49.43192" lon="3.97379">
        <ele>111</ele>
        <time>2019-05-29T16:46:13Z</time>
      </trkpt>
      <trkpt lat="49.43188" lon="3.97388">
        <ele>110</ele>
        <time>2019-05-29T16:46:14Z</time>
      </trkpt>
      <trkpt lat="49.43184" lon="3.97398">
        <ele>109</ele>
        <time>2019-05-29T16:46:15Z</time>
      </trkpt>
      <trkpt lat="49.43179" lon="3.97408">
        <ele>109</ele>
        <time>2019-05-29T16:46:16Z</time>
      </trkpt>
      <trkpt lat="49.43174" lon="3.97418">
        <ele>108</ele>
        <time>2019-05-29T16:46:17Z</time>
      </trkpt>
      <trkpt lat="49.43169" lon="3.97428">
        <ele>108</ele>
        <time>2019-05-29T16:46:18Z</time>
      </trkpt>
      <trkpt lat="49.43165" lon="3.97439">
        <ele>108</ele>
        <time>2019-05-29T16:46:19Z</time>
      </trkpt>
      <trkpt lat="49.4316" lon="3.9745">
        <ele>108</ele>
        <time>2019-05-29T16:46:20Z</time>
      </trkpt>
      <trkpt lat="49.43155" lon="3.9746">
        <ele>108</ele>
        <time>2019-05-29T16:46:21Z</time>
      </trkpt>
      <trkpt lat="49.4315" lon="3.97472">
        <ele>107</ele>
        <time>2019-05-29T16:46:22Z</time>
      </trkpt>
      <trkpt lat="49.43145" lon="3.97484">
        <ele>107</ele>
        <time>2019-05-29T16:46:23Z</time>
      </trkpt>
      <trkpt lat="49.4314" lon="3.97496">
        <ele>107</ele>
        <time>2019-05-29T16:46:24Z</time>
      </trkpt>
      <trkpt lat="49.43134" lon="3.97508">
        <ele>107</ele>
        <time>2019-05-29T16:46:25Z</time>
      </trkpt>
      <trkpt lat="49.43129" lon="3.97519">
        <ele>107</ele>
        <time>2019-05-29T16:46:26Z</time>
      </trkpt>
      <trkpt lat="49.43124" lon="3.97531">
        <ele>107</ele>
        <time>2019-05-29T16:46:27Z</time>
      </trkpt>
      <trkpt lat="49.43119" lon="3.97542">
        <ele>107</ele>
        <time>2019-05-29T16:46:28Z</time>
      </trkpt>
      <trkpt lat="49.43114" lon="3.97553">
        <ele>107</ele>
        <time>2019-05-29T16:46:29Z</time>
      </trkpt>
      <trkpt lat="49.43109" lon="3.97565">
        <ele>107</ele>
        <time>2019-05-29T16:46:30Z</time>
      </trkpt>
      <trkpt lat="49.43104" lon="3.97576">
        <ele>108</ele>
        <time>2019-05-29T16:46:31Z</time>
      </trkpt>
      <trkpt lat="49.43099" lon="3.97587">
        <ele>108</ele>
        <time>2019-05-29T16:46:32Z</time>
      </trkpt>
      <trkpt lat="49.43094" lon="3.97598">
        <ele>108</ele>
        <time>2019-05-29T16:46:33Z</time>
      </trkpt>
      <trkpt lat="49.43089" lon="3.97609">
        <ele>108</ele>
        <time>2019-05-29T16:46:34Z</time>
      </trkpt>
      <trkpt lat="49.43085" lon="3.97621">
        <ele>108</ele>
        <time>2019-05-29T16:46:35Z</time>
      </trkpt>
      <trkpt lat="49.4308" lon="3.97633">
        <ele>108</ele>
        <time>2019-05-29T16:46:36Z</time>
      </trkpt>
      <trkpt lat="49.43075" lon="3.97645">
        <ele>108</ele>
        <time>2019-05-29T16:46:37Z</time>
      </trkpt>
      <trkpt lat="49.4307" lon="3.97656">
        <ele>108</ele>
        <time>2019-05-29T16:46:38Z</time>
      </trkpt>
      <trkpt lat="49.43065" lon="3.97667">
        <ele>108</ele>
        <time>2019-05-29T16:46:39Z</time>
      </trkpt>
      <trkpt lat="49.4306" lon="3.97678">
        <ele>108</ele>
        <time>2019-05-29T16:46:40Z</time>
      </trkpt>
      <trkpt lat="49.43055" lon="3.9769">
        <ele>108</ele>
        <time>2019-05-29T16:46:41Z</time>
      </trkpt>
      <trkpt lat="49.43051" lon="3.97701">
        <ele>108</ele>
        <time>2019-05-29T16:46:42Z</time>
      </trkpt>
      <trkpt lat="49.43046" lon="3.97712">
        <ele>108</ele>
        <time>2019-05-29T16:46:43Z</time>
      </trkpt>
      <trkpt lat="49.43041" lon="3.97724">
        <ele>108</ele>
        <time>2019-05-29T16:46:44Z</time>
      </trkpt>
      <trkpt lat="49.43036" lon="3.97735">
        <ele>108</ele>
        <time>2019-05-29T16:46:45Z</time>
      </trkpt>
      <trkpt lat="49.43031" lon="3.97746">
        <ele>108</ele>
        <time>2019-05-29T16:46:46Z</time>
      </trkpt>
      <trkpt lat="49.43026" lon="3.97758">
        <ele>107</ele>
        <time>2019-05-29T16:46:47Z</time>
      </trkpt>
      <trkpt lat="49.43021" lon="3.9777">
        <ele>107</ele>
        <time>2019-05-29T16:46:48Z</time>
      </trkpt>
      <trkpt lat="49.43016" lon="3.97782">
        <ele>107</ele>
        <time>2019-05-29T16:46:49Z</time>
      </trkpt>
      <trkpt lat="49.43011" lon="3.97794">
        <ele>106</ele>
        <time>2019-05-29T16:46:50Z</time>
      </trkpt>
      <trkpt lat="49.43006" lon="3.97806">
        <ele>106</ele>
        <time>2019-05-29T16:46:51Z</time>
      </trkpt>
      <trkpt lat="49.43001" lon="3.97818">
        <ele>105</ele>
        <time>2019-05-29T16:46:52Z</time>
      </trkpt>
      <trkpt lat="49.42995" lon="3.97831">
        <ele>105</ele>
        <time>2019-05-29T16:46:53Z</time>
      </trkpt>
      <trkpt lat="49.4299" lon="3.97844">
        <ele>105</ele>
        <time>2019-05-29T16:46:54Z</time>
      </trkpt>
      <trkpt lat="49.42984" lon="3.97856">
        <ele>105</ele>
        <time>2019-05-29T16:46:55Z</time>
      </trkpt>
      <trkpt lat="49.42979" lon="3.9787">
        <ele>105</ele>
        <time>2019-05-29T16:46:56Z</time>
      </trkpt>
      <trkpt lat="49.42974" lon="3.97883">
        <ele>104</ele>
        <time>2019-05-29T16:46:57Z</time>
      </trkpt>
      <trkpt lat="49.42968" lon="3.97897">
        <ele>104</ele>
        <time>2019-05-29T16:46:58Z</time>
      </trkpt>
      <trkpt lat="49.42962" lon="3.9791">
        <ele>104</ele>
        <time>2019-05-29T16:46:59Z</time>
      </trkpt>
      <trkpt lat="49.42956" lon="3.97924">
        <ele>103</ele>
        <time>2019-05-29T16:47:00Z</time>
      </trkpt>
      <trkpt lat="49.4295" lon="3.97938">
        <ele>103</ele>
        <time>2019-05-29T16:47:01Z</time>
      </trkpt>
      <trkpt lat="49.42945" lon="3.97952">
        <ele>102</ele>
        <time>2019-05-29T16:47:02Z</time>
      </trkpt>
      <trkpt lat="49.42939" lon="3.97966">
        <ele>102</ele>
        <time>2019-05-29T16:47:03Z</time>
      </trkpt>
      <trkpt lat="49.42933" lon="3.97979">
        <ele>102</ele>
        <time>2019-05-29T16:47:04Z</time>
      </trkpt>
      <trkpt lat="49.42928" lon="3.97993">
        <ele>102</ele>
        <time>2019-05-29T16:47:05Z</time>
      </trkpt>
      <trkpt lat="49.42922" lon="3.98007">
        <ele>102</ele>
        <time>2019-05-29T16:47:06Z</time>
      </trkpt>
      <trkpt lat="49.42916" lon="3.9802">
        <ele>102</ele>
        <time>2019-05-29T16:47:07Z</time>
      </trkpt>
      <trkpt lat="49.4291" lon="3.98033">
        <ele>102</ele>
        <time>2019-05-29T16:47:08Z</time>
      </trkpt>
      <trkpt lat="49.42904" lon="3.98046">
        <ele>102</ele>
        <time>2019-05-29T16:47:09Z</time>
      </trkpt>
      <trkpt lat="49.42899" lon="3.98058">
        <ele>102</ele>
        <time>2019-05-29T16:47:10Z</time>
      </trkpt>
      <trkpt lat="49.42893" lon="3.9807">
        <ele>102</ele>
        <time>2019-05-29T16:47:11Z</time>
      </trkpt>
      <trkpt lat="49.42887" lon="3.98083">
        <ele>102</ele>
        <time>2019-05-29T16:47:12Z</time>
      </trkpt>
      <trkpt lat="49.42882" lon="3.98096">
        <ele>102</ele>
        <time>2019-05-29T16:47:13Z</time>
      </trkpt>
      <trkpt lat="49.42876" lon="3.98109">
        <ele>102</ele>
        <time>2019-05-29T16:47:14Z</time>
      </trkpt>
      <trkpt lat="49.42871" lon="3.98121">
        <ele>102</ele>
        <time>2019-05-29T16:47:15Z</time>
      </trkpt>
      <trkpt lat="49.42865" lon="3.98134">
        <ele>102</ele>
        <time>2019-05-29T16:47:16Z</time>
      </trkpt>
      <trkpt lat="49.42859" lon="3.98147">
        <ele>102</ele>
        <time>2019-05-29T16:47:17Z</time>
      </trkpt>
      <trkpt lat="49.42854" lon="3.9816">
        <ele>102</ele>
        <time>2019-05-29T16:47:18Z</time>
      </trkpt>
      <trkpt lat="49.42849" lon="3.98172">
        <ele>102</ele>
        <time>2019-05-29T16:47:19Z</time>
      </trkpt>
      <trkpt lat="49.42843" lon="3.98185">
        <ele>102</ele>
        <time>2019-05-29T16:47:20Z</time>
      </trkpt>
      <trkpt lat="49.42838" lon="3.98197">
        <ele>102</ele>
        <time>2019-05-29T16:47:21Z</time>
      </trkpt>
      <trkpt lat="49.42833" lon="3.98209">
        <ele>102</ele>
        <time>2019-05-29T16:47:22Z</time>
      </trkpt>
      <trkpt lat="49.42827" lon="3.98221">
        <ele>102</ele>
        <time>2019-05-29T16:47:23Z</time>
      </trkpt>
      <trkpt lat="49.42822" lon="3.98233">
        <ele>102</ele>
        <time>2019-05-29T16:47:24Z</time>
      </trkpt>
      <trkpt lat="49.42817" lon="3.98244">
        <ele>102</ele>
        <time>2019-05-29T16:47:25Z</time>
      </trkpt>
      <trkpt lat="49.42812" lon="3.98256">
        <ele>103</ele>
        <time>2019-05-29T16:47:26Z</time>
      </trkpt>
      <trkpt lat="49.42807" lon="3.98267">
        <ele>103</ele>
        <time>2019-05-29T16:47:27Z</time>
      </trkpt>
      <trkpt lat="49.42802" lon="3.98279">
        <ele>102</ele>
        <time>2019-05-29T16:47:28Z</time>
      </trkpt>
      <trkpt lat="49.42798" lon="3.9829">
        <ele>103</ele>
        <time>2019-05-29T16:47:29Z</time>
      </trkpt>
      <trkpt lat="49.42793" lon="3.98301">
        <ele>103</ele>
        <time>2019-05-29T16:47:30Z</time>
      </trkpt>
      <trkpt lat="49.42788" lon="3.98312">
        <ele>103</ele>
        <time>2019-05-29T16:47:31Z</time>
      </trkpt>
      <trkpt lat="49.42784" lon="3.98322">
        <ele>103</ele>
        <time>2019-05-29T16:47:32Z</time>
      </trkpt>
      <trkpt lat="49.42779" lon="3.98333">
        <ele>103</ele>
        <time>2019-05-29T16:47:33Z</time>
      </trkpt>
      <trkpt lat="49.42774" lon="3.98343">
        <ele>103</ele>
        <time>2019-05-29T16:47:34Z</time>
      </trkpt>
      <trkpt lat="49.42769" lon="3.98354">
        <ele>103</ele>
        <time>2019-05-29T16:47:35Z</time>
      </trkpt>
      <trkpt lat="49.42765" lon="3.98365">
        <ele>103</ele>
        <time>2019-05-29T16:47:36Z</time>
      </trkpt>
      <trkpt lat="49.42761" lon="3.98376">
        <ele>103</ele>
        <time>2019-05-29T16:47:37Z</time>
      </trkpt>
      <trkpt lat="49.42756" lon="3.98386">
        <ele>103</ele>
        <time>2019-05-29T16:47:38Z</time>
      </trkpt>
      <trkpt lat="49.42751" lon="3.98397">
        <ele>103</ele>
        <time>2019-05-29T16:47:39Z</time>
      </trkpt>
      <trkpt lat="49.42747" lon="3.98407">
        <ele>103</ele>
        <time>2019-05-29T16:47:40Z</time>
      </trkpt>
      <trkpt lat="49.42743" lon="3.98417">
        <ele>103</ele>
        <time>2019-05-29T16:47:41Z</time>
      </trkpt>
      <trkpt lat="49.42738" lon="3.98427">
        <ele>103</ele>
        <time>2019-05-29T16:47:42Z</time>
      </trkpt>
      <trkpt lat="49.42734" lon="3.98437">
        <ele>103</ele>
        <time>2019-05-29T16:47:43Z</time>
      </trkpt>
      <trkpt lat="49.42729" lon="3.98447">
        <ele>103</ele>
        <time>2019-05-29T16:47:44Z</time>
      </trkpt>
      <trkpt lat="49.42725" lon="3.98457">
        <ele>103</ele>
        <time>2019-05-29T16:47:45Z</time>
      </trkpt>
      <trkpt lat="49.42721" lon="3.98467">
        <ele>103</ele>
        <time>2019-05-29T16:47:46Z</time>
      </trkpt>
      <trkpt lat="49.42716" lon="3.98478">
        <ele>103</ele>
        <time>2019-05-29T16:47:47Z</time>
      </trkpt>
      <trkpt lat="49.42712" lon="3.98488">
        <ele>103</ele>
        <time>2019-05-29T16:47:48Z</time>
      </trkpt>
      <trkpt lat="49.42708" lon="3.98499">
        <ele>104</ele>
        <time>2019-05-29T16:47:49Z</time>
      </trkpt>
      <trkpt lat="49.42704" lon="3.98508">
        <ele>104</ele>
        <time>2019-05-29T16:47:50Z</time>
      </trkpt>
      <trkpt lat="49.42699" lon="3.98518">
        <ele>104</ele>
        <time>2019-05-29T16:47:51Z</time>
      </trkpt>
      <trkpt lat="49.42695" lon="3.98527">
        <ele>104</ele>
        <time>2019-05-29T16:47:52Z</time>
      </trkpt>
      <trkpt lat="49.42691" lon="3.98537">
        <ele>104</ele>
        <time>2019-05-29T16:47:53Z</time>
      </trkpt>
      <trkpt lat="49.42688" lon="3.98547">
        <ele>104</ele>
        <time>2019-05-29T16:47:54Z</time>
      </trkpt>
      <trkpt lat="49.42684" lon="3.98556">
        <ele>104</ele>
        <time>2019-05-29T16:47:55Z</time>
      </trkpt>
      <trkpt lat="49.4268" lon="3.98565">
        <ele>103</ele>
        <time>2019-05-29T16:47:56Z</time>
      </trkpt>
      <trkpt lat="49.42676" lon="3.98575">
        <ele>103</ele>
        <time>2019-05-29T16:47:57Z</time>
      </trkpt>
      <trkpt lat="49.42672" lon="3.98584">
        <ele>103</ele>
        <time>2019-05-29T16:47:58Z</time>
      </trkpt>
      <trkpt lat="49.42668" lon="3.98592">
        <ele>103</ele>
        <time>2019-05-29T16:47:59Z</time>
      </trkpt>
      <trkpt lat="49.42664" lon="3.986">
        <ele>103</ele>
        <time>2019-05-29T16:48:00Z</time>
      </trkpt>
      <trkpt lat="49.42661" lon="3.9861">
        <ele>103</ele>
        <time>2019-05-29T16:48:01Z</time>
      </trkpt>
      <trkpt lat="49.42657" lon="3.98619">
        <ele>103</ele>
        <time>2019-05-29T16:48:02Z</time>
      </trkpt>
      <trkpt lat="49.42653" lon="3.98628">
        <ele>103</ele>
        <time>2019-05-29T16:48:03Z</time>
      </trkpt>
      <trkpt lat="49.42649" lon="3.98637">
        <ele>103</ele>
        <time>2019-05-29T16:48:04Z</time>
      </trkpt>
      <trkpt lat="49.42645" lon="3.98646">
        <ele>103</ele>
        <time>2019-05-29T16:48:05Z</time>
      </trkpt>
      <trkpt lat="49.42641" lon="3.98655">
        <ele>103</ele>
        <time>2019-05-29T16:48:06Z</time>
      </trkpt>
      <trkpt lat="49.42637" lon="3.98665">
        <ele>103</ele>
        <time>2019-05-29T16:48:07Z</time>
      </trkpt>
      <trkpt lat="49.42633" lon="3.98674">
        <ele>103</ele>
        <time>2019-05-29T16:48:08Z</time>
      </trkpt>
      <trkpt lat="49.42628" lon="3.98684">
        <ele>103</ele>
        <time>2019-05-29T16:48:09Z</time>
      </trkpt>
      <trkpt lat="49.42624" lon="3.98693">
        <ele>103</ele>
        <time>2019-05-29T16:48:10Z</time>
      </trkpt>
      <trkpt lat="49.4262" lon="3.98702">
        <ele>103</ele>
        <time>2019-05-29T16:48:11Z</time>
      </trkpt>
      <trkpt lat="49.42617" lon="3.98712">
        <ele>103</ele>
        <time>2019-05-29T16:48:12Z</time>
      </trkpt>
      <trkpt lat="49.42613" lon="3.98721">
        <ele>103</ele>
        <time>2019-05-29T16:48:13Z</time>
      </trkpt>
      <trkpt lat="49.42608" lon="3.98731">
        <ele>103</ele>
        <time>2019-05-29T16:48:14Z</time>
      </trkpt>
      <trkpt lat="49.42604" lon="3.98741">
        <ele>103</ele>
        <time>2019-05-29T16:48:15Z</time>
      </trkpt>
      <trkpt lat="49.426" lon="3.98751">
        <ele>103</ele>
        <time>2019-05-29T16:48:16Z</time>
      </trkpt>
      <trkpt lat="49.42596" lon="3.98761">
        <ele>103</ele>
        <time>2019-05-29T16:48:17Z</time>
      </trkpt>
      <trkpt lat="49.42591" lon="3.9877">
        <ele>103</ele>
        <time>2019-05-29T16:48:18Z</time>
      </trkpt>
      <trkpt lat="49.42587" lon="3.9878">
        <ele>103</ele>
        <time>2019-05-29T16:48:19Z</time>
      </trkpt>
      <trkpt lat="49.42583" lon="3.98789">
        <ele>102</ele>
        <time>2019-05-29T16:48:20Z</time>
      </trkpt>
      <trkpt lat="49.42579" lon="3.98798">
        <ele>103</ele>
        <time>2019-05-29T16:48:21Z</time>
      </trkpt>
      <trkpt lat="49.42575" lon="3.98808">
        <ele>102</ele>
        <time>2019-05-29T16:48:22Z</time>
      </trkpt>
      <trkpt lat="49.42571" lon="3.98818">
        <ele>102</ele>
        <time>2019-05-29T16:48:23Z</time>
      </trkpt>
      <trkpt lat="49.42567" lon="3.98827">
        <ele>103</ele>
        <time>2019-05-29T16:48:24Z</time>
      </trkpt>
      <trkpt lat="49.42563" lon="3.98837">
        <ele>103</ele>
        <time>2019-05-29T16:48:25Z</time>
      </trkpt>
      <trkpt lat="49.42559" lon="3.98846">
        <ele>103</ele>
        <time>2019-05-29T16:48:26Z</time>
      </trkpt>
      <trkpt lat="49.42555" lon="3.98855">
        <ele>103</ele>
        <time>2019-05-29T16:48:27Z</time>
      </trkpt>
      <trkpt lat="49.42551" lon="3.98864">
        <ele>103</ele>
        <time>2019-05-29T16:48:28Z</time>
      </trkpt>
      <trkpt lat="49.42547" lon="3.98873">
        <ele>103</ele>
        <time>2019-05-29T16:48:29Z</time>
      </trkpt>
      <trkpt lat="49.42543" lon="3.98882">
        <ele>103</ele>
        <time>2019-05-29T16:48:30Z</time>
      </trkpt>
      <trkpt lat="49.42539" lon="3.98891">
        <ele>103</ele>
        <time>2019-05-29T16:48:31Z</time>
      </trkpt>
      <trkpt lat="49.42535" lon="3.989">
        <ele>103</ele>
        <time>2019-05-29T16:48:32Z</time>
      </trkpt>
      <trkpt lat="49.42531" lon="3.98909">
        <ele>103</ele>
        <time>2019-05-29T16:48:33Z</time>
      </trkpt>
      <trkpt lat="49.42527" lon="3.98918">
        <ele>104</ele>
        <time>2019-05-29T16:48:34Z</time>
      </trkpt>
      <trkpt lat="49.42523" lon="3.98927">
        <ele>104</ele>
        <time>2019-05-29T16:48:35Z</time>
      </trkpt>
      <trkpt lat="49.42519" lon="3.98935">
        <ele>104</ele>
        <time>2019-05-29T16:48:36Z</time>
      </trkpt>
      <trkpt lat="49.42515" lon="3.98944">
        <ele>104</ele>
        <time>2019-05-29T16:48:37Z</time>
      </trkpt>
      <trkpt lat="49.42511" lon="3.98952">
        <ele>104</ele>
        <time>2019-05-29T16:48:38Z</time>
      </trkpt>
      <trkpt lat="49.42507" lon="3.9896">
        <ele>104</ele>
        <time>2019-05-29T16:48:39Z</time>
      </trkpt>
      <trkpt lat="49.42503" lon="3.98969">
        <ele>104</ele>
        <time>2019-05-29T16:48:40Z</time>
      </trkpt>
      <trkpt lat="49.42499" lon="3.98978">
        <ele>105</ele>
        <time>2019-05-29T16:48:41Z</time>
      </trkpt>
      <trkpt lat="49.42496" lon="3.98986">
        <ele>105</ele>
        <time>2019-05-29T16:48:42Z</time>
      </trkpt>
      <trkpt lat="49.42492" lon="3.98995">
        <ele>105</ele>
        <time>2019-05-29T16:48:43Z</time>
      </trkpt>
      <trkpt lat="49.42488" lon="3.99004">
        <ele>105</ele>
        <time>2019-05-29T16:48:44Z</time>
      </trkpt>
      <trkpt lat="49.42484" lon="3.99012">
        <ele>106</ele>
        <time>2019-05-29T16:48:45Z</time>
      </trkpt>
      <trkpt lat="49.42481" lon="3.99021">
        <ele>106</ele>
        <time>2019-05-29T16:48:46Z</time>
      </trkpt>
      <trkpt lat="49.42477" lon="3.9903">
        <ele>106</ele>
        <time>2019-05-29T16:48:47Z</time>
      </trkpt>
      <trkpt lat="49.42473" lon="3.99038">
        <ele>106</ele>
        <time>2019-05-29T16:48:48Z</time>
      </trkpt>
      <trkpt lat="49.42469" lon="3.99047">
        <ele>106</ele>
        <time>2019-05-29T16:48:49Z</time>
      </trkpt>
      <trkpt lat="49.42465" lon="3.99056">
        <ele>106</ele>
        <time>2019-05-29T16:48:50Z</time>
      </trkpt>
      <trkpt lat="49.42461" lon="3.99064">
        <ele>106</ele>
        <time>2019-05-29T16:48:51Z</time>
      </trkpt>
      <trkpt lat="49.42458" lon="3.99073">
        <ele>107</ele>
        <time>2019-05-29T16:48:52Z</time>
      </trkpt>
      <trkpt lat="49.42454" lon="3.99082">
        <ele>107</ele>
        <time>2019-05-29T16:48:53Z</time>
      </trkpt>
      <trkpt lat="49.4245" lon="3.99091">
        <ele>107</ele>
        <time>2019-05-29T16:48:54Z</time>
      </trkpt>
      <trkpt lat="49.42446" lon="3.991">
        <ele>107</ele>
        <time>2019-05-29T16:48:55Z</time>
      </trkpt>
      <trkpt lat="49.42443" lon="3.99108">
        <ele>107</ele>
        <time>2019-05-29T16:48:56Z</time>
      </trkpt>
      <trkpt lat="49.42439" lon="3.99117">
        <ele>107</ele>
        <time>2019-05-29T16:48:57Z</time>
      </trkpt>
      <trkpt lat="49.42435" lon="3.99125">
        <ele>107</ele>
        <time>2019-05-29T16:48:58Z</time>
      </trkpt>
      <trkpt lat="49.42432" lon="3.99134">
        <ele>107</ele>
        <time>2019-05-29T16:48:59Z</time>
      </trkpt>
      <trkpt lat="49.42428" lon="3.99143">
        <ele>107</ele>
        <time>2019-05-29T16:49:00Z</time>
      </trkpt>
      <trkpt lat="49.42424" lon="3.99152">
        <ele>108</ele>
        <time>2019-05-29T16:49:01Z</time>
      </trkpt>
      <trkpt lat="49.4242" lon="3.99161">
        <ele>108</ele>
        <time>2019-05-29T16:49:02Z</time>
      </trkpt>
      <trkpt lat="49.42416" lon="3.9917">
        <ele>108</ele>
        <time>2019-05-29T16:49:03Z</time>
      </trkpt>
      <trkpt lat="49.42412" lon="3.99179">
        <ele>108</ele>
        <time>2019-05-29T16:49:04Z</time>
      </trkpt>
      <trkpt lat="49.42408" lon="3.99189">
        <ele>108</ele>
        <time>2019-05-29T16:49:05Z</time>
      </trkpt>
      <trkpt lat="49.42404" lon="3.99198">
        <ele>108</ele>
        <time>2019-05-29T16:49:06Z</time>
      </trkpt>
      <trkpt lat="49.424" lon="3.99207">
        <ele>108</ele>
        <time>2019-05-29T16:49:07Z</time>
      </trkpt>
      <trkpt lat="49.42396" lon="3.99216">
        <ele>108</ele>
        <time>2019-05-29T16:49:08Z</time>
      </trkpt>
      <trkpt lat="49.42393" lon="3.99225">
        <ele>108</ele>
        <time>2019-05-29T16:49:09Z</time>
      </trkpt>
      <trkpt lat="49.42389" lon="3.99234">
        <ele>108</ele>
        <time>2019-05-29T16:49:10Z</time>
      </trkpt>
      <trkpt lat="49.42386" lon="3.99241">
        <ele>108</ele>
        <time>2019-05-29T16:49:11Z</time>
      </trkpt>
      <trkpt lat="49.42382" lon="3.9925">
        <ele>108</ele>
        <time>2019-05-29T16:49:12Z</time>
      </trkpt>
      <trkpt lat="49.42378" lon="3.99259">
        <ele>108</ele>
        <time>2019-05-29T16:49:13Z</time>
      </trkpt>
      <trkpt lat="49.42375" lon="3.99268">
        <ele>107</ele>
        <time>2019-05-29T16:49:14Z</time>
      </trkpt>
      <trkpt lat="49.42371" lon="3.99278">
        <ele>107</ele>
        <time>2019-05-29T16:49:15Z</time>
      </trkpt>
      <trkpt lat="49.42367" lon="3.99287">
        <ele>107</ele>
        <time>2019-05-29T16:49:16Z</time>
      </trkpt>
      <trkpt lat="49.42362" lon="3.99296">
        <ele>107</ele>
        <time>2019-05-29T16:49:17Z</time>
      </trkpt>
      <trkpt lat="49.42358" lon="3.99305">
        <ele>107</ele>
        <time>2019-05-29T16:49:18Z</time>
      </trkpt>
      <trkpt lat="49.42354" lon="3.99314">
        <ele>107</ele>
        <time>2019-05-29T16:49:19Z</time>
      </trkpt>
      <trkpt lat="49.4235" lon="3.99324">
        <ele>107</ele>
        <time>2019-05-29T16:49:20Z</time>
      </trkpt>
      <trkpt lat="49.42346" lon="3.99333">
        <ele>107</ele>
        <time>2019-05-29T16:49:21Z</time>
      </trkpt>
      <trkpt lat="49.42342" lon="3.99342">
        <ele>107</ele>
        <time>2019-05-29T16:49:22Z</time>
      </trkpt>
      <trkpt lat="49.42338" lon="3.99352">
        <ele>107</ele>
        <time>2019-05-29T16:49:23Z</time>
      </trkpt>
      <trkpt lat="49.42335" lon="3.99361">
        <ele>107</ele>
        <time>2019-05-29T16:49:24Z</time>
      </trkpt>
      <trkpt lat="49.42331" lon="3.9937">
        <ele>107</ele>
        <time>2019-05-29T16:49:25Z</time>
      </trkpt>
      <trkpt lat="49.42327" lon="3.99379">
        <ele>107</ele>
        <time>2019-05-29T16:49:26Z</time>
      </trkpt>
      <trkpt lat="49.42323" lon="3.99389">
        <ele>107</ele>
        <time>2019-05-29T16:49:27Z</time>
      </trkpt>
      <trkpt lat="49.42319" lon="3.99398">
        <ele>107</ele>
        <time>2019-05-29T16:49:28Z</time>
      </trkpt>
      <trkpt lat="49.42315" lon="3.99408">
        <ele>107</ele>
        <time>2019-05-29T16:49:29Z</time>
      </trkpt>
      <trkpt lat="49.42311" lon="3.99417">
        <ele>108</ele>
        <time>2019-05-29T16:49:30Z</time>
      </trkpt>
      <trkpt lat="49.42307" lon="3.99426">
        <ele>108</ele>
        <time>2019-05-29T16:49:31Z</time>
      </trkpt>
      <trkpt lat="49.42303" lon="3.99436">
        <ele>107</ele>
        <time>2019-05-29T16:49:32Z</time>
      </trkpt>
      <trkpt lat="49.42299" lon="3.99445">
        <ele>107</ele>
        <time>2019-05-29T16:49:33Z</time>
      </trkpt>
      <trkpt lat="49.42295" lon="3.99454">
        <ele>107</ele>
        <time>2019-05-29T16:49:34Z</time>
      </trkpt>
      <trkpt lat="49.42291" lon="3.99464">
        <ele>107</ele>
        <time>2019-05-29T16:49:35Z</time>
      </trkpt>
      <trkpt lat="49.42287" lon="3.99473">
        <ele>107</ele>
        <time>2019-05-29T16:49:36Z</time>
      </trkpt>
      <trkpt lat="49.42283" lon="3.99483">
        <ele>107</ele>
        <time>2019-05-29T16:49:37Z</time>
      </trkpt>
      <trkpt lat="49.42279" lon="3.99492">
        <ele>107</ele>
        <time>2019-05-29T16:49:38Z</time>
      </trkpt>
      <trkpt lat="49.42274" lon="3.99502">
        <ele>107</ele>
        <time>2019-05-29T16:49:39Z</time>
      </trkpt>
      <trkpt lat="49.4227" lon="3.99511">
        <ele>107</ele>
        <time>2019-05-29T16:49:40Z</time>
      </trkpt>
      <trkpt lat="49.42266" lon="3.99521">
        <ele>107</ele>
        <time>2019-05-29T16:49:41Z</time>
      </trkpt>
      <trkpt lat="49.42262" lon="3.99531">
        <ele>108</ele>
        <time>2019-05-29T16:49:42Z</time>
      </trkpt>
      <trkpt lat="49.42258" lon="3.9954">
        <ele>108</ele>
        <time>2019-05-29T16:49:43Z</time>
      </trkpt>
      <trkpt lat="49.42254" lon="3.99549">
        <ele>107</ele>
        <time>2019-05-29T16:49:44Z</time>
      </trkpt>
      <trkpt lat="49.4225" lon="3.99559">
        <ele>108</ele>
        <time>2019-05-29T16:49:45Z</time>
      </trkpt>
      <trkpt lat="49.42245" lon="3.99569">
        <ele>108</ele>
        <time>2019-05-29T16:49:46Z</time>
      </trkpt>
      <trkpt lat="49.42241" lon="3.99579">
        <ele>107</ele>
        <time>2019-05-29T16:49:47Z</time>
      </trkpt>
      <trkpt lat="49.42237" lon="3.99589">
        <ele>107</ele>
        <time>2019-05-29T16:49:48Z</time>
      </trkpt>
      <trkpt lat="49.42233" lon="3.99599">
        <ele>107</ele>
        <time>2019-05-29T16:49:49Z</time>
      </trkpt>
      <trkpt lat="49.42229" lon="3.99608">
        <ele>107</ele>
        <time>2019-05-29T16:49:50Z</time>
      </trkpt>
      <trkpt lat="49.42224" lon="3.99617">
        <ele>107</ele>
        <time>2019-05-29T16:49:51Z</time>
      </trkpt>
      <trkpt lat="49.4222" lon="3.99627">
        <ele>107</ele>
        <time>2019-05-29T16:49:52Z</time>
      </trkpt>
      <trkpt lat="49.42216" lon="3.99636">
        <ele>107</ele>
        <time>2019-05-29T16:49:53Z</time>
      </trkpt>
      <trkpt lat="49.42212" lon="3.99646">
        <ele>107</ele>
        <time>2019-05-29T16:49:54Z</time>
      </trkpt>
      <trkpt lat="49.42208" lon="3.99655">
        <ele>107</ele>
        <time>2019-05-29T16:49:55Z</time>
      </trkpt>
      <trkpt lat="49.42204" lon="3.99664">
        <ele>107</ele>
        <time>2019-05-29T16:49:56Z</time>
      </trkpt>
      <trkpt lat="49.422" lon="3.99673">
        <ele>107</ele>
        <time>2019-05-29T16:49:57Z</time>
      </trkpt>
      <trkpt lat="49.42197" lon="3.99681">
        <ele>107</ele>
        <time>2019-05-29T16:49:58Z</time>
      </trkpt>
      <trkpt lat="49.42192" lon="3.99689">
        <ele>107</ele>
        <time>2019-05-29T16:49:59Z</time>
      </trkpt>
      <trkpt lat="49.42188" lon="3.99698">
        <ele>107</ele>
        <time>2019-05-29T16:50:00Z</time>
      </trkpt>
      <trkpt lat="49.42183" lon="3.99706">
        <ele>107</ele>
        <time>2019-05-29T16:50:01Z</time>
      </trkpt>
      <trkpt lat="49.42179" lon="3.99715">
        <ele>107</ele>
        <time>2019-05-29T16:50:02Z</time>
      </trkpt>
      <trkpt lat="49.42176" lon="3.99724">
        <ele>108</ele>
        <time>2019-05-29T16:50:03Z</time>
      </trkpt>
      <trkpt lat="49.42173" lon="3.99733">
        <ele>107</ele>
        <time>2019-05-29T16:50:04Z</time>
      </trkpt>
      <trkpt lat="49.4217" lon="3.99742">
        <ele>107</ele>
        <time>2019-05-29T16:50:05Z</time>
      </trkpt>
      <trkpt lat="49.42167" lon="3.99751">
        <ele>107</ele>
        <time>2019-05-29T16:50:06Z</time>
      </trkpt>
      <trkpt lat="49.42163" lon="3.99759">
        <ele>107</ele>
        <time>2019-05-29T16:50:07Z</time>
      </trkpt>
      <trkpt lat="49.4216" lon="3.99768">
        <ele>107</ele>
        <time>2019-05-29T16:50:08Z</time>
      </trkpt>
      <trkpt lat="49.42156" lon="3.99776">
        <ele>107</ele>
        <time>2019-05-29T16:50:09Z</time>
      </trkpt>
      <trkpt lat="49.42152" lon="3.99784">
        <ele>107</ele>
        <time>2019-05-29T16:50:10Z</time>
      </trkpt>
      <trkpt lat="49.42148" lon="3.99792">
        <ele>107</ele>
        <time>2019-05-29T16:50:11Z</time>
      </trkpt>
      <trkpt lat="49.42144" lon="3.99801">
        <ele>107</ele>
        <time>2019-05-29T16:50:12Z</time>
      </trkpt>
      <trkpt lat="49.42141" lon="3.9981">
        <ele>107</ele>
        <time>2019-05-29T16:50:13Z</time>
      </trkpt>
      <trkpt lat="49.42137" lon="3.99819">
        <ele>107</ele>
        <time>2019-05-29T16:50:14Z</time>
      </trkpt>
      <trkpt lat="49.42134" lon="3.99828">
        <ele>107</ele>
        <time>2019-05-29T16:50:15Z</time>
      </trkpt>
      <trkpt lat="49.4213" lon="3.99837">
        <ele>107</ele>
        <time>2019-05-29T16:50:16Z</time>
      </trkpt>
      <trkpt lat="49.42127" lon="3.99845">
        <ele>107</ele>
        <time>2019-05-29T16:50:17Z</time>
      </trkpt>
      <trkpt lat="49.42124" lon="3.99854">
        <ele>107</ele>
        <time>2019-05-29T16:50:18Z</time>
      </trkpt>
      <trkpt lat="49.4212" lon="3.99863">
        <ele>107</ele>
        <time>2019-05-29T16:50:19Z</time>
      </trkpt>
      <trkpt lat="49.42116" lon="3.99871">
        <ele>107</ele>
        <time>2019-05-29T16:50:20Z</time>
      </trkpt>
      <trkpt lat="49.42112" lon="3.99881">
        <ele>107</ele>
        <time>2019-05-29T16:50:21Z</time>
      </trkpt>
      <trkpt lat="49.42108" lon="3.99889">
        <ele>107</ele>
        <time>2019-05-29T16:50:22Z</time>
      </trkpt>
      <trkpt lat="49.42104" lon="3.99898">
        <ele>107</ele>
        <time>2019-05-29T16:50:23Z</time>
      </trkpt>
      <trkpt lat="49.421" lon="3.99907">
        <ele>107</ele>
        <time>2019-05-29T16:50:24Z</time>
      </trkpt>
      <trkpt lat="49.42096" lon="3.99915">
        <ele>107</ele>
        <time>2019-05-29T16:50:25Z</time>
      </trkpt>
      <trkpt lat="49.42092" lon="3.99925">
        <ele>107</ele>
        <time>2019-05-29T16:50:26Z</time>
      </trkpt>
      <trkpt lat="49.42088" lon="3.99934">
        <ele>106</ele>
        <time>2019-05-29T16:50:27Z</time>
      </trkpt>
      <trkpt lat="49.42085" lon="3.99942">
        <ele>107</ele>
        <time>2019-05-29T16:50:28Z</time>
      </trkpt>
      <trkpt lat="49.42082" lon="3.99952">
        <ele>107</ele>
        <time>2019-05-29T16:50:29Z</time>
      </trkpt>
      <trkpt lat="49.42079" lon="3.99961">
        <ele>107</ele>
        <time>2019-05-29T16:50:30Z</time>
      </trkpt>
      <trkpt lat="49.42075" lon="3.99969">
        <ele>107</ele>
        <time>2019-05-29T16:50:31Z</time>
      </trkpt>
      <trkpt lat="49.42071" lon="3.99977">
        <ele>107</ele>
        <time>2019-05-29T16:50:32Z</time>
      </trkpt>
      <trkpt lat="49.42067" lon="3.99985">
        <ele>107</ele>
        <time>2019-05-29T16:50:33Z</time>
      </trkpt>
      <trkpt lat="49.42062" lon="3.99993">
        <ele>107</ele>
        <time>2019-05-29T16:50:34Z</time>
      </trkpt>
      <trkpt lat="49.42057" lon="4.00002">
        <ele>107</ele>
        <time>2019-05-29T16:50:35Z</time>
      </trkpt>
      <trkpt lat="49.42053" lon="4.00011">
        <ele>107</ele>
        <time>2019-05-29T16:50:36Z</time>
      </trkpt>
      <trkpt lat="49.42049" lon="4.00021">
        <ele>107</ele>
        <time>2019-05-29T16:50:37Z</time>
      </trkpt>
      <trkpt lat="49.42045" lon="4.0003">
        <ele>108</ele>
        <time>2019-05-29T16:50:38Z</time>
      </trkpt>
      <trkpt lat="49.4204" lon="4.00039">
        <ele>108</ele>
        <time>2019-05-29T16:50:39Z</time>
      </trkpt>
      <trkpt lat="49.42037" lon="4.00048">
        <ele>108</ele>
        <time>2019-05-29T16:50:40Z</time>
      </trkpt>
      <trkpt lat="49.42033" lon="4.00058">
        <ele>107</ele>
        <time>2019-05-29T16:50:41Z</time>
      </trkpt>
      <trkpt lat="49.42028" lon="4.00067">
        <ele>107</ele>
        <time>2019-05-29T16:50:42Z</time>
      </trkpt>
      <trkpt lat="49.42025" lon="4.00076">
        <ele>107</ele>
        <time>2019-05-29T16:50:43Z</time>
      </trkpt>
      <trkpt lat="49.4202" lon="4.00086">
        <ele>107</ele>
        <time>2019-05-29T16:50:44Z</time>
      </trkpt>
      <trkpt lat="49.42017" lon="4.00096">
        <ele>107</ele>
        <time>2019-05-29T16:50:45Z</time>
      </trkpt>
      <trkpt lat="49.42013" lon="4.00106">
        <ele>107</ele>
        <time>2019-05-29T16:50:46Z</time>
      </trkpt>
      <trkpt lat="49.42009" lon="4.00116">
        <ele>107</ele>
        <time>2019-05-29T16:50:47Z</time>
      </trkpt>
      <trkpt lat="49.42006" lon="4.00126">
        <ele>107</ele>
        <time>2019-05-29T16:50:48Z</time>
      </trkpt>
      <trkpt lat="49.42004" lon="4.00136">
        <ele>107</ele>
        <time>2019-05-29T16:50:49Z</time>
      </trkpt>
      <trkpt lat="49.42001" lon="4.00147">
        <ele>107</ele>
        <time>2019-05-29T16:50:50Z</time>
      </trkpt>
      <trkpt lat="49.41999" lon="4.00158">
        <ele>107</ele>
        <time>2019-05-29T16:50:51Z</time>
      </trkpt>
      <trkpt lat="49.41997" lon="4.00168">
        <ele>107</ele>
        <time>2019-05-29T16:50:52Z</time>
      </trkpt>
      <trkpt lat="49.41995" lon="4.00178">
        <ele>107</ele>
        <time>2019-05-29T16:50:53Z</time>
      </trkpt>
      <trkpt lat="49.41994" lon="4.00189">
        <ele>107</ele>
        <time>2019-05-29T16:50:54Z</time>
      </trkpt>
      <trkpt lat="49.41993" lon="4.00201">
        <ele>107</ele>
        <time>2019-05-29T16:50:55Z</time>
      </trkpt>
      <trkpt lat="49.41992" lon="4.00213">
        <ele>107</ele>
        <time>2019-05-29T16:50:56Z</time>
      </trkpt>
      <trkpt lat="49.41991" lon="4.00224">
        <ele>107</ele>
        <time>2019-05-29T16:50:57Z</time>
      </trkpt>
      <trkpt lat="49.41991" lon="4.00236">
        <ele>107</ele>
        <time>2019-05-29T16:50:58Z</time>
      </trkpt>
      <trkpt lat="49.41991" lon="4.00248">
        <ele>107</ele>
        <time>2019-05-29T16:50:59Z</time>
      </trkpt>
      <trkpt lat="49.4199" lon="4.00259">
        <ele>107</ele>
        <time>2019-05-29T16:51:00Z</time>
      </trkpt>
      <trkpt lat="49.4199" lon="4.00271">
        <ele>108</ele>
        <time>2019-05-29T16:51:01Z</time>
      </trkpt>
      <trkpt lat="49.4199" lon="4.00283">
        <ele>108</ele>
        <time>2019-05-29T16:51:02Z</time>
      </trkpt>
      <trkpt lat="49.41989" lon="4.00294">
        <ele>108</ele>
        <time>2019-05-29T16:51:03Z</time>
      </trkpt>
      <trkpt lat="49.41989" lon="4.00306">
        <ele>108</ele>
        <time>2019-05-29T16:51:04Z</time>
      </trkpt>
      <trkpt lat="49.41988" lon="4.00317">
        <ele>109</ele>
        <time>2019-05-29T16:51:05Z</time>
      </trkpt>
      <trkpt lat="49.41986" lon="4.00329">
        <ele>109</ele>
        <time>2019-05-29T16:51:06Z</time>
      </trkpt>
      <trkpt lat="49.41985" lon="4.0034">
        <ele>109</ele>
        <time>2019-05-29T16:51:07Z</time>
      </trkpt>
      <trkpt lat="49.41984" lon="4.00351">
        <ele>109</ele>
        <time>2019-05-29T16:51:08Z</time>
      </trkpt>
      <trkpt lat="49.41982" lon="4.00362">
        <ele>109</ele>
        <time>2019-05-29T16:51:09Z</time>
      </trkpt>
      <trkpt lat="49.4198" lon="4.00374">
        <ele>109</ele>
        <time>2019-05-29T16:51:10Z</time>
      </trkpt>
      <trkpt lat="49.41978" lon="4.00385">
        <ele>109</ele>
        <time>2019-05-29T16:51:11Z</time>
      </trkpt>
      <trkpt lat="49.41976" lon="4.00397">
        <ele>109</ele>
        <time>2019-05-29T16:51:12Z</time>
      </trkpt>
      <trkpt lat="49.41974" lon="4.00408">
        <ele>109</ele>
        <time>2019-05-29T16:51:13Z</time>
      </trkpt>
      <trkpt lat="49.41971" lon="4.00419">
        <ele>109</ele>
        <time>2019-05-29T16:51:14Z</time>
      </trkpt>
      <trkpt lat="49.41968" lon="4.00429">
        <ele>109</ele>
        <time>2019-05-29T16:51:15Z</time>
      </trkpt>
      <trkpt lat="49.41966" lon="4.00439">
        <ele>109</ele>
        <time>2019-05-29T16:51:16Z</time>
      </trkpt>
      <trkpt lat="49.41963" lon="4.0045">
        <ele>109</ele>
        <time>2019-05-29T16:51:17Z</time>
      </trkpt>
      <trkpt lat="49.41961" lon="4.00461">
        <ele>109</ele>
        <time>2019-05-29T16:51:18Z</time>
      </trkpt>
      <trkpt lat="49.41958" lon="4.00471">
        <ele>109</ele>
        <time>2019-05-29T16:51:19Z</time>
      </trkpt>
      <trkpt lat="49.41956" lon="4.00482">
        <ele>109</ele>
        <time>2019-05-29T16:51:20Z</time>
      </trkpt>
      <trkpt lat="49.41952" lon="4.00492">
        <ele>109</ele>
        <time>2019-05-29T16:51:21Z</time>
      </trkpt>
      <trkpt lat="49.41949" lon="4.00502">
        <ele>109</ele>
        <time>2019-05-29T16:51:22Z</time>
      </trkpt>
      <trkpt lat="49.41946" lon="4.00512">
        <ele>109</ele>
        <time>2019-05-29T16:51:23Z</time>
      </trkpt>
      <trkpt lat="49.41943" lon="4.00521">
        <ele>109</ele>
        <time>2019-05-29T16:51:24Z</time>
      </trkpt>
      <trkpt lat="49.4194" lon="4.00531">
        <ele>109</ele>
        <time>2019-05-29T16:51:25Z</time>
      </trkpt>
      <trkpt lat="49.41937" lon="4.00541">
        <ele>109</ele>
        <time>2019-05-29T16:51:26Z</time>
      </trkpt>
      <trkpt lat="49.41934" lon="4.00552">
        <ele>109</ele>
        <time>2019-05-29T16:51:27Z</time>
      </trkpt>
      <trkpt lat="49.41932" lon="4.00562">
        <ele>109</ele>
        <time>2019-05-29T16:51:28Z</time>
      </trkpt>
      <trkpt lat="49.41929" lon="4.00573">
        <ele>109</ele>
        <time>2019-05-29T16:51:29Z</time>
      </trkpt>
      <trkpt lat="49.41926" lon="4.00583">
        <ele>109</ele>
        <time>2019-05-29T16:51:30Z</time>
      </trkpt>
      <trkpt lat="49.41924" lon="4.00594">
        <ele>109</ele>
        <time>2019-05-29T16:51:31Z</time>
      </trkpt>
      <trkpt lat="49.41923" lon="4.00604">
        <ele>109</ele>
        <time>2019-05-29T16:51:32Z</time>
      </trkpt>
      <trkpt lat="49.41922" lon="4.00613">
        <ele>109</ele>
        <time>2019-05-29T16:51:33Z</time>
      </trkpt>
      <trkpt lat="49.41921" lon="4.00623">
        <ele>109</ele>
        <time>2019-05-29T16:51:34Z</time>
      </trkpt>
      <trkpt lat="49.41921" lon="4.00633">
        <ele>110</ele>
        <time>2019-05-29T16:51:35Z</time>
      </trkpt>
      <trkpt lat="49.41921" lon="4.00643">
        <ele>110</ele>
        <time>2019-05-29T16:51:36Z</time>
      </trkpt>
      <trkpt lat="49.41921" lon="4.00653">
        <ele>110</ele>
        <time>2019-05-29T16:51:37Z</time>
      </trkpt>
      <trkpt lat="49.41921" lon="4.00664">
        <ele>110</ele>
        <time>2019-05-29T16:51:38Z</time>
      </trkpt>
      <trkpt lat="49.41921" lon="4.00674">
        <ele>111</ele>
        <time>2019-05-29T16:51:39Z</time>
      </trkpt>
      <trkpt lat="49.41921" lon="4.00684">
        <ele>110</ele>
        <time>2019-05-29T16:51:40Z</time>
      </trkpt>
      <trkpt lat="49.41921" lon="4.00694">
        <ele>110</ele>
        <time>2019-05-29T16:51:41Z</time>
      </trkpt>
      <trkpt lat="49.41921" lon="4.00704">
        <ele>110</ele>
        <time>2019-05-29T16:51:42Z</time>
      </trkpt>
      <trkpt lat="49.41922" lon="4.00714">
        <ele>110</ele>
        <time>2019-05-29T16:51:43Z</time>
      </trkpt>
      <trkpt lat="49.41922" lon="4.00724">
        <ele>110</ele>
        <time>2019-05-29T16:51:44Z</time>
      </trkpt>
      <trkpt lat="49.41923" lon="4.00734">
        <ele>109</ele>
        <time>2019-05-29T16:51:45Z</time>
      </trkpt>
      <trkpt lat="49.41924" lon="4.00745">
        <ele>109</ele>
        <time>2019-05-29T16:51:46Z</time>
      </trkpt>
      <trkpt lat="49.41926" lon="4.00755">
        <ele>109</ele>
        <time>2019-05-29T16:51:47Z</time>
      </trkpt>
      <trkpt lat="49.41929" lon="4.00765">
        <ele>108</ele>
        <time>2019-05-29T16:51:48Z</time>
      </trkpt>
      <trkpt lat="49.41933" lon="4.00774">
        <ele>108</ele>
        <time>2019-05-29T16:51:49Z</time>
      </trkpt>
      <trkpt lat="49.41937" lon="4.00782">
        <ele>108</ele>
        <time>2019-05-29T16:51:50Z</time>
      </trkpt>
      <trkpt lat="49.41943" lon="4.00789">
        <ele>108</ele>
        <time>2019-05-29T16:51:51Z</time>
      </trkpt>
      <trkpt lat="49.41948" lon="4.00795">
        <ele>108</ele>
        <time>2019-05-29T16:51:52Z</time>
      </trkpt>
      <trkpt lat="49.41954" lon="4.008">
        <ele>107</ele>
        <time>2019-05-29T16:51:53Z</time>
      </trkpt>
      <trkpt lat="49.4196" lon="4.00804">
        <ele>107</ele>
        <time>2019-05-29T16:51:54Z</time>
      </trkpt>
      <trkpt lat="49.41967" lon="4.00808">
        <ele>107</ele>
        <time>2019-05-29T16:51:55Z</time>
      </trkpt>
      <trkpt lat="49.41974" lon="4.00811">
        <ele>107</ele>
        <time>2019-05-29T16:51:56Z</time>
      </trkpt>
      <trkpt lat="49.41981" lon="4.00815">
        <ele>107</ele>
        <time>2019-05-29T16:51:57Z</time>
      </trkpt>
      <trkpt lat="49.41987" lon="4.00818">
        <ele>107</ele>
        <time>2019-05-29T16:51:58Z</time>
      </trkpt>
      <trkpt lat="49.41994" lon="4.0082">
        <ele>107</ele>
        <time>2019-05-29T16:51:59Z</time>
      </trkpt>
      <trkpt lat="49.42" lon="4.00823">
        <ele>107</ele>
        <time>2019-05-29T16:52:00Z</time>
      </trkpt>
      <trkpt lat="49.42007" lon="4.00825">
        <ele>108</ele>
        <time>2019-05-29T16:52:01Z</time>
      </trkpt>
      <trkpt lat="49.42013" lon="4.00827">
        <ele>108</ele>
        <time>2019-05-29T16:52:02Z</time>
      </trkpt>
      <trkpt lat="49.42019" lon="4.00831">
        <ele>108</ele>
        <time>2019-05-29T16:52:03Z</time>
      </trkpt>
      <trkpt lat="49.42025" lon="4.00836">
        <ele>109</ele>
        <time>2019-05-29T16:52:04Z</time>
      </trkpt>
      <trkpt lat="49.4203" lon="4.00843">
        <ele>109</ele>
        <time>2019-05-29T16:52:05Z</time>
      </trkpt>
      <trkpt lat="49.42034" lon="4.00851">
        <ele>109</ele>
        <time>2019-05-29T16:52:06Z</time>
      </trkpt>
      <trkpt lat="49.42037" lon="4.0086">
        <ele>109</ele>
        <time>2019-05-29T16:52:07Z</time>
      </trkpt>
      <trkpt lat="49.4204" lon="4.0087">
        <ele>108</ele>
        <time>2019-05-29T16:52:08Z</time>
      </trkpt>
      <trkpt lat="49.42042" lon="4.0088">
        <ele>108</ele>
        <time>2019-05-29T16:52:09Z</time>
      </trkpt>
      <trkpt lat="49.42043" lon="4.0089">
        <ele>108</ele>
        <time>2019-05-29T16:52:10Z</time>
      </trkpt>
      <trkpt lat="49.42044" lon="4.009">
        <ele>108</ele>
        <time>2019-05-29T16:52:11Z</time>
      </trkpt>
      <trkpt lat="49.42045" lon="4.00911">
        <ele>109</ele>
        <time>2019-05-29T16:52:12Z</time>
      </trkpt>
      <trkpt lat="49.42045" lon="4.00921">
        <ele>109</ele>
        <time>2019-05-29T16:52:13Z</time>
      </trkpt>
      <trkpt lat="49.42046" lon="4.00931">
        <ele>109</ele>
        <time>2019-05-29T16:52:14Z</time>
      </trkpt>
      <trkpt lat="49.42047" lon="4.00942">
        <ele>109</ele>
        <time>2019-05-29T16:52:15Z</time>
      </trkpt>
      <trkpt lat="49.42048" lon="4.00952">
        <ele>109</ele>
        <time>2019-05-29T16:52:16Z</time>
      </trkpt>
      <trkpt lat="49.42049" lon="4.00964">
        <ele>109</ele>
        <time>2019-05-29T16:52:17Z</time>
      </trkpt>
      <trkpt lat="49.42049" lon="4.00976">
        <ele>109</ele>
        <time>2019-05-29T16:52:18Z</time>
      </trkpt>
      <trkpt lat="49.4205" lon="4.00987">
        <ele>109</ele>
        <time>2019-05-29T16:52:19Z</time>
      </trkpt>
      <trkpt lat="49.4205" lon="4.00999">
        <ele>110</ele>
        <time>2019-05-29T16:52:20Z</time>
      </trkpt>
      <trkpt lat="49.42051" lon="4.0101">
        <ele>110</ele>
        <time>2019-05-29T16:52:21Z</time>
      </trkpt>
      <trkpt lat="49.42052" lon="4.01022">
        <ele>110</ele>
        <time>2019-05-29T16:52:22Z</time>
      </trkpt>
      <trkpt lat="49.42052" lon="4.01033">
        <ele>110</ele>
        <time>2019-05-29T16:52:23Z</time>
      </trkpt>
      <trkpt lat="49.42053" lon="4.01044">
        <ele>110</ele>
        <time>2019-05-29T16:52:24Z</time>
      </trkpt>
      <trkpt lat="49.42053" lon="4.01055">
        <ele>110</ele>
        <time>2019-05-29T16:52:25Z</time>
      </trkpt>
      <trkpt lat="49.42055" lon="4.01066">
        <ele>110</ele>
        <time>2019-05-29T16:52:26Z</time>
      </trkpt>
      <trkpt lat="49.42056" lon="4.01077">
        <ele>111</ele>
        <time>2019-05-29T16:52:27Z</time>
      </trkpt>
      <trkpt lat="49.42056" lon="4.01089">
        <ele>111</ele>
        <time>2019-05-29T16:52:28Z</time>
      </trkpt>
      <trkpt lat="49.42057" lon="4.011">
        <ele>111</ele>
        <time>2019-05-29T16:52:29Z</time>
      </trkpt>
      <trkpt lat="49.42058" lon="4.01111">
        <ele>111</ele>
        <time>2019-05-29T16:52:30Z</time>
      </trkpt>
      <trkpt lat="49.42058" lon="4.01122">
        <ele>111</ele>
        <time>2019-05-29T16:52:31Z</time>
      </trkpt>
      <trkpt lat="49.42059" lon="4.01133">
        <ele>111</ele>
        <time>2019-05-29T16:52:32Z</time>
      </trkpt>
      <trkpt lat="49.4206" lon="4.01145">
        <ele>110</ele>
        <time>2019-05-29T16:52:33Z</time>
      </trkpt>
      <trkpt lat="49.42061" lon="4.01157">
        <ele>110</ele>
        <time>2019-05-29T16:52:34Z</time>
      </trkpt>
      <trkpt lat="49.42061" lon="4.01168">
        <ele>110</ele>
        <time>2019-05-29T16:52:35Z</time>
      </trkpt>
      <trkpt lat="49.42062" lon="4.0118">
        <ele>110</ele>
        <time>2019-05-29T16:52:36Z</time>
      </trkpt>
      <trkpt lat="49.42062" lon="4.01191">
        <ele>110</ele>
        <time>2019-05-29T16:52:37Z</time>
      </trkpt>
      <trkpt lat="49.42062" lon="4.01202">
        <ele>110</ele>
        <time>2019-05-29T16:52:38Z</time>
      </trkpt>
      <trkpt lat="49.42063" lon="4.01213">
        <ele>110</ele>
        <time>2019-05-29T16:52:39Z</time>
      </trkpt>
      <trkpt lat="49.42063" lon="4.01225">
        <ele>109</ele>
        <time>2019-05-29T16:52:40Z</time>
      </trkpt>
      <trkpt lat="49.42063" lon="4.01237">
        <ele>109</ele>
        <time>2019-05-29T16:52:41Z</time>
      </trkpt>
      <trkpt lat="49.42064" lon="4.01248">
        <ele>109</ele>
        <time>2019-05-29T16:52:42Z</time>
      </trkpt>
      <trkpt lat="49.42066" lon="4.01259">
        <ele>109</ele>
        <time>2019-05-29T16:52:43Z</time>
      </trkpt>
      <trkpt lat="49.42067" lon="4.01271">
        <ele>109</ele>
        <time>2019-05-29T16:52:44Z</time>
      </trkpt>
      <trkpt lat="49.42068" lon="4.01283">
        <ele>108</ele>
        <time>2019-05-29T16:52:45Z</time>
      </trkpt>
      <trkpt lat="49.42068" lon="4.01295">
        <ele>108</ele>
        <time>2019-05-29T16:52:46Z</time>
      </trkpt>
      <trkpt lat="49.4207" lon="4.01308">
        <ele>108</ele>
        <time>2019-05-29T16:52:47Z</time>
      </trkpt>
      <trkpt lat="49.42071" lon="4.0132">
        <ele>108</ele>
        <time>2019-05-29T16:52:48Z</time>
      </trkpt>
      <trkpt lat="49.42072" lon="4.01333">
        <ele>108</ele>
        <time>2019-05-29T16:52:49Z</time>
      </trkpt>
      <trkpt lat="49.42072" lon="4.01345">
        <ele>108</ele>
        <time>2019-05-29T16:52:50Z</time>
      </trkpt>
      <trkpt lat="49.42073" lon="4.01358">
        <ele>108</ele>
        <time>2019-05-29T16:52:51Z</time>
      </trkpt>
      <trkpt lat="49.42073" lon="4.01371">
        <ele>108</ele>
        <time>2019-05-29T16:52:52Z</time>
      </trkpt>
      <trkpt lat="49.42074" lon="4.01384">
        <ele>108</ele>
        <time>2019-05-29T16:52:53Z</time>
      </trkpt>
      <trkpt lat="49.42075" lon="4.01397">
        <ele>108</ele>
        <time>2019-05-29T16:52:54Z</time>
      </trkpt>
      <trkpt lat="49.42076" lon="4.0141">
        <ele>108</ele>
        <time>2019-05-29T16:52:55Z</time>
      </trkpt>
      <trkpt lat="49.42077" lon="4.01422">
        <ele>108</ele>
        <time>2019-05-29T16:52:56Z</time>
      </trkpt>
      <trkpt lat="49.42078" lon="4.01435">
        <ele>108</ele>
        <time>2019-05-29T16:52:57Z</time>
      </trkpt>
      <trkpt lat="49.42079" lon="4.01447">
        <ele>108</ele>
        <time>2019-05-29T16:52:58Z</time>
      </trkpt>
      <trkpt lat="49.4208" lon="4.01459">
        <ele>108</ele>
        <time>2019-05-29T16:52:59Z</time>
      </trkpt>
      <trkpt lat="49.42081" lon="4.01471">
        <ele>108</ele>
        <time>2019-05-29T16:53:00Z</time>
      </trkpt>
      <trkpt lat="49.42082" lon="4.01483">
        <ele>108</ele>
        <time>2019-05-29T16:53:01Z</time>
      </trkpt>
      <trkpt lat="49.42083" lon="4.01496">
        <ele>108</ele>
        <time>2019-05-29T16:53:02Z</time>
      </trkpt>
      <trkpt lat="49.42084" lon="4.01508">
        <ele>108</ele>
        <time>2019-05-29T16:53:03Z</time>
      </trkpt>
      <trkpt lat="49.42086" lon="4.01521">
        <ele>108</ele>
        <time>2019-05-29T16:53:04Z</time>
      </trkpt>
      <trkpt lat="49.42087" lon="4.01534">
        <ele>108</ele>
        <time>2019-05-29T16:53:05Z</time>
      </trkpt>
      <trkpt lat="49.42089" lon="4.01546">
        <ele>108</ele>
        <time>2019-05-29T16:53:06Z</time>
      </trkpt>
      <trkpt lat="49.42091" lon="4.01558">
        <ele>108</ele>
        <time>2019-05-29T16:53:07Z</time>
      </trkpt>
      <trkpt lat="49.42093" lon="4.01571">
        <ele>108</ele>
        <time>2019-05-29T16:53:08Z</time>
      </trkpt>
      <trkpt lat="49.42095" lon="4.01583">
        <ele>108</ele>
        <time>2019-05-29T16:53:09Z</time>
      </trkpt>
      <trkpt lat="49.42097" lon="4.01595">
        <ele>108</ele>
        <time>2019-05-29T16:53:10Z</time>
      </trkpt>
      <trkpt lat="49.421" lon="4.01607">
        <ele>108</ele>
        <time>2019-05-29T16:53:11Z</time>
      </trkpt>
      <trkpt lat="49.42102" lon="4.01619">
        <ele>108</ele>
        <time>2019-05-29T16:53:12Z</time>
      </trkpt>
      <trkpt lat="49.42105" lon="4.01631">
        <ele>108</ele>
        <time>2019-05-29T16:53:13Z</time>
      </trkpt>
      <trkpt lat="49.42108" lon="4.01642">
        <ele>108</ele>
        <time>2019-05-29T16:53:14Z</time>
      </trkpt>
      <trkpt lat="49.42112" lon="4.01654">
        <ele>108</ele>
        <time>2019-05-29T16:53:15Z</time>
      </trkpt>
      <trkpt lat="49.42115" lon="4.01665">
        <ele>108</ele>
        <time>2019-05-29T16:53:16Z</time>
      </trkpt>
      <trkpt lat="49.42119" lon="4.01677">
        <ele>108</ele>
        <time>2019-05-29T16:53:17Z</time>
      </trkpt>
      <trkpt lat="49.42122" lon="4.01688">
        <ele>108</ele>
        <time>2019-05-29T16:53:18Z</time>
      </trkpt>
      <trkpt lat="49.42126" lon="4.017">
        <ele>107</ele>
        <time>2019-05-29T16:53:19Z</time>
      </trkpt>
      <trkpt lat="49.4213" lon="4.01712">
        <ele>107</ele>
        <time>2019-05-29T16:53:20Z</time>
      </trkpt>
      <trkpt lat="49.42134" lon="4.01723">
        <ele>107</ele>
        <time>2019-05-29T16:53:21Z</time>
      </trkpt>
      <trkpt lat="49.42138" lon="4.01735">
        <ele>107</ele>
        <time>2019-05-29T16:53:22Z</time>
      </trkpt>
      <trkpt lat="49.42143" lon="4.01747">
        <ele>107</ele>
        <time>2019-05-29T16:53:23Z</time>
      </trkpt>
      <trkpt lat="49.42147" lon="4.01758">
        <ele>107</ele>
        <time>2019-05-29T16:53:24Z</time>
      </trkpt>
      <trkpt lat="49.42151" lon="4.0177">
        <ele>107</ele>
        <time>2019-05-29T16:53:25Z</time>
      </trkpt>
      <trkpt lat="49.42155" lon="4.01781">
        <ele>107</ele>
        <time>2019-05-29T16:53:26Z</time>
      </trkpt>
      <trkpt lat="49.42159" lon="4.01792">
        <ele>107</ele>
        <time>2019-05-29T16:53:27Z</time>
      </trkpt>
      <trkpt lat="49.42163" lon="4.01803">
        <ele>107</ele>
        <time>2019-05-29T16:53:28Z</time>
      </trkpt>
      <trkpt lat="49.42166" lon="4.01815">
        <ele>107</ele>
        <time>2019-05-29T16:53:29Z</time>
      </trkpt>
      <trkpt lat="49.4217" lon="4.01826">
        <ele>107</ele>
        <time>2019-05-29T16:53:30Z</time>
      </trkpt>
      <trkpt lat="49.42174" lon="4.01837">
        <ele>107</ele>
        <time>2019-05-29T16:53:31Z</time>
      </trkpt>
      <trkpt lat="49.42178" lon="4.01848">
        <ele>106</ele>
        <time>2019-05-29T16:53:32Z</time>
      </trkpt>
      <trkpt lat="49.42182" lon="4.01859">
        <ele>106</ele>
        <time>2019-05-29T16:53:33Z</time>
      </trkpt>
      <trkpt lat="49.42186" lon="4.0187">
        <ele>107</ele>
        <time>2019-05-29T16:53:34Z</time>
      </trkpt>
      <trkpt lat="49.4219" lon="4.01881">
        <ele>107</ele>
        <time>2019-05-29T16:53:35Z</time>
      </trkpt>
      <trkpt lat="49.42193" lon="4.01892">
        <ele>106</ele>
        <time>2019-05-29T16:53:36Z</time>
      </trkpt>
      <trkpt lat="49.42197" lon="4.01903">
        <ele>106</ele>
        <time>2019-05-29T16:53:37Z</time>
      </trkpt>
      <trkpt lat="49.42201" lon="4.01914">
        <ele>106</ele>
        <time>2019-05-29T16:53:38Z</time>
      </trkpt>
      <trkpt lat="49.42204" lon="4.01924">
        <ele>106</ele>
        <time>2019-05-29T16:53:39Z</time>
      </trkpt>
      <trkpt lat="49.42208" lon="4.01934">
        <ele>106</ele>
        <time>2019-05-29T16:53:40Z</time>
      </trkpt>
      <trkpt lat="49.42213" lon="4.01945">
        <ele>106</ele>
        <time>2019-05-29T16:53:41Z</time>
      </trkpt>
      <trkpt lat="49.42216" lon="4.01955">
        <ele>106</ele>
        <time>2019-05-29T16:53:42Z</time>
      </trkpt>
      <trkpt lat="49.4222" lon="4.01965">
        <ele>106</ele>
        <time>2019-05-29T16:53:43Z</time>
      </trkpt>
      <trkpt lat="49.42225" lon="4.01975">
        <ele>107</ele>
        <time>2019-05-29T16:53:44Z</time>
      </trkpt>
      <trkpt lat="49.42229" lon="4.01986">
        <ele>107</ele>
        <time>2019-05-29T16:53:45Z</time>
      </trkpt>
      <trkpt lat="49.42234" lon="4.01996">
        <ele>107</ele>
        <time>2019-05-29T16:53:46Z</time>
      </trkpt>
      <trkpt lat="49.42238" lon="4.02006">
        <ele>107</ele>
        <time>2019-05-29T16:53:47Z</time>
      </trkpt>
      <trkpt lat="49.42243" lon="4.02017">
        <ele>107</ele>
        <time>2019-05-29T16:53:48Z</time>
      </trkpt>
      <trkpt lat="49.42248" lon="4.02027">
        <ele>107</ele>
        <time>2019-05-29T16:53:49Z</time>
      </trkpt>
      <trkpt lat="49.42253" lon="4.02037">
        <ele>107</ele>
        <time>2019-05-29T16:53:50Z</time>
      </trkpt>
      <trkpt lat="49.42258" lon="4.02047">
        <ele>106</ele>
        <time>2019-05-29T16:53:51Z</time>
      </trkpt>
      <trkpt lat="49.42264" lon="4.02057">
        <ele>106</ele>
        <time>2019-05-29T16:53:52Z</time>
      </trkpt>
      <trkpt lat="49.42269" lon="4.02066">
        <ele>107</ele>
        <time>2019-05-29T16:53:53Z</time>
      </trkpt>
      <trkpt lat="49.42274" lon="4.02076">
        <ele>107</ele>
        <time>2019-05-29T16:53:54Z</time>
      </trkpt>
      <trkpt lat="49.42279" lon="4.02085">
        <ele>107</ele>
        <time>2019-05-29T16:53:55Z</time>
      </trkpt>
      <trkpt lat="49.42284" lon="4.02093">
        <ele>107</ele>
        <time>2019-05-29T16:53:56Z</time>
      </trkpt>
      <trkpt lat="49.42289" lon="4.02102">
        <ele>107</ele>
        <time>2019-05-29T16:53:57Z</time>
      </trkpt>
      <trkpt lat="49.42295" lon="4.02111">
        <ele>107</ele>
        <time>2019-05-29T16:53:58Z</time>
      </trkpt>
      <trkpt lat="49.423" lon="4.02119">
        <ele>107</ele>
        <time>2019-05-29T16:53:59Z</time>
      </trkpt>
      <trkpt lat="49.42305" lon="4.02127">
        <ele>107</ele>
        <time>2019-05-29T16:54:00Z</time>
      </trkpt>
      <trkpt lat="49.4231" lon="4.02136">
        <ele>107</ele>
        <time>2019-05-29T16:54:01Z</time>
      </trkpt>
      <trkpt lat="49.42316" lon="4.02144">
        <ele>107</ele>
        <time>2019-05-29T16:54:02Z</time>
      </trkpt>
      <trkpt lat="49.42321" lon="4.02152">
        <ele>107</ele>
        <time>2019-05-29T16:54:03Z</time>
      </trkpt>
      <trkpt lat="49.42327" lon="4.02161">
        <ele>107</ele>
        <time>2019-05-29T16:54:04Z</time>
      </trkpt>
      <trkpt lat="49.42333" lon="4.02169">
        <ele>106</ele>
        <time>2019-05-29T16:54:05Z</time>
      </trkpt>
      <trkpt lat="49.42338" lon="4.02178">
        <ele>106</ele>
        <time>2019-05-29T16:54:06Z</time>
      </trkpt>
      <trkpt lat="49.42344" lon="4.02186">
        <ele>106</ele>
        <time>2019-05-29T16:54:07Z</time>
      </trkpt>
      <trkpt lat="49.4235" lon="4.02194">
        <ele>107</ele>
        <time>2019-05-29T16:54:08Z</time>
      </trkpt>
      <trkpt lat="49.42356" lon="4.02202">
        <ele>107</ele>
        <time>2019-05-29T16:54:09Z</time>
      </trkpt>
      <trkpt lat="49.42361" lon="4.0221">
        <ele>107</ele>
        <time>2019-05-29T16:54:10Z</time>
      </trkpt>
      <trkpt lat="49.42367" lon="4.02218">
        <ele>107</ele>
        <time>2019-05-29T16:54:11Z</time>
      </trkpt>
      <trkpt lat="49.42372" lon="4.02227">
        <ele>107</ele>
        <time>2019-05-29T16:54:12Z</time>
      </trkpt>
      <trkpt lat="49.42377" lon="4.02235">
        <ele>107</ele>
        <time>2019-05-29T16:54:13Z</time>
      </trkpt>
      <trkpt lat="49.42383" lon="4.02243">
        <ele>107</ele>
        <time>2019-05-29T16:54:14Z</time>
      </trkpt>
      <trkpt lat="49.42388" lon="4.02251">
        <ele>108</ele>
        <time>2019-05-29T16:54:15Z</time>
      </trkpt>
      <trkpt lat="49.42394" lon="4.02259">
        <ele>108</ele>
        <time>2019-05-29T16:54:16Z</time>
      </trkpt>
      <trkpt lat="49.42399" lon="4.02267">
        <ele>108</ele>
        <time>2019-05-29T16:54:17Z</time>
      </trkpt>
      <trkpt lat="49.42405" lon="4.02275">
        <ele>108</ele>
        <time>2019-05-29T16:54:18Z</time>
      </trkpt>
      <trkpt lat="49.4241" lon="4.02283">
        <ele>108</ele>
        <time>2019-05-29T16:54:19Z</time>
      </trkpt>
      <trkpt lat="49.42416" lon="4.02291">
        <ele>108</ele>
        <time>2019-05-29T16:54:20Z</time>
      </trkpt>
      <trkpt lat="49.42421" lon="4.02299">
        <ele>107</ele>
        <time>2019-05-29T16:54:21Z</time>
      </trkpt>
      <trkpt lat="49.42426" lon="4.02307">
        <ele>107</ele>
        <time>2019-05-29T16:54:22Z</time>
      </trkpt>
      <trkpt lat="49.42431" lon="4.02315">
        <ele>107</ele>
        <time>2019-05-29T16:54:23Z</time>
      </trkpt>
      <trkpt lat="49.42436" lon="4.02323">
        <ele>107</ele>
        <time>2019-05-29T16:54:24Z</time>
      </trkpt>
      <trkpt lat="49.42442" lon="4.02331">
        <ele>107</ele>
        <time>2019-05-29T16:54:25Z</time>
      </trkpt>
      <trkpt lat="49.42447" lon="4.02339">
        <ele>107</ele>
        <time>2019-05-29T16:54:26Z</time>
      </trkpt>
      <trkpt lat="49.42452" lon="4.02346">
        <ele>107</ele>
        <time>2019-05-29T16:54:27Z</time>
      </trkpt>
      <trkpt lat="49.42457" lon="4.02354">
        <ele>108</ele>
        <time>2019-05-29T16:54:28Z</time>
      </trkpt>
      <trkpt lat="49.42463" lon="4.02361">
        <ele>108</ele>
        <time>2019-05-29T16:54:29Z</time>
      </trkpt>
      <trkpt lat="49.42468" lon="4.02369">
        <ele>108</ele>
        <time>2019-05-29T16:54:30Z</time>
      </trkpt>
      <trkpt lat="49.42474" lon="4.02376">
        <ele>108</ele>
        <time>2019-05-29T16:54:31Z</time>
      </trkpt>
      <trkpt lat="49.42479" lon="4.02383">
        <ele>108</ele>
        <time>2019-05-29T16:54:32Z</time>
      </trkpt>
      <trkpt lat="49.42484" lon="4.0239">
        <ele>108</ele>
        <time>2019-05-29T16:54:33Z</time>
      </trkpt>
      <trkpt lat="49.42489" lon="4.02397">
        <ele>108</ele>
        <time>2019-05-29T16:54:34Z</time>
      </trkpt>
      <trkpt lat="49.42494" lon="4.02404">
        <ele>108</ele>
        <time>2019-05-29T16:54:35Z</time>
      </trkpt>
      <trkpt lat="49.425" lon="4.02411">
        <ele>107</ele>
        <time>2019-05-29T16:54:36Z</time>
      </trkpt>
      <trkpt lat="49.42505" lon="4.02418">
        <ele>108</ele>
        <time>2019-05-29T16:54:37Z</time>
      </trkpt>
      <trkpt lat="49.4251" lon="4.02425">
        <ele>108</ele>
        <time>2019-05-29T16:54:38Z</time>
      </trkpt>
      <trkpt lat="49.42516" lon="4.02432">
        <ele>108</ele>
        <time>2019-05-29T16:54:39Z</time>
      </trkpt>
      <trkpt lat="49.42522" lon="4.02439">
        <ele>108</ele>
        <time>2019-05-29T16:54:40Z</time>
      </trkpt>
      <trkpt lat="49.42528" lon="4.02445">
        <ele>108</ele>
        <time>2019-05-29T16:54:41Z</time>
      </trkpt>
      <trkpt lat="49.42534" lon="4.02452">
        <ele>108</ele>
        <time>2019-05-29T16:54:42Z</time>
      </trkpt>
      <trkpt lat="49.4254" lon="4.02458">
        <ele>108</ele>
        <time>2019-05-29T16:54:43Z</time>
      </trkpt>
      <trkpt lat="49.42546" lon="4.02463">
        <ele>109</ele>
        <time>2019-05-29T16:54:44Z</time>
      </trkpt>
      <trkpt lat="49.42552" lon="4.02469">
        <ele>109</ele>
        <time>2019-05-29T16:54:45Z</time>
      </trkpt>
      <trkpt lat="49.42563" lon="4.0248">
        <ele>110</ele>
        <time>2019-05-29T16:54:47Z</time>
      </trkpt>
      <trkpt lat="49.42575" lon="4.0249">
        <ele>110</ele>
        <time>2019-05-29T16:54:49Z</time>
      </trkpt>
      <trkpt lat="49.4258" lon="4.02495">
        <ele>110</ele>
        <time>2019-05-29T16:54:50Z</time>
      </trkpt>
      <trkpt lat="49.42586" lon="4.025">
        <ele>110</ele>
        <time>2019-05-29T16:54:51Z</time>
      </trkpt>
      <trkpt lat="49.42592" lon="4.02504">
        <ele>110</ele>
        <time>2019-05-29T16:54:52Z</time>
      </trkpt>
      <trkpt lat="49.42596" lon="4.02509">
        <ele>111</ele>
        <time>2019-05-29T16:54:53Z</time>
      </trkpt>
      <trkpt lat="49.42602" lon="4.02513">
        <ele>111</ele>
        <time>2019-05-29T16:54:54Z</time>
      </trkpt>
      <trkpt lat="49.42608" lon="4.02518">
        <ele>111</ele>
        <time>2019-05-29T16:54:55Z</time>
      </trkpt>
      <trkpt lat="49.42614" lon="4.02523">
        <ele>111</ele>
        <time>2019-05-29T16:54:56Z</time>
      </trkpt>
      <trkpt lat="49.4262" lon="4.02526">
        <ele>111</ele>
        <time>2019-05-29T16:54:57Z</time>
      </trkpt>
      <trkpt lat="49.42625" lon="4.02531">
        <ele>111</ele>
        <time>2019-05-29T16:54:58Z</time>
      </trkpt>
      <trkpt lat="49.42631" lon="4.02535">
        <ele>111</ele>
        <time>2019-05-29T16:54:59Z</time>
      </trkpt>
      <trkpt lat="49.42637" lon="4.02539">
        <ele>112</ele>
        <time>2019-05-29T16:55:00Z</time>
      </trkpt>
      <trkpt lat="49.42642" lon="4.02543">
        <ele>112</ele>
        <time>2019-05-29T16:55:01Z</time>
      </trkpt>
      <trkpt lat="49.42649" lon="4.02547">
        <ele>112</ele>
        <time>2019-05-29T16:55:02Z</time>
      </trkpt>
      <trkpt lat="49.42655" lon="4.02551">
        <ele>112</ele>
        <time>2019-05-29T16:55:03Z</time>
      </trkpt>
      <trkpt lat="49.42661" lon="4.02554">
        <ele>113</ele>
        <time>2019-05-29T16:55:04Z</time>
      </trkpt>
      <trkpt lat="49.42666" lon="4.02557">
        <ele>113</ele>
        <time>2019-05-29T16:55:05Z</time>
      </trkpt>
      <trkpt lat="49.42673" lon="4.02561">
        <ele>113</ele>
        <time>2019-05-29T16:55:06Z</time>
      </trkpt>
      <trkpt lat="49.42679" lon="4.02564">
        <ele>114</ele>
        <time>2019-05-29T16:55:07Z</time>
      </trkpt>
      <trkpt lat="49.42684" lon="4.02567">
        <ele>114</ele>
        <time>2019-05-29T16:55:08Z</time>
      </trkpt>
      <trkpt lat="49.4269" lon="4.02571">
        <ele>114</ele>
        <time>2019-05-29T16:55:09Z</time>
      </trkpt>
      <trkpt lat="49.42697" lon="4.02575">
        <ele>114</ele>
        <time>2019-05-29T16:55:10Z</time>
      </trkpt>
      <trkpt lat="49.42704" lon="4.02579">
        <ele>114</ele>
        <time>2019-05-29T16:55:11Z</time>
      </trkpt>
      <trkpt lat="49.4271" lon="4.02584">
        <ele>114</ele>
        <time>2019-05-29T16:55:12Z</time>
      </trkpt>
      <trkpt lat="49.42717" lon="4.02588">
        <ele>114</ele>
        <time>2019-05-29T16:55:13Z</time>
      </trkpt>
      <trkpt lat="49.42724" lon="4.02592">
        <ele>114</ele>
        <time>2019-05-29T16:55:14Z</time>
      </trkpt>
      <trkpt lat="49.4273" lon="4.02597">
        <ele>114</ele>
        <time>2019-05-29T16:55:15Z</time>
      </trkpt>
      <trkpt lat="49.42736" lon="4.02602">
        <ele>113</ele>
        <time>2019-05-29T16:55:16Z</time>
      </trkpt>
      <trkpt lat="49.42743" lon="4.02606">
        <ele>113</ele>
        <time>2019-05-29T16:55:17Z</time>
      </trkpt>
      <trkpt lat="49.42749" lon="4.02611">
        <ele>113</ele>
        <time>2019-05-29T16:55:18Z</time>
      </trkpt>
      <trkpt lat="49.42755" lon="4.02617">
        <ele>113</ele>
        <time>2019-05-29T16:55:19Z</time>
      </trkpt>
      <trkpt lat="49.42761" lon="4.02622">
        <ele>113</ele>
        <time>2019-05-29T16:55:20Z</time>
      </trkpt>
      <trkpt lat="49.42767" lon="4.02628">
        <ele>113</ele>
        <time>2019-05-29T16:55:21Z</time>
      </trkpt>
      <trkpt lat="49.42774" lon="4.02633">
        <ele>113</ele>
        <time>2019-05-29T16:55:22Z</time>
      </trkpt>
      <trkpt lat="49.42781" lon="4.0264">
        <ele>113</ele>
        <time>2019-05-29T16:55:23Z</time>
      </trkpt>
      <trkpt lat="49.42788" lon="4.02647">
        <ele>112</ele>
        <time>2019-05-29T16:55:24Z</time>
      </trkpt>
      <trkpt lat="49.42794" lon="4.02654">
        <ele>112</ele>
        <time>2019-05-29T16:55:25Z</time>
      </trkpt>
      <trkpt lat="49.42801" lon="4.0266">
        <ele>111</ele>
        <time>2019-05-29T16:55:26Z</time>
      </trkpt>
      <trkpt lat="49.42808" lon="4.02666">
        <ele>111</ele>
        <time>2019-05-29T16:55:27Z</time>
      </trkpt>
      <trkpt lat="49.42815" lon="4.02672">
        <ele>111</ele>
        <time>2019-05-29T16:55:28Z</time>
      </trkpt>
      <trkpt lat="49.42821" lon="4.02678">
        <ele>111</ele>
        <time>2019-05-29T16:55:29Z</time>
      </trkpt>
      <trkpt lat="49.42828" lon="4.02684">
        <ele>111</ele>
        <time>2019-05-29T16:55:30Z</time>
      </trkpt>
      <trkpt lat="49.42835" lon="4.02691">
        <ele>110</ele>
        <time>2019-05-29T16:55:31Z</time>
      </trkpt>
      <trkpt lat="49.42841" lon="4.02697">
        <ele>110</ele>
        <time>2019-05-29T16:55:32Z</time>
      </trkpt>
      <trkpt lat="49.42847" lon="4.02703">
        <ele>110</ele>
        <time>2019-05-29T16:55:33Z</time>
      </trkpt>
      <trkpt lat="49.42854" lon="4.0271">
        <ele>110</ele>
        <time>2019-05-29T16:55:34Z</time>
      </trkpt>
      <trkpt lat="49.4286" lon="4.02716">
        <ele>111</ele>
        <time>2019-05-29T16:55:35Z</time>
      </trkpt>
      <trkpt lat="49.42866" lon="4.02722">
        <ele>110</ele>
        <time>2019-05-29T16:55:36Z</time>
      </trkpt>
      <trkpt lat="49.42873" lon="4.02729">
        <ele>110</ele>
        <time>2019-05-29T16:55:37Z</time>
      </trkpt>
      <trkpt lat="49.42879" lon="4.02736">
        <ele>110</ele>
        <time>2019-05-29T16:55:38Z</time>
      </trkpt>
      <trkpt lat="49.42886" lon="4.02742">
        <ele>110</ele>
        <time>2019-05-29T16:55:39Z</time>
      </trkpt>
      <trkpt lat="49.42892" lon="4.02748">
        <ele>110</ele>
        <time>2019-05-29T16:55:40Z</time>
      </trkpt>
      <trkpt lat="49.42898" lon="4.02755">
        <ele>110</ele>
        <time>2019-05-29T16:55:41Z</time>
      </trkpt>
      <trkpt lat="49.42904" lon="4.02761">
        <ele>110</ele>
        <time>2019-05-29T16:55:42Z</time>
      </trkpt>
      <trkpt lat="49.42911" lon="4.02767">
        <ele>110</ele>
        <time>2019-05-29T16:55:43Z</time>
      </trkpt>
      <trkpt lat="49.42918" lon="4.02773">
        <ele>111</ele>
        <time>2019-05-29T16:55:44Z</time>
      </trkpt>
      <trkpt lat="49.42925" lon="4.02781">
        <ele>111</ele>
        <time>2019-05-29T16:55:45Z</time>
      </trkpt>
      <trkpt lat="49.42933" lon="4.02789">
        <ele>111</ele>
        <time>2019-05-29T16:55:46Z</time>
      </trkpt>
      <trkpt lat="49.42939" lon="4.02796">
        <ele>111</ele>
        <time>2019-05-29T16:55:47Z</time>
      </trkpt>
      <trkpt lat="49.42946" lon="4.02804">
        <ele>111</ele>
        <time>2019-05-29T16:55:48Z</time>
      </trkpt>
      <trkpt lat="49.42954" lon="4.0281">
        <ele>111</ele>
        <time>2019-05-29T16:55:49Z</time>
      </trkpt>
      <trkpt lat="49.42961" lon="4.02816">
        <ele>111</ele>
        <time>2019-05-29T16:55:50Z</time>
      </trkpt>
      <trkpt lat="49.42969" lon="4.02823">
        <ele>110</ele>
        <time>2019-05-29T16:55:51Z</time>
      </trkpt>
      <trkpt lat="49.42976" lon="4.0283">
        <ele>110</ele>
        <time>2019-05-29T16:55:52Z</time>
      </trkpt>
      <trkpt lat="49.42984" lon="4.02836">
        <ele>110</ele>
        <time>2019-05-29T16:55:53Z</time>
      </trkpt>
      <trkpt lat="49.42992" lon="4.02842">
        <ele>110</ele>
        <time>2019-05-29T16:55:54Z</time>
      </trkpt>
      <trkpt lat="49.43" lon="4.02848">
        <ele>110</ele>
        <time>2019-05-29T16:55:55Z</time>
      </trkpt>
      <trkpt lat="49.43007" lon="4.02854">
        <ele>110</ele>
        <time>2019-05-29T16:55:56Z</time>
      </trkpt>
      <trkpt lat="49.43014" lon="4.0286">
        <ele>109</ele>
        <time>2019-05-29T16:55:57Z</time>
      </trkpt>
      <trkpt lat="49.43021" lon="4.02866">
        <ele>109</ele>
        <time>2019-05-29T16:55:58Z</time>
      </trkpt>
      <trkpt lat="49.43029" lon="4.02872">
        <ele>109</ele>
        <time>2019-05-29T16:55:59Z</time>
      </trkpt>
      <trkpt lat="49.43037" lon="4.02878">
        <ele>109</ele>
        <time>2019-05-29T16:56:00Z</time>
      </trkpt>
      <trkpt lat="49.43045" lon="4.02884">
        <ele>109</ele>
        <time>2019-05-29T16:56:01Z</time>
      </trkpt>
      <trkpt lat="49.43053" lon="4.0289">
        <ele>109</ele>
        <time>2019-05-29T16:56:02Z</time>
      </trkpt>
      <trkpt lat="49.4306" lon="4.02896">
        <ele>109</ele>
        <time>2019-05-29T16:56:03Z</time>
      </trkpt>
      <trkpt lat="49.43067" lon="4.02901">
        <ele>109</ele>
        <time>2019-05-29T16:56:04Z</time>
      </trkpt>
      <trkpt lat="49.43074" lon="4.02907">
        <ele>109</ele>
        <time>2019-05-29T16:56:05Z</time>
      </trkpt>
      <trkpt lat="49.43081" lon="4.02913">
        <ele>109</ele>
        <time>2019-05-29T16:56:06Z</time>
      </trkpt>
      <trkpt lat="49.43088" lon="4.02919">
        <ele>109</ele>
        <time>2019-05-29T16:56:07Z</time>
      </trkpt>
      <trkpt lat="49.43095" lon="4.02924">
        <ele>109</ele>
        <time>2019-05-29T16:56:08Z</time>
      </trkpt>
      <trkpt lat="49.43102" lon="4.0293">
        <ele>109</ele>
        <time>2019-05-29T16:56:09Z</time>
      </trkpt>
      <trkpt lat="49.43109" lon="4.02936">
        <ele>109</ele>
        <time>2019-05-29T16:56:10Z</time>
      </trkpt>
      <trkpt lat="49.43116" lon="4.02942">
        <ele>109</ele>
        <time>2019-05-29T16:56:11Z</time>
      </trkpt>
      <trkpt lat="49.43129" lon="4.02953">
        <ele>108</ele>
        <time>2019-05-29T16:56:13Z</time>
      </trkpt>
      <trkpt lat="49.43136" lon="4.02959">
        <ele>108</ele>
        <time>2019-05-29T16:56:14Z</time>
      </trkpt>
      <trkpt lat="49.43143" lon="4.02964">
        <ele>108</ele>
        <time>2019-05-29T16:56:15Z</time>
      </trkpt>
      <trkpt lat="49.4315" lon="4.02969">
        <ele>108</ele>
        <time>2019-05-29T16:56:16Z</time>
      </trkpt>
      <trkpt lat="49.43156" lon="4.02973">
        <ele>108</ele>
        <time>2019-05-29T16:56:17Z</time>
      </trkpt>
      <trkpt lat="49.43161" lon="4.02979">
        <ele>108</ele>
        <time>2019-05-29T16:56:18Z</time>
      </trkpt>
      <trkpt lat="49.43167" lon="4.02984">
        <ele>108</ele>
        <time>2019-05-29T16:56:19Z</time>
      </trkpt>
      <trkpt lat="49.43173" lon="4.02989">
        <ele>108</ele>
        <time>2019-05-29T16:56:20Z</time>
      </trkpt>
      <trkpt lat="49.43179" lon="4.02994">
        <ele>109</ele>
        <time>2019-05-29T16:56:21Z</time>
      </trkpt>
      <trkpt lat="49.43184" lon="4.02998">
        <ele>109</ele>
        <time>2019-05-29T16:56:22Z</time>
      </trkpt>
      <trkpt lat="49.4319" lon="4.03002">
        <ele>109</ele>
        <time>2019-05-29T16:56:23Z</time>
      </trkpt>
      <trkpt lat="49.43196" lon="4.03006">
        <ele>109</ele>
        <time>2019-05-29T16:56:24Z</time>
      </trkpt>
      <trkpt lat="49.43202" lon="4.0301">
        <ele>109</ele>
        <time>2019-05-29T16:56:25Z</time>
      </trkpt>
      <trkpt lat="49.43207" lon="4.03015">
        <ele>109</ele>
        <time>2019-05-29T16:56:26Z</time>
      </trkpt>
      <trkpt lat="49.43212" lon="4.03019">
        <ele>109</ele>
        <time>2019-05-29T16:56:27Z</time>
      </trkpt>
      <trkpt lat="49.43217" lon="4.03023">
        <ele>109</ele>
        <time>2019-05-29T16:56:28Z</time>
      </trkpt>
      <trkpt lat="49.43221" lon="4.03027">
        <ele>110</ele>
        <time>2019-05-29T16:56:29Z</time>
      </trkpt>
      <trkpt lat="49.43225" lon="4.03033">
        <ele>110</ele>
        <time>2019-05-29T16:56:30Z</time>
      </trkpt>
      <trkpt lat="49.4323" lon="4.03037">
        <ele>110</ele>
        <time>2019-05-29T16:56:31Z</time>
      </trkpt>
      <trkpt lat="49.43235" lon="4.03041">
        <ele>111</ele>
        <time>2019-05-29T16:56:32Z</time>
      </trkpt>
      <trkpt lat="49.4324" lon="4.03047">
        <ele>110</ele>
        <time>2019-05-29T16:56:33Z</time>
      </trkpt>
      <trkpt lat="49.43245" lon="4.03052">
        <ele>110</ele>
        <time>2019-05-29T16:56:34Z</time>
      </trkpt>
      <trkpt lat="49.43251" lon="4.03057">
        <ele>110</ele>
        <time>2019-05-29T16:56:35Z</time>
      </trkpt>
      <trkpt lat="49.43257" lon="4.03062">
        <ele>110</ele>
        <time>2019-05-29T16:56:36Z</time>
      </trkpt>
      <trkpt lat="49.43263" lon="4.03068">
        <ele>111</ele>
        <time>2019-05-29T16:56:37Z</time>
      </trkpt>
      <trkpt lat="49.43268" lon="4.03075">
        <ele>110</ele>
        <time>2019-05-29T16:56:38Z</time>
      </trkpt>
      <trkpt lat="49.43273" lon="4.03081">
        <ele>110</ele>
        <time>2019-05-29T16:56:39Z</time>
      </trkpt>
      <trkpt lat="49.43275" lon="4.0309">
        <ele>110</ele>
        <time>2019-05-29T16:56:40Z</time>
      </trkpt>
      <trkpt lat="49.43272" lon="4.03101">
        <ele>110</ele>
        <time>2019-05-29T16:56:41Z</time>
      </trkpt>
      <trkpt lat="49.43269" lon="4.03111">
        <ele>110</ele>
        <time>2019-05-29T16:56:42Z</time>
      </trkpt>
      <trkpt lat="49.43266" lon="4.0312">
        <ele>110</ele>
        <time>2019-05-29T16:56:43Z</time>
      </trkpt>
      <trkpt lat="49.43263" lon="4.03129">
        <ele>110</ele>
        <time>2019-05-29T16:56:44Z</time>
      </trkpt>
      <trkpt lat="49.4326" lon="4.0314">
        <ele>109</ele>
        <time>2019-05-29T16:56:45Z</time>
      </trkpt>
      <trkpt lat="49.43258" lon="4.03149">
        <ele>110</ele>
        <time>2019-05-29T16:56:46Z</time>
      </trkpt>
      <trkpt lat="49.43256" lon="4.03158">
        <ele>110</ele>
        <time>2019-05-29T16:56:47Z</time>
      </trkpt>
      <trkpt lat="49.43254" lon="4.03168">
        <ele>109</ele>
        <time>2019-05-29T16:56:48Z</time>
      </trkpt>
      <trkpt lat="49.43252" lon="4.03177">
        <ele>110</ele>
        <time>2019-05-29T16:56:49Z</time>
      </trkpt>
      <trkpt lat="49.4325" lon="4.03186">
        <ele>110</ele>
        <time>2019-05-29T16:56:50Z</time>
      </trkpt>
      <trkpt lat="49.43248" lon="4.03194">
        <ele>110</ele>
        <time>2019-05-29T16:56:51Z</time>
      </trkpt>
      <trkpt lat="49.43246" lon="4.03202">
        <ele>110</ele>
        <time>2019-05-29T16:56:52Z</time>
      </trkpt>
      <trkpt lat="49.43244" lon="4.03211">
        <ele>110</ele>
        <time>2019-05-29T16:56:53Z</time>
      </trkpt>
      <trkpt lat="49.43242" lon="4.0322">
        <ele>111</ele>
        <time>2019-05-29T16:56:54Z</time>
      </trkpt>
      <trkpt lat="49.4324" lon="4.03229">
        <ele>111</ele>
        <time>2019-05-29T16:56:55Z</time>
      </trkpt>
      <trkpt lat="49.43237" lon="4.03237">
        <ele>111</ele>
        <time>2019-05-29T16:56:56Z</time>
      </trkpt>
      <trkpt lat="49.43234" lon="4.03246">
        <ele>111</ele>
        <time>2019-05-29T16:56:57Z</time>
      </trkpt>
      <trkpt lat="49.43231" lon="4.03255">
        <ele>111</ele>
        <time>2019-05-29T16:56:58Z</time>
      </trkpt>
      <trkpt lat="49.43228" lon="4.03264">
        <ele>111</ele>
        <time>2019-05-29T16:56:59Z</time>
      </trkpt>
      <trkpt lat="49.43225" lon="4.03273">
        <ele>111</ele>
        <time>2019-05-29T16:57:00Z</time>
      </trkpt>
      <trkpt lat="49.43222" lon="4.03282">
        <ele>111</ele>
        <time>2019-05-29T16:57:01Z</time>
      </trkpt>
      <trkpt lat="49.43218" lon="4.03291">
        <ele>112</ele>
        <time>2019-05-29T16:57:02Z</time>
      </trkpt>
      <trkpt lat="49.43215" lon="4.033">
        <ele>112</ele>
        <time>2019-05-29T16:57:03Z</time>
      </trkpt>
      <trkpt lat="49.43212" lon="4.0331">
        <ele>112</ele>
        <time>2019-05-29T16:57:04Z</time>
      </trkpt>
      <trkpt lat="49.43208" lon="4.03319">
        <ele>112</ele>
        <time>2019-05-29T16:57:05Z</time>
      </trkpt>
      <trkpt lat="49.43203" lon="4.03328">
        <ele>112</ele>
        <time>2019-05-29T16:57:06Z</time>
      </trkpt>
      <trkpt lat="49.432" lon="4.03337">
        <ele>113</ele>
        <time>2019-05-29T16:57:07Z</time>
      </trkpt>
      <trkpt lat="49.43196" lon="4.03347">
        <ele>113</ele>
        <time>2019-05-29T16:57:08Z</time>
      </trkpt>
      <trkpt lat="49.43192" lon="4.03356">
        <ele>113</ele>
        <time>2019-05-29T16:57:09Z</time>
      </trkpt>
      <trkpt lat="49.43189" lon="4.03367">
        <ele>112</ele>
        <time>2019-05-29T16:57:10Z</time>
      </trkpt>
      <trkpt lat="49.43185" lon="4.03377">
        <ele>112</ele>
        <time>2019-05-29T16:57:11Z</time>
      </trkpt>
      <trkpt lat="49.43181" lon="4.03386">
        <ele>112</ele>
        <time>2019-05-29T16:57:12Z</time>
      </trkpt>
      <trkpt lat="49.43177" lon="4.03396">
        <ele>112</ele>
        <time>2019-05-29T16:57:13Z</time>
      </trkpt>
      <trkpt lat="49.43174" lon="4.03405">
        <ele>111</ele>
        <time>2019-05-29T16:57:14Z</time>
      </trkpt>
      <trkpt lat="49.43171" lon="4.03415">
        <ele>111</ele>
        <time>2019-05-29T16:57:15Z</time>
      </trkpt>
      <trkpt lat="49.43167" lon="4.03424">
        <ele>110</ele>
        <time>2019-05-29T16:57:16Z</time>
      </trkpt>
      <trkpt lat="49.43163" lon="4.03434">
        <ele>111</ele>
        <time>2019-05-29T16:57:17Z</time>
      </trkpt>
      <trkpt lat="49.43159" lon="4.03445">
        <ele>111</ele>
        <time>2019-05-29T16:57:18Z</time>
      </trkpt>
      <trkpt lat="49.43154" lon="4.03454">
        <ele>111</ele>
        <time>2019-05-29T16:57:19Z</time>
      </trkpt>
      <trkpt lat="49.4315" lon="4.03464">
        <ele>110</ele>
        <time>2019-05-29T16:57:20Z</time>
      </trkpt>
      <trkpt lat="49.43146" lon="4.03473">
        <ele>109</ele>
        <time>2019-05-29T16:57:21Z</time>
      </trkpt>
      <trkpt lat="49.43143" lon="4.03482">
        <ele>109</ele>
        <time>2019-05-29T16:57:22Z</time>
      </trkpt>
      <trkpt lat="49.43139" lon="4.0349">
        <ele>109</ele>
        <time>2019-05-29T16:57:23Z</time>
      </trkpt>
      <trkpt lat="49.43136" lon="4.035">
        <ele>109</ele>
        <time>2019-05-29T16:57:24Z</time>
      </trkpt>
      <trkpt lat="49.43132" lon="4.03508">
        <ele>109</ele>
        <time>2019-05-29T16:57:25Z</time>
      </trkpt>
      <trkpt lat="49.43129" lon="4.03516">
        <ele>109</ele>
        <time>2019-05-29T16:57:26Z</time>
      </trkpt>
      <trkpt lat="49.43125" lon="4.03524">
        <ele>109</ele>
        <time>2019-05-29T16:57:27Z</time>
      </trkpt>
      <trkpt lat="49.43122" lon="4.03534">
        <ele>109</ele>
        <time>2019-05-29T16:57:28Z</time>
      </trkpt>
      <trkpt lat="49.43119" lon="4.03542">
        <ele>110</ele>
        <time>2019-05-29T16:57:29Z</time>
      </trkpt>
      <trkpt lat="49.43115" lon="4.03551">
        <ele>110</ele>
        <time>2019-05-29T16:57:30Z</time>
      </trkpt>
      <trkpt lat="49.43111" lon="4.03561">
        <ele>109</ele>
        <time>2019-05-29T16:57:31Z</time>
      </trkpt>
      <trkpt lat="49.43107" lon="4.0357">
        <ele>110</ele>
        <time>2019-05-29T16:57:32Z</time>
      </trkpt>
      <trkpt lat="49.43103" lon="4.0358">
        <ele>109</ele>
        <time>2019-05-29T16:57:33Z</time>
      </trkpt>
      <trkpt lat="49.43099" lon="4.0359">
        <ele>110</ele>
        <time>2019-05-29T16:57:34Z</time>
      </trkpt>
      <trkpt lat="49.43094" lon="4.03599">
        <ele>110</ele>
        <time>2019-05-29T16:57:35Z</time>
      </trkpt>
      <trkpt lat="49.4309" lon="4.0361">
        <ele>109</ele>
        <time>2019-05-29T16:57:36Z</time>
      </trkpt>
      <trkpt lat="49.43085" lon="4.03619">
        <ele>110</ele>
        <time>2019-05-29T16:57:37Z</time>
      </trkpt>
      <trkpt lat="49.43081" lon="4.03627">
        <ele>110</ele>
        <time>2019-05-29T16:57:38Z</time>
      </trkpt>
      <trkpt lat="49.43077" lon="4.03638">
        <ele>110</ele>
        <time>2019-05-29T16:57:39Z</time>
      </trkpt>
      <trkpt lat="49.43074" lon="4.03649">
        <ele>110</ele>
        <time>2019-05-29T16:57:40Z</time>
      </trkpt>
      <trkpt lat="49.43071" lon="4.0366">
        <ele>109</ele>
        <time>2019-05-29T16:57:41Z</time>
      </trkpt>
      <trkpt lat="49.43069" lon="4.03672">
        <ele>109</ele>
        <time>2019-05-29T16:57:42Z</time>
      </trkpt>
      <trkpt lat="49.43067" lon="4.03683">
        <ele>110</ele>
        <time>2019-05-29T16:57:43Z</time>
      </trkpt>
      <trkpt lat="49.43064" lon="4.03694">
        <ele>111</ele>
        <time>2019-05-29T16:57:44Z</time>
      </trkpt>
      <trkpt lat="49.43062" lon="4.03706">
        <ele>112</ele>
        <time>2019-05-29T16:57:45Z</time>
      </trkpt>
      <trkpt lat="49.4306" lon="4.03719">
        <ele>112</ele>
        <time>2019-05-29T16:57:46Z</time>
      </trkpt>
      <trkpt lat="49.43057" lon="4.0373">
        <ele>112</ele>
        <time>2019-05-29T16:57:47Z</time>
      </trkpt>
      <trkpt lat="49.43054" lon="4.03741">
        <ele>112</ele>
        <time>2019-05-29T16:57:48Z</time>
      </trkpt>
      <trkpt lat="49.43052" lon="4.03752">
        <ele>112</ele>
        <time>2019-05-29T16:57:49Z</time>
      </trkpt>
      <trkpt lat="49.43049" lon="4.03763">
        <ele>112</ele>
        <time>2019-05-29T16:57:50Z</time>
      </trkpt>
      <trkpt lat="49.43046" lon="4.03774">
        <ele>112</ele>
        <time>2019-05-29T16:57:51Z</time>
      </trkpt>
      <trkpt lat="49.43043" lon="4.03785">
        <ele>112</ele>
        <time>2019-05-29T16:57:52Z</time>
      </trkpt>
      <trkpt lat="49.4304" lon="4.03795">
        <ele>112</ele>
        <time>2019-05-29T16:57:53Z</time>
      </trkpt>
      <trkpt lat="49.43037" lon="4.03806">
        <ele>112</ele>
        <time>2019-05-29T16:57:54Z</time>
      </trkpt>
      <trkpt lat="49.43035" lon="4.03816">
        <ele>112</ele>
        <time>2019-05-29T16:57:55Z</time>
      </trkpt>
      <trkpt lat="49.43032" lon="4.03826">
        <ele>112</ele>
        <time>2019-05-29T16:57:56Z</time>
      </trkpt>
      <trkpt lat="49.4303" lon="4.03837">
        <ele>112</ele>
        <time>2019-05-29T16:57:57Z</time>
      </trkpt>
      <trkpt lat="49.43028" lon="4.03847">
        <ele>112</ele>
        <time>2019-05-29T16:57:58Z</time>
      </trkpt>
      <trkpt lat="49.43026" lon="4.03857">
        <ele>112</ele>
        <time>2019-05-29T16:57:59Z</time>
      </trkpt>
      <trkpt lat="49.43024" lon="4.03867">
        <ele>111</ele>
        <time>2019-05-29T16:58:00Z</time>
      </trkpt>
      <trkpt lat="49.43022" lon="4.03876">
        <ele>111</ele>
        <time>2019-05-29T16:58:01Z</time>
      </trkpt>
      <trkpt lat="49.4302" lon="4.03886">
        <ele>111</ele>
        <time>2019-05-29T16:58:02Z</time>
      </trkpt>
      <trkpt lat="49.43018" lon="4.03895">
        <ele>111</ele>
        <time>2019-05-29T16:58:03Z</time>
      </trkpt>
      <trkpt lat="49.43017" lon="4.03905">
        <ele>111</ele>
        <time>2019-05-29T16:58:04Z</time>
      </trkpt>
      <trkpt lat="49.43015" lon="4.03915">
        <ele>111</ele>
        <time>2019-05-29T16:58:05Z</time>
      </trkpt>
      <trkpt lat="49.43013" lon="4.03925">
        <ele>111</ele>
        <time>2019-05-29T16:58:06Z</time>
      </trkpt>
      <trkpt lat="49.43012" lon="4.03934">
        <ele>111</ele>
        <time>2019-05-29T16:58:07Z</time>
      </trkpt>
      <trkpt lat="49.4301" lon="4.03945">
        <ele>111</ele>
        <time>2019-05-29T16:58:08Z</time>
      </trkpt>
      <trkpt lat="49.43009" lon="4.03954">
        <ele>111</ele>
        <time>2019-05-29T16:58:09Z</time>
      </trkpt>
      <trkpt lat="49.43007" lon="4.03964">
        <ele>111</ele>
        <time>2019-05-29T16:58:10Z</time>
      </trkpt>
      <trkpt lat="49.43006" lon="4.03973">
        <ele>111</ele>
        <time>2019-05-29T16:58:11Z</time>
      </trkpt>
      <trkpt lat="49.43004" lon="4.03982">
        <ele>111</ele>
        <time>2019-05-29T16:58:12Z</time>
      </trkpt>
      <trkpt lat="49.43002" lon="4.03991">
        <ele>111</ele>
        <time>2019-05-29T16:58:13Z</time>
      </trkpt>
      <trkpt lat="49.43" lon="4.04">
        <ele>111</ele>
        <time>2019-05-29T16:58:14Z</time>
      </trkpt>
      <trkpt lat="49.42999" lon="4.04009">
        <ele>111</ele>
        <time>2019-05-29T16:58:15Z</time>
      </trkpt>
      <trkpt lat="49.42997" lon="4.04019">
        <ele>110</ele>
        <time>2019-05-29T16:58:16Z</time>
      </trkpt>
      <trkpt lat="49.42996" lon="4.04029">
        <ele>110</ele>
        <time>2019-05-29T16:58:17Z</time>
      </trkpt>
      <trkpt lat="49.42994" lon="4.04039">
        <ele>110</ele>
        <time>2019-05-29T16:58:18Z</time>
      </trkpt>
      <trkpt lat="49.42991" lon="4.04051">
        <ele>110</ele>
        <time>2019-05-29T16:58:19Z</time>
      </trkpt>
      <trkpt lat="49.42989" lon="4.04062">
        <ele>110</ele>
        <time>2019-05-29T16:58:20Z</time>
      </trkpt>
      <trkpt lat="49.42986" lon="4.04075">
        <ele>110</ele>
        <time>2019-05-29T16:58:21Z</time>
      </trkpt>
      <trkpt lat="49.42984" lon="4.04088">
        <ele>110</ele>
        <time>2019-05-29T16:58:22Z</time>
      </trkpt>
      <trkpt lat="49.42981" lon="4.041">
        <ele>110</ele>
        <time>2019-05-29T16:58:23Z</time>
      </trkpt>
      <trkpt lat="49.42978" lon="4.04113">
        <ele>110</ele>
        <time>2019-05-29T16:58:24Z</time>
      </trkpt>
      <trkpt lat="49.42976" lon="4.04126">
        <ele>110</ele>
        <time>2019-05-29T16:58:25Z</time>
      </trkpt>
      <trkpt lat="49.42973" lon="4.04138">
        <ele>110</ele>
        <time>2019-05-29T16:58:26Z</time>
      </trkpt>
      <trkpt lat="49.42971" lon="4.04151">
        <ele>110</ele>
        <time>2019-05-29T16:58:27Z</time>
      </trkpt>
      <trkpt lat="49.42969" lon="4.04163">
        <ele>110</ele>
        <time>2019-05-29T16:58:28Z</time>
      </trkpt>
      <trkpt lat="49.42966" lon="4.04174">
        <ele>110</ele>
        <time>2019-05-29T16:58:29Z</time>
      </trkpt>
      <trkpt lat="49.42963" lon="4.04186">
        <ele>110</ele>
        <time>2019-05-29T16:58:30Z</time>
      </trkpt>
      <trkpt lat="49.4296" lon="4.04198">
        <ele>110</ele>
        <time>2019-05-29T16:58:31Z</time>
      </trkpt>
      <trkpt lat="49.42957" lon="4.04209">
        <ele>110</ele>
        <time>2019-05-29T16:58:32Z</time>
      </trkpt>
      <trkpt lat="49.42954" lon="4.04221">
        <ele>110</ele>
        <time>2019-05-29T16:58:33Z</time>
      </trkpt>
      <trkpt lat="49.42951" lon="4.04232">
        <ele>110</ele>
        <time>2019-05-29T16:58:34Z</time>
      </trkpt>
      <trkpt lat="49.42948" lon="4.04244">
        <ele>110</ele>
        <time>2019-05-29T16:58:35Z</time>
      </trkpt>
      <trkpt lat="49.42944" lon="4.04256">
        <ele>110</ele>
        <time>2019-05-29T16:58:36Z</time>
      </trkpt>
      <trkpt lat="49.42941" lon="4.04269">
        <ele>109</ele>
        <time>2019-05-29T16:58:37Z</time>
      </trkpt>
      <trkpt lat="49.42937" lon="4.04281">
        <ele>109</ele>
        <time>2019-05-29T16:58:38Z</time>
      </trkpt>
      <trkpt lat="49.42934" lon="4.04294">
        <ele>109</ele>
        <time>2019-05-29T16:58:39Z</time>
      </trkpt>
      <trkpt lat="49.42931" lon="4.04306">
        <ele>109</ele>
        <time>2019-05-29T16:58:40Z</time>
      </trkpt>
      <trkpt lat="49.42928" lon="4.04318">
        <ele>109</ele>
        <time>2019-05-29T16:58:41Z</time>
      </trkpt>
      <trkpt lat="49.42924" lon="4.0433">
        <ele>108</ele>
        <time>2019-05-29T16:58:42Z</time>
      </trkpt>
      <trkpt lat="49.42921" lon="4.04341">
        <ele>108</ele>
        <time>2019-05-29T16:58:43Z</time>
      </trkpt>
      <trkpt lat="49.42917" lon="4.04351">
        <ele>108</ele>
        <time>2019-05-29T16:58:44Z</time>
      </trkpt>
      <trkpt lat="49.42911" lon="4.04359">
        <ele>108</ele>
        <time>2019-05-29T16:58:45Z</time>
      </trkpt>
      <trkpt lat="49.42906" lon="4.04366">
        <ele>108</ele>
        <time>2019-05-29T16:58:46Z</time>
      </trkpt>
      <trkpt lat="49.42899" lon="4.04371">
        <ele>107</ele>
        <time>2019-05-29T16:58:47Z</time>
      </trkpt>
      <trkpt lat="49.42892" lon="4.04374">
        <ele>107</ele>
        <time>2019-05-29T16:58:48Z</time>
      </trkpt>
      <trkpt lat="49.42885" lon="4.04376">
        <ele>107</ele>
        <time>2019-05-29T16:58:49Z</time>
      </trkpt>
      <trkpt lat="49.42878" lon="4.04376">
        <ele>107</ele>
        <time>2019-05-29T16:58:50Z</time>
      </trkpt>
      <trkpt lat="49.42871" lon="4.04375">
        <ele>107</ele>
        <time>2019-05-29T16:58:51Z</time>
      </trkpt>
      <trkpt lat="49.42863" lon="4.04376">
        <ele>107</ele>
        <time>2019-05-29T16:58:52Z</time>
      </trkpt>
      <trkpt lat="49.42856" lon="4.04379">
        <ele>108</ele>
        <time>2019-05-29T16:58:53Z</time>
      </trkpt>
      <trkpt lat="49.42852" lon="4.04387">
        <ele>108</ele>
        <time>2019-05-29T16:58:54Z</time>
      </trkpt>
      <trkpt lat="49.4285" lon="4.04398">
        <ele>108</ele>
        <time>2019-05-29T16:58:55Z</time>
      </trkpt>
      <trkpt lat="49.4285" lon="4.04409">
        <ele>107</ele>
        <time>2019-05-29T16:58:56Z</time>
      </trkpt>
      <trkpt lat="49.4285" lon="4.0442">
        <ele>107</ele>
        <time>2019-05-29T16:58:57Z</time>
      </trkpt>
      <trkpt lat="49.42849" lon="4.04432">
        <ele>107</ele>
        <time>2019-05-29T16:58:58Z</time>
      </trkpt>
      <trkpt lat="49.42849" lon="4.04444">
        <ele>107</ele>
        <time>2019-05-29T16:58:59Z</time>
      </trkpt>
      <trkpt lat="49.42848" lon="4.04456">
        <ele>107</ele>
        <time>2019-05-29T16:59:00Z</time>
      </trkpt>
      <trkpt lat="49.42847" lon="4.04469">
        <ele>107</ele>
        <time>2019-05-29T16:59:01Z</time>
      </trkpt>
      <trkpt lat="49.42847" lon="4.04481">
        <ele>107</ele>
        <time>2019-05-29T16:59:02Z</time>
      </trkpt>
      <trkpt lat="49.42848" lon="4.04494">
        <ele>107</ele>
        <time>2019-05-29T16:59:03Z</time>
      </trkpt>
      <trkpt lat="49.42848" lon="4.04506">
        <ele>107</ele>
        <time>2019-05-29T16:59:04Z</time>
      </trkpt>
      <trkpt lat="49.4285" lon="4.04519">
        <ele>107</ele>
        <time>2019-05-29T16:59:05Z</time>
      </trkpt>
      <trkpt lat="49.42852" lon="4.0453">
        <ele>107</ele>
        <time>2019-05-29T16:59:06Z</time>
      </trkpt>
      <trkpt lat="49.42855" lon="4.0454">
        <ele>107</ele>
        <time>2019-05-29T16:59:07Z</time>
      </trkpt>
      <trkpt lat="49.42859" lon="4.0455">
        <ele>107</ele>
        <time>2019-05-29T16:59:08Z</time>
      </trkpt>
      <trkpt lat="49.42863" lon="4.04558">
        <ele>107</ele>
        <time>2019-05-29T16:59:09Z</time>
      </trkpt>
      <trkpt lat="49.42866" lon="4.04567">
        <ele>107</ele>
        <time>2019-05-29T16:59:10Z</time>
      </trkpt>
      <trkpt lat="49.4287" lon="4.04576">
        <ele>107</ele>
        <time>2019-05-29T16:59:11Z</time>
      </trkpt>
      <trkpt lat="49.42875" lon="4.04583">
        <ele>106</ele>
        <time>2019-05-29T16:59:12Z</time>
      </trkpt>
      <trkpt lat="49.4288" lon="4.04589">
        <ele>106</ele>
        <time>2019-05-29T16:59:13Z</time>
      </trkpt>
      <trkpt lat="49.42885" lon="4.04594">
        <ele>106</ele>
        <time>2019-05-29T16:59:14Z</time>
      </trkpt>
      <trkpt lat="49.42891" lon="4.04599">
        <ele>106</ele>
        <time>2019-05-29T16:59:15Z</time>
      </trkpt>
      <trkpt lat="49.42897" lon="4.04603">
        <ele>106</ele>
        <time>2019-05-29T16:59:16Z</time>
      </trkpt>
      <trkpt lat="49.42903" lon="4.04606">
        <ele>106</ele>
        <time>2019-05-29T16:59:17Z</time>
      </trkpt>
      <trkpt lat="49.42909" lon="4.04609">
        <ele>107</ele>
        <time>2019-05-29T16:59:18Z</time>
      </trkpt>
      <trkpt lat="49.42916" lon="4.04612">
        <ele>107</ele>
        <time>2019-05-29T16:59:19Z</time>
      </trkpt>
      <trkpt lat="49.42922" lon="4.04615">
        <ele>107</ele>
        <time>2019-05-29T16:59:20Z</time>
      </trkpt>
      <trkpt lat="49.42929" lon="4.04617">
        <ele>107</ele>
        <time>2019-05-29T16:59:21Z</time>
      </trkpt>
      <trkpt lat="49.42936" lon="4.04619">
        <ele>107</ele>
        <time>2019-05-29T16:59:22Z</time>
      </trkpt>
      <trkpt lat="49.42943" lon="4.04622">
        <ele>107</ele>
        <time>2019-05-29T16:59:23Z</time>
      </trkpt>
      <trkpt lat="49.42949" lon="4.04624">
        <ele>107</ele>
        <time>2019-05-29T16:59:24Z</time>
      </trkpt>
      <trkpt lat="49.42956" lon="4.04626">
        <ele>107</ele>
        <time>2019-05-29T16:59:25Z</time>
      </trkpt>
      <trkpt lat="49.42963" lon="4.04628">
        <ele>107</ele>
        <time>2019-05-29T16:59:26Z</time>
      </trkpt>
      <trkpt lat="49.4297" lon="4.04629">
        <ele>107</ele>
        <time>2019-05-29T16:59:27Z</time>
      </trkpt>
      <trkpt lat="49.42977" lon="4.0463">
        <ele>107</ele>
        <time>2019-05-29T16:59:28Z</time>
      </trkpt>
      <trkpt lat="49.42984" lon="4.04632">
        <ele>107</ele>
        <time>2019-05-29T16:59:29Z</time>
      </trkpt>
      <trkpt lat="49.42991" lon="4.04635">
        <ele>108</ele>
        <time>2019-05-29T16:59:30Z</time>
      </trkpt>
      <trkpt lat="49.42998" lon="4.04638">
        <ele>108</ele>
        <time>2019-05-29T16:59:31Z</time>
      </trkpt>
      <trkpt lat="49.43004" lon="4.0464">
        <ele>108</ele>
        <time>2019-05-29T16:59:32Z</time>
      </trkpt>
      <trkpt lat="49.43012" lon="4.04642">
        <ele>107</ele>
        <time>2019-05-29T16:59:33Z</time>
      </trkpt>
      <trkpt lat="49.4302" lon="4.04644">
        <ele>107</ele>
        <time>2019-05-29T16:59:34Z</time>
      </trkpt>
      <trkpt lat="49.43027" lon="4.04647">
        <ele>107</ele>
        <time>2019-05-29T16:59:35Z</time>
      </trkpt>
      <trkpt lat="49.43034" lon="4.04649">
        <ele>107</ele>
        <time>2019-05-29T16:59:36Z</time>
      </trkpt>
      <trkpt lat="49.43042" lon="4.04651">
        <ele>107</ele>
        <time>2019-05-29T16:59:37Z</time>
      </trkpt>
      <trkpt lat="49.43049" lon="4.04654">
        <ele>107</ele>
        <time>2019-05-29T16:59:38Z</time>
      </trkpt>
      <trkpt lat="49.43057" lon="4.04656">
        <ele>107</ele>
        <time>2019-05-29T16:59:39Z</time>
      </trkpt>
      <trkpt lat="49.43064" lon="4.04658">
        <ele>107</ele>
        <time>2019-05-29T16:59:40Z</time>
      </trkpt>
      <trkpt lat="49.43072" lon="4.0466">
        <ele>107</ele>
        <time>2019-05-29T16:59:41Z</time>
      </trkpt>
      <trkpt lat="49.4308" lon="4.04663">
        <ele>107</ele>
        <time>2019-05-29T16:59:42Z</time>
      </trkpt>
      <trkpt lat="49.43088" lon="4.04666">
        <ele>107</ele>
        <time>2019-05-29T16:59:43Z</time>
      </trkpt>
      <trkpt lat="49.43095" lon="4.04668">
        <ele>107</ele>
        <time>2019-05-29T16:59:44Z</time>
      </trkpt>
      <trkpt lat="49.43103" lon="4.04671">
        <ele>107</ele>
        <time>2019-05-29T16:59:45Z</time>
      </trkpt>
      <trkpt lat="49.43111" lon="4.04673">
        <ele>106</ele>
        <time>2019-05-29T16:59:46Z</time>
      </trkpt>
      <trkpt lat="49.4312" lon="4.04675">
        <ele>106</ele>
        <time>2019-05-29T16:59:47Z</time>
      </trkpt>
      <trkpt lat="49.43128" lon="4.04677">
        <ele>106</ele>
        <time>2019-05-29T16:59:48Z</time>
      </trkpt>
      <trkpt lat="49.43136" lon="4.0468">
        <ele>106</ele>
        <time>2019-05-29T16:59:49Z</time>
      </trkpt>
      <trkpt lat="49.43143" lon="4.04682">
        <ele>106</ele>
        <time>2019-05-29T16:59:50Z</time>
      </trkpt>
      <trkpt lat="49.43151" lon="4.04684">
        <ele>106</ele>
        <time>2019-05-29T16:59:51Z</time>
      </trkpt>
      <trkpt lat="49.43158" lon="4.04686">
        <ele>106</ele>
        <time>2019-05-29T16:59:52Z</time>
      </trkpt>
      <trkpt lat="49.43166" lon="4.04688">
        <ele>106</ele>
        <time>2019-05-29T16:59:53Z</time>
      </trkpt>
      <trkpt lat="49.43174" lon="4.0469">
        <ele>106</ele>
        <time>2019-05-29T16:59:54Z</time>
      </trkpt>
      <trkpt lat="49.43181" lon="4.04692">
        <ele>106</ele>
        <time>2019-05-29T16:59:55Z</time>
      </trkpt>
      <trkpt lat="49.43189" lon="4.04695">
        <ele>106</ele>
        <time>2019-05-29T16:59:56Z</time>
      </trkpt>
      <trkpt lat="49.43197" lon="4.04697">
        <ele>106</ele>
        <time>2019-05-29T16:59:57Z</time>
      </trkpt>
      <trkpt lat="49.43204" lon="4.04699">
        <ele>106</ele>
        <time>2019-05-29T16:59:58Z</time>
      </trkpt>
      <trkpt lat="49.43212" lon="4.04701">
        <ele>106</ele>
        <time>2019-05-29T16:59:59Z</time>
      </trkpt>
      <trkpt lat="49.4322" lon="4.04703">
        <ele>106</ele>
        <time>2019-05-29T17:00:00Z</time>
      </trkpt>
      <trkpt lat="49.43227" lon="4.04705">
        <ele>106</ele>
        <time>2019-05-29T17:00:01Z</time>
      </trkpt>
      <trkpt lat="49.43235" lon="4.04707">
        <ele>106</ele>
        <time>2019-05-29T17:00:02Z</time>
      </trkpt>
      <trkpt lat="49.43242" lon="4.04709">
        <ele>106</ele>
        <time>2019-05-29T17:00:03Z</time>
      </trkpt>
      <trkpt lat="49.4325" lon="4.04711">
        <ele>106</ele>
        <time>2019-05-29T17:00:04Z</time>
      </trkpt>
      <trkpt lat="49.43258" lon="4.04713">
        <ele>105</ele>
        <time>2019-05-29T17:00:05Z</time>
      </trkpt>
      <trkpt lat="49.43266" lon="4.04716">
        <ele>106</ele>
        <time>2019-05-29T17:00:06Z</time>
      </trkpt>
      <trkpt lat="49.43274" lon="4.04718">
        <ele>106</ele>
        <time>2019-05-29T17:00:07Z</time>
      </trkpt>
      <trkpt lat="49.43282" lon="4.04721">
        <ele>106</ele>
        <time>2019-05-29T17:00:08Z</time>
      </trkpt>
      <trkpt lat="49.4329" lon="4.04723">
        <ele>106</ele>
        <time>2019-05-29T17:00:09Z</time>
      </trkpt>
      <trkpt lat="49.43297" lon="4.04727">
        <ele>106</ele>
        <time>2019-05-29T17:00:10Z</time>
      </trkpt>
      <trkpt lat="49.43304" lon="4.04731">
        <ele>106</ele>
        <time>2019-05-29T17:00:11Z</time>
      </trkpt>
      <trkpt lat="49.4331" lon="4.04738">
        <ele>106</ele>
        <time>2019-05-29T17:00:12Z</time>
      </trkpt>
      <trkpt lat="49.43315" lon="4.04744">
        <ele>106</ele>
        <time>2019-05-29T17:00:13Z</time>
      </trkpt>
      <trkpt lat="49.4332" lon="4.04753">
        <ele>106</ele>
        <time>2019-05-29T17:00:14Z</time>
      </trkpt>
      <trkpt lat="49.43326" lon="4.04761">
        <ele>106</ele>
        <time>2019-05-29T17:00:15Z</time>
      </trkpt>
      <trkpt lat="49.43331" lon="4.0477">
        <ele>106</ele>
        <time>2019-05-29T17:00:16Z</time>
      </trkpt>
      <trkpt lat="49.43335" lon="4.04778">
        <ele>106</ele>
        <time>2019-05-29T17:00:17Z</time>
      </trkpt>
      <trkpt lat="49.4334" lon="4.04787">
        <ele>105</ele>
        <time>2019-05-29T17:00:18Z</time>
      </trkpt>
      <trkpt lat="49.43345" lon="4.04796">
        <ele>105</ele>
        <time>2019-05-29T17:00:19Z</time>
      </trkpt>
      <trkpt lat="49.4335" lon="4.04805">
        <ele>105</ele>
        <time>2019-05-29T17:00:20Z</time>
      </trkpt>
      <trkpt lat="49.43354" lon="4.04814">
        <ele>105</ele>
        <time>2019-05-29T17:00:21Z</time>
      </trkpt>
      <trkpt lat="49.43359" lon="4.04824">
        <ele>105</ele>
        <time>2019-05-29T17:00:22Z</time>
      </trkpt>
      <trkpt lat="49.43363" lon="4.04833">
        <ele>105</ele>
        <time>2019-05-29T17:00:23Z</time>
      </trkpt>
      <trkpt lat="49.43366" lon="4.04843">
        <ele>105</ele>
        <time>2019-05-29T17:00:24Z</time>
      </trkpt>
      <trkpt lat="49.43369" lon="4.04854">
        <ele>105</ele>
        <time>2019-05-29T17:00:25Z</time>
      </trkpt>
      <trkpt lat="49.43371" lon="4.04865">
        <ele>105</ele>
        <time>2019-05-29T17:00:26Z</time>
      </trkpt>
      <trkpt lat="49.43372" lon="4.04876">
        <ele>105</ele>
        <time>2019-05-29T17:00:27Z</time>
      </trkpt>
      <trkpt lat="49.43372" lon="4.04887">
        <ele>105</ele>
        <time>2019-05-29T17:00:28Z</time>
      </trkpt>
      <trkpt lat="49.43371" lon="4.04898">
        <ele>106</ele>
        <time>2019-05-29T17:00:29Z</time>
      </trkpt>
      <trkpt lat="49.43369" lon="4.04909">
        <ele>106</ele>
        <time>2019-05-29T17:00:30Z</time>
      </trkpt>
      <trkpt lat="49.43367" lon="4.04919">
        <ele>107</ele>
        <time>2019-05-29T17:00:31Z</time>
      </trkpt>
      <trkpt lat="49.43365" lon="4.04929">
        <ele>107</ele>
        <time>2019-05-29T17:00:32Z</time>
      </trkpt>
      <trkpt lat="49.43363" lon="4.0494">
        <ele>107</ele>
        <time>2019-05-29T17:00:33Z</time>
      </trkpt>
      <trkpt lat="49.43361" lon="4.04951">
        <ele>107</ele>
        <time>2019-05-29T17:00:34Z</time>
      </trkpt>
      <trkpt lat="49.43359" lon="4.04961">
        <ele>108</ele>
        <time>2019-05-29T17:00:35Z</time>
      </trkpt>
      <trkpt lat="49.43357" lon="4.04971">
        <ele>108</ele>
        <time>2019-05-29T17:00:36Z</time>
      </trkpt>
      <trkpt lat="49.43355" lon="4.04981">
        <ele>108</ele>
        <time>2019-05-29T17:00:37Z</time>
      </trkpt>
      <trkpt lat="49.43353" lon="4.04991">
        <ele>108</ele>
        <time>2019-05-29T17:00:38Z</time>
      </trkpt>
      <trkpt lat="49.43351" lon="4.05001">
        <ele>108</ele>
        <time>2019-05-29T17:00:39Z</time>
      </trkpt>
      <trkpt lat="49.43349" lon="4.05011">
        <ele>109</ele>
        <time>2019-05-29T17:00:40Z</time>
      </trkpt>
      <trkpt lat="49.43346" lon="4.05021">
        <ele>109</ele>
        <time>2019-05-29T17:00:41Z</time>
      </trkpt>
      <trkpt lat="49.43344" lon="4.0503">
        <ele>109</ele>
        <time>2019-05-29T17:00:42Z</time>
      </trkpt>
      <trkpt lat="49.43342" lon="4.05041">
        <ele>109</ele>
        <time>2019-05-29T17:00:43Z</time>
      </trkpt>
      <trkpt lat="49.4334" lon="4.05051">
        <ele>109</ele>
        <time>2019-05-29T17:00:44Z</time>
      </trkpt>
      <trkpt lat="49.43338" lon="4.05061">
        <ele>109</ele>
        <time>2019-05-29T17:00:45Z</time>
      </trkpt>
      <trkpt lat="49.43336" lon="4.05071">
        <ele>109</ele>
        <time>2019-05-29T17:00:46Z</time>
      </trkpt>
      <trkpt lat="49.43333" lon="4.05081">
        <ele>109</ele>
        <time>2019-05-29T17:00:47Z</time>
      </trkpt>
      <trkpt lat="49.4333" lon="4.05091">
        <ele>109</ele>
        <time>2019-05-29T17:00:48Z</time>
      </trkpt>
      <trkpt lat="49.43328" lon="4.05101">
        <ele>109</ele>
        <time>2019-05-29T17:00:49Z</time>
      </trkpt>
      <trkpt lat="49.43325" lon="4.05112">
        <ele>110</ele>
        <time>2019-05-29T17:00:50Z</time>
      </trkpt>
      <trkpt lat="49.43323" lon="4.05123">
        <ele>110</ele>
        <time>2019-05-29T17:00:51Z</time>
      </trkpt>
      <trkpt lat="49.43321" lon="4.05133">
        <ele>109</ele>
        <time>2019-05-29T17:00:52Z</time>
      </trkpt>
      <trkpt lat="49.43318" lon="4.05143">
        <ele>109</ele>
        <time>2019-05-29T17:00:53Z</time>
      </trkpt>
      <trkpt lat="49.43316" lon="4.05154">
        <ele>109</ele>
        <time>2019-05-29T17:00:54Z</time>
      </trkpt>
      <trkpt lat="49.43314" lon="4.05164">
        <ele>109</ele>
        <time>2019-05-29T17:00:55Z</time>
      </trkpt>
      <trkpt lat="49.43312" lon="4.05176">
        <ele>108</ele>
        <time>2019-05-29T17:00:56Z</time>
      </trkpt>
      <trkpt lat="49.4331" lon="4.05186">
        <ele>108</ele>
        <time>2019-05-29T17:00:57Z</time>
      </trkpt>
      <trkpt lat="49.43309" lon="4.05197">
        <ele>109</ele>
        <time>2019-05-29T17:00:58Z</time>
      </trkpt>
      <trkpt lat="49.43307" lon="4.05208">
        <ele>109</ele>
        <time>2019-05-29T17:00:59Z</time>
      </trkpt>
      <trkpt lat="49.43306" lon="4.05219">
        <ele>108</ele>
        <time>2019-05-29T17:01:00Z</time>
      </trkpt>
      <trkpt lat="49.43304" lon="4.05229">
        <ele>108</ele>
        <time>2019-05-29T17:01:01Z</time>
      </trkpt>
      <trkpt lat="49.43303" lon="4.0524">
        <ele>109</ele>
        <time>2019-05-29T17:01:02Z</time>
      </trkpt>
      <trkpt lat="49.433" lon="4.0525">
        <ele>109</ele>
        <time>2019-05-29T17:01:03Z</time>
      </trkpt>
      <trkpt lat="49.43298" lon="4.05259">
        <ele>108</ele>
        <time>2019-05-29T17:01:04Z</time>
      </trkpt>
      <trkpt lat="49.43296" lon="4.0527">
        <ele>108</ele>
        <time>2019-05-29T17:01:05Z</time>
      </trkpt>
      <trkpt lat="49.43293" lon="4.05279">
        <ele>107</ele>
        <time>2019-05-29T17:01:06Z</time>
      </trkpt>
      <trkpt lat="49.4329" lon="4.05288">
        <ele>107</ele>
        <time>2019-05-29T17:01:07Z</time>
      </trkpt>
      <trkpt lat="49.43288" lon="4.05298">
        <ele>107</ele>
        <time>2019-05-29T17:01:08Z</time>
      </trkpt>
      <trkpt lat="49.43285" lon="4.05306">
        <ele>106</ele>
        <time>2019-05-29T17:01:09Z</time>
      </trkpt>
      <trkpt lat="49.43283" lon="4.05316">
        <ele>107</ele>
        <time>2019-05-29T17:01:10Z</time>
      </trkpt>
      <trkpt lat="49.43281" lon="4.05325">
        <ele>107</ele>
        <time>2019-05-29T17:01:11Z</time>
      </trkpt>
      <trkpt lat="49.43279" lon="4.05334">
        <ele>107</ele>
        <time>2019-05-29T17:01:12Z</time>
      </trkpt>
      <trkpt lat="49.43277" lon="4.05343">
        <ele>107</ele>
        <time>2019-05-29T17:01:13Z</time>
      </trkpt>
      <trkpt lat="49.43274" lon="4.05353">
        <ele>107</ele>
        <time>2019-05-29T17:01:14Z</time>
      </trkpt>
      <trkpt lat="49.43272" lon="4.05362">
        <ele>107</ele>
        <time>2019-05-29T17:01:15Z</time>
      </trkpt>
      <trkpt lat="49.43269" lon="4.0537">
        <ele>107</ele>
        <time>2019-05-29T17:01:16Z</time>
      </trkpt>
      <trkpt lat="49.43267" lon="4.05378">
        <ele>107</ele>
        <time>2019-05-29T17:01:17Z</time>
      </trkpt>
      <trkpt lat="49.43264" lon="4.05386">
        <ele>107</ele>
        <time>2019-05-29T17:01:18Z</time>
      </trkpt>
      <trkpt lat="49.43262" lon="4.05395">
        <ele>107</ele>
        <time>2019-05-29T17:01:19Z</time>
      </trkpt>
      <trkpt lat="49.43259" lon="4.05404">
        <ele>107</ele>
        <time>2019-05-29T17:01:20Z</time>
      </trkpt>
      <trkpt lat="49.43257" lon="4.05412">
        <ele>108</ele>
        <time>2019-05-29T17:01:21Z</time>
      </trkpt>
      <trkpt lat="49.43255" lon="4.05421">
        <ele>108</ele>
        <time>2019-05-29T17:01:22Z</time>
      </trkpt>
      <trkpt lat="49.43253" lon="4.0543">
        <ele>108</ele>
        <time>2019-05-29T17:01:23Z</time>
      </trkpt>
      <trkpt lat="49.4325" lon="4.05439">
        <ele>108</ele>
        <time>2019-05-29T17:01:24Z</time>
      </trkpt>
      <trkpt lat="49.43248" lon="4.05447">
        <ele>108</ele>
        <time>2019-05-29T17:01:25Z</time>
      </trkpt>
      <trkpt lat="49.43245" lon="4.05456">
        <ele>108</ele>
        <time>2019-05-29T17:01:26Z</time>
      </trkpt>
      <trkpt lat="49.43243" lon="4.05465">
        <ele>108</ele>
        <time>2019-05-29T17:01:27Z</time>
      </trkpt>
      <trkpt lat="49.43241" lon="4.05474">
        <ele>108</ele>
        <time>2019-05-29T17:01:28Z</time>
      </trkpt>
      <trkpt lat="49.43239" lon="4.05483">
        <ele>108</ele>
        <time>2019-05-29T17:01:29Z</time>
      </trkpt>
      <trkpt lat="49.43237" lon="4.05491">
        <ele>108</ele>
        <time>2019-05-29T17:01:30Z</time>
      </trkpt>
      <trkpt lat="49.43234" lon="4.05499">
        <ele>108</ele>
        <time>2019-05-29T17:01:31Z</time>
      </trkpt>
      <trkpt lat="49.4323" lon="4.05507">
        <ele>108</ele>
        <time>2019-05-29T17:01:32Z</time>
      </trkpt>
      <trkpt lat="49.43227" lon="4.05516">
        <ele>108</ele>
        <time>2019-05-29T17:01:33Z</time>
      </trkpt>
      <trkpt lat="49.43224" lon="4.05524">
        <ele>108</ele>
        <time>2019-05-29T17:01:34Z</time>
      </trkpt>
      <trkpt lat="49.43221" lon="4.05533">
        <ele>108</ele>
        <time>2019-05-29T17:01:35Z</time>
      </trkpt>
      <trkpt lat="49.43217" lon="4.05541">
        <ele>108</ele>
        <time>2019-05-29T17:01:36Z</time>
      </trkpt>
      <trkpt lat="49.43214" lon="4.05551">
        <ele>108</ele>
        <time>2019-05-29T17:01:37Z</time>
      </trkpt>
      <trkpt lat="49.43211" lon="4.05559">
        <ele>108</ele>
        <time>2019-05-29T17:01:38Z</time>
      </trkpt>
      <trkpt lat="49.43208" lon="4.05569">
        <ele>109</ele>
        <time>2019-05-29T17:01:39Z</time>
      </trkpt>
      <trkpt lat="49.43205" lon="4.05578">
        <ele>109</ele>
        <time>2019-05-29T17:01:40Z</time>
      </trkpt>
      <trkpt lat="49.43202" lon="4.05588">
        <ele>109</ele>
        <time>2019-05-29T17:01:41Z</time>
      </trkpt>
      <trkpt lat="49.43199" lon="4.05596">
        <ele>109</ele>
        <time>2019-05-29T17:01:42Z</time>
      </trkpt>
      <trkpt lat="49.43196" lon="4.05605">
        <ele>109</ele>
        <time>2019-05-29T17:01:43Z</time>
      </trkpt>
      <trkpt lat="49.43193" lon="4.05614">
        <ele>109</ele>
        <time>2019-05-29T17:01:44Z</time>
      </trkpt>
      <trkpt lat="49.4319" lon="4.05623">
        <ele>109</ele>
        <time>2019-05-29T17:01:45Z</time>
      </trkpt>
      <trkpt lat="49.43188" lon="4.05633">
        <ele>109</ele>
        <time>2019-05-29T17:01:46Z</time>
      </trkpt>
      <trkpt lat="49.43185" lon="4.05642">
        <ele>109</ele>
        <time>2019-05-29T17:01:47Z</time>
      </trkpt>
      <trkpt lat="49.43182" lon="4.05651">
        <ele>109</ele>
        <time>2019-05-29T17:01:48Z</time>
      </trkpt>
      <trkpt lat="49.43179" lon="4.05661">
        <ele>108</ele>
        <time>2019-05-29T17:01:49Z</time>
      </trkpt>
      <trkpt lat="49.43176" lon="4.05671">
        <ele>108</ele>
        <time>2019-05-29T17:01:50Z</time>
      </trkpt>
      <trkpt lat="49.43173" lon="4.05681">
        <ele>108</ele>
        <time>2019-05-29T17:01:51Z</time>
      </trkpt>
      <trkpt lat="49.4317" lon="4.05691">
        <ele>107</ele>
        <time>2019-05-29T17:01:52Z</time>
      </trkpt>
      <trkpt lat="49.43166" lon="4.05701">
        <ele>107</ele>
        <time>2019-05-29T17:01:53Z</time>
      </trkpt>
      <trkpt lat="49.43164" lon="4.05712">
        <ele>107</ele>
        <time>2019-05-29T17:01:54Z</time>
      </trkpt>
      <trkpt lat="49.43161" lon="4.05723">
        <ele>106</ele>
        <time>2019-05-29T17:01:55Z</time>
      </trkpt>
      <trkpt lat="49.4316" lon="4.05734">
        <ele>106</ele>
        <time>2019-05-29T17:01:56Z</time>
      </trkpt>
      <trkpt lat="49.43158" lon="4.05746">
        <ele>106</ele>
        <time>2019-05-29T17:01:57Z</time>
      </trkpt>
      <trkpt lat="49.43156" lon="4.05756">
        <ele>106</ele>
        <time>2019-05-29T17:01:58Z</time>
      </trkpt>
      <trkpt lat="49.43153" lon="4.05768">
        <ele>106</ele>
        <time>2019-05-29T17:01:59Z</time>
      </trkpt>
      <trkpt lat="49.43151" lon="4.05778">
        <ele>105</ele>
        <time>2019-05-29T17:02:00Z</time>
      </trkpt>
      <trkpt lat="49.43149" lon="4.05789">
        <ele>106</ele>
        <time>2019-05-29T17:02:01Z</time>
      </trkpt>
      <trkpt lat="49.43147" lon="4.05801">
        <ele>106</ele>
        <time>2019-05-29T17:02:02Z</time>
      </trkpt>
      <trkpt lat="49.43144" lon="4.05812">
        <ele>106</ele>
        <time>2019-05-29T17:02:03Z</time>
      </trkpt>
      <trkpt lat="49.43142" lon="4.05823">
        <ele>106</ele>
        <time>2019-05-29T17:02:04Z</time>
      </trkpt>
      <trkpt lat="49.4314" lon="4.05834">
        <ele>106</ele>
        <time>2019-05-29T17:02:05Z</time>
      </trkpt>
      <trkpt lat="49.43138" lon="4.05845">
        <ele>106</ele>
        <time>2019-05-29T17:02:06Z</time>
      </trkpt>
      <trkpt lat="49.43136" lon="4.05856">
        <ele>106</ele>
        <time>2019-05-29T17:02:07Z</time>
      </trkpt>
      <trkpt lat="49.43134" lon="4.05867">
        <ele>106</ele>
        <time>2019-05-29T17:02:08Z</time>
      </trkpt>
      <trkpt lat="49.43132" lon="4.05877">
        <ele>107</ele>
        <time>2019-05-29T17:02:09Z</time>
      </trkpt>
      <trkpt lat="49.4313" lon="4.05887">
        <ele>107</ele>
        <time>2019-05-29T17:02:10Z</time>
      </trkpt>
      <trkpt lat="49.43128" lon="4.05898">
        <ele>107</ele>
        <time>2019-05-29T17:02:11Z</time>
      </trkpt>
      <trkpt lat="49.43126" lon="4.05908">
        <ele>107</ele>
        <time>2019-05-29T17:02:12Z</time>
      </trkpt>
      <trkpt lat="49.43124" lon="4.05919">
        <ele>108</ele>
        <time>2019-05-29T17:02:13Z</time>
      </trkpt>
      <trkpt lat="49.43122" lon="4.05929">
        <ele>108</ele>
        <time>2019-05-29T17:02:14Z</time>
      </trkpt>
      <trkpt lat="49.4312" lon="4.0594">
        <ele>108</ele>
        <time>2019-05-29T17:02:15Z</time>
      </trkpt>
      <trkpt lat="49.43118" lon="4.0595">
        <ele>108</ele>
        <time>2019-05-29T17:02:16Z</time>
      </trkpt>
      <trkpt lat="49.43116" lon="4.0596">
        <ele>108</ele>
        <time>2019-05-29T17:02:17Z</time>
      </trkpt>
      <trkpt lat="49.43114" lon="4.0597">
        <ele>108</ele>
        <time>2019-05-29T17:02:18Z</time>
      </trkpt>
      <trkpt lat="49.43112" lon="4.05979">
        <ele>108</ele>
        <time>2019-05-29T17:02:19Z</time>
      </trkpt>
      <trkpt lat="49.4311" lon="4.05988">
        <ele>109</ele>
        <time>2019-05-29T17:02:20Z</time>
      </trkpt>
      <trkpt lat="49.43108" lon="4.05998">
        <ele>108</ele>
        <time>2019-05-29T17:02:21Z</time>
      </trkpt>
      <trkpt lat="49.43106" lon="4.06006">
        <ele>109</ele>
        <time>2019-05-29T17:02:22Z</time>
      </trkpt>
      <trkpt lat="49.43104" lon="4.06014">
        <ele>109</ele>
        <time>2019-05-29T17:02:23Z</time>
      </trkpt>
      <trkpt lat="49.43102" lon="4.06023">
        <ele>109</ele>
        <time>2019-05-29T17:02:24Z</time>
      </trkpt>
      <trkpt lat="49.43101" lon="4.06032">
        <ele>110</ele>
        <time>2019-05-29T17:02:25Z</time>
      </trkpt>
      <trkpt lat="49.43099" lon="4.06041">
        <ele>110</ele>
        <time>2019-05-29T17:02:26Z</time>
      </trkpt>
      <trkpt lat="49.43097" lon="4.0605">
        <ele>109</ele>
        <time>2019-05-29T17:02:27Z</time>
      </trkpt>
      <trkpt lat="49.43095" lon="4.06059">
        <ele>109</ele>
        <time>2019-05-29T17:02:28Z</time>
      </trkpt>
      <trkpt lat="49.43093" lon="4.06067">
        <ele>109</ele>
        <time>2019-05-29T17:02:29Z</time>
      </trkpt>
      <trkpt lat="49.43091" lon="4.06076">
        <ele>110</ele>
        <time>2019-05-29T17:02:30Z</time>
      </trkpt>
      <trkpt lat="49.43089" lon="4.06084">
        <ele>110</ele>
        <time>2019-05-29T17:02:31Z</time>
      </trkpt>
      <trkpt lat="49.43087" lon="4.06093">
        <ele>110</ele>
        <time>2019-05-29T17:02:32Z</time>
      </trkpt>
      <trkpt lat="49.43085" lon="4.06101">
        <ele>110</ele>
        <time>2019-05-29T17:02:33Z</time>
      </trkpt>
      <trkpt lat="49.43083" lon="4.06109">
        <ele>110</ele>
        <time>2019-05-29T17:02:34Z</time>
      </trkpt>
      <trkpt lat="49.43081" lon="4.06117">
        <ele>111</ele>
        <time>2019-05-29T17:02:35Z</time>
      </trkpt>
      <trkpt lat="49.43078" lon="4.06125">
        <ele>111</ele>
        <time>2019-05-29T17:02:36Z</time>
      </trkpt>
      <trkpt lat="49.43076" lon="4.06134">
        <ele>111</ele>
        <time>2019-05-29T17:02:37Z</time>
      </trkpt>
      <trkpt lat="49.43073" lon="4.06142">
        <ele>111</ele>
        <time>2019-05-29T17:02:38Z</time>
      </trkpt>
      <trkpt lat="49.43071" lon="4.06151">
        <ele>111</ele>
        <time>2019-05-29T17:02:39Z</time>
      </trkpt>
      <trkpt lat="49.43068" lon="4.06159">
        <ele>112</ele>
        <time>2019-05-29T17:02:40Z</time>
      </trkpt>
      <trkpt lat="49.43065" lon="4.06168">
        <ele>112</ele>
        <time>2019-05-29T17:02:41Z</time>
      </trkpt>
      <trkpt lat="49.43062" lon="4.06176">
        <ele>112</ele>
        <time>2019-05-29T17:02:42Z</time>
      </trkpt>
      <trkpt lat="49.43059" lon="4.06185">
        <ele>112</ele>
        <time>2019-05-29T17:02:43Z</time>
      </trkpt>
      <trkpt lat="49.43055" lon="4.06193">
        <ele>112</ele>
        <time>2019-05-29T17:02:44Z</time>
      </trkpt>
      <trkpt lat="49.43051" lon="4.06201">
        <ele>112</ele>
        <time>2019-05-29T17:02:45Z</time>
      </trkpt>
      <trkpt lat="49.43048" lon="4.0621">
        <ele>112</ele>
        <time>2019-05-29T17:02:46Z</time>
      </trkpt>
      <trkpt lat="49.43043" lon="4.06219">
        <ele>112</ele>
        <time>2019-05-29T17:02:47Z</time>
      </trkpt>
      <trkpt lat="49.4304" lon="4.06227">
        <ele>111</ele>
        <time>2019-05-29T17:02:48Z</time>
      </trkpt>
      <trkpt lat="49.43035" lon="4.06235">
        <ele>111</ele>
        <time>2019-05-29T17:02:49Z</time>
      </trkpt>
      <trkpt lat="49.43031" lon="4.06243">
        <ele>112</ele>
        <time>2019-05-29T17:02:50Z</time>
      </trkpt>
      <trkpt lat="49.43027" lon="4.06251">
        <ele>112</ele>
        <time>2019-05-29T17:02:51Z</time>
      </trkpt>
      <trkpt lat="49.43023" lon="4.06259">
        <ele>112</ele>
        <time>2019-05-29T17:02:52Z</time>
      </trkpt>
      <trkpt lat="49.43018" lon="4.06267">
        <ele>112</ele>
        <time>2019-05-29T17:02:53Z</time>
      </trkpt>
      <trkpt lat="49.43014" lon="4.06276">
        <ele>111</ele>
        <time>2019-05-29T17:02:54Z</time>
      </trkpt>
      <trkpt lat="49.43009" lon="4.06284">
        <ele>111</ele>
        <time>2019-05-29T17:02:55Z</time>
      </trkpt>
      <trkpt lat="49.43005" lon="4.06293">
        <ele>111</ele>
        <time>2019-05-29T17:02:56Z</time>
      </trkpt>
      <trkpt lat="49.43001" lon="4.06302">
        <ele>111</ele>
        <time>2019-05-29T17:02:57Z</time>
      </trkpt>
      <trkpt lat="49.42996" lon="4.06311">
        <ele>111</ele>
        <time>2019-05-29T17:02:58Z</time>
      </trkpt>
      <trkpt lat="49.42991" lon="4.0632">
        <ele>111</ele>
        <time>2019-05-29T17:02:59Z</time>
      </trkpt>
      <trkpt lat="49.42986" lon="4.06329">
        <ele>111</ele>
        <time>2019-05-29T17:03:00Z</time>
      </trkpt>
      <trkpt lat="49.42982" lon="4.06338">
        <ele>111</ele>
        <time>2019-05-29T17:03:01Z</time>
      </trkpt>
      <trkpt lat="49.42977" lon="4.06348">
        <ele>111</ele>
        <time>2019-05-29T17:03:02Z</time>
      </trkpt>
      <trkpt lat="49.42972" lon="4.06358">
        <ele>111</ele>
        <time>2019-05-29T17:03:03Z</time>
      </trkpt>
      <trkpt lat="49.42968" lon="4.06368">
        <ele>111</ele>
        <time>2019-05-29T17:03:04Z</time>
      </trkpt>
      <trkpt lat="49.42962" lon="4.06378">
        <ele>110</ele>
        <time>2019-05-29T17:03:05Z</time>
      </trkpt>
      <trkpt lat="49.42958" lon="4.06387">
        <ele>110</ele>
        <time>2019-05-29T17:03:06Z</time>
      </trkpt>
      <trkpt lat="49.42952" lon="4.06398">
        <ele>110</ele>
        <time>2019-05-29T17:03:07Z</time>
      </trkpt>
      <trkpt lat="49.42947" lon="4.06407">
        <ele>110</ele>
        <time>2019-05-29T17:03:08Z</time>
      </trkpt>
      <trkpt lat="49.42942" lon="4.06417">
        <ele>110</ele>
        <time>2019-05-29T17:03:09Z</time>
      </trkpt>
      <trkpt lat="49.42937" lon="4.06427">
        <ele>110</ele>
        <time>2019-05-29T17:03:10Z</time>
      </trkpt>
      <trkpt lat="49.42932" lon="4.06437">
        <ele>110</ele>
        <time>2019-05-29T17:03:11Z</time>
      </trkpt>
      <trkpt lat="49.42926" lon="4.06448">
        <ele>110</ele>
        <time>2019-05-29T17:03:12Z</time>
      </trkpt>
      <trkpt lat="49.42921" lon="4.06458">
        <ele>110</ele>
        <time>2019-05-29T17:03:13Z</time>
      </trkpt>
      <trkpt lat="49.42916" lon="4.06468">
        <ele>110</ele>
        <time>2019-05-29T17:03:14Z</time>
      </trkpt>
      <trkpt lat="49.42911" lon="4.06478">
        <ele>110</ele>
        <time>2019-05-29T17:03:15Z</time>
      </trkpt>
      <trkpt lat="49.42905" lon="4.06488">
        <ele>110</ele>
        <time>2019-05-29T17:03:16Z</time>
      </trkpt>
      <trkpt lat="49.429" lon="4.06498">
        <ele>110</ele>
        <time>2019-05-29T17:03:17Z</time>
      </trkpt>
      <trkpt lat="49.42895" lon="4.06508">
        <ele>110</ele>
        <time>2019-05-29T17:03:18Z</time>
      </trkpt>
      <trkpt lat="49.4289" lon="4.06518">
        <ele>109</ele>
        <time>2019-05-29T17:03:19Z</time>
      </trkpt>
      <trkpt lat="49.42885" lon="4.06527">
        <ele>109</ele>
        <time>2019-05-29T17:03:20Z</time>
      </trkpt>
      <trkpt lat="49.42879" lon="4.06538">
        <ele>109</ele>
        <time>2019-05-29T17:03:21Z</time>
      </trkpt>
      <trkpt lat="49.42874" lon="4.06547">
        <ele>109</ele>
        <time>2019-05-29T17:03:22Z</time>
      </trkpt>
      <trkpt lat="49.42869" lon="4.06558">
        <ele>109</ele>
        <time>2019-05-29T17:03:23Z</time>
      </trkpt>
      <trkpt lat="49.42864" lon="4.06568">
        <ele>109</ele>
        <time>2019-05-29T17:03:24Z</time>
      </trkpt>
      <trkpt lat="49.42858" lon="4.06579">
        <ele>109</ele>
        <time>2019-05-29T17:03:25Z</time>
      </trkpt>
      <trkpt lat="49.42853" lon="4.06589">
        <ele>109</ele>
        <time>2019-05-29T17:03:26Z</time>
      </trkpt>
      <trkpt lat="49.42848" lon="4.06599">
        <ele>109</ele>
        <time>2019-05-29T17:03:27Z</time>
      </trkpt>
      <trkpt lat="49.42842" lon="4.0661">
        <ele>109</ele>
        <time>2019-05-29T17:03:28Z</time>
      </trkpt>
      <trkpt lat="49.42836" lon="4.0662">
        <ele>109</ele>
        <time>2019-05-29T17:03:29Z</time>
      </trkpt>
      <trkpt lat="49.42831" lon="4.06631">
        <ele>108</ele>
        <time>2019-05-29T17:03:30Z</time>
      </trkpt>
      <trkpt lat="49.42825" lon="4.06642">
        <ele>108</ele>
        <time>2019-05-29T17:03:31Z</time>
      </trkpt>
      <trkpt lat="49.4282" lon="4.06653">
        <ele>108</ele>
        <time>2019-05-29T17:03:32Z</time>
      </trkpt>
      <trkpt lat="49.42814" lon="4.06663">
        <ele>108</ele>
        <time>2019-05-29T17:03:33Z</time>
      </trkpt>
      <trkpt lat="49.42809" lon="4.06674">
        <ele>108</ele>
        <time>2019-05-29T17:03:34Z</time>
      </trkpt>
      <trkpt lat="49.42803" lon="4.06684">
        <ele>108</ele>
        <time>2019-05-29T17:03:35Z</time>
      </trkpt>
      <trkpt lat="49.42798" lon="4.06695">
        <ele>108</ele>
        <time>2019-05-29T17:03:36Z</time>
      </trkpt>
      <trkpt lat="49.42793" lon="4.06706">
        <ele>108</ele>
        <time>2019-05-29T17:03:37Z</time>
      </trkpt>
      <trkpt lat="49.42788" lon="4.06716">
        <ele>108</ele>
        <time>2019-05-29T17:03:38Z</time>
      </trkpt>
      <trkpt lat="49.42784" lon="4.06728">
        <ele>108</ele>
        <time>2019-05-29T17:03:39Z</time>
      </trkpt>
      <trkpt lat="49.4278" lon="4.06739">
        <ele>108</ele>
        <time>2019-05-29T17:03:40Z</time>
      </trkpt>
      <trkpt lat="49.42776" lon="4.06751">
        <ele>108</ele>
        <time>2019-05-29T17:03:41Z</time>
      </trkpt>
      <trkpt lat="49.42773" lon="4.06763">
        <ele>108</ele>
        <time>2019-05-29T17:03:42Z</time>
      </trkpt>
      <trkpt lat="49.42769" lon="4.06775">
        <ele>108</ele>
        <time>2019-05-29T17:03:43Z</time>
      </trkpt>
      <trkpt lat="49.42766" lon="4.06786">
        <ele>108</ele>
        <time>2019-05-29T17:03:44Z</time>
      </trkpt>
      <trkpt lat="49.42763" lon="4.06798">
        <ele>108</ele>
        <time>2019-05-29T17:03:45Z</time>
      </trkpt>
      <trkpt lat="49.4276" lon="4.06809">
        <ele>108</ele>
        <time>2019-05-29T17:03:46Z</time>
      </trkpt>
      <trkpt lat="49.42757" lon="4.06819">
        <ele>108</ele>
        <time>2019-05-29T17:03:47Z</time>
      </trkpt>
      <trkpt lat="49.42754" lon="4.0683">
        <ele>108</ele>
        <time>2019-05-29T17:03:48Z</time>
      </trkpt>
      <trkpt lat="49.42751" lon="4.06842">
        <ele>108</ele>
        <time>2019-05-29T17:03:49Z</time>
      </trkpt>
      <trkpt lat="49.42748" lon="4.06853">
        <ele>108</ele>
        <time>2019-05-29T17:03:50Z</time>
      </trkpt>
      <trkpt lat="49.42745" lon="4.06864">
        <ele>108</ele>
        <time>2019-05-29T17:03:51Z</time>
      </trkpt>
      <trkpt lat="49.42742" lon="4.06876">
        <ele>108</ele>
        <time>2019-05-29T17:03:52Z</time>
      </trkpt>
      <trkpt lat="49.42739" lon="4.06887">
        <ele>108</ele>
        <time>2019-05-29T17:03:53Z</time>
      </trkpt>
      <trkpt lat="49.42736" lon="4.06898">
        <ele>108</ele>
        <time>2019-05-29T17:03:54Z</time>
      </trkpt>
      <trkpt lat="49.42733" lon="4.06909">
        <ele>108</ele>
        <time>2019-05-29T17:03:55Z</time>
      </trkpt>
      <trkpt lat="49.4273" lon="4.0692">
        <ele>108</ele>
        <time>2019-05-29T17:03:56Z</time>
      </trkpt>
      <trkpt lat="49.42727" lon="4.06931">
        <ele>108</ele>
        <time>2019-05-29T17:03:57Z</time>
      </trkpt>
      <trkpt lat="49.42724" lon="4.06942">
        <ele>108</ele>
        <time>2019-05-29T17:03:58Z</time>
      </trkpt>
      <trkpt lat="49.42721" lon="4.06953">
        <ele>108</ele>
        <time>2019-05-29T17:03:59Z</time>
      </trkpt>
      <trkpt lat="49.42718" lon="4.06964">
        <ele>108</ele>
        <time>2019-05-29T17:04:00Z</time>
      </trkpt>
      <trkpt lat="49.42715" lon="4.06975">
        <ele>108</ele>
        <time>2019-05-29T17:04:01Z</time>
      </trkpt>
      <trkpt lat="49.42713" lon="4.06986">
        <ele>108</ele>
        <time>2019-05-29T17:04:02Z</time>
      </trkpt>
      <trkpt lat="49.4271" lon="4.06997">
        <ele>108</ele>
        <time>2019-05-29T17:04:03Z</time>
      </trkpt>
      <trkpt lat="49.42707" lon="4.07009">
        <ele>108</ele>
        <time>2019-05-29T17:04:04Z</time>
      </trkpt>
      <trkpt lat="49.42703" lon="4.0702">
        <ele>108</ele>
        <time>2019-05-29T17:04:05Z</time>
      </trkpt>
      <trkpt lat="49.427" lon="4.07031">
        <ele>108</ele>
        <time>2019-05-29T17:04:06Z</time>
      </trkpt>
      <trkpt lat="49.42697" lon="4.07042">
        <ele>108</ele>
        <time>2019-05-29T17:04:07Z</time>
      </trkpt>
      <trkpt lat="49.42694" lon="4.07054">
        <ele>109</ele>
        <time>2019-05-29T17:04:08Z</time>
      </trkpt>
      <trkpt lat="49.42691" lon="4.07066">
        <ele>109</ele>
        <time>2019-05-29T17:04:09Z</time>
      </trkpt>
      <trkpt lat="49.42688" lon="4.07078">
        <ele>109</ele>
        <time>2019-05-29T17:04:10Z</time>
      </trkpt>
      <trkpt lat="49.42685" lon="4.0709">
        <ele>109</ele>
        <time>2019-05-29T17:04:11Z</time>
      </trkpt>
      <trkpt lat="49.42682" lon="4.07101">
        <ele>109</ele>
        <time>2019-05-29T17:04:12Z</time>
      </trkpt>
      <trkpt lat="49.42679" lon="4.07113">
        <ele>109</ele>
        <time>2019-05-29T17:04:13Z</time>
      </trkpt>
      <trkpt lat="49.42676" lon="4.07125">
        <ele>109</ele>
        <time>2019-05-29T17:04:14Z</time>
      </trkpt>
      <trkpt lat="49.42673" lon="4.07136">
        <ele>109</ele>
        <time>2019-05-29T17:04:15Z</time>
      </trkpt>
      <trkpt lat="49.4267" lon="4.07148">
        <ele>109</ele>
        <time>2019-05-29T17:04:16Z</time>
      </trkpt>
      <trkpt lat="49.42667" lon="4.07159">
        <ele>109</ele>
        <time>2019-05-29T17:04:17Z</time>
      </trkpt>
      <trkpt lat="49.42665" lon="4.07171">
        <ele>109</ele>
        <time>2019-05-29T17:04:18Z</time>
      </trkpt>
      <trkpt lat="49.42663" lon="4.07184">
        <ele>109</ele>
        <time>2019-05-29T17:04:19Z</time>
      </trkpt>
      <trkpt lat="49.42661" lon="4.07195">
        <ele>109</ele>
        <time>2019-05-29T17:04:20Z</time>
      </trkpt>
      <trkpt lat="49.4266" lon="4.07207">
        <ele>109</ele>
        <time>2019-05-29T17:04:21Z</time>
      </trkpt>
      <trkpt lat="49.42658" lon="4.07218">
        <ele>109</ele>
        <time>2019-05-29T17:04:22Z</time>
      </trkpt>
      <trkpt lat="49.42657" lon="4.0723">
        <ele>109</ele>
        <time>2019-05-29T17:04:23Z</time>
      </trkpt>
      <trkpt lat="49.42655" lon="4.07242">
        <ele>109</ele>
        <time>2019-05-29T17:04:24Z</time>
      </trkpt>
      <trkpt lat="49.42654" lon="4.07254">
        <ele>108</ele>
        <time>2019-05-29T17:04:25Z</time>
      </trkpt>
      <trkpt lat="49.42652" lon="4.07267">
        <ele>108</ele>
        <time>2019-05-29T17:04:26Z</time>
      </trkpt>
      <trkpt lat="49.42651" lon="4.07279">
        <ele>108</ele>
        <time>2019-05-29T17:04:27Z</time>
      </trkpt>
      <trkpt lat="49.4265" lon="4.07291">
        <ele>108</ele>
        <time>2019-05-29T17:04:28Z</time>
      </trkpt>
      <trkpt lat="49.42648" lon="4.07304">
        <ele>108</ele>
        <time>2019-05-29T17:04:29Z</time>
      </trkpt>
      <trkpt lat="49.42647" lon="4.07315">
        <ele>109</ele>
        <time>2019-05-29T17:04:30Z</time>
      </trkpt>
      <trkpt lat="49.42645" lon="4.07327">
        <ele>109</ele>
        <time>2019-05-29T17:04:31Z</time>
      </trkpt>
      <trkpt lat="49.42644" lon="4.07338">
        <ele>109</ele>
        <time>2019-05-29T17:04:32Z</time>
      </trkpt>
      <trkpt lat="49.42643" lon="4.0735">
        <ele>109</ele>
        <time>2019-05-29T17:04:33Z</time>
      </trkpt>
      <trkpt lat="49.42642" lon="4.07361">
        <ele>109</ele>
        <time>2019-05-29T17:04:34Z</time>
      </trkpt>
      <trkpt lat="49.4264" lon="4.07372">
        <ele>109</ele>
        <time>2019-05-29T17:04:35Z</time>
      </trkpt>
      <trkpt lat="49.42639" lon="4.07383">
        <ele>109</ele>
        <time>2019-05-29T17:04:36Z</time>
      </trkpt>
      <trkpt lat="49.42638" lon="4.07394">
        <ele>109</ele>
        <time>2019-05-29T17:04:37Z</time>
      </trkpt>
      <trkpt lat="49.42636" lon="4.07405">
        <ele>109</ele>
        <time>2019-05-29T17:04:38Z</time>
      </trkpt>
      <trkpt lat="49.42635" lon="4.07416">
        <ele>109</ele>
        <time>2019-05-29T17:04:39Z</time>
      </trkpt>
      <trkpt lat="49.42634" lon="4.07427">
        <ele>110</ele>
        <time>2019-05-29T17:04:40Z</time>
      </trkpt>
      <trkpt lat="49.42632" lon="4.07438">
        <ele>110</ele>
        <time>2019-05-29T17:04:41Z</time>
      </trkpt>
      <trkpt lat="49.42631" lon="4.07449">
        <ele>110</ele>
        <time>2019-05-29T17:04:42Z</time>
      </trkpt>
      <trkpt lat="49.42629" lon="4.07459">
        <ele>110</ele>
        <time>2019-05-29T17:04:43Z</time>
      </trkpt>
      <trkpt lat="49.42628" lon="4.0747">
        <ele>110</ele>
        <time>2019-05-29T17:04:44Z</time>
      </trkpt>
      <trkpt lat="49.42627" lon="4.07481">
        <ele>110</ele>
        <time>2019-05-29T17:04:45Z</time>
      </trkpt>
      <trkpt lat="49.42626" lon="4.07491">
        <ele>110</ele>
        <time>2019-05-29T17:04:46Z</time>
      </trkpt>
      <trkpt lat="49.42624" lon="4.07502">
        <ele>110</ele>
        <time>2019-05-29T17:04:47Z</time>
      </trkpt>
      <trkpt lat="49.42623" lon="4.07513">
        <ele>110</ele>
        <time>2019-05-29T17:04:48Z</time>
      </trkpt>
      <trkpt lat="49.42622" lon="4.07524">
        <ele>110</ele>
        <time>2019-05-29T17:04:49Z</time>
      </trkpt>
      <trkpt lat="49.4262" lon="4.07534">
        <ele>110</ele>
        <time>2019-05-29T17:04:50Z</time>
      </trkpt>
      <trkpt lat="49.42619" lon="4.07545">
        <ele>111</ele>
        <time>2019-05-29T17:04:51Z</time>
      </trkpt>
      <trkpt lat="49.42618" lon="4.07556">
        <ele>110</ele>
        <time>2019-05-29T17:04:52Z</time>
      </trkpt>
      <trkpt lat="49.42617" lon="4.07567">
        <ele>110</ele>
        <time>2019-05-29T17:04:53Z</time>
      </trkpt>
      <trkpt lat="49.42616" lon="4.07578">
        <ele>110</ele>
        <time>2019-05-29T17:04:54Z</time>
      </trkpt>
      <trkpt lat="49.42614" lon="4.07588">
        <ele>110</ele>
        <time>2019-05-29T17:04:55Z</time>
      </trkpt>
      <trkpt lat="49.42613" lon="4.07599">
        <ele>111</ele>
        <time>2019-05-29T17:04:56Z</time>
      </trkpt>
      <trkpt lat="49.42611" lon="4.0761">
        <ele>111</ele>
        <time>2019-05-29T17:04:57Z</time>
      </trkpt>
      <trkpt lat="49.4261" lon="4.0762">
        <ele>111</ele>
        <time>2019-05-29T17:04:58Z</time>
      </trkpt>
      <trkpt lat="49.42608" lon="4.07631">
        <ele>111</ele>
        <time>2019-05-29T17:04:59Z</time>
      </trkpt>
      <trkpt lat="49.42607" lon="4.07642">
        <ele>111</ele>
        <time>2019-05-29T17:05:00Z</time>
      </trkpt>
      <trkpt lat="49.42605" lon="4.07653">
        <ele>110</ele>
        <time>2019-05-29T17:05:01Z</time>
      </trkpt>
      <trkpt lat="49.42604" lon="4.07664">
        <ele>111</ele>
        <time>2019-05-29T17:05:02Z</time>
      </trkpt>
      <trkpt lat="49.42602" lon="4.07675">
        <ele>111</ele>
        <time>2019-05-29T17:05:03Z</time>
      </trkpt>
      <trkpt lat="49.42601" lon="4.07686">
        <ele>111</ele>
        <time>2019-05-29T17:05:04Z</time>
      </trkpt>
      <trkpt lat="49.42599" lon="4.07697">
        <ele>111</ele>
        <time>2019-05-29T17:05:05Z</time>
      </trkpt>
      <trkpt lat="49.42597" lon="4.07708">
        <ele>111</ele>
        <time>2019-05-29T17:05:06Z</time>
      </trkpt>
      <trkpt lat="49.42595" lon="4.07719">
        <ele>111</ele>
        <time>2019-05-29T17:05:07Z</time>
      </trkpt>
      <trkpt lat="49.42593" lon="4.0773">
        <ele>111</ele>
        <time>2019-05-29T17:05:08Z</time>
      </trkpt>
      <trkpt lat="49.4259" lon="4.07741">
        <ele>111</ele>
        <time>2019-05-29T17:05:09Z</time>
      </trkpt>
      <trkpt lat="49.42588" lon="4.07752">
        <ele>111</ele>
        <time>2019-05-29T17:05:10Z</time>
      </trkpt>
      <trkpt lat="49.42586" lon="4.07762">
        <ele>111</ele>
        <time>2019-05-29T17:05:11Z</time>
      </trkpt>
      <trkpt lat="49.42584" lon="4.07773">
        <ele>111</ele>
        <time>2019-05-29T17:05:12Z</time>
      </trkpt>
      <trkpt lat="49.42582" lon="4.07784">
        <ele>111</ele>
        <time>2019-05-29T17:05:13Z</time>
      </trkpt>
      <trkpt lat="49.42579" lon="4.07795">
        <ele>111</ele>
        <time>2019-05-29T17:05:14Z</time>
      </trkpt>
      <trkpt lat="49.42577" lon="4.07805">
        <ele>111</ele>
        <time>2019-05-29T17:05:15Z</time>
      </trkpt>
      <trkpt lat="49.42574" lon="4.07815">
        <ele>111</ele>
        <time>2019-05-29T17:05:16Z</time>
      </trkpt>
      <trkpt lat="49.42572" lon="4.07826">
        <ele>112</ele>
        <time>2019-05-29T17:05:17Z</time>
      </trkpt>
      <trkpt lat="49.42569" lon="4.07836">
        <ele>111</ele>
        <time>2019-05-29T17:05:18Z</time>
      </trkpt>
      <trkpt lat="49.42567" lon="4.07847">
        <ele>112</ele>
        <time>2019-05-29T17:05:19Z</time>
      </trkpt>
      <trkpt lat="49.42564" lon="4.07857">
        <ele>112</ele>
        <time>2019-05-29T17:05:20Z</time>
      </trkpt>
      <trkpt lat="49.42561" lon="4.07868">
        <ele>112</ele>
        <time>2019-05-29T17:05:21Z</time>
      </trkpt>
      <trkpt lat="49.42559" lon="4.07879">
        <ele>111</ele>
        <time>2019-05-29T17:05:22Z</time>
      </trkpt>
      <trkpt lat="49.42556" lon="4.0789">
        <ele>111</ele>
        <time>2019-05-29T17:05:23Z</time>
      </trkpt>
      <trkpt lat="49.42553" lon="4.07901">
        <ele>111</ele>
        <time>2019-05-29T17:05:24Z</time>
      </trkpt>
      <trkpt lat="49.42551" lon="4.07912">
        <ele>111</ele>
        <time>2019-05-29T17:05:25Z</time>
      </trkpt>
      <trkpt lat="49.42548" lon="4.07924">
        <ele>111</ele>
        <time>2019-05-29T17:05:26Z</time>
      </trkpt>
      <trkpt lat="49.42546" lon="4.07934">
        <ele>111</ele>
        <time>2019-05-29T17:05:27Z</time>
      </trkpt>
      <trkpt lat="49.42543" lon="4.07945">
        <ele>110</ele>
        <time>2019-05-29T17:05:28Z</time>
      </trkpt>
      <trkpt lat="49.4254" lon="4.07957">
        <ele>111</ele>
        <time>2019-05-29T17:05:29Z</time>
      </trkpt>
      <trkpt lat="49.42537" lon="4.07968">
        <ele>111</ele>
        <time>2019-05-29T17:05:30Z</time>
      </trkpt>
      <trkpt lat="49.42535" lon="4.07979">
        <ele>111</ele>
        <time>2019-05-29T17:05:31Z</time>
      </trkpt>
      <trkpt lat="49.42532" lon="4.0799">
        <ele>111</ele>
        <time>2019-05-29T17:05:32Z</time>
      </trkpt>
      <trkpt lat="49.42529" lon="4.08001">
        <ele>111</ele>
        <time>2019-05-29T17:05:33Z</time>
      </trkpt>
      <trkpt lat="49.42526" lon="4.08012">
        <ele>111</ele>
        <time>2019-05-29T17:05:34Z</time>
      </trkpt>
      <trkpt lat="49.42523" lon="4.08023">
        <ele>111</ele>
        <time>2019-05-29T17:05:35Z</time>
      </trkpt>
      <trkpt lat="49.4252" lon="4.08033">
        <ele>111</ele>
        <time>2019-05-29T17:05:36Z</time>
      </trkpt>
      <trkpt lat="49.42517" lon="4.08044">
        <ele>111</ele>
        <time>2019-05-29T17:05:37Z</time>
      </trkpt>
      <trkpt lat="49.42514" lon="4.08055">
        <ele>111</ele>
        <time>2019-05-29T17:05:38Z</time>
      </trkpt>
      <trkpt lat="49.42511" lon="4.08065">
        <ele>111</ele>
        <time>2019-05-29T17:05:39Z</time>
      </trkpt>
      <trkpt lat="49.42507" lon="4.08075">
        <ele>111</ele>
        <time>2019-05-29T17:05:40Z</time>
      </trkpt>
      <trkpt lat="49.42503" lon="4.08085">
        <ele>111</ele>
        <time>2019-05-29T17:05:41Z</time>
      </trkpt>
      <trkpt lat="49.42499" lon="4.08096">
        <ele>111</ele>
        <time>2019-05-29T17:05:42Z</time>
      </trkpt>
      <trkpt lat="49.42496" lon="4.08107">
        <ele>111</ele>
        <time>2019-05-29T17:05:43Z</time>
      </trkpt>
      <trkpt lat="49.42492" lon="4.08118">
        <ele>111</ele>
        <time>2019-05-29T17:05:44Z</time>
      </trkpt>
      <trkpt lat="49.42489" lon="4.08128">
        <ele>111</ele>
        <time>2019-05-29T17:05:45Z</time>
      </trkpt>
      <trkpt lat="49.42485" lon="4.08138">
        <ele>111</ele>
        <time>2019-05-29T17:05:46Z</time>
      </trkpt>
      <trkpt lat="49.42481" lon="4.08147">
        <ele>111</ele>
        <time>2019-05-29T17:05:47Z</time>
      </trkpt>
      <trkpt lat="49.42478" lon="4.08157">
        <ele>111</ele>
        <time>2019-05-29T17:05:48Z</time>
      </trkpt>
      <trkpt lat="49.42475" lon="4.08167">
        <ele>111</ele>
        <time>2019-05-29T17:05:49Z</time>
      </trkpt>
      <trkpt lat="49.42472" lon="4.08176">
        <ele>111</ele>
        <time>2019-05-29T17:05:50Z</time>
      </trkpt>
      <trkpt lat="49.42468" lon="4.08185">
        <ele>112</ele>
        <time>2019-05-29T17:05:51Z</time>
      </trkpt>
      <trkpt lat="49.42465" lon="4.08195">
        <ele>112</ele>
        <time>2019-05-29T17:05:52Z</time>
      </trkpt>
      <trkpt lat="49.42462" lon="4.08204">
        <ele>112</ele>
        <time>2019-05-29T17:05:53Z</time>
      </trkpt>
      <trkpt lat="49.42459" lon="4.08214">
        <ele>112</ele>
        <time>2019-05-29T17:05:54Z</time>
      </trkpt>
      <trkpt lat="49.42456" lon="4.08224">
        <ele>112</ele>
        <time>2019-05-29T17:05:55Z</time>
      </trkpt>
      <trkpt lat="49.42454" lon="4.08234">
        <ele>112</ele>
        <time>2019-05-29T17:05:56Z</time>
      </trkpt>
      <trkpt lat="49.42451" lon="4.08244">
        <ele>112</ele>
        <time>2019-05-29T17:05:57Z</time>
      </trkpt>
      <trkpt lat="49.42448" lon="4.08254">
        <ele>112</ele>
        <time>2019-05-29T17:05:58Z</time>
      </trkpt>
      <trkpt lat="49.42446" lon="4.08264">
        <ele>112</ele>
        <time>2019-05-29T17:05:59Z</time>
      </trkpt>
      <trkpt lat="49.42443" lon="4.08274">
        <ele>112</ele>
        <time>2019-05-29T17:06:00Z</time>
      </trkpt>
      <trkpt lat="49.42441" lon="4.08285">
        <ele>112</ele>
        <time>2019-05-29T17:06:01Z</time>
      </trkpt>
      <trkpt lat="49.42439" lon="4.08296">
        <ele>112</ele>
        <time>2019-05-29T17:06:02Z</time>
      </trkpt>
      <trkpt lat="49.42437" lon="4.08307">
        <ele>112</ele>
        <time>2019-05-29T17:06:03Z</time>
      </trkpt>
      <trkpt lat="49.42434" lon="4.08318">
        <ele>112</ele>
        <time>2019-05-29T17:06:04Z</time>
      </trkpt>
      <trkpt lat="49.42432" lon="4.08329">
        <ele>112</ele>
        <time>2019-05-29T17:06:05Z</time>
      </trkpt>
      <trkpt lat="49.4243" lon="4.08339">
        <ele>112</ele>
        <time>2019-05-29T17:06:06Z</time>
      </trkpt>
      <trkpt lat="49.42428" lon="4.0835">
        <ele>112</ele>
        <time>2019-05-29T17:06:07Z</time>
      </trkpt>
      <trkpt lat="49.42426" lon="4.08361">
        <ele>112</ele>
        <time>2019-05-29T17:06:08Z</time>
      </trkpt>
      <trkpt lat="49.42425" lon="4.08372">
        <ele>112</ele>
        <time>2019-05-29T17:06:09Z</time>
      </trkpt>
      <trkpt lat="49.42423" lon="4.08383">
        <ele>112</ele>
        <time>2019-05-29T17:06:10Z</time>
      </trkpt>
      <trkpt lat="49.42421" lon="4.08394">
        <ele>112</ele>
        <time>2019-05-29T17:06:11Z</time>
      </trkpt>
      <trkpt lat="49.42418" lon="4.08405">
        <ele>111</ele>
        <time>2019-05-29T17:06:12Z</time>
      </trkpt>
      <trkpt lat="49.42416" lon="4.08416">
        <ele>111</ele>
        <time>2019-05-29T17:06:13Z</time>
      </trkpt>
      <trkpt lat="49.42414" lon="4.08426">
        <ele>111</ele>
        <time>2019-05-29T17:06:14Z</time>
      </trkpt>
      <trkpt lat="49.42412" lon="4.08437">
        <ele>111</ele>
        <time>2019-05-29T17:06:15Z</time>
      </trkpt>
      <trkpt lat="49.4241" lon="4.08447">
        <ele>111</ele>
        <time>2019-05-29T17:06:16Z</time>
      </trkpt>
      <trkpt lat="49.42408" lon="4.08458">
        <ele>111</ele>
        <time>2019-05-29T17:06:17Z</time>
      </trkpt>
      <trkpt lat="49.42407" lon="4.08468">
        <ele>111</ele>
        <time>2019-05-29T17:06:18Z</time>
      </trkpt>
      <trkpt lat="49.42405" lon="4.08478">
        <ele>111</ele>
        <time>2019-05-29T17:06:19Z</time>
      </trkpt>
      <trkpt lat="49.42403" lon="4.08488">
        <ele>111</ele>
        <time>2019-05-29T17:06:20Z</time>
      </trkpt>
      <trkpt lat="49.42401" lon="4.08499">
        <ele>111</ele>
        <time>2019-05-29T17:06:21Z</time>
      </trkpt>
      <trkpt lat="49.42399" lon="4.0851">
        <ele>111</ele>
        <time>2019-05-29T17:06:22Z</time>
      </trkpt>
      <trkpt lat="49.42397" lon="4.0852">
        <ele>111</ele>
        <time>2019-05-29T17:06:23Z</time>
      </trkpt>
      <trkpt lat="49.42395" lon="4.08531">
        <ele>111</ele>
        <time>2019-05-29T17:06:24Z</time>
      </trkpt>
      <trkpt lat="49.42393" lon="4.08542">
        <ele>111</ele>
        <time>2019-05-29T17:06:25Z</time>
      </trkpt>
      <trkpt lat="49.42392" lon="4.08553">
        <ele>111</ele>
        <time>2019-05-29T17:06:26Z</time>
      </trkpt>
      <trkpt lat="49.4239" lon="4.08564">
        <ele>111</ele>
        <time>2019-05-29T17:06:27Z</time>
      </trkpt>
      <trkpt lat="49.42388" lon="4.08575">
        <ele>111</ele>
        <time>2019-05-29T17:06:28Z</time>
      </trkpt>
      <trkpt lat="49.42386" lon="4.08585">
        <ele>111</ele>
        <time>2019-05-29T17:06:29Z</time>
      </trkpt>
      <trkpt lat="49.42384" lon="4.08594">
        <ele>111</ele>
        <time>2019-05-29T17:06:30Z</time>
      </trkpt>
      <trkpt lat="49.42383" lon="4.08604">
        <ele>111</ele>
        <time>2019-05-29T17:06:31Z</time>
      </trkpt>
      <trkpt lat="49.42381" lon="4.08614">
        <ele>111</ele>
        <time>2019-05-29T17:06:32Z</time>
      </trkpt>
      <trkpt lat="49.42379" lon="4.08624">
        <ele>111</ele>
        <time>2019-05-29T17:06:33Z</time>
      </trkpt>
      <trkpt lat="49.42377" lon="4.08634">
        <ele>111</ele>
        <time>2019-05-29T17:06:34Z</time>
      </trkpt>
      <trkpt lat="49.42375" lon="4.08644">
        <ele>111</ele>
        <time>2019-05-29T17:06:35Z</time>
      </trkpt>
      <trkpt lat="49.42373" lon="4.08653">
        <ele>110</ele>
        <time>2019-05-29T17:06:36Z</time>
      </trkpt>
      <trkpt lat="49.42372" lon="4.08664">
        <ele>111</ele>
        <time>2019-05-29T17:06:37Z</time>
      </trkpt>
      <trkpt lat="49.42369" lon="4.08674">
        <ele>111</ele>
        <time>2019-05-29T17:06:38Z</time>
      </trkpt>
      <trkpt lat="49.42368" lon="4.08684">
        <ele>111</ele>
        <time>2019-05-29T17:06:39Z</time>
      </trkpt>
      <trkpt lat="49.42366" lon="4.08695">
        <ele>110</ele>
        <time>2019-05-29T17:06:40Z</time>
      </trkpt>
      <trkpt lat="49.42365" lon="4.08705">
        <ele>111</ele>
        <time>2019-05-29T17:06:41Z</time>
      </trkpt>
      <trkpt lat="49.42364" lon="4.08715">
        <ele>111</ele>
        <time>2019-05-29T17:06:42Z</time>
      </trkpt>
      <trkpt lat="49.42364" lon="4.08726">
        <ele>110</ele>
        <time>2019-05-29T17:06:43Z</time>
      </trkpt>
      <trkpt lat="49.42363" lon="4.08737">
        <ele>110</ele>
        <time>2019-05-29T17:06:44Z</time>
      </trkpt>
      <trkpt lat="49.42362" lon="4.08748">
        <ele>110</ele>
        <time>2019-05-29T17:06:45Z</time>
      </trkpt>
      <trkpt lat="49.42361" lon="4.08759">
        <ele>110</ele>
        <time>2019-05-29T17:06:46Z</time>
      </trkpt>
      <trkpt lat="49.4236" lon="4.08769">
        <ele>110</ele>
        <time>2019-05-29T17:06:47Z</time>
      </trkpt>
      <trkpt lat="49.4236" lon="4.0878">
        <ele>110</ele>
        <time>2019-05-29T17:06:48Z</time>
      </trkpt>
      <trkpt lat="49.42359" lon="4.08791">
        <ele>110</ele>
        <time>2019-05-29T17:06:49Z</time>
      </trkpt>
      <trkpt lat="49.42358" lon="4.08802">
        <ele>110</ele>
        <time>2019-05-29T17:06:50Z</time>
      </trkpt>
      <trkpt lat="49.42358" lon="4.08813">
        <ele>110</ele>
        <time>2019-05-29T17:06:51Z</time>
      </trkpt>
      <trkpt lat="49.42357" lon="4.08825">
        <ele>110</ele>
        <time>2019-05-29T17:06:52Z</time>
      </trkpt>
      <trkpt lat="49.42357" lon="4.08837">
        <ele>110</ele>
        <time>2019-05-29T17:06:53Z</time>
      </trkpt>
      <trkpt lat="49.42356" lon="4.08849">
        <ele>110</ele>
        <time>2019-05-29T17:06:54Z</time>
      </trkpt>
      <trkpt lat="49.42355" lon="4.08861">
        <ele>110</ele>
        <time>2019-05-29T17:06:55Z</time>
      </trkpt>
      <trkpt lat="49.42354" lon="4.08873">
        <ele>110</ele>
        <time>2019-05-29T17:06:56Z</time>
      </trkpt>
      <trkpt lat="49.42353" lon="4.08885">
        <ele>110</ele>
        <time>2019-05-29T17:06:57Z</time>
      </trkpt>
      <trkpt lat="49.42353" lon="4.08896">
        <ele>109</ele>
        <time>2019-05-29T17:06:58Z</time>
      </trkpt>
      <trkpt lat="49.42352" lon="4.08908">
        <ele>109</ele>
        <time>2019-05-29T17:06:59Z</time>
      </trkpt>
      <trkpt lat="49.42351" lon="4.0892">
        <ele>109</ele>
        <time>2019-05-29T17:07:00Z</time>
      </trkpt>
      <trkpt lat="49.4235" lon="4.08931">
        <ele>109</ele>
        <time>2019-05-29T17:07:01Z</time>
      </trkpt>
      <trkpt lat="49.42349" lon="4.08943">
        <ele>110</ele>
        <time>2019-05-29T17:07:02Z</time>
      </trkpt>
      <trkpt lat="49.42349" lon="4.08954">
        <ele>110</ele>
        <time>2019-05-29T17:07:03Z</time>
      </trkpt>
      <trkpt lat="49.42348" lon="4.08966">
        <ele>110</ele>
        <time>2019-05-29T17:07:04Z</time>
      </trkpt>
      <trkpt lat="49.42347" lon="4.08978">
        <ele>110</ele>
        <time>2019-05-29T17:07:05Z</time>
      </trkpt>
      <trkpt lat="49.42346" lon="4.0899">
        <ele>110</ele>
        <time>2019-05-29T17:07:06Z</time>
      </trkpt>
      <trkpt lat="49.42346" lon="4.09002">
        <ele>110</ele>
        <time>2019-05-29T17:07:07Z</time>
      </trkpt>
      <trkpt lat="49.42345" lon="4.09014">
        <ele>110</ele>
        <time>2019-05-29T17:07:08Z</time>
      </trkpt>
      <trkpt lat="49.42344" lon="4.09025">
        <ele>110</ele>
        <time>2019-05-29T17:07:09Z</time>
      </trkpt>
      <trkpt lat="49.42343" lon="4.09037">
        <ele>110</ele>
        <time>2019-05-29T17:07:10Z</time>
      </trkpt>
      <trkpt lat="49.42342" lon="4.09049">
        <ele>110</ele>
        <time>2019-05-29T17:07:11Z</time>
      </trkpt>
      <trkpt lat="49.42341" lon="4.09061">
        <ele>110</ele>
        <time>2019-05-29T17:07:12Z</time>
      </trkpt>
      <trkpt lat="49.4234" lon="4.09073">
        <ele>110</ele>
        <time>2019-05-29T17:07:13Z</time>
      </trkpt>
      <trkpt lat="49.42339" lon="4.09085">
        <ele>111</ele>
        <time>2019-05-29T17:07:14Z</time>
      </trkpt>
      <trkpt lat="49.42339" lon="4.09097">
        <ele>110</ele>
        <time>2019-05-29T17:07:15Z</time>
      </trkpt>
      <trkpt lat="49.42337" lon="4.09109">
        <ele>110</ele>
        <time>2019-05-29T17:07:16Z</time>
      </trkpt>
      <trkpt lat="49.42336" lon="4.09121">
        <ele>110</ele>
        <time>2019-05-29T17:07:17Z</time>
      </trkpt>
      <trkpt lat="49.42335" lon="4.09132">
        <ele>110</ele>
        <time>2019-05-29T17:07:18Z</time>
      </trkpt>
      <trkpt lat="49.42334" lon="4.09144">
        <ele>110</ele>
        <time>2019-05-29T17:07:19Z</time>
      </trkpt>
      <trkpt lat="49.42334" lon="4.09155">
        <ele>110</ele>
        <time>2019-05-29T17:07:20Z</time>
      </trkpt>
      <trkpt lat="49.42333" lon="4.09166">
        <ele>110</ele>
        <time>2019-05-29T17:07:21Z</time>
      </trkpt>
      <trkpt lat="49.42332" lon="4.09178">
        <ele>110</ele>
        <time>2019-05-29T17:07:22Z</time>
      </trkpt>
      <trkpt lat="49.42331" lon="4.09189">
        <ele>110</ele>
        <time>2019-05-29T17:07:23Z</time>
      </trkpt>
      <trkpt lat="49.42331" lon="4.09201">
        <ele>110</ele>
        <time>2019-05-29T17:07:24Z</time>
      </trkpt>
      <trkpt lat="49.42331" lon="4.09212">
        <ele>110</ele>
        <time>2019-05-29T17:07:25Z</time>
      </trkpt>
      <trkpt lat="49.42331" lon="4.09223">
        <ele>110</ele>
        <time>2019-05-29T17:07:26Z</time>
      </trkpt>
      <trkpt lat="49.42331" lon="4.09235">
        <ele>110</ele>
        <time>2019-05-29T17:07:27Z</time>
      </trkpt>
      <trkpt lat="49.42332" lon="4.09247">
        <ele>110</ele>
        <time>2019-05-29T17:07:28Z</time>
      </trkpt>
      <trkpt lat="49.42332" lon="4.09258">
        <ele>110</ele>
        <time>2019-05-29T17:07:29Z</time>
      </trkpt>
      <trkpt lat="49.42332" lon="4.0927">
        <ele>110</ele>
        <time>2019-05-29T17:07:30Z</time>
      </trkpt>
      <trkpt lat="49.42332" lon="4.09282">
        <ele>110</ele>
        <time>2019-05-29T17:07:31Z</time>
      </trkpt>
      <trkpt lat="49.42332" lon="4.09294">
        <ele>110</ele>
        <time>2019-05-29T17:07:32Z</time>
      </trkpt>
      <trkpt lat="49.42332" lon="4.09305">
        <ele>110</ele>
        <time>2019-05-29T17:07:33Z</time>
      </trkpt>
      <trkpt lat="49.42333" lon="4.09317">
        <ele>110</ele>
        <time>2019-05-29T17:07:34Z</time>
      </trkpt>
      <trkpt lat="49.42333" lon="4.09329">
        <ele>110</ele>
        <time>2019-05-29T17:07:35Z</time>
      </trkpt>
      <trkpt lat="49.42333" lon="4.09341">
        <ele>110</ele>
        <time>2019-05-29T17:07:36Z</time>
      </trkpt>
      <trkpt lat="49.42333" lon="4.09353">
        <ele>110</ele>
        <time>2019-05-29T17:07:37Z</time>
      </trkpt>
      <trkpt lat="49.42333" lon="4.09365">
        <ele>110</ele>
        <time>2019-05-29T17:07:38Z</time>
      </trkpt>
      <trkpt lat="49.42333" lon="4.09377">
        <ele>110</ele>
        <time>2019-05-29T17:07:39Z</time>
      </trkpt>
      <trkpt lat="49.42334" lon="4.09389">
        <ele>110</ele>
        <time>2019-05-29T17:07:40Z</time>
      </trkpt>
      <trkpt lat="49.42334" lon="4.09402">
        <ele>110</ele>
        <time>2019-05-29T17:07:41Z</time>
      </trkpt>
      <trkpt lat="49.42334" lon="4.09414">
        <ele>110</ele>
        <time>2019-05-29T17:07:42Z</time>
      </trkpt>
      <trkpt lat="49.42335" lon="4.09426">
        <ele>110</ele>
        <time>2019-05-29T17:07:43Z</time>
      </trkpt>
      <trkpt lat="49.42335" lon="4.09438">
        <ele>111</ele>
        <time>2019-05-29T17:07:44Z</time>
      </trkpt>
      <trkpt lat="49.42336" lon="4.0945">
        <ele>110</ele>
        <time>2019-05-29T17:07:45Z</time>
      </trkpt>
      <trkpt lat="49.42337" lon="4.09462">
        <ele>111</ele>
        <time>2019-05-29T17:07:46Z</time>
      </trkpt>
      <trkpt lat="49.42338" lon="4.09474">
        <ele>111</ele>
        <time>2019-05-29T17:07:47Z</time>
      </trkpt>
      <trkpt lat="49.42339" lon="4.09485">
        <ele>111</ele>
        <time>2019-05-29T17:07:48Z</time>
      </trkpt>
      <trkpt lat="49.4234" lon="4.09497">
        <ele>111</ele>
        <time>2019-05-29T17:07:49Z</time>
      </trkpt>
      <trkpt lat="49.42341" lon="4.09508">
        <ele>111</ele>
        <time>2019-05-29T17:07:50Z</time>
      </trkpt>
      <trkpt lat="49.42342" lon="4.09519">
        <ele>111</ele>
        <time>2019-05-29T17:07:51Z</time>
      </trkpt>
      <trkpt lat="49.42343" lon="4.0953">
        <ele>112</ele>
        <time>2019-05-29T17:07:52Z</time>
      </trkpt>
      <trkpt lat="49.42344" lon="4.09542">
        <ele>112</ele>
        <time>2019-05-29T17:07:53Z</time>
      </trkpt>
      <trkpt lat="49.42345" lon="4.09553">
        <ele>112</ele>
        <time>2019-05-29T17:07:54Z</time>
      </trkpt>
      <trkpt lat="49.42347" lon="4.09564">
        <ele>112</ele>
        <time>2019-05-29T17:07:55Z</time>
      </trkpt>
      <trkpt lat="49.42348" lon="4.09576">
        <ele>112</ele>
        <time>2019-05-29T17:07:56Z</time>
      </trkpt>
      <trkpt lat="49.42349" lon="4.09587">
        <ele>112</ele>
        <time>2019-05-29T17:07:57Z</time>
      </trkpt>
      <trkpt lat="49.4235" lon="4.09598">
        <ele>112</ele>
        <time>2019-05-29T17:07:58Z</time>
      </trkpt>
      <trkpt lat="49.42351" lon="4.09609">
        <ele>113</ele>
        <time>2019-05-29T17:07:59Z</time>
      </trkpt>
      <trkpt lat="49.42352" lon="4.09619">
        <ele>113</ele>
        <time>2019-05-29T17:08:00Z</time>
      </trkpt>
      <trkpt lat="49.42351" lon="4.0963">
        <ele>113</ele>
        <time>2019-05-29T17:08:01Z</time>
      </trkpt>
      <trkpt lat="49.42351" lon="4.09641">
        <ele>113</ele>
        <time>2019-05-29T17:08:02Z</time>
      </trkpt>
      <trkpt lat="49.42351" lon="4.09652">
        <ele>113</ele>
        <time>2019-05-29T17:08:03Z</time>
      </trkpt>
      <trkpt lat="49.4235" lon="4.09663">
        <ele>113</ele>
        <time>2019-05-29T17:08:04Z</time>
      </trkpt>
      <trkpt lat="49.4235" lon="4.09674">
        <ele>113</ele>
        <time>2019-05-29T17:08:05Z</time>
      </trkpt>
      <trkpt lat="49.42351" lon="4.09684">
        <ele>113</ele>
        <time>2019-05-29T17:08:06Z</time>
      </trkpt>
      <trkpt lat="49.4235" lon="4.09695">
        <ele>112</ele>
        <time>2019-05-29T17:08:07Z</time>
      </trkpt>
      <trkpt lat="49.4235" lon="4.09705">
        <ele>112</ele>
        <time>2019-05-29T17:08:08Z</time>
      </trkpt>
      <trkpt lat="49.4235" lon="4.09716">
        <ele>112</ele>
        <time>2019-05-29T17:08:09Z</time>
      </trkpt>
      <trkpt lat="49.4235" lon="4.09726">
        <ele>112</ele>
        <time>2019-05-29T17:08:10Z</time>
      </trkpt>
      <trkpt lat="49.42351" lon="4.09736">
        <ele>112</ele>
        <time>2019-05-29T17:08:11Z</time>
      </trkpt>
      <trkpt lat="49.42351" lon="4.09746">
        <ele>112</ele>
        <time>2019-05-29T17:08:12Z</time>
      </trkpt>
      <trkpt lat="49.4235" lon="4.09755">
        <ele>112</ele>
        <time>2019-05-29T17:08:13Z</time>
      </trkpt>
      <trkpt lat="49.42349" lon="4.09765">
        <ele>112</ele>
        <time>2019-05-29T17:08:14Z</time>
      </trkpt>
      <trkpt lat="49.42347" lon="4.09774">
        <ele>112</ele>
        <time>2019-05-29T17:08:15Z</time>
      </trkpt>
      <trkpt lat="49.42344" lon="4.09783">
        <ele>112</ele>
        <time>2019-05-29T17:08:16Z</time>
      </trkpt>
      <trkpt lat="49.42341" lon="4.09792">
        <ele>112</ele>
        <time>2019-05-29T17:08:17Z</time>
      </trkpt>
      <trkpt lat="49.42338" lon="4.098">
        <ele>111</ele>
        <time>2019-05-29T17:08:18Z</time>
      </trkpt>
      <trkpt lat="49.42335" lon="4.09809">
        <ele>111</ele>
        <time>2019-05-29T17:08:19Z</time>
      </trkpt>
      <trkpt lat="49.42332" lon="4.09819">
        <ele>111</ele>
        <time>2019-05-29T17:08:20Z</time>
      </trkpt>
      <trkpt lat="49.42328" lon="4.09829">
        <ele>111</ele>
        <time>2019-05-29T17:08:21Z</time>
      </trkpt>
      <trkpt lat="49.42324" lon="4.0984">
        <ele>111</ele>
        <time>2019-05-29T17:08:22Z</time>
      </trkpt>
      <trkpt lat="49.42322" lon="4.0985">
        <ele>111</ele>
        <time>2019-05-29T17:08:23Z</time>
      </trkpt>
      <trkpt lat="49.42319" lon="4.09861">
        <ele>112</ele>
        <time>2019-05-29T17:08:24Z</time>
      </trkpt>
      <trkpt lat="49.42316" lon="4.09872">
        <ele>111</ele>
        <time>2019-05-29T17:08:25Z</time>
      </trkpt>
      <trkpt lat="49.42313" lon="4.09882">
        <ele>111</ele>
        <time>2019-05-29T17:08:26Z</time>
      </trkpt>
      <trkpt lat="49.4231" lon="4.09893">
        <ele>111</ele>
        <time>2019-05-29T17:08:27Z</time>
      </trkpt>
      <trkpt lat="49.42306" lon="4.09903">
        <ele>111</ele>
        <time>2019-05-29T17:08:28Z</time>
      </trkpt>
      <trkpt lat="49.42303" lon="4.09914">
        <ele>111</ele>
        <time>2019-05-29T17:08:29Z</time>
      </trkpt>
      <trkpt lat="49.42299" lon="4.09924">
        <ele>111</ele>
        <time>2019-05-29T17:08:30Z</time>
      </trkpt>
      <trkpt lat="49.42296" lon="4.09934">
        <ele>111</ele>
        <time>2019-05-29T17:08:31Z</time>
      </trkpt>
      <trkpt lat="49.42293" lon="4.09944">
        <ele>111</ele>
        <time>2019-05-29T17:08:32Z</time>
      </trkpt>
      <trkpt lat="49.4229" lon="4.09954">
        <ele>111</ele>
        <time>2019-05-29T17:08:33Z</time>
      </trkpt>
      <trkpt lat="49.42286" lon="4.09964">
        <ele>111</ele>
        <time>2019-05-29T17:08:34Z</time>
      </trkpt>
      <trkpt lat="49.42283" lon="4.09975">
        <ele>111</ele>
        <time>2019-05-29T17:08:35Z</time>
      </trkpt>
      <trkpt lat="49.4228" lon="4.09986">
        <ele>111</ele>
        <time>2019-05-29T17:08:36Z</time>
      </trkpt>
      <trkpt lat="49.42276" lon="4.09997">
        <ele>111</ele>
        <time>2019-05-29T17:08:37Z</time>
      </trkpt>
      <trkpt lat="49.42273" lon="4.10007">
        <ele>111</ele>
        <time>2019-05-29T17:08:38Z</time>
      </trkpt>
      <trkpt lat="49.4227" lon="4.10017">
        <ele>111</ele>
        <time>2019-05-29T17:08:39Z</time>
      </trkpt>
      <trkpt lat="49.42268" lon="4.10027">
        <ele>111</ele>
        <time>2019-05-29T17:08:40Z</time>
      </trkpt>
      <trkpt lat="49.42265" lon="4.10037">
        <ele>111</ele>
        <time>2019-05-29T17:08:41Z</time>
      </trkpt>
      <trkpt lat="49.42263" lon="4.10046">
        <ele>111</ele>
        <time>2019-05-29T17:08:42Z</time>
      </trkpt>
      <trkpt lat="49.42261" lon="4.10056">
        <ele>112</ele>
        <time>2019-05-29T17:08:43Z</time>
      </trkpt>
      <trkpt lat="49.4226" lon="4.10065">
        <ele>112</ele>
        <time>2019-05-29T17:08:44Z</time>
      </trkpt>
      <trkpt lat="49.42258" lon="4.10075">
        <ele>112</ele>
        <time>2019-05-29T17:08:45Z</time>
      </trkpt>
      <trkpt lat="49.42257" lon="4.10085">
        <ele>112</ele>
        <time>2019-05-29T17:08:46Z</time>
      </trkpt>
      <trkpt lat="49.42256" lon="4.10094">
        <ele>113</ele>
        <time>2019-05-29T17:08:47Z</time>
      </trkpt>
      <trkpt lat="49.42255" lon="4.10103">
        <ele>113</ele>
        <time>2019-05-29T17:08:48Z</time>
      </trkpt>
      <trkpt lat="49.42253" lon="4.10112">
        <ele>112</ele>
        <time>2019-05-29T17:08:49Z</time>
      </trkpt>
      <trkpt lat="49.42251" lon="4.10123">
        <ele>113</ele>
        <time>2019-05-29T17:08:50Z</time>
      </trkpt>
      <trkpt lat="49.42249" lon="4.10133">
        <ele>112</ele>
        <time>2019-05-29T17:08:51Z</time>
      </trkpt>
      <trkpt lat="49.42247" lon="4.10144">
        <ele>112</ele>
        <time>2019-05-29T17:08:52Z</time>
      </trkpt>
      <trkpt lat="49.42244" lon="4.10153">
        <ele>112</ele>
        <time>2019-05-29T17:08:53Z</time>
      </trkpt>
      <trkpt lat="49.42239" lon="4.10162">
        <ele>112</ele>
        <time>2019-05-29T17:08:54Z</time>
      </trkpt>
      <trkpt lat="49.42233" lon="4.10167">
        <ele>112</ele>
        <time>2019-05-29T17:08:55Z</time>
      </trkpt>
      <trkpt lat="49.42227" lon="4.10171">
        <ele>112</ele>
        <time>2019-05-29T17:08:56Z</time>
      </trkpt>
      <trkpt lat="49.4222" lon="4.10174">
        <ele>112</ele>
        <time>2019-05-29T17:08:57Z</time>
      </trkpt>
      <trkpt lat="49.42213" lon="4.10176">
        <ele>111</ele>
        <time>2019-05-29T17:08:58Z</time>
      </trkpt>
      <trkpt lat="49.42206" lon="4.10176">
        <ele>111</ele>
        <time>2019-05-29T17:08:59Z</time>
      </trkpt>
      <trkpt lat="49.422" lon="4.10176">
        <ele>111</ele>
        <time>2019-05-29T17:09:00Z</time>
      </trkpt>
      <trkpt lat="49.42194" lon="4.10174">
        <ele>111</ele>
        <time>2019-05-29T17:09:01Z</time>
      </trkpt>
      <trkpt lat="49.42188" lon="4.10173">
        <ele>111</ele>
        <time>2019-05-29T17:09:02Z</time>
      </trkpt>
      <trkpt lat="49.42182" lon="4.1017">
        <ele>112</ele>
        <time>2019-05-29T17:09:03Z</time>
      </trkpt>
      <trkpt lat="49.42176" lon="4.10168">
        <ele>112</ele>
        <time>2019-05-29T17:09:04Z</time>
      </trkpt>
      <trkpt lat="49.42171" lon="4.10165">
        <ele>112</ele>
        <time>2019-05-29T17:09:05Z</time>
      </trkpt>
      <trkpt lat="49.42165" lon="4.10162">
        <ele>112</ele>
        <time>2019-05-29T17:09:06Z</time>
      </trkpt>
      <trkpt lat="49.42159" lon="4.10159">
        <ele>112</ele>
        <time>2019-05-29T17:09:07Z</time>
      </trkpt>
      <trkpt lat="49.42153" lon="4.10156">
        <ele>112</ele>
        <time>2019-05-29T17:09:08Z</time>
      </trkpt>
      <trkpt lat="49.42147" lon="4.10153">
        <ele>112</ele>
        <time>2019-05-29T17:09:09Z</time>
      </trkpt>
      <trkpt lat="49.42141" lon="4.1015">
        <ele>112</ele>
        <time>2019-05-29T17:09:10Z</time>
      </trkpt>
      <trkpt lat="49.42135" lon="4.10147">
        <ele>112</ele>
        <time>2019-05-29T17:09:11Z</time>
      </trkpt>
      <trkpt lat="49.42128" lon="4.10143">
        <ele>112</ele>
        <time>2019-05-29T17:09:12Z</time>
      </trkpt>
      <trkpt lat="49.42122" lon="4.1014">
        <ele>112</ele>
        <time>2019-05-29T17:09:13Z</time>
      </trkpt>
      <trkpt lat="49.42116" lon="4.10138">
        <ele>112</ele>
        <time>2019-05-29T17:09:14Z</time>
      </trkpt>
      <trkpt lat="49.4211" lon="4.10135">
        <ele>113</ele>
        <time>2019-05-29T17:09:15Z</time>
      </trkpt>
      <trkpt lat="49.42104" lon="4.10132">
        <ele>113</ele>
        <time>2019-05-29T17:09:16Z</time>
      </trkpt>
      <trkpt lat="49.42098" lon="4.10128">
        <ele>113</ele>
        <time>2019-05-29T17:09:17Z</time>
      </trkpt>
      <trkpt lat="49.42092" lon="4.10125">
        <ele>113</ele>
        <time>2019-05-29T17:09:18Z</time>
      </trkpt>
      <trkpt lat="49.42086" lon="4.10122">
        <ele>113</ele>
        <time>2019-05-29T17:09:19Z</time>
      </trkpt>
      <trkpt lat="49.42079" lon="4.10119">
        <ele>113</ele>
        <time>2019-05-29T17:09:20Z</time>
      </trkpt>
      <trkpt lat="49.42073" lon="4.10116">
        <ele>113</ele>
        <time>2019-05-29T17:09:21Z</time>
      </trkpt>
      <trkpt lat="49.42067" lon="4.10114">
        <ele>113</ele>
        <time>2019-05-29T17:09:22Z</time>
      </trkpt>
      <trkpt lat="49.42061" lon="4.10112">
        <ele>113</ele>
        <time>2019-05-29T17:09:23Z</time>
      </trkpt>
      <trkpt lat="49.42056" lon="4.10109">
        <ele>113</ele>
        <time>2019-05-29T17:09:24Z</time>
      </trkpt>
      <trkpt lat="49.42049" lon="4.10107">
        <ele>113</ele>
        <time>2019-05-29T17:09:25Z</time>
      </trkpt>
      <trkpt lat="49.42043" lon="4.10104">
        <ele>113</ele>
        <time>2019-05-29T17:09:26Z</time>
      </trkpt>
      <trkpt lat="49.42036" lon="4.10099">
        <ele>113</ele>
        <time>2019-05-29T17:09:27Z</time>
      </trkpt>
      <trkpt lat="49.42029" lon="4.10095">
        <ele>113</ele>
        <time>2019-05-29T17:09:28Z</time>
      </trkpt>
      <trkpt lat="49.42022" lon="4.10091">
        <ele>114</ele>
        <time>2019-05-29T17:09:29Z</time>
      </trkpt>
      <trkpt lat="49.42015" lon="4.10086">
        <ele>114</ele>
        <time>2019-05-29T17:09:30Z</time>
      </trkpt>
      <trkpt lat="49.42007" lon="4.10081">
        <ele>115</ele>
        <time>2019-05-29T17:09:31Z</time>
      </trkpt>
      <trkpt lat="49.42" lon="4.10078">
        <ele>114</ele>
        <time>2019-05-29T17:09:32Z</time>
      </trkpt>
      <trkpt lat="49.41992" lon="4.10073">
        <ele>114</ele>
        <time>2019-05-29T17:09:33Z</time>
      </trkpt>
      <trkpt lat="49.41983" lon="4.10069">
        <ele>113</ele>
        <time>2019-05-29T17:09:34Z</time>
      </trkpt>
      <trkpt lat="49.41976" lon="4.10066">
        <ele>113</ele>
        <time>2019-05-29T17:09:35Z</time>
      </trkpt>
      <trkpt lat="49.41969" lon="4.10063">
        <ele>113</ele>
        <time>2019-05-29T17:09:36Z</time>
      </trkpt>
      <trkpt lat="49.41955" lon="4.10057">
        <ele>112</ele>
        <time>2019-05-29T17:09:38Z</time>
      </trkpt>
      <trkpt lat="49.41949" lon="4.10054">
        <ele>112</ele>
        <time>2019-05-29T17:09:39Z</time>
      </trkpt>
      <trkpt lat="49.41942" lon="4.10051">
        <ele>112</ele>
        <time>2019-05-29T17:09:40Z</time>
      </trkpt>
      <trkpt lat="49.41936" lon="4.10048">
        <ele>112</ele>
        <time>2019-05-29T17:09:41Z</time>
      </trkpt>
      <trkpt lat="49.41929" lon="4.10046">
        <ele>112</ele>
        <time>2019-05-29T17:09:42Z</time>
      </trkpt>
      <trkpt lat="49.41923" lon="4.10043">
        <ele>112</ele>
        <time>2019-05-29T17:09:43Z</time>
      </trkpt>
      <trkpt lat="49.41917" lon="4.10039">
        <ele>111</ele>
        <time>2019-05-29T17:09:44Z</time>
      </trkpt>
      <trkpt lat="49.4191" lon="4.10035">
        <ele>111</ele>
        <time>2019-05-29T17:09:45Z</time>
      </trkpt>
      <trkpt lat="49.41904" lon="4.10031">
        <ele>112</ele>
        <time>2019-05-29T17:09:46Z</time>
      </trkpt>
      <trkpt lat="49.41897" lon="4.10027">
        <ele>111</ele>
        <time>2019-05-29T17:09:47Z</time>
      </trkpt>
      <trkpt lat="49.41891" lon="4.10022">
        <ele>111</ele>
        <time>2019-05-29T17:09:48Z</time>
      </trkpt>
      <trkpt lat="49.41885" lon="4.10013">
        <ele>111</ele>
        <time>2019-05-29T17:09:49Z</time>
      </trkpt>
      <trkpt lat="49.41882" lon="4.10002">
        <ele>111</ele>
        <time>2019-05-29T17:09:50Z</time>
      </trkpt>
      <trkpt lat="49.41879" lon="4.0999">
        <ele>111</ele>
        <time>2019-05-29T17:09:51Z</time>
      </trkpt>
      <trkpt lat="49.41878" lon="4.09979">
        <ele>111</ele>
        <time>2019-05-29T17:09:52Z</time>
      </trkpt>
      <trkpt lat="49.41877" lon="4.09968">
        <ele>111</ele>
        <time>2019-05-29T17:09:53Z</time>
      </trkpt>
      <trkpt lat="49.41876" lon="4.09957">
        <ele>111</ele>
        <time>2019-05-29T17:09:54Z</time>
      </trkpt>
      <trkpt lat="49.41875" lon="4.09946">
        <ele>111</ele>
        <time>2019-05-29T17:09:55Z</time>
      </trkpt>
      <trkpt lat="49.41874" lon="4.09935">
        <ele>111</ele>
        <time>2019-05-29T17:09:56Z</time>
      </trkpt>
      <trkpt lat="49.41872" lon="4.09925">
        <ele>111</ele>
        <time>2019-05-29T17:09:57Z</time>
      </trkpt>
      <trkpt lat="49.41871" lon="4.09914">
        <ele>111</ele>
        <time>2019-05-29T17:09:58Z</time>
      </trkpt>
      <trkpt lat="49.41869" lon="4.09903">
        <ele>110</ele>
        <time>2019-05-29T17:09:59Z</time>
      </trkpt>
      <trkpt lat="49.41869" lon="4.09893">
        <ele>111</ele>
        <time>2019-05-29T17:10:00Z</time>
      </trkpt>
      <trkpt lat="49.41868" lon="4.09882">
        <ele>110</ele>
        <time>2019-05-29T17:10:01Z</time>
      </trkpt>
      <trkpt lat="49.41867" lon="4.09871">
        <ele>111</ele>
        <time>2019-05-29T17:10:02Z</time>
      </trkpt>
      <trkpt lat="49.41865" lon="4.0986">
        <ele>111</ele>
        <time>2019-05-29T17:10:03Z</time>
      </trkpt>
      <trkpt lat="49.41864" lon="4.0985">
        <ele>111</ele>
        <time>2019-05-29T17:10:04Z</time>
      </trkpt>
      <trkpt lat="49.41861" lon="4.09838">
        <ele>111</ele>
        <time>2019-05-29T17:10:05Z</time>
      </trkpt>
      <trkpt lat="49.41858" lon="4.09828">
        <ele>111</ele>
        <time>2019-05-29T17:10:06Z</time>
      </trkpt>
      <trkpt lat="49.41853" lon="4.0982">
        <ele>111</ele>
        <time>2019-05-29T17:10:07Z</time>
      </trkpt>
      <trkpt lat="49.41847" lon="4.09815">
        <ele>111</ele>
        <time>2019-05-29T17:10:08Z</time>
      </trkpt>
      <trkpt lat="49.4184" lon="4.09812">
        <ele>111</ele>
        <time>2019-05-29T17:10:09Z</time>
      </trkpt>
      <trkpt lat="49.41833" lon="4.09809">
        <ele>112</ele>
        <time>2019-05-29T17:10:10Z</time>
      </trkpt>
      <trkpt lat="49.41826" lon="4.09807">
        <ele>111</ele>
        <time>2019-05-29T17:10:11Z</time>
      </trkpt>
      <trkpt lat="49.4182" lon="4.09807">
        <ele>111</ele>
        <time>2019-05-29T17:10:12Z</time>
      </trkpt>
      <trkpt lat="49.41813" lon="4.09807">
        <ele>111</ele>
        <time>2019-05-29T17:10:13Z</time>
      </trkpt>
      <trkpt lat="49.41805" lon="4.09807">
        <ele>111</ele>
        <time>2019-05-29T17:10:14Z</time>
      </trkpt>
      <trkpt lat="49.41798" lon="4.09806">
        <ele>111</ele>
        <time>2019-05-29T17:10:15Z</time>
      </trkpt>
      <trkpt lat="49.41791" lon="4.09805">
        <ele>111</ele>
        <time>2019-05-29T17:10:16Z</time>
      </trkpt>
      <trkpt lat="49.41784" lon="4.09804">
        <ele>111</ele>
        <time>2019-05-29T17:10:17Z</time>
      </trkpt>
      <trkpt lat="49.41777" lon="4.09804">
        <ele>111</ele>
        <time>2019-05-29T17:10:18Z</time>
      </trkpt>
      <trkpt lat="49.4177" lon="4.09803">
        <ele>111</ele>
        <time>2019-05-29T17:10:19Z</time>
      </trkpt>
      <trkpt lat="49.41763" lon="4.09803">
        <ele>112</ele>
        <time>2019-05-29T17:10:20Z</time>
      </trkpt>
      <trkpt lat="49.41756" lon="4.09802">
        <ele>111</ele>
        <time>2019-05-29T17:10:21Z</time>
      </trkpt>
      <trkpt lat="49.4175" lon="4.09801">
        <ele>111</ele>
        <time>2019-05-29T17:10:22Z</time>
      </trkpt>
      <trkpt lat="49.41743" lon="4.098">
        <ele>112</ele>
        <time>2019-05-29T17:10:23Z</time>
      </trkpt>
      <trkpt lat="49.41736" lon="4.098">
        <ele>112</ele>
        <time>2019-05-29T17:10:24Z</time>
      </trkpt>
      <trkpt lat="49.41729" lon="4.098">
        <ele>112</ele>
        <time>2019-05-29T17:10:25Z</time>
      </trkpt>
      <trkpt lat="49.41722" lon="4.09799">
        <ele>112</ele>
        <time>2019-05-29T17:10:26Z</time>
      </trkpt>
      <trkpt lat="49.41715" lon="4.09798">
        <ele>112</ele>
        <time>2019-05-29T17:10:27Z</time>
      </trkpt>
      <trkpt lat="49.41708" lon="4.09798">
        <ele>112</ele>
        <time>2019-05-29T17:10:28Z</time>
      </trkpt>
      <trkpt lat="49.417" lon="4.09797">
        <ele>112</ele>
        <time>2019-05-29T17:10:29Z</time>
      </trkpt>
      <trkpt lat="49.41693" lon="4.09797">
        <ele>112</ele>
        <time>2019-05-29T17:10:30Z</time>
      </trkpt>
      <trkpt lat="49.41686" lon="4.09796">
        <ele>112</ele>
        <time>2019-05-29T17:10:31Z</time>
      </trkpt>
      <trkpt lat="49.41679" lon="4.09795">
        <ele>112</ele>
        <time>2019-05-29T17:10:32Z</time>
      </trkpt>
      <trkpt lat="49.41672" lon="4.09795">
        <ele>113</ele>
        <time>2019-05-29T17:10:33Z</time>
      </trkpt>
      <trkpt lat="49.41665" lon="4.09795">
        <ele>113</ele>
        <time>2019-05-29T17:10:34Z</time>
      </trkpt>
      <trkpt lat="49.41658" lon="4.09794">
        <ele>113</ele>
        <time>2019-05-29T17:10:35Z</time>
      </trkpt>
      <trkpt lat="49.41652" lon="4.09794">
        <ele>113</ele>
        <time>2019-05-29T17:10:36Z</time>
      </trkpt>
      <trkpt lat="49.41645" lon="4.09793">
        <ele>113</ele>
        <time>2019-05-29T17:10:37Z</time>
      </trkpt>
      <trkpt lat="49.41638" lon="4.09793">
        <ele>114</ele>
        <time>2019-05-29T17:10:38Z</time>
      </trkpt>
      <trkpt lat="49.41632" lon="4.09792">
        <ele>114</ele>
        <time>2019-05-29T17:10:39Z</time>
      </trkpt>
      <trkpt lat="49.41626" lon="4.09792">
        <ele>114</ele>
        <time>2019-05-29T17:10:40Z</time>
      </trkpt>
      <trkpt lat="49.4162" lon="4.09791">
        <ele>114</ele>
        <time>2019-05-29T17:10:41Z</time>
      </trkpt>
      <trkpt lat="49.41613" lon="4.09791">
        <ele>115</ele>
        <time>2019-05-29T17:10:42Z</time>
      </trkpt>
      <trkpt lat="49.41607" lon="4.0979">
        <ele>115</ele>
        <time>2019-05-29T17:10:43Z</time>
      </trkpt>
      <trkpt lat="49.41601" lon="4.09789">
        <ele>115</ele>
        <time>2019-05-29T17:10:44Z</time>
      </trkpt>
      <trkpt lat="49.41595" lon="4.09789">
        <ele>115</ele>
        <time>2019-05-29T17:10:45Z</time>
      </trkpt>
      <trkpt lat="49.41589" lon="4.09788">
        <ele>115</ele>
        <time>2019-05-29T17:10:46Z</time>
      </trkpt>
      <trkpt lat="49.41583" lon="4.09787">
        <ele>115</ele>
        <time>2019-05-29T17:10:47Z</time>
      </trkpt>
      <trkpt lat="49.41577" lon="4.09787">
        <ele>115</ele>
        <time>2019-05-29T17:10:48Z</time>
      </trkpt>
      <trkpt lat="49.41571" lon="4.09786">
        <ele>116</ele>
        <time>2019-05-29T17:10:49Z</time>
      </trkpt>
      <trkpt lat="49.41565" lon="4.09786">
        <ele>116</ele>
        <time>2019-05-29T17:10:50Z</time>
      </trkpt>
      <trkpt lat="49.4156" lon="4.09786">
        <ele>116</ele>
        <time>2019-05-29T17:10:51Z</time>
      </trkpt>
      <trkpt lat="49.41554" lon="4.09785">
        <ele>116</ele>
        <time>2019-05-29T17:10:52Z</time>
      </trkpt>
      <trkpt lat="49.41549" lon="4.09784">
        <ele>116</ele>
        <time>2019-05-29T17:10:53Z</time>
      </trkpt>
      <trkpt lat="49.41544" lon="4.09784">
        <ele>116</ele>
        <time>2019-05-29T17:10:54Z</time>
      </trkpt>
      <trkpt lat="49.41538" lon="4.09784">
        <ele>116</ele>
        <time>2019-05-29T17:10:55Z</time>
      </trkpt>
      <trkpt lat="49.41533" lon="4.09783">
        <ele>116</ele>
        <time>2019-05-29T17:10:56Z</time>
      </trkpt>
      <trkpt lat="49.41528" lon="4.09782">
        <ele>116</ele>
        <time>2019-05-29T17:10:57Z</time>
      </trkpt>
      <trkpt lat="49.41522" lon="4.09781">
        <ele>116</ele>
        <time>2019-05-29T17:10:58Z</time>
      </trkpt>
      <trkpt lat="49.41517" lon="4.0978">
        <ele>117</ele>
        <time>2019-05-29T17:10:59Z</time>
      </trkpt>
      <trkpt lat="49.41511" lon="4.09779">
        <ele>117</ele>
        <time>2019-05-29T17:11:00Z</time>
      </trkpt>
      <trkpt lat="49.41506" lon="4.09778">
        <ele>117</ele>
        <time>2019-05-29T17:11:01Z</time>
      </trkpt>
      <trkpt lat="49.41501" lon="4.09778">
        <ele>117</ele>
        <time>2019-05-29T17:11:02Z</time>
      </trkpt>
      <trkpt lat="49.41495" lon="4.09778">
        <ele>117</ele>
        <time>2019-05-29T17:11:03Z</time>
      </trkpt>
      <trkpt lat="49.4149" lon="4.09778">
        <ele>117</ele>
        <time>2019-05-29T17:11:04Z</time>
      </trkpt>
      <trkpt lat="49.41485" lon="4.09777">
        <ele>117</ele>
        <time>2019-05-29T17:11:05Z</time>
      </trkpt>
      <trkpt lat="49.4148" lon="4.09776">
        <ele>118</ele>
        <time>2019-05-29T17:11:06Z</time>
      </trkpt>
      <trkpt lat="49.41475" lon="4.09775">
        <ele>118</ele>
        <time>2019-05-29T17:11:07Z</time>
      </trkpt>
      <trkpt lat="49.4147" lon="4.09774">
        <ele>118</ele>
        <time>2019-05-29T17:11:08Z</time>
      </trkpt>
      <trkpt lat="49.41465" lon="4.09774">
        <ele>118</ele>
        <time>2019-05-29T17:11:09Z</time>
      </trkpt>
      <trkpt lat="49.4146" lon="4.09773">
        <ele>118</ele>
        <time>2019-05-29T17:11:10Z</time>
      </trkpt>
      <trkpt lat="49.41455" lon="4.09773">
        <ele>118</ele>
        <time>2019-05-29T17:11:11Z</time>
      </trkpt>
      <trkpt lat="49.4145" lon="4.09772">
        <ele>118</ele>
        <time>2019-05-29T17:11:12Z</time>
      </trkpt>
      <trkpt lat="49.41445" lon="4.09771">
        <ele>118</ele>
        <time>2019-05-29T17:11:13Z</time>
      </trkpt>
      <trkpt lat="49.4144" lon="4.09771">
        <ele>118</ele>
        <time>2019-05-29T17:11:14Z</time>
      </trkpt>
      <trkpt lat="49.41436" lon="4.0977">
        <ele>119</ele>
        <time>2019-05-29T17:11:15Z</time>
      </trkpt>
      <trkpt lat="49.41431" lon="4.0977">
        <ele>119</ele>
        <time>2019-05-29T17:11:16Z</time>
      </trkpt>
      <trkpt lat="49.41426" lon="4.09769">
        <ele>119</ele>
        <time>2019-05-29T17:11:17Z</time>
      </trkpt>
      <trkpt lat="49.41422" lon="4.09768">
        <ele>119</ele>
        <time>2019-05-29T17:11:18Z</time>
      </trkpt>
      <trkpt lat="49.41418" lon="4.09768">
        <ele>119</ele>
        <time>2019-05-29T17:11:19Z</time>
      </trkpt>
      <trkpt lat="49.41413" lon="4.09767">
        <ele>119</ele>
        <time>2019-05-29T17:11:20Z</time>
      </trkpt>
      <trkpt lat="49.41409" lon="4.09766">
        <ele>119</ele>
        <time>2019-05-29T17:11:21Z</time>
      </trkpt>
      <trkpt lat="49.41404" lon="4.09766">
        <ele>119</ele>
        <time>2019-05-29T17:11:22Z</time>
      </trkpt>
      <trkpt lat="49.414" lon="4.09766">
        <ele>119</ele>
        <time>2019-05-29T17:11:23Z</time>
      </trkpt>
      <trkpt lat="49.41394" lon="4.09765">
        <ele>119</ele>
        <time>2019-05-29T17:11:24Z</time>
      </trkpt>
      <trkpt lat="49.41389" lon="4.09765">
        <ele>119</ele>
        <time>2019-05-29T17:11:25Z</time>
      </trkpt>
      <trkpt lat="49.41384" lon="4.09765">
        <ele>119</ele>
        <time>2019-05-29T17:11:26Z</time>
      </trkpt>
      <trkpt lat="49.4138" lon="4.09764">
        <ele>119</ele>
        <time>2019-05-29T17:11:27Z</time>
      </trkpt>
      <trkpt lat="49.41375" lon="4.09763">
        <ele>119</ele>
        <time>2019-05-29T17:11:28Z</time>
      </trkpt>
      <trkpt lat="49.41371" lon="4.09762">
        <ele>119</ele>
        <time>2019-05-29T17:11:29Z</time>
      </trkpt>
      <trkpt lat="49.41366" lon="4.09761">
        <ele>119</ele>
        <time>2019-05-29T17:11:30Z</time>
      </trkpt>
      <trkpt lat="49.41362" lon="4.09762">
        <ele>119</ele>
        <time>2019-05-29T17:11:31Z</time>
      </trkpt>
      <trkpt lat="49.41358" lon="4.09761">
        <ele>119</ele>
        <time>2019-05-29T17:11:32Z</time>
      </trkpt>
      <trkpt lat="49.41353" lon="4.09761">
        <ele>120</ele>
        <time>2019-05-29T17:11:33Z</time>
      </trkpt>
      <trkpt lat="49.41349" lon="4.0976">
        <ele>120</ele>
        <time>2019-05-29T17:11:34Z</time>
      </trkpt>
      <trkpt lat="49.41344" lon="4.0976">
        <ele>120</ele>
        <time>2019-05-29T17:11:35Z</time>
      </trkpt>
      <trkpt lat="49.41339" lon="4.09759">
        <ele>121</ele>
        <time>2019-05-29T17:11:36Z</time>
      </trkpt>
      <trkpt lat="49.41334" lon="4.09759">
        <ele>121</ele>
        <time>2019-05-29T17:11:37Z</time>
      </trkpt>
      <trkpt lat="49.41329" lon="4.09758">
        <ele>121</ele>
        <time>2019-05-29T17:11:38Z</time>
      </trkpt>
      <trkpt lat="49.41323" lon="4.09757">
        <ele>121</ele>
        <time>2019-05-29T17:11:39Z</time>
      </trkpt>
      <trkpt lat="49.41318" lon="4.09757">
        <ele>121</ele>
        <time>2019-05-29T17:11:40Z</time>
      </trkpt>
      <trkpt lat="49.41313" lon="4.09756">
        <ele>122</ele>
        <time>2019-05-29T17:11:41Z</time>
      </trkpt>
      <trkpt lat="49.41308" lon="4.09755">
        <ele>122</ele>
        <time>2019-05-29T17:11:42Z</time>
      </trkpt>
      <trkpt lat="49.41303" lon="4.09755">
        <ele>122</ele>
        <time>2019-05-29T17:11:43Z</time>
      </trkpt>
      <trkpt lat="49.41298" lon="4.09755">
        <ele>122</ele>
        <time>2019-05-29T17:11:44Z</time>
      </trkpt>
      <trkpt lat="49.41293" lon="4.09754">
        <ele>122</ele>
        <time>2019-05-29T17:11:45Z</time>
      </trkpt>
      <trkpt lat="49.41287" lon="4.09753">
        <ele>122</ele>
        <time>2019-05-29T17:11:46Z</time>
      </trkpt>
      <trkpt lat="49.41282" lon="4.09753">
        <ele>122</ele>
        <time>2019-05-29T17:11:47Z</time>
      </trkpt>
      <trkpt lat="49.41277" lon="4.09753">
        <ele>122</ele>
        <time>2019-05-29T17:11:48Z</time>
      </trkpt>
      <trkpt lat="49.41272" lon="4.09752">
        <ele>122</ele>
        <time>2019-05-29T17:11:49Z</time>
      </trkpt>
      <trkpt lat="49.41267" lon="4.09752">
        <ele>122</ele>
        <time>2019-05-29T17:11:50Z</time>
      </trkpt>
      <trkpt lat="49.41262" lon="4.09751">
        <ele>123</ele>
        <time>2019-05-29T17:11:51Z</time>
      </trkpt>
      <trkpt lat="49.41257" lon="4.09751">
        <ele>123</ele>
        <time>2019-05-29T17:11:52Z</time>
      </trkpt>
      <trkpt lat="49.41252" lon="4.0975">
        <ele>122</ele>
        <time>2019-05-29T17:11:53Z</time>
      </trkpt>
      <trkpt lat="49.41246" lon="4.0975">
        <ele>122</ele>
        <time>2019-05-29T17:11:54Z</time>
      </trkpt>
      <trkpt lat="49.41241" lon="4.09749">
        <ele>122</ele>
        <time>2019-05-29T17:11:55Z</time>
      </trkpt>
      <trkpt lat="49.41235" lon="4.09749">
        <ele>123</ele>
        <time>2019-05-29T17:11:56Z</time>
      </trkpt>
      <trkpt lat="49.4123" lon="4.09749">
        <ele>123</ele>
        <time>2019-05-29T17:11:57Z</time>
      </trkpt>
      <trkpt lat="49.41225" lon="4.09748">
        <ele>123</ele>
        <time>2019-05-29T17:11:58Z</time>
      </trkpt>
      <trkpt lat="49.41219" lon="4.09748">
        <ele>123</ele>
        <time>2019-05-29T17:11:59Z</time>
      </trkpt>
      <trkpt lat="49.41214" lon="4.09748">
        <ele>123</ele>
        <time>2019-05-29T17:12:00Z</time>
      </trkpt>
      <trkpt lat="49.41209" lon="4.09747">
        <ele>123</ele>
        <time>2019-05-29T17:12:01Z</time>
      </trkpt>
      <trkpt lat="49.41203" lon="4.09746">
        <ele>123</ele>
        <time>2019-05-29T17:12:02Z</time>
      </trkpt>
      <trkpt lat="49.41198" lon="4.09746">
        <ele>123</ele>
        <time>2019-05-29T17:12:03Z</time>
      </trkpt>
      <trkpt lat="49.41193" lon="4.09745">
        <ele>123</ele>
        <time>2019-05-29T17:12:04Z</time>
      </trkpt>
      <trkpt lat="49.41187" lon="4.09744">
        <ele>123</ele>
        <time>2019-05-29T17:12:05Z</time>
      </trkpt>
      <trkpt lat="49.41182" lon="4.09744">
        <ele>123</ele>
        <time>2019-05-29T17:12:06Z</time>
      </trkpt>
      <trkpt lat="49.41176" lon="4.09743">
        <ele>123</ele>
        <time>2019-05-29T17:12:07Z</time>
      </trkpt>
      <trkpt lat="49.41171" lon="4.09742">
        <ele>123</ele>
        <time>2019-05-29T17:12:08Z</time>
      </trkpt>
      <trkpt lat="49.41165" lon="4.09741">
        <ele>123</ele>
        <time>2019-05-29T17:12:09Z</time>
      </trkpt>
      <trkpt lat="49.4116" lon="4.09741">
        <ele>123</ele>
        <time>2019-05-29T17:12:10Z</time>
      </trkpt>
      <trkpt lat="49.41154" lon="4.0974">
        <ele>123</ele>
        <time>2019-05-29T17:12:11Z</time>
      </trkpt>
      <trkpt lat="49.41149" lon="4.09739">
        <ele>123</ele>
        <time>2019-05-29T17:12:12Z</time>
      </trkpt>
      <trkpt lat="49.41143" lon="4.09739">
        <ele>123</ele>
        <time>2019-05-29T17:12:13Z</time>
      </trkpt>
      <trkpt lat="49.41137" lon="4.09738">
        <ele>123</ele>
        <time>2019-05-29T17:12:14Z</time>
      </trkpt>
      <trkpt lat="49.41132" lon="4.09737">
        <ele>123</ele>
        <time>2019-05-29T17:12:15Z</time>
      </trkpt>
      <trkpt lat="49.41126" lon="4.09736">
        <ele>123</ele>
        <time>2019-05-29T17:12:16Z</time>
      </trkpt>
      <trkpt lat="49.41121" lon="4.09736">
        <ele>123</ele>
        <time>2019-05-29T17:12:17Z</time>
      </trkpt>
      <trkpt lat="49.41115" lon="4.09735">
        <ele>123</ele>
        <time>2019-05-29T17:12:18Z</time>
      </trkpt>
      <trkpt lat="49.41109" lon="4.09734">
        <ele>123</ele>
        <time>2019-05-29T17:12:19Z</time>
      </trkpt>
      <trkpt lat="49.41104" lon="4.09733">
        <ele>123</ele>
        <time>2019-05-29T17:12:20Z</time>
      </trkpt>
      <trkpt lat="49.41098" lon="4.09732">
        <ele>123</ele>
        <time>2019-05-29T17:12:21Z</time>
      </trkpt>
      <trkpt lat="49.41092" lon="4.09731">
        <ele>123</ele>
        <time>2019-05-29T17:12:22Z</time>
      </trkpt>
      <trkpt lat="49.41086" lon="4.0973">
        <ele>123</ele>
        <time>2019-05-29T17:12:23Z</time>
      </trkpt>
      <trkpt lat="49.4108" lon="4.09729">
        <ele>123</ele>
        <time>2019-05-29T17:12:24Z</time>
      </trkpt>
      <trkpt lat="49.41074" lon="4.09728">
        <ele>123</ele>
        <time>2019-05-29T17:12:25Z</time>
      </trkpt>
      <trkpt lat="49.41068" lon="4.09727">
        <ele>123</ele>
        <time>2019-05-29T17:12:26Z</time>
      </trkpt>
      <trkpt lat="49.41062" lon="4.09726">
        <ele>123</ele>
        <time>2019-05-29T17:12:27Z</time>
      </trkpt>
      <trkpt lat="49.41056" lon="4.09726">
        <ele>123</ele>
        <time>2019-05-29T17:12:28Z</time>
      </trkpt>
      <trkpt lat="49.4105" lon="4.09724">
        <ele>123</ele>
        <time>2019-05-29T17:12:29Z</time>
      </trkpt>
      <trkpt lat="49.41044" lon="4.09724">
        <ele>123</ele>
        <time>2019-05-29T17:12:30Z</time>
      </trkpt>
      <trkpt lat="49.41037" lon="4.09722">
        <ele>123</ele>
        <time>2019-05-29T17:12:31Z</time>
      </trkpt>
      <trkpt lat="49.41031" lon="4.09721">
        <ele>122</ele>
        <time>2019-05-29T17:12:32Z</time>
      </trkpt>
      <trkpt lat="49.41024" lon="4.0972">
        <ele>122</ele>
        <time>2019-05-29T17:12:33Z</time>
      </trkpt>
      <trkpt lat="49.41017" lon="4.09719">
        <ele>122</ele>
        <time>2019-05-29T17:12:34Z</time>
      </trkpt>
      <trkpt lat="49.41009" lon="4.09718">
        <ele>122</ele>
        <time>2019-05-29T17:12:35Z</time>
      </trkpt>
      <trkpt lat="49.41002" lon="4.09717">
        <ele>122</ele>
        <time>2019-05-29T17:12:36Z</time>
      </trkpt>
      <trkpt lat="49.40995" lon="4.09716">
        <ele>122</ele>
        <time>2019-05-29T17:12:37Z</time>
      </trkpt>
      <trkpt lat="49.40988" lon="4.09715">
        <ele>122</ele>
        <time>2019-05-29T17:12:38Z</time>
      </trkpt>
      <trkpt lat="49.4098" lon="4.09713">
        <ele>122</ele>
        <time>2019-05-29T17:12:39Z</time>
      </trkpt>
      <trkpt lat="49.40973" lon="4.09712">
        <ele>121</ele>
        <time>2019-05-29T17:12:40Z</time>
      </trkpt>
      <trkpt lat="49.40965" lon="4.09711">
        <ele>121</ele>
        <time>2019-05-29T17:12:41Z</time>
      </trkpt>
      <trkpt lat="49.40957" lon="4.0971">
        <ele>121</ele>
        <time>2019-05-29T17:12:42Z</time>
      </trkpt>
      <trkpt lat="49.4095" lon="4.09708">
        <ele>121</ele>
        <time>2019-05-29T17:12:43Z</time>
      </trkpt>
      <trkpt lat="49.40942" lon="4.09707">
        <ele>121</ele>
        <time>2019-05-29T17:12:44Z</time>
      </trkpt>
      <trkpt lat="49.40934" lon="4.09706">
        <ele>121</ele>
        <time>2019-05-29T17:12:45Z</time>
      </trkpt>
      <trkpt lat="49.40926" lon="4.09705">
        <ele>121</ele>
        <time>2019-05-29T17:12:46Z</time>
      </trkpt>
      <trkpt lat="49.40918" lon="4.09704">
        <ele>121</ele>
        <time>2019-05-29T17:12:47Z</time>
      </trkpt>
      <trkpt lat="49.40911" lon="4.09702">
        <ele>121</ele>
        <time>2019-05-29T17:12:48Z</time>
      </trkpt>
      <trkpt lat="49.40903" lon="4.09701">
        <ele>121</ele>
        <time>2019-05-29T17:12:49Z</time>
      </trkpt>
      <trkpt lat="49.40896" lon="4.097">
        <ele>121</ele>
        <time>2019-05-29T17:12:50Z</time>
      </trkpt>
      <trkpt lat="49.40889" lon="4.09698">
        <ele>121</ele>
        <time>2019-05-29T17:12:51Z</time>
      </trkpt>
      <trkpt lat="49.40882" lon="4.09698">
        <ele>121</ele>
        <time>2019-05-29T17:12:52Z</time>
      </trkpt>
      <trkpt lat="49.40875" lon="4.09697">
        <ele>121</ele>
        <time>2019-05-29T17:12:53Z</time>
      </trkpt>
      <trkpt lat="49.40867" lon="4.09697">
        <ele>120</ele>
        <time>2019-05-29T17:12:54Z</time>
      </trkpt>
      <trkpt lat="49.4086" lon="4.09696">
        <ele>121</ele>
        <time>2019-05-29T17:12:55Z</time>
      </trkpt>
      <trkpt lat="49.40852" lon="4.09694">
        <ele>121</ele>
        <time>2019-05-29T17:12:56Z</time>
      </trkpt>
      <trkpt lat="49.40845" lon="4.09693">
        <ele>121</ele>
        <time>2019-05-29T17:12:57Z</time>
      </trkpt>
      <trkpt lat="49.40838" lon="4.09692">
        <ele>120</ele>
        <time>2019-05-29T17:12:58Z</time>
      </trkpt>
      <trkpt lat="49.40831" lon="4.09691">
        <ele>120</ele>
        <time>2019-05-29T17:12:59Z</time>
      </trkpt>
      <trkpt lat="49.40824" lon="4.09689">
        <ele>120</ele>
        <time>2019-05-29T17:13:00Z</time>
      </trkpt>
      <trkpt lat="49.40817" lon="4.09689">
        <ele>120</ele>
        <time>2019-05-29T17:13:01Z</time>
      </trkpt>
      <trkpt lat="49.4081" lon="4.09688">
        <ele>120</ele>
        <time>2019-05-29T17:13:02Z</time>
      </trkpt>
      <trkpt lat="49.40804" lon="4.09686">
        <ele>120</ele>
        <time>2019-05-29T17:13:03Z</time>
      </trkpt>
      <trkpt lat="49.40797" lon="4.09685">
        <ele>120</ele>
        <time>2019-05-29T17:13:04Z</time>
      </trkpt>
      <trkpt lat="49.4079" lon="4.09684">
        <ele>120</ele>
        <time>2019-05-29T17:13:05Z</time>
      </trkpt>
      <trkpt lat="49.40784" lon="4.09683">
        <ele>121</ele>
        <time>2019-05-29T17:13:06Z</time>
      </trkpt>
      <trkpt lat="49.40778" lon="4.09682">
        <ele>121</ele>
        <time>2019-05-29T17:13:07Z</time>
      </trkpt>
      <trkpt lat="49.40771" lon="4.09681">
        <ele>121</ele>
        <time>2019-05-29T17:13:08Z</time>
      </trkpt>
      <trkpt lat="49.40765" lon="4.0968">
        <ele>121</ele>
        <time>2019-05-29T17:13:09Z</time>
      </trkpt>
      <trkpt lat="49.40759" lon="4.09679">
        <ele>121</ele>
        <time>2019-05-29T17:13:10Z</time>
      </trkpt>
      <trkpt lat="49.40754" lon="4.09678">
        <ele>121</ele>
        <time>2019-05-29T17:13:11Z</time>
      </trkpt>
      <trkpt lat="49.40748" lon="4.09677">
        <ele>121</ele>
        <time>2019-05-29T17:13:12Z</time>
      </trkpt>
      <trkpt lat="49.40742" lon="4.09676">
        <ele>121</ele>
        <time>2019-05-29T17:13:13Z</time>
      </trkpt>
      <trkpt lat="49.40736" lon="4.09675">
        <ele>121</ele>
        <time>2019-05-29T17:13:14Z</time>
      </trkpt>
      <trkpt lat="49.40731" lon="4.09674">
        <ele>121</ele>
        <time>2019-05-29T17:13:15Z</time>
      </trkpt>
      <trkpt lat="49.40725" lon="4.09673">
        <ele>121</ele>
        <time>2019-05-29T17:13:16Z</time>
      </trkpt>
      <trkpt lat="49.40719" lon="4.09672">
        <ele>121</ele>
        <time>2019-05-29T17:13:17Z</time>
      </trkpt>
      <trkpt lat="49.40713" lon="4.0967">
        <ele>121</ele>
        <time>2019-05-29T17:13:18Z</time>
      </trkpt>
      <trkpt lat="49.40708" lon="4.0967">
        <ele>122</ele>
        <time>2019-05-29T17:13:19Z</time>
      </trkpt>
      <trkpt lat="49.40702" lon="4.09669">
        <ele>122</ele>
        <time>2019-05-29T17:13:20Z</time>
      </trkpt>
      <trkpt lat="49.40697" lon="4.09668">
        <ele>122</ele>
        <time>2019-05-29T17:13:21Z</time>
      </trkpt>
      <trkpt lat="49.40692" lon="4.09667">
        <ele>122</ele>
        <time>2019-05-29T17:13:22Z</time>
      </trkpt>
      <trkpt lat="49.40687" lon="4.09666">
        <ele>122</ele>
        <time>2019-05-29T17:13:23Z</time>
      </trkpt>
      <trkpt lat="49.40681" lon="4.09665">
        <ele>122</ele>
        <time>2019-05-29T17:13:24Z</time>
      </trkpt>
      <trkpt lat="49.40676" lon="4.09664">
        <ele>122</ele>
        <time>2019-05-29T17:13:25Z</time>
      </trkpt>
      <trkpt lat="49.40671" lon="4.09663">
        <ele>122</ele>
        <time>2019-05-29T17:13:26Z</time>
      </trkpt>
      <trkpt lat="49.40666" lon="4.09662">
        <ele>122</ele>
        <time>2019-05-29T17:13:27Z</time>
      </trkpt>
      <trkpt lat="49.40661" lon="4.09661">
        <ele>122</ele>
        <time>2019-05-29T17:13:28Z</time>
      </trkpt>
      <trkpt lat="49.40656" lon="4.0966">
        <ele>122</ele>
        <time>2019-05-29T17:13:29Z</time>
      </trkpt>
      <trkpt lat="49.40651" lon="4.09659">
        <ele>122</ele>
        <time>2019-05-29T17:13:30Z</time>
      </trkpt>
      <trkpt lat="49.40647" lon="4.09659">
        <ele>122</ele>
        <time>2019-05-29T17:13:31Z</time>
      </trkpt>
      <trkpt lat="49.40642" lon="4.09658">
        <ele>122</ele>
        <time>2019-05-29T17:13:32Z</time>
      </trkpt>
      <trkpt lat="49.40638" lon="4.09657">
        <ele>122</ele>
        <time>2019-05-29T17:13:33Z</time>
      </trkpt>
      <trkpt lat="49.40633" lon="4.09657">
        <ele>122</ele>
        <time>2019-05-29T17:13:34Z</time>
      </trkpt>
      <trkpt lat="49.40629" lon="4.09656">
        <ele>123</ele>
        <time>2019-05-29T17:13:35Z</time>
      </trkpt>
      <trkpt lat="49.40624" lon="4.09655">
        <ele>122</ele>
        <time>2019-05-29T17:13:36Z</time>
      </trkpt>
      <trkpt lat="49.4062" lon="4.09654">
        <ele>123</ele>
        <time>2019-05-29T17:13:37Z</time>
      </trkpt>
      <trkpt lat="49.40615" lon="4.09653">
        <ele>123</ele>
        <time>2019-05-29T17:13:38Z</time>
      </trkpt>
      <trkpt lat="49.40611" lon="4.09653">
        <ele>123</ele>
        <time>2019-05-29T17:13:39Z</time>
      </trkpt>
      <trkpt lat="49.40607" lon="4.09652">
        <ele>123</ele>
        <time>2019-05-29T17:13:40Z</time>
      </trkpt>
      <trkpt lat="49.40602" lon="4.09651">
        <ele>123</ele>
        <time>2019-05-29T17:13:41Z</time>
      </trkpt>
      <trkpt lat="49.40598" lon="4.09651">
        <ele>123</ele>
        <time>2019-05-29T17:13:42Z</time>
      </trkpt>
      <trkpt lat="49.40594" lon="4.0965">
        <ele>123</ele>
        <time>2019-05-29T17:13:43Z</time>
      </trkpt>
      <trkpt lat="49.40589" lon="4.09649">
        <ele>124</ele>
        <time>2019-05-29T17:13:44Z</time>
      </trkpt>
      <trkpt lat="49.40585" lon="4.09649">
        <ele>124</ele>
        <time>2019-05-29T17:13:45Z</time>
      </trkpt>
      <trkpt lat="49.40581" lon="4.09648">
        <ele>124</ele>
        <time>2019-05-29T17:13:46Z</time>
      </trkpt>
      <trkpt lat="49.40577" lon="4.09647">
        <ele>124</ele>
        <time>2019-05-29T17:13:47Z</time>
      </trkpt>
      <trkpt lat="49.40573" lon="4.09646">
        <ele>124</ele>
        <time>2019-05-29T17:13:48Z</time>
      </trkpt>
      <trkpt lat="49.40569" lon="4.09645">
        <ele>125</ele>
        <time>2019-05-29T17:13:49Z</time>
      </trkpt>
      <trkpt lat="49.40564" lon="4.09645">
        <ele>125</ele>
        <time>2019-05-29T17:13:50Z</time>
      </trkpt>
      <trkpt lat="49.4056" lon="4.09644">
        <ele>125</ele>
        <time>2019-05-29T17:13:51Z</time>
      </trkpt>
      <trkpt lat="49.40556" lon="4.09643">
        <ele>125</ele>
        <time>2019-05-29T17:13:52Z</time>
      </trkpt>
      <trkpt lat="49.40552" lon="4.09643">
        <ele>125</ele>
        <time>2019-05-29T17:13:53Z</time>
      </trkpt>
      <trkpt lat="49.40547" lon="4.09642">
        <ele>125</ele>
        <time>2019-05-29T17:13:54Z</time>
      </trkpt>
      <trkpt lat="49.40543" lon="4.09641">
        <ele>126</ele>
        <time>2019-05-29T17:13:55Z</time>
      </trkpt>
      <trkpt lat="49.40539" lon="4.09641">
        <ele>126</ele>
        <time>2019-05-29T17:13:56Z</time>
      </trkpt>
      <trkpt lat="49.40535" lon="4.0964">
        <ele>126</ele>
        <time>2019-05-29T17:13:57Z</time>
      </trkpt>
      <trkpt lat="49.40531" lon="4.09639">
        <ele>127</ele>
        <time>2019-05-29T17:13:58Z</time>
      </trkpt>
      <trkpt lat="49.40526" lon="4.09638">
        <ele>127</ele>
        <time>2019-05-29T17:13:59Z</time>
      </trkpt>
      <trkpt lat="49.40522" lon="4.09638">
        <ele>127</ele>
        <time>2019-05-29T17:14:00Z</time>
      </trkpt>
      <trkpt lat="49.40518" lon="4.09637">
        <ele>127</ele>
        <time>2019-05-29T17:14:01Z</time>
      </trkpt>
      <trkpt lat="49.40514" lon="4.09637">
        <ele>127</ele>
        <time>2019-05-29T17:14:02Z</time>
      </trkpt>
      <trkpt lat="49.4051" lon="4.09636">
        <ele>127</ele>
        <time>2019-05-29T17:14:03Z</time>
      </trkpt>
      <trkpt lat="49.40506" lon="4.09635">
        <ele>127</ele>
        <time>2019-05-29T17:14:04Z</time>
      </trkpt>
      <trkpt lat="49.40501" lon="4.09634">
        <ele>127</ele>
        <time>2019-05-29T17:14:05Z</time>
      </trkpt>
      <trkpt lat="49.40497" lon="4.09634">
        <ele>128</ele>
        <time>2019-05-29T17:14:06Z</time>
      </trkpt>
      <trkpt lat="49.40493" lon="4.09633">
        <ele>128</ele>
        <time>2019-05-29T17:14:07Z</time>
      </trkpt>
      <trkpt lat="49.40489" lon="4.09632">
        <ele>128</ele>
        <time>2019-05-29T17:14:08Z</time>
      </trkpt>
      <trkpt lat="49.40485" lon="4.09631">
        <ele>128</ele>
        <time>2019-05-29T17:14:09Z</time>
      </trkpt>
      <trkpt lat="49.40481" lon="4.09631">
        <ele>128</ele>
        <time>2019-05-29T17:14:10Z</time>
      </trkpt>
      <trkpt lat="49.40477" lon="4.0963">
        <ele>128</ele>
        <time>2019-05-29T17:14:11Z</time>
      </trkpt>
      <trkpt lat="49.40472" lon="4.09629">
        <ele>129</ele>
        <time>2019-05-29T17:14:12Z</time>
      </trkpt>
      <trkpt lat="49.40469" lon="4.09628">
        <ele>129</ele>
        <time>2019-05-29T17:14:13Z</time>
      </trkpt>
      <trkpt lat="49.40465" lon="4.09628">
        <ele>129</ele>
        <time>2019-05-29T17:14:14Z</time>
      </trkpt>
      <trkpt lat="49.4046" lon="4.09627">
        <ele>129</ele>
        <time>2019-05-29T17:14:15Z</time>
      </trkpt>
      <trkpt lat="49.40456" lon="4.09626">
        <ele>129</ele>
        <time>2019-05-29T17:14:16Z</time>
      </trkpt>
      <trkpt lat="49.40452" lon="4.09625">
        <ele>129</ele>
        <time>2019-05-29T17:14:17Z</time>
      </trkpt>
      <trkpt lat="49.40448" lon="4.09625">
        <ele>130</ele>
        <time>2019-05-29T17:14:18Z</time>
      </trkpt>
      <trkpt lat="49.40444" lon="4.09624">
        <ele>130</ele>
        <time>2019-05-29T17:14:19Z</time>
      </trkpt>
      <trkpt lat="49.4044" lon="4.09624">
        <ele>130</ele>
        <time>2019-05-29T17:14:20Z</time>
      </trkpt>
      <trkpt lat="49.40436" lon="4.09623">
        <ele>130</ele>
        <time>2019-05-29T17:14:21Z</time>
      </trkpt>
      <trkpt lat="49.40432" lon="4.09622">
        <ele>131</ele>
        <time>2019-05-29T17:14:22Z</time>
      </trkpt>
      <trkpt lat="49.40427" lon="4.09621">
        <ele>131</ele>
        <time>2019-05-29T17:14:23Z</time>
      </trkpt>
      <trkpt lat="49.40423" lon="4.0962">
        <ele>131</ele>
        <time>2019-05-29T17:14:24Z</time>
      </trkpt>
      <trkpt lat="49.40419" lon="4.0962">
        <ele>131</ele>
        <time>2019-05-29T17:14:25Z</time>
      </trkpt>
      <trkpt lat="49.40415" lon="4.09619">
        <ele>131</ele>
        <time>2019-05-29T17:14:26Z</time>
      </trkpt>
      <trkpt lat="49.40411" lon="4.09619">
        <ele>132</ele>
        <time>2019-05-29T17:14:27Z</time>
      </trkpt>
      <trkpt lat="49.40407" lon="4.09618">
        <ele>132</ele>
        <time>2019-05-29T17:14:28Z</time>
      </trkpt>
      <trkpt lat="49.40403" lon="4.09617">
        <ele>132</ele>
        <time>2019-05-29T17:14:29Z</time>
      </trkpt>
      <trkpt lat="49.40399" lon="4.09616">
        <ele>132</ele>
        <time>2019-05-29T17:14:30Z</time>
      </trkpt>
      <trkpt lat="49.40394" lon="4.09615">
        <ele>132</ele>
        <time>2019-05-29T17:14:31Z</time>
      </trkpt>
      <trkpt lat="49.4039" lon="4.09615">
        <ele>133</ele>
        <time>2019-05-29T17:14:32Z</time>
      </trkpt>
      <trkpt lat="49.40386" lon="4.09614">
        <ele>133</ele>
        <time>2019-05-29T17:14:33Z</time>
      </trkpt>
      <trkpt lat="49.40382" lon="4.09613">
        <ele>133</ele>
        <time>2019-05-29T17:14:34Z</time>
      </trkpt>
      <trkpt lat="49.40378" lon="4.09612">
        <ele>133</ele>
        <time>2019-05-29T17:14:35Z</time>
      </trkpt>
      <trkpt lat="49.40374" lon="4.09611">
        <ele>133</ele>
        <time>2019-05-29T17:14:36Z</time>
      </trkpt>
      <trkpt lat="49.4037" lon="4.09611">
        <ele>134</ele>
        <time>2019-05-29T17:14:37Z</time>
      </trkpt>
      <trkpt lat="49.40366" lon="4.0961">
        <ele>134</ele>
        <time>2019-05-29T17:14:38Z</time>
      </trkpt>
      <trkpt lat="49.40361" lon="4.09609">
        <ele>134</ele>
        <time>2019-05-29T17:14:39Z</time>
      </trkpt>
      <trkpt lat="49.40358" lon="4.09609">
        <ele>134</ele>
        <time>2019-05-29T17:14:40Z</time>
      </trkpt>
      <trkpt lat="49.40353" lon="4.09608">
        <ele>134</ele>
        <time>2019-05-29T17:14:41Z</time>
      </trkpt>
      <trkpt lat="49.40349" lon="4.09608">
        <ele>134</ele>
        <time>2019-05-29T17:14:42Z</time>
      </trkpt>
      <trkpt lat="49.40345" lon="4.09607">
        <ele>134</ele>
        <time>2019-05-29T17:14:43Z</time>
      </trkpt>
      <trkpt lat="49.4034" lon="4.09606">
        <ele>134</ele>
        <time>2019-05-29T17:14:44Z</time>
      </trkpt>
      <trkpt lat="49.40336" lon="4.09605">
        <ele>134</ele>
        <time>2019-05-29T17:14:45Z</time>
      </trkpt>
      <trkpt lat="49.40331" lon="4.09605">
        <ele>135</ele>
        <time>2019-05-29T17:14:46Z</time>
      </trkpt>
      <trkpt lat="49.40327" lon="4.09604">
        <ele>135</ele>
        <time>2019-05-29T17:14:47Z</time>
      </trkpt>
      <trkpt lat="49.40322" lon="4.09603">
        <ele>135</ele>
        <time>2019-05-29T17:14:48Z</time>
      </trkpt>
      <trkpt lat="49.40318" lon="4.09602">
        <ele>135</ele>
        <time>2019-05-29T17:14:49Z</time>
      </trkpt>
      <trkpt lat="49.40313" lon="4.09601">
        <ele>135</ele>
        <time>2019-05-29T17:14:50Z</time>
      </trkpt>
      <trkpt lat="49.40309" lon="4.09601">
        <ele>135</ele>
        <time>2019-05-29T17:14:51Z</time>
      </trkpt>
      <trkpt lat="49.40304" lon="4.096">
        <ele>135</ele>
        <time>2019-05-29T17:14:52Z</time>
      </trkpt>
      <trkpt lat="49.403" lon="4.09599">
        <ele>135</ele>
        <time>2019-05-29T17:14:53Z</time>
      </trkpt>
      <trkpt lat="49.40295" lon="4.09598">
        <ele>135</ele>
        <time>2019-05-29T17:14:54Z</time>
      </trkpt>
      <trkpt lat="49.4029" lon="4.09598">
        <ele>135</ele>
        <time>2019-05-29T17:14:55Z</time>
      </trkpt>
      <trkpt lat="49.40286" lon="4.09597">
        <ele>135</ele>
        <time>2019-05-29T17:14:56Z</time>
      </trkpt>
      <trkpt lat="49.40281" lon="4.09596">
        <ele>135</ele>
        <time>2019-05-29T17:14:57Z</time>
      </trkpt>
      <trkpt lat="49.40277" lon="4.09595">
        <ele>135</ele>
        <time>2019-05-29T17:14:58Z</time>
      </trkpt>
      <trkpt lat="49.40273" lon="4.09594">
        <ele>135</ele>
        <time>2019-05-29T17:14:59Z</time>
      </trkpt>
      <trkpt lat="49.40268" lon="4.09593">
        <ele>135</ele>
        <time>2019-05-29T17:15:00Z</time>
      </trkpt>
      <trkpt lat="49.40263" lon="4.09593">
        <ele>135</ele>
        <time>2019-05-29T17:15:01Z</time>
      </trkpt>
      <trkpt lat="49.40259" lon="4.09592">
        <ele>135</ele>
        <time>2019-05-29T17:15:02Z</time>
      </trkpt>
      <trkpt lat="49.40254" lon="4.09591">
        <ele>135</ele>
        <time>2019-05-29T17:15:03Z</time>
      </trkpt>
      <trkpt lat="49.4025" lon="4.0959">
        <ele>135</ele>
        <time>2019-05-29T17:15:04Z</time>
      </trkpt>
      <trkpt lat="49.40245" lon="4.0959">
        <ele>135</ele>
        <time>2019-05-29T17:15:05Z</time>
      </trkpt>
      <trkpt lat="49.40241" lon="4.09589">
        <ele>135</ele>
        <time>2019-05-29T17:15:06Z</time>
      </trkpt>
      <trkpt lat="49.40236" lon="4.09588">
        <ele>135</ele>
        <time>2019-05-29T17:15:07Z</time>
      </trkpt>
      <trkpt lat="49.40231" lon="4.09588">
        <ele>135</ele>
        <time>2019-05-29T17:15:08Z</time>
      </trkpt>
      <trkpt lat="49.40226" lon="4.09587">
        <ele>135</ele>
        <time>2019-05-29T17:15:09Z</time>
      </trkpt>
      <trkpt lat="49.40221" lon="4.09586">
        <ele>135</ele>
        <time>2019-05-29T17:15:10Z</time>
      </trkpt>
      <trkpt lat="49.40217" lon="4.09586">
        <ele>136</ele>
        <time>2019-05-29T17:15:11Z</time>
      </trkpt>
      <trkpt lat="49.40212" lon="4.09585">
        <ele>136</ele>
        <time>2019-05-29T17:15:12Z</time>
      </trkpt>
      <trkpt lat="49.40207" lon="4.09584">
        <ele>136</ele>
        <time>2019-05-29T17:15:13Z</time>
      </trkpt>
      <trkpt lat="49.40202" lon="4.09583">
        <ele>136</ele>
        <time>2019-05-29T17:15:14Z</time>
      </trkpt>
      <trkpt lat="49.40197" lon="4.09582">
        <ele>136</ele>
        <time>2019-05-29T17:15:15Z</time>
      </trkpt>
      <trkpt lat="49.40192" lon="4.09581">
        <ele>136</ele>
        <time>2019-05-29T17:15:16Z</time>
      </trkpt>
      <trkpt lat="49.40187" lon="4.0958">
        <ele>136</ele>
        <time>2019-05-29T17:15:17Z</time>
      </trkpt>
      <trkpt lat="49.40182" lon="4.09578">
        <ele>136</ele>
        <time>2019-05-29T17:15:18Z</time>
      </trkpt>
      <trkpt lat="49.40177" lon="4.09577">
        <ele>136</ele>
        <time>2019-05-29T17:15:19Z</time>
      </trkpt>
      <trkpt lat="49.40172" lon="4.09575">
        <ele>136</ele>
        <time>2019-05-29T17:15:20Z</time>
      </trkpt>
      <trkpt lat="49.40166" lon="4.09575">
        <ele>136</ele>
        <time>2019-05-29T17:15:21Z</time>
      </trkpt>
      <trkpt lat="49.40161" lon="4.09573">
        <ele>136</ele>
        <time>2019-05-29T17:15:22Z</time>
      </trkpt>
      <trkpt lat="49.40155" lon="4.09572">
        <ele>136</ele>
        <time>2019-05-29T17:15:23Z</time>
      </trkpt>
      <trkpt lat="49.4015" lon="4.0957">
        <ele>136</ele>
        <time>2019-05-29T17:15:24Z</time>
      </trkpt>
      <trkpt lat="49.40144" lon="4.09568">
        <ele>135</ele>
        <time>2019-05-29T17:15:25Z</time>
      </trkpt>
      <trkpt lat="49.40138" lon="4.09566">
        <ele>135</ele>
        <time>2019-05-29T17:15:26Z</time>
      </trkpt>
      <trkpt lat="49.40132" lon="4.09564">
        <ele>135</ele>
        <time>2019-05-29T17:15:27Z</time>
      </trkpt>
      <trkpt lat="49.40126" lon="4.09562">
        <ele>135</ele>
        <time>2019-05-29T17:15:28Z</time>
      </trkpt>
      <trkpt lat="49.4012" lon="4.0956">
        <ele>135</ele>
        <time>2019-05-29T17:15:29Z</time>
      </trkpt>
      <trkpt lat="49.40114" lon="4.0956">
        <ele>135</ele>
        <time>2019-05-29T17:15:30Z</time>
      </trkpt>
      <trkpt lat="49.40107" lon="4.09559">
        <ele>135</ele>
        <time>2019-05-29T17:15:31Z</time>
      </trkpt>
      <trkpt lat="49.40101" lon="4.09558">
        <ele>134</ele>
        <time>2019-05-29T17:15:32Z</time>
      </trkpt>
      <trkpt lat="49.40094" lon="4.09557">
        <ele>134</ele>
        <time>2019-05-29T17:15:33Z</time>
      </trkpt>
      <trkpt lat="49.40088" lon="4.09557">
        <ele>134</ele>
        <time>2019-05-29T17:15:34Z</time>
      </trkpt>
      <trkpt lat="49.40081" lon="4.09556">
        <ele>134</ele>
        <time>2019-05-29T17:15:35Z</time>
      </trkpt>
      <trkpt lat="49.40075" lon="4.09555">
        <ele>134</ele>
        <time>2019-05-29T17:15:36Z</time>
      </trkpt>
      <trkpt lat="49.40068" lon="4.09555">
        <ele>134</ele>
        <time>2019-05-29T17:15:37Z</time>
      </trkpt>
      <trkpt lat="49.40061" lon="4.09555">
        <ele>133</ele>
        <time>2019-05-29T17:15:38Z</time>
      </trkpt>
      <trkpt lat="49.40055" lon="4.09554">
        <ele>133</ele>
        <time>2019-05-29T17:15:39Z</time>
      </trkpt>
      <trkpt lat="49.40048" lon="4.09554">
        <ele>133</ele>
        <time>2019-05-29T17:15:40Z</time>
      </trkpt>
      <trkpt lat="49.40041" lon="4.09554">
        <ele>133</ele>
        <time>2019-05-29T17:15:41Z</time>
      </trkpt>
      <trkpt lat="49.40034" lon="4.09553">
        <ele>133</ele>
        <time>2019-05-29T17:15:42Z</time>
      </trkpt>
      <trkpt lat="49.40027" lon="4.09553">
        <ele>133</ele>
        <time>2019-05-29T17:15:43Z</time>
      </trkpt>
      <trkpt lat="49.4002" lon="4.09553">
        <ele>133</ele>
        <time>2019-05-29T17:15:44Z</time>
      </trkpt>
      <trkpt lat="49.40013" lon="4.09553">
        <ele>133</ele>
        <time>2019-05-29T17:15:45Z</time>
      </trkpt>
      <trkpt lat="49.40006" lon="4.09552">
        <ele>133</ele>
        <time>2019-05-29T17:15:46Z</time>
      </trkpt>
      <trkpt lat="49.39999" lon="4.09552">
        <ele>133</ele>
        <time>2019-05-29T17:15:47Z</time>
      </trkpt>
      <trkpt lat="49.39992" lon="4.09552">
        <ele>133</ele>
        <time>2019-05-29T17:15:48Z</time>
      </trkpt>
      <trkpt lat="49.39986" lon="4.09551">
        <ele>133</ele>
        <time>2019-05-29T17:15:49Z</time>
      </trkpt>
      <trkpt lat="49.39979" lon="4.09551">
        <ele>133</ele>
        <time>2019-05-29T17:15:50Z</time>
      </trkpt>
      <trkpt lat="49.39972" lon="4.09551">
        <ele>133</ele>
        <time>2019-05-29T17:15:51Z</time>
      </trkpt>
      <trkpt lat="49.39965" lon="4.0955">
        <ele>133</ele>
        <time>2019-05-29T17:15:52Z</time>
      </trkpt>
      <trkpt lat="49.39959" lon="4.0955">
        <ele>133</ele>
        <time>2019-05-29T17:15:53Z</time>
      </trkpt>
      <trkpt lat="49.39952" lon="4.09549">
        <ele>133</ele>
        <time>2019-05-29T17:15:54Z</time>
      </trkpt>
      <trkpt lat="49.39945" lon="4.09549">
        <ele>133</ele>
        <time>2019-05-29T17:15:55Z</time>
      </trkpt>
      <trkpt lat="49.39938" lon="4.09549">
        <ele>133</ele>
        <time>2019-05-29T17:15:56Z</time>
      </trkpt>
      <trkpt lat="49.39931" lon="4.09548">
        <ele>133</ele>
        <time>2019-05-29T17:15:57Z</time>
      </trkpt>
      <trkpt lat="49.39924" lon="4.09548">
        <ele>133</ele>
        <time>2019-05-29T17:15:58Z</time>
      </trkpt>
      <trkpt lat="49.39916" lon="4.09548">
        <ele>133</ele>
        <time>2019-05-29T17:15:59Z</time>
      </trkpt>
      <trkpt lat="49.39909" lon="4.09548">
        <ele>133</ele>
        <time>2019-05-29T17:16:00Z</time>
      </trkpt>
      <trkpt lat="49.39895" lon="4.09548">
        <ele>133</ele>
        <time>2019-05-29T17:16:02Z</time>
      </trkpt>
      <trkpt lat="49.39887" lon="4.09548">
        <ele>133</ele>
        <time>2019-05-29T17:16:03Z</time>
      </trkpt>
      <trkpt lat="49.3988" lon="4.09548">
        <ele>133</ele>
        <time>2019-05-29T17:16:04Z</time>
      </trkpt>
      <trkpt lat="49.39872" lon="4.09549">
        <ele>132</ele>
        <time>2019-05-29T17:16:05Z</time>
      </trkpt>
      <trkpt lat="49.39865" lon="4.09549">
        <ele>132</ele>
        <time>2019-05-29T17:16:06Z</time>
      </trkpt>
      <trkpt lat="49.39858" lon="4.09549">
        <ele>132</ele>
        <time>2019-05-29T17:16:07Z</time>
      </trkpt>
      <trkpt lat="49.39851" lon="4.09549">
        <ele>132</ele>
        <time>2019-05-29T17:16:08Z</time>
      </trkpt>
      <trkpt lat="49.39844" lon="4.09549">
        <ele>132</ele>
        <time>2019-05-29T17:16:09Z</time>
      </trkpt>
      <trkpt lat="49.39837" lon="4.09549">
        <ele>132</ele>
        <time>2019-05-29T17:16:10Z</time>
      </trkpt>
      <trkpt lat="49.39829" lon="4.09549">
        <ele>132</ele>
        <time>2019-05-29T17:16:11Z</time>
      </trkpt>
      <trkpt lat="49.39821" lon="4.09549">
        <ele>132</ele>
        <time>2019-05-29T17:16:12Z</time>
      </trkpt>
      <trkpt lat="49.39814" lon="4.0955">
        <ele>132</ele>
        <time>2019-05-29T17:16:13Z</time>
      </trkpt>
      <trkpt lat="49.39807" lon="4.0955">
        <ele>132</ele>
        <time>2019-05-29T17:16:14Z</time>
      </trkpt>
      <trkpt lat="49.39799" lon="4.0955">
        <ele>131</ele>
        <time>2019-05-29T17:16:15Z</time>
      </trkpt>
      <trkpt lat="49.39792" lon="4.09551">
        <ele>131</ele>
        <time>2019-05-29T17:16:16Z</time>
      </trkpt>
      <trkpt lat="49.39784" lon="4.09551">
        <ele>131</ele>
        <time>2019-05-29T17:16:17Z</time>
      </trkpt>
      <trkpt lat="49.39776" lon="4.09551">
        <ele>131</ele>
        <time>2019-05-29T17:16:18Z</time>
      </trkpt>
      <trkpt lat="49.39769" lon="4.09552">
        <ele>131</ele>
        <time>2019-05-29T17:16:19Z</time>
      </trkpt>
      <trkpt lat="49.39761" lon="4.09552">
        <ele>131</ele>
        <time>2019-05-29T17:16:20Z</time>
      </trkpt>
      <trkpt lat="49.39753" lon="4.09552">
        <ele>131</ele>
        <time>2019-05-29T17:16:21Z</time>
      </trkpt>
      <trkpt lat="49.39746" lon="4.09552">
        <ele>131</ele>
        <time>2019-05-29T17:16:22Z</time>
      </trkpt>
      <trkpt lat="49.39738" lon="4.09553">
        <ele>130</ele>
        <time>2019-05-29T17:16:23Z</time>
      </trkpt>
      <trkpt lat="49.3973" lon="4.09553">
        <ele>130</ele>
        <time>2019-05-29T17:16:24Z</time>
      </trkpt>
      <trkpt lat="49.39722" lon="4.09553">
        <ele>131</ele>
        <time>2019-05-29T17:16:25Z</time>
      </trkpt>
      <trkpt lat="49.39714" lon="4.09553">
        <ele>131</ele>
        <time>2019-05-29T17:16:26Z</time>
      </trkpt>
      <trkpt lat="49.39706" lon="4.09553">
        <ele>131</ele>
        <time>2019-05-29T17:16:27Z</time>
      </trkpt>
      <trkpt lat="49.39698" lon="4.09554">
        <ele>131</ele>
        <time>2019-05-29T17:16:28Z</time>
      </trkpt>
      <trkpt lat="49.3969" lon="4.09554">
        <ele>130</ele>
        <time>2019-05-29T17:16:29Z</time>
      </trkpt>
      <trkpt lat="49.39681" lon="4.09554">
        <ele>130</ele>
        <time>2019-05-29T17:16:30Z</time>
      </trkpt>
      <trkpt lat="49.39673" lon="4.09554">
        <ele>130</ele>
        <time>2019-05-29T17:16:31Z</time>
      </trkpt>
      <trkpt lat="49.39665" lon="4.09554">
        <ele>130</ele>
        <time>2019-05-29T17:16:32Z</time>
      </trkpt>
      <trkpt lat="49.39657" lon="4.09554">
        <ele>129</ele>
        <time>2019-05-29T17:16:33Z</time>
      </trkpt>
      <trkpt lat="49.39648" lon="4.09554">
        <ele>129</ele>
        <time>2019-05-29T17:16:34Z</time>
      </trkpt>
      <trkpt lat="49.3964" lon="4.09555">
        <ele>129</ele>
        <time>2019-05-29T17:16:35Z</time>
      </trkpt>
      <trkpt lat="49.39631" lon="4.09555">
        <ele>129</ele>
        <time>2019-05-29T17:16:36Z</time>
      </trkpt>
      <trkpt lat="49.39623" lon="4.09556">
        <ele>128</ele>
        <time>2019-05-29T17:16:37Z</time>
      </trkpt>
      <trkpt lat="49.39614" lon="4.09556">
        <ele>128</ele>
        <time>2019-05-29T17:16:38Z</time>
      </trkpt>
      <trkpt lat="49.39605" lon="4.09556">
        <ele>128</ele>
        <time>2019-05-29T17:16:39Z</time>
      </trkpt>
      <trkpt lat="49.39596" lon="4.09556">
        <ele>128</ele>
        <time>2019-05-29T17:16:40Z</time>
      </trkpt>
      <trkpt lat="49.39587" lon="4.09556">
        <ele>127</ele>
        <time>2019-05-29T17:16:41Z</time>
      </trkpt>
      <trkpt lat="49.39578" lon="4.09557">
        <ele>127</ele>
        <time>2019-05-29T17:16:42Z</time>
      </trkpt>
      <trkpt lat="49.39569" lon="4.09557">
        <ele>127</ele>
        <time>2019-05-29T17:16:43Z</time>
      </trkpt>
      <trkpt lat="49.3956" lon="4.09558">
        <ele>127</ele>
        <time>2019-05-29T17:16:44Z</time>
      </trkpt>
      <trkpt lat="49.39551" lon="4.09558">
        <ele>127</ele>
        <time>2019-05-29T17:16:45Z</time>
      </trkpt>
      <trkpt lat="49.39542" lon="4.09558">
        <ele>127</ele>
        <time>2019-05-29T17:16:46Z</time>
      </trkpt>
      <trkpt lat="49.39533" lon="4.09558">
        <ele>127</ele>
        <time>2019-05-29T17:16:47Z</time>
      </trkpt>
      <trkpt lat="49.39524" lon="4.09559">
        <ele>127</ele>
        <time>2019-05-29T17:16:48Z</time>
      </trkpt>
      <trkpt lat="49.39515" lon="4.09559">
        <ele>127</ele>
        <time>2019-05-29T17:16:49Z</time>
      </trkpt>
      <trkpt lat="49.39506" lon="4.09559">
        <ele>126</ele>
        <time>2019-05-29T17:16:50Z</time>
      </trkpt>
      <trkpt lat="49.39497" lon="4.09559">
        <ele>126</ele>
        <time>2019-05-29T17:16:51Z</time>
      </trkpt>
      <trkpt lat="49.39488" lon="4.0956">
        <ele>126</ele>
        <time>2019-05-29T17:16:52Z</time>
      </trkpt>
      <trkpt lat="49.39479" lon="4.0956">
        <ele>126</ele>
        <time>2019-05-29T17:16:53Z</time>
      </trkpt>
      <trkpt lat="49.3947" lon="4.09561">
        <ele>126</ele>
        <time>2019-05-29T17:16:54Z</time>
      </trkpt>
      <trkpt lat="49.39461" lon="4.09561">
        <ele>126</ele>
        <time>2019-05-29T17:16:55Z</time>
      </trkpt>
      <trkpt lat="49.39452" lon="4.09561">
        <ele>126</ele>
        <time>2019-05-29T17:16:56Z</time>
      </trkpt>
      <trkpt lat="49.39443" lon="4.09561">
        <ele>126</ele>
        <time>2019-05-29T17:16:57Z</time>
      </trkpt>
      <trkpt lat="49.39434" lon="4.09561">
        <ele>126</ele>
        <time>2019-05-29T17:16:58Z</time>
      </trkpt>
      <trkpt lat="49.39425" lon="4.09561">
        <ele>126</ele>
        <time>2019-05-29T17:16:59Z</time>
      </trkpt>
      <trkpt lat="49.39417" lon="4.09561">
        <ele>125</ele>
        <time>2019-05-29T17:17:00Z</time>
      </trkpt>
      <trkpt lat="49.39408" lon="4.09561">
        <ele>125</ele>
        <time>2019-05-29T17:17:01Z</time>
      </trkpt>
      <trkpt lat="49.394" lon="4.09561">
        <ele>124</ele>
        <time>2019-05-29T17:17:02Z</time>
      </trkpt>
      <trkpt lat="49.39392" lon="4.09561">
        <ele>124</ele>
        <time>2019-05-29T17:17:03Z</time>
      </trkpt>
      <trkpt lat="49.39384" lon="4.09562">
        <ele>124</ele>
        <time>2019-05-29T17:17:04Z</time>
      </trkpt>
      <trkpt lat="49.39376" lon="4.09562">
        <ele>124</ele>
        <time>2019-05-29T17:17:05Z</time>
      </trkpt>
      <trkpt lat="49.39367" lon="4.09563">
        <ele>124</ele>
        <time>2019-05-29T17:17:06Z</time>
      </trkpt>
      <trkpt lat="49.39359" lon="4.09563">
        <ele>123</ele>
        <time>2019-05-29T17:17:07Z</time>
      </trkpt>
      <trkpt lat="49.3935" lon="4.09564">
        <ele>123</ele>
        <time>2019-05-29T17:17:08Z</time>
      </trkpt>
      <trkpt lat="49.39341" lon="4.09564">
        <ele>123</ele>
        <time>2019-05-29T17:17:09Z</time>
      </trkpt>
      <trkpt lat="49.39331" lon="4.09564">
        <ele>123</ele>
        <time>2019-05-29T17:17:10Z</time>
      </trkpt>
      <trkpt lat="49.39322" lon="4.09565">
        <ele>123</ele>
        <time>2019-05-29T17:17:11Z</time>
      </trkpt>
      <trkpt lat="49.39312" lon="4.09566">
        <ele>123</ele>
        <time>2019-05-29T17:17:12Z</time>
      </trkpt>
      <trkpt lat="49.39303" lon="4.09566">
        <ele>122</ele>
        <time>2019-05-29T17:17:13Z</time>
      </trkpt>
      <trkpt lat="49.39294" lon="4.09567">
        <ele>122</ele>
        <time>2019-05-29T17:17:14Z</time>
      </trkpt>
      <trkpt lat="49.39285" lon="4.09567">
        <ele>122</ele>
        <time>2019-05-29T17:17:15Z</time>
      </trkpt>
      <trkpt lat="49.39276" lon="4.09567">
        <ele>122</ele>
        <time>2019-05-29T17:17:16Z</time>
      </trkpt>
      <trkpt lat="49.39267" lon="4.09567">
        <ele>122</ele>
        <time>2019-05-29T17:17:17Z</time>
      </trkpt>
      <trkpt lat="49.39258" lon="4.09568">
        <ele>122</ele>
        <time>2019-05-29T17:17:18Z</time>
      </trkpt>
      <trkpt lat="49.39249" lon="4.09568">
        <ele>122</ele>
        <time>2019-05-29T17:17:19Z</time>
      </trkpt>
      <trkpt lat="49.3924" lon="4.09568">
        <ele>122</ele>
        <time>2019-05-29T17:17:20Z</time>
      </trkpt>
      <trkpt lat="49.39231" lon="4.09568">
        <ele>122</ele>
        <time>2019-05-29T17:17:21Z</time>
      </trkpt>
      <trkpt lat="49.39222" lon="4.09568">
        <ele>122</ele>
        <time>2019-05-29T17:17:22Z</time>
      </trkpt>
      <trkpt lat="49.39214" lon="4.09568">
        <ele>122</ele>
        <time>2019-05-29T17:17:23Z</time>
      </trkpt>
      <trkpt lat="49.39205" lon="4.09569">
        <ele>122</ele>
        <time>2019-05-29T17:17:24Z</time>
      </trkpt>
      <trkpt lat="49.39196" lon="4.09569">
        <ele>121</ele>
        <time>2019-05-29T17:17:25Z</time>
      </trkpt>
      <trkpt lat="49.39187" lon="4.0957">
        <ele>121</ele>
        <time>2019-05-29T17:17:26Z</time>
      </trkpt>
      <trkpt lat="49.39178" lon="4.09571">
        <ele>121</ele>
        <time>2019-05-29T17:17:27Z</time>
      </trkpt>
      <trkpt lat="49.3917" lon="4.09571">
        <ele>121</ele>
        <time>2019-05-29T17:17:28Z</time>
      </trkpt>
      <trkpt lat="49.39161" lon="4.09571">
        <ele>121</ele>
        <time>2019-05-29T17:17:29Z</time>
      </trkpt>
      <trkpt lat="49.39153" lon="4.09571">
        <ele>121</ele>
        <time>2019-05-29T17:17:30Z</time>
      </trkpt>
      <trkpt lat="49.39144" lon="4.09571">
        <ele>120</ele>
        <time>2019-05-29T17:17:31Z</time>
      </trkpt>
      <trkpt lat="49.39136" lon="4.09572">
        <ele>120</ele>
        <time>2019-05-29T17:17:32Z</time>
      </trkpt>
      <trkpt lat="49.39127" lon="4.09572">
        <ele>120</ele>
        <time>2019-05-29T17:17:33Z</time>
      </trkpt>
      <trkpt lat="49.39119" lon="4.09572">
        <ele>120</ele>
        <time>2019-05-29T17:17:34Z</time>
      </trkpt>
      <trkpt lat="49.3911" lon="4.09573">
        <ele>120</ele>
        <time>2019-05-29T17:17:35Z</time>
      </trkpt>
      <trkpt lat="49.39102" lon="4.09573">
        <ele>119</ele>
        <time>2019-05-29T17:17:36Z</time>
      </trkpt>
      <trkpt lat="49.39094" lon="4.09574">
        <ele>119</ele>
        <time>2019-05-29T17:17:37Z</time>
      </trkpt>
      <trkpt lat="49.39086" lon="4.09573">
        <ele>119</ele>
        <time>2019-05-29T17:17:38Z</time>
      </trkpt>
      <trkpt lat="49.39078" lon="4.09573">
        <ele>119</ele>
        <time>2019-05-29T17:17:39Z</time>
      </trkpt>
      <trkpt lat="49.3907" lon="4.09573">
        <ele>118</ele>
        <time>2019-05-29T17:17:40Z</time>
      </trkpt>
      <trkpt lat="49.39062" lon="4.09574">
        <ele>118</ele>
        <time>2019-05-29T17:17:41Z</time>
      </trkpt>
      <trkpt lat="49.39054" lon="4.09574">
        <ele>118</ele>
        <time>2019-05-29T17:17:42Z</time>
      </trkpt>
      <trkpt lat="49.39046" lon="4.09574">
        <ele>118</ele>
        <time>2019-05-29T17:17:43Z</time>
      </trkpt>
      <trkpt lat="49.39038" lon="4.09575">
        <ele>118</ele>
        <time>2019-05-29T17:17:44Z</time>
      </trkpt>
      <trkpt lat="49.3903" lon="4.09575">
        <ele>119</ele>
        <time>2019-05-29T17:17:45Z</time>
      </trkpt>
      <trkpt lat="49.39023" lon="4.09575">
        <ele>119</ele>
        <time>2019-05-29T17:17:46Z</time>
      </trkpt>
      <trkpt lat="49.39015" lon="4.09575">
        <ele>118</ele>
        <time>2019-05-29T17:17:47Z</time>
      </trkpt>
      <trkpt lat="49.39007" lon="4.09575">
        <ele>118</ele>
        <time>2019-05-29T17:17:48Z</time>
      </trkpt>
      <trkpt lat="49.39" lon="4.09575">
        <ele>118</ele>
        <time>2019-05-29T17:17:49Z</time>
      </trkpt>
      <trkpt lat="49.38992" lon="4.09575">
        <ele>119</ele>
        <time>2019-05-29T17:17:50Z</time>
      </trkpt>
      <trkpt lat="49.38985" lon="4.09576">
        <ele>119</ele>
        <time>2019-05-29T17:17:51Z</time>
      </trkpt>
      <trkpt lat="49.38976" lon="4.09576">
        <ele>119</ele>
        <time>2019-05-29T17:17:52Z</time>
      </trkpt>
      <trkpt lat="49.38968" lon="4.09576">
        <ele>119</ele>
        <time>2019-05-29T17:17:53Z</time>
      </trkpt>
      <trkpt lat="49.3896" lon="4.09577">
        <ele>119</ele>
        <time>2019-05-29T17:17:54Z</time>
      </trkpt>
      <trkpt lat="49.38952" lon="4.09577">
        <ele>119</ele>
        <time>2019-05-29T17:17:55Z</time>
      </trkpt>
      <trkpt lat="49.38943" lon="4.09578">
        <ele>119</ele>
        <time>2019-05-29T17:17:56Z</time>
      </trkpt>
      <trkpt lat="49.38935" lon="4.09578">
        <ele>119</ele>
        <time>2019-05-29T17:17:57Z</time>
      </trkpt>
      <trkpt lat="49.38927" lon="4.09578">
        <ele>119</ele>
        <time>2019-05-29T17:17:58Z</time>
      </trkpt>
      <trkpt lat="49.38919" lon="4.09578">
        <ele>119</ele>
        <time>2019-05-29T17:17:59Z</time>
      </trkpt>
      <trkpt lat="49.38911" lon="4.09579">
        <ele>118</ele>
        <time>2019-05-29T17:18:00Z</time>
      </trkpt>
      <trkpt lat="49.38902" lon="4.09579">
        <ele>118</ele>
        <time>2019-05-29T17:18:01Z</time>
      </trkpt>
      <trkpt lat="49.38894" lon="4.0958">
        <ele>118</ele>
        <time>2019-05-29T17:18:02Z</time>
      </trkpt>
      <trkpt lat="49.38886" lon="4.09581">
        <ele>118</ele>
        <time>2019-05-29T17:18:03Z</time>
      </trkpt>
      <trkpt lat="49.38878" lon="4.09582">
        <ele>117</ele>
        <time>2019-05-29T17:18:04Z</time>
      </trkpt>
      <trkpt lat="49.38869" lon="4.09583">
        <ele>117</ele>
        <time>2019-05-29T17:18:05Z</time>
      </trkpt>
      <trkpt lat="49.38862" lon="4.09584">
        <ele>117</ele>
        <time>2019-05-29T17:18:06Z</time>
      </trkpt>
      <trkpt lat="49.38854" lon="4.09585">
        <ele>117</ele>
        <time>2019-05-29T17:18:07Z</time>
      </trkpt>
      <trkpt lat="49.38845" lon="4.09586">
        <ele>117</ele>
        <time>2019-05-29T17:18:08Z</time>
      </trkpt>
      <trkpt lat="49.38837" lon="4.09586">
        <ele>116</ele>
        <time>2019-05-29T17:18:09Z</time>
      </trkpt>
      <trkpt lat="49.38829" lon="4.09586">
        <ele>116</ele>
        <time>2019-05-29T17:18:10Z</time>
      </trkpt>
      <trkpt lat="49.38821" lon="4.09586">
        <ele>116</ele>
        <time>2019-05-29T17:18:11Z</time>
      </trkpt>
      <trkpt lat="49.38813" lon="4.09587">
        <ele>117</ele>
        <time>2019-05-29T17:18:12Z</time>
      </trkpt>
      <trkpt lat="49.38805" lon="4.09587">
        <ele>117</ele>
        <time>2019-05-29T17:18:13Z</time>
      </trkpt>
      <trkpt lat="49.38798" lon="4.09588">
        <ele>116</ele>
        <time>2019-05-29T17:18:14Z</time>
      </trkpt>
      <trkpt lat="49.3879" lon="4.09589">
        <ele>116</ele>
        <time>2019-05-29T17:18:15Z</time>
      </trkpt>
      <trkpt lat="49.38783" lon="4.09589">
        <ele>116</ele>
        <time>2019-05-29T17:18:16Z</time>
      </trkpt>
      <trkpt lat="49.38775" lon="4.09589">
        <ele>116</ele>
        <time>2019-05-29T17:18:17Z</time>
      </trkpt>
      <trkpt lat="49.38767" lon="4.0959">
        <ele>116</ele>
        <time>2019-05-29T17:18:18Z</time>
      </trkpt>
      <trkpt lat="49.3876" lon="4.0959">
        <ele>116</ele>
        <time>2019-05-29T17:18:19Z</time>
      </trkpt>
      <trkpt lat="49.38752" lon="4.09591">
        <ele>115</ele>
        <time>2019-05-29T17:18:20Z</time>
      </trkpt>
      <trkpt lat="49.38744" lon="4.09591">
        <ele>116</ele>
        <time>2019-05-29T17:18:21Z</time>
      </trkpt>
      <trkpt lat="49.38737" lon="4.09591">
        <ele>116</ele>
        <time>2019-05-29T17:18:22Z</time>
      </trkpt>
      <trkpt lat="49.38729" lon="4.09591">
        <ele>116</ele>
        <time>2019-05-29T17:18:23Z</time>
      </trkpt>
      <trkpt lat="49.38721" lon="4.09591">
        <ele>115</ele>
        <time>2019-05-29T17:18:24Z</time>
      </trkpt>
      <trkpt lat="49.38713" lon="4.09592">
        <ele>115</ele>
        <time>2019-05-29T17:18:25Z</time>
      </trkpt>
      <trkpt lat="49.38706" lon="4.09593">
        <ele>115</ele>
        <time>2019-05-29T17:18:26Z</time>
      </trkpt>
      <trkpt lat="49.38698" lon="4.09594">
        <ele>115</ele>
        <time>2019-05-29T17:18:27Z</time>
      </trkpt>
      <trkpt lat="49.38691" lon="4.09594">
        <ele>115</ele>
        <time>2019-05-29T17:18:28Z</time>
      </trkpt>
      <trkpt lat="49.38684" lon="4.09593">
        <ele>114</ele>
        <time>2019-05-29T17:18:29Z</time>
      </trkpt>
      <trkpt lat="49.38677" lon="4.09594">
        <ele>114</ele>
        <time>2019-05-29T17:18:30Z</time>
      </trkpt>
      <trkpt lat="49.3867" lon="4.09594">
        <ele>114</ele>
        <time>2019-05-29T17:18:31Z</time>
      </trkpt>
      <trkpt lat="49.38664" lon="4.09595">
        <ele>114</ele>
        <time>2019-05-29T17:18:32Z</time>
      </trkpt>
      <trkpt lat="49.38658" lon="4.09597">
        <ele>115</ele>
        <time>2019-05-29T17:18:33Z</time>
      </trkpt>
      <trkpt lat="49.38651" lon="4.09599">
        <ele>115</ele>
        <time>2019-05-29T17:18:34Z</time>
      </trkpt>
      <trkpt lat="49.38644" lon="4.09602">
        <ele>114</ele>
        <time>2019-05-29T17:18:35Z</time>
      </trkpt>
      <trkpt lat="49.38638" lon="4.09605">
        <ele>114</ele>
        <time>2019-05-29T17:18:36Z</time>
      </trkpt>
      <trkpt lat="49.38631" lon="4.09607">
        <ele>114</ele>
        <time>2019-05-29T17:18:37Z</time>
      </trkpt>
      <trkpt lat="49.38625" lon="4.09609">
        <ele>114</ele>
        <time>2019-05-29T17:18:38Z</time>
      </trkpt>
      <trkpt lat="49.38618" lon="4.09612">
        <ele>114</ele>
        <time>2019-05-29T17:18:39Z</time>
      </trkpt>
      <trkpt lat="49.38612" lon="4.09615">
        <ele>114</ele>
        <time>2019-05-29T17:18:40Z</time>
      </trkpt>
      <trkpt lat="49.38605" lon="4.09618">
        <ele>114</ele>
        <time>2019-05-29T17:18:41Z</time>
      </trkpt>
      <trkpt lat="49.38599" lon="4.09621">
        <ele>114</ele>
        <time>2019-05-29T17:18:42Z</time>
      </trkpt>
      <trkpt lat="49.38592" lon="4.09623">
        <ele>115</ele>
        <time>2019-05-29T17:18:43Z</time>
      </trkpt>
      <trkpt lat="49.38587" lon="4.09627">
        <ele>115</ele>
        <time>2019-05-29T17:18:44Z</time>
      </trkpt>
      <trkpt lat="49.3858" lon="4.09632">
        <ele>115</ele>
        <time>2019-05-29T17:18:45Z</time>
      </trkpt>
      <trkpt lat="49.38574" lon="4.09637">
        <ele>114</ele>
        <time>2019-05-29T17:18:46Z</time>
      </trkpt>
      <trkpt lat="49.38568" lon="4.09643">
        <ele>114</ele>
        <time>2019-05-29T17:18:47Z</time>
      </trkpt>
      <trkpt lat="49.38562" lon="4.09649">
        <ele>114</ele>
        <time>2019-05-29T17:18:48Z</time>
      </trkpt>
      <trkpt lat="49.38557" lon="4.09656">
        <ele>114</ele>
        <time>2019-05-29T17:18:49Z</time>
      </trkpt>
      <trkpt lat="49.38551" lon="4.09663">
        <ele>114</ele>
        <time>2019-05-29T17:18:50Z</time>
      </trkpt>
      <trkpt lat="49.38546" lon="4.09671">
        <ele>113</ele>
        <time>2019-05-29T17:18:51Z</time>
      </trkpt>
      <trkpt lat="49.3854" lon="4.09679">
        <ele>113</ele>
        <time>2019-05-29T17:18:52Z</time>
      </trkpt>
      <trkpt lat="49.38535" lon="4.09686">
        <ele>113</ele>
        <time>2019-05-29T17:18:53Z</time>
      </trkpt>
      <trkpt lat="49.3853" lon="4.09694">
        <ele>113</ele>
        <time>2019-05-29T17:18:54Z</time>
      </trkpt>
      <trkpt lat="49.38524" lon="4.09702">
        <ele>113</ele>
        <time>2019-05-29T17:18:55Z</time>
      </trkpt>
      <trkpt lat="49.38519" lon="4.09709">
        <ele>113</ele>
        <time>2019-05-29T17:18:56Z</time>
      </trkpt>
      <trkpt lat="49.38514" lon="4.09716">
        <ele>113</ele>
        <time>2019-05-29T17:18:57Z</time>
      </trkpt>
      <trkpt lat="49.38509" lon="4.09724">
        <ele>113</ele>
        <time>2019-05-29T17:18:58Z</time>
      </trkpt>
      <trkpt lat="49.38504" lon="4.0973">
        <ele>113</ele>
        <time>2019-05-29T17:18:59Z</time>
      </trkpt>
      <trkpt lat="49.38499" lon="4.09737">
        <ele>113</ele>
        <time>2019-05-29T17:19:00Z</time>
      </trkpt>
      <trkpt lat="49.38493" lon="4.09743">
        <ele>113</ele>
        <time>2019-05-29T17:19:01Z</time>
      </trkpt>
      <trkpt lat="49.38487" lon="4.09749">
        <ele>113</ele>
        <time>2019-05-29T17:19:02Z</time>
      </trkpt>
      <trkpt lat="49.38482" lon="4.09755">
        <ele>113</ele>
        <time>2019-05-29T17:19:03Z</time>
      </trkpt>
      <trkpt lat="49.38476" lon="4.09762">
        <ele>113</ele>
        <time>2019-05-29T17:19:04Z</time>
      </trkpt>
      <trkpt lat="49.38471" lon="4.09769">
        <ele>113</ele>
        <time>2019-05-29T17:19:05Z</time>
      </trkpt>
      <trkpt lat="49.38466" lon="4.09776">
        <ele>113</ele>
        <time>2019-05-29T17:19:06Z</time>
      </trkpt>
      <trkpt lat="49.3846" lon="4.09782">
        <ele>113</ele>
        <time>2019-05-29T17:19:07Z</time>
      </trkpt>
      <trkpt lat="49.38455" lon="4.09788">
        <ele>113</ele>
        <time>2019-05-29T17:19:08Z</time>
      </trkpt>
      <trkpt lat="49.3845" lon="4.09795">
        <ele>113</ele>
        <time>2019-05-29T17:19:09Z</time>
      </trkpt>
      <trkpt lat="49.38445" lon="4.09802">
        <ele>113</ele>
        <time>2019-05-29T17:19:10Z</time>
      </trkpt>
      <trkpt lat="49.38439" lon="4.09808">
        <ele>113</ele>
        <time>2019-05-29T17:19:11Z</time>
      </trkpt>
      <trkpt lat="49.38433" lon="4.09815">
        <ele>113</ele>
        <time>2019-05-29T17:19:12Z</time>
      </trkpt>
      <trkpt lat="49.38427" lon="4.09823">
        <ele>113</ele>
        <time>2019-05-29T17:19:13Z</time>
      </trkpt>
      <trkpt lat="49.38421" lon="4.09829">
        <ele>114</ele>
        <time>2019-05-29T17:19:14Z</time>
      </trkpt>
      <trkpt lat="49.38415" lon="4.09835">
        <ele>114</ele>
        <time>2019-05-29T17:19:15Z</time>
      </trkpt>
      <trkpt lat="49.38409" lon="4.09841">
        <ele>114</ele>
        <time>2019-05-29T17:19:16Z</time>
      </trkpt>
      <trkpt lat="49.38403" lon="4.09846">
        <ele>114</ele>
        <time>2019-05-29T17:19:17Z</time>
      </trkpt>
      <trkpt lat="49.38397" lon="4.09851">
        <ele>114</ele>
        <time>2019-05-29T17:19:18Z</time>
      </trkpt>
      <trkpt lat="49.38391" lon="4.09856">
        <ele>115</ele>
        <time>2019-05-29T17:19:19Z</time>
      </trkpt>
      <trkpt lat="49.38385" lon="4.09861">
        <ele>115</ele>
        <time>2019-05-29T17:19:20Z</time>
      </trkpt>
      <trkpt lat="49.38379" lon="4.09866">
        <ele>116</ele>
        <time>2019-05-29T17:19:21Z</time>
      </trkpt>
      <trkpt lat="49.38373" lon="4.09872">
        <ele>116</ele>
        <time>2019-05-29T17:19:22Z</time>
      </trkpt>
      <trkpt lat="49.38367" lon="4.09877">
        <ele>116</ele>
        <time>2019-05-29T17:19:23Z</time>
      </trkpt>
      <trkpt lat="49.3836" lon="4.09882">
        <ele>116</ele>
        <time>2019-05-29T17:19:24Z</time>
      </trkpt>
      <trkpt lat="49.38354" lon="4.09887">
        <ele>116</ele>
        <time>2019-05-29T17:19:25Z</time>
      </trkpt>
      <trkpt lat="49.38347" lon="4.09892">
        <ele>116</ele>
        <time>2019-05-29T17:19:26Z</time>
      </trkpt>
      <trkpt lat="49.38341" lon="4.09898">
        <ele>115</ele>
        <time>2019-05-29T17:19:27Z</time>
      </trkpt>
      <trkpt lat="49.38335" lon="4.09903">
        <ele>115</ele>
        <time>2019-05-29T17:19:28Z</time>
      </trkpt>
      <trkpt lat="49.38329" lon="4.09907">
        <ele>115</ele>
        <time>2019-05-29T17:19:29Z</time>
      </trkpt>
      <trkpt lat="49.38323" lon="4.09911">
        <ele>115</ele>
        <time>2019-05-29T17:19:30Z</time>
      </trkpt>
      <trkpt lat="49.38317" lon="4.09915">
        <ele>115</ele>
        <time>2019-05-29T17:19:31Z</time>
      </trkpt>
      <trkpt lat="49.38311" lon="4.0992">
        <ele>115</ele>
        <time>2019-05-29T17:19:32Z</time>
      </trkpt>
      <trkpt lat="49.38304" lon="4.09924">
        <ele>114</ele>
        <time>2019-05-29T17:19:33Z</time>
      </trkpt>
      <trkpt lat="49.38298" lon="4.09928">
        <ele>114</ele>
        <time>2019-05-29T17:19:34Z</time>
      </trkpt>
      <trkpt lat="49.38291" lon="4.09932">
        <ele>114</ele>
        <time>2019-05-29T17:19:35Z</time>
      </trkpt>
      <trkpt lat="49.38285" lon="4.09936">
        <ele>114</ele>
        <time>2019-05-29T17:19:36Z</time>
      </trkpt>
      <trkpt lat="49.38278" lon="4.09939">
        <ele>114</ele>
        <time>2019-05-29T17:19:37Z</time>
      </trkpt>
      <trkpt lat="49.38272" lon="4.09941">
        <ele>113</ele>
        <time>2019-05-29T17:19:38Z</time>
      </trkpt>
      <trkpt lat="49.38265" lon="4.09944">
        <ele>113</ele>
        <time>2019-05-29T17:19:39Z</time>
      </trkpt>
      <trkpt lat="49.38258" lon="4.09946">
        <ele>113</ele>
        <time>2019-05-29T17:19:40Z</time>
      </trkpt>
      <trkpt lat="49.38252" lon="4.09947">
        <ele>113</ele>
        <time>2019-05-29T17:19:41Z</time>
      </trkpt>
      <trkpt lat="49.38245" lon="4.09948">
        <ele>113</ele>
        <time>2019-05-29T17:19:42Z</time>
      </trkpt>
      <trkpt lat="49.38238" lon="4.09949">
        <ele>112</ele>
        <time>2019-05-29T17:19:43Z</time>
      </trkpt>
      <trkpt lat="49.38231" lon="4.0995">
        <ele>112</ele>
        <time>2019-05-29T17:19:44Z</time>
      </trkpt>
      <trkpt lat="49.38225" lon="4.0995">
        <ele>113</ele>
        <time>2019-05-29T17:19:45Z</time>
      </trkpt>
      <trkpt lat="49.38218" lon="4.09951">
        <ele>113</ele>
        <time>2019-05-29T17:19:46Z</time>
      </trkpt>
      <trkpt lat="49.38211" lon="4.09951">
        <ele>114</ele>
        <time>2019-05-29T17:19:47Z</time>
      </trkpt>
      <trkpt lat="49.38204" lon="4.09951">
        <ele>114</ele>
        <time>2019-05-29T17:19:48Z</time>
      </trkpt>
      <trkpt lat="49.38198" lon="4.09952">
        <ele>114</ele>
        <time>2019-05-29T17:19:49Z</time>
      </trkpt>
      <trkpt lat="49.38192" lon="4.09953">
        <ele>114</ele>
        <time>2019-05-29T17:19:50Z</time>
      </trkpt>
      <trkpt lat="49.38186" lon="4.09954">
        <ele>114</ele>
        <time>2019-05-29T17:19:51Z</time>
      </trkpt>
      <trkpt lat="49.38181" lon="4.09956">
        <ele>114</ele>
        <time>2019-05-29T17:19:52Z</time>
      </trkpt>
      <trkpt lat="49.38174" lon="4.09956">
        <ele>114</ele>
        <time>2019-05-29T17:19:53Z</time>
      </trkpt>
      <trkpt lat="49.38168" lon="4.09957">
        <ele>114</ele>
        <time>2019-05-29T17:19:54Z</time>
      </trkpt>
      <trkpt lat="49.38162" lon="4.09957">
        <ele>114</ele>
        <time>2019-05-29T17:19:55Z</time>
      </trkpt>
      <trkpt lat="49.38155" lon="4.09955">
        <ele>114</ele>
        <time>2019-05-29T17:19:56Z</time>
      </trkpt>
      <trkpt lat="49.38149" lon="4.09954">
        <ele>114</ele>
        <time>2019-05-29T17:19:57Z</time>
      </trkpt>
      <trkpt lat="49.38142" lon="4.09952">
        <ele>114</ele>
        <time>2019-05-29T17:19:58Z</time>
      </trkpt>
      <trkpt lat="49.38136" lon="4.09949">
        <ele>114</ele>
        <time>2019-05-29T17:19:59Z</time>
      </trkpt>
      <trkpt lat="49.3813" lon="4.09946">
        <ele>114</ele>
        <time>2019-05-29T17:20:00Z</time>
      </trkpt>
      <trkpt lat="49.38124" lon="4.09941">
        <ele>113</ele>
        <time>2019-05-29T17:20:01Z</time>
      </trkpt>
      <trkpt lat="49.38118" lon="4.09935">
        <ele>113</ele>
        <time>2019-05-29T17:20:02Z</time>
      </trkpt>
      <trkpt lat="49.38112" lon="4.09929">
        <ele>113</ele>
        <time>2019-05-29T17:20:03Z</time>
      </trkpt>
      <trkpt lat="49.38106" lon="4.09923">
        <ele>113</ele>
        <time>2019-05-29T17:20:04Z</time>
      </trkpt>
      <trkpt lat="49.38101" lon="4.09917">
        <ele>112</ele>
        <time>2019-05-29T17:20:05Z</time>
      </trkpt>
      <trkpt lat="49.38095" lon="4.0991">
        <ele>112</ele>
        <time>2019-05-29T17:20:06Z</time>
      </trkpt>
      <trkpt lat="49.38091" lon="4.09904">
        <ele>112</ele>
        <time>2019-05-29T17:20:07Z</time>
      </trkpt>
      <trkpt lat="49.38085" lon="4.09898">
        <ele>112</ele>
        <time>2019-05-29T17:20:08Z</time>
      </trkpt>
      <trkpt lat="49.38079" lon="4.09891">
        <ele>112</ele>
        <time>2019-05-29T17:20:09Z</time>
      </trkpt>
      <trkpt lat="49.38074" lon="4.09885">
        <ele>113</ele>
        <time>2019-05-29T17:20:10Z</time>
      </trkpt>
      <trkpt lat="49.38069" lon="4.0988">
        <ele>113</ele>
        <time>2019-05-29T17:20:11Z</time>
      </trkpt>
      <trkpt lat="49.38064" lon="4.09874">
        <ele>113</ele>
        <time>2019-05-29T17:20:12Z</time>
      </trkpt>
      <trkpt lat="49.38059" lon="4.09868">
        <ele>113</ele>
        <time>2019-05-29T17:20:13Z</time>
      </trkpt>
      <trkpt lat="49.38053" lon="4.09862">
        <ele>113</ele>
        <time>2019-05-29T17:20:14Z</time>
      </trkpt>
      <trkpt lat="49.38048" lon="4.09856">
        <ele>113</ele>
        <time>2019-05-29T17:20:15Z</time>
      </trkpt>
      <trkpt lat="49.38043" lon="4.09851">
        <ele>113</ele>
        <time>2019-05-29T17:20:16Z</time>
      </trkpt>
      <trkpt lat="49.38038" lon="4.09845">
        <ele>112</ele>
        <time>2019-05-29T17:20:17Z</time>
      </trkpt>
      <trkpt lat="49.38032" lon="4.09839">
        <ele>112</ele>
        <time>2019-05-29T17:20:18Z</time>
      </trkpt>
      <trkpt lat="49.38027" lon="4.09832">
        <ele>112</ele>
        <time>2019-05-29T17:20:19Z</time>
      </trkpt>
      <trkpt lat="49.38021" lon="4.09826">
        <ele>112</ele>
        <time>2019-05-29T17:20:20Z</time>
      </trkpt>
      <trkpt lat="49.38016" lon="4.09819">
        <ele>112</ele>
        <time>2019-05-29T17:20:21Z</time>
      </trkpt>
      <trkpt lat="49.3801" lon="4.09813">
        <ele>112</ele>
        <time>2019-05-29T17:20:22Z</time>
      </trkpt>
      <trkpt lat="49.38004" lon="4.09806">
        <ele>112</ele>
        <time>2019-05-29T17:20:23Z</time>
      </trkpt>
      <trkpt lat="49.37998" lon="4.098">
        <ele>112</ele>
        <time>2019-05-29T17:20:24Z</time>
      </trkpt>
      <trkpt lat="49.37993" lon="4.09794">
        <ele>112</ele>
        <time>2019-05-29T17:20:25Z</time>
      </trkpt>
      <trkpt lat="49.37987" lon="4.09787">
        <ele>112</ele>
        <time>2019-05-29T17:20:26Z</time>
      </trkpt>
      <trkpt lat="49.37982" lon="4.09781">
        <ele>112</ele>
        <time>2019-05-29T17:20:27Z</time>
      </trkpt>
      <trkpt lat="49.37976" lon="4.09774">
        <ele>112</ele>
        <time>2019-05-29T17:20:28Z</time>
      </trkpt>
      <trkpt lat="49.37971" lon="4.09768">
        <ele>112</ele>
        <time>2019-05-29T17:20:29Z</time>
      </trkpt>
      <trkpt lat="49.37966" lon="4.09762">
        <ele>112</ele>
        <time>2019-05-29T17:20:30Z</time>
      </trkpt>
      <trkpt lat="49.3796" lon="4.09756">
        <ele>112</ele>
        <time>2019-05-29T17:20:31Z</time>
      </trkpt>
      <trkpt lat="49.37955" lon="4.0975">
        <ele>112</ele>
        <time>2019-05-29T17:20:32Z</time>
      </trkpt>
      <trkpt lat="49.37949" lon="4.09743">
        <ele>112</ele>
        <time>2019-05-29T17:20:33Z</time>
      </trkpt>
      <trkpt lat="49.37944" lon="4.09736">
        <ele>112</ele>
        <time>2019-05-29T17:20:34Z</time>
      </trkpt>
      <trkpt lat="49.37938" lon="4.0973">
        <ele>112</ele>
        <time>2019-05-29T17:20:35Z</time>
      </trkpt>
      <trkpt lat="49.37933" lon="4.09724">
        <ele>112</ele>
        <time>2019-05-29T17:20:36Z</time>
      </trkpt>
      <trkpt lat="49.37928" lon="4.09718">
        <ele>112</ele>
        <time>2019-05-29T17:20:37Z</time>
      </trkpt>
      <trkpt lat="49.37923" lon="4.09712">
        <ele>112</ele>
        <time>2019-05-29T17:20:38Z</time>
      </trkpt>
      <trkpt lat="49.37918" lon="4.09706">
        <ele>112</ele>
        <time>2019-05-29T17:20:39Z</time>
      </trkpt>
      <trkpt lat="49.37912" lon="4.097">
        <ele>111</ele>
        <time>2019-05-29T17:20:40Z</time>
      </trkpt>
      <trkpt lat="49.37907" lon="4.09694">
        <ele>111</ele>
        <time>2019-05-29T17:20:41Z</time>
      </trkpt>
      <trkpt lat="49.37902" lon="4.09688">
        <ele>112</ele>
        <time>2019-05-29T17:20:42Z</time>
      </trkpt>
      <trkpt lat="49.37896" lon="4.09682">
        <ele>112</ele>
        <time>2019-05-29T17:20:43Z</time>
      </trkpt>
      <trkpt lat="49.37891" lon="4.09676">
        <ele>112</ele>
        <time>2019-05-29T17:20:44Z</time>
      </trkpt>
      <trkpt lat="49.37886" lon="4.0967">
        <ele>112</ele>
        <time>2019-05-29T17:20:45Z</time>
      </trkpt>
      <trkpt lat="49.3788" lon="4.09664">
        <ele>112</ele>
        <time>2019-05-29T17:20:46Z</time>
      </trkpt>
      <trkpt lat="49.37875" lon="4.09658">
        <ele>112</ele>
        <time>2019-05-29T17:20:47Z</time>
      </trkpt>
      <trkpt lat="49.3787" lon="4.09653">
        <ele>112</ele>
        <time>2019-05-29T17:20:48Z</time>
      </trkpt>
      <trkpt lat="49.37865" lon="4.09647">
        <ele>112</ele>
        <time>2019-05-29T17:20:49Z</time>
      </trkpt>
      <trkpt lat="49.37859" lon="4.09641">
        <ele>112</ele>
        <time>2019-05-29T17:20:50Z</time>
      </trkpt>
      <trkpt lat="49.37854" lon="4.09635">
        <ele>112</ele>
        <time>2019-05-29T17:20:51Z</time>
      </trkpt>
      <trkpt lat="49.37849" lon="4.09628">
        <ele>112</ele>
        <time>2019-05-29T17:20:52Z</time>
      </trkpt>
      <trkpt lat="49.37843" lon="4.09622">
        <ele>113</ele>
        <time>2019-05-29T17:20:53Z</time>
      </trkpt>
      <trkpt lat="49.37838" lon="4.09617">
        <ele>113</ele>
        <time>2019-05-29T17:20:54Z</time>
      </trkpt>
      <trkpt lat="49.37833" lon="4.09611">
        <ele>113</ele>
        <time>2019-05-29T17:20:55Z</time>
      </trkpt>
      <trkpt lat="49.37828" lon="4.09605">
        <ele>113</ele>
        <time>2019-05-29T17:20:56Z</time>
      </trkpt>
      <trkpt lat="49.37823" lon="4.09599">
        <ele>113</ele>
        <time>2019-05-29T17:20:57Z</time>
      </trkpt>
      <trkpt lat="49.37818" lon="4.09593">
        <ele>113</ele>
        <time>2019-05-29T17:20:58Z</time>
      </trkpt>
      <trkpt lat="49.37813" lon="4.09587">
        <ele>113</ele>
        <time>2019-05-29T17:20:59Z</time>
      </trkpt>
      <trkpt lat="49.37809" lon="4.09582">
        <ele>114</ele>
        <time>2019-05-29T17:21:00Z</time>
      </trkpt>
      <trkpt lat="49.37804" lon="4.09576">
        <ele>114</ele>
        <time>2019-05-29T17:21:01Z</time>
      </trkpt>
      <trkpt lat="49.378" lon="4.09571">
        <ele>114</ele>
        <time>2019-05-29T17:21:02Z</time>
      </trkpt>
      <trkpt lat="49.37795" lon="4.09566">
        <ele>114</ele>
        <time>2019-05-29T17:21:03Z</time>
      </trkpt>
      <trkpt lat="49.37791" lon="4.09561">
        <ele>114</ele>
        <time>2019-05-29T17:21:04Z</time>
      </trkpt>
      <trkpt lat="49.37786" lon="4.09556">
        <ele>114</ele>
        <time>2019-05-29T17:21:05Z</time>
      </trkpt>
      <trkpt lat="49.37782" lon="4.09551">
        <ele>114</ele>
        <time>2019-05-29T17:21:06Z</time>
      </trkpt>
      <trkpt lat="49.37777" lon="4.09546">
        <ele>114</ele>
        <time>2019-05-29T17:21:07Z</time>
      </trkpt>
      <trkpt lat="49.37773" lon="4.09541">
        <ele>114</ele>
        <time>2019-05-29T17:21:08Z</time>
      </trkpt>
      <trkpt lat="49.37768" lon="4.09536">
        <ele>115</ele>
        <time>2019-05-29T17:21:09Z</time>
      </trkpt>
      <trkpt lat="49.37764" lon="4.09531">
        <ele>115</ele>
        <time>2019-05-29T17:21:10Z</time>
      </trkpt>
      <trkpt lat="49.3776" lon="4.09526">
        <ele>115</ele>
        <time>2019-05-29T17:21:11Z</time>
      </trkpt>
      <trkpt lat="49.37756" lon="4.09521">
        <ele>115</ele>
        <time>2019-05-29T17:21:12Z</time>
      </trkpt>
      <trkpt lat="49.37752" lon="4.09516">
        <ele>115</ele>
        <time>2019-05-29T17:21:13Z</time>
      </trkpt>
      <trkpt lat="49.37748" lon="4.09512">
        <ele>116</ele>
        <time>2019-05-29T17:21:14Z</time>
      </trkpt>
      <trkpt lat="49.37744" lon="4.09507">
        <ele>116</ele>
        <time>2019-05-29T17:21:15Z</time>
      </trkpt>
      <trkpt lat="49.3774" lon="4.09502">
        <ele>116</ele>
        <time>2019-05-29T17:21:16Z</time>
      </trkpt>
      <trkpt lat="49.37736" lon="4.09498">
        <ele>116</ele>
        <time>2019-05-29T17:21:17Z</time>
      </trkpt>
      <trkpt lat="49.37731" lon="4.09493">
        <ele>116</ele>
        <time>2019-05-29T17:21:18Z</time>
      </trkpt>
      <trkpt lat="49.37727" lon="4.09489">
        <ele>117</ele>
        <time>2019-05-29T17:21:19Z</time>
      </trkpt>
      <trkpt lat="49.37724" lon="4.09484">
        <ele>117</ele>
        <time>2019-05-29T17:21:20Z</time>
      </trkpt>
      <trkpt lat="49.3772" lon="4.0948">
        <ele>117</ele>
        <time>2019-05-29T17:21:21Z</time>
      </trkpt>
      <trkpt lat="49.37716" lon="4.09475">
        <ele>118</ele>
        <time>2019-05-29T17:21:22Z</time>
      </trkpt>
      <trkpt lat="49.37712" lon="4.09471">
        <ele>118</ele>
        <time>2019-05-29T17:21:23Z</time>
      </trkpt>
      <trkpt lat="49.37708" lon="4.09467">
        <ele>118</ele>
        <time>2019-05-29T17:21:24Z</time>
      </trkpt>
      <trkpt lat="49.37704" lon="4.09462">
        <ele>118</ele>
        <time>2019-05-29T17:21:25Z</time>
      </trkpt>
      <trkpt lat="49.377" lon="4.09458">
        <ele>118</ele>
        <time>2019-05-29T17:21:26Z</time>
      </trkpt>
      <trkpt lat="49.37696" lon="4.09453">
        <ele>119</ele>
        <time>2019-05-29T17:21:27Z</time>
      </trkpt>
      <trkpt lat="49.37692" lon="4.09449">
        <ele>119</ele>
        <time>2019-05-29T17:21:28Z</time>
      </trkpt>
      <trkpt lat="49.37689" lon="4.09444">
        <ele>119</ele>
        <time>2019-05-29T17:21:29Z</time>
      </trkpt>
      <trkpt lat="49.37685" lon="4.09439">
        <ele>119</ele>
        <time>2019-05-29T17:21:30Z</time>
      </trkpt>
      <trkpt lat="49.37681" lon="4.09435">
        <ele>119</ele>
        <time>2019-05-29T17:21:31Z</time>
      </trkpt>
      <trkpt lat="49.37677" lon="4.09431">
        <ele>119</ele>
        <time>2019-05-29T17:21:32Z</time>
      </trkpt>
      <trkpt lat="49.37673" lon="4.09426">
        <ele>119</ele>
        <time>2019-05-29T17:21:33Z</time>
      </trkpt>
      <trkpt lat="49.37669" lon="4.09422">
        <ele>120</ele>
        <time>2019-05-29T17:21:34Z</time>
      </trkpt>
      <trkpt lat="49.37665" lon="4.09417">
        <ele>120</ele>
        <time>2019-05-29T17:21:35Z</time>
      </trkpt>
      <trkpt lat="49.37662" lon="4.09413">
        <ele>120</ele>
        <time>2019-05-29T17:21:36Z</time>
      </trkpt>
      <trkpt lat="49.37658" lon="4.09409">
        <ele>120</ele>
        <time>2019-05-29T17:21:37Z</time>
      </trkpt>
      <trkpt lat="49.37654" lon="4.09405">
        <ele>120</ele>
        <time>2019-05-29T17:21:38Z</time>
      </trkpt>
      <trkpt lat="49.3765" lon="4.094">
        <ele>121</ele>
        <time>2019-05-29T17:21:39Z</time>
      </trkpt>
      <trkpt lat="49.37646" lon="4.09396">
        <ele>121</ele>
        <time>2019-05-29T17:21:40Z</time>
      </trkpt>
      <trkpt lat="49.37643" lon="4.09391">
        <ele>121</ele>
        <time>2019-05-29T17:21:41Z</time>
      </trkpt>
      <trkpt lat="49.37639" lon="4.09387">
        <ele>121</ele>
        <time>2019-05-29T17:21:42Z</time>
      </trkpt>
      <trkpt lat="49.37635" lon="4.09382">
        <ele>121</ele>
        <time>2019-05-29T17:21:43Z</time>
      </trkpt>
      <trkpt lat="49.37631" lon="4.09378">
        <ele>121</ele>
        <time>2019-05-29T17:21:44Z</time>
      </trkpt>
      <trkpt lat="49.37627" lon="4.09374">
        <ele>121</ele>
        <time>2019-05-29T17:21:45Z</time>
      </trkpt>
      <trkpt lat="49.37624" lon="4.09369">
        <ele>121</ele>
        <time>2019-05-29T17:21:46Z</time>
      </trkpt>
      <trkpt lat="49.3762" lon="4.09364">
        <ele>122</ele>
        <time>2019-05-29T17:21:47Z</time>
      </trkpt>
      <trkpt lat="49.37615" lon="4.09359">
        <ele>122</ele>
        <time>2019-05-29T17:21:48Z</time>
      </trkpt>
      <trkpt lat="49.37611" lon="4.09355">
        <ele>122</ele>
        <time>2019-05-29T17:21:49Z</time>
      </trkpt>
      <trkpt lat="49.37607" lon="4.0935">
        <ele>122</ele>
        <time>2019-05-29T17:21:50Z</time>
      </trkpt>
      <trkpt lat="49.37604" lon="4.09345">
        <ele>122</ele>
        <time>2019-05-29T17:21:51Z</time>
      </trkpt>
      <trkpt lat="49.376" lon="4.09341">
        <ele>122</ele>
        <time>2019-05-29T17:21:52Z</time>
      </trkpt>
      <trkpt lat="49.37595" lon="4.09337">
        <ele>122</ele>
        <time>2019-05-29T17:21:53Z</time>
      </trkpt>
      <trkpt lat="49.37592" lon="4.09332">
        <ele>122</ele>
        <time>2019-05-29T17:21:54Z</time>
      </trkpt>
      <trkpt lat="49.37587" lon="4.09327">
        <ele>122</ele>
        <time>2019-05-29T17:21:55Z</time>
      </trkpt>
      <trkpt lat="49.37584" lon="4.09322">
        <ele>122</ele>
        <time>2019-05-29T17:21:56Z</time>
      </trkpt>
      <trkpt lat="49.37579" lon="4.09317">
        <ele>122</ele>
        <time>2019-05-29T17:21:57Z</time>
      </trkpt>
      <trkpt lat="49.37575" lon="4.09312">
        <ele>122</ele>
        <time>2019-05-29T17:21:58Z</time>
      </trkpt>
      <trkpt lat="49.37571" lon="4.09308">
        <ele>122</ele>
        <time>2019-05-29T17:21:59Z</time>
      </trkpt>
      <trkpt lat="49.37566" lon="4.09303">
        <ele>122</ele>
        <time>2019-05-29T17:22:00Z</time>
      </trkpt>
      <trkpt lat="49.37562" lon="4.09298">
        <ele>122</ele>
        <time>2019-05-29T17:22:01Z</time>
      </trkpt>
      <trkpt lat="49.37558" lon="4.09293">
        <ele>122</ele>
        <time>2019-05-29T17:22:02Z</time>
      </trkpt>
      <trkpt lat="49.37554" lon="4.09288">
        <ele>122</ele>
        <time>2019-05-29T17:22:03Z</time>
      </trkpt>
      <trkpt lat="49.37549" lon="4.09283">
        <ele>122</ele>
        <time>2019-05-29T17:22:04Z</time>
      </trkpt>
      <trkpt lat="49.37545" lon="4.09278">
        <ele>122</ele>
        <time>2019-05-29T17:22:05Z</time>
      </trkpt>
      <trkpt lat="49.37541" lon="4.09273">
        <ele>122</ele>
        <time>2019-05-29T17:22:06Z</time>
      </trkpt>
      <trkpt lat="49.37537" lon="4.09269">
        <ele>122</ele>
        <time>2019-05-29T17:22:07Z</time>
      </trkpt>
      <trkpt lat="49.37532" lon="4.09264">
        <ele>122</ele>
        <time>2019-05-29T17:22:08Z</time>
      </trkpt>
      <trkpt lat="49.37528" lon="4.09258">
        <ele>122</ele>
        <time>2019-05-29T17:22:09Z</time>
      </trkpt>
      <trkpt lat="49.37523" lon="4.09253">
        <ele>122</ele>
        <time>2019-05-29T17:22:10Z</time>
      </trkpt>
      <trkpt lat="49.37519" lon="4.09248">
        <ele>122</ele>
        <time>2019-05-29T17:22:11Z</time>
      </trkpt>
      <trkpt lat="49.37515" lon="4.09243">
        <ele>122</ele>
        <time>2019-05-29T17:22:12Z</time>
      </trkpt>
      <trkpt lat="49.3751" lon="4.09238">
        <ele>122</ele>
        <time>2019-05-29T17:22:13Z</time>
      </trkpt>
      <trkpt lat="49.37506" lon="4.09233">
        <ele>122</ele>
        <time>2019-05-29T17:22:14Z</time>
      </trkpt>
      <trkpt lat="49.37502" lon="4.09228">
        <ele>122</ele>
        <time>2019-05-29T17:22:15Z</time>
      </trkpt>
      <trkpt lat="49.37498" lon="4.09223">
        <ele>122</ele>
        <time>2019-05-29T17:22:16Z</time>
      </trkpt>
      <trkpt lat="49.37493" lon="4.09219">
        <ele>122</ele>
        <time>2019-05-29T17:22:17Z</time>
      </trkpt>
      <trkpt lat="49.37489" lon="4.09214">
        <ele>123</ele>
        <time>2019-05-29T17:22:18Z</time>
      </trkpt>
      <trkpt lat="49.37484" lon="4.09209">
        <ele>123</ele>
        <time>2019-05-29T17:22:19Z</time>
      </trkpt>
      <trkpt lat="49.3748" lon="4.09204">
        <ele>123</ele>
        <time>2019-05-29T17:22:20Z</time>
      </trkpt>
      <trkpt lat="49.37476" lon="4.09199">
        <ele>123</ele>
        <time>2019-05-29T17:22:21Z</time>
      </trkpt>
      <trkpt lat="49.37472" lon="4.09193">
        <ele>123</ele>
        <time>2019-05-29T17:22:22Z</time>
      </trkpt>
      <trkpt lat="49.37468" lon="4.09189">
        <ele>123</ele>
        <time>2019-05-29T17:22:23Z</time>
      </trkpt>
      <trkpt lat="49.37464" lon="4.09184">
        <ele>123</ele>
        <time>2019-05-29T17:22:24Z</time>
      </trkpt>
      <trkpt lat="49.3746" lon="4.09179">
        <ele>123</ele>
        <time>2019-05-29T17:22:25Z</time>
      </trkpt>
      <trkpt lat="49.37455" lon="4.09174">
        <ele>123</ele>
        <time>2019-05-29T17:22:26Z</time>
      </trkpt>
      <trkpt lat="49.37451" lon="4.09169">
        <ele>124</ele>
        <time>2019-05-29T17:22:27Z</time>
      </trkpt>
      <trkpt lat="49.37447" lon="4.09165">
        <ele>124</ele>
        <time>2019-05-29T17:22:28Z</time>
      </trkpt>
      <trkpt lat="49.37443" lon="4.0916">
        <ele>124</ele>
        <time>2019-05-29T17:22:29Z</time>
      </trkpt>
      <trkpt lat="49.37439" lon="4.09156">
        <ele>124</ele>
        <time>2019-05-29T17:22:30Z</time>
      </trkpt>
      <trkpt lat="49.37435" lon="4.09151">
        <ele>125</ele>
        <time>2019-05-29T17:22:31Z</time>
      </trkpt>
      <trkpt lat="49.37431" lon="4.09147">
        <ele>125</ele>
        <time>2019-05-29T17:22:32Z</time>
      </trkpt>
      <trkpt lat="49.37428" lon="4.09142">
        <ele>125</ele>
        <time>2019-05-29T17:22:33Z</time>
      </trkpt>
      <trkpt lat="49.37424" lon="4.09138">
        <ele>125</ele>
        <time>2019-05-29T17:22:34Z</time>
      </trkpt>
      <trkpt lat="49.37421" lon="4.09134">
        <ele>125</ele>
        <time>2019-05-29T17:22:35Z</time>
      </trkpt>
      <trkpt lat="49.37417" lon="4.0913">
        <ele>125</ele>
        <time>2019-05-29T17:22:36Z</time>
      </trkpt>
      <trkpt lat="49.37413" lon="4.09126">
        <ele>125</ele>
        <time>2019-05-29T17:22:37Z</time>
      </trkpt>
      <trkpt lat="49.37409" lon="4.09122">
        <ele>125</ele>
        <time>2019-05-29T17:22:38Z</time>
      </trkpt>
      <trkpt lat="49.37405" lon="4.09117">
        <ele>125</ele>
        <time>2019-05-29T17:22:39Z</time>
      </trkpt>
      <trkpt lat="49.37402" lon="4.09113">
        <ele>125</ele>
        <time>2019-05-29T17:22:40Z</time>
      </trkpt>
      <trkpt lat="49.37398" lon="4.09109">
        <ele>125</ele>
        <time>2019-05-29T17:22:41Z</time>
      </trkpt>
      <trkpt lat="49.37394" lon="4.09105">
        <ele>125</ele>
        <time>2019-05-29T17:22:42Z</time>
      </trkpt>
      <trkpt lat="49.37391" lon="4.09101">
        <ele>125</ele>
        <time>2019-05-29T17:22:43Z</time>
      </trkpt>
      <trkpt lat="49.37387" lon="4.09097">
        <ele>126</ele>
        <time>2019-05-29T17:22:44Z</time>
      </trkpt>
      <trkpt lat="49.37384" lon="4.09092">
        <ele>126</ele>
        <time>2019-05-29T17:22:45Z</time>
      </trkpt>
      <trkpt lat="49.3738" lon="4.09088">
        <ele>126</ele>
        <time>2019-05-29T17:22:46Z</time>
      </trkpt>
      <trkpt lat="49.37377" lon="4.09084">
        <ele>126</ele>
        <time>2019-05-29T17:22:47Z</time>
      </trkpt>
      <trkpt lat="49.37373" lon="4.09079">
        <ele>126</ele>
        <time>2019-05-29T17:22:48Z</time>
      </trkpt>
      <trkpt lat="49.3737" lon="4.09075">
        <ele>126</ele>
        <time>2019-05-29T17:22:49Z</time>
      </trkpt>
      <trkpt lat="49.37366" lon="4.09071">
        <ele>126</ele>
        <time>2019-05-29T17:22:50Z</time>
      </trkpt>
      <trkpt lat="49.37363" lon="4.09067">
        <ele>127</ele>
        <time>2019-05-29T17:22:51Z</time>
      </trkpt>
      <trkpt lat="49.37359" lon="4.09063">
        <ele>127</ele>
        <time>2019-05-29T17:22:52Z</time>
      </trkpt>
      <trkpt lat="49.37356" lon="4.09059">
        <ele>127</ele>
        <time>2019-05-29T17:22:53Z</time>
      </trkpt>
      <trkpt lat="49.37352" lon="4.09055">
        <ele>127</ele>
        <time>2019-05-29T17:22:54Z</time>
      </trkpt>
      <trkpt lat="49.37349" lon="4.09051">
        <ele>128</ele>
        <time>2019-05-29T17:22:55Z</time>
      </trkpt>
      <trkpt lat="49.37346" lon="4.09048">
        <ele>127</ele>
        <time>2019-05-29T17:22:56Z</time>
      </trkpt>
      <trkpt lat="49.37342" lon="4.09044">
        <ele>127</ele>
        <time>2019-05-29T17:22:57Z</time>
      </trkpt>
      <trkpt lat="49.37339" lon="4.09041">
        <ele>127</ele>
        <time>2019-05-29T17:22:58Z</time>
      </trkpt>
      <trkpt lat="49.37336" lon="4.09037">
        <ele>127</ele>
        <time>2019-05-29T17:22:59Z</time>
      </trkpt>
      <trkpt lat="49.37333" lon="4.09034">
        <ele>128</ele>
        <time>2019-05-29T17:23:00Z</time>
      </trkpt>
      <trkpt lat="49.3733" lon="4.0903">
        <ele>128</ele>
        <time>2019-05-29T17:23:01Z</time>
      </trkpt>
      <trkpt lat="49.37327" lon="4.09027">
        <ele>128</ele>
        <time>2019-05-29T17:23:02Z</time>
      </trkpt>
      <trkpt lat="49.37324" lon="4.09024">
        <ele>128</ele>
        <time>2019-05-29T17:23:03Z</time>
      </trkpt>
      <trkpt lat="49.37321" lon="4.0902">
        <ele>128</ele>
        <time>2019-05-29T17:23:04Z</time>
      </trkpt>
      <trkpt lat="49.37318" lon="4.09017">
        <ele>128</ele>
        <time>2019-05-29T17:23:05Z</time>
      </trkpt>
      <trkpt lat="49.37315" lon="4.09013">
        <ele>129</ele>
        <time>2019-05-29T17:23:06Z</time>
      </trkpt>
      <trkpt lat="49.37312" lon="4.0901">
        <ele>128</ele>
        <time>2019-05-29T17:23:07Z</time>
      </trkpt>
      <trkpt lat="49.37309" lon="4.09006">
        <ele>128</ele>
        <time>2019-05-29T17:23:08Z</time>
      </trkpt>
      <trkpt lat="49.37306" lon="4.09003">
        <ele>128</ele>
        <time>2019-05-29T17:23:09Z</time>
      </trkpt>
      <trkpt lat="49.37303" lon="4.08999">
        <ele>129</ele>
        <time>2019-05-29T17:23:10Z</time>
      </trkpt>
      <trkpt lat="49.373" lon="4.08995">
        <ele>129</ele>
        <time>2019-05-29T17:23:11Z</time>
      </trkpt>
      <trkpt lat="49.37297" lon="4.08992">
        <ele>129</ele>
        <time>2019-05-29T17:23:12Z</time>
      </trkpt>
      <trkpt lat="49.37294" lon="4.08988">
        <ele>129</ele>
        <time>2019-05-29T17:23:13Z</time>
      </trkpt>
      <trkpt lat="49.37291" lon="4.08984">
        <ele>129</ele>
        <time>2019-05-29T17:23:14Z</time>
      </trkpt>
      <trkpt lat="49.37287" lon="4.08981">
        <ele>129</ele>
        <time>2019-05-29T17:23:15Z</time>
      </trkpt>
      <trkpt lat="49.37284" lon="4.08977">
        <ele>129</ele>
        <time>2019-05-29T17:23:16Z</time>
      </trkpt>
      <trkpt lat="49.37281" lon="4.08974">
        <ele>129</ele>
        <time>2019-05-29T17:23:17Z</time>
      </trkpt>
      <trkpt lat="49.37278" lon="4.0897">
        <ele>129</ele>
        <time>2019-05-29T17:23:18Z</time>
      </trkpt>
      <trkpt lat="49.37275" lon="4.08967">
        <ele>129</ele>
        <time>2019-05-29T17:23:19Z</time>
      </trkpt>
      <trkpt lat="49.37272" lon="4.08963">
        <ele>129</ele>
        <time>2019-05-29T17:23:20Z</time>
      </trkpt>
      <trkpt lat="49.37269" lon="4.0896">
        <ele>130</ele>
        <time>2019-05-29T17:23:21Z</time>
      </trkpt>
      <trkpt lat="49.37266" lon="4.08957">
        <ele>130</ele>
        <time>2019-05-29T17:23:22Z</time>
      </trkpt>
      <trkpt lat="49.37263" lon="4.08953">
        <ele>129</ele>
        <time>2019-05-29T17:23:23Z</time>
      </trkpt>
      <trkpt lat="49.3726" lon="4.08949">
        <ele>130</ele>
        <time>2019-05-29T17:23:24Z</time>
      </trkpt>
      <trkpt lat="49.37257" lon="4.08946">
        <ele>130</ele>
        <time>2019-05-29T17:23:25Z</time>
      </trkpt>
      <trkpt lat="49.37253" lon="4.08942">
        <ele>130</ele>
        <time>2019-05-29T17:23:26Z</time>
      </trkpt>
      <trkpt lat="49.3725" lon="4.08938">
        <ele>130</ele>
        <time>2019-05-29T17:23:27Z</time>
      </trkpt>
      <trkpt lat="49.37247" lon="4.08935">
        <ele>130</ele>
        <time>2019-05-29T17:23:28Z</time>
      </trkpt>
      <trkpt lat="49.37244" lon="4.0893">
        <ele>130</ele>
        <time>2019-05-29T17:23:29Z</time>
      </trkpt>
      <trkpt lat="49.3724" lon="4.08927">
        <ele>130</ele>
        <time>2019-05-29T17:23:30Z</time>
      </trkpt>
      <trkpt lat="49.37237" lon="4.08923">
        <ele>130</ele>
        <time>2019-05-29T17:23:31Z</time>
      </trkpt>
      <trkpt lat="49.37234" lon="4.08919">
        <ele>130</ele>
        <time>2019-05-29T17:23:32Z</time>
      </trkpt>
      <trkpt lat="49.37231" lon="4.08915">
        <ele>130</ele>
        <time>2019-05-29T17:23:33Z</time>
      </trkpt>
      <trkpt lat="49.37227" lon="4.08911">
        <ele>130</ele>
        <time>2019-05-29T17:23:34Z</time>
      </trkpt>
      <trkpt lat="49.37224" lon="4.08907">
        <ele>130</ele>
        <time>2019-05-29T17:23:35Z</time>
      </trkpt>
      <trkpt lat="49.37221" lon="4.08903">
        <ele>130</ele>
        <time>2019-05-29T17:23:36Z</time>
      </trkpt>
      <trkpt lat="49.37217" lon="4.089">
        <ele>131</ele>
        <time>2019-05-29T17:23:37Z</time>
      </trkpt>
      <trkpt lat="49.37214" lon="4.08896">
        <ele>131</ele>
        <time>2019-05-29T17:23:38Z</time>
      </trkpt>
      <trkpt lat="49.37211" lon="4.08892">
        <ele>130</ele>
        <time>2019-05-29T17:23:39Z</time>
      </trkpt>
      <trkpt lat="49.37207" lon="4.08888">
        <ele>131</ele>
        <time>2019-05-29T17:23:40Z</time>
      </trkpt>
      <trkpt lat="49.37204" lon="4.08884">
        <ele>131</ele>
        <time>2019-05-29T17:23:41Z</time>
      </trkpt>
      <trkpt lat="49.372" lon="4.0888">
        <ele>131</ele>
        <time>2019-05-29T17:23:42Z</time>
      </trkpt>
      <trkpt lat="49.37197" lon="4.08876">
        <ele>131</ele>
        <time>2019-05-29T17:23:43Z</time>
      </trkpt>
      <trkpt lat="49.37194" lon="4.08872">
        <ele>132</ele>
        <time>2019-05-29T17:23:44Z</time>
      </trkpt>
      <trkpt lat="49.3719" lon="4.08868">
        <ele>132</ele>
        <time>2019-05-29T17:23:45Z</time>
      </trkpt>
      <trkpt lat="49.37187" lon="4.08864">
        <ele>132</ele>
        <time>2019-05-29T17:23:46Z</time>
      </trkpt>
      <trkpt lat="49.37183" lon="4.0886">
        <ele>132</ele>
        <time>2019-05-29T17:23:47Z</time>
      </trkpt>
      <trkpt lat="49.3718" lon="4.08856">
        <ele>132</ele>
        <time>2019-05-29T17:23:48Z</time>
      </trkpt>
      <trkpt lat="49.37176" lon="4.08852">
        <ele>132</ele>
        <time>2019-05-29T17:23:49Z</time>
      </trkpt>
      <trkpt lat="49.37172" lon="4.08848">
        <ele>132</ele>
        <time>2019-05-29T17:23:50Z</time>
      </trkpt>
      <trkpt lat="49.37168" lon="4.08843">
        <ele>132</ele>
        <time>2019-05-29T17:23:51Z</time>
      </trkpt>
      <trkpt lat="49.37164" lon="4.08839">
        <ele>132</ele>
        <time>2019-05-29T17:23:52Z</time>
      </trkpt>
      <trkpt lat="49.3716" lon="4.08834">
        <ele>132</ele>
        <time>2019-05-29T17:23:53Z</time>
      </trkpt>
      <trkpt lat="49.37155" lon="4.08829">
        <ele>132</ele>
        <time>2019-05-29T17:23:54Z</time>
      </trkpt>
      <trkpt lat="49.37151" lon="4.08824">
        <ele>132</ele>
        <time>2019-05-29T17:23:55Z</time>
      </trkpt>
      <trkpt lat="49.37147" lon="4.08819">
        <ele>132</ele>
        <time>2019-05-29T17:23:56Z</time>
      </trkpt>
      <trkpt lat="49.37143" lon="4.08815">
        <ele>132</ele>
        <time>2019-05-29T17:23:57Z</time>
      </trkpt>
      <trkpt lat="49.37139" lon="4.08811">
        <ele>133</ele>
        <time>2019-05-29T17:23:58Z</time>
      </trkpt>
      <trkpt lat="49.37135" lon="4.08806">
        <ele>133</ele>
        <time>2019-05-29T17:23:59Z</time>
      </trkpt>
      <trkpt lat="49.37131" lon="4.08801">
        <ele>133</ele>
        <time>2019-05-29T17:24:00Z</time>
      </trkpt>
      <trkpt lat="49.37128" lon="4.08797">
        <ele>133</ele>
        <time>2019-05-29T17:24:01Z</time>
      </trkpt>
      <trkpt lat="49.37124" lon="4.08793">
        <ele>133</ele>
        <time>2019-05-29T17:24:02Z</time>
      </trkpt>
      <trkpt lat="49.3712" lon="4.08788">
        <ele>133</ele>
        <time>2019-05-29T17:24:03Z</time>
      </trkpt>
      <trkpt lat="49.37117" lon="4.08784">
        <ele>133</ele>
        <time>2019-05-29T17:24:04Z</time>
      </trkpt>
      <trkpt lat="49.37112" lon="4.08779">
        <ele>133</ele>
        <time>2019-05-29T17:24:05Z</time>
      </trkpt>
      <trkpt lat="49.37108" lon="4.08774">
        <ele>133</ele>
        <time>2019-05-29T17:24:06Z</time>
      </trkpt>
      <trkpt lat="49.37104" lon="4.08769">
        <ele>133</ele>
        <time>2019-05-29T17:24:07Z</time>
      </trkpt>
      <trkpt lat="49.371" lon="4.08764">
        <ele>133</ele>
        <time>2019-05-29T17:24:08Z</time>
      </trkpt>
      <trkpt lat="49.37096" lon="4.0876">
        <ele>133</ele>
        <time>2019-05-29T17:24:09Z</time>
      </trkpt>
      <trkpt lat="49.37092" lon="4.08755">
        <ele>133</ele>
        <time>2019-05-29T17:24:10Z</time>
      </trkpt>
      <trkpt lat="49.37088" lon="4.0875">
        <ele>133</ele>
        <time>2019-05-29T17:24:11Z</time>
      </trkpt>
      <trkpt lat="49.37084" lon="4.08745">
        <ele>133</ele>
        <time>2019-05-29T17:24:12Z</time>
      </trkpt>
      <trkpt lat="49.3708" lon="4.08741">
        <ele>133</ele>
        <time>2019-05-29T17:24:13Z</time>
      </trkpt>
      <trkpt lat="49.37076" lon="4.08736">
        <ele>133</ele>
        <time>2019-05-29T17:24:14Z</time>
      </trkpt>
      <trkpt lat="49.37073" lon="4.08732">
        <ele>133</ele>
        <time>2019-05-29T17:24:15Z</time>
      </trkpt>
      <trkpt lat="49.37069" lon="4.08729">
        <ele>133</ele>
        <time>2019-05-29T17:24:16Z</time>
      </trkpt>
      <trkpt lat="49.37065" lon="4.08724">
        <ele>133</ele>
        <time>2019-05-29T17:24:17Z</time>
      </trkpt>
      <trkpt lat="49.37062" lon="4.0872">
        <ele>133</ele>
        <time>2019-05-29T17:24:18Z</time>
      </trkpt>
      <trkpt lat="49.37058" lon="4.08715">
        <ele>133</ele>
        <time>2019-05-29T17:24:19Z</time>
      </trkpt>
      <trkpt lat="49.37054" lon="4.08711">
        <ele>133</ele>
        <time>2019-05-29T17:24:20Z</time>
      </trkpt>
      <trkpt lat="49.3705" lon="4.08707">
        <ele>133</ele>
        <time>2019-05-29T17:24:21Z</time>
      </trkpt>
      <trkpt lat="49.37046" lon="4.08703">
        <ele>133</ele>
        <time>2019-05-29T17:24:22Z</time>
      </trkpt>
      <trkpt lat="49.37043" lon="4.08699">
        <ele>133</ele>
        <time>2019-05-29T17:24:23Z</time>
      </trkpt>
      <trkpt lat="49.37038" lon="4.08694">
        <ele>133</ele>
        <time>2019-05-29T17:24:24Z</time>
      </trkpt>
      <trkpt lat="49.37034" lon="4.0869">
        <ele>133</ele>
        <time>2019-05-29T17:24:25Z</time>
      </trkpt>
      <trkpt lat="49.37029" lon="4.08686">
        <ele>133</ele>
        <time>2019-05-29T17:24:26Z</time>
      </trkpt>
      <trkpt lat="49.37025" lon="4.08682">
        <ele>133</ele>
        <time>2019-05-29T17:24:27Z</time>
      </trkpt>
      <trkpt lat="49.37021" lon="4.08678">
        <ele>133</ele>
        <time>2019-05-29T17:24:28Z</time>
      </trkpt>
      <trkpt lat="49.37016" lon="4.08674">
        <ele>133</ele>
        <time>2019-05-29T17:24:29Z</time>
      </trkpt>
      <trkpt lat="49.37012" lon="4.08671">
        <ele>133</ele>
        <time>2019-05-29T17:24:30Z</time>
      </trkpt>
      <trkpt lat="49.37007" lon="4.08667">
        <ele>133</ele>
        <time>2019-05-29T17:24:31Z</time>
      </trkpt>
      <trkpt lat="49.37002" lon="4.08663">
        <ele>133</ele>
        <time>2019-05-29T17:24:32Z</time>
      </trkpt>
      <trkpt lat="49.36998" lon="4.0866">
        <ele>133</ele>
        <time>2019-05-29T17:24:33Z</time>
      </trkpt>
      <trkpt lat="49.36993" lon="4.08657">
        <ele>133</ele>
        <time>2019-05-29T17:24:34Z</time>
      </trkpt>
      <trkpt lat="49.36988" lon="4.08653">
        <ele>133</ele>
        <time>2019-05-29T17:24:35Z</time>
      </trkpt>
      <trkpt lat="49.36982" lon="4.0865">
        <ele>133</ele>
        <time>2019-05-29T17:24:36Z</time>
      </trkpt>
      <trkpt lat="49.36977" lon="4.08646">
        <ele>133</ele>
        <time>2019-05-29T17:24:37Z</time>
      </trkpt>
      <trkpt lat="49.36972" lon="4.08642">
        <ele>133</ele>
        <time>2019-05-29T17:24:38Z</time>
      </trkpt>
      <trkpt lat="49.36966" lon="4.08639">
        <ele>133</ele>
        <time>2019-05-29T17:24:39Z</time>
      </trkpt>
      <trkpt lat="49.36961" lon="4.08635">
        <ele>133</ele>
        <time>2019-05-29T17:24:40Z</time>
      </trkpt>
      <trkpt lat="49.36956" lon="4.08631">
        <ele>133</ele>
        <time>2019-05-29T17:24:41Z</time>
      </trkpt>
      <trkpt lat="49.3695" lon="4.08627">
        <ele>133</ele>
        <time>2019-05-29T17:24:42Z</time>
      </trkpt>
      <trkpt lat="49.36945" lon="4.08623">
        <ele>133</ele>
        <time>2019-05-29T17:24:43Z</time>
      </trkpt>
      <trkpt lat="49.36939" lon="4.08619">
        <ele>133</ele>
        <time>2019-05-29T17:24:44Z</time>
      </trkpt>
      <trkpt lat="49.36933" lon="4.08615">
        <ele>133</ele>
        <time>2019-05-29T17:24:45Z</time>
      </trkpt>
      <trkpt lat="49.36927" lon="4.08611">
        <ele>133</ele>
        <time>2019-05-29T17:24:46Z</time>
      </trkpt>
      <trkpt lat="49.36921" lon="4.08607">
        <ele>132</ele>
        <time>2019-05-29T17:24:47Z</time>
      </trkpt>
      <trkpt lat="49.36914" lon="4.08603">
        <ele>132</ele>
        <time>2019-05-29T17:24:48Z</time>
      </trkpt>
      <trkpt lat="49.36908" lon="4.08599">
        <ele>132</ele>
        <time>2019-05-29T17:24:49Z</time>
      </trkpt>
      <trkpt lat="49.36902" lon="4.08594">
        <ele>132</ele>
        <time>2019-05-29T17:24:50Z</time>
      </trkpt>
      <trkpt lat="49.36896" lon="4.0859">
        <ele>132</ele>
        <time>2019-05-29T17:24:51Z</time>
      </trkpt>
      <trkpt lat="49.3689" lon="4.08586">
        <ele>132</ele>
        <time>2019-05-29T17:24:52Z</time>
      </trkpt>
      <trkpt lat="49.36884" lon="4.08582">
        <ele>132</ele>
        <time>2019-05-29T17:24:53Z</time>
      </trkpt>
      <trkpt lat="49.36879" lon="4.08578">
        <ele>132</ele>
        <time>2019-05-29T17:24:54Z</time>
      </trkpt>
      <trkpt lat="49.36872" lon="4.08573">
        <ele>132</ele>
        <time>2019-05-29T17:24:55Z</time>
      </trkpt>
      <trkpt lat="49.36866" lon="4.08569">
        <ele>132</ele>
        <time>2019-05-29T17:24:56Z</time>
      </trkpt>
      <trkpt lat="49.3686" lon="4.08565">
        <ele>132</ele>
        <time>2019-05-29T17:24:57Z</time>
      </trkpt>
      <trkpt lat="49.36853" lon="4.08561">
        <ele>132</ele>
        <time>2019-05-29T17:24:58Z</time>
      </trkpt>
      <trkpt lat="49.36846" lon="4.08556">
        <ele>132</ele>
        <time>2019-05-29T17:24:59Z</time>
      </trkpt>
      <trkpt lat="49.3684" lon="4.08552">
        <ele>132</ele>
        <time>2019-05-29T17:25:00Z</time>
      </trkpt>
      <trkpt lat="49.36833" lon="4.08547">
        <ele>131</ele>
        <time>2019-05-29T17:25:01Z</time>
      </trkpt>
      <trkpt lat="49.36827" lon="4.08543">
        <ele>131</ele>
        <time>2019-05-29T17:25:02Z</time>
      </trkpt>
      <trkpt lat="49.36821" lon="4.08538">
        <ele>130</ele>
        <time>2019-05-29T17:25:03Z</time>
      </trkpt>
      <trkpt lat="49.36814" lon="4.08534">
        <ele>130</ele>
        <time>2019-05-29T17:25:04Z</time>
      </trkpt>
      <trkpt lat="49.36808" lon="4.08529">
        <ele>130</ele>
        <time>2019-05-29T17:25:05Z</time>
      </trkpt>
      <trkpt lat="49.36801" lon="4.08525">
        <ele>130</ele>
        <time>2019-05-29T17:25:06Z</time>
      </trkpt>
      <trkpt lat="49.36794" lon="4.0852">
        <ele>129</ele>
        <time>2019-05-29T17:25:07Z</time>
      </trkpt>
      <trkpt lat="49.36788" lon="4.08516">
        <ele>129</ele>
        <time>2019-05-29T17:25:08Z</time>
      </trkpt>
      <trkpt lat="49.36781" lon="4.08512">
        <ele>129</ele>
        <time>2019-05-29T17:25:09Z</time>
      </trkpt>
      <trkpt lat="49.36774" lon="4.08507">
        <ele>129</ele>
        <time>2019-05-29T17:25:10Z</time>
      </trkpt>
      <trkpt lat="49.36768" lon="4.08502">
        <ele>129</ele>
        <time>2019-05-29T17:25:11Z</time>
      </trkpt>
      <trkpt lat="49.36761" lon="4.08497">
        <ele>129</ele>
        <time>2019-05-29T17:25:12Z</time>
      </trkpt>
      <trkpt lat="49.36754" lon="4.08493">
        <ele>128</ele>
        <time>2019-05-29T17:25:13Z</time>
      </trkpt>
      <trkpt lat="49.36747" lon="4.08488">
        <ele>128</ele>
        <time>2019-05-29T17:25:14Z</time>
      </trkpt>
      <trkpt lat="49.36741" lon="4.08483">
        <ele>128</ele>
        <time>2019-05-29T17:25:15Z</time>
      </trkpt>
      <trkpt lat="49.36734" lon="4.08479">
        <ele>128</ele>
        <time>2019-05-29T17:25:16Z</time>
      </trkpt>
      <trkpt lat="49.36727" lon="4.08474">
        <ele>128</ele>
        <time>2019-05-29T17:25:17Z</time>
      </trkpt>
      <trkpt lat="49.3672" lon="4.08469">
        <ele>128</ele>
        <time>2019-05-29T17:25:18Z</time>
      </trkpt>
      <trkpt lat="49.36713" lon="4.08464">
        <ele>128</ele>
        <time>2019-05-29T17:25:19Z</time>
      </trkpt>
      <trkpt lat="49.36706" lon="4.08459">
        <ele>128</ele>
        <time>2019-05-29T17:25:20Z</time>
      </trkpt>
      <trkpt lat="49.36699" lon="4.08454">
        <ele>128</ele>
        <time>2019-05-29T17:25:21Z</time>
      </trkpt>
      <trkpt lat="49.36692" lon="4.08449">
        <ele>128</ele>
        <time>2019-05-29T17:25:22Z</time>
      </trkpt>
      <trkpt lat="49.36685" lon="4.08445">
        <ele>128</ele>
        <time>2019-05-29T17:25:23Z</time>
      </trkpt>
      <trkpt lat="49.36678" lon="4.08441">
        <ele>127</ele>
        <time>2019-05-29T17:25:24Z</time>
      </trkpt>
      <trkpt lat="49.36672" lon="4.08436">
        <ele>128</ele>
        <time>2019-05-29T17:25:25Z</time>
      </trkpt>
      <trkpt lat="49.36665" lon="4.08432">
        <ele>127</ele>
        <time>2019-05-29T17:25:26Z</time>
      </trkpt>
      <trkpt lat="49.36658" lon="4.08426">
        <ele>127</ele>
        <time>2019-05-29T17:25:27Z</time>
      </trkpt>
      <trkpt lat="49.36651" lon="4.08422">
        <ele>127</ele>
        <time>2019-05-29T17:25:28Z</time>
      </trkpt>
      <trkpt lat="49.36644" lon="4.08417">
        <ele>127</ele>
        <time>2019-05-29T17:25:29Z</time>
      </trkpt>
      <trkpt lat="49.36637" lon="4.08413">
        <ele>127</ele>
        <time>2019-05-29T17:25:30Z</time>
      </trkpt>
      <trkpt lat="49.36631" lon="4.08408">
        <ele>126</ele>
        <time>2019-05-29T17:25:31Z</time>
      </trkpt>
      <trkpt lat="49.36623" lon="4.08403">
        <ele>126</ele>
        <time>2019-05-29T17:25:32Z</time>
      </trkpt>
      <trkpt lat="49.36616" lon="4.08398">
        <ele>126</ele>
        <time>2019-05-29T17:25:33Z</time>
      </trkpt>
      <trkpt lat="49.36609" lon="4.08394">
        <ele>126</ele>
        <time>2019-05-29T17:25:34Z</time>
      </trkpt>
      <trkpt lat="49.36602" lon="4.08389">
        <ele>126</ele>
        <time>2019-05-29T17:25:35Z</time>
      </trkpt>
      <trkpt lat="49.36595" lon="4.08384">
        <ele>125</ele>
        <time>2019-05-29T17:25:36Z</time>
      </trkpt>
      <trkpt lat="49.36588" lon="4.08379">
        <ele>125</ele>
        <time>2019-05-29T17:25:37Z</time>
      </trkpt>
      <trkpt lat="49.3658" lon="4.08374">
        <ele>124</ele>
        <time>2019-05-29T17:25:38Z</time>
      </trkpt>
      <trkpt lat="49.36572" lon="4.08369">
        <ele>124</ele>
        <time>2019-05-29T17:25:39Z</time>
      </trkpt>
      <trkpt lat="49.36564" lon="4.08363">
        <ele>123</ele>
        <time>2019-05-29T17:25:40Z</time>
      </trkpt>
      <trkpt lat="49.36556" lon="4.08357">
        <ele>123</ele>
        <time>2019-05-29T17:25:41Z</time>
      </trkpt>
      <trkpt lat="49.36548" lon="4.08351">
        <ele>122</ele>
        <time>2019-05-29T17:25:42Z</time>
      </trkpt>
      <trkpt lat="49.36539" lon="4.08346">
        <ele>122</ele>
        <time>2019-05-29T17:25:43Z</time>
      </trkpt>
      <trkpt lat="49.36531" lon="4.0834">
        <ele>121</ele>
        <time>2019-05-29T17:25:44Z</time>
      </trkpt>
      <trkpt lat="49.36522" lon="4.08335">
        <ele>121</ele>
        <time>2019-05-29T17:25:45Z</time>
      </trkpt>
      <trkpt lat="49.36513" lon="4.08329">
        <ele>121</ele>
        <time>2019-05-29T17:25:46Z</time>
      </trkpt>
      <trkpt lat="49.36505" lon="4.08323">
        <ele>120</ele>
        <time>2019-05-29T17:25:47Z</time>
      </trkpt>
      <trkpt lat="49.36496" lon="4.08317">
        <ele>120</ele>
        <time>2019-05-29T17:25:48Z</time>
      </trkpt>
      <trkpt lat="49.36488" lon="4.08311">
        <ele>120</ele>
        <time>2019-05-29T17:25:49Z</time>
      </trkpt>
      <trkpt lat="49.36479" lon="4.08305">
        <ele>119</ele>
        <time>2019-05-29T17:25:50Z</time>
      </trkpt>
      <trkpt lat="49.3647" lon="4.08299">
        <ele>119</ele>
        <time>2019-05-29T17:25:51Z</time>
      </trkpt>
      <trkpt lat="49.36461" lon="4.08292">
        <ele>119</ele>
        <time>2019-05-29T17:25:52Z</time>
      </trkpt>
      <trkpt lat="49.36452" lon="4.08286">
        <ele>119</ele>
        <time>2019-05-29T17:25:53Z</time>
      </trkpt>
      <trkpt lat="49.36443" lon="4.0828">
        <ele>118</ele>
        <time>2019-05-29T17:25:54Z</time>
      </trkpt>
      <trkpt lat="49.36434" lon="4.08273">
        <ele>118</ele>
        <time>2019-05-29T17:25:55Z</time>
      </trkpt>
      <trkpt lat="49.36425" lon="4.08267">
        <ele>118</ele>
        <time>2019-05-29T17:25:56Z</time>
      </trkpt>
      <trkpt lat="49.36416" lon="4.08262">
        <ele>118</ele>
        <time>2019-05-29T17:25:57Z</time>
      </trkpt>
      <trkpt lat="49.36407" lon="4.08256">
        <ele>118</ele>
        <time>2019-05-29T17:25:58Z</time>
      </trkpt>
      <trkpt lat="49.36399" lon="4.0825">
        <ele>118</ele>
        <time>2019-05-29T17:25:59Z</time>
      </trkpt>
      <trkpt lat="49.3639" lon="4.08244">
        <ele>118</ele>
        <time>2019-05-29T17:26:00Z</time>
      </trkpt>
      <trkpt lat="49.36383" lon="4.08239">
        <ele>118</ele>
        <time>2019-05-29T17:26:01Z</time>
      </trkpt>
      <trkpt lat="49.36375" lon="4.08233">
        <ele>118</ele>
        <time>2019-05-29T17:26:02Z</time>
      </trkpt>
      <trkpt lat="49.36368" lon="4.08228">
        <ele>118</ele>
        <time>2019-05-29T17:26:03Z</time>
      </trkpt>
      <trkpt lat="49.36361" lon="4.08223">
        <ele>118</ele>
        <time>2019-05-29T17:26:04Z</time>
      </trkpt>
      <trkpt lat="49.36354" lon="4.08219">
        <ele>119</ele>
        <time>2019-05-29T17:26:05Z</time>
      </trkpt>
      <trkpt lat="49.36347" lon="4.08214">
        <ele>119</ele>
        <time>2019-05-29T17:26:06Z</time>
      </trkpt>
      <trkpt lat="49.36341" lon="4.08209">
        <ele>119</ele>
        <time>2019-05-29T17:26:07Z</time>
      </trkpt>
      <trkpt lat="49.36334" lon="4.08205">
        <ele>119</ele>
        <time>2019-05-29T17:26:08Z</time>
      </trkpt>
      <trkpt lat="49.36328" lon="4.082">
        <ele>119</ele>
        <time>2019-05-29T17:26:09Z</time>
      </trkpt>
      <trkpt lat="49.36321" lon="4.08195">
        <ele>119</ele>
        <time>2019-05-29T17:26:10Z</time>
      </trkpt>
      <trkpt lat="49.36315" lon="4.08191">
        <ele>119</ele>
        <time>2019-05-29T17:26:11Z</time>
      </trkpt>
      <trkpt lat="49.36309" lon="4.08187">
        <ele>119</ele>
        <time>2019-05-29T17:26:12Z</time>
      </trkpt>
      <trkpt lat="49.36303" lon="4.08183">
        <ele>120</ele>
        <time>2019-05-29T17:26:13Z</time>
      </trkpt>
      <trkpt lat="49.36297" lon="4.08179">
        <ele>120</ele>
        <time>2019-05-29T17:26:14Z</time>
      </trkpt>
      <trkpt lat="49.36291" lon="4.08175">
        <ele>120</ele>
        <time>2019-05-29T17:26:15Z</time>
      </trkpt>
      <trkpt lat="49.36284" lon="4.08171">
        <ele>120</ele>
        <time>2019-05-29T17:26:16Z</time>
      </trkpt>
      <trkpt lat="49.36278" lon="4.08166">
        <ele>120</ele>
        <time>2019-05-29T17:26:17Z</time>
      </trkpt>
      <trkpt lat="49.36273" lon="4.08163">
        <ele>120</ele>
        <time>2019-05-29T17:26:18Z</time>
      </trkpt>
      <trkpt lat="49.36267" lon="4.08159">
        <ele>121</ele>
        <time>2019-05-29T17:26:19Z</time>
      </trkpt>
      <trkpt lat="49.36262" lon="4.08155">
        <ele>121</ele>
        <time>2019-05-29T17:26:20Z</time>
      </trkpt>
      <trkpt lat="49.36257" lon="4.08151">
        <ele>121</ele>
        <time>2019-05-29T17:26:21Z</time>
      </trkpt>
      <trkpt lat="49.36251" lon="4.08148">
        <ele>121</ele>
        <time>2019-05-29T17:26:22Z</time>
      </trkpt>
      <trkpt lat="49.36247" lon="4.08144">
        <ele>121</ele>
        <time>2019-05-29T17:26:23Z</time>
      </trkpt>
      <trkpt lat="49.36242" lon="4.08141">
        <ele>121</ele>
        <time>2019-05-29T17:26:24Z</time>
      </trkpt>
      <trkpt lat="49.36237" lon="4.08138">
        <ele>121</ele>
        <time>2019-05-29T17:26:25Z</time>
      </trkpt>
      <trkpt lat="49.36233" lon="4.08134">
        <ele>122</ele>
        <time>2019-05-29T17:26:26Z</time>
      </trkpt>
      <trkpt lat="49.36228" lon="4.08131">
        <ele>122</ele>
        <time>2019-05-29T17:26:27Z</time>
      </trkpt>
      <trkpt lat="49.36224" lon="4.08129">
        <ele>122</ele>
        <time>2019-05-29T17:26:28Z</time>
      </trkpt>
      <trkpt lat="49.36219" lon="4.08125">
        <ele>122</ele>
        <time>2019-05-29T17:26:29Z</time>
      </trkpt>
      <trkpt lat="49.36215" lon="4.08123">
        <ele>122</ele>
        <time>2019-05-29T17:26:30Z</time>
      </trkpt>
      <trkpt lat="49.36211" lon="4.0812">
        <ele>122</ele>
        <time>2019-05-29T17:26:31Z</time>
      </trkpt>
      <trkpt lat="49.36207" lon="4.08118">
        <ele>122</ele>
        <time>2019-05-29T17:26:32Z</time>
      </trkpt>
      <trkpt lat="49.36203" lon="4.08115">
        <ele>122</ele>
        <time>2019-05-29T17:26:33Z</time>
      </trkpt>
      <trkpt lat="49.36199" lon="4.08112">
        <ele>122</ele>
        <time>2019-05-29T17:26:34Z</time>
      </trkpt>
      <trkpt lat="49.36195" lon="4.08109">
        <ele>122</ele>
        <time>2019-05-29T17:26:35Z</time>
      </trkpt>
      <trkpt lat="49.36191" lon="4.08107">
        <ele>122</ele>
        <time>2019-05-29T17:26:36Z</time>
      </trkpt>
      <trkpt lat="49.36187" lon="4.08104">
        <ele>122</ele>
        <time>2019-05-29T17:26:37Z</time>
      </trkpt>
      <trkpt lat="49.36183" lon="4.08101">
        <ele>122</ele>
        <time>2019-05-29T17:26:38Z</time>
      </trkpt>
      <trkpt lat="49.3618" lon="4.08099">
        <ele>122</ele>
        <time>2019-05-29T17:26:39Z</time>
      </trkpt>
      <trkpt lat="49.36176" lon="4.08096">
        <ele>123</ele>
        <time>2019-05-29T17:26:40Z</time>
      </trkpt>
      <trkpt lat="49.36172" lon="4.08093">
        <ele>123</ele>
        <time>2019-05-29T17:26:41Z</time>
      </trkpt>
      <trkpt lat="49.36169" lon="4.0809">
        <ele>123</ele>
        <time>2019-05-29T17:26:42Z</time>
      </trkpt>
      <trkpt lat="49.36165" lon="4.08088">
        <ele>123</ele>
        <time>2019-05-29T17:26:43Z</time>
      </trkpt>
      <trkpt lat="49.36162" lon="4.08085">
        <ele>124</ele>
        <time>2019-05-29T17:26:44Z</time>
      </trkpt>
      <trkpt lat="49.36158" lon="4.08083">
        <ele>124</ele>
        <time>2019-05-29T17:26:45Z</time>
      </trkpt>
      <trkpt lat="49.36154" lon="4.0808">
        <ele>124</ele>
        <time>2019-05-29T17:26:46Z</time>
      </trkpt>
      <trkpt lat="49.3615" lon="4.08077">
        <ele>124</ele>
        <time>2019-05-29T17:26:47Z</time>
      </trkpt>
      <trkpt lat="49.36146" lon="4.08074">
        <ele>124</ele>
        <time>2019-05-29T17:26:48Z</time>
      </trkpt>
      <trkpt lat="49.36143" lon="4.08072">
        <ele>124</ele>
        <time>2019-05-29T17:26:49Z</time>
      </trkpt>
      <trkpt lat="49.36139" lon="4.08069">
        <ele>124</ele>
        <time>2019-05-29T17:26:50Z</time>
      </trkpt>
      <trkpt lat="49.36135" lon="4.08067">
        <ele>124</ele>
        <time>2019-05-29T17:26:51Z</time>
      </trkpt>
      <trkpt lat="49.36131" lon="4.08064">
        <ele>124</ele>
        <time>2019-05-29T17:26:52Z</time>
      </trkpt>
      <trkpt lat="49.36127" lon="4.08061">
        <ele>124</ele>
        <time>2019-05-29T17:26:53Z</time>
      </trkpt>
      <trkpt lat="49.36123" lon="4.08059">
        <ele>124</ele>
        <time>2019-05-29T17:26:54Z</time>
      </trkpt>
      <trkpt lat="49.36118" lon="4.08056">
        <ele>124</ele>
        <time>2019-05-29T17:26:55Z</time>
      </trkpt>
      <trkpt lat="49.36115" lon="4.08053">
        <ele>124</ele>
        <time>2019-05-29T17:26:56Z</time>
      </trkpt>
      <trkpt lat="49.36111" lon="4.08051">
        <ele>124</ele>
        <time>2019-05-29T17:26:57Z</time>
      </trkpt>
      <trkpt lat="49.36107" lon="4.08048">
        <ele>124</ele>
        <time>2019-05-29T17:26:58Z</time>
      </trkpt>
      <trkpt lat="49.36103" lon="4.08046">
        <ele>125</ele>
        <time>2019-05-29T17:26:59Z</time>
      </trkpt>
      <trkpt lat="49.361" lon="4.08044">
        <ele>125</ele>
        <time>2019-05-29T17:27:00Z</time>
      </trkpt>
      <trkpt lat="49.36096" lon="4.08041">
        <ele>125</ele>
        <time>2019-05-29T17:27:01Z</time>
      </trkpt>
      <trkpt lat="49.36092" lon="4.08038">
        <ele>125</ele>
        <time>2019-05-29T17:27:02Z</time>
      </trkpt>
      <trkpt lat="49.36088" lon="4.08035">
        <ele>125</ele>
        <time>2019-05-29T17:27:03Z</time>
      </trkpt>
      <trkpt lat="49.36084" lon="4.08032">
        <ele>125</ele>
        <time>2019-05-29T17:27:04Z</time>
      </trkpt>
      <trkpt lat="49.36081" lon="4.0803">
        <ele>125</ele>
        <time>2019-05-29T17:27:05Z</time>
      </trkpt>
      <trkpt lat="49.36077" lon="4.08027">
        <ele>125</ele>
        <time>2019-05-29T17:27:06Z</time>
      </trkpt>
      <trkpt lat="49.36073" lon="4.08025">
        <ele>126</ele>
        <time>2019-05-29T17:27:07Z</time>
      </trkpt>
      <trkpt lat="49.36069" lon="4.08022">
        <ele>126</ele>
        <time>2019-05-29T17:27:08Z</time>
      </trkpt>
      <trkpt lat="49.36066" lon="4.0802">
        <ele>126</ele>
        <time>2019-05-29T17:27:09Z</time>
      </trkpt>
      <trkpt lat="49.36062" lon="4.08017">
        <ele>126</ele>
        <time>2019-05-29T17:27:10Z</time>
      </trkpt>
      <trkpt lat="49.36058" lon="4.08014">
        <ele>126</ele>
        <time>2019-05-29T17:27:11Z</time>
      </trkpt>
      <trkpt lat="49.36054" lon="4.08012">
        <ele>126</ele>
        <time>2019-05-29T17:27:12Z</time>
      </trkpt>
      <trkpt lat="49.3605" lon="4.0801">
        <ele>125</ele>
        <time>2019-05-29T17:27:13Z</time>
      </trkpt>
      <trkpt lat="49.36046" lon="4.08007">
        <ele>125</ele>
        <time>2019-05-29T17:27:14Z</time>
      </trkpt>
      <trkpt lat="49.36042" lon="4.08004">
        <ele>125</ele>
        <time>2019-05-29T17:27:15Z</time>
      </trkpt>
      <trkpt lat="49.36038" lon="4.08001">
        <ele>125</ele>
        <time>2019-05-29T17:27:16Z</time>
      </trkpt>
      <trkpt lat="49.36035" lon="4.07999">
        <ele>126</ele>
        <time>2019-05-29T17:27:17Z</time>
      </trkpt>
      <trkpt lat="49.36031" lon="4.07997">
        <ele>126</ele>
        <time>2019-05-29T17:27:18Z</time>
      </trkpt>
      <trkpt lat="49.36027" lon="4.07994">
        <ele>126</ele>
        <time>2019-05-29T17:27:19Z</time>
      </trkpt>
      <trkpt lat="49.36023" lon="4.07991">
        <ele>126</ele>
        <time>2019-05-29T17:27:20Z</time>
      </trkpt>
      <trkpt lat="49.3602" lon="4.07989">
        <ele>126</ele>
        <time>2019-05-29T17:27:21Z</time>
      </trkpt>
      <trkpt lat="49.36016" lon="4.07987">
        <ele>126</ele>
        <time>2019-05-29T17:27:22Z</time>
      </trkpt>
      <trkpt lat="49.36012" lon="4.07984">
        <ele>126</ele>
        <time>2019-05-29T17:27:23Z</time>
      </trkpt>
      <trkpt lat="49.36008" lon="4.07981">
        <ele>126</ele>
        <time>2019-05-29T17:27:24Z</time>
      </trkpt>
      <trkpt lat="49.36004" lon="4.07979">
        <ele>126</ele>
        <time>2019-05-29T17:27:25Z</time>
      </trkpt>
      <trkpt lat="49.36" lon="4.07976">
        <ele>126</ele>
        <time>2019-05-29T17:27:26Z</time>
      </trkpt>
      <trkpt lat="49.35996" lon="4.07973">
        <ele>126</ele>
        <time>2019-05-29T17:27:27Z</time>
      </trkpt>
      <trkpt lat="49.35992" lon="4.0797">
        <ele>126</ele>
        <time>2019-05-29T17:27:28Z</time>
      </trkpt>
      <trkpt lat="49.35988" lon="4.07967">
        <ele>126</ele>
        <time>2019-05-29T17:27:29Z</time>
      </trkpt>
      <trkpt lat="49.35984" lon="4.07965">
        <ele>126</ele>
        <time>2019-05-29T17:27:30Z</time>
      </trkpt>
      <trkpt lat="49.35981" lon="4.07962">
        <ele>125</ele>
        <time>2019-05-29T17:27:31Z</time>
      </trkpt>
      <trkpt lat="49.35977" lon="4.07959">
        <ele>126</ele>
        <time>2019-05-29T17:27:32Z</time>
      </trkpt>
      <trkpt lat="49.35972" lon="4.07956">
        <ele>126</ele>
        <time>2019-05-29T17:27:33Z</time>
      </trkpt>
      <trkpt lat="49.35968" lon="4.07953">
        <ele>125</ele>
        <time>2019-05-29T17:27:34Z</time>
      </trkpt>
      <trkpt lat="49.35964" lon="4.0795">
        <ele>126</ele>
        <time>2019-05-29T17:27:35Z</time>
      </trkpt>
      <trkpt lat="49.3596" lon="4.07947">
        <ele>126</ele>
        <time>2019-05-29T17:27:36Z</time>
      </trkpt>
      <trkpt lat="49.35956" lon="4.07944">
        <ele>126</ele>
        <time>2019-05-29T17:27:37Z</time>
      </trkpt>
      <trkpt lat="49.35951" lon="4.07942">
        <ele>126</ele>
        <time>2019-05-29T17:27:38Z</time>
      </trkpt>
      <trkpt lat="49.35947" lon="4.07939">
        <ele>126</ele>
        <time>2019-05-29T17:27:39Z</time>
      </trkpt>
      <trkpt lat="49.35943" lon="4.07936">
        <ele>126</ele>
        <time>2019-05-29T17:27:40Z</time>
      </trkpt>
      <trkpt lat="49.35939" lon="4.07933">
        <ele>126</ele>
        <time>2019-05-29T17:27:41Z</time>
      </trkpt>
      <trkpt lat="49.35935" lon="4.0793">
        <ele>126</ele>
        <time>2019-05-29T17:27:42Z</time>
      </trkpt>
      <trkpt lat="49.35931" lon="4.07927">
        <ele>126</ele>
        <time>2019-05-29T17:27:43Z</time>
      </trkpt>
      <trkpt lat="49.35927" lon="4.07925">
        <ele>126</ele>
        <time>2019-05-29T17:27:44Z</time>
      </trkpt>
      <trkpt lat="49.35923" lon="4.07922">
        <ele>126</ele>
        <time>2019-05-29T17:27:45Z</time>
      </trkpt>
      <trkpt lat="49.35919" lon="4.0792">
        <ele>126</ele>
        <time>2019-05-29T17:27:46Z</time>
      </trkpt>
      <trkpt lat="49.35915" lon="4.07917">
        <ele>126</ele>
        <time>2019-05-29T17:27:47Z</time>
      </trkpt>
      <trkpt lat="49.3591" lon="4.07914">
        <ele>126</ele>
        <time>2019-05-29T17:27:48Z</time>
      </trkpt>
      <trkpt lat="49.35906" lon="4.07911">
        <ele>126</ele>
        <time>2019-05-29T17:27:49Z</time>
      </trkpt>
      <trkpt lat="49.35902" lon="4.07908">
        <ele>127</ele>
        <time>2019-05-29T17:27:50Z</time>
      </trkpt>
      <trkpt lat="49.35899" lon="4.07905">
        <ele>127</ele>
        <time>2019-05-29T17:27:51Z</time>
      </trkpt>
      <trkpt lat="49.35895" lon="4.07903">
        <ele>127</ele>
        <time>2019-05-29T17:27:52Z</time>
      </trkpt>
      <trkpt lat="49.35891" lon="4.079">
        <ele>127</ele>
        <time>2019-05-29T17:27:53Z</time>
      </trkpt>
      <trkpt lat="49.35886" lon="4.07897">
        <ele>127</ele>
        <time>2019-05-29T17:27:54Z</time>
      </trkpt>
      <trkpt lat="49.35882" lon="4.07895">
        <ele>127</ele>
        <time>2019-05-29T17:27:55Z</time>
      </trkpt>
      <trkpt lat="49.35879" lon="4.07892">
        <ele>127</ele>
        <time>2019-05-29T17:27:56Z</time>
      </trkpt>
      <trkpt lat="49.35875" lon="4.0789">
        <ele>127</ele>
        <time>2019-05-29T17:27:57Z</time>
      </trkpt>
      <trkpt lat="49.35871" lon="4.07887">
        <ele>127</ele>
        <time>2019-05-29T17:27:58Z</time>
      </trkpt>
      <trkpt lat="49.35867" lon="4.07885">
        <ele>127</ele>
        <time>2019-05-29T17:27:59Z</time>
      </trkpt>
      <trkpt lat="49.35863" lon="4.07882">
        <ele>127</ele>
        <time>2019-05-29T17:28:00Z</time>
      </trkpt>
      <trkpt lat="49.35859" lon="4.07879">
        <ele>128</ele>
        <time>2019-05-29T17:28:01Z</time>
      </trkpt>
      <trkpt lat="49.35855" lon="4.07876">
        <ele>128</ele>
        <time>2019-05-29T17:28:02Z</time>
      </trkpt>
      <trkpt lat="49.35852" lon="4.07874">
        <ele>128</ele>
        <time>2019-05-29T17:28:03Z</time>
      </trkpt>
      <trkpt lat="49.35848" lon="4.07871">
        <ele>128</ele>
        <time>2019-05-29T17:28:04Z</time>
      </trkpt>
      <trkpt lat="49.35843" lon="4.07868">
        <ele>128</ele>
        <time>2019-05-29T17:28:05Z</time>
      </trkpt>
      <trkpt lat="49.35839" lon="4.07865">
        <ele>128</ele>
        <time>2019-05-29T17:28:06Z</time>
      </trkpt>
      <trkpt lat="49.35836" lon="4.07863">
        <ele>128</ele>
        <time>2019-05-29T17:28:07Z</time>
      </trkpt>
      <trkpt lat="49.35832" lon="4.0786">
        <ele>129</ele>
        <time>2019-05-29T17:28:08Z</time>
      </trkpt>
      <trkpt lat="49.35828" lon="4.07857">
        <ele>129</ele>
        <time>2019-05-29T17:28:09Z</time>
      </trkpt>
      <trkpt lat="49.35823" lon="4.07854">
        <ele>129</ele>
        <time>2019-05-29T17:28:10Z</time>
      </trkpt>
      <trkpt lat="49.35819" lon="4.07851">
        <ele>129</ele>
        <time>2019-05-29T17:28:11Z</time>
      </trkpt>
      <trkpt lat="49.35815" lon="4.07849">
        <ele>129</ele>
        <time>2019-05-29T17:28:12Z</time>
      </trkpt>
      <trkpt lat="49.35811" lon="4.07846">
        <ele>130</ele>
        <time>2019-05-29T17:28:13Z</time>
      </trkpt>
      <trkpt lat="49.35807" lon="4.07843">
        <ele>130</ele>
        <time>2019-05-29T17:28:14Z</time>
      </trkpt>
      <trkpt lat="49.35803" lon="4.07841">
        <ele>130</ele>
        <time>2019-05-29T17:28:15Z</time>
      </trkpt>
      <trkpt lat="49.35799" lon="4.07838">
        <ele>130</ele>
        <time>2019-05-29T17:28:16Z</time>
      </trkpt>
      <trkpt lat="49.35795" lon="4.07835">
        <ele>130</ele>
        <time>2019-05-29T17:28:17Z</time>
      </trkpt>
      <trkpt lat="49.35791" lon="4.07832">
        <ele>130</ele>
        <time>2019-05-29T17:28:18Z</time>
      </trkpt>
      <trkpt lat="49.35787" lon="4.07829">
        <ele>130</ele>
        <time>2019-05-29T17:28:19Z</time>
      </trkpt>
      <trkpt lat="49.35783" lon="4.07827">
        <ele>130</ele>
        <time>2019-05-29T17:28:20Z</time>
      </trkpt>
      <trkpt lat="49.35779" lon="4.07824">
        <ele>130</ele>
        <time>2019-05-29T17:28:21Z</time>
      </trkpt>
      <trkpt lat="49.35775" lon="4.07822">
        <ele>130</ele>
        <time>2019-05-29T17:28:22Z</time>
      </trkpt>
      <trkpt lat="49.35771" lon="4.07819">
        <ele>130</ele>
        <time>2019-05-29T17:28:23Z</time>
      </trkpt>
      <trkpt lat="49.35767" lon="4.07816">
        <ele>130</ele>
        <time>2019-05-29T17:28:24Z</time>
      </trkpt>
      <trkpt lat="49.35763" lon="4.07813">
        <ele>130</ele>
        <time>2019-05-29T17:28:25Z</time>
      </trkpt>
      <trkpt lat="49.35759" lon="4.07811">
        <ele>130</ele>
        <time>2019-05-29T17:28:26Z</time>
      </trkpt>
      <trkpt lat="49.35755" lon="4.07808">
        <ele>130</ele>
        <time>2019-05-29T17:28:27Z</time>
      </trkpt>
      <trkpt lat="49.35751" lon="4.07805">
        <ele>131</ele>
        <time>2019-05-29T17:28:28Z</time>
      </trkpt>
      <trkpt lat="49.35747" lon="4.07802">
        <ele>131</ele>
        <time>2019-05-29T17:28:29Z</time>
      </trkpt>
      <trkpt lat="49.35744" lon="4.07799">
        <ele>131</ele>
        <time>2019-05-29T17:28:30Z</time>
      </trkpt>
      <trkpt lat="49.3574" lon="4.07797">
        <ele>131</ele>
        <time>2019-05-29T17:28:31Z</time>
      </trkpt>
      <trkpt lat="49.35735" lon="4.07794">
        <ele>131</ele>
        <time>2019-05-29T17:28:32Z</time>
      </trkpt>
      <trkpt lat="49.35731" lon="4.07791">
        <ele>131</ele>
        <time>2019-05-29T17:28:33Z</time>
      </trkpt>
      <trkpt lat="49.35727" lon="4.07788">
        <ele>131</ele>
        <time>2019-05-29T17:28:34Z</time>
      </trkpt>
      <trkpt lat="49.35723" lon="4.07785">
        <ele>131</ele>
        <time>2019-05-29T17:28:35Z</time>
      </trkpt>
      <trkpt lat="49.3572" lon="4.07783">
        <ele>131</ele>
        <time>2019-05-29T17:28:36Z</time>
      </trkpt>
      <trkpt lat="49.35716" lon="4.07781">
        <ele>131</ele>
        <time>2019-05-29T17:28:37Z</time>
      </trkpt>
      <trkpt lat="49.35712" lon="4.07778">
        <ele>131</ele>
        <time>2019-05-29T17:28:38Z</time>
      </trkpt>
      <trkpt lat="49.35708" lon="4.07776">
        <ele>131</ele>
        <time>2019-05-29T17:28:39Z</time>
      </trkpt>
      <trkpt lat="49.35704" lon="4.07773">
        <ele>132</ele>
        <time>2019-05-29T17:28:40Z</time>
      </trkpt>
      <trkpt lat="49.35701" lon="4.07771">
        <ele>132</ele>
        <time>2019-05-29T17:28:41Z</time>
      </trkpt>
      <trkpt lat="49.35697" lon="4.07768">
        <ele>132</ele>
        <time>2019-05-29T17:28:42Z</time>
      </trkpt>
      <trkpt lat="49.35694" lon="4.07765">
        <ele>132</ele>
        <time>2019-05-29T17:28:43Z</time>
      </trkpt>
      <trkpt lat="49.3569" lon="4.07762">
        <ele>132</ele>
        <time>2019-05-29T17:28:44Z</time>
      </trkpt>
      <trkpt lat="49.35686" lon="4.0776">
        <ele>132</ele>
        <time>2019-05-29T17:28:45Z</time>
      </trkpt>
      <trkpt lat="49.35682" lon="4.07757">
        <ele>132</ele>
        <time>2019-05-29T17:28:46Z</time>
      </trkpt>
      <trkpt lat="49.35679" lon="4.07755">
        <ele>132</ele>
        <time>2019-05-29T17:28:47Z</time>
      </trkpt>
      <trkpt lat="49.35675" lon="4.07753">
        <ele>132</ele>
        <time>2019-05-29T17:28:48Z</time>
      </trkpt>
      <trkpt lat="49.35672" lon="4.07751">
        <ele>132</ele>
        <time>2019-05-29T17:28:49Z</time>
      </trkpt>
      <trkpt lat="49.35668" lon="4.07748">
        <ele>132</ele>
        <time>2019-05-29T17:28:50Z</time>
      </trkpt>
      <trkpt lat="49.35664" lon="4.07746">
        <ele>133</ele>
        <time>2019-05-29T17:28:51Z</time>
      </trkpt>
      <trkpt lat="49.35661" lon="4.07743">
        <ele>133</ele>
        <time>2019-05-29T17:28:52Z</time>
      </trkpt>
      <trkpt lat="49.35657" lon="4.0774">
        <ele>133</ele>
        <time>2019-05-29T17:28:53Z</time>
      </trkpt>
      <trkpt lat="49.35653" lon="4.07737">
        <ele>133</ele>
        <time>2019-05-29T17:28:54Z</time>
      </trkpt>
      <trkpt lat="49.35649" lon="4.07735">
        <ele>133</ele>
        <time>2019-05-29T17:28:55Z</time>
      </trkpt>
      <trkpt lat="49.35645" lon="4.07731">
        <ele>133</ele>
        <time>2019-05-29T17:28:56Z</time>
      </trkpt>
      <trkpt lat="49.35641" lon="4.07729">
        <ele>133</ele>
        <time>2019-05-29T17:28:57Z</time>
      </trkpt>
      <trkpt lat="49.35637" lon="4.07727">
        <ele>133</ele>
        <time>2019-05-29T17:28:58Z</time>
      </trkpt>
      <trkpt lat="49.35633" lon="4.07725">
        <ele>133</ele>
        <time>2019-05-29T17:28:59Z</time>
      </trkpt>
      <trkpt lat="49.3563" lon="4.07722">
        <ele>133</ele>
        <time>2019-05-29T17:29:00Z</time>
      </trkpt>
      <trkpt lat="49.35626" lon="4.07719">
        <ele>133</ele>
        <time>2019-05-29T17:29:01Z</time>
      </trkpt>
      <trkpt lat="49.35622" lon="4.07717">
        <ele>133</ele>
        <time>2019-05-29T17:29:02Z</time>
      </trkpt>
      <trkpt lat="49.35618" lon="4.07714">
        <ele>133</ele>
        <time>2019-05-29T17:29:03Z</time>
      </trkpt>
      <trkpt lat="49.35614" lon="4.07711">
        <ele>133</ele>
        <time>2019-05-29T17:29:04Z</time>
      </trkpt>
      <trkpt lat="49.3561" lon="4.07709">
        <ele>133</ele>
        <time>2019-05-29T17:29:05Z</time>
      </trkpt>
      <trkpt lat="49.35606" lon="4.07705">
        <ele>133</ele>
        <time>2019-05-29T17:29:06Z</time>
      </trkpt>
      <trkpt lat="49.35602" lon="4.07702">
        <ele>133</ele>
        <time>2019-05-29T17:29:07Z</time>
      </trkpt>
      <trkpt lat="49.35597" lon="4.07699">
        <ele>133</ele>
        <time>2019-05-29T17:29:08Z</time>
      </trkpt>
      <trkpt lat="49.35593" lon="4.07696">
        <ele>133</ele>
        <time>2019-05-29T17:29:09Z</time>
      </trkpt>
      <trkpt lat="49.35589" lon="4.07693">
        <ele>134</ele>
        <time>2019-05-29T17:29:10Z</time>
      </trkpt>
      <trkpt lat="49.35585" lon="4.0769">
        <ele>134</ele>
        <time>2019-05-29T17:29:11Z</time>
      </trkpt>
      <trkpt lat="49.3558" lon="4.07688">
        <ele>134</ele>
        <time>2019-05-29T17:29:12Z</time>
      </trkpt>
      <trkpt lat="49.35577" lon="4.07685">
        <ele>134</ele>
        <time>2019-05-29T17:29:13Z</time>
      </trkpt>
      <trkpt lat="49.35573" lon="4.07682">
        <ele>134</ele>
        <time>2019-05-29T17:29:14Z</time>
      </trkpt>
      <trkpt lat="49.35569" lon="4.0768">
        <ele>134</ele>
        <time>2019-05-29T17:29:15Z</time>
      </trkpt>
      <trkpt lat="49.35566" lon="4.07678">
        <ele>134</ele>
        <time>2019-05-29T17:29:16Z</time>
      </trkpt>
      <trkpt lat="49.35562" lon="4.07675">
        <ele>134</ele>
        <time>2019-05-29T17:29:17Z</time>
      </trkpt>
      <trkpt lat="49.35558" lon="4.07672">
        <ele>134</ele>
        <time>2019-05-29T17:29:18Z</time>
      </trkpt>
      <trkpt lat="49.35554" lon="4.07669">
        <ele>134</ele>
        <time>2019-05-29T17:29:19Z</time>
      </trkpt>
      <trkpt lat="49.3555" lon="4.07666">
        <ele>135</ele>
        <time>2019-05-29T17:29:20Z</time>
      </trkpt>
      <trkpt lat="49.35545" lon="4.07663">
        <ele>135</ele>
        <time>2019-05-29T17:29:21Z</time>
      </trkpt>
      <trkpt lat="49.35541" lon="4.07661">
        <ele>134</ele>
        <time>2019-05-29T17:29:22Z</time>
      </trkpt>
      <trkpt lat="49.35537" lon="4.07657">
        <ele>134</ele>
        <time>2019-05-29T17:29:23Z</time>
      </trkpt>
      <trkpt lat="49.35533" lon="4.07655">
        <ele>134</ele>
        <time>2019-05-29T17:29:24Z</time>
      </trkpt>
      <trkpt lat="49.35529" lon="4.07652">
        <ele>134</ele>
        <time>2019-05-29T17:29:25Z</time>
      </trkpt>
      <trkpt lat="49.35525" lon="4.07649">
        <ele>134</ele>
        <time>2019-05-29T17:29:26Z</time>
      </trkpt>
      <trkpt lat="49.35521" lon="4.07647">
        <ele>134</ele>
        <time>2019-05-29T17:29:27Z</time>
      </trkpt>
      <trkpt lat="49.35516" lon="4.07644">
        <ele>134</ele>
        <time>2019-05-29T17:29:28Z</time>
      </trkpt>
      <trkpt lat="49.35512" lon="4.07641">
        <ele>134</ele>
        <time>2019-05-29T17:29:29Z</time>
      </trkpt>
      <trkpt lat="49.35507" lon="4.07638">
        <ele>134</ele>
        <time>2019-05-29T17:29:30Z</time>
      </trkpt>
      <trkpt lat="49.35503" lon="4.07635">
        <ele>134</ele>
        <time>2019-05-29T17:29:31Z</time>
      </trkpt>
      <trkpt lat="49.35499" lon="4.07632">
        <ele>134</ele>
        <time>2019-05-29T17:29:32Z</time>
      </trkpt>
      <trkpt lat="49.35494" lon="4.07629">
        <ele>134</ele>
        <time>2019-05-29T17:29:33Z</time>
      </trkpt>
      <trkpt lat="49.3549" lon="4.07626">
        <ele>135</ele>
        <time>2019-05-29T17:29:34Z</time>
      </trkpt>
      <trkpt lat="49.35486" lon="4.07623">
        <ele>135</ele>
        <time>2019-05-29T17:29:35Z</time>
      </trkpt>
      <trkpt lat="49.35482" lon="4.0762">
        <ele>135</ele>
        <time>2019-05-29T17:29:36Z</time>
      </trkpt>
      <trkpt lat="49.35477" lon="4.07618">
        <ele>135</ele>
        <time>2019-05-29T17:29:37Z</time>
      </trkpt>
      <trkpt lat="49.35473" lon="4.07615">
        <ele>135</ele>
        <time>2019-05-29T17:29:38Z</time>
      </trkpt>
      <trkpt lat="49.35469" lon="4.07612">
        <ele>135</ele>
        <time>2019-05-29T17:29:39Z</time>
      </trkpt>
      <trkpt lat="49.35465" lon="4.07609">
        <ele>135</ele>
        <time>2019-05-29T17:29:40Z</time>
      </trkpt>
      <trkpt lat="49.35461" lon="4.07606">
        <ele>135</ele>
        <time>2019-05-29T17:29:41Z</time>
      </trkpt>
      <trkpt lat="49.35457" lon="4.07604">
        <ele>135</ele>
        <time>2019-05-29T17:29:42Z</time>
      </trkpt>
      <trkpt lat="49.35452" lon="4.07601">
        <ele>135</ele>
        <time>2019-05-29T17:29:43Z</time>
      </trkpt>
      <trkpt lat="49.35448" lon="4.07598">
        <ele>135</ele>
        <time>2019-05-29T17:29:44Z</time>
      </trkpt>
      <trkpt lat="49.35443" lon="4.07595">
        <ele>135</ele>
        <time>2019-05-29T17:29:45Z</time>
      </trkpt>
      <trkpt lat="49.35439" lon="4.07592">
        <ele>135</ele>
        <time>2019-05-29T17:29:46Z</time>
      </trkpt>
      <trkpt lat="49.35434" lon="4.07588">
        <ele>135</ele>
        <time>2019-05-29T17:29:47Z</time>
      </trkpt>
      <trkpt lat="49.35429" lon="4.07584">
        <ele>135</ele>
        <time>2019-05-29T17:29:48Z</time>
      </trkpt>
      <trkpt lat="49.35424" lon="4.07581">
        <ele>135</ele>
        <time>2019-05-29T17:29:49Z</time>
      </trkpt>
      <trkpt lat="49.3542" lon="4.07578">
        <ele>135</ele>
        <time>2019-05-29T17:29:50Z</time>
      </trkpt>
      <trkpt lat="49.35415" lon="4.07575">
        <ele>135</ele>
        <time>2019-05-29T17:29:51Z</time>
      </trkpt>
      <trkpt lat="49.3541" lon="4.07571">
        <ele>135</ele>
        <time>2019-05-29T17:29:52Z</time>
      </trkpt>
      <trkpt lat="49.35406" lon="4.07568">
        <ele>135</ele>
        <time>2019-05-29T17:29:53Z</time>
      </trkpt>
      <trkpt lat="49.35401" lon="4.07566">
        <ele>135</ele>
        <time>2019-05-29T17:29:54Z</time>
      </trkpt>
      <trkpt lat="49.35396" lon="4.07563">
        <ele>135</ele>
        <time>2019-05-29T17:29:55Z</time>
      </trkpt>
      <trkpt lat="49.35392" lon="4.0756">
        <ele>135</ele>
        <time>2019-05-29T17:29:56Z</time>
      </trkpt>
      <trkpt lat="49.35387" lon="4.07556">
        <ele>135</ele>
        <time>2019-05-29T17:29:57Z</time>
      </trkpt>
      <trkpt lat="49.35383" lon="4.07553">
        <ele>135</ele>
        <time>2019-05-29T17:29:58Z</time>
      </trkpt>
      <trkpt lat="49.35379" lon="4.07549">
        <ele>135</ele>
        <time>2019-05-29T17:29:59Z</time>
      </trkpt>
      <trkpt lat="49.35374" lon="4.07545">
        <ele>135</ele>
        <time>2019-05-29T17:30:00Z</time>
      </trkpt>
      <trkpt lat="49.3537" lon="4.07541">
        <ele>135</ele>
        <time>2019-05-29T17:30:01Z</time>
      </trkpt>
      <trkpt lat="49.35366" lon="4.07537">
        <ele>135</ele>
        <time>2019-05-29T17:30:02Z</time>
      </trkpt>
      <trkpt lat="49.35361" lon="4.07533">
        <ele>135</ele>
        <time>2019-05-29T17:30:03Z</time>
      </trkpt>
      <trkpt lat="49.35357" lon="4.07528">
        <ele>135</ele>
        <time>2019-05-29T17:30:04Z</time>
      </trkpt>
      <trkpt lat="49.35352" lon="4.07523">
        <ele>135</ele>
        <time>2019-05-29T17:30:05Z</time>
      </trkpt>
      <trkpt lat="49.35348" lon="4.07519">
        <ele>135</ele>
        <time>2019-05-29T17:30:06Z</time>
      </trkpt>
      <trkpt lat="49.35344" lon="4.07514">
        <ele>135</ele>
        <time>2019-05-29T17:30:07Z</time>
      </trkpt>
      <trkpt lat="49.3534" lon="4.07508">
        <ele>135</ele>
        <time>2019-05-29T17:30:08Z</time>
      </trkpt>
      <trkpt lat="49.35336" lon="4.07502">
        <ele>135</ele>
        <time>2019-05-29T17:30:09Z</time>
      </trkpt>
      <trkpt lat="49.35332" lon="4.07496">
        <ele>135</ele>
        <time>2019-05-29T17:30:10Z</time>
      </trkpt>
      <trkpt lat="49.35327" lon="4.07491">
        <ele>136</ele>
        <time>2019-05-29T17:30:11Z</time>
      </trkpt>
      <trkpt lat="49.35323" lon="4.07486">
        <ele>136</ele>
        <time>2019-05-29T17:30:12Z</time>
      </trkpt>
      <trkpt lat="49.35319" lon="4.07481">
        <ele>136</ele>
        <time>2019-05-29T17:30:13Z</time>
      </trkpt>
      <trkpt lat="49.35314" lon="4.07475">
        <ele>136</ele>
        <time>2019-05-29T17:30:14Z</time>
      </trkpt>
      <trkpt lat="49.3531" lon="4.0747">
        <ele>136</ele>
        <time>2019-05-29T17:30:15Z</time>
      </trkpt>
      <trkpt lat="49.35306" lon="4.07465">
        <ele>136</ele>
        <time>2019-05-29T17:30:16Z</time>
      </trkpt>
      <trkpt lat="49.35301" lon="4.0746">
        <ele>136</ele>
        <time>2019-05-29T17:30:17Z</time>
      </trkpt>
      <trkpt lat="49.35297" lon="4.07454">
        <ele>136</ele>
        <time>2019-05-29T17:30:18Z</time>
      </trkpt>
      <trkpt lat="49.35292" lon="4.07448">
        <ele>136</ele>
        <time>2019-05-29T17:30:19Z</time>
      </trkpt>
      <trkpt lat="49.35288" lon="4.07443">
        <ele>136</ele>
        <time>2019-05-29T17:30:20Z</time>
      </trkpt>
      <trkpt lat="49.35283" lon="4.07438">
        <ele>136</ele>
        <time>2019-05-29T17:30:21Z</time>
      </trkpt>
      <trkpt lat="49.35279" lon="4.07433">
        <ele>136</ele>
        <time>2019-05-29T17:30:22Z</time>
      </trkpt>
      <trkpt lat="49.35275" lon="4.07428">
        <ele>136</ele>
        <time>2019-05-29T17:30:23Z</time>
      </trkpt>
      <trkpt lat="49.35271" lon="4.07423">
        <ele>137</ele>
        <time>2019-05-29T17:30:24Z</time>
      </trkpt>
      <trkpt lat="49.35267" lon="4.07419">
        <ele>137</ele>
        <time>2019-05-29T17:30:25Z</time>
      </trkpt>
      <trkpt lat="49.35263" lon="4.07414">
        <ele>137</ele>
        <time>2019-05-29T17:30:26Z</time>
      </trkpt>
      <trkpt lat="49.35259" lon="4.07409">
        <ele>137</ele>
        <time>2019-05-29T17:30:27Z</time>
      </trkpt>
      <trkpt lat="49.35255" lon="4.07403">
        <ele>137</ele>
        <time>2019-05-29T17:30:28Z</time>
      </trkpt>
      <trkpt lat="49.35251" lon="4.07398">
        <ele>137</ele>
        <time>2019-05-29T17:30:29Z</time>
      </trkpt>
      <trkpt lat="49.35247" lon="4.07392">
        <ele>137</ele>
        <time>2019-05-29T17:30:30Z</time>
      </trkpt>
      <trkpt lat="49.35242" lon="4.07386">
        <ele>137</ele>
        <time>2019-05-29T17:30:31Z</time>
      </trkpt>
      <trkpt lat="49.35238" lon="4.07382">
        <ele>137</ele>
        <time>2019-05-29T17:30:32Z</time>
      </trkpt>
      <trkpt lat="49.35233" lon="4.07376">
        <ele>137</ele>
        <time>2019-05-29T17:30:33Z</time>
      </trkpt>
      <trkpt lat="49.35228" lon="4.07371">
        <ele>137</ele>
        <time>2019-05-29T17:30:34Z</time>
      </trkpt>
      <trkpt lat="49.35224" lon="4.07365">
        <ele>137</ele>
        <time>2019-05-29T17:30:35Z</time>
      </trkpt>
      <trkpt lat="49.35219" lon="4.07359">
        <ele>137</ele>
        <time>2019-05-29T17:30:36Z</time>
      </trkpt>
      <trkpt lat="49.35215" lon="4.07353">
        <ele>137</ele>
        <time>2019-05-29T17:30:37Z</time>
      </trkpt>
      <trkpt lat="49.3521" lon="4.07348">
        <ele>137</ele>
        <time>2019-05-29T17:30:38Z</time>
      </trkpt>
      <trkpt lat="49.35206" lon="4.07343">
        <ele>137</ele>
        <time>2019-05-29T17:30:39Z</time>
      </trkpt>
      <trkpt lat="49.35201" lon="4.07337">
        <ele>137</ele>
        <time>2019-05-29T17:30:40Z</time>
      </trkpt>
      <trkpt lat="49.35197" lon="4.07332">
        <ele>137</ele>
        <time>2019-05-29T17:30:41Z</time>
      </trkpt>
      <trkpt lat="49.35192" lon="4.07326">
        <ele>137</ele>
        <time>2019-05-29T17:30:42Z</time>
      </trkpt>
      <trkpt lat="49.35188" lon="4.07321">
        <ele>138</ele>
        <time>2019-05-29T17:30:43Z</time>
      </trkpt>
      <trkpt lat="49.35183" lon="4.07315">
        <ele>138</ele>
        <time>2019-05-29T17:30:44Z</time>
      </trkpt>
      <trkpt lat="49.35178" lon="4.0731">
        <ele>138</ele>
        <time>2019-05-29T17:30:45Z</time>
      </trkpt>
      <trkpt lat="49.35174" lon="4.07305">
        <ele>138</ele>
        <time>2019-05-29T17:30:46Z</time>
      </trkpt>
      <trkpt lat="49.35169" lon="4.07299">
        <ele>138</ele>
        <time>2019-05-29T17:30:47Z</time>
      </trkpt>
      <trkpt lat="49.35165" lon="4.07294">
        <ele>137</ele>
        <time>2019-05-29T17:30:48Z</time>
      </trkpt>
      <trkpt lat="49.3516" lon="4.07288">
        <ele>137</ele>
        <time>2019-05-29T17:30:49Z</time>
      </trkpt>
      <trkpt lat="49.35156" lon="4.07282">
        <ele>138</ele>
        <time>2019-05-29T17:30:50Z</time>
      </trkpt>
      <trkpt lat="49.35152" lon="4.07277">
        <ele>138</ele>
        <time>2019-05-29T17:30:51Z</time>
      </trkpt>
      <trkpt lat="49.35148" lon="4.07271">
        <ele>138</ele>
        <time>2019-05-29T17:30:52Z</time>
      </trkpt>
      <trkpt lat="49.35144" lon="4.07266">
        <ele>138</ele>
        <time>2019-05-29T17:30:53Z</time>
      </trkpt>
      <trkpt lat="49.3514" lon="4.07261">
        <ele>137</ele>
        <time>2019-05-29T17:30:54Z</time>
      </trkpt>
      <trkpt lat="49.35137" lon="4.07257">
        <ele>137</ele>
        <time>2019-05-29T17:30:55Z</time>
      </trkpt>
      <trkpt lat="49.35133" lon="4.07254">
        <ele>137</ele>
        <time>2019-05-29T17:30:56Z</time>
      </trkpt>
      <trkpt lat="49.3513" lon="4.07251">
        <ele>137</ele>
        <time>2019-05-29T17:30:57Z</time>
      </trkpt>
      <trkpt lat="49.35128" lon="4.07247">
        <ele>137</ele>
        <time>2019-05-29T17:30:58Z</time>
      </trkpt>
      <trkpt lat="49.35124" lon="4.07244">
        <ele>137</ele>
        <time>2019-05-29T17:30:59Z</time>
      </trkpt>
      <trkpt lat="49.35122" lon="4.0724">
        <ele>137</ele>
        <time>2019-05-29T17:31:00Z</time>
      </trkpt>
      <trkpt lat="49.35118" lon="4.07238">
        <ele>137</ele>
        <time>2019-05-29T17:31:01Z</time>
      </trkpt>
      <trkpt lat="49.35113" lon="4.07236">
        <ele>137</ele>
        <time>2019-05-29T17:31:02Z</time>
      </trkpt>
      <trkpt lat="49.35109" lon="4.07235">
        <ele>137</ele>
        <time>2019-05-29T17:31:03Z</time>
      </trkpt>
      <trkpt lat="49.35105" lon="4.07236">
        <ele>137</ele>
        <time>2019-05-29T17:31:04Z</time>
      </trkpt>
      <trkpt lat="49.35101" lon="4.07238">
        <ele>137</ele>
        <time>2019-05-29T17:31:05Z</time>
      </trkpt>
      <trkpt lat="49.35096" lon="4.0724">
        <ele>138</ele>
        <time>2019-05-29T17:31:06Z</time>
      </trkpt>
      <trkpt lat="49.35092" lon="4.07242">
        <ele>138</ele>
        <time>2019-05-29T17:31:07Z</time>
      </trkpt>
      <trkpt lat="49.35088" lon="4.07244">
        <ele>138</ele>
        <time>2019-05-29T17:31:08Z</time>
      </trkpt>
      <trkpt lat="49.35083" lon="4.07247">
        <ele>138</ele>
        <time>2019-05-29T17:31:09Z</time>
      </trkpt>
      <trkpt lat="49.35079" lon="4.07249">
        <ele>139</ele>
        <time>2019-05-29T17:31:10Z</time>
      </trkpt>
      <trkpt lat="49.35074" lon="4.07251">
        <ele>139</ele>
        <time>2019-05-29T17:31:11Z</time>
      </trkpt>
      <trkpt lat="49.35069" lon="4.07253">
        <ele>139</ele>
        <time>2019-05-29T17:31:12Z</time>
      </trkpt>
      <trkpt lat="49.35065" lon="4.07255">
        <ele>139</ele>
        <time>2019-05-29T17:31:13Z</time>
      </trkpt>
      <trkpt lat="49.3506" lon="4.07257">
        <ele>139</ele>
        <time>2019-05-29T17:31:14Z</time>
      </trkpt>
      <trkpt lat="49.35055" lon="4.07259">
        <ele>140</ele>
        <time>2019-05-29T17:31:15Z</time>
      </trkpt>
      <trkpt lat="49.3505" lon="4.07262">
        <ele>140</ele>
        <time>2019-05-29T17:31:16Z</time>
      </trkpt>
      <trkpt lat="49.35044" lon="4.07264">
        <ele>141</ele>
        <time>2019-05-29T17:31:17Z</time>
      </trkpt>
      <trkpt lat="49.35039" lon="4.07266">
        <ele>141</ele>
        <time>2019-05-29T17:31:18Z</time>
      </trkpt>
      <trkpt lat="49.35034" lon="4.07268">
        <ele>141</ele>
        <time>2019-05-29T17:31:19Z</time>
      </trkpt>
      <trkpt lat="49.35029" lon="4.07271">
        <ele>142</ele>
        <time>2019-05-29T17:31:20Z</time>
      </trkpt>
      <trkpt lat="49.35024" lon="4.07273">
        <ele>141</ele>
        <time>2019-05-29T17:31:21Z</time>
      </trkpt>
      <trkpt lat="49.35019" lon="4.07275">
        <ele>141</ele>
        <time>2019-05-29T17:31:22Z</time>
      </trkpt>
      <trkpt lat="49.35013" lon="4.07278">
        <ele>141</ele>
        <time>2019-05-29T17:31:23Z</time>
      </trkpt>
      <trkpt lat="49.35008" lon="4.07281">
        <ele>141</ele>
        <time>2019-05-29T17:31:24Z</time>
      </trkpt>
      <trkpt lat="49.35003" lon="4.07284">
        <ele>141</ele>
        <time>2019-05-29T17:31:25Z</time>
      </trkpt>
      <trkpt lat="49.34998" lon="4.07285">
        <ele>140</ele>
        <time>2019-05-29T17:31:26Z</time>
      </trkpt>
      <trkpt lat="49.34993" lon="4.07287">
        <ele>139</ele>
        <time>2019-05-29T17:31:27Z</time>
      </trkpt>
      <trkpt lat="49.34988" lon="4.07289">
        <ele>139</ele>
        <time>2019-05-29T17:31:28Z</time>
      </trkpt>
      <trkpt lat="49.34982" lon="4.0729">
        <ele>138</ele>
        <time>2019-05-29T17:31:29Z</time>
      </trkpt>
      <trkpt lat="49.34977" lon="4.07292">
        <ele>138</ele>
        <time>2019-05-29T17:31:30Z</time>
      </trkpt>
      <trkpt lat="49.34971" lon="4.07294">
        <ele>137</ele>
        <time>2019-05-29T17:31:31Z</time>
      </trkpt>
      <trkpt lat="49.34966" lon="4.07295">
        <ele>136</ele>
        <time>2019-05-29T17:31:32Z</time>
      </trkpt>
      <trkpt lat="49.34961" lon="4.07297">
        <ele>137</ele>
        <time>2019-05-29T17:31:33Z</time>
      </trkpt>
      <trkpt lat="49.34955" lon="4.07299">
        <ele>137</ele>
        <time>2019-05-29T17:31:34Z</time>
      </trkpt>
      <trkpt lat="49.34949" lon="4.07301">
        <ele>138</ele>
        <time>2019-05-29T17:31:35Z</time>
      </trkpt>
      <trkpt lat="49.34944" lon="4.07304">
        <ele>138</ele>
        <time>2019-05-29T17:31:36Z</time>
      </trkpt>
      <trkpt lat="49.34939" lon="4.07305">
        <ele>138</ele>
        <time>2019-05-29T17:31:37Z</time>
      </trkpt>
      <trkpt lat="49.34934" lon="4.07306">
        <ele>138</ele>
        <time>2019-05-29T17:31:38Z</time>
      </trkpt>
      <trkpt lat="49.34929" lon="4.07308">
        <ele>138</ele>
        <time>2019-05-29T17:31:39Z</time>
      </trkpt>
      <trkpt lat="49.34925" lon="4.07308">
        <ele>137</ele>
        <time>2019-05-29T17:31:40Z</time>
      </trkpt>
      <trkpt lat="49.34921" lon="4.07304">
        <ele>137</ele>
        <time>2019-05-29T17:31:41Z</time>
      </trkpt>
      <trkpt lat="49.34919" lon="4.07298">
        <ele>137</ele>
        <time>2019-05-29T17:31:42Z</time>
      </trkpt>
      <trkpt lat="49.34918" lon="4.07291">
        <ele>137</ele>
        <time>2019-05-29T17:31:43Z</time>
      </trkpt>
      <trkpt lat="49.34919" lon="4.07284">
        <ele>137</ele>
        <time>2019-05-29T17:31:44Z</time>
      </trkpt>
      <trkpt lat="49.34919" lon="4.07277">
        <ele>137</ele>
        <time>2019-05-29T17:31:45Z</time>
      </trkpt>
      <trkpt lat="49.34918" lon="4.07271">
        <ele>136</ele>
        <time>2019-05-29T17:31:46Z</time>
      </trkpt>
      <trkpt lat="49.34918" lon="4.07265">
        <ele>136</ele>
        <time>2019-05-29T17:31:47Z</time>
      </trkpt>
      <trkpt lat="49.34917" lon="4.07259">
        <ele>136</ele>
        <time>2019-05-29T17:31:48Z</time>
      </trkpt>
      <trkpt lat="49.34917" lon="4.07253">
        <ele>136</ele>
        <time>2019-05-29T17:31:49Z</time>
      </trkpt>
      <trkpt lat="49.34916" lon="4.07246">
        <ele>136</ele>
        <time>2019-05-29T17:31:50Z</time>
      </trkpt>
      <trkpt lat="49.34916" lon="4.07239">
        <ele>136</ele>
        <time>2019-05-29T17:31:51Z</time>
      </trkpt>
      <trkpt lat="49.34916" lon="4.07232">
        <ele>136</ele>
        <time>2019-05-29T17:31:52Z</time>
      </trkpt>
      <trkpt lat="49.34916" lon="4.07226">
        <ele>136</ele>
        <time>2019-05-29T17:31:53Z</time>
      </trkpt>
      <trkpt lat="49.34917" lon="4.07219">
        <ele>136</ele>
        <time>2019-05-29T17:31:54Z</time>
      </trkpt>
      <trkpt lat="49.34916" lon="4.07211">
        <ele>136</ele>
        <time>2019-05-29T17:31:55Z</time>
      </trkpt>
      <trkpt lat="49.34916" lon="4.07204">
        <ele>136</ele>
        <time>2019-05-29T17:31:56Z</time>
      </trkpt>
      <trkpt lat="49.34917" lon="4.07196">
        <ele>136</ele>
        <time>2019-05-29T17:31:57Z</time>
      </trkpt>
      <trkpt lat="49.34916" lon="4.07189">
        <ele>136</ele>
        <time>2019-05-29T17:31:58Z</time>
      </trkpt>
      <trkpt lat="49.34916" lon="4.07183">
        <ele>136</ele>
        <time>2019-05-29T17:31:59Z</time>
      </trkpt>
      <trkpt lat="49.34916" lon="4.07177">
        <ele>137</ele>
        <time>2019-05-29T17:32:00Z</time>
      </trkpt>
      <trkpt lat="49.34915" lon="4.07169">
        <ele>137</ele>
        <time>2019-05-29T17:32:01Z</time>
      </trkpt>
      <trkpt lat="49.34915" lon="4.07161">
        <ele>137</ele>
        <time>2019-05-29T17:32:02Z</time>
      </trkpt>
      <trkpt lat="49.34915" lon="4.07154">
        <ele>137</ele>
        <time>2019-05-29T17:32:03Z</time>
      </trkpt>
      <trkpt lat="49.34915" lon="4.07146">
        <ele>137</ele>
        <time>2019-05-29T17:32:04Z</time>
      </trkpt>
      <trkpt lat="49.34915" lon="4.07137">
        <ele>137</ele>
        <time>2019-05-29T17:32:05Z</time>
      </trkpt>
      <trkpt lat="49.34915" lon="4.0713">
        <ele>136</ele>
        <time>2019-05-29T17:32:06Z</time>
      </trkpt>
      <trkpt lat="49.34914" lon="4.07123">
        <ele>136</ele>
        <time>2019-05-29T17:32:07Z</time>
      </trkpt>
      <trkpt lat="49.34914" lon="4.07115">
        <ele>136</ele>
        <time>2019-05-29T17:32:08Z</time>
      </trkpt>
      <trkpt lat="49.34914" lon="4.07108">
        <ele>136</ele>
        <time>2019-05-29T17:32:09Z</time>
      </trkpt>
      <trkpt lat="49.34913" lon="4.071">
        <ele>136</ele>
        <time>2019-05-29T17:32:10Z</time>
      </trkpt>
      <trkpt lat="49.34913" lon="4.07093">
        <ele>136</ele>
        <time>2019-05-29T17:32:11Z</time>
      </trkpt>
      <trkpt lat="49.34913" lon="4.07085">
        <ele>136</ele>
        <time>2019-05-29T17:32:12Z</time>
      </trkpt>
      <trkpt lat="49.34913" lon="4.07077">
        <ele>136</ele>
        <time>2019-05-29T17:32:13Z</time>
      </trkpt>
      <trkpt lat="49.34913" lon="4.0707">
        <ele>136</ele>
        <time>2019-05-29T17:32:14Z</time>
      </trkpt>
      <trkpt lat="49.34913" lon="4.07063">
        <ele>136</ele>
        <time>2019-05-29T17:32:15Z</time>
      </trkpt>
      <trkpt lat="49.34913" lon="4.07056">
        <ele>136</ele>
        <time>2019-05-29T17:32:16Z</time>
      </trkpt>
      <trkpt lat="49.34913" lon="4.07048">
        <ele>136</ele>
        <time>2019-05-29T17:32:17Z</time>
      </trkpt>
      <trkpt lat="49.34912" lon="4.07041">
        <ele>135</ele>
        <time>2019-05-29T17:32:18Z</time>
      </trkpt>
      <trkpt lat="49.34912" lon="4.07034">
        <ele>135</ele>
        <time>2019-05-29T17:32:19Z</time>
      </trkpt>
      <trkpt lat="49.34912" lon="4.07026">
        <ele>135</ele>
        <time>2019-05-29T17:32:20Z</time>
      </trkpt>
      <trkpt lat="49.34912" lon="4.0702">
        <ele>135</ele>
        <time>2019-05-29T17:32:21Z</time>
      </trkpt>
      <trkpt lat="49.34912" lon="4.07015">
        <ele>135</ele>
        <time>2019-05-29T17:32:22Z</time>
      </trkpt>
      <trkpt lat="49.34912" lon="4.0701">
        <ele>135</ele>
        <time>2019-05-29T17:32:23Z</time>
      </trkpt>
      <trkpt lat="49.34911" lon="4.07004">
        <ele>135</ele>
        <time>2019-05-29T17:32:24Z</time>
      </trkpt>
      <trkpt lat="49.34908" lon="4.07">
        <ele>136</ele>
        <time>2019-05-29T17:32:25Z</time>
      </trkpt>
      <trkpt lat="49.34905" lon="4.06998">
        <ele>136</ele>
        <time>2019-05-29T17:32:26Z</time>
      </trkpt>
      <trkpt lat="49.34901" lon="4.06998">
        <ele>136</ele>
        <time>2019-05-29T17:32:27Z</time>
      </trkpt>
      <trkpt lat="49.34898" lon="4.06999">
        <ele>137</ele>
        <time>2019-05-29T17:32:28Z</time>
      </trkpt>
      <trkpt lat="49.34894" lon="4.07001">
        <ele>137</ele>
        <time>2019-05-29T17:32:29Z</time>
      </trkpt>
      <trkpt lat="49.3489" lon="4.07004">
        <ele>137</ele>
        <time>2019-05-29T17:32:30Z</time>
      </trkpt>
      <trkpt lat="49.34886" lon="4.07006">
        <ele>137</ele>
        <time>2019-05-29T17:32:31Z</time>
      </trkpt>
      <trkpt lat="49.34881" lon="4.07009">
        <ele>137</ele>
        <time>2019-05-29T17:32:32Z</time>
      </trkpt>
      <trkpt lat="49.34876" lon="4.07012">
        <ele>137</ele>
        <time>2019-05-29T17:32:33Z</time>
      </trkpt>
      <trkpt lat="49.34871" lon="4.07014">
        <ele>138</ele>
        <time>2019-05-29T17:32:34Z</time>
      </trkpt>
      <trkpt lat="49.34866" lon="4.07017">
        <ele>138</ele>
        <time>2019-05-29T17:32:35Z</time>
      </trkpt>
      <trkpt lat="49.3486" lon="4.0702">
        <ele>138</ele>
        <time>2019-05-29T17:32:36Z</time>
      </trkpt>
      <trkpt lat="49.34854" lon="4.07024">
        <ele>138</ele>
        <time>2019-05-29T17:32:37Z</time>
      </trkpt>
      <trkpt lat="49.34848" lon="4.07027">
        <ele>138</ele>
        <time>2019-05-29T17:32:38Z</time>
      </trkpt>
      <trkpt lat="49.34843" lon="4.0703">
        <ele>138</ele>
        <time>2019-05-29T17:32:39Z</time>
      </trkpt>
      <trkpt lat="49.34837" lon="4.07033">
        <ele>137</ele>
        <time>2019-05-29T17:32:40Z</time>
      </trkpt>
      <trkpt lat="49.34831" lon="4.07036">
        <ele>137</ele>
        <time>2019-05-29T17:32:41Z</time>
      </trkpt>
      <trkpt lat="49.34824" lon="4.07039">
        <ele>137</ele>
        <time>2019-05-29T17:32:42Z</time>
      </trkpt>
      <trkpt lat="49.34818" lon="4.07042">
        <ele>137</ele>
        <time>2019-05-29T17:32:43Z</time>
      </trkpt>
      <trkpt lat="49.34813" lon="4.07046">
        <ele>137</ele>
        <time>2019-05-29T17:32:44Z</time>
      </trkpt>
      <trkpt lat="49.34807" lon="4.07049">
        <ele>137</ele>
        <time>2019-05-29T17:32:45Z</time>
      </trkpt>
      <trkpt lat="49.34801" lon="4.07052">
        <ele>137</ele>
        <time>2019-05-29T17:32:46Z</time>
      </trkpt>
      <trkpt lat="49.34795" lon="4.07055">
        <ele>137</ele>
        <time>2019-05-29T17:32:47Z</time>
      </trkpt>
      <trkpt lat="49.34789" lon="4.07058">
        <ele>137</ele>
        <time>2019-05-29T17:32:48Z</time>
      </trkpt>
      <trkpt lat="49.34783" lon="4.07061">
        <ele>137</ele>
        <time>2019-05-29T17:32:49Z</time>
      </trkpt>
      <trkpt lat="49.34778" lon="4.07064">
        <ele>137</ele>
        <time>2019-05-29T17:32:50Z</time>
      </trkpt>
      <trkpt lat="49.34772" lon="4.07068">
        <ele>138</ele>
        <time>2019-05-29T17:32:51Z</time>
      </trkpt>
      <trkpt lat="49.34766" lon="4.0707">
        <ele>138</ele>
        <time>2019-05-29T17:32:52Z</time>
      </trkpt>
      <trkpt lat="49.3476" lon="4.07073">
        <ele>138</ele>
        <time>2019-05-29T17:32:53Z</time>
      </trkpt>
      <trkpt lat="49.34755" lon="4.07075">
        <ele>138</ele>
        <time>2019-05-29T17:32:54Z</time>
      </trkpt>
      <trkpt lat="49.3475" lon="4.07077">
        <ele>138</ele>
        <time>2019-05-29T17:32:55Z</time>
      </trkpt>
      <trkpt lat="49.34745" lon="4.07076">
        <ele>138</ele>
        <time>2019-05-29T17:32:56Z</time>
      </trkpt>
      <trkpt lat="49.34742" lon="4.07074">
        <ele>137</ele>
        <time>2019-05-29T17:32:57Z</time>
      </trkpt>
      <trkpt lat="49.34741" lon="4.0707">
        <ele>137</ele>
        <time>2019-05-29T17:32:58Z</time>
      </trkpt>
      <trkpt lat="49.34742" lon="4.07066">
        <ele>137</ele>
        <time>2019-05-29T17:32:59Z</time>
      </trkpt>
      <trkpt lat="49.34744" lon="4.07062">
        <ele>137</ele>
        <time>2019-05-29T17:33:00Z</time>
      </trkpt>
      <trkpt lat="49.34746" lon="4.07058">
        <ele>137</ele>
        <time>2019-05-29T17:33:01Z</time>
      </trkpt>
      <trkpt lat="49.34748" lon="4.07054">
        <ele>137</ele>
        <time>2019-05-29T17:33:02Z</time>
      </trkpt>
      <trkpt lat="49.34749" lon="4.07048">
        <ele>137</ele>
        <time>2019-05-29T17:33:03Z</time>
      </trkpt>
      <trkpt lat="49.34751" lon="4.07043">
        <ele>137</ele>
        <time>2019-05-29T17:33:04Z</time>
      </trkpt>
      <trkpt lat="49.34752" lon="4.07039">
        <ele>136</ele>
        <time>2019-05-29T17:33:05Z</time>
      </trkpt>
      <trkpt lat="49.34754" lon="4.07033">
        <ele>136</ele>
        <time>2019-05-29T17:33:06Z</time>
      </trkpt>
      <trkpt lat="49.34755" lon="4.07029">
        <ele>136</ele>
        <time>2019-05-29T17:33:07Z</time>
      </trkpt>
      <trkpt lat="49.34757" lon="4.07023">
        <ele>137</ele>
        <time>2019-05-29T17:33:08Z</time>
      </trkpt>
      <trkpt lat="49.34758" lon="4.07017">
        <ele>137</ele>
        <time>2019-05-29T17:33:09Z</time>
      </trkpt>
      <trkpt lat="49.3476" lon="4.07012">
        <ele>137</ele>
        <time>2019-05-29T17:33:10Z</time>
      </trkpt>
      <trkpt lat="49.34761" lon="4.07007">
        <ele>137</ele>
        <time>2019-05-29T17:33:11Z</time>
      </trkpt>
      <trkpt lat="49.34763" lon="4.07001">
        <ele>137</ele>
        <time>2019-05-29T17:33:12Z</time>
      </trkpt>
      <trkpt lat="49.34764" lon="4.06995">
        <ele>137</ele>
        <time>2019-05-29T17:33:13Z</time>
      </trkpt>
      <trkpt lat="49.34766" lon="4.0699">
        <ele>137</ele>
        <time>2019-05-29T17:33:14Z</time>
      </trkpt>
      <trkpt lat="49.34767" lon="4.06985">
        <ele>138</ele>
        <time>2019-05-29T17:33:15Z</time>
      </trkpt>
      <trkpt lat="49.34768" lon="4.06978">
        <ele>139</ele>
        <time>2019-05-29T17:33:16Z</time>
      </trkpt>
      <trkpt lat="49.3477" lon="4.06972">
        <ele>139</ele>
        <time>2019-05-29T17:33:17Z</time>
      </trkpt>
      <trkpt lat="49.34771" lon="4.06967">
        <ele>139</ele>
        <time>2019-05-29T17:33:18Z</time>
      </trkpt>
      <trkpt lat="49.34772" lon="4.06961">
        <ele>139</ele>
        <time>2019-05-29T17:33:19Z</time>
      </trkpt>
      <trkpt lat="49.34773" lon="4.06955">
        <ele>138</ele>
        <time>2019-05-29T17:33:20Z</time>
      </trkpt>
      <trkpt lat="49.34775" lon="4.0695">
        <ele>138</ele>
        <time>2019-05-29T17:33:21Z</time>
      </trkpt>
      <trkpt lat="49.34776" lon="4.06944">
        <ele>137</ele>
        <time>2019-05-29T17:33:22Z</time>
      </trkpt>
      <trkpt lat="49.34777" lon="4.06938">
        <ele>138</ele>
        <time>2019-05-29T17:33:23Z</time>
      </trkpt>
      <trkpt lat="49.34778" lon="4.06932">
        <ele>138</ele>
        <time>2019-05-29T17:33:24Z</time>
      </trkpt>
      <trkpt lat="49.34779" lon="4.06926">
        <ele>137</ele>
        <time>2019-05-29T17:33:25Z</time>
      </trkpt>
      <trkpt lat="49.3478" lon="4.06919">
        <ele>137</ele>
        <time>2019-05-29T17:33:26Z</time>
      </trkpt>
      <trkpt lat="49.34781" lon="4.06913">
        <ele>137</ele>
        <time>2019-05-29T17:33:27Z</time>
      </trkpt>
      <trkpt lat="49.34783" lon="4.06907">
        <ele>136</ele>
        <time>2019-05-29T17:33:28Z</time>
      </trkpt>
      <trkpt lat="49.34784" lon="4.06901">
        <ele>136</ele>
        <time>2019-05-29T17:33:29Z</time>
      </trkpt>
      <trkpt lat="49.34785" lon="4.06896">
        <ele>136</ele>
        <time>2019-05-29T17:33:30Z</time>
      </trkpt>
      <trkpt lat="49.34786" lon="4.0689">
        <ele>136</ele>
        <time>2019-05-29T17:33:31Z</time>
      </trkpt>
      <trkpt lat="49.34787" lon="4.06884">
        <ele>137</ele>
        <time>2019-05-29T17:33:32Z</time>
      </trkpt>
      <trkpt lat="49.34788" lon="4.06879">
        <ele>137</ele>
        <time>2019-05-29T17:33:33Z</time>
      </trkpt>
      <trkpt lat="49.34789" lon="4.06874">
        <ele>137</ele>
        <time>2019-05-29T17:33:34Z</time>
      </trkpt>
      <trkpt lat="49.3479" lon="4.06869">
        <ele>137</ele>
        <time>2019-05-29T17:33:35Z</time>
      </trkpt>
      <trkpt lat="49.34791" lon="4.06863">
        <ele>137</ele>
        <time>2019-05-29T17:33:36Z</time>
      </trkpt>
      <trkpt lat="49.34792" lon="4.06858">
        <ele>137</ele>
        <time>2019-05-29T17:33:37Z</time>
      </trkpt>
      <trkpt lat="49.34793" lon="4.06854">
        <ele>137</ele>
        <time>2019-05-29T17:33:38Z</time>
      </trkpt>
      <trkpt lat="49.34794" lon="4.06849">
        <ele>137</ele>
        <time>2019-05-29T17:33:39Z</time>
      </trkpt>
      <trkpt lat="49.34795" lon="4.06844">
        <ele>137</ele>
        <time>2019-05-29T17:33:40Z</time>
      </trkpt>
      <trkpt lat="49.34796" lon="4.06839">
        <ele>137</ele>
        <time>2019-05-29T17:33:41Z</time>
      </trkpt>
      <trkpt lat="49.34797" lon="4.06834">
        <ele>137</ele>
        <time>2019-05-29T17:33:42Z</time>
      </trkpt>
      <trkpt lat="49.34798" lon="4.06829">
        <ele>138</ele>
        <time>2019-05-29T17:33:43Z</time>
      </trkpt>
      <trkpt lat="49.34799" lon="4.06824">
        <ele>138</ele>
        <time>2019-05-29T17:33:44Z</time>
      </trkpt>
      <trkpt lat="49.348" lon="4.06819">
        <ele>138</ele>
        <time>2019-05-29T17:33:45Z</time>
      </trkpt>
      <trkpt lat="49.34801" lon="4.06814">
        <ele>138</ele>
        <time>2019-05-29T17:33:46Z</time>
      </trkpt>
      <trkpt lat="49.34803" lon="4.06808">
        <ele>137</ele>
        <time>2019-05-29T17:33:47Z</time>
      </trkpt>
      <trkpt lat="49.34804" lon="4.06802">
        <ele>137</ele>
        <time>2019-05-29T17:33:48Z</time>
      </trkpt>
      <trkpt lat="49.34805" lon="4.06796">
        <ele>137</ele>
        <time>2019-05-29T17:33:49Z</time>
      </trkpt>
      <trkpt lat="49.34806" lon="4.0679">
        <ele>138</ele>
        <time>2019-05-29T17:33:50Z</time>
      </trkpt>
      <trkpt lat="49.34808" lon="4.06784">
        <ele>138</ele>
        <time>2019-05-29T17:33:51Z</time>
      </trkpt>
      <trkpt lat="49.3481" lon="4.06778">
        <ele>138</ele>
        <time>2019-05-29T17:33:52Z</time>
      </trkpt>
      <trkpt lat="49.34811" lon="4.06772">
        <ele>138</ele>
        <time>2019-05-29T17:33:53Z</time>
      </trkpt>
      <trkpt lat="49.34812" lon="4.06766">
        <ele>138</ele>
        <time>2019-05-29T17:33:54Z</time>
      </trkpt>
      <trkpt lat="49.34813" lon="4.06759">
        <ele>138</ele>
        <time>2019-05-29T17:33:55Z</time>
      </trkpt>
      <trkpt lat="49.34815" lon="4.06753">
        <ele>138</ele>
        <time>2019-05-29T17:33:56Z</time>
      </trkpt>
      <trkpt lat="49.34816" lon="4.06747">
        <ele>138</ele>
        <time>2019-05-29T17:33:57Z</time>
      </trkpt>
      <trkpt lat="49.34817" lon="4.06741">
        <ele>138</ele>
        <time>2019-05-29T17:33:58Z</time>
      </trkpt>
      <trkpt lat="49.34818" lon="4.06736">
        <ele>138</ele>
        <time>2019-05-29T17:33:59Z</time>
      </trkpt>
      <trkpt lat="49.3482" lon="4.0673">
        <ele>138</ele>
        <time>2019-05-29T17:34:00Z</time>
      </trkpt>
      <trkpt lat="49.34821" lon="4.06724">
        <ele>138</ele>
        <time>2019-05-29T17:34:01Z</time>
      </trkpt>
      <trkpt lat="49.34822" lon="4.06719">
        <ele>139</ele>
        <time>2019-05-29T17:34:02Z</time>
      </trkpt>
      <trkpt lat="49.34823" lon="4.06713">
        <ele>139</ele>
        <time>2019-05-29T17:34:03Z</time>
      </trkpt>
      <trkpt lat="49.34824" lon="4.06708">
        <ele>139</ele>
        <time>2019-05-29T17:34:04Z</time>
      </trkpt>
      <trkpt lat="49.34825" lon="4.06703">
        <ele>140</ele>
        <time>2019-05-29T17:34:05Z</time>
      </trkpt>
      <trkpt lat="49.34826" lon="4.06698">
        <ele>140</ele>
        <time>2019-05-29T17:34:06Z</time>
      </trkpt>
      <trkpt lat="49.34827" lon="4.06693">
        <ele>140</ele>
        <time>2019-05-29T17:34:07Z</time>
      </trkpt>
      <trkpt lat="49.34827" lon="4.06687">
        <ele>141</ele>
        <time>2019-05-29T17:34:08Z</time>
      </trkpt>
      <trkpt lat="49.34828" lon="4.06682">
        <ele>141</ele>
        <time>2019-05-29T17:34:09Z</time>
      </trkpt>
      <trkpt lat="49.34828" lon="4.06677">
        <ele>141</ele>
        <time>2019-05-29T17:34:10Z</time>
      </trkpt>
      <trkpt lat="49.34829" lon="4.06671">
        <ele>141</ele>
        <time>2019-05-29T17:34:11Z</time>
      </trkpt>
      <trkpt lat="49.3483" lon="4.06667">
        <ele>141</ele>
        <time>2019-05-29T17:34:12Z</time>
      </trkpt>
      <trkpt lat="49.34832" lon="4.06662">
        <ele>142</ele>
        <time>2019-05-29T17:34:13Z</time>
      </trkpt>
      <trkpt lat="49.34833" lon="4.06657">
        <ele>142</ele>
        <time>2019-05-29T17:34:14Z</time>
      </trkpt>
      <trkpt lat="49.34834" lon="4.06653">
        <ele>142</ele>
        <time>2019-05-29T17:34:15Z</time>
      </trkpt>
      <trkpt lat="49.34836" lon="4.06649">
        <ele>143</ele>
        <time>2019-05-29T17:34:16Z</time>
      </trkpt>
      <trkpt lat="49.34837" lon="4.06645">
        <ele>143</ele>
        <time>2019-05-29T17:34:17Z</time>
      </trkpt>
      <trkpt lat="49.34839" lon="4.06641">
        <ele>143</ele>
        <time>2019-05-29T17:34:18Z</time>
      </trkpt>
      <trkpt lat="49.3484" lon="4.06637">
        <ele>142</ele>
        <time>2019-05-29T17:34:19Z</time>
      </trkpt>
      <trkpt lat="49.34841" lon="4.06633">
        <ele>143</ele>
        <time>2019-05-29T17:34:20Z</time>
      </trkpt>
      <trkpt lat="49.34842" lon="4.06631">
        <ele>142</ele>
        <time>2019-05-29T17:34:21Z</time>
      </trkpt>
      <trkpt lat="49.34843" lon="4.06628">
        <ele>142</ele>
        <time>2019-05-29T17:34:22Z</time>
      </trkpt>
      <trkpt lat="49.34844" lon="4.06624">
        <ele>142</ele>
        <time>2019-05-29T17:34:23Z</time>
      </trkpt>
      <trkpt lat="49.34845" lon="4.0662">
        <ele>142</ele>
        <time>2019-05-29T17:34:24Z</time>
      </trkpt>
      <trkpt lat="49.34845" lon="4.06618">
        <ele>143</ele>
        <time>2019-05-29T17:34:25Z</time>
      </trkpt>
      <trkpt lat="49.34845" lon="4.06614">
        <ele>143</ele>
        <time>2019-05-29T17:34:26Z</time>
      </trkpt>
      <trkpt lat="49.34844" lon="4.06612">
        <ele>144</ele>
        <time>2019-05-29T17:34:27Z</time>
      </trkpt>
      <trkpt lat="49.34843" lon="4.06609">
        <ele>144</ele>
        <time>2019-05-29T17:34:28Z</time>
      </trkpt>
      <trkpt lat="49.3484" lon="4.06607">
        <ele>144</ele>
        <time>2019-05-29T17:34:29Z</time>
      </trkpt>
      <trkpt lat="49.34837" lon="4.06606">
        <ele>143</ele>
        <time>2019-05-29T17:34:30Z</time>
      </trkpt>
      <trkpt lat="49.34834" lon="4.06607">
        <ele>143</ele>
        <time>2019-05-29T17:34:31Z</time>
      </trkpt>
      <trkpt lat="49.34832" lon="4.06608">
        <ele>143</ele>
        <time>2019-05-29T17:34:32Z</time>
      </trkpt>
      <trkpt lat="49.3483" lon="4.0661">
        <ele>143</ele>
        <time>2019-05-29T17:34:33Z</time>
      </trkpt>
      <trkpt lat="49.34829" lon="4.06612">
        <ele>143</ele>
        <time>2019-05-29T17:34:34Z</time>
      </trkpt>
      <trkpt lat="49.34829" lon="4.06612">
        <ele>142</ele>
        <time>2019-05-29T17:34:35Z</time>
      </trkpt>
      <trkpt lat="49.34829" lon="4.06613">
        <ele>142</ele>
        <time>2019-05-29T17:34:36Z</time>
      </trkpt>
      <trkpt lat="49.34829" lon="4.06613">
        <ele>142</ele>
        <time>2019-05-29T17:34:37Z</time>
      </trkpt>
      <trkpt lat="49.34829" lon="4.06614">
        <ele>142</ele>
        <time>2019-05-29T17:34:38Z</time>
      </trkpt>
      <trkpt lat="49.34829" lon="4.06614">
        <ele>142</ele>
        <time>2019-05-29T17:34:39Z</time>
      </trkpt>
      <trkpt lat="49.34829" lon="4.06614">
        <ele>142</ele>
        <time>2019-05-29T17:34:40Z</time>
      </trkpt>
      <trkpt lat="49.34829" lon="4.06614">
        <ele>142</ele>
        <time>2019-05-29T17:34:41Z</time>
      </trkpt>
      <trkpt lat="49.34829" lon="4.06614">
        <ele>142</ele>
        <time>2019-05-29T17:34:42Z</time>
      </trkpt>
      <trkpt lat="49.34829" lon="4.06614">
        <ele>142</ele>
        <time>2019-05-29T17:34:43Z</time>
      </trkpt>
      <trkpt lat="49.34829" lon="4.06614">
        <ele>142</ele>
        <time>2019-05-29T17:34:44Z</time>
      </trkpt>
      <trkpt lat="49.34829" lon="4.06614">
        <ele>142</ele>
        <time>2019-05-29T17:34:45Z</time>
      </trkpt>
      <trkpt lat="49.34829" lon="4.06614">
        <ele>142</ele>
        <time>2019-05-29T17:34:46Z</time>
      </trkpt>
      <trkpt lat="49.34829" lon="4.06614">
        <ele>142</ele>
        <time>2019-05-29T17:34:47Z</time>
      </trkpt>
      <trkpt lat="49.34829" lon="4.06614">
        <ele>142</ele>
        <time>2019-05-29T17:34:48Z</time>
      </trkpt>
      <trkpt lat="49.34829" lon="4.06614">
        <ele>142</ele>
        <time>2019-05-29T17:34:49Z</time>
      </trkpt>
      <trkpt lat="49.34829" lon="4.06614">
        <ele>142</ele>
        <time>2019-05-29T17:34:50Z</time>
      </trkpt>
      <trkpt lat="49.34829" lon="4.06614">
        <ele>142</ele>
        <time>2019-05-29T17:34:51Z</time>
      </trkpt>
      <trkpt lat="49.34829" lon="4.06614">
        <ele>142</ele>
        <time>2019-05-29T17:34:52Z</time>
      </trkpt>
      <trkpt lat="49.34829" lon="4.06614">
        <ele>142</ele>
        <time>2019-05-29T17:34:53Z</time>
      </trkpt>
      <trkpt lat="49.34829" lon="4.06614">
        <ele>142</ele>
        <time>2019-05-29T17:34:54Z</time>
      </trkpt>
      <trkpt lat="49.34829" lon="4.06614">
        <ele>142</ele>
        <time>2019-05-29T17:34:55Z</time>
      </trkpt>
      <trkpt lat="49.34829" lon="4.06614">
        <ele>142</ele>
        <time>2019-05-29T17:34:56Z</time>
      </trkpt>
      <trkpt lat="49.34829" lon="4.06614">
        <ele>142</ele>
        <time>2019-05-29T17:34:57Z</time>
      </trkpt>
      <trkpt lat="49.34829" lon="4.06614">
        <ele>142</ele>
        <time>2019-05-29T17:34:58Z</time>
      </trkpt>
      <trkpt lat="49.34829" lon="4.06614">
        <ele>142</ele>
        <time>2019-05-29T17:34:59Z</time>
      </trkpt>
      <trkpt lat="49.34829" lon="4.06614">
        <ele>142</ele>
        <time>2019-05-29T17:35:00Z</time>
      </trkpt>
      <trkpt lat="49.34829" lon="4.06614">
        <ele>142</ele>
        <time>2019-05-29T17:35:01Z</time>
      </trkpt>
      <trkpt lat="49.34829" lon="4.06614">
        <ele>142</ele>
        <time>2019-05-29T17:35:02Z</time>
      </trkpt>
      <trkpt lat="49.34829" lon="4.06614">
        <ele>142</ele>
        <time>2019-05-29T17:35:03Z</time>
      </trkpt>
      <trkpt lat="49.34829" lon="4.06614">
        <ele>142</ele>
        <time>2019-05-29T17:35:04Z</time>
      </trkpt>
      <trkpt lat="49.34829" lon="4.06613">
        <ele>141</ele>
        <time>2019-05-29T17:35:05Z</time>
      </trkpt>
      <trkpt lat="49.34829" lon="4.06613">
        <ele>141</ele>
        <time>2019-05-29T17:35:06Z</time>
      </trkpt>
      <trkpt lat="49.34829" lon="4.06613">
        <ele>141</ele>
        <time>2019-05-29T17:35:07Z</time>
      </trkpt>
      <trkpt lat="49.34829" lon="4.06613">
        <ele>141</ele>
        <time>2019-05-29T17:35:08Z</time>
      </trkpt>
      <trkpt lat="49.34829" lon="4.06613">
        <ele>141</ele>
        <time>2019-05-29T17:35:09Z</time>
      </trkpt>
      <trkpt lat="49.34829" lon="4.06613">
        <ele>141</ele>
        <time>2019-05-29T17:35:10Z</time>
      </trkpt>
      <trkpt lat="49.34829" lon="4.06613">
        <ele>141</ele>
        <time>2019-05-29T17:35:11Z</time>
      </trkpt>
      <trkpt lat="49.34829" lon="4.06613">
        <ele>141</ele>
        <time>2019-05-29T17:35:12Z</time>
      </trkpt>
      <trkpt lat="49.34829" lon="4.06613">
        <ele>141</ele>
        <time>2019-05-29T17:35:13Z</time>
      </trkpt>
      <trkpt lat="49.34829" lon="4.06613">
        <ele>141</ele>
        <time>2019-05-29T17:35:14Z</time>
      </trkpt>
      <trkpt lat="49.34829" lon="4.06613">
        <ele>141</ele>
        <time>2019-05-29T17:35:15Z</time>
      </trkpt>
      <trkpt lat="49.34829" lon="4.06613">
        <ele>141</ele>
        <time>2019-05-29T17:35:16Z</time>
      </trkpt>
      <trkpt lat="49.34829" lon="4.06613">
        <ele>141</ele>
        <time>2019-05-29T17:35:17Z</time>
      </trkpt>
      <trkpt lat="49.34829" lon="4.06613">
        <ele>141</ele>
        <time>2019-05-29T17:35:18Z</time>
      </trkpt>
      <trkpt lat="49.34829" lon="4.06613">
        <ele>141</ele>
        <time>2019-05-29T17:35:19Z</time>
      </trkpt>
      <trkpt lat="49.34829" lon="4.06613">
        <ele>141</ele>
        <time>2019-05-29T17:35:20Z</time>
      </trkpt>
      <trkpt lat="49.34829" lon="4.06613">
        <ele>141</ele>
        <time>2019-05-29T17:35:21Z</time>
      </trkpt>
      <trkpt lat="49.34829" lon="4.06613">
        <ele>141</ele>
        <time>2019-05-29T17:35:22Z</time>
      </trkpt>
      <trkpt lat="49.34829" lon="4.06613">
        <ele>141</ele>
        <time>2019-05-29T17:35:23Z</time>
      </trkpt>
      <trkpt lat="49.34829" lon="4.06613">
        <ele>141</ele>
        <time>2019-05-29T17:35:24Z</time>
      </trkpt>
      <trkpt lat="49.34829" lon="4.06613">
        <ele>141</ele>
        <time>2019-05-29T17:35:25Z</time>
      </trkpt>
      <trkpt lat="49.34829" lon="4.06613">
        <ele>141</ele>
        <time>2019-05-29T17:35:26Z</time>
      </trkpt>
      <trkpt lat="49.34829" lon="4.06613">
        <ele>141</ele>
        <time>2019-05-29T17:35:27Z</time>
      </trkpt>
      <trkpt lat="49.34829" lon="4.06613">
        <ele>141</ele>
        <time>2019-05-29T17:35:28Z</time>
      </trkpt>
      <trkpt lat="49.34829" lon="4.06613">
        <ele>141</ele>
        <time>2019-05-29T17:35:29Z</time>
      </trkpt>
      <trkpt lat="49.34829" lon="4.06613">
        <ele>141</ele>
        <time>2019-05-29T17:35:30Z</time>
      </trkpt>
      <trkpt lat="49.34829" lon="4.06613">
        <ele>141</ele>
        <time>2019-05-29T17:35:31Z</time>
      </trkpt>
      <trkpt lat="49.34829" lon="4.06613">
        <ele>141</ele>
        <time>2019-05-29T17:35:32Z</time>
      </trkpt>
      <trkpt lat="49.34829" lon="4.06613">
        <ele>141</ele>
        <time>2019-05-29T17:35:33Z</time>
      </trkpt>
      <trkpt lat="49.34829" lon="4.06613">
        <ele>141</ele>
        <time>2019-05-29T17:35:34Z</time>
      </trkpt>
      <trkpt lat="49.34829" lon="4.06613">
        <ele>141</ele>
        <time>2019-05-29T17:35:35Z</time>
      </trkpt>
      <trkpt lat="49.34829" lon="4.06613">
        <ele>141</ele>
        <time>2019-05-29T17:35:36Z</time>
      </trkpt>
      <trkpt lat="49.34829" lon="4.06613">
        <ele>141</ele>
        <time>2019-05-29T17:35:37Z</time>
      </trkpt>
      <trkpt lat="49.34829" lon="4.06613">
        <ele>141</ele>
        <time>2019-05-29T17:35:38Z</time>
      </trkpt>
      <trkpt lat="49.34829" lon="4.06613">
        <ele>141</ele>
        <time>2019-05-29T17:35:39Z</time>
      </trkpt>
      <trkpt lat="49.34829" lon="4.06613">
        <ele>141</ele>
        <time>2019-05-29T17:35:40Z</time>
      </trkpt>
      <trkpt lat="49.34829" lon="4.06613">
        <ele>141</ele>
        <time>2019-05-29T17:35:41Z</time>
      </trkpt>
      <trkpt lat="49.34829" lon="4.06613">
        <ele>141</ele>
        <time>2019-05-29T17:35:42Z</time>
      </trkpt>
      <trkpt lat="49.34829" lon="4.06613">
        <ele>141</ele>
        <time>2019-05-29T17:35:43Z</time>
      </trkpt>
      <trkpt lat="49.34829" lon="4.06613">
        <ele>141</ele>
        <time>2019-05-29T17:35:44Z</time>
      </trkpt>
      <trkpt lat="49.34829" lon="4.06613">
        <ele>141</ele>
        <time>2019-05-29T17:35:45Z</time>
      </trkpt>
      <trkpt lat="49.34829" lon="4.06613">
        <ele>141</ele>
        <time>2019-05-29T17:35:46Z</time>
      </trkpt>
      <trkpt lat="49.34829" lon="4.06613">
        <ele>141</ele>
        <time>2019-05-29T17:35:47Z</time>
      </trkpt>
      <trkpt lat="49.34829" lon="4.06613">
        <ele>141</ele>
        <time>2019-05-29T17:35:48Z</time>
      </trkpt>
      <trkpt lat="49.34829" lon="4.06613">
        <ele>141</ele>
        <time>2019-05-29T17:35:49Z</time>
      </trkpt>
      <trkpt lat="49.34829" lon="4.06613">
        <ele>141</ele>
        <time>2019-05-29T17:35:50Z</time>
      </trkpt>
      <trkpt lat="49.34829" lon="4.06613">
        <ele>141</ele>
        <time>2019-05-29T17:35:51Z</time>
      </trkpt>
      <trkpt lat="49.34829" lon="4.06613">
        <ele>141</ele>
        <time>2019-05-29T17:35:52Z</time>
      </trkpt>
      <trkpt lat="49.34829" lon="4.06613">
        <ele>141</ele>
        <time>2019-05-29T17:35:53Z</time>
      </trkpt>
      <trkpt lat="49.34829" lon="4.06613">
        <ele>141</ele>
        <time>2019-05-29T17:35:54Z</time>
      </trkpt>
      <trkpt lat="49.34829" lon="4.06613">
        <ele>141</ele>
        <time>2019-05-29T17:35:55Z</time>
      </trkpt>
      <trkpt lat="49.34829" lon="4.06613">
        <ele>141</ele>
        <time>2019-05-29T17:35:56Z</time>
      </trkpt>
      <trkpt lat="49.34829" lon="4.06613">
        <ele>141</ele>
        <time>2019-05-29T17:35:57Z</time>
      </trkpt>
      <trkpt lat="49.34829" lon="4.06613">
        <ele>141</ele>
        <time>2019-05-29T17:35:58Z</time>
      </trkpt>
      <trkpt lat="49.34829" lon="4.06613">
        <ele>141</ele>
        <time>2019-05-29T17:35:59Z</time>
      </trkpt>
      <trkpt lat="49.34829" lon="4.06613">
        <ele>141</ele>
        <time>2019-05-29T17:36:00Z</time>
      </trkpt>
      <trkpt lat="49.34829" lon="4.06613">
        <ele>141</ele>
        <time>2019-05-29T17:36:01Z</time>
      </trkpt>
      <trkpt lat="49.34829" lon="4.06613">
        <ele>141</ele>
        <time>2019-05-29T17:36:02Z</time>
      </trkpt>
      <trkpt lat="49.34829" lon="4.06613">
        <ele>141</ele>
        <time>2019-05-29T17:36:03Z</time>
      </trkpt>
      <trkpt lat="49.34829" lon="4.06613">
        <ele>141</ele>
        <time>2019-05-29T17:36:04Z</time>
      </trkpt>
      <trkpt lat="49.34829" lon="4.06613">
        <ele>141</ele>
        <time>2019-05-29T17:36:05Z</time>
      </trkpt>
      <trkpt lat="49.34829" lon="4.06613">
        <ele>141</ele>
        <time>2019-05-29T17:36:06Z</time>
      </trkpt>
      <trkpt lat="49.34829" lon="4.06613">
        <ele>141</ele>
        <time>2019-05-29T17:36:07Z</time>
      </trkpt>
      <trkpt lat="49.34829" lon="4.06613">
        <ele>141</ele>
        <time>2019-05-29T17:36:08Z</time>
      </trkpt>
      <trkpt lat="49.34829" lon="4.06613">
        <ele>141</ele>
        <time>2019-05-29T17:36:09Z</time>
      </trkpt>
      <trkpt lat="49.34829" lon="4.06613">
        <ele>141</ele>
        <time>2019-05-29T17:36:10Z</time>
      </trkpt>
      <trkpt lat="49.34829" lon="4.06613">
        <ele>141</ele>
        <time>2019-05-29T17:36:11Z</time>
      </trkpt>
      <trkpt lat="49.34829" lon="4.06613">
        <ele>141</ele>
        <time>2019-05-29T17:36:12Z</time>
      </trkpt>
      <trkpt lat="49.34829" lon="4.06613">
        <ele>141</ele>
        <time>2019-05-29T17:36:13Z</time>
      </trkpt>
      <trkpt lat="49.34829" lon="4.06613">
        <ele>141</ele>
        <time>2019-05-29T17:36:14Z</time>
      </trkpt>
      <trkpt lat="49.34829" lon="4.06613">
        <ele>141</ele>
        <time>2019-05-29T17:36:15Z</time>
      </trkpt>
      <trkpt lat="49.34829" lon="4.06613">
        <ele>141</ele>
        <time>2019-05-29T17:36:16Z</time>
      </trkpt>
      <trkpt lat="49.34829" lon="4.06613">
        <ele>141</ele>
        <time>2019-05-29T17:36:17Z</time>
      </trkpt>
      <trkpt lat="49.34829" lon="4.06613">
        <ele>141</ele>
        <time>2019-05-29T17:36:18Z</time>
      </trkpt>
      <trkpt lat="49.34829" lon="4.06613">
        <ele>141</ele>
        <time>2019-05-29T17:36:19Z</time>
      </trkpt>
      <trkpt lat="49.34829" lon="4.06613">
        <ele>141</ele>
        <time>2019-05-29T17:36:20Z</time>
      </trkpt>
      <trkpt lat="49.34829" lon="4.06613">
        <ele>141</ele>
        <time>2019-05-29T17:36:21Z</time>
      </trkpt>
      <trkpt lat="49.34829" lon="4.06613">
        <ele>141</ele>
        <time>2019-05-29T17:36:22Z</time>
      </trkpt>
      <trkpt lat="49.34829" lon="4.06613">
        <ele>140</ele>
        <time>2019-05-29T17:36:23Z</time>
      </trkpt>
      <trkpt lat="49.34829" lon="4.06614">
        <ele>140</ele>
        <time>2019-05-29T17:36:24Z</time>
      </trkpt>
      <trkpt lat="49.34829" lon="4.06613">
        <ele>141</ele>
        <time>2019-05-29T17:36:25Z</time>
      </trkpt>
      <trkpt lat="49.34829" lon="4.06613">
        <ele>140</ele>
        <time>2019-05-29T17:36:26Z</time>
      </trkpt>
      <trkpt lat="49.34829" lon="4.06613">
        <ele>140</ele>
        <time>2019-05-29T17:36:27Z</time>
      </trkpt>
      <trkpt lat="49.34829" lon="4.06613">
        <ele>140</ele>
        <time>2019-05-29T17:36:28Z</time>
      </trkpt>
      <trkpt lat="49.34829" lon="4.06613">
        <ele>140</ele>
        <time>2019-05-29T17:36:29Z</time>
      </trkpt>
      <trkpt lat="49.34829" lon="4.06613">
        <ele>140</ele>
        <time>2019-05-29T17:36:30Z</time>
      </trkpt>
      <trkpt lat="49.34829" lon="4.06613">
        <ele>140</ele>
        <time>2019-05-29T17:36:31Z</time>
      </trkpt>
      <trkpt lat="49.34829" lon="4.06613">
        <ele>140</ele>
        <time>2019-05-29T17:36:32Z</time>
      </trkpt>
      <trkpt lat="49.34829" lon="4.06613">
        <ele>140</ele>
        <time>2019-05-29T17:36:33Z</time>
      </trkpt>
      <trkpt lat="49.34829" lon="4.06613">
        <ele>140</ele>
        <time>2019-05-29T17:36:34Z</time>
      </trkpt>
      <trkpt lat="49.34829" lon="4.06613">
        <ele>140</ele>
        <time>2019-05-29T17:36:35Z</time>
      </trkpt>
      <trkpt lat="49.34829" lon="4.06613">
        <ele>140</ele>
        <time>2019-05-29T17:36:36Z</time>
      </trkpt>
      <trkpt lat="49.34829" lon="4.06613">
        <ele>140</ele>
        <time>2019-05-29T17:36:37Z</time>
      </trkpt>
      <trkpt lat="49.34829" lon="4.06613">
        <ele>140</ele>
        <time>2019-05-29T17:36:38Z</time>
      </trkpt>
      <trkpt lat="49.34829" lon="4.06613">
        <ele>140</ele>
        <time>2019-05-29T17:36:39Z</time>
      </trkpt>
      <trkpt lat="49.34829" lon="4.06613">
        <ele>140</ele>
        <time>2019-05-29T17:36:40Z</time>
      </trkpt>
      <trkpt lat="49.34829" lon="4.06613">
        <ele>140</ele>
        <time>2019-05-29T17:36:41Z</time>
      </trkpt>
      <trkpt lat="49.34829" lon="4.06613">
        <ele>140</ele>
        <time>2019-05-29T17:36:42Z</time>
      </trkpt>
      <trkpt lat="49.34829" lon="4.06613">
        <ele>140</ele>
        <time>2019-05-29T17:36:43Z</time>
      </trkpt>
      <trkpt lat="49.34829" lon="4.06613">
        <ele>140</ele>
        <time>2019-05-29T17:36:44Z</time>
      </trkpt>
      <trkpt lat="49.34829" lon="4.06613">
        <ele>140</ele>
        <time>2019-05-29T17:36:45Z</time>
      </trkpt>
      <trkpt lat="49.34829" lon="4.06613">
        <ele>140</ele>
        <time>2019-05-29T17:36:46Z</time>
      </trkpt>
      <trkpt lat="49.34829" lon="4.06613">
        <ele>140</ele>
        <time>2019-05-29T17:36:47Z</time>
      </trkpt>
      <trkpt lat="49.34829" lon="4.06613">
        <ele>140</ele>
        <time>2019-05-29T17:36:48Z</time>
      </trkpt>
      <trkpt lat="49.34829" lon="4.06613">
        <ele>140</ele>
        <time>2019-05-29T17:36:49Z</time>
      </trkpt>
      <trkpt lat="49.34829" lon="4.06613">
        <ele>140</ele>
        <time>2019-05-29T17:36:50Z</time>
      </trkpt>
      <trkpt lat="49.34829" lon="4.06613">
        <ele>140</ele>
        <time>2019-05-29T17:36:51Z</time>
      </trkpt>
      <trkpt lat="49.34829" lon="4.06613">
        <ele>140</ele>
        <time>2019-05-29T17:36:52Z</time>
      </trkpt>
      <trkpt lat="49.34829" lon="4.06613">
        <ele>140</ele>
        <time>2019-05-29T17:36:53Z</time>
      </trkpt>
      <trkpt lat="49.34829" lon="4.06613">
        <ele>140</ele>
        <time>2019-05-29T17:36:54Z</time>
      </trkpt>
      <trkpt lat="49.34829" lon="4.06613">
        <ele>140</ele>
        <time>2019-05-29T17:36:55Z</time>
      </trkpt>
      <trkpt lat="49.34829" lon="4.06613">
        <ele>140</ele>
        <time>2019-05-29T17:36:56Z</time>
      </trkpt>
      <trkpt lat="49.34829" lon="4.06613">
        <ele>140</ele>
        <time>2019-05-29T17:36:57Z</time>
      </trkpt>
      <trkpt lat="49.34829" lon="4.06613">
        <ele>140</ele>
        <time>2019-05-29T17:36:58Z</time>
      </trkpt>
      <trkpt lat="49.34828" lon="4.06614">
        <ele>141</ele>
        <time>2019-05-29T17:36:59Z</time>
      </trkpt>
      <trkpt lat="49.34828" lon="4.06614">
        <ele>141</ele>
        <time>2019-05-29T17:37:00Z</time>
      </trkpt>
      <trkpt lat="49.34828" lon="4.06613">
        <ele>141</ele>
        <time>2019-05-29T17:37:01Z</time>
      </trkpt>
      <trkpt lat="49.34828" lon="4.06613">
        <ele>141</ele>
        <time>2019-05-29T17:37:02Z</time>
      </trkpt>
      <trkpt lat="49.34828" lon="4.06613">
        <ele>141</ele>
        <time>2019-05-29T17:37:03Z</time>
      </trkpt>
      <trkpt lat="49.34828" lon="4.06613">
        <ele>141</ele>
        <time>2019-05-29T17:37:04Z</time>
      </trkpt>
      <trkpt lat="49.34828" lon="4.06613">
        <ele>141</ele>
        <time>2019-05-29T17:37:05Z</time>
      </trkpt>
      <trkpt lat="49.34828" lon="4.06613">
        <ele>141</ele>
        <time>2019-05-29T17:37:06Z</time>
      </trkpt>
      <trkpt lat="49.34828" lon="4.06613">
        <ele>141</ele>
        <time>2019-05-29T17:37:07Z</time>
      </trkpt>
      <trkpt lat="49.34828" lon="4.06613">
        <ele>141</ele>
        <time>2019-05-29T17:37:08Z</time>
      </trkpt>
      <trkpt lat="49.34828" lon="4.06613">
        <ele>141</ele>
        <time>2019-05-29T17:37:09Z</time>
      </trkpt>
      <trkpt lat="49.34828" lon="4.06613">
        <ele>141</ele>
        <time>2019-05-29T17:37:10Z</time>
      </trkpt>
      <trkpt lat="49.34828" lon="4.06613">
        <ele>141</ele>
        <time>2019-05-29T17:37:11Z</time>
      </trkpt>
      <trkpt lat="49.34828" lon="4.06613">
        <ele>141</ele>
        <time>2019-05-29T17:37:12Z</time>
      </trkpt>
      <trkpt lat="49.34828" lon="4.06613">
        <ele>141</ele>
        <time>2019-05-29T17:37:13Z</time>
      </trkpt>
      <trkpt lat="49.34828" lon="4.06613">
        <ele>141</ele>
        <time>2019-05-29T17:37:14Z</time>
      </trkpt>
      <trkpt lat="49.34828" lon="4.06613">
        <ele>141</ele>
        <time>2019-05-29T17:37:15Z</time>
      </trkpt>
      <trkpt lat="49.34828" lon="4.06613">
        <ele>141</ele>
        <time>2019-05-29T17:37:16Z</time>
      </trkpt>
      <trkpt lat="49.34828" lon="4.06613">
        <ele>141</ele>
        <time>2019-05-29T17:37:17Z</time>
      </trkpt>
      <trkpt lat="49.34828" lon="4.06613">
        <ele>141</ele>
        <time>2019-05-29T17:37:18Z</time>
      </trkpt>
      <trkpt lat="49.34828" lon="4.06613">
        <ele>141</ele>
        <time>2019-05-29T17:37:19Z</time>
      </trkpt>
      <trkpt lat="49.34828" lon="4.06613">
        <ele>141</ele>
        <time>2019-05-29T17:37:20Z</time>
      </trkpt>
      <trkpt lat="49.34828" lon="4.06613">
        <ele>141</ele>
        <time>2019-05-29T17:37:21Z</time>
      </trkpt>
      <trkpt lat="49.34828" lon="4.06613">
        <ele>141</ele>
        <time>2019-05-29T17:37:22Z</time>
      </trkpt>
      <trkpt lat="49.34828" lon="4.06613">
        <ele>141</ele>
        <time>2019-05-29T17:37:23Z</time>
      </trkpt>
      <trkpt lat="49.34828" lon="4.06613">
        <ele>141</ele>
        <time>2019-05-29T17:37:24Z</time>
      </trkpt>
      <trkpt lat="49.34828" lon="4.06613">
        <ele>141</ele>
        <time>2019-05-29T17:37:25Z</time>
      </trkpt>
      <trkpt lat="49.34828" lon="4.06613">
        <ele>141</ele>
        <time>2019-05-29T17:37:26Z</time>
      </trkpt>
      <trkpt lat="49.34828" lon="4.06613">
        <ele>141</ele>
        <time>2019-05-29T17:37:27Z</time>
      </trkpt>
      <trkpt lat="49.34828" lon="4.06613">
        <ele>141</ele>
        <time>2019-05-29T17:37:28Z</time>
      </trkpt>
      <trkpt lat="49.34828" lon="4.06613">
        <ele>141</ele>
        <time>2019-05-29T17:37:29Z</time>
      </trkpt>
      <trkpt lat="49.34828" lon="4.06613">
        <ele>141</ele>
        <time>2019-05-29T17:37:30Z</time>
      </trkpt>
      <trkpt lat="49.34828" lon="4.06613">
        <ele>141</ele>
        <time>2019-05-29T17:37:31Z</time>
      </trkpt>
      <trkpt lat="49.34828" lon="4.06613">
        <ele>141</ele>
        <time>2019-05-29T17:37:32Z</time>
      </trkpt>
      <trkpt lat="49.34828" lon="4.06613">
        <ele>141</ele>
        <time>2019-05-29T17:37:33Z</time>
      </trkpt>
      <trkpt lat="49.34828" lon="4.06613">
        <ele>141</ele>
        <time>2019-05-29T17:37:34Z</time>
      </trkpt>
      <trkpt lat="49.34828" lon="4.06613">
        <ele>141</ele>
        <time>2019-05-29T17:37:35Z</time>
      </trkpt>
      <trkpt lat="49.34828" lon="4.06613">
        <ele>141</ele>
        <time>2019-05-29T17:37:36Z</time>
      </trkpt>
      <trkpt lat="49.34828" lon="4.06613">
        <ele>141</ele>
        <time>2019-05-29T17:37:37Z</time>
      </trkpt>
      <trkpt lat="49.34828" lon="4.06613">
        <ele>141</ele>
        <time>2019-05-29T17:37:38Z</time>
      </trkpt>
      <trkpt lat="49.34828" lon="4.06613">
        <ele>141</ele>
        <time>2019-05-29T17:37:39Z</time>
      </trkpt>
      <trkpt lat="49.34828" lon="4.06613">
        <ele>141</ele>
        <time>2019-05-29T17:37:40Z</time>
      </trkpt>
      <trkpt lat="49.34828" lon="4.06613">
        <ele>141</ele>
        <time>2019-05-29T17:37:41Z</time>
      </trkpt>
      <trkpt lat="49.34828" lon="4.06613">
        <ele>141</ele>
        <time>2019-05-29T17:37:42Z</time>
      </trkpt>
      <trkpt lat="49.34828" lon="4.06613">
        <ele>141</ele>
        <time>2019-05-29T17:37:43Z</time>
      </trkpt>
      <trkpt lat="49.34828" lon="4.06613">
        <ele>141</ele>
        <time>2019-05-29T17:37:44Z</time>
      </trkpt>
      <trkpt lat="49.34828" lon="4.06613">
        <ele>141</ele>
        <time>2019-05-29T17:37:45Z</time>
      </trkpt>
      <trkpt lat="49.34828" lon="4.06613">
        <ele>141</ele>
        <time>2019-05-29T17:37:46Z</time>
      </trkpt>
      <trkpt lat="49.34828" lon="4.06613">
        <ele>141</ele>
        <time>2019-05-29T17:37:47Z</time>
      </trkpt>
      <trkpt lat="49.34828" lon="4.06613">
        <ele>141</ele>
        <time>2019-05-29T17:37:48Z</time>
      </trkpt>
      <trkpt lat="49.34828" lon="4.06613">
        <ele>141</ele>
        <time>2019-05-29T17:37:49Z</time>
      </trkpt>
      <trkpt lat="49.34828" lon="4.06613">
        <ele>141</ele>
        <time>2019-05-29T17:37:50Z</time>
      </trkpt>
      <trkpt lat="49.34828" lon="4.06613">
        <ele>141</ele>
        <time>2019-05-29T17:37:51Z</time>
      </trkpt>
      <trkpt lat="49.34828" lon="4.06613">
        <ele>141</ele>
        <time>2019-05-29T17:37:52Z</time>
      </trkpt>
      <trkpt lat="49.34828" lon="4.06613">
        <ele>141</ele>
        <time>2019-05-29T17:37:53Z</time>
      </trkpt>
      <trkpt lat="49.34828" lon="4.06613">
        <ele>141</ele>
        <time>2019-05-29T17:37:54Z</time>
      </trkpt>
      <trkpt lat="49.34828" lon="4.06613">
        <ele>141</ele>
        <time>2019-05-29T17:37:55Z</time>
      </trkpt>
      <trkpt lat="49.34828" lon="4.06613">
        <ele>141</ele>
        <time>2019-05-29T17:37:56Z</time>
      </trkpt>
      <trkpt lat="49.34828" lon="4.06613">
        <ele>141</ele>
        <time>2019-05-29T17:37:57Z</time>
      </trkpt>
      <trkpt lat="49.34828" lon="4.06613">
        <ele>141</ele>
        <time>2019-05-29T17:37:58Z</time>
      </trkpt>
      <trkpt lat="49.34828" lon="4.06613">
        <ele>141</ele>
        <time>2019-05-29T17:37:59Z</time>
      </trkpt>
      <trkpt lat="49.34828" lon="4.06613">
        <ele>141</ele>
        <time>2019-05-29T17:38:00Z</time>
      </trkpt>
      <trkpt lat="49.34828" lon="4.06613">
        <ele>141</ele>
        <time>2019-05-29T17:38:01Z</time>
      </trkpt>
      <trkpt lat="49.34828" lon="4.06613">
        <ele>141</ele>
        <time>2019-05-29T17:38:02Z</time>
      </trkpt>
      <trkpt lat="49.34828" lon="4.06613">
        <ele>141</ele>
        <time>2019-05-29T17:38:03Z</time>
      </trkpt>
      <trkpt lat="49.34828" lon="4.06613">
        <ele>141</ele>
        <time>2019-05-29T17:38:04Z</time>
      </trkpt>
      <trkpt lat="49.34828" lon="4.06613">
        <ele>141</ele>
        <time>2019-05-29T17:38:05Z</time>
      </trkpt>
      <trkpt lat="49.34828" lon="4.06613">
        <ele>141</ele>
        <time>2019-05-29T17:38:06Z</time>
      </trkpt>
      <trkpt lat="49.34828" lon="4.06613">
        <ele>141</ele>
        <time>2019-05-29T17:38:07Z</time>
      </trkpt>
      <trkpt lat="49.34828" lon="4.06613">
        <ele>141</ele>
        <time>2019-05-29T17:38:08Z</time>
      </trkpt>
      <trkpt lat="49.34828" lon="4.06613">
        <ele>141</ele>
        <time>2019-05-29T17:38:09Z</time>
      </trkpt>
      <trkpt lat="49.34828" lon="4.06613">
        <ele>141</ele>
        <time>2019-05-29T17:38:10Z</time>
      </trkpt>
      <trkpt lat="49.34828" lon="4.06613">
        <ele>141</ele>
        <time>2019-05-29T17:38:11Z</time>
      </trkpt>
      <trkpt lat="49.34828" lon="4.06613">
        <ele>141</ele>
        <time>2019-05-29T17:38:12Z</time>
      </trkpt>
      <trkpt lat="49.34828" lon="4.06613">
        <ele>141</ele>
        <time>2019-05-29T17:38:13Z</time>
      </trkpt>
      <trkpt lat="49.34828" lon="4.06613">
        <ele>141</ele>
        <time>2019-05-29T17:38:14Z</time>
      </trkpt>
      <trkpt lat="49.34828" lon="4.06613">
        <ele>141</ele>
        <time>2019-05-29T17:38:15Z</time>
      </trkpt>
      <trkpt lat="49.34828" lon="4.06613">
        <ele>141</ele>
        <time>2019-05-29T17:38:16Z</time>
      </trkpt>
      <trkpt lat="49.34828" lon="4.06613">
        <ele>141</ele>
        <time>2019-05-29T17:38:17Z</time>
      </trkpt>
      <trkpt lat="49.34828" lon="4.06613">
        <ele>141</ele>
        <time>2019-05-29T17:38:18Z</time>
      </trkpt>
      <trkpt lat="49.34828" lon="4.06613">
        <ele>141</ele>
        <time>2019-05-29T17:38:19Z</time>
      </trkpt>
      <trkpt lat="49.34828" lon="4.06613">
        <ele>141</ele>
        <time>2019-05-29T17:38:20Z</time>
      </trkpt>
      <trkpt lat="49.34828" lon="4.06613">
        <ele>141</ele>
        <time>2019-05-29T17:38:21Z</time>
      </trkpt>
      <trkpt lat="49.34828" lon="4.06613">
        <ele>141</ele>
        <time>2019-05-29T17:38:22Z</time>
      </trkpt>
      <trkpt lat="49.34828" lon="4.06613">
        <ele>141</ele>
        <time>2019-05-29T17:38:23Z</time>
      </trkpt>
      <trkpt lat="49.34828" lon="4.06613">
        <ele>141</ele>
        <time>2019-05-29T17:38:24Z</time>
      </trkpt>
      <trkpt lat="49.34828" lon="4.06613">
        <ele>141</ele>
        <time>2019-05-29T17:38:25Z</time>
      </trkpt>
      <trkpt lat="49.34828" lon="4.06613">
        <ele>141</ele>
        <time>2019-05-29T17:38:26Z</time>
      </trkpt>
      <trkpt lat="49.34828" lon="4.06613">
        <ele>141</ele>
        <time>2019-05-29T17:38:27Z</time>
      </trkpt>
      <trkpt lat="49.34828" lon="4.06613">
        <ele>141</ele>
        <time>2019-05-29T17:38:28Z</time>
      </trkpt>
      <trkpt lat="49.34828" lon="4.06613">
        <ele>141</ele>
        <time>2019-05-29T17:38:29Z</time>
      </trkpt>
      <trkpt lat="49.34828" lon="4.06613">
        <ele>141</ele>
        <time>2019-05-29T17:38:30Z</time>
      </trkpt>
      <trkpt lat="49.34828" lon="4.06613">
        <ele>141</ele>
        <time>2019-05-29T17:38:31Z</time>
      </trkpt>
      <trkpt lat="49.34828" lon="4.06613">
        <ele>141</ele>
        <time>2019-05-29T17:38:32Z</time>
      </trkpt>
      <trkpt lat="49.34828" lon="4.06613">
        <ele>141</ele>
        <time>2019-05-29T17:38:33Z</time>
      </trkpt>
      <trkpt lat="49.34828" lon="4.06613">
        <ele>141</ele>
        <time>2019-05-29T17:38:34Z</time>
      </trkpt>
      <trkpt lat="49.34828" lon="4.06613">
        <ele>141</ele>
        <time>2019-05-29T17:38:35Z</time>
      </trkpt>
      <trkpt lat="49.34828" lon="4.06613">
        <ele>141</ele>
        <time>2019-05-29T17:38:36Z</time>
      </trkpt>
      <trkpt lat="49.34828" lon="4.06613">
        <ele>141</ele>
        <time>2019-05-29T17:38:37Z</time>
      </trkpt>
      <trkpt lat="49.34828" lon="4.06613">
        <ele>141</ele>
        <time>2019-05-29T17:38:38Z</time>
      </trkpt>
      <trkpt lat="49.34828" lon="4.06613">
        <ele>141</ele>
        <time>2019-05-29T17:38:39Z</time>
      </trkpt>
      <trkpt lat="49.34828" lon="4.06613">
        <ele>141</ele>
        <time>2019-05-29T17:38:40Z</time>
      </trkpt>
      <trkpt lat="49.34828" lon="4.06613">
        <ele>141</ele>
        <time>2019-05-29T17:38:41Z</time>
      </trkpt>
      <trkpt lat="49.34828" lon="4.06613">
        <ele>141</ele>
        <time>2019-05-29T17:38:42Z</time>
      </trkpt>
      <trkpt lat="49.34828" lon="4.06613">
        <ele>141</ele>
        <time>2019-05-29T17:38:43Z</time>
      </trkpt>
      <trkpt lat="49.34828" lon="4.06613">
        <ele>141</ele>
        <time>2019-05-29T17:38:44Z</time>
      </trkpt>
      <trkpt lat="49.34828" lon="4.06613">
        <ele>141</ele>
        <time>2019-05-29T17:38:45Z</time>
      </trkpt>
      <trkpt lat="49.34828" lon="4.06613">
        <ele>141</ele>
        <time>2019-05-29T17:38:46Z</time>
      </trkpt>
      <trkpt lat="49.34828" lon="4.06613">
        <ele>141</ele>
        <time>2019-05-29T17:38:47Z</time>
      </trkpt>
      <trkpt lat="49.34828" lon="4.06613">
        <ele>141</ele>
        <time>2019-05-29T17:38:48Z</time>
      </trkpt>
      <trkpt lat="49.34828" lon="4.06613">
        <ele>141</ele>
        <time>2019-05-29T17:38:49Z</time>
      </trkpt>
      <trkpt lat="49.34828" lon="4.06613">
        <ele>141</ele>
        <time>2019-05-29T17:38:50Z</time>
      </trkpt>
      <trkpt lat="49.34828" lon="4.06613">
        <ele>141</ele>
        <time>2019-05-29T17:38:51Z</time>
      </trkpt>
      <trkpt lat="49.34828" lon="4.06613">
        <ele>141</ele>
        <time>2019-05-29T17:38:52Z</time>
      </trkpt>
      <trkpt lat="49.34828" lon="4.06613">
        <ele>141</ele>
        <time>2019-05-29T17:38:53Z</time>
      </trkpt>
      <trkpt lat="49.34828" lon="4.06613">
        <ele>141</ele>
        <time>2019-05-29T17:38:54Z</time>
      </trkpt>
      <trkpt lat="49.34828" lon="4.06613">
        <ele>141</ele>
        <time>2019-05-29T17:38:55Z</time>
      </trkpt>
      <trkpt lat="49.34828" lon="4.06613">
        <ele>141</ele>
        <time>2019-05-29T17:38:56Z</time>
      </trkpt>
      <trkpt lat="49.34828" lon="4.06613">
        <ele>141</ele>
        <time>2019-05-29T17:38:57Z</time>
      </trkpt>
      <trkpt lat="49.34828" lon="4.06613">
        <ele>141</ele>
        <time>2019-05-29T17:38:58Z</time>
      </trkpt>
      <trkpt lat="49.34828" lon="4.06613">
        <ele>141</ele>
        <time>2019-05-29T17:38:59Z</time>
      </trkpt>
      <trkpt lat="49.34828" lon="4.06613">
        <ele>141</ele>
        <time>2019-05-29T17:39:00Z</time>
      </trkpt>
      <trkpt lat="49.34828" lon="4.06613">
        <ele>141</ele>
        <time>2019-05-29T17:39:01Z</time>
      </trkpt>
      <trkpt lat="49.34828" lon="4.06613">
        <ele>141</ele>
        <time>2019-05-29T17:39:02Z</time>
      </trkpt>
      <trkpt lat="49.34828" lon="4.06613">
        <ele>141</ele>
        <time>2019-05-29T17:39:03Z</time>
      </trkpt>
      <trkpt lat="49.34828" lon="4.06613">
        <ele>141</ele>
        <time>2019-05-29T17:39:04Z</time>
      </trkpt>
      <trkpt lat="49.34828" lon="4.06613">
        <ele>141</ele>
        <time>2019-05-29T17:39:05Z</time>
      </trkpt>
      <trkpt lat="49.34828" lon="4.06613">
        <ele>141</ele>
        <time>2019-05-29T17:39:06Z</time>
      </trkpt>
      <trkpt lat="49.34828" lon="4.06613">
        <ele>141</ele>
        <time>2019-05-29T17:39:07Z</time>
      </trkpt>
      <trkpt lat="49.34828" lon="4.06613">
        <ele>141</ele>
        <time>2019-05-29T17:39:08Z</time>
      </trkpt>
      <trkpt lat="49.34828" lon="4.06613">
        <ele>141</ele>
        <time>2019-05-29T17:39:09Z</time>
      </trkpt>
      <trkpt lat="49.34828" lon="4.06613">
        <ele>141</ele>
        <time>2019-05-29T17:39:10Z</time>
      </trkpt>
      <trkpt lat="49.34828" lon="4.06613">
        <ele>141</ele>
        <time>2019-05-29T17:39:11Z</time>
      </trkpt>
      <trkpt lat="49.34828" lon="4.06613">
        <ele>141</ele>
        <time>2019-05-29T17:39:12Z</time>
      </trkpt>
      <trkpt lat="49.34828" lon="4.06613">
        <ele>141</ele>
        <time>2019-05-29T17:39:13Z</time>
      </trkpt>
      <trkpt lat="49.34828" lon="4.06613">
        <ele>141</ele>
        <time>2019-05-29T17:39:14Z</time>
      </trkpt>
      <trkpt lat="49.34828" lon="4.06613">
        <ele>141</ele>
        <time>2019-05-29T17:39:15Z</time>
      </trkpt>
      <trkpt lat="49.34828" lon="4.06613">
        <ele>141</ele>
        <time>2019-05-29T17:39:16Z</time>
      </trkpt>
      <trkpt lat="49.34828" lon="4.06613">
        <ele>141</ele>
        <time>2019-05-29T17:39:17Z</time>
      </trkpt>
      <trkpt lat="49.34828" lon="4.06613">
        <ele>141</ele>
        <time>2019-05-29T17:39:18Z</time>
      </trkpt>
      <trkpt lat="49.34828" lon="4.06613">
        <ele>141</ele>
        <time>2019-05-29T17:39:19Z</time>
      </trkpt>
      <trkpt lat="49.34828" lon="4.06613">
        <ele>141</ele>
        <time>2019-05-29T17:39:20Z</time>
      </trkpt>
      <trkpt lat="49.34828" lon="4.06613">
        <ele>141</ele>
        <time>2019-05-29T17:39:21Z</time>
      </trkpt>
      <trkpt lat="49.34828" lon="4.06613">
        <ele>141</ele>
        <time>2019-05-29T17:39:22Z</time>
      </trkpt>
      <trkpt lat="49.34828" lon="4.06613">
        <ele>141</ele>
        <time>2019-05-29T17:39:23Z</time>
      </trkpt>
      <trkpt lat="49.34828" lon="4.06613">
        <ele>141</ele>
        <time>2019-05-29T17:39:24Z</time>
      </trkpt>
      <trkpt lat="49.34828" lon="4.06613">
        <ele>141</ele>
        <time>2019-05-29T17:39:25Z</time>
      </trkpt>
      <trkpt lat="49.34828" lon="4.06613">
        <ele>141</ele>
        <time>2019-05-29T17:39:26Z</time>
      </trkpt>
      <trkpt lat="49.34828" lon="4.06613">
        <ele>141</ele>
        <time>2019-05-29T17:39:27Z</time>
      </trkpt>
      <trkpt lat="49.34828" lon="4.06613">
        <ele>141</ele>
        <time>2019-05-29T17:39:28Z</time>
      </trkpt>
      <trkpt lat="49.34828" lon="4.06613">
        <ele>141</ele>
        <time>2019-05-29T17:39:29Z</time>
      </trkpt>
      <trkpt lat="49.34828" lon="4.06613">
        <ele>141</ele>
        <time>2019-05-29T17:39:30Z</time>
      </trkpt>
      <trkpt lat="49.34828" lon="4.06613">
        <ele>141</ele>
        <time>2019-05-29T17:39:31Z</time>
      </trkpt>
      <trkpt lat="49.34828" lon="4.06613">
        <ele>141</ele>
        <time>2019-05-29T17:39:32Z</time>
      </trkpt>
      <trkpt lat="49.34828" lon="4.06613">
        <ele>141</ele>
        <time>2019-05-29T17:39:33Z</time>
      </trkpt>
      <trkpt lat="49.34828" lon="4.06613">
        <ele>141</ele>
        <time>2019-05-29T17:39:34Z</time>
      </trkpt>
      <trkpt lat="49.34828" lon="4.06613">
        <ele>141</ele>
        <time>2019-05-29T17:39:35Z</time>
      </trkpt>
      <trkpt lat="49.34828" lon="4.06613">
        <ele>141</ele>
        <time>2019-05-29T17:39:36Z</time>
      </trkpt>
      <trkpt lat="49.34828" lon="4.06613">
        <ele>141</ele>
        <time>2019-05-29T17:39:37Z</time>
      </trkpt>
      <trkpt lat="49.34828" lon="4.06613">
        <ele>141</ele>
        <time>2019-05-29T17:39:38Z</time>
      </trkpt>
      <trkpt lat="49.34828" lon="4.06613">
        <ele>141</ele>
        <time>2019-05-29T17:39:39Z</time>
      </trkpt>
      <trkpt lat="49.34828" lon="4.06613">
        <ele>141</ele>
        <time>2019-05-29T17:39:40Z</time>
      </trkpt>
      <trkpt lat="49.34828" lon="4.06613">
        <ele>141</ele>
        <time>2019-05-29T17:39:41Z</time>
      </trkpt>
      <trkpt lat="49.34828" lon="4.06613">
        <ele>141</ele>
        <time>2019-05-29T17:39:42Z</time>
      </trkpt>
      <trkpt lat="49.34828" lon="4.06613">
        <ele>141</ele>
        <time>2019-05-29T17:39:43Z</time>
      </trkpt>
      <trkpt lat="49.34828" lon="4.06613">
        <ele>141</ele>
        <time>2019-05-29T17:39:44Z</time>
      </trkpt>
      <trkpt lat="49.34828" lon="4.06613">
        <ele>141</ele>
        <time>2019-05-29T17:39:45Z</time>
      </trkpt>
      <trkpt lat="49.34828" lon="4.06613">
        <ele>141</ele>
        <time>2019-05-29T17:39:46Z</time>
      </trkpt>
      <trkpt lat="49.34828" lon="4.06613">
        <ele>141</ele>
        <time>2019-05-29T17:39:47Z</time>
      </trkpt>
      <trkpt lat="49.34828" lon="4.06613">
        <ele>141</ele>
        <time>2019-05-29T17:39:48Z</time>
      </trkpt>
      <trkpt lat="49.34828" lon="4.06613">
        <ele>141</ele>
        <time>2019-05-29T17:39:49Z</time>
      </trkpt>
      <trkpt lat="49.34828" lon="4.06613">
        <ele>141</ele>
        <time>2019-05-29T17:39:50Z</time>
      </trkpt>
      <trkpt lat="49.34828" lon="4.06613">
        <ele>141</ele>
        <time>2019-05-29T17:39:51Z</time>
      </trkpt>
      <trkpt lat="49.34828" lon="4.06613">
        <ele>141</ele>
        <time>2019-05-29T17:39:52Z</time>
      </trkpt>
      <trkpt lat="49.34828" lon="4.06613">
        <ele>141</ele>
        <time>2019-05-29T17:39:53Z</time>
      </trkpt>
      <trkpt lat="49.34828" lon="4.06613">
        <ele>141</ele>
        <time>2019-05-29T17:39:54Z</time>
      </trkpt>
      <trkpt lat="49.34828" lon="4.06613">
        <ele>141</ele>
        <time>2019-05-29T17:39:55Z</time>
      </trkpt>
      <trkpt lat="49.34828" lon="4.06613">
        <ele>141</ele>
        <time>2019-05-29T17:39:56Z</time>
      </trkpt>
      <trkpt lat="49.34828" lon="4.06613">
        <ele>141</ele>
        <time>2019-05-29T17:39:57Z</time>
      </trkpt>
      <trkpt lat="49.34828" lon="4.06613">
        <ele>141</ele>
        <time>2019-05-29T17:39:58Z</time>
      </trkpt>
      <trkpt lat="49.34828" lon="4.06613">
        <ele>141</ele>
        <time>2019-05-29T17:39:59Z</time>
      </trkpt>
      <trkpt lat="49.34828" lon="4.06613">
        <ele>141</ele>
        <time>2019-05-29T17:40:00Z</time>
      </trkpt>
      <trkpt lat="49.34828" lon="4.06613">
        <ele>141</ele>
        <time>2019-05-29T17:40:01Z</time>
      </trkpt>
      <trkpt lat="49.34828" lon="4.06613">
        <ele>141</ele>
        <time>2019-05-29T17:40:02Z</time>
      </trkpt>
      <trkpt lat="49.34828" lon="4.06613">
        <ele>141</ele>
        <time>2019-05-29T17:40:03Z</time>
      </trkpt>
      <trkpt lat="49.34828" lon="4.06613">
        <ele>141</ele>
        <time>2019-05-29T17:40:04Z</time>
      </trkpt>
      <trkpt lat="49.34828" lon="4.06613">
        <ele>141</ele>
        <time>2019-05-29T17:40:05Z</time>
      </trkpt>
      <trkpt lat="49.34828" lon="4.06613">
        <ele>141</ele>
        <time>2019-05-29T17:40:06Z</time>
      </trkpt>
      <trkpt lat="49.34828" lon="4.06613">
        <ele>141</ele>
        <time>2019-05-29T17:40:07Z</time>
      </trkpt>
      <trkpt lat="49.34828" lon="4.06613">
        <ele>141</ele>
        <time>2019-05-29T17:40:08Z</time>
      </trkpt>
      <trkpt lat="49.34828" lon="4.06613">
        <ele>141</ele>
        <time>2019-05-29T17:40:09Z</time>
      </trkpt>
      <trkpt lat="49.34828" lon="4.06613">
        <ele>141</ele>
        <time>2019-05-29T17:40:10Z</time>
      </trkpt>
      <trkpt lat="49.34828" lon="4.06613">
        <ele>141</ele>
        <time>2019-05-29T17:40:11Z</time>
      </trkpt>
      <trkpt lat="49.34828" lon="4.06613">
        <ele>141</ele>
        <time>2019-05-29T17:40:12Z</time>
      </trkpt>
      <trkpt lat="49.34828" lon="4.06613">
        <ele>141</ele>
        <time>2019-05-29T17:40:13Z</time>
      </trkpt>
      <trkpt lat="49.34828" lon="4.06613">
        <ele>141</ele>
        <time>2019-05-29T17:40:14Z</time>
      </trkpt>
      <trkpt lat="49.34828" lon="4.06613">
        <ele>141</ele>
        <time>2019-05-29T17:40:15Z</time>
      </trkpt>
      <trkpt lat="49.34828" lon="4.06613">
        <ele>141</ele>
        <time>2019-05-29T17:40:16Z</time>
      </trkpt>
      <trkpt lat="49.34828" lon="4.06613">
        <ele>141</ele>
        <time>2019-05-29T17:40:17Z</time>
      </trkpt>
      <trkpt lat="49.34828" lon="4.06613">
        <ele>141</ele>
        <time>2019-05-29T17:40:18Z</time>
      </trkpt>
      <trkpt lat="49.34828" lon="4.06613">
        <ele>141</ele>
        <time>2019-05-29T17:40:19Z</time>
      </trkpt>
      <trkpt lat="49.34828" lon="4.06613">
        <ele>141</ele>
        <time>2019-05-29T17:40:20Z</time>
      </trkpt>
      <trkpt lat="49.34828" lon="4.06613">
        <ele>141</ele>
        <time>2019-05-29T17:40:21Z</time>
      </trkpt>
      <trkpt lat="49.34828" lon="4.06613">
        <ele>141</ele>
        <time>2019-05-29T17:40:22Z</time>
      </trkpt>
      <trkpt lat="49.34828" lon="4.06613">
        <ele>141</ele>
        <time>2019-05-29T17:40:23Z</time>
      </trkpt>
      <trkpt lat="49.34828" lon="4.06613">
        <ele>141</ele>
        <time>2019-05-29T17:40:24Z</time>
      </trkpt>
      <trkpt lat="49.34828" lon="4.06613">
        <ele>141</ele>
        <time>2019-05-29T17:40:25Z</time>
      </trkpt>
      <trkpt lat="49.34828" lon="4.06613">
        <ele>141</ele>
        <time>2019-05-29T17:40:26Z</time>
      </trkpt>
      <trkpt lat="49.34828" lon="4.06613">
        <ele>141</ele>
        <time>2019-05-29T17:40:27Z</time>
      </trkpt>
      <trkpt lat="49.34828" lon="4.06613">
        <ele>141</ele>
        <time>2019-05-29T17:40:28Z</time>
      </trkpt>
      <trkpt lat="49.34828" lon="4.06613">
        <ele>141</ele>
        <time>2019-05-29T17:40:29Z</time>
      </trkpt>
      <trkpt lat="49.34828" lon="4.06613">
        <ele>141</ele>
        <time>2019-05-29T17:40:30Z</time>
      </trkpt>
      <trkpt lat="49.34828" lon="4.06613">
        <ele>141</ele>
        <time>2019-05-29T17:40:31Z</time>
      </trkpt>
      <trkpt lat="49.34828" lon="4.06613">
        <ele>141</ele>
        <time>2019-05-29T17:40:32Z</time>
      </trkpt>
      <trkpt lat="49.34828" lon="4.06613">
        <ele>141</ele>
        <time>2019-05-29T17:40:33Z</time>
      </trkpt>
      <trkpt lat="49.34828" lon="4.06613">
        <ele>141</ele>
        <time>2019-05-29T17:40:34Z</time>
      </trkpt>
      <trkpt lat="49.34828" lon="4.06613">
        <ele>141</ele>
        <time>2019-05-29T17:40:35Z</time>
      </trkpt>
      <trkpt lat="49.34828" lon="4.06613">
        <ele>141</ele>
        <time>2019-05-29T17:40:36Z</time>
      </trkpt>
      <trkpt lat="49.34828" lon="4.06613">
        <ele>141</ele>
        <time>2019-05-29T17:40:37Z</time>
      </trkpt>
      <trkpt lat="49.34828" lon="4.06613">
        <ele>141</ele>
        <time>2019-05-29T17:40:38Z</time>
      </trkpt>
      <trkpt lat="49.34828" lon="4.06613">
        <ele>141</ele>
        <time>2019-05-29T17:40:39Z</time>
      </trkpt>
      <trkpt lat="49.34828" lon="4.06613">
        <ele>141</ele>
        <time>2019-05-29T17:40:40Z</time>
      </trkpt>
      <trkpt lat="49.34828" lon="4.06613">
        <ele>141</ele>
        <time>2019-05-29T17:40:41Z</time>
      </trkpt>
      <trkpt lat="49.34828" lon="4.06613">
        <ele>141</ele>
        <time>2019-05-29T17:40:42Z</time>
      </trkpt>
      <trkpt lat="49.34828" lon="4.06613">
        <ele>141</ele>
        <time>2019-05-29T17:40:43Z</time>
      </trkpt>
      <trkpt lat="49.34828" lon="4.06613">
        <ele>141</ele>
        <time>2019-05-29T17:40:44Z</time>
      </trkpt>
      <trkpt lat="49.34828" lon="4.06613">
        <ele>141</ele>
        <time>2019-05-29T17:40:45Z</time>
      </trkpt>
      <trkpt lat="49.34828" lon="4.06613">
        <ele>141</ele>
        <time>2019-05-29T17:40:46Z</time>
      </trkpt>
      <trkpt lat="49.34828" lon="4.06613">
        <ele>141</ele>
        <time>2019-05-29T17:40:47Z</time>
      </trkpt>
      <trkpt lat="49.34828" lon="4.06613">
        <ele>141</ele>
        <time>2019-05-29T17:40:48Z</time>
      </trkpt>
      <trkpt lat="49.34828" lon="4.06613">
        <ele>141</ele>
        <time>2019-05-29T17:40:49Z</time>
      </trkpt>
      <trkpt lat="49.34828" lon="4.06613">
        <ele>141</ele>
        <time>2019-05-29T17:40:50Z</time>
      </trkpt>
      <trkpt lat="49.34828" lon="4.06613">
        <ele>141</ele>
        <time>2019-05-29T17:40:51Z</time>
      </trkpt>
      <trkpt lat="49.34828" lon="4.06613">
        <ele>141</ele>
        <time>2019-05-29T17:40:52Z</time>
      </trkpt>
      <trkpt lat="49.34828" lon="4.06613">
        <ele>141</ele>
        <time>2019-05-29T17:40:53Z</time>
      </trkpt>
      <trkpt lat="49.34828" lon="4.06613">
        <ele>141</ele>
        <time>2019-05-29T17:40:54Z</time>
      </trkpt>
      <trkpt lat="49.34828" lon="4.06613">
        <ele>141</ele>
        <time>2019-05-29T17:40:55Z</time>
      </trkpt>
      <trkpt lat="49.34828" lon="4.06613">
        <ele>141</ele>
        <time>2019-05-29T17:40:56Z</time>
      </trkpt>
      <trkpt lat="49.34828" lon="4.06613">
        <ele>141</ele>
        <time>2019-05-29T17:40:57Z</time>
      </trkpt>
      <trkpt lat="49.34828" lon="4.06613">
        <ele>141</ele>
        <time>2019-05-29T17:40:58Z</time>
      </trkpt>
      <trkpt lat="49.34828" lon="4.06613">
        <ele>141</ele>
        <time>2019-05-29T17:40:59Z</time>
      </trkpt>
      <trkpt lat="49.34828" lon="4.06613">
        <ele>141</ele>
        <time>2019-05-29T17:41:00Z</time>
      </trkpt>
      <trkpt lat="49.34828" lon="4.06613">
        <ele>141</ele>
        <time>2019-05-29T17:41:01Z</time>
      </trkpt>
      <trkpt lat="49.34828" lon="4.06613">
        <ele>141</ele>
        <time>2019-05-29T17:41:02Z</time>
      </trkpt>
      <trkpt lat="49.34828" lon="4.06613">
        <ele>141</ele>
        <time>2019-05-29T17:41:03Z</time>
      </trkpt>
      <trkpt lat="49.34828" lon="4.06613">
        <ele>141</ele>
        <time>2019-05-29T17:41:04Z</time>
      </trkpt>
      <trkpt lat="49.34828" lon="4.06613">
        <ele>141</ele>
        <time>2019-05-29T17:41:05Z</time>
      </trkpt>
      <trkpt lat="49.34828" lon="4.06613">
        <ele>141</ele>
        <time>2019-05-29T17:41:06Z</time>
      </trkpt>
      <trkpt lat="49.34828" lon="4.06613">
        <ele>141</ele>
        <time>2019-05-29T17:41:07Z</time>
      </trkpt>
      <trkpt lat="49.34828" lon="4.06613">
        <ele>141</ele>
        <time>2019-05-29T17:41:08Z</time>
      </trkpt>
      <trkpt lat="49.34828" lon="4.06613">
        <ele>141</ele>
        <time>2019-05-29T17:41:09Z</time>
      </trkpt>
      <trkpt lat="49.34828" lon="4.06613">
        <ele>141</ele>
        <time>2019-05-29T17:41:10Z</time>
      </trkpt>
      <trkpt lat="49.34828" lon="4.06613">
        <ele>141</ele>
        <time>2019-05-29T17:41:11Z</time>
      </trkpt>
      <trkpt lat="49.34828" lon="4.06613">
        <ele>141</ele>
        <time>2019-05-29T17:41:12Z</time>
      </trkpt>
      <trkpt lat="49.34828" lon="4.06613">
        <ele>141</ele>
        <time>2019-05-29T17:41:13Z</time>
      </trkpt>
      <trkpt lat="49.34828" lon="4.06613">
        <ele>141</ele>
        <time>2019-05-29T17:41:14Z</time>
      </trkpt>
      <trkpt lat="49.34828" lon="4.06613">
        <ele>141</ele>
        <time>2019-05-29T17:41:15Z</time>
      </trkpt>
      <trkpt lat="49.34828" lon="4.06613">
        <ele>141</ele>
        <time>2019-05-29T17:41:16Z</time>
      </trkpt>
      <trkpt lat="49.34828" lon="4.06613">
        <ele>141</ele>
        <time>2019-05-29T17:41:17Z</time>
      </trkpt>
      <trkpt lat="49.34828" lon="4.06613">
        <ele>141</ele>
        <time>2019-05-29T17:41:18Z</time>
      </trkpt>
      <trkpt lat="49.34828" lon="4.06613">
        <ele>141</ele>
        <time>2019-05-29T17:41:19Z</time>
      </trkpt>
      <trkpt lat="49.34828" lon="4.06613">
        <ele>141</ele>
        <time>2019-05-29T17:41:20Z</time>
      </trkpt>
      <trkpt lat="49.34828" lon="4.06613">
        <ele>141</ele>
        <time>2019-05-29T17:41:21Z</time>
      </trkpt>
      <trkpt lat="49.34828" lon="4.06613">
        <ele>141</ele>
        <time>2019-05-29T17:41:22Z</time>
      </trkpt>
      <trkpt lat="49.34828" lon="4.06613">
        <ele>141</ele>
        <time>2019-05-29T17:41:23Z</time>
      </trkpt>
      <trkpt lat="49.34828" lon="4.06613">
        <ele>141</ele>
        <time>2019-05-29T17:41:24Z</time>
      </trkpt>
      <trkpt lat="49.34828" lon="4.06613">
        <ele>141</ele>
        <time>2019-05-29T17:41:25Z</time>
      </trkpt>
      <trkpt lat="49.34828" lon="4.06613">
        <ele>141</ele>
        <time>2019-05-29T17:41:26Z</time>
      </trkpt>
      <trkpt lat="49.34828" lon="4.06613">
        <ele>141</ele>
        <time>2019-05-29T17:41:27Z</time>
      </trkpt>
      <trkpt lat="49.34828" lon="4.06613">
        <ele>141</ele>
        <time>2019-05-29T17:41:28Z</time>
      </trkpt>
      <trkpt lat="49.34828" lon="4.06613">
        <ele>141</ele>
        <time>2019-05-29T17:41:29Z</time>
      </trkpt>
      <trkpt lat="49.34828" lon="4.06613">
        <ele>141</ele>
        <time>2019-05-29T17:41:30Z</time>
      </trkpt>
      <trkpt lat="49.34828" lon="4.06613">
        <ele>141</ele>
        <time>2019-05-29T17:41:31Z</time>
      </trkpt>
      <trkpt lat="49.34828" lon="4.06613">
        <ele>141</ele>
        <time>2019-05-29T17:41:32Z</time>
      </trkpt>
      <trkpt lat="49.34828" lon="4.06613">
        <ele>141</ele>
        <time>2019-05-29T17:41:33Z</time>
      </trkpt>
      <trkpt lat="49.34828" lon="4.06613">
        <ele>141</ele>
        <time>2019-05-29T17:41:34Z</time>
      </trkpt>
      <trkpt lat="49.34828" lon="4.06613">
        <ele>141</ele>
        <time>2019-05-29T17:41:35Z</time>
      </trkpt>
      <trkpt lat="49.34828" lon="4.06613">
        <ele>141</ele>
        <time>2019-05-29T17:41:36Z</time>
      </trkpt>
      <trkpt lat="49.34828" lon="4.06613">
        <ele>141</ele>
        <time>2019-05-29T17:41:37Z</time>
      </trkpt>
      <trkpt lat="49.34828" lon="4.06613">
        <ele>141</ele>
        <time>2019-05-29T17:41:38Z</time>
      </trkpt>
      <trkpt lat="49.34828" lon="4.06613">
        <ele>141</ele>
        <time>2019-05-29T17:41:39Z</time>
      </trkpt>
      <trkpt lat="49.34827" lon="4.06614">
        <ele>142</ele>
        <time>2019-05-29T17:41:40Z</time>
      </trkpt>
      <trkpt lat="49.34827" lon="4.06614">
        <ele>142</ele>
        <time>2019-05-29T17:41:41Z</time>
      </trkpt>
      <trkpt lat="49.34827" lon="4.06614">
        <ele>142</ele>
        <time>2019-05-29T17:41:42Z</time>
      </trkpt>
      <trkpt lat="49.34827" lon="4.06614">
        <ele>142</ele>
        <time>2019-05-29T17:41:43Z</time>
      </trkpt>
      <trkpt lat="49.34827" lon="4.06614">
        <ele>142</ele>
        <time>2019-05-29T17:41:44Z</time>
      </trkpt>
      <trkpt lat="49.34827" lon="4.06614">
        <ele>142</ele>
        <time>2019-05-29T17:41:45Z</time>
      </trkpt>
      <trkpt lat="49.34827" lon="4.06614">
        <ele>142</ele>
        <time>2019-05-29T17:41:46Z</time>
      </trkpt>
      <trkpt lat="49.34827" lon="4.06614">
        <ele>142</ele>
        <time>2019-05-29T17:41:47Z</time>
      </trkpt>
      <trkpt lat="49.34827" lon="4.06614">
        <ele>142</ele>
        <time>2019-05-29T17:41:48Z</time>
      </trkpt>
      <trkpt lat="49.34827" lon="4.06614">
        <ele>142</ele>
        <time>2019-05-29T17:41:49Z</time>
      </trkpt>
      <trkpt lat="49.34827" lon="4.06614">
        <ele>142</ele>
        <time>2019-05-29T17:41:50Z</time>
      </trkpt>
      <trkpt lat="49.34827" lon="4.06614">
        <ele>142</ele>
        <time>2019-05-29T17:41:51Z</time>
      </trkpt>
      <trkpt lat="49.34827" lon="4.06614">
        <ele>142</ele>
        <time>2019-05-29T17:41:52Z</time>
      </trkpt>
      <trkpt lat="49.34827" lon="4.06614">
        <ele>142</ele>
        <time>2019-05-29T17:41:53Z</time>
      </trkpt>
      <trkpt lat="49.34827" lon="4.06614">
        <ele>142</ele>
        <time>2019-05-29T17:41:54Z</time>
      </trkpt>
      <trkpt lat="49.34827" lon="4.06614">
        <ele>142</ele>
        <time>2019-05-29T17:41:55Z</time>
      </trkpt>
      <trkpt lat="49.34827" lon="4.06614">
        <ele>142</ele>
        <time>2019-05-29T17:41:56Z</time>
      </trkpt>
      <trkpt lat="49.34827" lon="4.06614">
        <ele>142</ele>
        <time>2019-05-29T17:41:57Z</time>
      </trkpt>
      <trkpt lat="49.34827" lon="4.06614">
        <ele>142</ele>
        <time>2019-05-29T17:41:58Z</time>
      </trkpt>
      <trkpt lat="49.34827" lon="4.06614">
        <ele>142</ele>
        <time>2019-05-29T17:41:59Z</time>
      </trkpt>
      <trkpt lat="49.34827" lon="4.06614">
        <ele>142</ele>
        <time>2019-05-29T17:42:00Z</time>
      </trkpt>
      <trkpt lat="49.34827" lon="4.06614">
        <ele>142</ele>
        <time>2019-05-29T17:42:01Z</time>
      </trkpt>
      <trkpt lat="49.34827" lon="4.06614">
        <ele>142</ele>
        <time>2019-05-29T17:42:02Z</time>
      </trkpt>
      <trkpt lat="49.34827" lon="4.06614">
        <ele>142</ele>
        <time>2019-05-29T17:42:03Z</time>
      </trkpt>
      <trkpt lat="49.34827" lon="4.06614">
        <ele>142</ele>
        <time>2019-05-29T17:42:04Z</time>
      </trkpt>
      <trkpt lat="49.34827" lon="4.06614">
        <ele>142</ele>
        <time>2019-05-29T17:42:05Z</time>
      </trkpt>
      <trkpt lat="49.34827" lon="4.06614">
        <ele>142</ele>
        <time>2019-05-29T17:42:06Z</time>
      </trkpt>
      <trkpt lat="49.34827" lon="4.06614">
        <ele>142</ele>
        <time>2019-05-29T17:42:07Z</time>
      </trkpt>
      <trkpt lat="49.34827" lon="4.06614">
        <ele>142</ele>
        <time>2019-05-29T17:42:08Z</time>
      </trkpt>
      <trkpt lat="49.34827" lon="4.06614">
        <ele>142</ele>
        <time>2019-05-29T17:42:09Z</time>
      </trkpt>
      <trkpt lat="49.34827" lon="4.06614">
        <ele>142</ele>
        <time>2019-05-29T17:42:10Z</time>
      </trkpt>
      <trkpt lat="49.34827" lon="4.06614">
        <ele>142</ele>
        <time>2019-05-29T17:42:11Z</time>
      </trkpt>
      <trkpt lat="49.34827" lon="4.06614">
        <ele>142</ele>
        <time>2019-05-29T17:42:12Z</time>
      </trkpt>
      <trkpt lat="49.34827" lon="4.06614">
        <ele>142</ele>
        <time>2019-05-29T17:42:13Z</time>
      </trkpt>
      <trkpt lat="49.34827" lon="4.06614">
        <ele>142</ele>
        <time>2019-05-29T17:42:14Z</time>
      </trkpt>
      <trkpt lat="49.34827" lon="4.06614">
        <ele>142</ele>
        <time>2019-05-29T17:42:15Z</time>
      </trkpt>
      <trkpt lat="49.34827" lon="4.06614">
        <ele>142</ele>
        <time>2019-05-29T17:42:16Z</time>
      </trkpt>
      <trkpt lat="49.34827" lon="4.06614">
        <ele>142</ele>
        <time>2019-05-29T17:42:17Z</time>
      </trkpt>
      <trkpt lat="49.34827" lon="4.06614">
        <ele>142</ele>
        <time>2019-05-29T17:42:18Z</time>
      </trkpt>
      <trkpt lat="49.34827" lon="4.06614">
        <ele>142</ele>
        <time>2019-05-29T17:42:19Z</time>
      </trkpt>
      <trkpt lat="49.34827" lon="4.06614">
        <ele>142</ele>
        <time>2019-05-29T17:42:20Z</time>
      </trkpt>
      <trkpt lat="49.34827" lon="4.06614">
        <ele>142</ele>
        <time>2019-05-29T17:42:21Z</time>
      </trkpt>
      <trkpt lat="49.34827" lon="4.06614">
        <ele>142</ele>
        <time>2019-05-29T17:42:22Z</time>
      </trkpt>
      <trkpt lat="49.34827" lon="4.06614">
        <ele>142</ele>
        <time>2019-05-29T17:42:23Z</time>
      </trkpt>
      <trkpt lat="49.34827" lon="4.06614">
        <ele>142</ele>
        <time>2019-05-29T17:42:24Z</time>
      </trkpt>
      <trkpt lat="49.34827" lon="4.06614">
        <ele>142</ele>
        <time>2019-05-29T17:42:25Z</time>
      </trkpt>
      <trkpt lat="49.34827" lon="4.06614">
        <ele>142</ele>
        <time>2019-05-29T17:42:26Z</time>
      </trkpt>
      <trkpt lat="49.34827" lon="4.06614">
        <ele>142</ele>
        <time>2019-05-29T17:42:27Z</time>
      </trkpt>
      <trkpt lat="49.34827" lon="4.06614">
        <ele>142</ele>
        <time>2019-05-29T17:42:28Z</time>
      </trkpt>
      <trkpt lat="49.34827" lon="4.06614">
        <ele>142</ele>
        <time>2019-05-29T17:42:29Z</time>
      </trkpt>
      <trkpt lat="49.34827" lon="4.06614">
        <ele>142</ele>
        <time>2019-05-29T17:42:30Z</time>
      </trkpt>
      <trkpt lat="49.34827" lon="4.06614">
        <ele>142</ele>
        <time>2019-05-29T17:42:31Z</time>
      </trkpt>
      <trkpt lat="49.34827" lon="4.06614">
        <ele>142</ele>
        <time>2019-05-29T17:42:32Z</time>
      </trkpt>
      <trkpt lat="49.34827" lon="4.06614">
        <ele>142</ele>
        <time>2019-05-29T17:42:33Z</time>
      </trkpt>
      <trkpt lat="49.34827" lon="4.06614">
        <ele>142</ele>
        <time>2019-05-29T17:42:34Z</time>
      </trkpt>
      <trkpt lat="49.34827" lon="4.06614">
        <ele>142</ele>
        <time>2019-05-29T17:42:35Z</time>
      </trkpt>
      <trkpt lat="49.34827" lon="4.06614">
        <ele>142</ele>
        <time>2019-05-29T17:42:36Z</time>
      </trkpt>
      <trkpt lat="49.34827" lon="4.06614">
        <ele>142</ele>
        <time>2019-05-29T17:42:37Z</time>
      </trkpt>
      <trkpt lat="49.34827" lon="4.06614">
        <ele>142</ele>
        <time>2019-05-29T17:42:38Z</time>
      </trkpt>
      <trkpt lat="49.34827" lon="4.06614">
        <ele>142</ele>
        <time>2019-05-29T17:42:39Z</time>
      </trkpt>
      <trkpt lat="49.34827" lon="4.06614">
        <ele>142</ele>
        <time>2019-05-29T17:42:40Z</time>
      </trkpt>
      <trkpt lat="49.34827" lon="4.06614">
        <ele>142</ele>
        <time>2019-05-29T17:42:41Z</time>
      </trkpt>
      <trkpt lat="49.34827" lon="4.06614">
        <ele>142</ele>
        <time>2019-05-29T17:42:42Z</time>
      </trkpt>
      <trkpt lat="49.34827" lon="4.06614">
        <ele>142</ele>
        <time>2019-05-29T17:42:43Z</time>
      </trkpt>
      <trkpt lat="49.34827" lon="4.06614">
        <ele>142</ele>
        <time>2019-05-29T17:42:44Z</time>
      </trkpt>
      <trkpt lat="49.34827" lon="4.06614">
        <ele>142</ele>
        <time>2019-05-29T17:42:45Z</time>
      </trkpt>
      <trkpt lat="49.34827" lon="4.06614">
        <ele>142</ele>
        <time>2019-05-29T17:42:46Z</time>
      </trkpt>
      <trkpt lat="49.34827" lon="4.06614">
        <ele>142</ele>
        <time>2019-05-29T17:42:47Z</time>
      </trkpt>
      <trkpt lat="49.34827" lon="4.06614">
        <ele>142</ele>
        <time>2019-05-29T17:42:48Z</time>
      </trkpt>
      <trkpt lat="49.34827" lon="4.06614">
        <ele>142</ele>
        <time>2019-05-29T17:42:49Z</time>
      </trkpt>
      <trkpt lat="49.34827" lon="4.06614">
        <ele>142</ele>
        <time>2019-05-29T17:42:50Z</time>
      </trkpt>
      <trkpt lat="49.34827" lon="4.06614">
        <ele>142</ele>
        <time>2019-05-29T17:42:51Z</time>
      </trkpt>
      <trkpt lat="49.34827" lon="4.06614">
        <ele>142</ele>
        <time>2019-05-29T17:42:52Z</time>
      </trkpt>
      <trkpt lat="49.34827" lon="4.06614">
        <ele>142</ele>
        <time>2019-05-29T17:42:53Z</time>
      </trkpt>
      <trkpt lat="49.34827" lon="4.06614">
        <ele>142</ele>
        <time>2019-05-29T17:42:54Z</time>
      </trkpt>
      <trkpt lat="49.34827" lon="4.06614">
        <ele>142</ele>
        <time>2019-05-29T17:42:55Z</time>
      </trkpt>
      <trkpt lat="49.34827" lon="4.06614">
        <ele>142</ele>
        <time>2019-05-29T17:42:56Z</time>
      </trkpt>
      <trkpt lat="49.34827" lon="4.06614">
        <ele>142</ele>
        <time>2019-05-29T17:42:57Z</time>
      </trkpt>
      <trkpt lat="49.34827" lon="4.06614">
        <ele>142</ele>
        <time>2019-05-29T17:42:58Z</time>
      </trkpt>
      <trkpt lat="49.34827" lon="4.06614">
        <ele>142</ele>
        <time>2019-05-29T17:42:59Z</time>
      </trkpt>
      <trkpt lat="49.34827" lon="4.06614">
        <ele>142</ele>
        <time>2019-05-29T17:43:00Z</time>
      </trkpt>
      <trkpt lat="49.34827" lon="4.06614">
        <ele>142</ele>
        <time>2019-05-29T17:43:01Z</time>
      </trkpt>
      <trkpt lat="49.34827" lon="4.06614">
        <ele>142</ele>
        <time>2019-05-29T17:43:02Z</time>
      </trkpt>
      <trkpt lat="49.34827" lon="4.06614">
        <ele>142</ele>
        <time>2019-05-29T17:43:03Z</time>
      </trkpt>
      <trkpt lat="49.34827" lon="4.06614">
        <ele>142</ele>
        <time>2019-05-29T17:43:04Z</time>
      </trkpt>
      <trkpt lat="49.34827" lon="4.06614">
        <ele>142</ele>
        <time>2019-05-29T17:43:05Z</time>
      </trkpt>
      <trkpt lat="49.34827" lon="4.06614">
        <ele>142</ele>
        <time>2019-05-29T17:43:06Z</time>
      </trkpt>
      <trkpt lat="49.34827" lon="4.06614">
        <ele>142</ele>
        <time>2019-05-29T17:43:07Z</time>
      </trkpt>
      <trkpt lat="49.34827" lon="4.06614">
        <ele>142</ele>
        <time>2019-05-29T17:43:08Z</time>
      </trkpt>
      <trkpt lat="49.34827" lon="4.06614">
        <ele>142</ele>
        <time>2019-05-29T17:43:09Z</time>
      </trkpt>
      <trkpt lat="49.34827" lon="4.06614">
        <ele>142</ele>
        <time>2019-05-29T17:43:10Z</time>
      </trkpt>
      <trkpt lat="49.34827" lon="4.06614">
        <ele>142</ele>
        <time>2019-05-29T17:43:11Z</time>
      </trkpt>
      <trkpt lat="49.34827" lon="4.06614">
        <ele>142</ele>
        <time>2019-05-29T17:43:12Z</time>
      </trkpt>
      <trkpt lat="49.34827" lon="4.06614">
        <ele>142</ele>
        <time>2019-05-29T17:43:13Z</time>
      </trkpt>
      <trkpt lat="49.34827" lon="4.06614">
        <ele>142</ele>
        <time>2019-05-29T17:43:14Z</time>
      </trkpt>
      <trkpt lat="49.34827" lon="4.06614">
        <ele>142</ele>
        <time>2019-05-29T17:43:15Z</time>
      </trkpt>
      <trkpt lat="49.34827" lon="4.06614">
        <ele>142</ele>
        <time>2019-05-29T17:43:16Z</time>
      </trkpt>
      <trkpt lat="49.34827" lon="4.06614">
        <ele>142</ele>
        <time>2019-05-29T17:43:17Z</time>
      </trkpt>
      <trkpt lat="49.34827" lon="4.06614">
        <ele>142</ele>
        <time>2019-05-29T17:43:18Z</time>
      </trkpt>
      <trkpt lat="49.34827" lon="4.06614">
        <ele>142</ele>
        <time>2019-05-29T17:43:19Z</time>
      </trkpt>
      <trkpt lat="49.34827" lon="4.06614">
        <ele>142</ele>
        <time>2019-05-29T17:43:20Z</time>
      </trkpt>
      <trkpt lat="49.34827" lon="4.06614">
        <ele>142</ele>
        <time>2019-05-29T17:43:21Z</time>
      </trkpt>
      <trkpt lat="49.34827" lon="4.06614">
        <ele>142</ele>
        <time>2019-05-29T17:43:22Z</time>
      </trkpt>
      <trkpt lat="49.34827" lon="4.06614">
        <ele>142</ele>
        <time>2019-05-29T17:43:23Z</time>
      </trkpt>
      <trkpt lat="49.34827" lon="4.06614">
        <ele>142</ele>
        <time>2019-05-29T17:43:24Z</time>
      </trkpt>
      <trkpt lat="49.34827" lon="4.06614">
        <ele>142</ele>
        <time>2019-05-29T17:43:25Z</time>
      </trkpt>
      <trkpt lat="49.34827" lon="4.06614">
        <ele>142</ele>
        <time>2019-05-29T17:43:26Z</time>
      </trkpt>
      <trkpt lat="49.34827" lon="4.06614">
        <ele>142</ele>
        <time>2019-05-29T17:43:27Z</time>
      </trkpt>
      <trkpt lat="49.34827" lon="4.06614">
        <ele>142</ele>
        <time>2019-05-29T17:43:28Z</time>
      </trkpt>
      <trkpt lat="49.34827" lon="4.06614">
        <ele>142</ele>
        <time>2019-05-29T17:43:29Z</time>
      </trkpt>
      <trkpt lat="49.34827" lon="4.06614">
        <ele>142</ele>
        <time>2019-05-29T17:43:30Z</time>
      </trkpt>
      <trkpt lat="49.34827" lon="4.06614">
        <ele>142</ele>
        <time>2019-05-29T17:43:31Z</time>
      </trkpt>
      <trkpt lat="49.34827" lon="4.06614">
        <ele>142</ele>
        <time>2019-05-29T17:43:32Z</time>
      </trkpt>
      <trkpt lat="49.34827" lon="4.06614">
        <ele>142</ele>
        <time>2019-05-29T17:43:33Z</time>
      </trkpt>
      <trkpt lat="49.34827" lon="4.06614">
        <ele>142</ele>
        <time>2019-05-29T17:43:34Z</time>
      </trkpt>
      <trkpt lat="49.34827" lon="4.06614">
        <ele>142</ele>
        <time>2019-05-29T17:43:35Z</time>
      </trkpt>
      <trkpt lat="49.34827" lon="4.06614">
        <ele>142</ele>
        <time>2019-05-29T17:43:36Z</time>
      </trkpt>
      <trkpt lat="49.34827" lon="4.06614">
        <ele>142</ele>
        <time>2019-05-29T17:43:37Z</time>
      </trkpt>
      <trkpt lat="49.34827" lon="4.06614">
        <ele>142</ele>
        <time>2019-05-29T17:43:38Z</time>
      </trkpt>
      <trkpt lat="49.34827" lon="4.06614">
        <ele>142</ele>
        <time>2019-05-29T17:43:39Z</time>
      </trkpt>
      <trkpt lat="49.34827" lon="4.06614">
        <ele>142</ele>
        <time>2019-05-29T17:43:40Z</time>
      </trkpt>
      <trkpt lat="49.34827" lon="4.06614">
        <ele>142</ele>
        <time>2019-05-29T17:43:41Z</time>
      </trkpt>
      <trkpt lat="49.34827" lon="4.06614">
        <ele>142</ele>
        <time>2019-05-29T17:43:42Z</time>
      </trkpt>
      <trkpt lat="49.34827" lon="4.06614">
        <ele>142</ele>
        <time>2019-05-29T17:43:43Z</time>
      </trkpt>
      <trkpt lat="49.34827" lon="4.06614">
        <ele>142</ele>
        <time>2019-05-29T17:43:44Z</time>
      </trkpt>
      <trkpt lat="49.34826" lon="4.06615">
        <ele>141</ele>
        <time>2019-05-29T17:43:45Z</time>
      </trkpt>
      <trkpt lat="49.34826" lon="4.06616">
        <ele>141</ele>
        <time>2019-05-29T17:43:46Z</time>
      </trkpt>
      <trkpt lat="49.34826" lon="4.06616">
        <ele>141</ele>
        <time>2019-05-29T17:43:47Z</time>
      </trkpt>
      <trkpt lat="49.34826" lon="4.06616">
        <ele>141</ele>
        <time>2019-05-29T17:43:48Z</time>
      </trkpt>
      <trkpt lat="49.34826" lon="4.06616">
        <ele>141</ele>
        <time>2019-05-29T17:43:49Z</time>
      </trkpt>
      <trkpt lat="49.34826" lon="4.06616">
        <ele>141</ele>
        <time>2019-05-29T17:43:50Z</time>
      </trkpt>
      <trkpt lat="49.34826" lon="4.06616">
        <ele>141</ele>
        <time>2019-05-29T17:43:51Z</time>
      </trkpt>
      <trkpt lat="49.34826" lon="4.06616">
        <ele>141</ele>
        <time>2019-05-29T17:43:52Z</time>
      </trkpt>
      <trkpt lat="49.34826" lon="4.06616">
        <ele>141</ele>
        <time>2019-05-29T17:43:53Z</time>
      </trkpt>
      <trkpt lat="49.34826" lon="4.06616">
        <ele>141</ele>
        <time>2019-05-29T17:43:54Z</time>
      </trkpt>
      <trkpt lat="49.34826" lon="4.06616">
        <ele>141</ele>
        <time>2019-05-29T17:43:55Z</time>
      </trkpt>
      <trkpt lat="49.34826" lon="4.06616">
        <ele>141</ele>
        <time>2019-05-29T17:43:56Z</time>
      </trkpt>
      <trkpt lat="49.34826" lon="4.06616">
        <ele>141</ele>
        <time>2019-05-29T17:43:57Z</time>
      </trkpt>
      <trkpt lat="49.34826" lon="4.06616">
        <ele>141</ele>
        <time>2019-05-29T17:43:58Z</time>
      </trkpt>
      <trkpt lat="49.34826" lon="4.06616">
        <ele>141</ele>
        <time>2019-05-29T17:43:59Z</time>
      </trkpt>
      <trkpt lat="49.34826" lon="4.06616">
        <ele>141</ele>
        <time>2019-05-29T17:44:00Z</time>
      </trkpt>
      <trkpt lat="49.34826" lon="4.06616">
        <ele>141</ele>
        <time>2019-05-29T17:44:01Z</time>
      </trkpt>
      <trkpt lat="49.34826" lon="4.06616">
        <ele>141</ele>
        <time>2019-05-29T17:44:02Z</time>
      </trkpt>
      <trkpt lat="49.34826" lon="4.06616">
        <ele>141</ele>
        <time>2019-05-29T17:44:03Z</time>
      </trkpt>
      <trkpt lat="49.34826" lon="4.06616">
        <ele>141</ele>
        <time>2019-05-29T17:44:04Z</time>
      </trkpt>
      <trkpt lat="49.34826" lon="4.06616">
        <ele>141</ele>
        <time>2019-05-29T17:44:05Z</time>
      </trkpt>
      <trkpt lat="49.34826" lon="4.06616">
        <ele>141</ele>
        <time>2019-05-29T17:44:06Z</time>
      </trkpt>
      <trkpt lat="49.34826" lon="4.06616">
        <ele>141</ele>
        <time>2019-05-29T17:44:07Z</time>
      </trkpt>
      <trkpt lat="49.34826" lon="4.06616">
        <ele>141</ele>
        <time>2019-05-29T17:44:08Z</time>
      </trkpt>
      <trkpt lat="49.34826" lon="4.06616">
        <ele>141</ele>
        <time>2019-05-29T17:44:09Z</time>
      </trkpt>
      <trkpt lat="49.34826" lon="4.06616">
        <ele>141</ele>
        <time>2019-05-29T17:44:10Z</time>
      </trkpt>
      <trkpt lat="49.34826" lon="4.06616">
        <ele>141</ele>
        <time>2019-05-29T17:44:11Z</time>
      </trkpt>
      <trkpt lat="49.34826" lon="4.06616">
        <ele>141</ele>
        <time>2019-05-29T17:44:12Z</time>
      </trkpt>
      <trkpt lat="49.34826" lon="4.06616">
        <ele>141</ele>
        <time>2019-05-29T17:44:13Z</time>
      </trkpt>
      <trkpt lat="49.34826" lon="4.06616">
        <ele>141</ele>
        <time>2019-05-29T17:44:14Z</time>
      </trkpt>
      <trkpt lat="49.34826" lon="4.06616">
        <ele>141</ele>
        <time>2019-05-29T17:44:15Z</time>
      </trkpt>
      <trkpt lat="49.34826" lon="4.06616">
        <ele>141</ele>
        <time>2019-05-29T17:44:16Z</time>
      </trkpt>
      <trkpt lat="49.34826" lon="4.06616">
        <ele>141</ele>
        <time>2019-05-29T17:44:17Z</time>
      </trkpt>
      <trkpt lat="49.34826" lon="4.06616">
        <ele>141</ele>
        <time>2019-05-29T17:44:18Z</time>
      </trkpt>
      <trkpt lat="49.34826" lon="4.06616">
        <ele>141</ele>
        <time>2019-05-29T17:44:19Z</time>
      </trkpt>
      <trkpt lat="49.34826" lon="4.06616">
        <ele>141</ele>
        <time>2019-05-29T17:44:20Z</time>
      </trkpt>
      <trkpt lat="49.34826" lon="4.06616">
        <ele>141</ele>
        <time>2019-05-29T17:44:21Z</time>
      </trkpt>
      <trkpt lat="49.34826" lon="4.06616">
        <ele>141</ele>
        <time>2019-05-29T17:44:22Z</time>
      </trkpt>
      <trkpt lat="49.34826" lon="4.06616">
        <ele>141</ele>
        <time>2019-05-29T17:44:23Z</time>
      </trkpt>
      <trkpt lat="49.34826" lon="4.06616">
        <ele>141</ele>
        <time>2019-05-29T17:44:24Z</time>
      </trkpt>
      <trkpt lat="49.34826" lon="4.06616">
        <ele>141</ele>
        <time>2019-05-29T17:44:25Z</time>
      </trkpt>
      <trkpt lat="49.34826" lon="4.06616">
        <ele>141</ele>
        <time>2019-05-29T17:44:26Z</time>
      </trkpt>
      <trkpt lat="49.34825" lon="4.06618">
        <ele>141</ele>
        <time>2019-05-29T17:44:27Z</time>
      </trkpt>
      <trkpt lat="49.34824" lon="4.06621">
        <ele>141</ele>
        <time>2019-05-29T17:44:28Z</time>
      </trkpt>
      <trkpt lat="49.34824" lon="4.06623">
        <ele>142</ele>
        <time>2019-05-29T17:44:29Z</time>
      </trkpt>
      <trkpt lat="49.34823" lon="4.06626">
        <ele>142</ele>
        <time>2019-05-29T17:44:30Z</time>
      </trkpt>
      <trkpt lat="49.34822" lon="4.06629">
        <ele>142</ele>
        <time>2019-05-29T17:44:31Z</time>
      </trkpt>
      <trkpt lat="49.34821" lon="4.06632">
        <ele>142</ele>
        <time>2019-05-29T17:44:32Z</time>
      </trkpt>
      <trkpt lat="49.3482" lon="4.06635">
        <ele>142</ele>
        <time>2019-05-29T17:44:33Z</time>
      </trkpt>
      <trkpt lat="49.34819" lon="4.06638">
        <ele>142</ele>
        <time>2019-05-29T17:44:34Z</time>
      </trkpt>
      <trkpt lat="49.34818" lon="4.06641">
        <ele>141</ele>
        <time>2019-05-29T17:44:35Z</time>
      </trkpt>
      <trkpt lat="49.34818" lon="4.06644">
        <ele>141</ele>
        <time>2019-05-29T17:44:36Z</time>
      </trkpt>
      <trkpt lat="49.34817" lon="4.06647">
        <ele>141</ele>
        <time>2019-05-29T17:44:37Z</time>
      </trkpt>
      <trkpt lat="49.34816" lon="4.06651">
        <ele>141</ele>
        <time>2019-05-29T17:44:38Z</time>
      </trkpt>
      <trkpt lat="49.34815" lon="4.06655">
        <ele>141</ele>
        <time>2019-05-29T17:44:39Z</time>
      </trkpt>
      <trkpt lat="49.34814" lon="4.06659">
        <ele>141</ele>
        <time>2019-05-29T17:44:40Z</time>
      </trkpt>
      <trkpt lat="49.34813" lon="4.06663">
        <ele>142</ele>
        <time>2019-05-29T17:44:41Z</time>
      </trkpt>
      <trkpt lat="49.34812" lon="4.06668">
        <ele>142</ele>
        <time>2019-05-29T17:44:42Z</time>
      </trkpt>
      <trkpt lat="49.34811" lon="4.06674">
        <ele>141</ele>
        <time>2019-05-29T17:44:43Z</time>
      </trkpt>
      <trkpt lat="49.3481" lon="4.0668">
        <ele>141</ele>
        <time>2019-05-29T17:44:44Z</time>
      </trkpt>
      <trkpt lat="49.34809" lon="4.06686">
        <ele>141</ele>
        <time>2019-05-29T17:44:45Z</time>
      </trkpt>
      <trkpt lat="49.34807" lon="4.06692">
        <ele>141</ele>
        <time>2019-05-29T17:44:46Z</time>
      </trkpt>
      <trkpt lat="49.34806" lon="4.06698">
        <ele>141</ele>
        <time>2019-05-29T17:44:47Z</time>
      </trkpt>
      <trkpt lat="49.34805" lon="4.06704">
        <ele>141</ele>
        <time>2019-05-29T17:44:48Z</time>
      </trkpt>
      <trkpt lat="49.34803" lon="4.06711">
        <ele>140</ele>
        <time>2019-05-29T17:44:49Z</time>
      </trkpt>
      <trkpt lat="49.34802" lon="4.06717">
        <ele>141</ele>
        <time>2019-05-29T17:44:50Z</time>
      </trkpt>
      <trkpt lat="49.34801" lon="4.06724">
        <ele>140</ele>
        <time>2019-05-29T17:44:51Z</time>
      </trkpt>
      <trkpt lat="49.348" lon="4.0673">
        <ele>140</ele>
        <time>2019-05-29T17:44:52Z</time>
      </trkpt>
      <trkpt lat="49.34799" lon="4.06736">
        <ele>140</ele>
        <time>2019-05-29T17:44:53Z</time>
      </trkpt>
      <trkpt lat="49.34798" lon="4.06742">
        <ele>140</ele>
        <time>2019-05-29T17:44:54Z</time>
      </trkpt>
      <trkpt lat="49.34798" lon="4.06746">
        <ele>140</ele>
        <time>2019-05-29T17:44:55Z</time>
      </trkpt>
      <trkpt lat="49.34799" lon="4.0675">
        <ele>140</ele>
        <time>2019-05-29T17:44:56Z</time>
      </trkpt>
      <trkpt lat="49.348" lon="4.06753">
        <ele>140</ele>
        <time>2019-05-29T17:44:57Z</time>
      </trkpt>
      <trkpt lat="49.34803" lon="4.06756">
        <ele>140</ele>
        <time>2019-05-29T17:44:58Z</time>
      </trkpt>
      <trkpt lat="49.34806" lon="4.06758">
        <ele>140</ele>
        <time>2019-05-29T17:44:59Z</time>
      </trkpt>
      <trkpt lat="49.34809" lon="4.06764">
        <ele>139</ele>
        <time>2019-05-29T17:45:00Z</time>
      </trkpt>
      <trkpt lat="49.34809" lon="4.06771">
        <ele>139</ele>
        <time>2019-05-29T17:45:01Z</time>
      </trkpt>
      <trkpt lat="49.34806" lon="4.06778">
        <ele>139</ele>
        <time>2019-05-29T17:45:02Z</time>
      </trkpt>
      <trkpt lat="49.34805" lon="4.06785">
        <ele>139</ele>
        <time>2019-05-29T17:45:03Z</time>
      </trkpt>
      <trkpt lat="49.34803" lon="4.06794">
        <ele>139</ele>
        <time>2019-05-29T17:45:04Z</time>
      </trkpt>
      <trkpt lat="49.34802" lon="4.06802">
        <ele>139</ele>
        <time>2019-05-29T17:45:05Z</time>
      </trkpt>
      <trkpt lat="49.348" lon="4.06811">
        <ele>139</ele>
        <time>2019-05-29T17:45:06Z</time>
      </trkpt>
      <trkpt lat="49.34798" lon="4.06819">
        <ele>138</ele>
        <time>2019-05-29T17:45:07Z</time>
      </trkpt>
      <trkpt lat="49.34796" lon="4.06828">
        <ele>138</ele>
        <time>2019-05-29T17:45:08Z</time>
      </trkpt>
      <trkpt lat="49.34794" lon="4.06836">
        <ele>138</ele>
        <time>2019-05-29T17:45:09Z</time>
      </trkpt>
      <trkpt lat="49.34792" lon="4.06845">
        <ele>138</ele>
        <time>2019-05-29T17:45:10Z</time>
      </trkpt>
      <trkpt lat="49.34789" lon="4.06855">
        <ele>138</ele>
        <time>2019-05-29T17:45:11Z</time>
      </trkpt>
      <trkpt lat="49.34787" lon="4.06864">
        <ele>137</ele>
        <time>2019-05-29T17:45:12Z</time>
      </trkpt>
      <trkpt lat="49.34786" lon="4.06873">
        <ele>137</ele>
        <time>2019-05-29T17:45:13Z</time>
      </trkpt>
      <trkpt lat="49.34784" lon="4.06882">
        <ele>137</ele>
        <time>2019-05-29T17:45:14Z</time>
      </trkpt>
      <trkpt lat="49.34782" lon="4.06892">
        <ele>136</ele>
        <time>2019-05-29T17:45:15Z</time>
      </trkpt>
      <trkpt lat="49.3478" lon="4.06901">
        <ele>136</ele>
        <time>2019-05-29T17:45:16Z</time>
      </trkpt>
      <trkpt lat="49.34779" lon="4.06911">
        <ele>136</ele>
        <time>2019-05-29T17:45:17Z</time>
      </trkpt>
      <trkpt lat="49.34777" lon="4.0692">
        <ele>136</ele>
        <time>2019-05-29T17:45:18Z</time>
      </trkpt>
      <trkpt lat="49.34774" lon="4.0693">
        <ele>136</ele>
        <time>2019-05-29T17:45:19Z</time>
      </trkpt>
      <trkpt lat="49.34772" lon="4.0694">
        <ele>136</ele>
        <time>2019-05-29T17:45:20Z</time>
      </trkpt>
      <trkpt lat="49.3477" lon="4.06949">
        <ele>136</ele>
        <time>2019-05-29T17:45:21Z</time>
      </trkpt>
      <trkpt lat="49.34768" lon="4.06958">
        <ele>136</ele>
        <time>2019-05-29T17:45:22Z</time>
      </trkpt>
      <trkpt lat="49.34766" lon="4.06967">
        <ele>136</ele>
        <time>2019-05-29T17:45:23Z</time>
      </trkpt>
      <trkpt lat="49.34763" lon="4.06974">
        <ele>136</ele>
        <time>2019-05-29T17:45:24Z</time>
      </trkpt>
      <trkpt lat="49.34762" lon="4.0698">
        <ele>136</ele>
        <time>2019-05-29T17:45:25Z</time>
      </trkpt>
      <trkpt lat="49.3476" lon="4.06988">
        <ele>136</ele>
        <time>2019-05-29T17:45:26Z</time>
      </trkpt>
      <trkpt lat="49.34759" lon="4.06998">
        <ele>137</ele>
        <time>2019-05-29T17:45:27Z</time>
      </trkpt>
      <trkpt lat="49.34758" lon="4.07009">
        <ele>136</ele>
        <time>2019-05-29T17:45:28Z</time>
      </trkpt>
      <trkpt lat="49.34756" lon="4.07018">
        <ele>137</ele>
        <time>2019-05-29T17:45:29Z</time>
      </trkpt>
      <trkpt lat="49.34754" lon="4.07028">
        <ele>137</ele>
        <time>2019-05-29T17:45:30Z</time>
      </trkpt>
      <trkpt lat="49.34752" lon="4.07038">
        <ele>136</ele>
        <time>2019-05-29T17:45:31Z</time>
      </trkpt>
      <trkpt lat="49.3475" lon="4.07047">
        <ele>136</ele>
        <time>2019-05-29T17:45:32Z</time>
      </trkpt>
      <trkpt lat="49.34747" lon="4.07056">
        <ele>136</ele>
        <time>2019-05-29T17:45:33Z</time>
      </trkpt>
      <trkpt lat="49.34744" lon="4.07063">
        <ele>135</ele>
        <time>2019-05-29T17:45:34Z</time>
      </trkpt>
      <trkpt lat="49.34742" lon="4.07071">
        <ele>134</ele>
        <time>2019-05-29T17:45:35Z</time>
      </trkpt>
      <trkpt lat="49.3474" lon="4.07077">
        <ele>134</ele>
        <time>2019-05-29T17:45:36Z</time>
      </trkpt>
      <trkpt lat="49.34738" lon="4.07082">
        <ele>135</ele>
        <time>2019-05-29T17:45:37Z</time>
      </trkpt>
      <trkpt lat="49.34735" lon="4.07086">
        <ele>135</ele>
        <time>2019-05-29T17:45:38Z</time>
      </trkpt>
      <trkpt lat="49.34732" lon="4.07087">
        <ele>135</ele>
        <time>2019-05-29T17:45:39Z</time>
      </trkpt>
      <trkpt lat="49.34727" lon="4.0709">
        <ele>135</ele>
        <time>2019-05-29T17:45:40Z</time>
      </trkpt>
      <trkpt lat="49.34722" lon="4.07092">
        <ele>135</ele>
        <time>2019-05-29T17:45:41Z</time>
      </trkpt>
      <trkpt lat="49.34717" lon="4.07095">
        <ele>135</ele>
        <time>2019-05-29T17:45:42Z</time>
      </trkpt>
      <trkpt lat="49.34711" lon="4.07098">
        <ele>135</ele>
        <time>2019-05-29T17:45:43Z</time>
      </trkpt>
      <trkpt lat="49.34705" lon="4.07101">
        <ele>135</ele>
        <time>2019-05-29T17:45:44Z</time>
      </trkpt>
      <trkpt lat="49.34699" lon="4.07104">
        <ele>135</ele>
        <time>2019-05-29T17:45:45Z</time>
      </trkpt>
      <trkpt lat="49.34692" lon="4.07107">
        <ele>135</ele>
        <time>2019-05-29T17:45:46Z</time>
      </trkpt>
      <trkpt lat="49.34686" lon="4.07111">
        <ele>135</ele>
        <time>2019-05-29T17:45:47Z</time>
      </trkpt>
      <trkpt lat="49.3468" lon="4.07114">
        <ele>135</ele>
        <time>2019-05-29T17:45:48Z</time>
      </trkpt>
      <trkpt lat="49.34673" lon="4.07118">
        <ele>135</ele>
        <time>2019-05-29T17:45:49Z</time>
      </trkpt>
      <trkpt lat="49.34666" lon="4.07121">
        <ele>135</ele>
        <time>2019-05-29T17:45:50Z</time>
      </trkpt>
      <trkpt lat="49.34659" lon="4.07124">
        <ele>135</ele>
        <time>2019-05-29T17:45:51Z</time>
      </trkpt>
      <trkpt lat="49.34653" lon="4.07128">
        <ele>134</ele>
        <time>2019-05-29T17:45:52Z</time>
      </trkpt>
      <trkpt lat="49.34646" lon="4.07131">
        <ele>134</ele>
        <time>2019-05-29T17:45:53Z</time>
      </trkpt>
      <trkpt lat="49.34639" lon="4.07134">
        <ele>133</ele>
        <time>2019-05-29T17:45:54Z</time>
      </trkpt>
      <trkpt lat="49.34632" lon="4.07138">
        <ele>133</ele>
        <time>2019-05-29T17:45:55Z</time>
      </trkpt>
      <trkpt lat="49.34626" lon="4.07142">
        <ele>133</ele>
        <time>2019-05-29T17:45:56Z</time>
      </trkpt>
      <trkpt lat="49.34619" lon="4.07145">
        <ele>133</ele>
        <time>2019-05-29T17:45:57Z</time>
      </trkpt>
      <trkpt lat="49.34612" lon="4.07149">
        <ele>133</ele>
        <time>2019-05-29T17:45:58Z</time>
      </trkpt>
      <trkpt lat="49.34606" lon="4.07153">
        <ele>133</ele>
        <time>2019-05-29T17:45:59Z</time>
      </trkpt>
      <trkpt lat="49.34599" lon="4.07157">
        <ele>133</ele>
        <time>2019-05-29T17:46:00Z</time>
      </trkpt>
      <trkpt lat="49.34592" lon="4.0716">
        <ele>133</ele>
        <time>2019-05-29T17:46:01Z</time>
      </trkpt>
      <trkpt lat="49.34585" lon="4.07164">
        <ele>133</ele>
        <time>2019-05-29T17:46:02Z</time>
      </trkpt>
      <trkpt lat="49.34579" lon="4.07168">
        <ele>133</ele>
        <time>2019-05-29T17:46:03Z</time>
      </trkpt>
      <trkpt lat="49.34571" lon="4.07172">
        <ele>133</ele>
        <time>2019-05-29T17:46:04Z</time>
      </trkpt>
      <trkpt lat="49.34564" lon="4.07175">
        <ele>133</ele>
        <time>2019-05-29T17:46:05Z</time>
      </trkpt>
      <trkpt lat="49.34558" lon="4.07178">
        <ele>133</ele>
        <time>2019-05-29T17:46:06Z</time>
      </trkpt>
      <trkpt lat="49.34551" lon="4.07182">
        <ele>133</ele>
        <time>2019-05-29T17:46:07Z</time>
      </trkpt>
      <trkpt lat="49.34544" lon="4.07185">
        <ele>133</ele>
        <time>2019-05-29T17:46:08Z</time>
      </trkpt>
      <trkpt lat="49.34537" lon="4.07188">
        <ele>133</ele>
        <time>2019-05-29T17:46:09Z</time>
      </trkpt>
      <trkpt lat="49.34531" lon="4.07191">
        <ele>133</ele>
        <time>2019-05-29T17:46:10Z</time>
      </trkpt>
      <trkpt lat="49.34525" lon="4.07195">
        <ele>133</ele>
        <time>2019-05-29T17:46:11Z</time>
      </trkpt>
      <trkpt lat="49.34518" lon="4.07199">
        <ele>132</ele>
        <time>2019-05-29T17:46:12Z</time>
      </trkpt>
      <trkpt lat="49.34512" lon="4.07201">
        <ele>132</ele>
        <time>2019-05-29T17:46:13Z</time>
      </trkpt>
      <trkpt lat="49.34506" lon="4.07204">
        <ele>133</ele>
        <time>2019-05-29T17:46:14Z</time>
      </trkpt>
      <trkpt lat="49.345" lon="4.07207">
        <ele>133</ele>
        <time>2019-05-29T17:46:15Z</time>
      </trkpt>
      <trkpt lat="49.34494" lon="4.0721">
        <ele>133</ele>
        <time>2019-05-29T17:46:16Z</time>
      </trkpt>
      <trkpt lat="49.34488" lon="4.07213">
        <ele>133</ele>
        <time>2019-05-29T17:46:17Z</time>
      </trkpt>
      <trkpt lat="49.34482" lon="4.07216">
        <ele>133</ele>
        <time>2019-05-29T17:46:18Z</time>
      </trkpt>
      <trkpt lat="49.34476" lon="4.07219">
        <ele>133</ele>
        <time>2019-05-29T17:46:19Z</time>
      </trkpt>
      <trkpt lat="49.34471" lon="4.07222">
        <ele>133</ele>
        <time>2019-05-29T17:46:20Z</time>
      </trkpt>
      <trkpt lat="49.34466" lon="4.07224">
        <ele>133</ele>
        <time>2019-05-29T17:46:21Z</time>
      </trkpt>
      <trkpt lat="49.34461" lon="4.07223">
        <ele>133</ele>
        <time>2019-05-29T17:46:22Z</time>
      </trkpt>
      <trkpt lat="49.34457" lon="4.0722">
        <ele>133</ele>
        <time>2019-05-29T17:46:23Z</time>
      </trkpt>
      <trkpt lat="49.34454" lon="4.07215">
        <ele>133</ele>
        <time>2019-05-29T17:46:24Z</time>
      </trkpt>
      <trkpt lat="49.34452" lon="4.07208">
        <ele>133</ele>
        <time>2019-05-29T17:46:25Z</time>
      </trkpt>
      <trkpt lat="49.3445" lon="4.07201">
        <ele>132</ele>
        <time>2019-05-29T17:46:26Z</time>
      </trkpt>
      <trkpt lat="49.34449" lon="4.07196">
        <ele>131</ele>
        <time>2019-05-29T17:46:27Z</time>
      </trkpt>
      <trkpt lat="49.34447" lon="4.07191">
        <ele>131</ele>
        <time>2019-05-29T17:46:28Z</time>
      </trkpt>
      <trkpt lat="49.34448" lon="4.07185">
        <ele>131</ele>
        <time>2019-05-29T17:46:29Z</time>
      </trkpt>
      <trkpt lat="49.34449" lon="4.07181">
        <ele>131</ele>
        <time>2019-05-29T17:46:30Z</time>
      </trkpt>
      <trkpt lat="49.34452" lon="4.07177">
        <ele>131</ele>
        <time>2019-05-29T17:46:31Z</time>
      </trkpt>
      <trkpt lat="49.34454" lon="4.07175">
        <ele>131</ele>
        <time>2019-05-29T17:46:32Z</time>
      </trkpt>
      <trkpt lat="49.34458" lon="4.07173">
        <ele>131</ele>
        <time>2019-05-29T17:46:33Z</time>
      </trkpt>
      <trkpt lat="49.34461" lon="4.07173">
        <ele>132</ele>
        <time>2019-05-29T17:46:34Z</time>
      </trkpt>
      <trkpt lat="49.34464" lon="4.07172">
        <ele>132</ele>
        <time>2019-05-29T17:46:35Z</time>
      </trkpt>
      <trkpt lat="49.34467" lon="4.0717">
        <ele>132</ele>
        <time>2019-05-29T17:46:36Z</time>
      </trkpt>
      <trkpt lat="49.34471" lon="4.07168">
        <ele>132</ele>
        <time>2019-05-29T17:46:37Z</time>
      </trkpt>
      <trkpt lat="49.34474" lon="4.07167">
        <ele>132</ele>
        <time>2019-05-29T17:46:38Z</time>
      </trkpt>
      <trkpt lat="49.34477" lon="4.07165">
        <ele>131</ele>
        <time>2019-05-29T17:46:39Z</time>
      </trkpt>
      <trkpt lat="49.3448" lon="4.07164">
        <ele>131</ele>
        <time>2019-05-29T17:46:40Z</time>
      </trkpt>
      <trkpt lat="49.34483" lon="4.07162">
        <ele>131</ele>
        <time>2019-05-29T17:46:41Z</time>
      </trkpt>
      <trkpt lat="49.34486" lon="4.07161">
        <ele>131</ele>
        <time>2019-05-29T17:46:42Z</time>
      </trkpt>
      <trkpt lat="49.34489" lon="4.0716">
        <ele>131</ele>
        <time>2019-05-29T17:46:43Z</time>
      </trkpt>
      <trkpt lat="49.34491" lon="4.07158">
        <ele>131</ele>
        <time>2019-05-29T17:46:44Z</time>
      </trkpt>
      <trkpt lat="49.34494" lon="4.07158">
        <ele>131</ele>
        <time>2019-05-29T17:46:45Z</time>
      </trkpt>
      <trkpt lat="49.34497" lon="4.07157">
        <ele>131</ele>
        <time>2019-05-29T17:46:46Z</time>
      </trkpt>
      <trkpt lat="49.345" lon="4.07156">
        <ele>131</ele>
        <time>2019-05-29T17:46:47Z</time>
      </trkpt>
      <trkpt lat="49.34503" lon="4.07154">
        <ele>131</ele>
        <time>2019-05-29T17:46:48Z</time>
      </trkpt>
      <trkpt lat="49.34506" lon="4.07153">
        <ele>131</ele>
        <time>2019-05-29T17:46:49Z</time>
      </trkpt>
      <trkpt lat="49.34508" lon="4.07152">
        <ele>131</ele>
        <time>2019-05-29T17:46:50Z</time>
      </trkpt>
      <trkpt lat="49.3451" lon="4.07151">
        <ele>131</ele>
        <time>2019-05-29T17:46:51Z</time>
      </trkpt>
      <trkpt lat="49.34511" lon="4.07149">
        <ele>131</ele>
        <time>2019-05-29T17:46:52Z</time>
      </trkpt>
      <trkpt lat="49.34511" lon="4.07148">
        <ele>131</ele>
        <time>2019-05-29T17:46:53Z</time>
      </trkpt>
      <trkpt lat="49.34509" lon="4.07147">
        <ele>132</ele>
        <time>2019-05-29T17:46:54Z</time>
      </trkpt>
      <trkpt lat="49.34508" lon="4.07147">
        <ele>131</ele>
        <time>2019-05-29T17:46:55Z</time>
      </trkpt>
      <trkpt lat="49.34508" lon="4.07146">
        <ele>131</ele>
        <time>2019-05-29T17:46:56Z</time>
      </trkpt>
      <trkpt lat="49.34508" lon="4.07146">
        <ele>132</ele>
        <time>2019-05-29T17:46:57Z</time>
      </trkpt>
      <trkpt lat="49.34508" lon="4.07146">
        <ele>132</ele>
        <time>2019-05-29T17:46:58Z</time>
      </trkpt>
      <trkpt lat="49.34508" lon="4.07146">
        <ele>132</ele>
        <time>2019-05-29T17:46:59Z</time>
      </trkpt>
      <trkpt lat="49.34508" lon="4.07146">
        <ele>132</ele>
        <time>2019-05-29T17:47:00Z</time>
      </trkpt>
      <trkpt lat="49.34508" lon="4.07146">
        <ele>132</ele>
        <time>2019-05-29T17:47:01Z</time>
      </trkpt>
      <trkpt lat="49.34508" lon="4.07146">
        <ele>132</ele>
        <time>2019-05-29T17:47:02Z</time>
      </trkpt>
      <trkpt lat="49.34508" lon="4.07146">
        <ele>132</ele>
        <time>2019-05-29T17:47:03Z</time>
      </trkpt>
      <trkpt lat="49.34508" lon="4.07146">
        <ele>132</ele>
        <time>2019-05-29T17:47:04Z</time>
      </trkpt>
      <trkpt lat="49.34508" lon="4.07146">
        <ele>132</ele>
        <time>2019-05-29T17:47:05Z</time>
      </trkpt>
      <trkpt lat="49.34508" lon="4.07146">
        <ele>132</ele>
        <time>2019-05-29T17:47:06Z</time>
      </trkpt>
      <trkpt lat="49.34508" lon="4.07146">
        <ele>132</ele>
        <time>2019-05-29T17:47:07Z</time>
      </trkpt>
      <trkpt lat="49.34508" lon="4.07146">
        <ele>132</ele>
        <time>2019-05-29T17:47:08Z</time>
      </trkpt>
      <trkpt lat="49.34508" lon="4.07146">
        <ele>132</ele>
        <time>2019-05-29T17:47:09Z</time>
      </trkpt>
      <trkpt lat="49.34508" lon="4.07146">
        <ele>132</ele>
        <time>2019-05-29T17:47:10Z</time>
      </trkpt>
      <trkpt lat="49.34508" lon="4.07146">
        <ele>132</ele>
        <time>2019-05-29T17:47:11Z</time>
      </trkpt>
      <trkpt lat="49.34508" lon="4.07146">
        <ele>132</ele>
        <time>2019-05-29T17:47:12Z</time>
      </trkpt>
      <trkpt lat="49.34508" lon="4.07146">
        <ele>132</ele>
        <time>2019-05-29T17:47:13Z</time>
      </trkpt>
      <trkpt lat="49.34508" lon="4.07146">
        <ele>132</ele>
        <time>2019-05-29T17:47:14Z</time>
      </trkpt>
      <trkpt lat="49.34508" lon="4.07146">
        <ele>132</ele>
        <time>2019-05-29T17:47:15Z</time>
      </trkpt>
      <trkpt lat="49.34508" lon="4.07146">
        <ele>132</ele>
        <time>2019-05-29T17:47:16Z</time>
      </trkpt>
      <trkpt lat="49.34508" lon="4.07146">
        <ele>132</ele>
        <time>2019-05-29T17:47:17Z</time>
      </trkpt>
      <trkpt lat="49.34508" lon="4.07146">
        <ele>132</ele>
        <time>2019-05-29T17:47:18Z</time>
      </trkpt>
      <trkpt lat="49.34508" lon="4.07146">
        <ele>132</ele>
        <time>2019-05-29T17:47:19Z</time>
      </trkpt>
      <trkpt lat="49.34508" lon="4.07146">
        <ele>132</ele>
        <time>2019-05-29T17:47:20Z</time>
      </trkpt>
      <trkpt lat="49.34508" lon="4.07146">
        <ele>132</ele>
        <time>2019-05-29T17:47:21Z</time>
      </trkpt>
      <trkpt lat="49.34508" lon="4.07146">
        <ele>132</ele>
        <time>2019-05-29T17:47:22Z</time>
      </trkpt>
      <trkpt lat="49.34508" lon="4.07146">
        <ele>132</ele>
        <time>2019-05-29T17:47:23Z</time>
      </trkpt>
      <trkpt lat="49.34508" lon="4.07146">
        <ele>132</ele>
        <time>2019-05-29T17:47:24Z</time>
      </trkpt>
      <trkpt lat="49.34508" lon="4.07146">
        <ele>132</ele>
        <time>2019-05-29T17:47:25Z</time>
      </trkpt>
      <trkpt lat="49.34508" lon="4.07146">
        <ele>132</ele>
        <time>2019-05-29T17:47:26Z</time>
      </trkpt>
      <trkpt lat="49.34508" lon="4.07146">
        <ele>132</ele>
        <time>2019-05-29T17:47:27Z</time>
      </trkpt>
      <trkpt lat="49.34508" lon="4.07146">
        <ele>132</ele>
        <time>2019-05-29T17:47:28Z</time>
      </trkpt>
      <trkpt lat="49.34508" lon="4.07146">
        <ele>132</ele>
        <time>2019-05-29T17:47:29Z</time>
      </trkpt>
      <trkpt lat="49.34508" lon="4.07146">
        <ele>132</ele>
        <time>2019-05-29T17:47:30Z</time>
      </trkpt>
      <trkpt lat="49.34508" lon="4.07146">
        <ele>132</ele>
        <time>2019-05-29T17:47:31Z</time>
      </trkpt>
      <trkpt lat="49.34508" lon="4.07146">
        <ele>132</ele>
        <time>2019-05-29T17:47:32Z</time>
      </trkpt>
      <trkpt lat="49.34508" lon="4.07146">
        <ele>132</ele>
        <time>2019-05-29T17:47:33Z</time>
      </trkpt>
      <trkpt lat="49.34508" lon="4.07145">
        <ele>133</ele>
        <time>2019-05-29T17:47:34Z</time>
      </trkpt>
      <trkpt lat="49.34508" lon="4.07145">
        <ele>133</ele>
        <time>2019-05-29T17:47:35Z</time>
      </trkpt>
      <trkpt lat="49.34509" lon="4.07145">
        <ele>133</ele>
        <time>2019-05-29T17:47:36Z</time>
      </trkpt>
      <trkpt lat="49.34509" lon="4.07145">
        <ele>133</ele>
        <time>2019-05-29T17:47:37Z</time>
      </trkpt>
      <trkpt lat="49.34509" lon="4.07145">
        <ele>133</ele>
        <time>2019-05-29T17:47:38Z</time>
      </trkpt>
      <trkpt lat="49.34509" lon="4.07145">
        <ele>133</ele>
        <time>2019-05-29T17:47:39Z</time>
      </trkpt>
      <trkpt lat="49.34509" lon="4.07145">
        <ele>133</ele>
        <time>2019-05-29T17:47:40Z</time>
      </trkpt>
      <trkpt lat="49.34509" lon="4.07145">
        <ele>133</ele>
        <time>2019-05-29T17:47:41Z</time>
      </trkpt>
      <trkpt lat="49.34509" lon="4.07145">
        <ele>133</ele>
        <time>2019-05-29T17:47:42Z</time>
      </trkpt>
      <trkpt lat="49.34509" lon="4.07145">
        <ele>133</ele>
        <time>2019-05-29T17:47:43Z</time>
      </trkpt>
      <trkpt lat="49.34509" lon="4.07145">
        <ele>133</ele>
        <time>2019-05-29T17:47:44Z</time>
      </trkpt>
      <trkpt lat="49.34509" lon="4.07145">
        <ele>133</ele>
        <time>2019-05-29T17:47:45Z</time>
      </trkpt>
      <trkpt lat="49.34509" lon="4.07145">
        <ele>133</ele>
        <time>2019-05-29T17:47:46Z</time>
      </trkpt>
      <trkpt lat="49.34509" lon="4.07145">
        <ele>133</ele>
        <time>2019-05-29T17:47:47Z</time>
      </trkpt>
      <trkpt lat="49.34509" lon="4.07145">
        <ele>133</ele>
        <time>2019-05-29T17:47:48Z</time>
      </trkpt>
    </trkseg>
  </trk>
</gpx>